<?xml version='1.0' encoding='UTF-8'?><gpx version="1.1" creator="JPX - https://github.com/jenetics/jpx" xmlns="http://www.topografix.com/GPX/1/1"><trk><trkseg><trkpt lat="46.4269087" lon="12.3641913"><ele>870.9999999999999</ele><time>2026-04-26T12:31:53.439Z</time></trkpt><trkpt lat="46.4269082" lon="12.3640816"><ele>871.0</ele><time>2026-04-26T12:31:56.037Z</time></trkpt><trkpt lat="46.4270082" lon="12.3640596"><ele>871.0</ele><time>2026-04-26T12:31:57.039Z</time></trkpt><trkpt lat="46.4271062" lon="12.364049"><ele>871.0</ele><time>2026-04-26T12:31:58.036Z</time></trkpt><trkpt lat="46.4270844" lon="12.3641438"><ele>870.9999999999999</ele><time>2026-04-26T12:32:04.037Z</time></trkpt><trkpt lat="46.4270208" lon="12.3641511"><ele>871.0</ele><time>2026-04-26T12:32:06.036Z</time></trkpt><trkpt lat="46.4269357" lon="12.3641239"><ele>870.9999999999999</ele><time>2026-04-26T12:32:08.03Z</time></trkpt><trkpt lat="46.4268843" lon="12.3640501"><ele>871.0</ele><time>2026-04-26T12:32:11.038Z</time></trkpt><trkpt lat="46.4268933" lon="12.3639133"><ele>871.0</ele><time>2026-04-26T12:33:03.039Z</time></trkpt><trkpt lat="46.426845" lon="12.3638417"><ele>871.0</ele><time>2026-04-26T12:33:05.04Z</time></trkpt><trkpt lat="46.42675" lon="12.36387"><ele>870.9999999999999</ele><time>2026-04-26T12:33:07.039Z</time></trkpt><trkpt lat="46.4266383" lon="12.363915"><ele>871.0</ele><time>2026-04-26T12:33:09.039Z</time></trkpt><trkpt lat="46.42652" lon="12.3639617"><ele>870.9999999999999</ele><time>2026-04-26T12:33:11.039Z</time></trkpt><trkpt lat="46.4264533" lon="12.3639883"><ele>871.0</ele><time>2026-04-26T12:33:12.041Z</time></trkpt><trkpt lat="46.4263833" lon="12.3640083"><ele>871.0</ele><time>2026-04-26T12:33:13.04Z</time></trkpt><trkpt lat="46.4263167" lon="12.364025"><ele>871.0</ele><time>2026-04-26T12:33:14.037Z</time></trkpt><trkpt lat="46.4262317" lon="12.3640633"><ele>870.9999999999999</ele><time>2026-04-26T12:33:16.027Z</time></trkpt><trkpt lat="46.4261933" lon="12.36419"><ele>871.0</ele><time>2026-04-26T12:33:18.028Z</time></trkpt><trkpt lat="46.42619" lon="12.364295"><ele>867.9999999999999</ele><time>2026-04-26T12:33:19.03Z</time></trkpt><trkpt lat="46.4261867" lon="12.364405"><ele>865.0</ele><time>2026-04-26T12:33:20.027Z</time></trkpt><trkpt lat="46.42618" lon="12.3645183"><ele>862.0</ele><time>2026-04-26T12:33:21.027Z</time></trkpt><trkpt lat="46.42618" lon="12.36463"><ele>859.0</ele><time>2026-04-26T12:33:22.029Z</time></trkpt><trkpt lat="46.42619" lon="12.3647433"><ele>855.9999999999999</ele><time>2026-04-26T12:33:23.028Z</time></trkpt><trkpt lat="46.4262033" lon="12.3648633"><ele>853.0</ele><time>2026-04-26T12:33:24.03Z</time></trkpt><trkpt lat="46.426215" lon="12.3649733"><ele>852.9999999999999</ele><time>2026-04-26T12:33:25.027Z</time></trkpt><trkpt lat="46.4262183" lon="12.36508"><ele>853.0</ele><time>2026-04-26T12:33:26.039Z</time></trkpt><trkpt lat="46.42622" lon="12.3651767"><ele>853.0</ele><time>2026-04-26T12:33:27.039Z</time></trkpt><trkpt lat="46.4262183" lon="12.3652733"><ele>853.0</ele><time>2026-04-26T12:33:28.039Z</time></trkpt><trkpt lat="46.4262333" lon="12.3653933"><ele>852.9999999999999</ele><time>2026-04-26T12:33:30.042Z</time></trkpt><trkpt lat="46.42624" lon="12.3655317"><ele>853.0</ele><time>2026-04-26T12:33:32.039Z</time></trkpt><trkpt lat="46.4262483" lon="12.3657317"><ele>852.8</ele><time>2026-04-26T12:33:34.036Z</time></trkpt><trkpt lat="46.4262533" lon="12.3658633"><ele>852.5999999999999</ele><time>2026-04-26T12:33:35.04Z</time></trkpt><trkpt lat="46.42624" lon="12.3660117"><ele>852.4000000000001</ele><time>2026-04-26T12:33:36.041Z</time></trkpt><trkpt lat="46.42622" lon="12.3661667"><ele>852.2</ele><time>2026-04-26T12:33:37.036Z</time></trkpt><trkpt lat="46.426195" lon="12.3663167"><ele>852.0</ele><time>2026-04-26T12:33:38.036Z</time></trkpt><trkpt lat="46.42617" lon="12.366475"><ele>853.5</ele><time>2026-04-26T12:33:39.039Z</time></trkpt><trkpt lat="46.4261433" lon="12.36664"><ele>855.0</ele><time>2026-04-26T12:33:40.038Z</time></trkpt><trkpt lat="46.4261167" lon="12.3668033"><ele>856.5</ele><time>2026-04-26T12:33:41.039Z</time></trkpt><trkpt lat="46.426095" lon="12.3669683"><ele>858.0</ele><time>2026-04-26T12:33:42.038Z</time></trkpt><trkpt lat="46.426075" lon="12.36713"><ele>859.0</ele><time>2026-04-26T12:33:43.038Z</time></trkpt><trkpt lat="46.426055" lon="12.3672917"><ele>860.0</ele><time>2026-04-26T12:33:44.036Z</time></trkpt><trkpt lat="46.4260617" lon="12.3674517"><ele>861.0</ele><time>2026-04-26T12:33:45.039Z</time></trkpt><trkpt lat="46.4260783" lon="12.3676183"><ele>862.0</ele><time>2026-04-26T12:33:46.039Z</time></trkpt><trkpt lat="46.4260883" lon="12.3677783"><ele>862.0</ele><time>2026-04-26T12:33:47.04Z</time></trkpt><trkpt lat="46.426105" lon="12.3679367"><ele>862.0</ele><time>2026-04-26T12:33:48.038Z</time></trkpt><trkpt lat="46.4261333" lon="12.36809"><ele>862.0</ele><time>2026-04-26T12:33:49.04Z</time></trkpt><trkpt lat="46.4261633" lon="12.36824"><ele>862.0</ele><time>2026-04-26T12:33:50.038Z</time></trkpt><trkpt lat="46.4261967" lon="12.3683917"><ele>862.0</ele><time>2026-04-26T12:33:51.036Z</time></trkpt><trkpt lat="46.4262317" lon="12.3685483"><ele>861.8</ele><time>2026-04-26T12:33:52.038Z</time></trkpt><trkpt lat="46.4262683" lon="12.3687017"><ele>861.6</ele><time>2026-04-26T12:33:53.038Z</time></trkpt><trkpt lat="46.4263033" lon="12.368855"><ele>861.3999999999999</ele><time>2026-04-26T12:33:54.042Z</time></trkpt><trkpt lat="46.42634" lon="12.3690017"><ele>861.1999999999999</ele><time>2026-04-26T12:33:55.041Z</time></trkpt><trkpt lat="46.4263767" lon="12.369145"><ele>861.0</ele><time>2026-04-26T12:33:56.036Z</time></trkpt><trkpt lat="46.4264167" lon="12.3692867"><ele>865.0</ele><time>2026-04-26T12:33:57.038Z</time></trkpt><trkpt lat="46.4264483" lon="12.3694283"><ele>868.9999999999999</ele><time>2026-04-26T12:33:58.038Z</time></trkpt><trkpt lat="46.4264817" lon="12.36957"><ele>872.9999999999999</ele><time>2026-04-26T12:33:59.041Z</time></trkpt><trkpt lat="46.4265117" lon="12.369725"><ele>877.0</ele><time>2026-04-26T12:34:00.044Z</time></trkpt><trkpt lat="46.426535" lon="12.3698833"><ele>881.0</ele><time>2026-04-26T12:34:01.041Z</time></trkpt><trkpt lat="46.4265567" lon="12.3700467"><ele>881.0</ele><time>2026-04-26T12:34:02.036Z</time></trkpt><trkpt lat="46.4265767" lon="12.3702217"><ele>881.0</ele><time>2026-04-26T12:34:03.038Z</time></trkpt><trkpt lat="46.4266283" lon="12.3704117"><ele>881.0</ele><time>2026-04-26T12:34:04.036Z</time></trkpt><trkpt lat="46.4266483" lon="12.37058"><ele>881.0</ele><time>2026-04-26T12:34:05.041Z</time></trkpt><trkpt lat="46.4266717" lon="12.3707433"><ele>880.4</ele><time>2026-04-26T12:34:06.041Z</time></trkpt><trkpt lat="46.4267067" lon="12.3708983"><ele>879.8</ele><time>2026-04-26T12:34:07.036Z</time></trkpt><trkpt lat="46.4267367" lon="12.3710517"><ele>879.1999999999999</ele><time>2026-04-26T12:34:08.035Z</time></trkpt><trkpt lat="46.4267767" lon="12.371205"><ele>878.5999999999999</ele><time>2026-04-26T12:34:09.037Z</time></trkpt><trkpt lat="46.4268333" lon="12.3713467"><ele>878.0</ele><time>2026-04-26T12:34:10.039Z</time></trkpt><trkpt lat="46.4268983" lon="12.371485"><ele>876.5</ele><time>2026-04-26T12:34:11.041Z</time></trkpt><trkpt lat="46.42698" lon="12.3716233"><ele>875.0</ele><time>2026-04-26T12:34:12.04Z</time></trkpt><trkpt lat="46.427055" lon="12.3717533"><ele>873.5</ele><time>2026-04-26T12:34:13.039Z</time></trkpt><trkpt lat="46.42715" lon="12.371885"><ele>872.0</ele><time>2026-04-26T12:34:14.039Z</time></trkpt><trkpt lat="46.4272317" lon="12.3720067"><ele>873.25</ele><time>2026-04-26T12:34:15.038Z</time></trkpt><trkpt lat="46.427325" lon="12.372115"><ele>874.5</ele><time>2026-04-26T12:34:16.04Z</time></trkpt><trkpt lat="46.4274133" lon="12.3722183"><ele>875.75</ele><time>2026-04-26T12:34:17.039Z</time></trkpt><trkpt lat="46.4275033" lon="12.3723267"><ele>877.0</ele><time>2026-04-26T12:34:18.039Z</time></trkpt><trkpt lat="46.4276" lon="12.3724367"><ele>877.0</ele><time>2026-04-26T12:34:19.039Z</time></trkpt><trkpt lat="46.4277183" lon="12.3725517"><ele>877.0</ele><time>2026-04-26T12:34:20.037Z</time></trkpt><trkpt lat="46.4278267" lon="12.372675"><ele>877.0</ele><time>2026-04-26T12:34:21.038Z</time></trkpt><trkpt lat="46.42793" lon="12.3727917"><ele>877.0</ele><time>2026-04-26T12:34:22.038Z</time></trkpt><trkpt lat="46.428035" lon="12.3729117"><ele>876.25</ele><time>2026-04-26T12:34:23.037Z</time></trkpt><trkpt lat="46.42813" lon="12.37302"><ele>875.5</ele><time>2026-04-26T12:34:24.039Z</time></trkpt><trkpt lat="46.4282283" lon="12.3731233"><ele>874.75</ele><time>2026-04-26T12:34:25.04Z</time></trkpt><trkpt lat="46.42832" lon="12.3732233"><ele>874.0</ele><time>2026-04-26T12:34:26.041Z</time></trkpt><trkpt lat="46.42841" lon="12.37332"><ele>874.0</ele><time>2026-04-26T12:34:27.035Z</time></trkpt><trkpt lat="46.4285" lon="12.3734117"><ele>874.0000000000001</ele><time>2026-04-26T12:34:28.04Z</time></trkpt><trkpt lat="46.4285817" lon="12.3734917"><ele>874.0000000000001</ele><time>2026-04-26T12:34:29.04Z</time></trkpt><trkpt lat="46.4286567" lon="12.37357"><ele>874.0</ele><time>2026-04-26T12:34:30.04Z</time></trkpt><trkpt lat="46.4287267" lon="12.3736417"><ele>874.0</ele><time>2026-04-26T12:34:31.04Z</time></trkpt><trkpt lat="46.4287883" lon="12.373725"><ele>875.4999999999999</ele><time>2026-04-26T12:34:32.039Z</time></trkpt><trkpt lat="46.4288433" lon="12.3738167"><ele>877.0</ele><time>2026-04-26T12:34:33.037Z</time></trkpt><trkpt lat="46.4288817" lon="12.3739117"><ele>878.5</ele><time>2026-04-26T12:34:34.036Z</time></trkpt><trkpt lat="46.4289267" lon="12.3740083"><ele>880.0</ele><time>2026-04-26T12:34:35.04Z</time></trkpt><trkpt lat="46.4289683" lon="12.37411"><ele>881.4999999999999</ele><time>2026-04-26T12:34:36.041Z</time></trkpt><trkpt lat="46.4290017" lon="12.3742133"><ele>883.0</ele><time>2026-04-26T12:34:37.037Z</time></trkpt><trkpt lat="46.4290333" lon="12.3743067"><ele>883.4</ele><time>2026-04-26T12:34:38.038Z</time></trkpt><trkpt lat="46.4290583" lon="12.3744"><ele>883.8</ele><time>2026-04-26T12:34:39.041Z</time></trkpt><trkpt lat="46.42905" lon="12.374595"><ele>884.2</ele><time>2026-04-26T12:34:41.041Z</time></trkpt><trkpt lat="46.4289467" lon="12.374685"><ele>884.6</ele><time>2026-04-26T12:34:42.046Z</time></trkpt><trkpt lat="46.42892" lon="12.3747683"><ele>885.0</ele><time>2026-04-26T12:34:43.04Z</time></trkpt><trkpt lat="46.4288767" lon="12.3749033"><ele>885.8333333333334</ele><time>2026-04-26T12:34:45.044Z</time></trkpt><trkpt lat="46.4288417" lon="12.3750467"><ele>886.6666666666667</ele><time>2026-04-26T12:34:48.043Z</time></trkpt><trkpt lat="46.4287533" lon="12.3751017"><ele>887.5</ele><time>2026-04-26T12:34:49.038Z</time></trkpt><trkpt lat="46.4286767" lon="12.3751817"><ele>888.3333333333334</ele><time>2026-04-26T12:34:50.04Z</time></trkpt><trkpt lat="46.4286467" lon="12.3752717"><ele>889.1666666666667</ele><time>2026-04-26T12:34:51.041Z</time></trkpt><trkpt lat="46.4286117" lon="12.3753483"><ele>890.0</ele><time>2026-04-26T12:34:52.04Z</time></trkpt><trkpt lat="46.4286267" lon="12.3754967"><ele>888.25</ele><time>2026-04-26T12:34:54.041Z</time></trkpt><trkpt lat="46.4285667" lon="12.3756517"><ele>886.5</ele><time>2026-04-26T12:34:56.04Z</time></trkpt><trkpt lat="46.4285117" lon="12.3758083"><ele>884.75</ele><time>2026-04-26T12:34:58.041Z</time></trkpt><trkpt lat="46.4285017" lon="12.3760167"><ele>883.0</ele><time>2026-04-26T12:35:00.041Z</time></trkpt><trkpt lat="46.42854" lon="12.376135"><ele>883.0</ele><time>2026-04-26T12:35:01.04Z</time></trkpt><trkpt lat="46.4285683" lon="12.3762417"><ele>883.0</ele><time>2026-04-26T12:35:02.044Z</time></trkpt><trkpt lat="46.42863" lon="12.3763567"><ele>883.0</ele><time>2026-04-26T12:35:03.041Z</time></trkpt><trkpt lat="46.428715" lon="12.3764767"><ele>883.0</ele><time>2026-04-26T12:35:04.041Z</time></trkpt><trkpt lat="46.42881" lon="12.3766067"><ele>883.0</ele><time>2026-04-26T12:35:05.04Z</time></trkpt><trkpt lat="46.4289317" lon="12.376735"><ele>882.3333333333333</ele><time>2026-04-26T12:35:06.046Z</time></trkpt><trkpt lat="46.429055" lon="12.37685"><ele>881.6666666666667</ele><time>2026-04-26T12:35:07.045Z</time></trkpt><trkpt lat="46.4292617" lon="12.3769667"><ele>881.0</ele><time>2026-04-26T12:35:08.042Z</time></trkpt><trkpt lat="46.42943" lon="12.37705"><ele>881.0</ele><time>2026-04-26T12:35:09.04Z</time></trkpt><trkpt lat="46.4296283" lon="12.3771083"><ele>881.0</ele><time>2026-04-26T12:35:10.04Z</time></trkpt><trkpt lat="46.429815" lon="12.377155"><ele>881.0</ele><time>2026-04-26T12:35:11.041Z</time></trkpt><trkpt lat="46.42998" lon="12.3772017"><ele>876.3333333333334</ele><time>2026-04-26T12:35:12.042Z</time></trkpt><trkpt lat="46.430135" lon="12.3772617"><ele>871.6666666666667</ele><time>2026-04-26T12:35:13.04Z</time></trkpt><trkpt lat="46.43027" lon="12.3773467"><ele>867.0</ele><time>2026-04-26T12:35:14.04Z</time></trkpt><trkpt lat="46.4303967" lon="12.377445"><ele>869.25</ele><time>2026-04-26T12:35:15.042Z</time></trkpt><trkpt lat="46.4305117" lon="12.377565"><ele>871.5</ele><time>2026-04-26T12:35:16.043Z</time></trkpt><trkpt lat="46.4306183" lon="12.3777067"><ele>873.75</ele><time>2026-04-26T12:35:17.041Z</time></trkpt><trkpt lat="46.43072" lon="12.3778433"><ele>876.0</ele><time>2026-04-26T12:35:18.041Z</time></trkpt><trkpt lat="46.4308367" lon="12.3779517"><ele>875.0</ele><time>2026-04-26T12:35:19.04Z</time></trkpt><trkpt lat="46.4309633" lon="12.3780367"><ele>874.0</ele><time>2026-04-26T12:35:20.04Z</time></trkpt><trkpt lat="46.431095" lon="12.3781333"><ele>873.0</ele><time>2026-04-26T12:35:21.039Z</time></trkpt><trkpt lat="46.4312217" lon="12.3782417"><ele>872.0</ele><time>2026-04-26T12:35:22.04Z</time></trkpt><trkpt lat="46.4313517" lon="12.3783633"><ele>872.0</ele><time>2026-04-26T12:35:23.042Z</time></trkpt><trkpt lat="46.43149" lon="12.3784867"><ele>872.0</ele><time>2026-04-26T12:35:24.043Z</time></trkpt><trkpt lat="46.431645" lon="12.3785933"><ele>872.0</ele><time>2026-04-26T12:35:25.039Z</time></trkpt><trkpt lat="46.4318033" lon="12.3786817"><ele>872.0</ele><time>2026-04-26T12:35:26.043Z</time></trkpt><trkpt lat="46.4319667" lon="12.3787583"><ele>872.0</ele><time>2026-04-26T12:35:27.043Z</time></trkpt><trkpt lat="46.4321167" lon="12.3788233"><ele>872.0</ele><time>2026-04-26T12:35:28.042Z</time></trkpt><trkpt lat="46.4322683" lon="12.3788817"><ele>861.6666666666667</ele><time>2026-04-26T12:35:29.04Z</time></trkpt><trkpt lat="46.4324183" lon="12.3789367"><ele>851.3333333333333</ele><time>2026-04-26T12:35:30.042Z</time></trkpt><trkpt lat="46.43257" lon="12.378965"><ele>841.0</ele><time>2026-04-26T12:35:31.043Z</time></trkpt><trkpt lat="46.4327183" lon="12.37896"><ele>841.0</ele><time>2026-04-26T12:35:32.035Z</time></trkpt><trkpt lat="46.4328817" lon="12.3789167"><ele>841.0</ele><time>2026-04-26T12:35:33.04Z</time></trkpt><trkpt lat="46.433035" lon="12.3788367"><ele>841.0</ele><time>2026-04-26T12:35:34.038Z</time></trkpt><trkpt lat="46.43319" lon="12.37872"><ele>843.6666666666666</ele><time>2026-04-26T12:35:35.041Z</time></trkpt><trkpt lat="46.4333433" lon="12.3785983"><ele>846.3333333333333</ele><time>2026-04-26T12:35:36.042Z</time></trkpt><trkpt lat="46.4335017" lon="12.3784767"><ele>849.0</ele><time>2026-04-26T12:35:37.04Z</time></trkpt><trkpt lat="46.433655" lon="12.3783617"><ele>849.0</ele><time>2026-04-26T12:35:38.04Z</time></trkpt><trkpt lat="46.4338017" lon="12.3782617"><ele>849.0</ele><time>2026-04-26T12:35:39.041Z</time></trkpt><trkpt lat="46.4339433" lon="12.3781817"><ele>849.0</ele><time>2026-04-26T12:35:40.038Z</time></trkpt><trkpt lat="46.4340883" lon="12.3781167"><ele>849.75</ele><time>2026-04-26T12:35:41.033Z</time></trkpt><trkpt lat="46.43423" lon="12.378065"><ele>850.5</ele><time>2026-04-26T12:35:42.043Z</time></trkpt><trkpt lat="46.4343667" lon="12.3780283"><ele>851.25</ele><time>2026-04-26T12:35:43.04Z</time></trkpt><trkpt lat="46.434505" lon="12.3780017"><ele>852.0</ele><time>2026-04-26T12:35:44.038Z</time></trkpt><trkpt lat="46.4346433" lon="12.377985"><ele>852.5</ele><time>2026-04-26T12:35:45.039Z</time></trkpt><trkpt lat="46.4347783" lon="12.3779667"><ele>853.0</ele><time>2026-04-26T12:35:46.039Z</time></trkpt><trkpt lat="46.43491" lon="12.3779433"><ele>853.5</ele><time>2026-04-26T12:35:47.04Z</time></trkpt><trkpt lat="46.435035" lon="12.3779133"><ele>854.0</ele><time>2026-04-26T12:35:48.043Z</time></trkpt><trkpt lat="46.43515" lon="12.3778533"><ele>854.0</ele><time>2026-04-26T12:35:49.039Z</time></trkpt><trkpt lat="46.435255" lon="12.377755"><ele>854.0</ele><time>2026-04-26T12:35:50.04Z</time></trkpt><trkpt lat="46.435345" lon="12.3776233"><ele>854.0</ele><time>2026-04-26T12:35:51.04Z</time></trkpt><trkpt lat="46.4354167" lon="12.37746"><ele>854.0</ele><time>2026-04-26T12:35:52.037Z</time></trkpt><trkpt lat="46.4354883" lon="12.37728"><ele>852.25</ele><time>2026-04-26T12:35:53.041Z</time></trkpt><trkpt lat="46.4355617" lon="12.3771"><ele>850.5</ele><time>2026-04-26T12:35:54.042Z</time></trkpt><trkpt lat="46.4356317" lon="12.3769383"><ele>848.75</ele><time>2026-04-26T12:35:55.041Z</time></trkpt><trkpt lat="46.4356917" lon="12.3767967"><ele>847.0</ele><time>2026-04-26T12:35:56.04Z</time></trkpt><trkpt lat="46.4357483" lon="12.3766883"><ele>846.9999999999999</ele><time>2026-04-26T12:35:57.041Z</time></trkpt><trkpt lat="46.4358117" lon="12.3766033"><ele>847.0</ele><time>2026-04-26T12:35:58.039Z</time></trkpt><trkpt lat="46.4358783" lon="12.37655"><ele>847.0</ele><time>2026-04-26T12:35:59.04Z</time></trkpt><trkpt lat="46.4359433" lon="12.3765233"><ele>847.0</ele><time>2026-04-26T12:36:00.04Z</time></trkpt><trkpt lat="46.43604" lon="12.3766083"><ele>846.9999999999999</ele><time>2026-04-26T12:36:02.043Z</time></trkpt><trkpt lat="46.4360883" lon="12.37667"><ele>847.0</ele><time>2026-04-26T12:36:03.042Z</time></trkpt><trkpt lat="46.43611" lon="12.3767883"><ele>847.0</ele><time>2026-04-26T12:36:04.041Z</time></trkpt><trkpt lat="46.4360983" lon="12.3769733"><ele>847.0</ele><time>2026-04-26T12:36:05.04Z</time></trkpt><trkpt lat="46.4360967" lon="12.3771683"><ele>847.0</ele><time>2026-04-26T12:36:06.042Z</time></trkpt><trkpt lat="46.4360767" lon="12.377405"><ele>847.0</ele><time>2026-04-26T12:36:07.041Z</time></trkpt><trkpt lat="46.436095" lon="12.377585"><ele>844.75</ele><time>2026-04-26T12:36:08.04Z</time></trkpt><trkpt lat="46.436115" lon="12.3777567"><ele>842.5</ele><time>2026-04-26T12:36:09.04Z</time></trkpt><trkpt lat="46.4361317" lon="12.37792"><ele>840.25</ele><time>2026-04-26T12:36:10.04Z</time></trkpt><trkpt lat="46.4361517" lon="12.37808"><ele>838.0</ele><time>2026-04-26T12:36:11.04Z</time></trkpt><trkpt lat="46.4361717" lon="12.378235"><ele>834.2</ele><time>2026-04-26T12:36:12.042Z</time></trkpt><trkpt lat="46.4361933" lon="12.3783833"><ele>830.4</ele><time>2026-04-26T12:36:13.04Z</time></trkpt><trkpt lat="46.4362117" lon="12.37851"><ele>826.6</ele><time>2026-04-26T12:36:14.041Z</time></trkpt><trkpt lat="46.4362217" lon="12.3786133"><ele>822.8000000000001</ele><time>2026-04-26T12:36:15.039Z</time></trkpt><trkpt lat="46.43622" lon="12.378765"><ele>819.0</ele><time>2026-04-26T12:36:17.04Z</time></trkpt><trkpt lat="46.4361583" lon="12.3789083"><ele>816.6</ele><time>2026-04-26T12:36:19.04Z</time></trkpt><trkpt lat="46.436135" lon="12.379005"><ele>814.2</ele><time>2026-04-26T12:36:20.043Z</time></trkpt><trkpt lat="46.436125" lon="12.3791267"><ele>811.8000000000001</ele><time>2026-04-26T12:36:21.041Z</time></trkpt><trkpt lat="46.43614" lon="12.3792767"><ele>809.4000000000001</ele><time>2026-04-26T12:36:22.041Z</time></trkpt><trkpt lat="46.4361667" lon="12.37942"><ele>807.0</ele><time>2026-04-26T12:36:23.042Z</time></trkpt><trkpt lat="46.4362067" lon="12.3795483"><ele>807.0</ele><time>2026-04-26T12:36:24.042Z</time></trkpt><trkpt lat="46.4362483" lon="12.3796633"><ele>807.0</ele><time>2026-04-26T12:36:25.042Z</time></trkpt><trkpt lat="46.436305" lon="12.37976"><ele>807.0</ele><time>2026-04-26T12:36:26.04Z</time></trkpt><trkpt lat="46.4363783" lon="12.3798183"><ele>807.0</ele><time>2026-04-26T12:36:27.042Z</time></trkpt><trkpt lat="46.4364667" lon="12.3798433"><ele>807.0</ele><time>2026-04-26T12:36:28.04Z</time></trkpt><trkpt lat="46.4365617" lon="12.3798333"><ele>807.0</ele><time>2026-04-26T12:36:29.04Z</time></trkpt><trkpt lat="46.436665" lon="12.3797917"><ele>807.5</ele><time>2026-04-26T12:36:30.042Z</time></trkpt><trkpt lat="46.4367683" lon="12.379765"><ele>808.0</ele><time>2026-04-26T12:36:31.041Z</time></trkpt><trkpt lat="46.4368817" lon="12.3797667"><ele>808.5</ele><time>2026-04-26T12:36:32.042Z</time></trkpt><trkpt lat="46.4370017" lon="12.3797867"><ele>809.0</ele><time>2026-04-26T12:36:33.04Z</time></trkpt><trkpt lat="46.4371267" lon="12.3798217"><ele>809.75</ele><time>2026-04-26T12:36:34.041Z</time></trkpt><trkpt lat="46.4372517" lon="12.379875"><ele>810.5</ele><time>2026-04-26T12:36:35.041Z</time></trkpt><trkpt lat="46.43738" lon="12.3799317"><ele>811.25</ele><time>2026-04-26T12:36:36.04Z</time></trkpt><trkpt lat="46.4375083" lon="12.37999"><ele>812.0</ele><time>2026-04-26T12:36:37.042Z</time></trkpt><trkpt lat="46.43764" lon="12.3800417"><ele>812.0</ele><time>2026-04-26T12:36:38.039Z</time></trkpt><trkpt lat="46.4377717" lon="12.38009"><ele>812.0</ele><time>2026-04-26T12:36:39.036Z</time></trkpt><trkpt lat="46.4379083" lon="12.3801333"><ele>812.0</ele><time>2026-04-26T12:36:40.041Z</time></trkpt><trkpt lat="46.43805" lon="12.380175"><ele>812.0</ele><time>2026-04-26T12:36:41.043Z</time></trkpt><trkpt lat="46.43819" lon="12.3802067"><ele>811.75</ele><time>2026-04-26T12:36:42.041Z</time></trkpt><trkpt lat="46.4383317" lon="12.3802267"><ele>811.5</ele><time>2026-04-26T12:36:43.042Z</time></trkpt><trkpt lat="46.4384717" lon="12.3802333"><ele>811.25</ele><time>2026-04-26T12:36:44.042Z</time></trkpt><trkpt lat="46.4386133" lon="12.3802283"><ele>811.0</ele><time>2026-04-26T12:36:45.043Z</time></trkpt><trkpt lat="46.438755" lon="12.3802083"><ele>810.25</ele><time>2026-04-26T12:36:46.04Z</time></trkpt><trkpt lat="46.4388983" lon="12.380185"><ele>809.5</ele><time>2026-04-26T12:36:47.04Z</time></trkpt><trkpt lat="46.4390383" lon="12.3801617"><ele>808.75</ele><time>2026-04-26T12:36:48.037Z</time></trkpt><trkpt lat="46.4391733" lon="12.3801383"><ele>808.0</ele><time>2026-04-26T12:36:49.041Z</time></trkpt><trkpt lat="46.4393033" lon="12.3801183"><ele>808.0</ele><time>2026-04-26T12:36:50.041Z</time></trkpt><trkpt lat="46.4394283" lon="12.3801067"><ele>808.0</ele><time>2026-04-26T12:36:51.04Z</time></trkpt><trkpt lat="46.43955" lon="12.3800917"><ele>808.0</ele><time>2026-04-26T12:36:52.042Z</time></trkpt><trkpt lat="46.439665" lon="12.3801017"><ele>808.0</ele><time>2026-04-26T12:36:53.042Z</time></trkpt><trkpt lat="46.4397667" lon="12.380125"><ele>806.8</ele><time>2026-04-26T12:36:54.044Z</time></trkpt><trkpt lat="46.4398633" lon="12.3801567"><ele>805.5999999999999</ele><time>2026-04-26T12:36:55.039Z</time></trkpt><trkpt lat="46.4399533" lon="12.3801967"><ele>804.4000000000001</ele><time>2026-04-26T12:36:56.036Z</time></trkpt><trkpt lat="46.4400433" lon="12.380245"><ele>803.2</ele><time>2026-04-26T12:36:57.038Z</time></trkpt><trkpt lat="46.4401283" lon="12.3802883"><ele>802.0</ele><time>2026-04-26T12:36:58.04Z</time></trkpt><trkpt lat="46.44022" lon="12.380345"><ele>802.0</ele><time>2026-04-26T12:36:59.039Z</time></trkpt><trkpt lat="46.4403083" lon="12.38039"><ele>802.0</ele><time>2026-04-26T12:37:00.035Z</time></trkpt><trkpt lat="46.4404067" lon="12.3804383"><ele>802.0</ele><time>2026-04-26T12:37:01.038Z</time></trkpt><trkpt lat="46.4405033" lon="12.3804883"><ele>802.0</ele><time>2026-04-26T12:37:02.037Z</time></trkpt><trkpt lat="46.440605" lon="12.3805433"><ele>802.0</ele><time>2026-04-26T12:37:03.04Z</time></trkpt><trkpt lat="46.4407033" lon="12.3805983"><ele>798.2</ele><time>2026-04-26T12:37:04.042Z</time></trkpt><trkpt lat="46.4408033" lon="12.3806583"><ele>794.4000000000001</ele><time>2026-04-26T12:37:05.039Z</time></trkpt><trkpt lat="46.4409" lon="12.3807217"><ele>790.5999999999999</ele><time>2026-04-26T12:37:06.041Z</time></trkpt><trkpt lat="46.4409967" lon="12.3807767"><ele>786.8</ele><time>2026-04-26T12:37:07.041Z</time></trkpt><trkpt lat="46.4410933" lon="12.3808283"><ele>783.0</ele><time>2026-04-26T12:37:08.04Z</time></trkpt><trkpt lat="46.4411867" lon="12.3808783"><ele>783.0</ele><time>2026-04-26T12:37:09.043Z</time></trkpt><trkpt lat="46.4412767" lon="12.3809317"><ele>783.0</ele><time>2026-04-26T12:37:10.04Z</time></trkpt><trkpt lat="46.4413683" lon="12.3809933"><ele>783.0</ele><time>2026-04-26T12:37:11.04Z</time></trkpt><trkpt lat="46.4414633" lon="12.3810683"><ele>783.0</ele><time>2026-04-26T12:37:12.042Z</time></trkpt><trkpt lat="46.4415567" lon="12.3811533"><ele>783.0</ele><time>2026-04-26T12:37:13.042Z</time></trkpt><trkpt lat="46.44165" lon="12.381255"><ele>782.2</ele><time>2026-04-26T12:37:14.041Z</time></trkpt><trkpt lat="46.4417417" lon="12.3813567"><ele>781.4</ele><time>2026-04-26T12:37:15.041Z</time></trkpt><trkpt lat="46.4418333" lon="12.3814533"><ele>780.6</ele><time>2026-04-26T12:37:16.041Z</time></trkpt><trkpt lat="46.4419183" lon="12.38155"><ele>779.8000000000001</ele><time>2026-04-26T12:37:17.04Z</time></trkpt><trkpt lat="46.4420067" lon="12.3816517"><ele>779.0</ele><time>2026-04-26T12:37:18.043Z</time></trkpt><trkpt lat="46.44209" lon="12.3817617"><ele>778.2</ele><time>2026-04-26T12:37:19.042Z</time></trkpt><trkpt lat="46.4421717" lon="12.3818617"><ele>777.4000000000001</ele><time>2026-04-26T12:37:20.041Z</time></trkpt><trkpt lat="46.4422483" lon="12.3819567"><ele>776.6</ele><time>2026-04-26T12:37:21.04Z</time></trkpt><trkpt lat="46.442325" lon="12.38206"><ele>775.8</ele><time>2026-04-26T12:37:22.041Z</time></trkpt><trkpt lat="46.4423983" lon="12.382185"><ele>775.0</ele><time>2026-04-26T12:37:23.042Z</time></trkpt><trkpt lat="46.4424717" lon="12.3823333"><ele>775.0</ele><time>2026-04-26T12:37:24.042Z</time></trkpt><trkpt lat="46.4425467" lon="12.3825067"><ele>775.0</ele><time>2026-04-26T12:37:25.041Z</time></trkpt><trkpt lat="46.44262" lon="12.38269"><ele>775.0</ele><time>2026-04-26T12:37:26.039Z</time></trkpt><trkpt lat="46.4426967" lon="12.382875"><ele>775.0</ele><time>2026-04-26T12:37:27.042Z</time></trkpt><trkpt lat="46.442775" lon="12.3830567"><ele>774.0</ele><time>2026-04-26T12:37:28.041Z</time></trkpt><trkpt lat="46.44286" lon="12.383245"><ele>773.0</ele><time>2026-04-26T12:37:29.036Z</time></trkpt><trkpt lat="46.4429517" lon="12.38344"><ele>772.0</ele><time>2026-04-26T12:37:30.04Z</time></trkpt><trkpt lat="46.44306" lon="12.383625"><ele>772.3333333333333</ele><time>2026-04-26T12:37:31.041Z</time></trkpt><trkpt lat="46.443175" lon="12.3838067"><ele>772.6666666666667</ele><time>2026-04-26T12:37:32.039Z</time></trkpt><trkpt lat="46.4432933" lon="12.3839883"><ele>773.0</ele><time>2026-04-26T12:37:33.041Z</time></trkpt><trkpt lat="46.4434167" lon="12.3841817"><ele>773.0</ele><time>2026-04-26T12:37:34.039Z</time></trkpt><trkpt lat="46.44354" lon="12.3843783"><ele>773.0</ele><time>2026-04-26T12:37:35.041Z</time></trkpt><trkpt lat="46.4436667" lon="12.3845767"><ele>773.0</ele><time>2026-04-26T12:37:36.043Z</time></trkpt><trkpt lat="46.4437867" lon="12.3847617"><ele>772.0</ele><time>2026-04-26T12:37:37.037Z</time></trkpt><trkpt lat="46.4439083" lon="12.3849383"><ele>771.0</ele><time>2026-04-26T12:37:38.04Z</time></trkpt><trkpt lat="46.4440267" lon="12.3851083"><ele>770.0</ele><time>2026-04-26T12:37:39.042Z</time></trkpt><trkpt lat="46.4441517" lon="12.3852683"><ele>770.0</ele><time>2026-04-26T12:37:40.036Z</time></trkpt><trkpt lat="46.44428" lon="12.3854033"><ele>770.0</ele><time>2026-04-26T12:37:41.042Z</time></trkpt><trkpt lat="46.444415" lon="12.3855233"><ele>770.0</ele><time>2026-04-26T12:37:42.04Z</time></trkpt><trkpt lat="46.4445567" lon="12.3856367"><ele>768.3333333333334</ele><time>2026-04-26T12:37:43.04Z</time></trkpt><trkpt lat="46.4447033" lon="12.3857567"><ele>766.6666666666667</ele><time>2026-04-26T12:37:44.039Z</time></trkpt><trkpt lat="46.4448517" lon="12.38586"><ele>765.0</ele><time>2026-04-26T12:37:45.04Z</time></trkpt><trkpt lat="46.4450117" lon="12.3859483"><ele>765.0</ele><time>2026-04-26T12:37:46.04Z</time></trkpt><trkpt lat="46.44518" lon="12.3860233"><ele>765.0</ele><time>2026-04-26T12:37:47.04Z</time></trkpt><trkpt lat="46.4453433" lon="12.3860633"><ele>765.0</ele><time>2026-04-26T12:37:48.04Z</time></trkpt><trkpt lat="46.4455067" lon="12.3861033"><ele>765.3333333333334</ele><time>2026-04-26T12:37:49.039Z</time></trkpt><trkpt lat="46.4456617" lon="12.3861567"><ele>765.6666666666667</ele><time>2026-04-26T12:37:50.044Z</time></trkpt><trkpt lat="46.4458067" lon="12.38623"><ele>766.0</ele><time>2026-04-26T12:37:51.039Z</time></trkpt><trkpt lat="46.4459367" lon="12.3863367"><ele>763.0</ele><time>2026-04-26T12:37:52.037Z</time></trkpt><trkpt lat="46.4460517" lon="12.3864917"><ele>760.0</ele><time>2026-04-26T12:37:53.041Z</time></trkpt><trkpt lat="46.44615" lon="12.3866783"><ele>757.0</ele><time>2026-04-26T12:37:54.043Z</time></trkpt><trkpt lat="46.4462417" lon="12.38687"><ele>756.5</ele><time>2026-04-26T12:37:55.041Z</time></trkpt><trkpt lat="46.4463267" lon="12.3870583"><ele>756.0</ele><time>2026-04-26T12:37:56.041Z</time></trkpt><trkpt lat="46.4464033" lon="12.3872267"><ele>755.5</ele><time>2026-04-26T12:37:57.041Z</time></trkpt><trkpt lat="46.446475" lon="12.3873733"><ele>755.0</ele><time>2026-04-26T12:37:58.04Z</time></trkpt><trkpt lat="46.4465483" lon="12.3874983"><ele>755.0</ele><time>2026-04-26T12:37:59.04Z</time></trkpt><trkpt lat="46.4466467" lon="12.3875967"><ele>755.0</ele><time>2026-04-26T12:38:00.042Z</time></trkpt><trkpt lat="46.446755" lon="12.3876717"><ele>755.0</ele><time>2026-04-26T12:38:01.041Z</time></trkpt><trkpt lat="46.4468733" lon="12.3877183"><ele>755.0</ele><time>2026-04-26T12:38:02.038Z</time></trkpt><trkpt lat="46.447" lon="12.3877433"><ele>755.75</ele><time>2026-04-26T12:38:03.035Z</time></trkpt><trkpt lat="46.4471367" lon="12.3877567"><ele>756.5</ele><time>2026-04-26T12:38:04.038Z</time></trkpt><trkpt lat="46.4472767" lon="12.387765"><ele>757.25</ele><time>2026-04-26T12:38:05.04Z</time></trkpt><trkpt lat="46.4474217" lon="12.3877633"><ele>758.0</ele><time>2026-04-26T12:38:06.043Z</time></trkpt><trkpt lat="46.447565" lon="12.3877583"><ele>758.0</ele><time>2026-04-26T12:38:07.038Z</time></trkpt><trkpt lat="46.447715" lon="12.3877467"><ele>758.0</ele><time>2026-04-26T12:38:08.038Z</time></trkpt><trkpt lat="46.4478583" lon="12.3877317"><ele>758.0</ele><time>2026-04-26T12:38:09.039Z</time></trkpt><trkpt lat="46.4479933" lon="12.387705"><ele>758.0</ele><time>2026-04-26T12:38:10.038Z</time></trkpt><trkpt lat="46.4481217" lon="12.3876633"><ele>755.5</ele><time>2026-04-26T12:38:11.041Z</time></trkpt><trkpt lat="46.4482417" lon="12.38761"><ele>753.0</ele><time>2026-04-26T12:38:12.041Z</time></trkpt><trkpt lat="46.4483583" lon="12.3875633"><ele>750.5</ele><time>2026-04-26T12:38:13.039Z</time></trkpt><trkpt lat="46.4484733" lon="12.3875467"><ele>748.0</ele><time>2026-04-26T12:38:14.038Z</time></trkpt><trkpt lat="46.4485867" lon="12.3875617"><ele>748.0</ele><time>2026-04-26T12:38:15.04Z</time></trkpt><trkpt lat="46.4487017" lon="12.3876233"><ele>748.0</ele><time>2026-04-26T12:38:16.038Z</time></trkpt><trkpt lat="46.4488083" lon="12.3877167"><ele>748.0</ele><time>2026-04-26T12:38:17.04Z</time></trkpt><trkpt lat="46.448905" lon="12.3878267"><ele>748.0</ele><time>2026-04-26T12:38:18.042Z</time></trkpt><trkpt lat="46.4489883" lon="12.3879617"><ele>748.5999999999999</ele><time>2026-04-26T12:38:19.042Z</time></trkpt><trkpt lat="46.449055" lon="12.388095"><ele>749.1999999999999</ele><time>2026-04-26T12:38:20.037Z</time></trkpt><trkpt lat="46.449105" lon="12.3882417"><ele>749.8</ele><time>2026-04-26T12:38:21.04Z</time></trkpt><trkpt lat="46.4491067" lon="12.3883983"><ele>750.4</ele><time>2026-04-26T12:38:22.038Z</time></trkpt><trkpt lat="46.4490933" lon="12.38856"><ele>751.0</ele><time>2026-04-26T12:38:23.039Z</time></trkpt><trkpt lat="46.4490183" lon="12.3887133"><ele>749.0</ele><time>2026-04-26T12:38:24.04Z</time></trkpt><trkpt lat="46.4489117" lon="12.3888483"><ele>747.0</ele><time>2026-04-26T12:38:25.042Z</time></trkpt><trkpt lat="46.4487983" lon="12.3889567"><ele>745.0</ele><time>2026-04-26T12:38:26.037Z</time></trkpt><trkpt lat="46.448685" lon="12.3890583"><ele>743.0</ele><time>2026-04-26T12:38:27.035Z</time></trkpt><trkpt lat="46.4485667" lon="12.3891717"><ele>743.0</ele><time>2026-04-26T12:38:28.038Z</time></trkpt><trkpt lat="46.448475" lon="12.3893083"><ele>743.0</ele><time>2026-04-26T12:38:29.038Z</time></trkpt><trkpt lat="46.4483967" lon="12.3894517"><ele>743.0</ele><time>2026-04-26T12:38:30.039Z</time></trkpt><trkpt lat="46.4483433" lon="12.389615"><ele>743.0</ele><time>2026-04-26T12:38:31.04Z</time></trkpt><trkpt lat="46.4482983" lon="12.3897733"><ele>745.5</ele><time>2026-04-26T12:38:32.039Z</time></trkpt><trkpt lat="46.4482683" lon="12.3899417"><ele>748.0</ele><time>2026-04-26T12:38:33.038Z</time></trkpt><trkpt lat="46.4482433" lon="12.3901067"><ele>750.5</ele><time>2026-04-26T12:38:34.04Z</time></trkpt><trkpt lat="46.4482183" lon="12.390285"><ele>753.0</ele><time>2026-04-26T12:38:35.041Z</time></trkpt><trkpt lat="46.4482017" lon="12.3904717"><ele>755.0</ele><time>2026-04-26T12:38:36.04Z</time></trkpt><trkpt lat="46.4481767" lon="12.39065"><ele>757.0</ele><time>2026-04-26T12:38:37.04Z</time></trkpt><trkpt lat="46.4481517" lon="12.3908283"><ele>759.0</ele><time>2026-04-26T12:38:38.039Z</time></trkpt><trkpt lat="46.4481333" lon="12.391"><ele>761.0</ele><time>2026-04-26T12:38:39.041Z</time></trkpt><trkpt lat="46.448115" lon="12.3911733"><ele>760.75</ele><time>2026-04-26T12:38:40.04Z</time></trkpt><trkpt lat="46.4480983" lon="12.391345"><ele>760.5</ele><time>2026-04-26T12:38:41.04Z</time></trkpt><trkpt lat="46.4480983" lon="12.3915267"><ele>760.25</ele><time>2026-04-26T12:38:42.031Z</time></trkpt><trkpt lat="46.4481167" lon="12.3917067"><ele>760.0</ele><time>2026-04-26T12:38:43.03Z</time></trkpt><trkpt lat="46.4481483" lon="12.391885"><ele>760.0</ele><time>2026-04-26T12:38:44.03Z</time></trkpt><trkpt lat="46.4481883" lon="12.3920683"><ele>760.0</ele><time>2026-04-26T12:38:45.03Z</time></trkpt><trkpt lat="46.448225" lon="12.392255"><ele>760.0</ele><time>2026-04-26T12:38:46.031Z</time></trkpt><trkpt lat="46.4482683" lon="12.3924517"><ele>760.0</ele><time>2026-04-26T12:38:47.028Z</time></trkpt><trkpt lat="46.44831" lon="12.392645"><ele>759.25</ele><time>2026-04-26T12:38:48.029Z</time></trkpt><trkpt lat="46.4483533" lon="12.392845"><ele>758.5</ele><time>2026-04-26T12:38:49.028Z</time></trkpt><trkpt lat="46.4483917" lon="12.3930517"><ele>757.75</ele><time>2026-04-26T12:38:50.031Z</time></trkpt><trkpt lat="46.44843" lon="12.3932533"><ele>757.0</ele><time>2026-04-26T12:38:51.031Z</time></trkpt><trkpt lat="46.4484717" lon="12.3934567"><ele>755.75</ele><time>2026-04-26T12:38:52.04Z</time></trkpt><trkpt lat="46.44851" lon="12.39366"><ele>754.5</ele><time>2026-04-26T12:38:53.037Z</time></trkpt><trkpt lat="46.4485483" lon="12.3938733"><ele>753.25</ele><time>2026-04-26T12:38:54.042Z</time></trkpt><trkpt lat="46.44858" lon="12.394085"><ele>752.0</ele><time>2026-04-26T12:38:55.036Z</time></trkpt><trkpt lat="46.4486183" lon="12.3942983"><ele>750.6666666666666</ele><time>2026-04-26T12:38:56.035Z</time></trkpt><trkpt lat="46.4486617" lon="12.39451"><ele>749.3333333333334</ele><time>2026-04-26T12:38:57.04Z</time></trkpt><trkpt lat="46.4487067" lon="12.3947233"><ele>748.0</ele><time>2026-04-26T12:38:58.038Z</time></trkpt><trkpt lat="46.44875" lon="12.3949417"><ele>749.3333333333334</ele><time>2026-04-26T12:38:59.04Z</time></trkpt><trkpt lat="46.4487933" lon="12.3951567"><ele>750.6666666666666</ele><time>2026-04-26T12:39:00.044Z</time></trkpt><trkpt lat="46.4488367" lon="12.3953767"><ele>752.0</ele><time>2026-04-26T12:39:01.041Z</time></trkpt><trkpt lat="46.4488767" lon="12.395595"><ele>752.0</ele><time>2026-04-26T12:39:02.04Z</time></trkpt><trkpt lat="46.4489233" lon="12.39582"><ele>752.0</ele><time>2026-04-26T12:39:03.039Z</time></trkpt><trkpt lat="46.4489717" lon="12.3960417"><ele>752.0</ele><time>2026-04-26T12:39:04.04Z</time></trkpt><trkpt lat="46.4490283" lon="12.39625"><ele>750.0</ele><time>2026-04-26T12:39:05.041Z</time></trkpt><trkpt lat="46.4491083" lon="12.3964483"><ele>748.0</ele><time>2026-04-26T12:39:06.04Z</time></trkpt><trkpt lat="46.4492083" lon="12.3966283"><ele>746.0</ele><time>2026-04-26T12:39:07.04Z</time></trkpt><trkpt lat="46.4493183" lon="12.3967867"><ele>746.0</ele><time>2026-04-26T12:39:08.041Z</time></trkpt><trkpt lat="46.4494417" lon="12.3969233"><ele>746.0</ele><time>2026-04-26T12:39:09.039Z</time></trkpt><trkpt lat="46.44958" lon="12.3970417"><ele>746.0</ele><time>2026-04-26T12:39:10.039Z</time></trkpt><trkpt lat="46.4497183" lon="12.397155"><ele>744.0</ele><time>2026-04-26T12:39:11.039Z</time></trkpt><trkpt lat="46.44986" lon="12.39727"><ele>742.0</ele><time>2026-04-26T12:39:12.039Z</time></trkpt><trkpt lat="46.4500117" lon="12.3973783"><ele>740.0</ele><time>2026-04-26T12:39:13.041Z</time></trkpt><trkpt lat="46.450165" lon="12.3974733"><ele>740.0</ele><time>2026-04-26T12:39:14.041Z</time></trkpt><trkpt lat="46.4503133" lon="12.3975483"><ele>740.0</ele><time>2026-04-26T12:39:15.04Z</time></trkpt><trkpt lat="46.4504633" lon="12.3976183"><ele>740.0</ele><time>2026-04-26T12:39:16.038Z</time></trkpt><trkpt lat="46.4506117" lon="12.3977033"><ele>738.0</ele><time>2026-04-26T12:39:17.039Z</time></trkpt><trkpt lat="46.450755" lon="12.3978183"><ele>736.0</ele><time>2026-04-26T12:39:18.036Z</time></trkpt><trkpt lat="46.45089" lon="12.3979617"><ele>734.0</ele><time>2026-04-26T12:39:19.039Z</time></trkpt><trkpt lat="46.4510117" lon="12.3981333"><ele>734.0</ele><time>2026-04-26T12:39:20.038Z</time></trkpt><trkpt lat="46.4511117" lon="12.398325"><ele>734.0</ele><time>2026-04-26T12:39:21.04Z</time></trkpt><trkpt lat="46.451215" lon="12.3985167"><ele>734.0</ele><time>2026-04-26T12:39:22.039Z</time></trkpt><trkpt lat="46.4513267" lon="12.3987"><ele>735.6666666666666</ele><time>2026-04-26T12:39:23.038Z</time></trkpt><trkpt lat="46.4514533" lon="12.3988583"><ele>737.3333333333334</ele><time>2026-04-26T12:39:24.041Z</time></trkpt><trkpt lat="46.451585" lon="12.39899"><ele>739.0</ele><time>2026-04-26T12:39:25.041Z</time></trkpt><trkpt lat="46.4517267" lon="12.3990983"><ele>739.0</ele><time>2026-04-26T12:39:26.039Z</time></trkpt><trkpt lat="46.4518717" lon="12.39918"><ele>739.0</ele><time>2026-04-26T12:39:27.039Z</time></trkpt><trkpt lat="46.4520083" lon="12.399245"><ele>739.0</ele><time>2026-04-26T12:39:28.041Z</time></trkpt><trkpt lat="46.4521417" lon="12.3992767"><ele>739.0</ele><time>2026-04-26T12:39:29.04Z</time></trkpt><trkpt lat="46.4522767" lon="12.3992483"><ele>740.25</ele><time>2026-04-26T12:39:30.04Z</time></trkpt><trkpt lat="46.4523967" lon="12.3991717"><ele>741.5</ele><time>2026-04-26T12:39:31.04Z</time></trkpt><trkpt lat="46.4525167" lon="12.3990833"><ele>742.75</ele><time>2026-04-26T12:39:32.038Z</time></trkpt><trkpt lat="46.45263" lon="12.3990483"><ele>744.0</ele><time>2026-04-26T12:39:33.04Z</time></trkpt><trkpt lat="46.4527367" lon="12.3990683"><ele>744.0</ele><time>2026-04-26T12:39:34.038Z</time></trkpt><trkpt lat="46.452835" lon="12.39916"><ele>744.0</ele><time>2026-04-26T12:39:35.04Z</time></trkpt><trkpt lat="46.452915" lon="12.3992767"><ele>744.0</ele><time>2026-04-26T12:39:36.041Z</time></trkpt><trkpt lat="46.4529867" lon="12.3994017"><ele>744.0</ele><time>2026-04-26T12:39:37.04Z</time></trkpt><trkpt lat="46.4530567" lon="12.399545"><ele>746.75</ele><time>2026-04-26T12:39:38.039Z</time></trkpt><trkpt lat="46.453115" lon="12.399695"><ele>749.5</ele><time>2026-04-26T12:39:39.037Z</time></trkpt><trkpt lat="46.4531667" lon="12.3998517"><ele>752.25</ele><time>2026-04-26T12:39:40.039Z</time></trkpt><trkpt lat="46.4531933" lon="12.4000117"><ele>755.0</ele><time>2026-04-26T12:39:41.04Z</time></trkpt><trkpt lat="46.4532033" lon="12.40018"><ele>755.0</ele><time>2026-04-26T12:39:42.041Z</time></trkpt><trkpt lat="46.453195" lon="12.4003617"><ele>755.0</ele><time>2026-04-26T12:39:43.04Z</time></trkpt><trkpt lat="46.453185" lon="12.4005483"><ele>755.0</ele><time>2026-04-26T12:39:44.04Z</time></trkpt><trkpt lat="46.4531767" lon="12.4007417"><ele>755.0</ele><time>2026-04-26T12:39:45.036Z</time></trkpt><trkpt lat="46.4531783" lon="12.40093"><ele>755.25</ele><time>2026-04-26T12:39:46.039Z</time></trkpt><trkpt lat="46.4531883" lon="12.4011083"><ele>755.5</ele><time>2026-04-26T12:39:47.04Z</time></trkpt><trkpt lat="46.453205" lon="12.4012783"><ele>755.75</ele><time>2026-04-26T12:39:48.039Z</time></trkpt><trkpt lat="46.45323" lon="12.4014517"><ele>756.0</ele><time>2026-04-26T12:39:49.041Z</time></trkpt><trkpt lat="46.4532517" lon="12.4016233"><ele>756.25</ele><time>2026-04-26T12:39:50.036Z</time></trkpt><trkpt lat="46.4532683" lon="12.4018"><ele>756.5</ele><time>2026-04-26T12:39:51.035Z</time></trkpt><trkpt lat="46.4532667" lon="12.40197"><ele>756.75</ele><time>2026-04-26T12:39:52.037Z</time></trkpt><trkpt lat="46.45325" lon="12.4021333"><ele>757.0</ele><time>2026-04-26T12:39:53.04Z</time></trkpt><trkpt lat="46.4532267" lon="12.4022983"><ele>757.0</ele><time>2026-04-26T12:39:54.041Z</time></trkpt><trkpt lat="46.4532017" lon="12.4024617"><ele>757.0</ele><time>2026-04-26T12:39:55.041Z</time></trkpt><trkpt lat="46.45318" lon="12.4026233"><ele>757.0</ele><time>2026-04-26T12:39:56.038Z</time></trkpt><trkpt lat="46.4531633" lon="12.4027867"><ele>757.0</ele><time>2026-04-26T12:39:57.04Z</time></trkpt><trkpt lat="46.4531367" lon="12.402945"><ele>758.0</ele><time>2026-04-26T12:39:58.037Z</time></trkpt><trkpt lat="46.453115" lon="12.4031167"><ele>759.0</ele><time>2026-04-26T12:39:59.038Z</time></trkpt><trkpt lat="46.4531117" lon="12.403285"><ele>760.0</ele><time>2026-04-26T12:40:00.041Z</time></trkpt><trkpt lat="46.453115" lon="12.4034567"><ele>761.0</ele><time>2026-04-26T12:40:01.04Z</time></trkpt><trkpt lat="46.45313" lon="12.4036283"><ele>761.0</ele><time>2026-04-26T12:40:02.037Z</time></trkpt><trkpt lat="46.45316" lon="12.4038017"><ele>761.0</ele><time>2026-04-26T12:40:03.036Z</time></trkpt><trkpt lat="46.453215" lon="12.4039683"><ele>761.0</ele><time>2026-04-26T12:40:04.037Z</time></trkpt><trkpt lat="46.4532867" lon="12.4041283"><ele>761.0</ele><time>2026-04-26T12:40:05.041Z</time></trkpt><trkpt lat="46.453365" lon="12.4042817"><ele>760.75</ele><time>2026-04-26T12:40:06.04Z</time></trkpt><trkpt lat="46.4534567" lon="12.4044283"><ele>760.5</ele><time>2026-04-26T12:40:07.04Z</time></trkpt><trkpt lat="46.4535567" lon="12.40457"><ele>760.25</ele><time>2026-04-26T12:40:08.039Z</time></trkpt><trkpt lat="46.4536633" lon="12.4047"><ele>760.0</ele><time>2026-04-26T12:40:09.043Z</time></trkpt><trkpt lat="46.45378" lon="12.4048133"><ele>760.0</ele><time>2026-04-26T12:40:10.04Z</time></trkpt><trkpt lat="46.4539083" lon="12.404925"><ele>760.0</ele><time>2026-04-26T12:40:11.036Z</time></trkpt><trkpt lat="46.4540383" lon="12.4050233"><ele>760.0</ele><time>2026-04-26T12:40:12.04Z</time></trkpt><trkpt lat="46.45417" lon="12.4051117"><ele>760.0</ele><time>2026-04-26T12:40:13.039Z</time></trkpt><trkpt lat="46.454295" lon="12.4052017"><ele>760.0</ele><time>2026-04-26T12:40:14.039Z</time></trkpt><trkpt lat="46.4544167" lon="12.4052883"><ele>760.0</ele><time>2026-04-26T12:40:15.041Z</time></trkpt><trkpt lat="46.45454" lon="12.40539"><ele>760.0</ele><time>2026-04-26T12:40:16.039Z</time></trkpt><trkpt lat="46.45466" lon="12.4054967"><ele>760.0</ele><time>2026-04-26T12:40:17.041Z</time></trkpt><trkpt lat="46.454775" lon="12.40563"><ele>758.75</ele><time>2026-04-26T12:40:18.043Z</time></trkpt><trkpt lat="46.4548783" lon="12.40578"><ele>757.5</ele><time>2026-04-26T12:40:19.039Z</time></trkpt><trkpt lat="46.45498" lon="12.4059467"><ele>756.25</ele><time>2026-04-26T12:40:20.035Z</time></trkpt><trkpt lat="46.455065" lon="12.4061233"><ele>755.0</ele><time>2026-04-26T12:40:21.038Z</time></trkpt><trkpt lat="46.455145" lon="12.4063017"><ele>753.75</ele><time>2026-04-26T12:40:22.041Z</time></trkpt><trkpt lat="46.4552217" lon="12.4064817"><ele>752.5</ele><time>2026-04-26T12:40:23.041Z</time></trkpt><trkpt lat="46.4553067" lon="12.4066617"><ele>751.25</ele><time>2026-04-26T12:40:24.042Z</time></trkpt><trkpt lat="46.4553983" lon="12.406835"><ele>750.0</ele><time>2026-04-26T12:40:25.04Z</time></trkpt><trkpt lat="46.4554933" lon="12.4070067"><ele>751.3333333333334</ele><time>2026-04-26T12:40:26.039Z</time></trkpt><trkpt lat="46.4555933" lon="12.4071733"><ele>752.6666666666667</ele><time>2026-04-26T12:40:27.041Z</time></trkpt><trkpt lat="46.45569" lon="12.4073367"><ele>754.0</ele><time>2026-04-26T12:40:28.037Z</time></trkpt><trkpt lat="46.4557917" lon="12.4075033"><ele>754.0</ele><time>2026-04-26T12:40:29.041Z</time></trkpt><trkpt lat="46.4558933" lon="12.4076633"><ele>754.0</ele><time>2026-04-26T12:40:30.04Z</time></trkpt><trkpt lat="46.4559983" lon="12.40782"><ele>754.0</ele><time>2026-04-26T12:40:31.04Z</time></trkpt><trkpt lat="46.45611" lon="12.40797"><ele>755.6666666666667</ele><time>2026-04-26T12:40:32.035Z</time></trkpt><trkpt lat="46.4562333" lon="12.408115"><ele>757.3333333333334</ele><time>2026-04-26T12:40:33.04Z</time></trkpt><trkpt lat="46.456355" lon="12.40825"><ele>759.0</ele><time>2026-04-26T12:40:34.038Z</time></trkpt><trkpt lat="46.4564783" lon="12.4083867"><ele>759.0</ele><time>2026-04-26T12:40:35.043Z</time></trkpt><trkpt lat="46.456605" lon="12.4085267"><ele>759.0</ele><time>2026-04-26T12:40:36.038Z</time></trkpt><trkpt lat="46.4567283" lon="12.4086683"><ele>759.0</ele><time>2026-04-26T12:40:37.04Z</time></trkpt><trkpt lat="46.4568567" lon="12.4088033"><ele>759.0</ele><time>2026-04-26T12:40:38.04Z</time></trkpt><trkpt lat="46.45698" lon="12.40894"><ele>759.0</ele><time>2026-04-26T12:40:39.039Z</time></trkpt><trkpt lat="46.4571033" lon="12.4090783"><ele>759.0</ele><time>2026-04-26T12:40:40.034Z</time></trkpt><trkpt lat="46.4572317" lon="12.4092167"><ele>759.0</ele><time>2026-04-26T12:40:41.038Z</time></trkpt><trkpt lat="46.4573583" lon="12.4093567"><ele>759.0</ele><time>2026-04-26T12:40:42.04Z</time></trkpt><trkpt lat="46.4574783" lon="12.40951"><ele>759.0</ele><time>2026-04-26T12:40:43.041Z</time></trkpt><trkpt lat="46.4575917" lon="12.4096717"><ele>757.6666666666666</ele><time>2026-04-26T12:40:44.039Z</time></trkpt><trkpt lat="46.4577017" lon="12.40984"><ele>756.3333333333333</ele><time>2026-04-26T12:40:45.041Z</time></trkpt><trkpt lat="46.457805" lon="12.4100067"><ele>755.0</ele><time>2026-04-26T12:40:46.039Z</time></trkpt><trkpt lat="46.4579033" lon="12.4101733"><ele>757.0</ele><time>2026-04-26T12:40:47.038Z</time></trkpt><trkpt lat="46.4580017" lon="12.4103417"><ele>759.0</ele><time>2026-04-26T12:40:48.041Z</time></trkpt><trkpt lat="46.4581017" lon="12.4105117"><ele>761.0</ele><time>2026-04-26T12:40:49.04Z</time></trkpt><trkpt lat="46.4582" lon="12.4106817"><ele>761.0</ele><time>2026-04-26T12:40:50.036Z</time></trkpt><trkpt lat="46.458295" lon="12.41085"><ele>761.0</ele><time>2026-04-26T12:40:51.039Z</time></trkpt><trkpt lat="46.458395" lon="12.4110117"><ele>761.0</ele><time>2026-04-26T12:40:52.036Z</time></trkpt><trkpt lat="46.4584883" lon="12.4111767"><ele>761.0</ele><time>2026-04-26T12:40:53.04Z</time></trkpt><trkpt lat="46.45858" lon="12.4113383"><ele>760.0</ele><time>2026-04-26T12:40:54.041Z</time></trkpt><trkpt lat="46.4586733" lon="12.4115083"><ele>759.0</ele><time>2026-04-26T12:40:55.04Z</time></trkpt><trkpt lat="46.4587733" lon="12.4116683"><ele>758.0</ele><time>2026-04-26T12:40:56.039Z</time></trkpt><trkpt lat="46.458865" lon="12.4118333"><ele>757.0</ele><time>2026-04-26T12:40:57.039Z</time></trkpt><trkpt lat="46.4589517" lon="12.4119917"><ele>760.0</ele><time>2026-04-26T12:40:58.034Z</time></trkpt><trkpt lat="46.4590333" lon="12.4121567"><ele>763.0</ele><time>2026-04-26T12:40:59.039Z</time></trkpt><trkpt lat="46.459105" lon="12.4123133"><ele>766.0</ele><time>2026-04-26T12:41:00.04Z</time></trkpt><trkpt lat="46.4591733" lon="12.4124583"><ele>769.0</ele><time>2026-04-26T12:41:01.037Z</time></trkpt><trkpt lat="46.4592183" lon="12.4126067"><ele>768.9999999999999</ele><time>2026-04-26T12:41:02.039Z</time></trkpt><trkpt lat="46.459245" lon="12.4127617"><ele>769.0</ele><time>2026-04-26T12:41:03.039Z</time></trkpt><trkpt lat="46.4592533" lon="12.4129233"><ele>769.0</ele><time>2026-04-26T12:41:04.039Z</time></trkpt><trkpt lat="46.4592517" lon="12.4130467"><ele>769.0</ele><time>2026-04-26T12:41:05.04Z</time></trkpt><trkpt lat="46.45925" lon="12.4131517"><ele>768.9999999999999</ele><time>2026-04-26T12:41:06.039Z</time></trkpt><trkpt lat="46.45925" lon="12.413245"><ele>769.0</ele><time>2026-04-26T12:41:07.041Z</time></trkpt><trkpt lat="46.4592617" lon="12.4133783"><ele>768.6</ele><time>2026-04-26T12:41:09.041Z</time></trkpt><trkpt lat="46.4592817" lon="12.413465"><ele>768.2</ele><time>2026-04-26T12:41:10.039Z</time></trkpt><trkpt lat="46.45932" lon="12.4136583"><ele>767.8000000000001</ele><time>2026-04-26T12:41:12.042Z</time></trkpt><trkpt lat="46.459355" lon="12.4137767"><ele>767.4000000000001</ele><time>2026-04-26T12:41:13.043Z</time></trkpt><trkpt lat="46.4593983" lon="12.4139033"><ele>767.0</ele><time>2026-04-26T12:41:14.041Z</time></trkpt><trkpt lat="46.45945" lon="12.4140317"><ele>767.0</ele><time>2026-04-26T12:41:15.039Z</time></trkpt><trkpt lat="46.4594983" lon="12.4141633"><ele>767.0</ele><time>2026-04-26T12:41:16.041Z</time></trkpt><trkpt lat="46.4595467" lon="12.4143"><ele>767.0</ele><time>2026-04-26T12:41:17.039Z</time></trkpt><trkpt lat="46.4595917" lon="12.4144383"><ele>767.0</ele><time>2026-04-26T12:41:18.042Z</time></trkpt><trkpt lat="46.4596433" lon="12.414565"><ele>767.0</ele><time>2026-04-26T12:41:19.041Z</time></trkpt><trkpt lat="46.4596833" lon="12.4146883"><ele>768.0</ele><time>2026-04-26T12:41:20.04Z</time></trkpt><trkpt lat="46.4597283" lon="12.414805"><ele>769.0</ele><time>2026-04-26T12:41:21.04Z</time></trkpt><trkpt lat="46.4597667" lon="12.414915"><ele>770.0</ele><time>2026-04-26T12:41:22.037Z</time></trkpt><trkpt lat="46.459805" lon="12.4150167"><ele>771.0</ele><time>2026-04-26T12:41:23.039Z</time></trkpt><trkpt lat="46.45984" lon="12.4151067"><ele>772.0000000000001</ele><time>2026-04-26T12:41:24.044Z</time></trkpt><trkpt lat="46.45987" lon="12.4151883"><ele>773.0</ele><time>2026-04-26T12:41:25.04Z</time></trkpt><trkpt lat="46.4599233" lon="12.4153317"><ele>773.0</ele><time>2026-04-26T12:41:27.039Z</time></trkpt><trkpt lat="46.4599667" lon="12.415475"><ele>773.0</ele><time>2026-04-26T12:41:29.039Z</time></trkpt><trkpt lat="46.460015" lon="12.4156467"><ele>773.0</ele><time>2026-04-26T12:41:31.04Z</time></trkpt><trkpt lat="46.460065" lon="12.4158133"><ele>773.0</ele><time>2026-04-26T12:41:33.04Z</time></trkpt><trkpt lat="46.460115" lon="12.4159417"><ele>773.2</ele><time>2026-04-26T12:41:35.04Z</time></trkpt><trkpt lat="46.46016" lon="12.4160467"><ele>773.4</ele><time>2026-04-26T12:41:37.041Z</time></trkpt><trkpt lat="46.4602083" lon="12.4161467"><ele>773.6</ele><time>2026-04-26T12:41:39.042Z</time></trkpt><trkpt lat="46.460275" lon="12.4162517"><ele>773.8000000000001</ele><time>2026-04-26T12:41:41.038Z</time></trkpt><trkpt lat="46.460355" lon="12.4163567"><ele>774.0</ele><time>2026-04-26T12:41:43.04Z</time></trkpt><trkpt lat="46.46041" lon="12.4164533"><ele>774.6666666666666</ele><time>2026-04-26T12:41:45.041Z</time></trkpt><trkpt lat="46.4604533" lon="12.4165233"><ele>775.3333333333333</ele><time>2026-04-26T12:41:47.038Z</time></trkpt><trkpt lat="46.460505" lon="12.4165917"><ele>776.0</ele><time>2026-04-26T12:41:50.037Z</time></trkpt><trkpt lat="46.4605867" lon="12.4166817"><ele>776.6666666666666</ele><time>2026-04-26T12:41:53.04Z</time></trkpt><trkpt lat="46.46068" lon="12.4167733"><ele>777.3333333333333</ele><time>2026-04-26T12:41:55.039Z</time></trkpt><trkpt lat="46.460735" lon="12.41685"><ele>778.0</ele><time>2026-04-26T12:41:56.036Z</time></trkpt><trkpt lat="46.4607833" lon="12.4169233"><ele>777.9999999999999</ele><time>2026-04-26T12:41:57.036Z</time></trkpt><trkpt lat="46.46084" lon="12.4170133"><ele>778.0</ele><time>2026-04-26T12:41:58.028Z</time></trkpt><trkpt lat="46.460895" lon="12.4170883"><ele>778.0</ele><time>2026-04-26T12:41:59.027Z</time></trkpt><trkpt lat="46.4609617" lon="12.4171467"><ele>778.0</ele><time>2026-04-26T12:42:00.029Z</time></trkpt><trkpt lat="46.4610217" lon="12.4171917"><ele>777.9999999999999</ele><time>2026-04-26T12:42:01.027Z</time></trkpt><trkpt lat="46.4610767" lon="12.4172667"><ele>778.0</ele><time>2026-04-26T12:42:02.026Z</time></trkpt><trkpt lat="46.461135" lon="12.417365"><ele>777.4</ele><time>2026-04-26T12:42:03.029Z</time></trkpt><trkpt lat="46.4611933" lon="12.4174817"><ele>776.8</ele><time>2026-04-26T12:42:04.026Z</time></trkpt><trkpt lat="46.461265" lon="12.41759"><ele>776.2</ele><time>2026-04-26T12:42:05.026Z</time></trkpt><trkpt lat="46.461335" lon="12.4177067"><ele>775.6</ele><time>2026-04-26T12:42:06.027Z</time></trkpt><trkpt lat="46.4614017" lon="12.417855"><ele>775.0</ele><time>2026-04-26T12:42:07.041Z</time></trkpt><trkpt lat="46.4614633" lon="12.4179917"><ele>774.25</ele><time>2026-04-26T12:42:08.04Z</time></trkpt><trkpt lat="46.461515" lon="12.4181417"><ele>773.5</ele><time>2026-04-26T12:42:09.039Z</time></trkpt><trkpt lat="46.461565" lon="12.4182917"><ele>772.75</ele><time>2026-04-26T12:42:10.038Z</time></trkpt><trkpt lat="46.461615" lon="12.4184317"><ele>772.0</ele><time>2026-04-26T12:42:11.038Z</time></trkpt><trkpt lat="46.46167" lon="12.4185733"><ele>772.0</ele><time>2026-04-26T12:42:12.036Z</time></trkpt><trkpt lat="46.46173" lon="12.4187117"><ele>772.0</ele><time>2026-04-26T12:42:13.037Z</time></trkpt><trkpt lat="46.4617933" lon="12.418855"><ele>772.0</ele><time>2026-04-26T12:42:14.038Z</time></trkpt><trkpt lat="46.4618617" lon="12.418985"><ele>772.0</ele><time>2026-04-26T12:42:15.039Z</time></trkpt><trkpt lat="46.46193" lon="12.419125"><ele>771.5</ele><time>2026-04-26T12:42:16.037Z</time></trkpt><trkpt lat="46.462" lon="12.4192683"><ele>771.0</ele><time>2026-04-26T12:42:17.039Z</time></trkpt><trkpt lat="46.4620567" lon="12.41942"><ele>770.5</ele><time>2026-04-26T12:42:18.04Z</time></trkpt><trkpt lat="46.4621117" lon="12.419575"><ele>770.0</ele><time>2026-04-26T12:42:19.039Z</time></trkpt><trkpt lat="46.462155" lon="12.4197267"><ele>772.0</ele><time>2026-04-26T12:42:20.037Z</time></trkpt><trkpt lat="46.4621983" lon="12.4198817"><ele>774.0</ele><time>2026-04-26T12:42:21.04Z</time></trkpt><trkpt lat="46.46226" lon="12.4200367"><ele>776.0</ele><time>2026-04-26T12:42:22.037Z</time></trkpt><trkpt lat="46.46233" lon="12.4201833"><ele>778.0</ele><time>2026-04-26T12:42:23.036Z</time></trkpt><trkpt lat="46.46242" lon="12.42032"><ele>778.0</ele><time>2026-04-26T12:42:24.041Z</time></trkpt><trkpt lat="46.4624917" lon="12.42042"><ele>778.0</ele><time>2026-04-26T12:42:25.043Z</time></trkpt><trkpt lat="46.462565" lon="12.420515"><ele>778.0</ele><time>2026-04-26T12:42:26.039Z</time></trkpt><trkpt lat="46.46264" lon="12.420595"><ele>778.0</ele><time>2026-04-26T12:42:27.037Z</time></trkpt><trkpt lat="46.462715" lon="12.42067"><ele>778.0</ele><time>2026-04-26T12:42:28.039Z</time></trkpt><trkpt lat="46.4627867" lon="12.4207483"><ele>777.4</ele><time>2026-04-26T12:42:29.036Z</time></trkpt><trkpt lat="46.4628633" lon="12.42084"><ele>776.8</ele><time>2026-04-26T12:42:30.041Z</time></trkpt><trkpt lat="46.4629417" lon="12.420935"><ele>776.2</ele><time>2026-04-26T12:42:31.039Z</time></trkpt><trkpt lat="46.46302" lon="12.4210483"><ele>775.6</ele><time>2026-04-26T12:42:32.039Z</time></trkpt><trkpt lat="46.4630883" lon="12.42117"><ele>775.0</ele><time>2026-04-26T12:42:33.04Z</time></trkpt><trkpt lat="46.46316" lon="12.4213"><ele>776.0</ele><time>2026-04-26T12:42:34.04Z</time></trkpt><trkpt lat="46.4632483" lon="12.4214133"><ele>777.0</ele><time>2026-04-26T12:42:35.039Z</time></trkpt><trkpt lat="46.463345" lon="12.4214983"><ele>778.0</ele><time>2026-04-26T12:42:36.041Z</time></trkpt><trkpt lat="46.46344" lon="12.4215617"><ele>779.0</ele><time>2026-04-26T12:42:37.04Z</time></trkpt><trkpt lat="46.4635267" lon="12.4216367"><ele>780.0</ele><time>2026-04-26T12:42:38.037Z</time></trkpt><trkpt lat="46.4635917" lon="12.421715"><ele>780.0</ele><time>2026-04-26T12:42:39.039Z</time></trkpt><trkpt lat="46.463645" lon="12.4217933"><ele>780.0</ele><time>2026-04-26T12:42:40.036Z</time></trkpt><trkpt lat="46.4636883" lon="12.421865"><ele>780.0</ele><time>2026-04-26T12:42:41.041Z</time></trkpt><trkpt lat="46.463755" lon="12.4219983"><ele>780.0</ele><time>2026-04-26T12:42:43.038Z</time></trkpt><trkpt lat="46.463805" lon="12.422125"><ele>780.0</ele><time>2026-04-26T12:42:45.039Z</time></trkpt><trkpt lat="46.4638567" lon="12.42227"><ele>782.6666666666666</ele><time>2026-04-26T12:42:47.037Z</time></trkpt><trkpt lat="46.46392" lon="12.42242"><ele>785.3333333333333</ele><time>2026-04-26T12:42:49.039Z</time></trkpt><trkpt lat="46.4639517" lon="12.4225"><ele>788.0</ele><time>2026-04-26T12:42:50.036Z</time></trkpt><trkpt lat="46.4639867" lon="12.4225767"><ele>790.6666666666666</ele><time>2026-04-26T12:42:51.041Z</time></trkpt><trkpt lat="46.4640233" lon="12.4226633"><ele>793.3333333333333</ele><time>2026-04-26T12:42:52.038Z</time></trkpt><trkpt lat="46.4640733" lon="12.4227567"><ele>796.0</ele><time>2026-04-26T12:42:53.04Z</time></trkpt><trkpt lat="46.4641283" lon="12.4228567"><ele>796.0</ele><time>2026-04-26T12:42:54.039Z</time></trkpt><trkpt lat="46.464195" lon="12.4229717"><ele>796.0</ele><time>2026-04-26T12:42:55.037Z</time></trkpt><trkpt lat="46.4642633" lon="12.4230917"><ele>796.0</ele><time>2026-04-26T12:42:56.037Z</time></trkpt><trkpt lat="46.464335" lon="12.4232083"><ele>796.0</ele><time>2026-04-26T12:42:57.038Z</time></trkpt><trkpt lat="46.4644133" lon="12.4233233"><ele>796.0</ele><time>2026-04-26T12:42:58.04Z</time></trkpt><trkpt lat="46.4645" lon="12.4234317"><ele>794.25</ele><time>2026-04-26T12:42:59.042Z</time></trkpt><trkpt lat="46.4646" lon="12.4235267"><ele>792.5</ele><time>2026-04-26T12:43:00.044Z</time></trkpt><trkpt lat="46.4646967" lon="12.42362"><ele>790.75</ele><time>2026-04-26T12:43:01.042Z</time></trkpt><trkpt lat="46.4648033" lon="12.4237167"><ele>789.0</ele><time>2026-04-26T12:43:02.04Z</time></trkpt><trkpt lat="46.46491" lon="12.4238233"><ele>789.0</ele><time>2026-04-26T12:43:03.04Z</time></trkpt><trkpt lat="46.4650117" lon="12.4239233"><ele>789.0</ele><time>2026-04-26T12:43:04.04Z</time></trkpt><trkpt lat="46.4651133" lon="12.42402"><ele>789.0</ele><time>2026-04-26T12:43:05.039Z</time></trkpt><trkpt lat="46.4652067" lon="12.42413"><ele>789.0</ele><time>2026-04-26T12:43:06.04Z</time></trkpt><trkpt lat="46.4653067" lon="12.424245"><ele>789.0</ele><time>2026-04-26T12:43:07.042Z</time></trkpt><trkpt lat="46.4654" lon="12.4243667"><ele>789.0</ele><time>2026-04-26T12:43:08.04Z</time></trkpt><trkpt lat="46.4654917" lon="12.4244933"><ele>789.0</ele><time>2026-04-26T12:43:09.039Z</time></trkpt><trkpt lat="46.4655767" lon="12.4246283"><ele>789.0</ele><time>2026-04-26T12:43:10.038Z</time></trkpt><trkpt lat="46.465655" lon="12.42477"><ele>791.0</ele><time>2026-04-26T12:43:11.04Z</time></trkpt><trkpt lat="46.4657317" lon="12.424915"><ele>793.0</ele><time>2026-04-26T12:43:12.039Z</time></trkpt><trkpt lat="46.465815" lon="12.425055"><ele>795.0</ele><time>2026-04-26T12:43:13.039Z</time></trkpt><trkpt lat="46.4658967" lon="12.4251917"><ele>797.0</ele><time>2026-04-26T12:43:14.036Z</time></trkpt><trkpt lat="46.4659783" lon="12.4253317"><ele>797.0</ele><time>2026-04-26T12:43:15.039Z</time></trkpt><trkpt lat="46.46606" lon="12.42547"><ele>797.0</ele><time>2026-04-26T12:43:16.038Z</time></trkpt><trkpt lat="46.46614" lon="12.42561"><ele>797.0</ele><time>2026-04-26T12:43:17.039Z</time></trkpt><trkpt lat="46.46622" lon="12.42575"><ele>797.0</ele><time>2026-04-26T12:43:18.039Z</time></trkpt><trkpt lat="46.4662983" lon="12.4258917"><ele>798.75</ele><time>2026-04-26T12:43:19.041Z</time></trkpt><trkpt lat="46.4663733" lon="12.4260333"><ele>800.5</ele><time>2026-04-26T12:43:20.036Z</time></trkpt><trkpt lat="46.4664533" lon="12.4261817"><ele>802.25</ele><time>2026-04-26T12:43:21.042Z</time></trkpt><trkpt lat="46.4665267" lon="12.426335"><ele>804.0</ele><time>2026-04-26T12:43:22.038Z</time></trkpt><trkpt lat="46.466605" lon="12.4264833"><ele>804.0</ele><time>2026-04-26T12:43:23.039Z</time></trkpt><trkpt lat="46.4666933" lon="12.4266267"><ele>804.0</ele><time>2026-04-26T12:43:24.041Z</time></trkpt><trkpt lat="46.46678" lon="12.4267667"><ele>804.0</ele><time>2026-04-26T12:43:25.043Z</time></trkpt><trkpt lat="46.46687" lon="12.4269"><ele>804.0</ele><time>2026-04-26T12:43:26.04Z</time></trkpt><trkpt lat="46.466965" lon="12.4270283"><ele>804.25</ele><time>2026-04-26T12:43:27.04Z</time></trkpt><trkpt lat="46.467065" lon="12.4271533"><ele>804.5</ele><time>2026-04-26T12:43:28.036Z</time></trkpt><trkpt lat="46.467165" lon="12.4272783"><ele>804.75</ele><time>2026-04-26T12:43:29.041Z</time></trkpt><trkpt lat="46.4672633" lon="12.4274067"><ele>805.0</ele><time>2026-04-26T12:43:30.04Z</time></trkpt><trkpt lat="46.4673583" lon="12.42754"><ele>806.0</ele><time>2026-04-26T12:43:31.041Z</time></trkpt><trkpt lat="46.4674483" lon="12.42768"><ele>807.0</ele><time>2026-04-26T12:43:32.041Z</time></trkpt><trkpt lat="46.4675317" lon="12.4278283"><ele>808.0</ele><time>2026-04-26T12:43:33.04Z</time></trkpt><trkpt lat="46.46762" lon="12.4279783"><ele>809.0</ele><time>2026-04-26T12:43:34.04Z</time></trkpt><trkpt lat="46.4677033" lon="12.428125"><ele>809.0</ele><time>2026-04-26T12:43:35.04Z</time></trkpt><trkpt lat="46.4677883" lon="12.4282733"><ele>809.0</ele><time>2026-04-26T12:43:36.042Z</time></trkpt><trkpt lat="46.4678767" lon="12.4284267"><ele>809.0</ele><time>2026-04-26T12:43:37.04Z</time></trkpt><trkpt lat="46.4679667" lon="12.42858"><ele>809.0</ele><time>2026-04-26T12:43:38.041Z</time></trkpt><trkpt lat="46.4680633" lon="12.428735"><ele>809.75</ele><time>2026-04-26T12:43:39.042Z</time></trkpt><trkpt lat="46.4681517" lon="12.4288917"><ele>810.5</ele><time>2026-04-26T12:43:40.041Z</time></trkpt><trkpt lat="46.4682383" lon="12.429055"><ele>811.25</ele><time>2026-04-26T12:43:41.042Z</time></trkpt><trkpt lat="46.4683217" lon="12.4292233"><ele>812.0</ele><time>2026-04-26T12:43:42.041Z</time></trkpt><trkpt lat="46.46841" lon="12.42939"><ele>812.0</ele><time>2026-04-26T12:43:43.04Z</time></trkpt><trkpt lat="46.46851" lon="12.429555"><ele>812.0</ele><time>2026-04-26T12:43:44.042Z</time></trkpt><trkpt lat="46.4686067" lon="12.4297183"><ele>812.0</ele><time>2026-04-26T12:43:45.041Z</time></trkpt><trkpt lat="46.4687017" lon="12.429875"><ele>812.0</ele><time>2026-04-26T12:43:46.041Z</time></trkpt><trkpt lat="46.4688" lon="12.43004"><ele>812.6666666666667</ele><time>2026-04-26T12:43:47.035Z</time></trkpt><trkpt lat="46.4689033" lon="12.4302017"><ele>813.3333333333333</ele><time>2026-04-26T12:43:48.042Z</time></trkpt><trkpt lat="46.4690183" lon="12.4303567"><ele>814.0</ele><time>2026-04-26T12:43:49.039Z</time></trkpt><trkpt lat="46.4691433" lon="12.4304967"><ele>810.6666666666666</ele><time>2026-04-26T12:43:50.04Z</time></trkpt><trkpt lat="46.4692683" lon="12.43064"><ele>807.3333333333333</ele><time>2026-04-26T12:43:51.04Z</time></trkpt><trkpt lat="46.4693967" lon="12.4307867"><ele>804.0</ele><time>2026-04-26T12:43:52.039Z</time></trkpt><trkpt lat="46.46953" lon="12.4309383"><ele>804.3333333333333</ele><time>2026-04-26T12:43:53.041Z</time></trkpt><trkpt lat="46.4696533" lon="12.4311033"><ele>804.6666666666666</ele><time>2026-04-26T12:43:54.042Z</time></trkpt><trkpt lat="46.469775" lon="12.4312683"><ele>805.0</ele><time>2026-04-26T12:43:55.039Z</time></trkpt><trkpt lat="46.4698983" lon="12.4314333"><ele>805.0</ele><time>2026-04-26T12:43:56.042Z</time></trkpt><trkpt lat="46.4700217" lon="12.431595"><ele>805.0</ele><time>2026-04-26T12:43:57.039Z</time></trkpt><trkpt lat="46.470145" lon="12.4317567"><ele>805.0</ele><time>2026-04-26T12:43:58.037Z</time></trkpt><trkpt lat="46.4702667" lon="12.4319117"><ele>805.0</ele><time>2026-04-26T12:43:59.04Z</time></trkpt><trkpt lat="46.4703933" lon="12.43205"><ele>805.0</ele><time>2026-04-26T12:44:00.039Z</time></trkpt><trkpt lat="46.4705317" lon="12.43216"><ele>805.0</ele><time>2026-04-26T12:44:01.042Z</time></trkpt><trkpt lat="46.4706767" lon="12.4322433"><ele>802.6666666666666</ele><time>2026-04-26T12:44:02.037Z</time></trkpt><trkpt lat="46.4708367" lon="12.4322817"><ele>800.3333333333333</ele><time>2026-04-26T12:44:03.042Z</time></trkpt><trkpt lat="46.4710017" lon="12.4323083"><ele>798.0</ele><time>2026-04-26T12:44:04.04Z</time></trkpt><trkpt lat="46.4711717" lon="12.43232"><ele>795.6666666666667</ele><time>2026-04-26T12:44:05.04Z</time></trkpt><trkpt lat="46.471345" lon="12.4323117"><ele>793.3333333333334</ele><time>2026-04-26T12:44:06.043Z</time></trkpt><trkpt lat="46.4715217" lon="12.4322933"><ele>791.0</ele><time>2026-04-26T12:44:07.031Z</time></trkpt><trkpt lat="46.471695" lon="12.4322517"><ele>791.0</ele><time>2026-04-26T12:44:08.031Z</time></trkpt><trkpt lat="46.47186" lon="12.432195"><ele>791.0</ele><time>2026-04-26T12:44:09.031Z</time></trkpt><trkpt lat="46.472025" lon="12.43214"><ele>791.0</ele><time>2026-04-26T12:44:10.031Z</time></trkpt><trkpt lat="46.4721883" lon="12.432085"><ele>791.0</ele><time>2026-04-26T12:44:11.031Z</time></trkpt><trkpt lat="46.4723517" lon="12.4320417"><ele>791.0</ele><time>2026-04-26T12:44:12.031Z</time></trkpt><trkpt lat="46.47251" lon="12.432025"><ele>791.0</ele><time>2026-04-26T12:44:13.031Z</time></trkpt><trkpt lat="46.4726633" lon="12.4320417"><ele>791.0</ele><time>2026-04-26T12:44:14.031Z</time></trkpt><trkpt lat="46.4728033" lon="12.4321133"><ele>791.0</ele><time>2026-04-26T12:44:15.031Z</time></trkpt><trkpt lat="46.4729267" lon="12.4322233"><ele>791.0</ele><time>2026-04-26T12:44:16.03Z</time></trkpt><trkpt lat="46.4730383" lon="12.43236"><ele>791.0</ele><time>2026-04-26T12:44:17.042Z</time></trkpt><trkpt lat="46.4731433" lon="12.4325117"><ele>791.25</ele><time>2026-04-26T12:44:18.041Z</time></trkpt><trkpt lat="46.47324" lon="12.4326717"><ele>791.5</ele><time>2026-04-26T12:44:19.041Z</time></trkpt><trkpt lat="46.473335" lon="12.432825"><ele>791.75</ele><time>2026-04-26T12:44:20.042Z</time></trkpt><trkpt lat="46.47343" lon="12.432985"><ele>792.0</ele><time>2026-04-26T12:44:21.043Z</time></trkpt><trkpt lat="46.473525" lon="12.4331467"><ele>790.25</ele><time>2026-04-26T12:44:22.04Z</time></trkpt><trkpt lat="46.4736233" lon="12.4333"><ele>788.5</ele><time>2026-04-26T12:44:23.042Z</time></trkpt><trkpt lat="46.47373" lon="12.433445"><ele>786.75</ele><time>2026-04-26T12:44:24.039Z</time></trkpt><trkpt lat="46.4738433" lon="12.4335783"><ele>785.0</ele><time>2026-04-26T12:44:25.04Z</time></trkpt><trkpt lat="46.4739617" lon="12.4337033"><ele>786.0</ele><time>2026-04-26T12:44:26.04Z</time></trkpt><trkpt lat="46.4740883" lon="12.4338117"><ele>787.0</ele><time>2026-04-26T12:44:27.039Z</time></trkpt><trkpt lat="46.4742233" lon="12.43393"><ele>788.0</ele><time>2026-04-26T12:44:28.04Z</time></trkpt><trkpt lat="46.4743517" lon="12.4340517"><ele>793.0</ele><time>2026-04-26T12:44:29.042Z</time></trkpt><trkpt lat="46.474605" lon="12.4343033"><ele>798.0</ele><time>2026-04-26T12:44:31.028Z</time></trkpt><trkpt lat="46.4747267" lon="12.4344333"><ele>798.0</ele><time>2026-04-26T12:44:32.027Z</time></trkpt><trkpt lat="46.4748317" lon="12.43457"><ele>798.0</ele><time>2026-04-26T12:44:33.026Z</time></trkpt><trkpt lat="46.474925" lon="12.4347233"><ele>798.0</ele><time>2026-04-26T12:44:34.028Z</time></trkpt><trkpt lat="46.4750183" lon="12.43489"><ele>798.0</ele><time>2026-04-26T12:44:35.026Z</time></trkpt><trkpt lat="46.4751167" lon="12.43506"><ele>797.5</ele><time>2026-04-26T12:44:36.027Z</time></trkpt><trkpt lat="46.4752067" lon="12.4352317"><ele>797.0</ele><time>2026-04-26T12:44:37.027Z</time></trkpt><trkpt lat="46.4752983" lon="12.4353917"><ele>796.5</ele><time>2026-04-26T12:44:38.026Z</time></trkpt><trkpt lat="46.4753817" lon="12.4355533"><ele>796.0</ele><time>2026-04-26T12:44:39.027Z</time></trkpt><trkpt lat="46.4754617" lon="12.43571"><ele>796.0</ele><time>2026-04-26T12:44:40.036Z</time></trkpt><trkpt lat="46.4755483" lon="12.4358667"><ele>796.0</ele><time>2026-04-26T12:44:41.039Z</time></trkpt><trkpt lat="46.475635" lon="12.4360217"><ele>796.0</ele><time>2026-04-26T12:44:42.044Z</time></trkpt><trkpt lat="46.4757333" lon="12.43616"><ele>796.0</ele><time>2026-04-26T12:44:43.039Z</time></trkpt><trkpt lat="46.4758417" lon="12.4362917"><ele>795.25</ele><time>2026-04-26T12:44:44.039Z</time></trkpt><trkpt lat="46.47595" lon="12.4364133"><ele>794.5</ele><time>2026-04-26T12:44:45.041Z</time></trkpt><trkpt lat="46.4760583" lon="12.43653"><ele>793.75</ele><time>2026-04-26T12:44:46.038Z</time></trkpt><trkpt lat="46.47616" lon="12.4366417"><ele>793.0</ele><time>2026-04-26T12:44:47.04Z</time></trkpt><trkpt lat="46.4762633" lon="12.4367467"><ele>793.0</ele><time>2026-04-26T12:44:48.039Z</time></trkpt><trkpt lat="46.4763633" lon="12.4368633"><ele>793.0</ele><time>2026-04-26T12:44:49.041Z</time></trkpt><trkpt lat="46.47646" lon="12.43698"><ele>793.0</ele><time>2026-04-26T12:44:50.039Z</time></trkpt><trkpt lat="46.4765633" lon="12.4371033"><ele>793.0</ele><time>2026-04-26T12:44:51.039Z</time></trkpt><trkpt lat="46.476665" lon="12.4372333"><ele>792.5</ele><time>2026-04-26T12:44:52.038Z</time></trkpt><trkpt lat="46.4767683" lon="12.4373783"><ele>792.0</ele><time>2026-04-26T12:44:53.04Z</time></trkpt><trkpt lat="46.4768733" lon="12.4375333"><ele>791.5</ele><time>2026-04-26T12:44:54.042Z</time></trkpt><trkpt lat="46.4769767" lon="12.4376933"><ele>791.0</ele><time>2026-04-26T12:44:55.039Z</time></trkpt><trkpt lat="46.4770717" lon="12.4378533"><ele>789.0</ele><time>2026-04-26T12:44:56.041Z</time></trkpt><trkpt lat="46.4771683" lon="12.4379983"><ele>787.0</ele><time>2026-04-26T12:44:57.041Z</time></trkpt><trkpt lat="46.47728" lon="12.4381133"><ele>785.0</ele><time>2026-04-26T12:44:58.042Z</time></trkpt><trkpt lat="46.477395" lon="12.4381917"><ele>783.0</ele><time>2026-04-26T12:44:59.04Z</time></trkpt><trkpt lat="46.4775083" lon="12.438245"><ele>783.0</ele><time>2026-04-26T12:45:00.039Z</time></trkpt><trkpt lat="46.4776167" lon="12.438295"><ele>783.0</ele><time>2026-04-26T12:45:01.039Z</time></trkpt><trkpt lat="46.4777167" lon="12.43835"><ele>783.0</ele><time>2026-04-26T12:45:02.039Z</time></trkpt><trkpt lat="46.4778067" lon="12.4383983"><ele>783.0</ele><time>2026-04-26T12:45:03.039Z</time></trkpt><trkpt lat="46.4778983" lon="12.4384483"><ele>783.0</ele><time>2026-04-26T12:45:04.036Z</time></trkpt><trkpt lat="46.47799" lon="12.4385033"><ele>782.0</ele><time>2026-04-26T12:45:05.039Z</time></trkpt><trkpt lat="46.4780783" lon="12.4385817"><ele>781.0</ele><time>2026-04-26T12:45:06.039Z</time></trkpt><trkpt lat="46.47816" lon="12.438695"><ele>780.0</ele><time>2026-04-26T12:45:07.041Z</time></trkpt><trkpt lat="46.4782417" lon="12.4388367"><ele>779.0</ele><time>2026-04-26T12:45:08.039Z</time></trkpt><trkpt lat="46.4783267" lon="12.4389917"><ele>779.0</ele><time>2026-04-26T12:45:09.04Z</time></trkpt><trkpt lat="46.47842" lon="12.4391433"><ele>779.0</ele><time>2026-04-26T12:45:10.041Z</time></trkpt><trkpt lat="46.4785283" lon="12.43929"><ele>779.0</ele><time>2026-04-26T12:45:11.04Z</time></trkpt><trkpt lat="46.478655" lon="12.4394183"><ele>779.0</ele><time>2026-04-26T12:45:12.041Z</time></trkpt><trkpt lat="46.4787983" lon="12.439525"><ele>781.6666666666667</ele><time>2026-04-26T12:45:13.043Z</time></trkpt><trkpt lat="46.47895" lon="12.4396133"><ele>784.3333333333333</ele><time>2026-04-26T12:45:14.036Z</time></trkpt><trkpt lat="46.479105" lon="12.4397"><ele>787.0</ele><time>2026-04-26T12:45:15.043Z</time></trkpt><trkpt lat="46.4792633" lon="12.4397767"><ele>781.3333333333333</ele><time>2026-04-26T12:45:16.038Z</time></trkpt><trkpt lat="46.4794283" lon="12.4398517"><ele>775.6666666666667</ele><time>2026-04-26T12:45:17.04Z</time></trkpt><trkpt lat="46.4796017" lon="12.4399167"><ele>770.0</ele><time>2026-04-26T12:45:18.041Z</time></trkpt><trkpt lat="46.4797783" lon="12.4399717"><ele>769.6666666666667</ele><time>2026-04-26T12:45:19.04Z</time></trkpt><trkpt lat="46.4799467" lon="12.4400317"><ele>769.3333333333333</ele><time>2026-04-26T12:45:20.039Z</time></trkpt><trkpt lat="46.4801117" lon="12.4400883"><ele>769.0</ele><time>2026-04-26T12:45:21.041Z</time></trkpt><trkpt lat="46.4802767" lon="12.4401467"><ele>773.6666666666666</ele><time>2026-04-26T12:45:22.036Z</time></trkpt><trkpt lat="46.4804383" lon="12.4402033"><ele>778.3333333333333</ele><time>2026-04-26T12:45:23.042Z</time></trkpt><trkpt lat="46.4805983" lon="12.4402583"><ele>783.0</ele><time>2026-04-26T12:45:24.039Z</time></trkpt><trkpt lat="46.4807567" lon="12.4403117"><ele>783.0</ele><time>2026-04-26T12:45:25.037Z</time></trkpt><trkpt lat="46.4809133" lon="12.44037"><ele>783.0</ele><time>2026-04-26T12:45:26.041Z</time></trkpt><trkpt lat="46.4810667" lon="12.440425"><ele>783.0</ele><time>2026-04-26T12:45:27.041Z</time></trkpt><trkpt lat="46.4812083" lon="12.4404817"><ele>777.75</ele><time>2026-04-26T12:45:28.037Z</time></trkpt><trkpt lat="46.4813517" lon="12.4405483"><ele>772.5</ele><time>2026-04-26T12:45:29.041Z</time></trkpt><trkpt lat="46.481485" lon="12.4406317"><ele>767.25</ele><time>2026-04-26T12:45:30.041Z</time></trkpt><trkpt lat="46.48161" lon="12.4407417"><ele>762.0</ele><time>2026-04-26T12:45:31.04Z</time></trkpt><trkpt lat="46.4817233" lon="12.4408667"><ele>762.0</ele><time>2026-04-26T12:45:32.038Z</time></trkpt><trkpt lat="46.481835" lon="12.44098"><ele>762.0</ele><time>2026-04-26T12:45:33.041Z</time></trkpt><trkpt lat="46.4819483" lon="12.44108"><ele>762.0</ele><time>2026-04-26T12:45:34.04Z</time></trkpt><trkpt lat="46.4820617" lon="12.4411617"><ele>762.0</ele><time>2026-04-26T12:45:35.035Z</time></trkpt><trkpt lat="46.4821867" lon="12.441205"><ele>765.5</ele><time>2026-04-26T12:45:36.039Z</time></trkpt><trkpt lat="46.482315" lon="12.441205"><ele>769.0</ele><time>2026-04-26T12:45:37.04Z</time></trkpt><trkpt lat="46.4824417" lon="12.441165"><ele>772.5</ele><time>2026-04-26T12:45:38.039Z</time></trkpt><trkpt lat="46.4825733" lon="12.441105"><ele>776.0</ele><time>2026-04-26T12:45:39.039Z</time></trkpt><trkpt lat="46.4827083" lon="12.44105"><ele>776.0</ele><time>2026-04-26T12:45:40.038Z</time></trkpt><trkpt lat="46.4828467" lon="12.441005"><ele>776.0</ele><time>2026-04-26T12:45:41.041Z</time></trkpt><trkpt lat="46.4829833" lon="12.44097"><ele>776.0</ele><time>2026-04-26T12:45:42.042Z</time></trkpt><trkpt lat="46.48312" lon="12.440945"><ele>776.0</ele><time>2026-04-26T12:45:43.04Z</time></trkpt><trkpt lat="46.4832567" lon="12.440915"><ele>773.25</ele><time>2026-04-26T12:45:44.036Z</time></trkpt><trkpt lat="46.4833933" lon="12.4408767"><ele>770.5</ele><time>2026-04-26T12:45:45.039Z</time></trkpt><trkpt lat="46.4835217" lon="12.4408483"><ele>767.75</ele><time>2026-04-26T12:45:46.039Z</time></trkpt><trkpt lat="46.483645" lon="12.4408167"><ele>765.0</ele><time>2026-04-26T12:45:47.039Z</time></trkpt><trkpt lat="46.4837617" lon="12.44078"><ele>762.0</ele><time>2026-04-26T12:45:48.041Z</time></trkpt><trkpt lat="46.4838733" lon="12.4407467"><ele>759.0</ele><time>2026-04-26T12:45:49.04Z</time></trkpt><trkpt lat="46.4839833" lon="12.4407383"><ele>756.0</ele><time>2026-04-26T12:45:50.036Z</time></trkpt><trkpt lat="46.4840883" lon="12.4407567"><ele>753.0</ele><time>2026-04-26T12:45:51.039Z</time></trkpt><trkpt lat="46.4841867" lon="12.4408017"><ele>750.0</ele><time>2026-04-26T12:45:52.036Z</time></trkpt><trkpt lat="46.4842833" lon="12.440865"><ele>750.0</ele><time>2026-04-26T12:45:53.038Z</time></trkpt><trkpt lat="46.4843733" lon="12.4409533"><ele>750.0</ele><time>2026-04-26T12:45:54.034Z</time></trkpt><trkpt lat="46.4844517" lon="12.4410567"><ele>750.0</ele><time>2026-04-26T12:45:55.042Z</time></trkpt><trkpt lat="46.4845267" lon="12.4411833"><ele>750.0</ele><time>2026-04-26T12:45:56.038Z</time></trkpt><trkpt lat="46.4846" lon="12.4413167"><ele>750.0</ele><time>2026-04-26T12:45:57.039Z</time></trkpt><trkpt lat="46.4846583" lon="12.44146"><ele>752.6</ele><time>2026-04-26T12:45:58.038Z</time></trkpt><trkpt lat="46.4846883" lon="12.4416067"><ele>755.2</ele><time>2026-04-26T12:45:59.04Z</time></trkpt><trkpt lat="46.48469" lon="12.4417733"><ele>757.8</ele><time>2026-04-26T12:46:00.042Z</time></trkpt><trkpt lat="46.4846733" lon="12.4419233"><ele>760.4</ele><time>2026-04-26T12:46:01.04Z</time></trkpt><trkpt lat="46.48465" lon="12.4420683"><ele>763.0</ele><time>2026-04-26T12:46:02.039Z</time></trkpt><trkpt lat="46.48462" lon="12.44222"><ele>761.4</ele><time>2026-04-26T12:46:03.039Z</time></trkpt><trkpt lat="46.4845817" lon="12.44235"><ele>759.8</ele><time>2026-04-26T12:46:04.039Z</time></trkpt><trkpt lat="46.48455" lon="12.4424833"><ele>758.2</ele><time>2026-04-26T12:46:05.04Z</time></trkpt><trkpt lat="46.4845233" lon="12.4426167"><ele>756.6</ele><time>2026-04-26T12:46:06.039Z</time></trkpt><trkpt lat="46.4844917" lon="12.44276"><ele>755.0</ele><time>2026-04-26T12:46:07.039Z</time></trkpt><trkpt lat="46.48447" lon="12.4428917"><ele>755.4</ele><time>2026-04-26T12:46:08.038Z</time></trkpt><trkpt lat="46.48445" lon="12.4430217"><ele>755.8</ele><time>2026-04-26T12:46:09.04Z</time></trkpt><trkpt lat="46.484425" lon="12.4431417"><ele>756.2</ele><time>2026-04-26T12:46:10.037Z</time></trkpt><trkpt lat="46.4843917" lon="12.44327"><ele>756.6</ele><time>2026-04-26T12:46:11.039Z</time></trkpt><trkpt lat="46.48436" lon="12.4433983"><ele>757.0</ele><time>2026-04-26T12:46:12.044Z</time></trkpt><trkpt lat="46.484335" lon="12.443545"><ele>757.0</ele><time>2026-04-26T12:46:13.039Z</time></trkpt><trkpt lat="46.4843217" lon="12.4436833"><ele>757.0</ele><time>2026-04-26T12:46:14.039Z</time></trkpt><trkpt lat="46.484325" lon="12.4438367"><ele>757.0</ele><time>2026-04-26T12:46:15.039Z</time></trkpt><trkpt lat="46.48432" lon="12.443985"><ele>757.0</ele><time>2026-04-26T12:46:16.04Z</time></trkpt><trkpt lat="46.484325" lon="12.4441167"><ele>757.0</ele><time>2026-04-26T12:46:17.041Z</time></trkpt><trkpt lat="46.4843333" lon="12.4442483"><ele>756.4000000000001</ele><time>2026-04-26T12:46:18.04Z</time></trkpt><trkpt lat="46.484375" lon="12.4443717"><ele>755.8000000000001</ele><time>2026-04-26T12:46:19.039Z</time></trkpt><trkpt lat="46.4844083" lon="12.4445033"><ele>755.2</ele><time>2026-04-26T12:46:20.039Z</time></trkpt><trkpt lat="46.4844517" lon="12.4446383"><ele>754.6</ele><time>2026-04-26T12:46:21.039Z</time></trkpt><trkpt lat="46.484515" lon="12.4447783"><ele>754.0</ele><time>2026-04-26T12:46:22.039Z</time></trkpt><trkpt lat="46.48459" lon="12.444925"><ele>753.5</ele><time>2026-04-26T12:46:23.037Z</time></trkpt><trkpt lat="46.4846767" lon="12.4450983"><ele>753.0</ele><time>2026-04-26T12:46:24.036Z</time></trkpt><trkpt lat="46.4847633" lon="12.4452767"><ele>752.5</ele><time>2026-04-26T12:46:25.04Z</time></trkpt><trkpt lat="46.4848383" lon="12.4454633"><ele>752.0</ele><time>2026-04-26T12:46:26.037Z</time></trkpt><trkpt lat="46.484925" lon="12.4456733"><ele>752.0</ele><time>2026-04-26T12:46:27.04Z</time></trkpt><trkpt lat="46.4850067" lon="12.445875"><ele>752.0</ele><time>2026-04-26T12:46:28.038Z</time></trkpt><trkpt lat="46.4850783" lon="12.4460767"><ele>752.0</ele><time>2026-04-26T12:46:29.041Z</time></trkpt><trkpt lat="46.4851533" lon="12.4462933"><ele>750.3333333333333</ele><time>2026-04-26T12:46:30.039Z</time></trkpt><trkpt lat="46.4852217" lon="12.4464983"><ele>748.6666666666666</ele><time>2026-04-26T12:46:31.04Z</time></trkpt><trkpt lat="46.4852933" lon="12.4467033"><ele>747.0</ele><time>2026-04-26T12:46:32.039Z</time></trkpt><trkpt lat="46.4853683" lon="12.44691"><ele>747.3333333333334</ele><time>2026-04-26T12:46:33.041Z</time></trkpt><trkpt lat="46.4854417" lon="12.4471217"><ele>747.6666666666667</ele><time>2026-04-26T12:46:34.039Z</time></trkpt><trkpt lat="46.4855183" lon="12.447325"><ele>748.0</ele><time>2026-04-26T12:46:35.04Z</time></trkpt><trkpt lat="46.4855817" lon="12.4475017"><ele>748.0</ele><time>2026-04-26T12:46:36.041Z</time></trkpt><trkpt lat="46.4856583" lon="12.44766"><ele>748.0</ele><time>2026-04-26T12:46:37.04Z</time></trkpt><trkpt lat="46.4857467" lon="12.4477967"><ele>748.0</ele><time>2026-04-26T12:46:38.038Z</time></trkpt><trkpt lat="46.4858567" lon="12.447915"><ele>748.0</ele><time>2026-04-26T12:46:39.039Z</time></trkpt><trkpt lat="46.485975" lon="12.448015"><ele>749.5</ele><time>2026-04-26T12:46:40.039Z</time></trkpt><trkpt lat="46.48609" lon="12.4481167"><ele>751.0</ele><time>2026-04-26T12:46:41.04Z</time></trkpt><trkpt lat="46.4861867" lon="12.448235"><ele>752.5</ele><time>2026-04-26T12:46:42.04Z</time></trkpt><trkpt lat="46.4862767" lon="12.448375"><ele>754.0</ele><time>2026-04-26T12:46:43.041Z</time></trkpt><trkpt lat="46.4863483" lon="12.448545"><ele>754.0</ele><time>2026-04-26T12:46:44.036Z</time></trkpt><trkpt lat="46.4864083" lon="12.4487217"><ele>754.0</ele><time>2026-04-26T12:46:45.033Z</time></trkpt><trkpt lat="46.4864783" lon="12.448895"><ele>754.0</ele><time>2026-04-26T12:46:46.038Z</time></trkpt><trkpt lat="46.4865633" lon="12.4490567"><ele>754.0</ele><time>2026-04-26T12:46:47.04Z</time></trkpt><trkpt lat="46.4866567" lon="12.449205"><ele>752.75</ele><time>2026-04-26T12:46:48.041Z</time></trkpt><trkpt lat="46.486755" lon="12.4493517"><ele>751.5</ele><time>2026-04-26T12:46:49.039Z</time></trkpt><trkpt lat="46.48686" lon="12.4494983"><ele>750.25</ele><time>2026-04-26T12:46:50.037Z</time></trkpt><trkpt lat="46.4869667" lon="12.44964"><ele>749.0</ele><time>2026-04-26T12:46:51.039Z</time></trkpt><trkpt lat="46.4870733" lon="12.449785"><ele>750.25</ele><time>2026-04-26T12:46:52.038Z</time></trkpt><trkpt lat="46.48718" lon="12.4499333"><ele>751.5</ele><time>2026-04-26T12:46:53.039Z</time></trkpt><trkpt lat="46.48728" lon="12.450065"><ele>752.75</ele><time>2026-04-26T12:46:54.042Z</time></trkpt><trkpt lat="46.4873833" lon="12.4502017"><ele>754.0</ele><time>2026-04-26T12:46:55.039Z</time></trkpt><trkpt lat="46.48749" lon="12.4503433"><ele>753.0</ele><time>2026-04-26T12:46:56.038Z</time></trkpt><trkpt lat="46.4876083" lon="12.4504667"><ele>752.0</ele><time>2026-04-26T12:46:57.04Z</time></trkpt><trkpt lat="46.4877267" lon="12.4505733"><ele>751.0</ele><time>2026-04-26T12:46:58.04Z</time></trkpt><trkpt lat="46.48785" lon="12.4506667"><ele>750.0</ele><time>2026-04-26T12:46:59.04Z</time></trkpt><trkpt lat="46.487975" lon="12.4507583"><ele>750.0</ele><time>2026-04-26T12:47:00.04Z</time></trkpt><trkpt lat="46.4881033" lon="12.45085"><ele>750.0</ele><time>2026-04-26T12:47:01.039Z</time></trkpt><trkpt lat="46.488225" lon="12.4509467"><ele>750.0</ele><time>2026-04-26T12:47:02.037Z</time></trkpt><trkpt lat="46.4883467" lon="12.4510383"><ele>750.0</ele><time>2026-04-26T12:47:03.042Z</time></trkpt><trkpt lat="46.488465" lon="12.4511233"><ele>750.0</ele><time>2026-04-26T12:47:04.037Z</time></trkpt><trkpt lat="46.48858" lon="12.4511967"><ele>750.0</ele><time>2026-04-26T12:47:05.037Z</time></trkpt><trkpt lat="46.4887" lon="12.4512517"><ele>750.0</ele><time>2026-04-26T12:47:06.042Z</time></trkpt><trkpt lat="46.48882" lon="12.4512833"><ele>750.0</ele><time>2026-04-26T12:47:07.038Z</time></trkpt><trkpt lat="46.4889367" lon="12.451285"><ele>750.0</ele><time>2026-04-26T12:47:08.038Z</time></trkpt><trkpt lat="46.4890433" lon="12.451265"><ele>750.0</ele><time>2026-04-26T12:47:09.038Z</time></trkpt><trkpt lat="46.4891467" lon="12.4512267"><ele>750.0</ele><time>2026-04-26T12:47:10.038Z</time></trkpt><trkpt lat="46.4892483" lon="12.4511867"><ele>750.0</ele><time>2026-04-26T12:47:11.038Z</time></trkpt><trkpt lat="46.4893433" lon="12.451165"><ele>750.0</ele><time>2026-04-26T12:47:12.039Z</time></trkpt><trkpt lat="46.4894317" lon="12.451165"><ele>750.0</ele><time>2026-04-26T12:47:13.039Z</time></trkpt><trkpt lat="46.489515" lon="12.4511783"><ele>750.0</ele><time>2026-04-26T12:47:14.038Z</time></trkpt><trkpt lat="46.4896" lon="12.451205"><ele>750.0</ele><time>2026-04-26T12:47:15.039Z</time></trkpt><trkpt lat="46.489695" lon="12.4512417"><ele>750.0</ele><time>2026-04-26T12:47:16.032Z</time></trkpt><trkpt lat="46.4897983" lon="12.451285"><ele>750.0</ele><time>2026-04-26T12:47:17.038Z</time></trkpt><trkpt lat="46.4899117" lon="12.4513317"><ele>747.25</ele><time>2026-04-26T12:47:18.039Z</time></trkpt><trkpt lat="46.4900333" lon="12.4513783"><ele>744.5</ele><time>2026-04-26T12:47:19.038Z</time></trkpt><trkpt lat="46.490165" lon="12.4514217"><ele>741.75</ele><time>2026-04-26T12:47:20.037Z</time></trkpt><trkpt lat="46.490303" lon="12.4514602"><ele>739.0</ele><time>2026-04-26T12:47:21.04Z</time></trkpt><trkpt lat="46.4904427" lon="12.4515028"><ele>739.0</ele><time>2026-04-26T12:47:22.038Z</time></trkpt><trkpt lat="46.4905859" lon="12.4515264"><ele>739.0</ele><time>2026-04-26T12:47:23.039Z</time></trkpt><trkpt lat="46.4907325" lon="12.4515185"><ele>739.0</ele><time>2026-04-26T12:47:24.039Z</time></trkpt><trkpt lat="46.4908798" lon="12.4514861"><ele>739.0</ele><time>2026-04-26T12:47:25.039Z</time></trkpt><trkpt lat="46.4910266" lon="12.4514532"><ele>739.0</ele><time>2026-04-26T12:47:26.037Z</time></trkpt><trkpt lat="46.4911665" lon="12.4514442"><ele>739.0</ele><time>2026-04-26T12:47:27.04Z</time></trkpt><trkpt lat="46.4913041" lon="12.4514562"><ele>739.0</ele><time>2026-04-26T12:47:28.037Z</time></trkpt><trkpt lat="46.4914398" lon="12.4514788"><ele>739.0</ele><time>2026-04-26T12:47:29.038Z</time></trkpt><trkpt lat="46.4915799" lon="12.4515047"><ele>738.75</ele><time>2026-04-26T12:47:30.041Z</time></trkpt><trkpt lat="46.4917229" lon="12.4515161"><ele>738.5</ele><time>2026-04-26T12:47:31.039Z</time></trkpt><trkpt lat="46.4918688" lon="12.451515"><ele>738.25</ele><time>2026-04-26T12:47:32.037Z</time></trkpt><trkpt lat="46.4920111" lon="12.4515102"><ele>738.0</ele><time>2026-04-26T12:47:33.039Z</time></trkpt><trkpt lat="46.492148" lon="12.4515019"><ele>739.5</ele><time>2026-04-26T12:47:34.036Z</time></trkpt><trkpt lat="46.492282" lon="12.4514887"><ele>741.0</ele><time>2026-04-26T12:47:35.04Z</time></trkpt><trkpt lat="46.4924149" lon="12.4514769"><ele>742.5</ele><time>2026-04-26T12:47:36.041Z</time></trkpt><trkpt lat="46.4925428" lon="12.4514813"><ele>744.0</ele><time>2026-04-26T12:47:37.039Z</time></trkpt><trkpt lat="46.4926666" lon="12.4515067"><ele>744.0</ele><time>2026-04-26T12:47:38.038Z</time></trkpt><trkpt lat="46.4927868" lon="12.4515471"><ele>744.0</ele><time>2026-04-26T12:47:39.039Z</time></trkpt><trkpt lat="46.4929006" lon="12.4515978"><ele>744.0</ele><time>2026-04-26T12:47:40.04Z</time></trkpt><trkpt lat="46.4930009" lon="12.4516658"><ele>744.0</ele><time>2026-04-26T12:47:41.039Z</time></trkpt><trkpt lat="46.4930882" lon="12.4517605"><ele>745.2</ele><time>2026-04-26T12:47:42.039Z</time></trkpt><trkpt lat="46.4931563" lon="12.4518867"><ele>746.4000000000001</ele><time>2026-04-26T12:47:43.039Z</time></trkpt><trkpt lat="46.4932112" lon="12.452033"><ele>747.6</ele><time>2026-04-26T12:47:44.037Z</time></trkpt><trkpt lat="46.493264" lon="12.4521783"><ele>748.8</ele><time>2026-04-26T12:47:45.039Z</time></trkpt><trkpt lat="46.4933148" lon="12.4523139"><ele>750.0</ele><time>2026-04-26T12:47:46.036Z</time></trkpt><trkpt lat="46.4933728" lon="12.4524232"><ele>750.0</ele><time>2026-04-26T12:47:47.04Z</time></trkpt><trkpt lat="46.4934488" lon="12.4524935"><ele>750.0</ele><time>2026-04-26T12:47:48.039Z</time></trkpt><trkpt lat="46.4935359" lon="12.4525264"><ele>750.0</ele><time>2026-04-26T12:47:49.039Z</time></trkpt><trkpt lat="46.4936264" lon="12.4525284"><ele>750.0</ele><time>2026-04-26T12:47:50.038Z</time></trkpt><trkpt lat="46.4937161" lon="12.452506"><ele>750.0</ele><time>2026-04-26T12:47:51.035Z</time></trkpt><trkpt lat="46.4938036" lon="12.4524628"><ele>749.0</ele><time>2026-04-26T12:47:52.036Z</time></trkpt><trkpt lat="46.4938858" lon="12.4524113"><ele>748.0</ele><time>2026-04-26T12:47:53.04Z</time></trkpt><trkpt lat="46.4939577" lon="12.4523489"><ele>747.0</ele><time>2026-04-26T12:47:54.041Z</time></trkpt><trkpt lat="46.4940247" lon="12.4522993"><ele>746.0</ele><time>2026-04-26T12:47:55.039Z</time></trkpt><trkpt lat="46.4940872" lon="12.4522815"><ele>745.0</ele><time>2026-04-26T12:47:56.039Z</time></trkpt><trkpt lat="46.4942012" lon="12.4523269"><ele>744.0</ele><time>2026-04-26T12:47:58.038Z</time></trkpt><trkpt lat="46.4942535" lon="12.4523852"><ele>744.0</ele><time>2026-04-26T12:47:59.041Z</time></trkpt><trkpt lat="46.494309" lon="12.4524562"><ele>744.0</ele><time>2026-04-26T12:48:00.041Z</time></trkpt><trkpt lat="46.4943746" lon="12.4525185"><ele>744.0</ele><time>2026-04-26T12:48:01.04Z</time></trkpt><trkpt lat="46.4944502" lon="12.4525629"><ele>744.0</ele><time>2026-04-26T12:48:02.039Z</time></trkpt><trkpt lat="46.4945345" lon="12.4525911"><ele>744.0</ele><time>2026-04-26T12:48:03.04Z</time></trkpt><trkpt lat="46.4946279" lon="12.4526071"><ele>744.0</ele><time>2026-04-26T12:48:04.036Z</time></trkpt><trkpt lat="46.4947283" lon="12.4526231"><ele>743.0</ele><time>2026-04-26T12:48:05.039Z</time></trkpt><trkpt lat="46.4948351" lon="12.4526362"><ele>742.0</ele><time>2026-04-26T12:48:06.04Z</time></trkpt><trkpt lat="46.494947" lon="12.4526544"><ele>741.0</ele><time>2026-04-26T12:48:07.04Z</time></trkpt><trkpt lat="46.4950641" lon="12.45267"><ele>740.0</ele><time>2026-04-26T12:48:08.04Z</time></trkpt><trkpt lat="46.4951899" lon="12.452685"><ele>740.0</ele><time>2026-04-26T12:48:09.04Z</time></trkpt><trkpt lat="46.495318" lon="12.4527097"><ele>740.0</ele><time>2026-04-26T12:48:10.039Z</time></trkpt><trkpt lat="46.4954527" lon="12.452752"><ele>740.0</ele><time>2026-04-26T12:48:11.039Z</time></trkpt><trkpt lat="46.4955884" lon="12.4528158"><ele>740.0</ele><time>2026-04-26T12:48:12.041Z</time></trkpt><trkpt lat="46.4957202" lon="12.4529041"><ele>745.75</ele><time>2026-04-26T12:48:13.039Z</time></trkpt><trkpt lat="46.4958491" lon="12.453009"><ele>751.5</ele><time>2026-04-26T12:48:14.037Z</time></trkpt><trkpt lat="46.4959694" lon="12.453133"><ele>757.25</ele><time>2026-04-26T12:48:15.039Z</time></trkpt><trkpt lat="46.4960893" lon="12.4532539"><ele>763.0</ele><time>2026-04-26T12:48:16.035Z</time></trkpt><trkpt lat="46.4962151" lon="12.453363"><ele>753.0</ele><time>2026-04-26T12:48:17.04Z</time></trkpt><trkpt lat="46.4963507" lon="12.4534518"><ele>743.0</ele><time>2026-04-26T12:48:18.04Z</time></trkpt><trkpt lat="46.4964886" lon="12.4535396"><ele>733.0</ele><time>2026-04-26T12:48:19.039Z</time></trkpt><trkpt lat="46.4966271" lon="12.4536395"><ele>733.0</ele><time>2026-04-26T12:48:20.039Z</time></trkpt><trkpt lat="46.4967569" lon="12.4537547"><ele>733.0</ele><time>2026-04-26T12:48:21.039Z</time></trkpt><trkpt lat="46.4968852" lon="12.4538721"><ele>733.0</ele><time>2026-04-26T12:48:22.039Z</time></trkpt><trkpt lat="46.4970157" lon="12.4539736"><ele>731.75</ele><time>2026-04-26T12:48:23.04Z</time></trkpt><trkpt lat="46.497143" lon="12.4540655"><ele>730.5</ele><time>2026-04-26T12:48:24.04Z</time></trkpt><trkpt lat="46.4972658" lon="12.4541527"><ele>729.25</ele><time>2026-04-26T12:48:25.039Z</time></trkpt><trkpt lat="46.4973923" lon="12.4542383"><ele>728.0</ele><time>2026-04-26T12:48:26.039Z</time></trkpt><trkpt lat="46.4975199" lon="12.454326"><ele>728.0</ele><time>2026-04-26T12:48:27.039Z</time></trkpt><trkpt lat="46.4976533" lon="12.4544081"><ele>728.0</ele><time>2026-04-26T12:48:28.036Z</time></trkpt><trkpt lat="46.4977912" lon="12.4544854"><ele>728.0</ele><time>2026-04-26T12:48:29.039Z</time></trkpt><trkpt lat="46.4979325" lon="12.4545518"><ele>728.0</ele><time>2026-04-26T12:48:30.04Z</time></trkpt><trkpt lat="46.4980745" lon="12.4546114"><ele>728.75</ele><time>2026-04-26T12:48:31.038Z</time></trkpt><trkpt lat="46.4982131" lon="12.4546735"><ele>729.5</ele><time>2026-04-26T12:48:32.037Z</time></trkpt><trkpt lat="46.4983545" lon="12.4547346"><ele>730.25</ele><time>2026-04-26T12:48:33.04Z</time></trkpt><trkpt lat="46.4984973" lon="12.4547978"><ele>731.0</ele><time>2026-04-26T12:48:34.037Z</time></trkpt><trkpt lat="46.498636" lon="12.4548567"><ele>731.0</ele><time>2026-04-26T12:48:35.041Z</time></trkpt><trkpt lat="46.498778" lon="12.4548971"><ele>731.0</ele><time>2026-04-26T12:48:36.039Z</time></trkpt><trkpt lat="46.4989238" lon="12.4549232"><ele>731.0</ele><time>2026-04-26T12:48:37.038Z</time></trkpt><trkpt lat="46.499073" lon="12.4549502"><ele>731.0</ele><time>2026-04-26T12:48:38.039Z</time></trkpt><trkpt lat="46.4992219" lon="12.4549812"><ele>731.0</ele><time>2026-04-26T12:48:39.04Z</time></trkpt><trkpt lat="46.4993705" lon="12.4550159"><ele>731.0</ele><time>2026-04-26T12:48:40.036Z</time></trkpt><trkpt lat="46.4995206" lon="12.4550497"><ele>731.0</ele><time>2026-04-26T12:48:41.035Z</time></trkpt><trkpt lat="46.4996715" lon="12.4550864"><ele>730.0</ele><time>2026-04-26T12:48:42.044Z</time></trkpt><trkpt lat="46.4998239" lon="12.4551285"><ele>729.0</ele><time>2026-04-26T12:48:43.038Z</time></trkpt><trkpt lat="46.4999751" lon="12.4551793"><ele>728.0</ele><time>2026-04-26T12:48:44.04Z</time></trkpt><trkpt lat="46.5001204" lon="12.455245"><ele>728.0</ele><time>2026-04-26T12:48:45.038Z</time></trkpt><trkpt lat="46.5002702" lon="12.4553093"><ele>728.0</ele><time>2026-04-26T12:48:46.036Z</time></trkpt><trkpt lat="46.5004193" lon="12.4553812"><ele>728.0</ele><time>2026-04-26T12:48:47.041Z</time></trkpt><trkpt lat="46.5005689" lon="12.4554566"><ele>730.6666666666666</ele><time>2026-04-26T12:48:48.041Z</time></trkpt><trkpt lat="46.5007174" lon="12.4555424"><ele>733.3333333333334</ele><time>2026-04-26T12:48:49.04Z</time></trkpt><trkpt lat="46.5008652" lon="12.45564"><ele>736.0</ele><time>2026-04-26T12:48:50.039Z</time></trkpt><trkpt lat="46.5010082" lon="12.4557495"><ele>736.0</ele><time>2026-04-26T12:48:51.04Z</time></trkpt><trkpt lat="46.5011463" lon="12.4558681"><ele>736.0</ele><time>2026-04-26T12:48:52.034Z</time></trkpt><trkpt lat="46.5012909" lon="12.4559904"><ele>736.0</ele><time>2026-04-26T12:48:53.039Z</time></trkpt><trkpt lat="46.5014335" lon="12.4561171"><ele>736.3333333333334</ele><time>2026-04-26T12:48:54.042Z</time></trkpt><trkpt lat="46.5015766" lon="12.4562466"><ele>736.6666666666666</ele><time>2026-04-26T12:48:55.041Z</time></trkpt><trkpt lat="46.5017221" lon="12.4563699"><ele>737.0</ele><time>2026-04-26T12:48:56.04Z</time></trkpt><trkpt lat="46.5018698" lon="12.4564909"><ele>735.3333333333333</ele><time>2026-04-26T12:48:57.039Z</time></trkpt><trkpt lat="46.5020184" lon="12.4566111"><ele>733.6666666666666</ele><time>2026-04-26T12:48:58.039Z</time></trkpt><trkpt lat="46.5021671" lon="12.4567352"><ele>732.0</ele><time>2026-04-26T12:48:59.041Z</time></trkpt><trkpt lat="46.5023154" lon="12.4568615"><ele>732.0</ele><time>2026-04-26T12:49:00.039Z</time></trkpt><trkpt lat="46.5024637" lon="12.4569871"><ele>732.0</ele><time>2026-04-26T12:49:01.039Z</time></trkpt><trkpt lat="46.5026093" lon="12.4571065"><ele>732.0</ele><time>2026-04-26T12:49:02.04Z</time></trkpt><trkpt lat="46.5027516" lon="12.4572171"><ele>735.6666666666666</ele><time>2026-04-26T12:49:03.038Z</time></trkpt><trkpt lat="46.5028887" lon="12.457323"><ele>739.3333333333333</ele><time>2026-04-26T12:49:04.039Z</time></trkpt><trkpt lat="46.5030255" lon="12.457425"><ele>743.0</ele><time>2026-04-26T12:49:05.038Z</time></trkpt><trkpt lat="46.5031638" lon="12.457513"><ele>743.0</ele><time>2026-04-26T12:49:06.04Z</time></trkpt><trkpt lat="46.5033051" lon="12.4575839"><ele>743.0</ele><time>2026-04-26T12:49:07.039Z</time></trkpt><trkpt lat="46.5034524" lon="12.4576348"><ele>743.0</ele><time>2026-04-26T12:49:08.04Z</time></trkpt><trkpt lat="46.5036037" lon="12.4576592"><ele>741.6666666666666</ele><time>2026-04-26T12:49:09.04Z</time></trkpt><trkpt lat="46.5037597" lon="12.4576636"><ele>740.3333333333334</ele><time>2026-04-26T12:49:10.04Z</time></trkpt><trkpt lat="46.503915" lon="12.4576467"><ele>739.0</ele><time>2026-04-26T12:49:11.04Z</time></trkpt><trkpt lat="46.5040683" lon="12.457625"><ele>739.0</ele><time>2026-04-26T12:49:12.043Z</time></trkpt><trkpt lat="46.504215" lon="12.4576067"><ele>739.0</ele><time>2026-04-26T12:49:13.037Z</time></trkpt><trkpt lat="46.5043617" lon="12.457585"><ele>739.0</ele><time>2026-04-26T12:49:14.04Z</time></trkpt><trkpt lat="46.5045017" lon="12.4575633"><ele>739.0</ele><time>2026-04-26T12:49:15.04Z</time></trkpt><trkpt lat="46.50464" lon="12.457545"><ele>740.5</ele><time>2026-04-26T12:49:16.039Z</time></trkpt><trkpt lat="46.5047833" lon="12.457535"><ele>742.0</ele><time>2026-04-26T12:49:17.039Z</time></trkpt><trkpt lat="46.5049267" lon="12.4575533"><ele>743.5</ele><time>2026-04-26T12:49:18.04Z</time></trkpt><trkpt lat="46.50507" lon="12.4575833"><ele>745.0</ele><time>2026-04-26T12:49:19.04Z</time></trkpt><trkpt lat="46.5052133" lon="12.4576133"><ele>745.0</ele><time>2026-04-26T12:49:20.036Z</time></trkpt><trkpt lat="46.5053567" lon="12.4576433"><ele>745.0</ele><time>2026-04-26T12:49:21.038Z</time></trkpt><trkpt lat="46.5055017" lon="12.45767"><ele>745.0</ele><time>2026-04-26T12:49:22.039Z</time></trkpt><trkpt lat="46.5056467" lon="12.4576867"><ele>745.0</ele><time>2026-04-26T12:49:23.038Z</time></trkpt><trkpt lat="46.5057967" lon="12.45768"><ele>744.3333333333334</ele><time>2026-04-26T12:49:24.041Z</time></trkpt><trkpt lat="46.5059467" lon="12.4576683"><ele>743.6666666666666</ele><time>2026-04-26T12:49:25.039Z</time></trkpt><trkpt lat="46.5061" lon="12.45764"><ele>743.0</ele><time>2026-04-26T12:49:26.04Z</time></trkpt><trkpt lat="46.5062567" lon="12.4576117"><ele>741.3333333333333</ele><time>2026-04-26T12:49:27.038Z</time></trkpt><trkpt lat="46.5064133" lon="12.457585"><ele>739.6666666666666</ele><time>2026-04-26T12:49:28.037Z</time></trkpt><trkpt lat="46.5065717" lon="12.457565"><ele>738.0</ele><time>2026-04-26T12:49:29.04Z</time></trkpt><trkpt lat="46.5067317" lon="12.45756"><ele>738.0</ele><time>2026-04-26T12:49:30.043Z</time></trkpt><trkpt lat="46.5068883" lon="12.4575733"><ele>738.0</ele><time>2026-04-26T12:49:31.04Z</time></trkpt><trkpt lat="46.5070417" lon="12.4576117"><ele>738.0</ele><time>2026-04-26T12:49:32.04Z</time></trkpt><trkpt lat="46.50719" lon="12.457675"><ele>739.0</ele><time>2026-04-26T12:49:33.031Z</time></trkpt><trkpt lat="46.5073367" lon="12.4577483"><ele>740.0</ele><time>2026-04-26T12:49:34.038Z</time></trkpt><trkpt lat="46.507475" lon="12.45782"><ele>741.0</ele><time>2026-04-26T12:49:35.035Z</time></trkpt><trkpt lat="46.5076183" lon="12.457895"><ele>740.0</ele><time>2026-04-26T12:49:36.043Z</time></trkpt><trkpt lat="46.507765" lon="12.4579683"><ele>739.0</ele><time>2026-04-26T12:49:37.036Z</time></trkpt><trkpt lat="46.5078967" lon="12.4580533"><ele>738.0</ele><time>2026-04-26T12:49:38.036Z</time></trkpt><trkpt lat="46.508035" lon="12.45813"><ele>737.0</ele><time>2026-04-26T12:49:39.038Z</time></trkpt><trkpt lat="46.5081767" lon="12.4582067"><ele>737.0</ele><time>2026-04-26T12:49:40.039Z</time></trkpt><trkpt lat="46.50832" lon="12.458285"><ele>737.0</ele><time>2026-04-26T12:49:41.039Z</time></trkpt><trkpt lat="46.50846" lon="12.4583667"><ele>737.0</ele><time>2026-04-26T12:49:42.039Z</time></trkpt><trkpt lat="46.5086" lon="12.4584517"><ele>737.0</ele><time>2026-04-26T12:49:43.04Z</time></trkpt><trkpt lat="46.5087383" lon="12.458535"><ele>737.0</ele><time>2026-04-26T12:49:44.038Z</time></trkpt><trkpt lat="46.5088767" lon="12.458615"><ele>737.0</ele><time>2026-04-26T12:49:45.038Z</time></trkpt><trkpt lat="46.5090133" lon="12.458695"><ele>737.0</ele><time>2026-04-26T12:49:46.038Z</time></trkpt><trkpt lat="46.50915" lon="12.458775"><ele>739.25</ele><time>2026-04-26T12:49:47.036Z</time></trkpt><trkpt lat="46.5092783" lon="12.458865"><ele>741.5</ele><time>2026-04-26T12:49:48.041Z</time></trkpt><trkpt lat="46.5094033" lon="12.4589633"><ele>743.75</ele><time>2026-04-26T12:49:49.039Z</time></trkpt><trkpt lat="46.5095183" lon="12.4590633"><ele>746.0</ele><time>2026-04-26T12:49:50.039Z</time></trkpt><trkpt lat="46.5096333" lon="12.459165"><ele>748.25</ele><time>2026-04-26T12:49:51.041Z</time></trkpt><trkpt lat="46.5097383" lon="12.4592717"><ele>750.5</ele><time>2026-04-26T12:49:52.035Z</time></trkpt><trkpt lat="46.5098317" lon="12.45938"><ele>752.75</ele><time>2026-04-26T12:49:53.036Z</time></trkpt><trkpt lat="46.5099233" lon="12.4594867"><ele>755.0</ele><time>2026-04-26T12:49:54.041Z</time></trkpt><trkpt lat="46.510015" lon="12.4596"><ele>756.0</ele><time>2026-04-26T12:49:55.041Z</time></trkpt><trkpt lat="46.5101033" lon="12.4597183"><ele>757.0</ele><time>2026-04-26T12:49:56.04Z</time></trkpt><trkpt lat="46.51019" lon="12.4598367"><ele>758.0</ele><time>2026-04-26T12:49:57.041Z</time></trkpt><trkpt lat="46.5102833" lon="12.459955"><ele>759.0</ele><time>2026-04-26T12:49:58.041Z</time></trkpt><trkpt lat="46.5103717" lon="12.460085"><ele>761.75</ele><time>2026-04-26T12:49:59.041Z</time></trkpt><trkpt lat="46.510465" lon="12.4602117"><ele>764.5</ele><time>2026-04-26T12:50:00.041Z</time></trkpt><trkpt lat="46.5105617" lon="12.4603317"><ele>767.25</ele><time>2026-04-26T12:50:01.04Z</time></trkpt><trkpt lat="46.5106617" lon="12.4604483"><ele>770.0</ele><time>2026-04-26T12:50:02.04Z</time></trkpt><trkpt lat="46.5107567" lon="12.4605617"><ele>770.5</ele><time>2026-04-26T12:50:03.041Z</time></trkpt><trkpt lat="46.5108483" lon="12.4606667"><ele>771.0</ele><time>2026-04-26T12:50:04.035Z</time></trkpt><trkpt lat="46.5109417" lon="12.46076"><ele>771.5</ele><time>2026-04-26T12:50:05.036Z</time></trkpt><trkpt lat="46.5110367" lon="12.4608483"><ele>772.0</ele><time>2026-04-26T12:50:06.038Z</time></trkpt><trkpt lat="46.5111383" lon="12.4609283"><ele>772.0</ele><time>2026-04-26T12:50:07.043Z</time></trkpt><trkpt lat="46.51124" lon="12.461005"><ele>772.0</ele><time>2026-04-26T12:50:08.04Z</time></trkpt><trkpt lat="46.5113433" lon="12.4610817"><ele>772.0</ele><time>2026-04-26T12:50:09.042Z</time></trkpt><trkpt lat="46.511445" lon="12.46116"><ele>772.0</ele><time>2026-04-26T12:50:10.037Z</time></trkpt><trkpt lat="46.5115483" lon="12.4612367"><ele>771.25</ele><time>2026-04-26T12:50:11.04Z</time></trkpt><trkpt lat="46.51165" lon="12.4613117"><ele>770.5</ele><time>2026-04-26T12:50:12.043Z</time></trkpt><trkpt lat="46.51175" lon="12.4613867"><ele>769.75</ele><time>2026-04-26T12:50:13.039Z</time></trkpt><trkpt lat="46.5118517" lon="12.4614583"><ele>769.0</ele><time>2026-04-26T12:50:14.039Z</time></trkpt><trkpt lat="46.5119533" lon="12.461525"><ele>769.0</ele><time>2026-04-26T12:50:15.039Z</time></trkpt><trkpt lat="46.51205" lon="12.4615933"><ele>769.0</ele><time>2026-04-26T12:50:16.039Z</time></trkpt><trkpt lat="46.5121483" lon="12.4616633"><ele>769.0</ele><time>2026-04-26T12:50:17.041Z</time></trkpt><trkpt lat="46.5122467" lon="12.4617367"><ele>769.0</ele><time>2026-04-26T12:50:18.042Z</time></trkpt><trkpt lat="46.5123467" lon="12.4618117"><ele>769.0</ele><time>2026-04-26T12:50:19.04Z</time></trkpt><trkpt lat="46.5124483" lon="12.4618917"><ele>769.0</ele><time>2026-04-26T12:50:20.04Z</time></trkpt><trkpt lat="46.5125533" lon="12.4619783"><ele>769.0</ele><time>2026-04-26T12:50:21.041Z</time></trkpt><trkpt lat="46.51266" lon="12.462055"><ele>769.0</ele><time>2026-04-26T12:50:22.039Z</time></trkpt><trkpt lat="46.5127683" lon="12.462135"><ele>769.0</ele><time>2026-04-26T12:50:23.043Z</time></trkpt><trkpt lat="46.5128783" lon="12.4622167"><ele>770.0</ele><time>2026-04-26T12:50:24.039Z</time></trkpt><trkpt lat="46.512985" lon="12.4623033"><ele>771.0</ele><time>2026-04-26T12:50:25.038Z</time></trkpt><trkpt lat="46.513085" lon="12.4623933"><ele>772.0</ele><time>2026-04-26T12:50:26.038Z</time></trkpt><trkpt lat="46.5131817" lon="12.46249"><ele>773.0</ele><time>2026-04-26T12:50:27.041Z</time></trkpt><trkpt lat="46.5132767" lon="12.4625867"><ele>773.0</ele><time>2026-04-26T12:50:28.041Z</time></trkpt><trkpt lat="46.5133683" lon="12.4626883"><ele>773.0</ele><time>2026-04-26T12:50:29.04Z</time></trkpt><trkpt lat="46.5134583" lon="12.4627967"><ele>773.0</ele><time>2026-04-26T12:50:30.041Z</time></trkpt><trkpt lat="46.5135467" lon="12.4629083"><ele>773.0</ele><time>2026-04-26T12:50:31.039Z</time></trkpt><trkpt lat="46.5136367" lon="12.463015"><ele>774.0</ele><time>2026-04-26T12:50:32.037Z</time></trkpt><trkpt lat="46.513725" lon="12.4631233"><ele>775.0</ele><time>2026-04-26T12:50:33.038Z</time></trkpt><trkpt lat="46.51381" lon="12.46323"><ele>776.0</ele><time>2026-04-26T12:50:34.04Z</time></trkpt><trkpt lat="46.5139017" lon="12.4633383"><ele>777.0</ele><time>2026-04-26T12:50:35.039Z</time></trkpt><trkpt lat="46.5139983" lon="12.4634383"><ele>777.5</ele><time>2026-04-26T12:50:36.042Z</time></trkpt><trkpt lat="46.5140967" lon="12.4635217"><ele>778.0</ele><time>2026-04-26T12:50:37.039Z</time></trkpt><trkpt lat="46.5142017" lon="12.4635917"><ele>778.5</ele><time>2026-04-26T12:50:38.038Z</time></trkpt><trkpt lat="46.51431" lon="12.463645"><ele>779.0</ele><time>2026-04-26T12:50:39.04Z</time></trkpt><trkpt lat="46.5144217" lon="12.46369"><ele>779.0</ele><time>2026-04-26T12:50:40.04Z</time></trkpt><trkpt lat="46.514535" lon="12.4637267"><ele>779.0</ele><time>2026-04-26T12:50:41.04Z</time></trkpt><trkpt lat="46.5146483" lon="12.4637617"><ele>779.0</ele><time>2026-04-26T12:50:42.038Z</time></trkpt><trkpt lat="46.5147633" lon="12.463795"><ele>779.0</ele><time>2026-04-26T12:50:43.038Z</time></trkpt><trkpt lat="46.5148817" lon="12.463825"><ele>779.75</ele><time>2026-04-26T12:50:44.038Z</time></trkpt><trkpt lat="46.5149983" lon="12.463855"><ele>780.5</ele><time>2026-04-26T12:50:45.038Z</time></trkpt><trkpt lat="46.51511" lon="12.4638917"><ele>781.25</ele><time>2026-04-26T12:50:46.038Z</time></trkpt><trkpt lat="46.5152267" lon="12.463925"><ele>782.0</ele><time>2026-04-26T12:50:47.038Z</time></trkpt><trkpt lat="46.5153467" lon="12.463955"><ele>783.25</ele><time>2026-04-26T12:50:48.041Z</time></trkpt><trkpt lat="46.5154717" lon="12.4639883"><ele>784.5</ele><time>2026-04-26T12:50:49.039Z</time></trkpt><trkpt lat="46.5156" lon="12.4640233"><ele>785.75</ele><time>2026-04-26T12:50:50.036Z</time></trkpt><trkpt lat="46.5157233" lon="12.46405"><ele>787.0</ele><time>2026-04-26T12:50:51.029Z</time></trkpt><trkpt lat="46.515835" lon="12.46409"><ele>787.0</ele><time>2026-04-26T12:50:52.026Z</time></trkpt><trkpt lat="46.515945" lon="12.4641267"><ele>787.0</ele><time>2026-04-26T12:50:53.027Z</time></trkpt><trkpt lat="46.5160617" lon="12.46416"><ele>787.0</ele><time>2026-04-26T12:50:54.027Z</time></trkpt><trkpt lat="46.5161717" lon="12.4642133"><ele>787.0</ele><time>2026-04-26T12:50:55.027Z</time></trkpt><trkpt lat="46.5162817" lon="12.4642633"><ele>787.75</ele><time>2026-04-26T12:50:56.027Z</time></trkpt><trkpt lat="46.5163883" lon="12.464315"><ele>788.5</ele><time>2026-04-26T12:50:57.027Z</time></trkpt><trkpt lat="46.5164983" lon="12.4643767"><ele>789.25</ele><time>2026-04-26T12:50:58.027Z</time></trkpt><trkpt lat="46.5166083" lon="12.46445"><ele>790.0</ele><time>2026-04-26T12:50:59.026Z</time></trkpt><trkpt lat="46.5167183" lon="12.4645283"><ele>790.25</ele><time>2026-04-26T12:51:00.044Z</time></trkpt><trkpt lat="46.5168317" lon="12.4646133"><ele>790.5</ele><time>2026-04-26T12:51:01.039Z</time></trkpt><trkpt lat="46.51695" lon="12.464695"><ele>790.75</ele><time>2026-04-26T12:51:02.039Z</time></trkpt><trkpt lat="46.51707" lon="12.464775"><ele>791.0</ele><time>2026-04-26T12:51:03.039Z</time></trkpt><trkpt lat="46.51719" lon="12.464855"><ele>791.0</ele><time>2026-04-26T12:51:04.038Z</time></trkpt><trkpt lat="46.5173083" lon="12.46494"><ele>791.0</ele><time>2026-04-26T12:51:05.039Z</time></trkpt><trkpt lat="46.5174267" lon="12.4650217"><ele>791.0</ele><time>2026-04-26T12:51:06.039Z</time></trkpt><trkpt lat="46.517545" lon="12.4651033"><ele>791.0</ele><time>2026-04-26T12:51:07.039Z</time></trkpt><trkpt lat="46.517665" lon="12.4651883"><ele>791.0</ele><time>2026-04-26T12:51:08.039Z</time></trkpt><trkpt lat="46.5177867" lon="12.465275"><ele>791.0</ele><time>2026-04-26T12:51:09.039Z</time></trkpt><trkpt lat="46.5179117" lon="12.4653667"><ele>791.0</ele><time>2026-04-26T12:51:10.045Z</time></trkpt><trkpt lat="46.5180383" lon="12.46546"><ele>791.0</ele><time>2026-04-26T12:51:11.036Z</time></trkpt><trkpt lat="46.51816" lon="12.4655517"><ele>792.75</ele><time>2026-04-26T12:51:12.039Z</time></trkpt><trkpt lat="46.5182783" lon="12.4656467"><ele>794.5</ele><time>2026-04-26T12:51:13.039Z</time></trkpt><trkpt lat="46.5184017" lon="12.46573"><ele>796.25</ele><time>2026-04-26T12:51:14.038Z</time></trkpt><trkpt lat="46.5185267" lon="12.4658133"><ele>798.0</ele><time>2026-04-26T12:51:15.035Z</time></trkpt><trkpt lat="46.51865" lon="12.4659017"><ele>795.5</ele><time>2026-04-26T12:51:16.039Z</time></trkpt><trkpt lat="46.5187783" lon="12.46599"><ele>793.0</ele><time>2026-04-26T12:51:17.038Z</time></trkpt><trkpt lat="46.5189067" lon="12.4660833"><ele>790.5</ele><time>2026-04-26T12:51:18.038Z</time></trkpt><trkpt lat="46.5190317" lon="12.4661867"><ele>788.0</ele><time>2026-04-26T12:51:19.038Z</time></trkpt><trkpt lat="46.5191517" lon="12.4662833"><ele>787.25</ele><time>2026-04-26T12:51:20.035Z</time></trkpt><trkpt lat="46.5192633" lon="12.4663783"><ele>786.5</ele><time>2026-04-26T12:51:21.038Z</time></trkpt><trkpt lat="46.5193733" lon="12.46648"><ele>785.75</ele><time>2026-04-26T12:51:22.037Z</time></trkpt><trkpt lat="46.519485" lon="12.46659"><ele>785.0</ele><time>2026-04-26T12:51:23.036Z</time></trkpt><trkpt lat="46.5195885" lon="12.4666961"><ele>785.0</ele><time>2026-04-26T12:51:24.041Z</time></trkpt><trkpt lat="46.5196782" lon="12.4668118"><ele>785.0</ele><time>2026-04-26T12:51:25.039Z</time></trkpt><trkpt lat="46.5197559" lon="12.4669233"><ele>785.0</ele><time>2026-04-26T12:51:26.038Z</time></trkpt><trkpt lat="46.5198231" lon="12.4670177"><ele>785.0</ele><time>2026-04-26T12:51:27.038Z</time></trkpt><trkpt lat="46.5198822" lon="12.4670893"><ele>785.0</ele><time>2026-04-26T12:51:28.038Z</time></trkpt><trkpt lat="46.5199381" lon="12.4671424"><ele>785.0000000000001</ele><time>2026-04-26T12:51:29.036Z</time></trkpt><trkpt lat="46.520002" lon="12.467209"><ele>785.0</ele><time>2026-04-26T12:51:31.038Z</time></trkpt><trkpt lat="46.5199192" lon="12.4671358"><ele>785.0</ele><time>2026-04-26T12:51:35.036Z</time></trkpt><trkpt lat="46.519861" lon="12.467084"><ele>785.0</ele><time>2026-04-26T12:51:36.041Z</time></trkpt><trkpt lat="46.5197975" lon="12.46704"><ele>785.0000000000001</ele><time>2026-04-26T12:51:37.039Z</time></trkpt><trkpt lat="46.5196976" lon="12.4669981"><ele>785.0</ele><time>2026-04-26T12:51:39.039Z</time></trkpt><trkpt lat="46.5196758" lon="12.4670943"><ele>789.6666666666667</ele><time>2026-04-26T12:51:41.039Z</time></trkpt><trkpt lat="46.5196982" lon="12.4671822"><ele>794.3333333333334</ele><time>2026-04-26T12:51:42.043Z</time></trkpt><trkpt lat="46.5197376" lon="12.4672729"><ele>799.0</ele><time>2026-04-26T12:51:43.041Z</time></trkpt><trkpt lat="46.5198046" lon="12.4673503"><ele>803.6666666666667</ele><time>2026-04-26T12:51:44.04Z</time></trkpt><trkpt lat="46.5198721" lon="12.4674118"><ele>808.3333333333334</ele><time>2026-04-26T12:51:45.039Z</time></trkpt><trkpt lat="46.5199579" lon="12.4674768"><ele>813.0</ele><time>2026-04-26T12:51:46.036Z</time></trkpt><trkpt lat="46.520038" lon="12.4675247"><ele>813.0</ele><time>2026-04-26T12:51:47.039Z</time></trkpt><trkpt lat="46.5201112" lon="12.4675583"><ele>813.0</ele><time>2026-04-26T12:51:48.04Z</time></trkpt><trkpt lat="46.5201806" lon="12.4675964"><ele>813.0</ele><time>2026-04-26T12:51:49.036Z</time></trkpt><trkpt lat="46.5202476" lon="12.4676481"><ele>813.0</ele><time>2026-04-26T12:51:50.039Z</time></trkpt><trkpt lat="46.5203079" lon="12.4677108"><ele>813.0</ele><time>2026-04-26T12:51:51.039Z</time></trkpt><trkpt lat="46.5203644" lon="12.4677705"><ele>813.0</ele><time>2026-04-26T12:51:52.038Z</time></trkpt><trkpt lat="46.5204238" lon="12.4678176"><ele>813.0</ele><time>2026-04-26T12:51:53.039Z</time></trkpt><trkpt lat="46.5204828" lon="12.467858"><ele>811.0</ele><time>2026-04-26T12:51:54.04Z</time></trkpt><trkpt lat="46.52059" lon="12.4679293"><ele>809.0</ele><time>2026-04-26T12:51:56.039Z</time></trkpt><trkpt lat="46.5206158" lon="12.468047"><ele>807.0</ele><time>2026-04-26T12:51:58.038Z</time></trkpt><trkpt lat="46.5205734" lon="12.4682002"><ele>805.0</ele><time>2026-04-26T12:52:00.038Z</time></trkpt><trkpt lat="46.5205466" lon="12.4682912"><ele>803.0</ele><time>2026-04-26T12:52:01.041Z</time></trkpt><trkpt lat="46.5205336" lon="12.4683986"><ele>806.5000000000001</ele><time>2026-04-26T12:52:02.038Z</time></trkpt><trkpt lat="46.5205166" lon="12.4685101"><ele>810.0</ele><time>2026-04-26T12:52:03.039Z</time></trkpt><trkpt lat="46.5205225" lon="12.4686324"><ele>813.5</ele><time>2026-04-26T12:52:04.038Z</time></trkpt><trkpt lat="46.5205415" lon="12.4687513"><ele>817.0</ele><time>2026-04-26T12:52:05.039Z</time></trkpt><trkpt lat="46.520565" lon="12.4688654"><ele>820.5000000000001</ele><time>2026-04-26T12:52:06.04Z</time></trkpt><trkpt lat="46.520596" lon="12.4689845"><ele>824.0</ele><time>2026-04-26T12:52:07.039Z</time></trkpt><trkpt lat="46.5206324" lon="12.4691046"><ele>825.6666666666667</ele><time>2026-04-26T12:52:08.035Z</time></trkpt><trkpt lat="46.5206764" lon="12.4692263"><ele>827.3333333333334</ele><time>2026-04-26T12:52:09.038Z</time></trkpt><trkpt lat="46.5207274" lon="12.4693389"><ele>829.0</ele><time>2026-04-26T12:52:10.035Z</time></trkpt><trkpt lat="46.5207795" lon="12.4694384"><ele>830.6666666666667</ele><time>2026-04-26T12:52:11.039Z</time></trkpt><trkpt lat="46.5208401" lon="12.4695291"><ele>832.3333333333334</ele><time>2026-04-26T12:52:12.04Z</time></trkpt><trkpt lat="46.5209094" lon="12.4696017"><ele>834.0</ele><time>2026-04-26T12:52:13.039Z</time></trkpt><trkpt lat="46.5209806" lon="12.4696564"><ele>836.8000000000001</ele><time>2026-04-26T12:52:14.037Z</time></trkpt><trkpt lat="46.5210546" lon="12.4696908"><ele>839.6</ele><time>2026-04-26T12:52:15.039Z</time></trkpt><trkpt lat="46.5211238" lon="12.4697067"><ele>842.4</ele><time>2026-04-26T12:52:16.038Z</time></trkpt><trkpt lat="46.5212425" lon="12.4696794"><ele>845.2</ele><time>2026-04-26T12:52:18.039Z</time></trkpt><trkpt lat="46.5213582" lon="12.4696648"><ele>848.0</ele><time>2026-04-26T12:52:20.036Z</time></trkpt><trkpt lat="46.5214837" lon="12.4696462"><ele>848.0000000000001</ele><time>2026-04-26T12:52:22.038Z</time></trkpt><trkpt lat="46.5215559" lon="12.4696429"><ele>848.0</ele><time>2026-04-26T12:52:23.038Z</time></trkpt><trkpt lat="46.5216389" lon="12.46962"><ele>848.0</ele><time>2026-04-26T12:52:24.039Z</time></trkpt><trkpt lat="46.5217284" lon="12.4695968"><ele>848.0</ele><time>2026-04-26T12:52:25.035Z</time></trkpt><trkpt lat="46.5218236" lon="12.4695676"><ele>848.0000000000001</ele><time>2026-04-26T12:52:26.038Z</time></trkpt><trkpt lat="46.5219259" lon="12.469551"><ele>848.0</ele><time>2026-04-26T12:52:27.039Z</time></trkpt><trkpt lat="46.522026" lon="12.4695451"><ele>846.3333333333334</ele><time>2026-04-26T12:52:28.036Z</time></trkpt><trkpt lat="46.5221215" lon="12.4695448"><ele>844.6666666666667</ele><time>2026-04-26T12:52:29.039Z</time></trkpt><trkpt lat="46.5222129" lon="12.4695556"><ele>843.0</ele><time>2026-04-26T12:52:30.039Z</time></trkpt><trkpt lat="46.5222992" lon="12.4695603"><ele>841.3333333333333</ele><time>2026-04-26T12:52:31.04Z</time></trkpt><trkpt lat="46.5223865" lon="12.4695615"><ele>839.6666666666666</ele><time>2026-04-26T12:52:32.038Z</time></trkpt><trkpt lat="46.5224744" lon="12.4695569"><ele>838.0</ele><time>2026-04-26T12:52:33.039Z</time></trkpt><trkpt lat="46.5225625" lon="12.469557"><ele>837.9999999999999</ele><time>2026-04-26T12:52:34.039Z</time></trkpt><trkpt lat="46.5226592" lon="12.4695588"><ele>838.0</ele><time>2026-04-26T12:52:35.037Z</time></trkpt><trkpt lat="46.5227485" lon="12.4695594"><ele>838.0</ele><time>2026-04-26T12:52:36.04Z</time></trkpt><trkpt lat="46.5228342" lon="12.4695648"><ele>838.0</ele><time>2026-04-26T12:52:37.038Z</time></trkpt><trkpt lat="46.5229167" lon="12.4695742"><ele>837.9999999999999</ele><time>2026-04-26T12:52:38.035Z</time></trkpt><trkpt lat="46.5229981" lon="12.4695894"><ele>838.0</ele><time>2026-04-26T12:52:39.035Z</time></trkpt><trkpt lat="46.5230798" lon="12.4696181"><ele>841.4</ele><time>2026-04-26T12:52:40.038Z</time></trkpt><trkpt lat="46.5231688" lon="12.4696649"><ele>844.8</ele><time>2026-04-26T12:52:41.039Z</time></trkpt><trkpt lat="46.523255" lon="12.4697283"><ele>848.2</ele><time>2026-04-26T12:52:42.039Z</time></trkpt><trkpt lat="46.523335" lon="12.4697817"><ele>851.6</ele><time>2026-04-26T12:52:43.038Z</time></trkpt><trkpt lat="46.52342" lon="12.469835"><ele>855.0</ele><time>2026-04-26T12:52:44.038Z</time></trkpt><trkpt lat="46.52351" lon="12.46986"><ele>855.0</ele><time>2026-04-26T12:52:45.038Z</time></trkpt><trkpt lat="46.5236017" lon="12.4698983"><ele>855.0</ele><time>2026-04-26T12:52:46.039Z</time></trkpt><trkpt lat="46.5236983" lon="12.4699167"><ele>855.0</ele><time>2026-04-26T12:52:47.04Z</time></trkpt><trkpt lat="46.5237767" lon="12.4699467"><ele>855.0</ele><time>2026-04-26T12:52:48.041Z</time></trkpt><trkpt lat="46.5238517" lon="12.4699817"><ele>855.0</ele><time>2026-04-26T12:52:49.038Z</time></trkpt><trkpt lat="46.5239217" lon="12.47002"><ele>855.0</ele><time>2026-04-26T12:52:50.038Z</time></trkpt><trkpt lat="46.52399" lon="12.4700883"><ele>855.8333333333334</ele><time>2026-04-26T12:52:51.039Z</time></trkpt><trkpt lat="46.5240533" lon="12.4701583"><ele>856.6666666666667</ele><time>2026-04-26T12:52:52.038Z</time></trkpt><trkpt lat="46.5241167" lon="12.470245"><ele>857.5</ele><time>2026-04-26T12:52:53.04Z</time></trkpt><trkpt lat="46.5241817" lon="12.4703233"><ele>858.3333333333334</ele><time>2026-04-26T12:52:54.04Z</time></trkpt><trkpt lat="46.5242483" lon="12.4703933"><ele>859.1666666666667</ele><time>2026-04-26T12:52:55.04Z</time></trkpt><trkpt lat="46.5243167" lon="12.47047"><ele>860.0</ele><time>2026-04-26T12:52:56.037Z</time></trkpt><trkpt lat="46.5243867" lon="12.4705333"><ele>861.3333333333334</ele><time>2026-04-26T12:52:57.035Z</time></trkpt><trkpt lat="46.5244583" lon="12.4706033"><ele>862.6666666666667</ele><time>2026-04-26T12:52:58.036Z</time></trkpt><trkpt lat="46.52453" lon="12.4706767"><ele>864.0</ele><time>2026-04-26T12:52:59.04Z</time></trkpt><trkpt lat="46.524595" lon="12.4707483"><ele>865.3333333333333</ele><time>2026-04-26T12:53:00.04Z</time></trkpt><trkpt lat="46.524655" lon="12.4708183"><ele>866.6666666666666</ele><time>2026-04-26T12:53:01.04Z</time></trkpt><trkpt lat="46.5246983" lon="12.47089"><ele>868.0</ele><time>2026-04-26T12:53:02.039Z</time></trkpt><trkpt lat="46.5247383" lon="12.4709633"><ele>868.0</ele><time>2026-04-26T12:53:03.04Z</time></trkpt><trkpt lat="46.5248267" lon="12.4711083"><ele>868.0</ele><time>2026-04-26T12:53:05.036Z</time></trkpt><trkpt lat="46.5248867" lon="12.4711817"><ele>868.0</ele><time>2026-04-26T12:53:06.039Z</time></trkpt><trkpt lat="46.5249417" lon="12.4712533"><ele>868.0</ele><time>2026-04-26T12:53:07.036Z</time></trkpt><trkpt lat="46.5249917" lon="12.4713117"><ele>868.0</ele><time>2026-04-26T12:53:08.037Z</time></trkpt><trkpt lat="46.5250817" lon="12.4714"><ele>870.2</ele><time>2026-04-26T12:53:10.038Z</time></trkpt><trkpt lat="46.5251817" lon="12.4714717"><ele>872.4</ele><time>2026-04-26T12:53:12.039Z</time></trkpt><trkpt lat="46.5252717" lon="12.4715283"><ele>874.6000000000001</ele><time>2026-04-26T12:53:14.04Z</time></trkpt><trkpt lat="46.525375" lon="12.47161"><ele>876.8000000000001</ele><time>2026-04-26T12:53:16.036Z</time></trkpt><trkpt lat="46.525475" lon="12.4716867"><ele>879.0</ele><time>2026-04-26T12:53:18.041Z</time></trkpt><trkpt lat="46.5255617" lon="12.47179"><ele>880.6666666666666</ele><time>2026-04-26T12:53:20.039Z</time></trkpt><trkpt lat="46.525625" lon="12.4718917"><ele>882.3333333333333</ele><time>2026-04-26T12:53:22.037Z</time></trkpt><trkpt lat="46.52567" lon="12.4719833"><ele>884.0</ele><time>2026-04-26T12:53:24.039Z</time></trkpt><trkpt lat="46.5257083" lon="12.4720983"><ele>885.6666666666666</ele><time>2026-04-26T12:53:26.037Z</time></trkpt><trkpt lat="46.52574" lon="12.472215"><ele>887.3333333333333</ele><time>2026-04-26T12:53:28.035Z</time></trkpt><trkpt lat="46.52576" lon="12.4723417"><ele>889.0</ele><time>2026-04-26T12:53:30.039Z</time></trkpt><trkpt lat="46.5257833" lon="12.4724883"><ele>891.8000000000001</ele><time>2026-04-26T12:53:32.038Z</time></trkpt><trkpt lat="46.5258167" lon="12.4726267"><ele>894.6000000000001</ele><time>2026-04-26T12:53:34.037Z</time></trkpt><trkpt lat="46.52587" lon="12.4727583"><ele>897.4</ele><time>2026-04-26T12:53:36.04Z</time></trkpt><trkpt lat="46.52592" lon="12.47288"><ele>900.2</ele><time>2026-04-26T12:53:38.038Z</time></trkpt><trkpt lat="46.5259617" lon="12.47301"><ele>903.0</ele><time>2026-04-26T12:53:40.039Z</time></trkpt><trkpt lat="46.5260083" lon="12.47313"><ele>904.4</ele><time>2026-04-26T12:53:42.039Z</time></trkpt><trkpt lat="46.5260583" lon="12.4732367"><ele>905.8</ele><time>2026-04-26T12:53:44.037Z</time></trkpt><trkpt lat="46.5261167" lon="12.4733483"><ele>907.2</ele><time>2026-04-26T12:53:46.039Z</time></trkpt><trkpt lat="46.5261833" lon="12.4734467"><ele>908.6</ele><time>2026-04-26T12:53:48.04Z</time></trkpt><trkpt lat="46.5262667" lon="12.473515"><ele>910.0</ele><time>2026-04-26T12:53:50.036Z</time></trkpt><trkpt lat="46.526355" lon="12.47354"><ele>913.3333333333333</ele><time>2026-04-26T12:53:52.039Z</time></trkpt><trkpt lat="46.5264267" lon="12.4735367"><ele>916.6666666666666</ele><time>2026-04-26T12:53:54.039Z</time></trkpt><trkpt lat="46.5264933" lon="12.47355"><ele>920.0</ele><time>2026-04-26T12:53:56.037Z</time></trkpt><trkpt lat="46.526565" lon="12.47362"><ele>923.3333333333333</ele><time>2026-04-26T12:53:58.036Z</time></trkpt><trkpt lat="46.526645" lon="12.473715"><ele>926.6666666666666</ele><time>2026-04-26T12:54:00.039Z</time></trkpt><trkpt lat="46.5267217" lon="12.4737683"><ele>930.0</ele><time>2026-04-26T12:54:02.034Z</time></trkpt><trkpt lat="46.5268067" lon="12.4737717"><ele>930.0</ele><time>2026-04-26T12:54:04.038Z</time></trkpt><trkpt lat="46.5268933" lon="12.47374"><ele>930.0</ele><time>2026-04-26T12:54:06.039Z</time></trkpt><trkpt lat="46.5269683" lon="12.473665"><ele>930.0</ele><time>2026-04-26T12:54:08.039Z</time></trkpt><trkpt lat="46.527035" lon="12.47359"><ele>930.0</ele><time>2026-04-26T12:54:10.036Z</time></trkpt><trkpt lat="46.5271133" lon="12.47352"><ele>930.0</ele><time>2026-04-26T12:54:12.038Z</time></trkpt><trkpt lat="46.5272017" lon="12.4734017"><ele>936.0</ele><time>2026-04-26T12:54:14.036Z</time></trkpt><trkpt lat="46.5272983" lon="12.4733517"><ele>942.0</ele><time>2026-04-26T12:54:16.04Z</time></trkpt><trkpt lat="46.5273983" lon="12.47329"><ele>948.0</ele><time>2026-04-26T12:54:18.041Z</time></trkpt><trkpt lat="46.527485" lon="12.4732183"><ele>954.0</ele><time>2026-04-26T12:54:20.038Z</time></trkpt><trkpt lat="46.5275517" lon="12.4731433"><ele>960.0</ele><time>2026-04-26T12:54:22.035Z</time></trkpt><trkpt lat="46.527615" lon="12.4730667"><ele>960.0</ele><time>2026-04-26T12:54:24.04Z</time></trkpt><trkpt lat="46.527695" lon="12.4730133"><ele>960.0</ele><time>2026-04-26T12:54:26.037Z</time></trkpt><trkpt lat="46.5277883" lon="12.4729883"><ele>960.0</ele><time>2026-04-26T12:54:28.037Z</time></trkpt><trkpt lat="46.52788" lon="12.472945"><ele>960.0</ele><time>2026-04-26T12:54:30.036Z</time></trkpt><trkpt lat="46.5279667" lon="12.4729033"><ele>960.0</ele><time>2026-04-26T12:54:32.035Z</time></trkpt><trkpt lat="46.5280483" lon="12.472885"><ele>962.0</ele><time>2026-04-26T12:54:34.034Z</time></trkpt><trkpt lat="46.5281133" lon="12.47293"><ele>964.0</ele><time>2026-04-26T12:54:36.037Z</time></trkpt><trkpt lat="46.5281417" lon="12.4730333"><ele>966.0</ele><time>2026-04-26T12:54:38.036Z</time></trkpt><trkpt lat="46.5281233" lon="12.4731583"><ele>968.0</ele><time>2026-04-26T12:54:40.038Z</time></trkpt><trkpt lat="46.5281017" lon="12.47331"><ele>970.0</ele><time>2026-04-26T12:54:42.038Z</time></trkpt><trkpt lat="46.528075" lon="12.4734333"><ele>972.0</ele><time>2026-04-26T12:54:44.037Z</time></trkpt><trkpt lat="46.5280267" lon="12.4735333"><ele>974.0</ele><time>2026-04-26T12:54:46.039Z</time></trkpt><trkpt lat="46.527965" lon="12.473635"><ele>976.0</ele><time>2026-04-26T12:54:48.039Z</time></trkpt><trkpt lat="46.527935" lon="12.47375"><ele>978.0</ele><time>2026-04-26T12:54:50.039Z</time></trkpt><trkpt lat="46.5279467" lon="12.4738417"><ele>980.0</ele><time>2026-04-26T12:54:52.035Z</time></trkpt><trkpt lat="46.5279983" lon="12.4739083"><ele>982.0</ele><time>2026-04-26T12:54:54.039Z</time></trkpt><trkpt lat="46.5280733" lon="12.473935"><ele>984.0</ele><time>2026-04-26T12:54:56.038Z</time></trkpt><trkpt lat="46.5281517" lon="12.4739283"><ele>986.0</ele><time>2026-04-26T12:54:58.028Z</time></trkpt><trkpt lat="46.5282333" lon="12.4739317"><ele>988.0000000000001</ele><time>2026-04-26T12:55:00.03Z</time></trkpt><trkpt lat="46.5283433" lon="12.473915"><ele>990.0000000000001</ele><time>2026-04-26T12:55:02.03Z</time></trkpt><trkpt lat="46.528455" lon="12.4738733"><ele>992.0</ele><time>2026-04-26T12:55:04.029Z</time></trkpt><trkpt lat="46.5285617" lon="12.473845"><ele>994.0</ele><time>2026-04-26T12:55:06.03Z</time></trkpt><trkpt lat="46.5286567" lon="12.473855"><ele>995.4999999999999</ele><time>2026-04-26T12:55:08.037Z</time></trkpt><trkpt lat="46.5287483" lon="12.47388"><ele>997.0</ele><time>2026-04-26T12:55:10.039Z</time></trkpt><trkpt lat="46.5288133" lon="12.473885"><ele>998.5</ele><time>2026-04-26T12:55:12.038Z</time></trkpt><trkpt lat="46.5288917" lon="12.4738483"><ele>1000.0</ele><time>2026-04-26T12:55:15.036Z</time></trkpt><trkpt lat="46.5289467" lon="12.4737883"><ele>1001.4999999999999</ele><time>2026-04-26T12:55:17.039Z</time></trkpt><trkpt lat="46.529025" lon="12.4737383"><ele>1003.0</ele><time>2026-04-26T12:55:19.038Z</time></trkpt><trkpt lat="46.5291467" lon="12.4737133"><ele>1003.0</ele><time>2026-04-26T12:55:21.038Z</time></trkpt><trkpt lat="46.5292517" lon="12.4736217"><ele>1003.0</ele><time>2026-04-26T12:55:23.038Z</time></trkpt><trkpt lat="46.5293" lon="12.4735383"><ele>1003.0</ele><time>2026-04-26T12:55:24.038Z</time></trkpt><trkpt lat="46.5293467" lon="12.47345"><ele>1003.0</ele><time>2026-04-26T12:55:25.038Z</time></trkpt><trkpt lat="46.5294067" lon="12.4733433"><ele>1003.0</ele><time>2026-04-26T12:55:26.038Z</time></trkpt><trkpt lat="46.52947" lon="12.4732267"><ele>1002.9999999999999</ele><time>2026-04-26T12:55:27.035Z</time></trkpt><trkpt lat="46.5295233" lon="12.4731333"><ele>1003.0</ele><time>2026-04-26T12:55:28.039Z</time></trkpt><trkpt lat="46.5295717" lon="12.4730583"><ele>1003.0</ele><time>2026-04-26T12:55:29.04Z</time></trkpt><trkpt lat="46.5296633" lon="12.4729917"><ele>1003.0</ele><time>2026-04-26T12:55:31.039Z</time></trkpt><trkpt lat="46.5297683" lon="12.473005"><ele>1002.9999999999999</ele><time>2026-04-26T12:55:33.039Z</time></trkpt><trkpt lat="46.5298333" lon="12.4730217"><ele>1003.0</ele><time>2026-04-26T12:55:34.038Z</time></trkpt><trkpt lat="46.5299033" lon="12.47305"><ele>1004.6666666666666</ele><time>2026-04-26T12:55:35.037Z</time></trkpt><trkpt lat="46.5299767" lon="12.473085"><ele>1006.3333333333333</ele><time>2026-04-26T12:55:36.039Z</time></trkpt><trkpt lat="46.5300483" lon="12.473115"><ele>1008.0</ele><time>2026-04-26T12:55:37.039Z</time></trkpt><trkpt lat="46.5301167" lon="12.4731367"><ele>1009.6666666666667</ele><time>2026-04-26T12:55:38.038Z</time></trkpt><trkpt lat="46.530195" lon="12.47315"><ele>1011.3333333333334</ele><time>2026-04-26T12:55:39.036Z</time></trkpt><trkpt lat="46.5302783" lon="12.4731533"><ele>1013.0</ele><time>2026-04-26T12:55:40.039Z</time></trkpt><trkpt lat="46.5303633" lon="12.4731667"><ele>1013.0000000000001</ele><time>2026-04-26T12:55:41.037Z</time></trkpt><trkpt lat="46.530445" lon="12.4731933"><ele>1013.0</ele><time>2026-04-26T12:55:42.039Z</time></trkpt><trkpt lat="46.53051" lon="12.4732133"><ele>1013.0</ele><time>2026-04-26T12:55:43.039Z</time></trkpt><trkpt lat="46.5305817" lon="12.473255"><ele>1013.0</ele><time>2026-04-26T12:55:45.038Z</time></trkpt><trkpt lat="46.530525" lon="12.4732033"><ele>1013.0000000000001</ele><time>2026-04-26T12:55:52.039Z</time></trkpt><trkpt lat="46.530445" lon="12.4731517"><ele>1013.0</ele><time>2026-04-26T12:55:54.041Z</time></trkpt><trkpt lat="46.530325" lon="12.473115"><ele>1013.0</ele><time>2026-04-26T12:55:56.038Z</time></trkpt><trkpt lat="46.5302517" lon="12.4730917"><ele>1013.0</ele><time>2026-04-26T12:55:57.04Z</time></trkpt><trkpt lat="46.5300167" lon="12.4729967"><ele>1013.0</ele><time>2026-04-26T12:55:58.04Z</time></trkpt><trkpt lat="46.5298783" lon="12.4729483"><ele>1011.0</ele><time>2026-04-26T12:55:59.039Z</time></trkpt><trkpt lat="46.5297617" lon="12.4729167"><ele>1009.0</ele><time>2026-04-26T12:56:00.039Z</time></trkpt><trkpt lat="46.5296583" lon="12.472905"><ele>1007.0</ele><time>2026-04-26T12:56:01.04Z</time></trkpt><trkpt lat="46.5295733" lon="12.4729083"><ele>1005.0</ele><time>2026-04-26T12:56:02.035Z</time></trkpt><trkpt lat="46.5294967" lon="12.4729383"><ele>1003.0</ele><time>2026-04-26T12:56:03.038Z</time></trkpt><trkpt lat="46.5294017" lon="12.4730683"><ele>1002.9999999999999</ele><time>2026-04-26T12:56:05.04Z</time></trkpt><trkpt lat="46.5293533" lon="12.4731467"><ele>1003.0</ele><time>2026-04-26T12:56:06.04Z</time></trkpt><trkpt lat="46.5292967" lon="12.4732267"><ele>1003.0</ele><time>2026-04-26T12:56:07.036Z</time></trkpt><trkpt lat="46.5292467" lon="12.4733067"><ele>1003.0</ele><time>2026-04-26T12:56:08.036Z</time></trkpt><trkpt lat="46.5292017" lon="12.4733883"><ele>1002.9999999999999</ele><time>2026-04-26T12:56:09.039Z</time></trkpt><trkpt lat="46.5291633" lon="12.473465"><ele>1003.0</ele><time>2026-04-26T12:56:10.038Z</time></trkpt><trkpt lat="46.5290717" lon="12.4735667"><ele>1002.9999999999999</ele><time>2026-04-26T12:56:12.04Z</time></trkpt><trkpt lat="46.5289817" lon="12.47358"><ele>1003.0</ele><time>2026-04-26T12:56:14.037Z</time></trkpt><trkpt lat="46.528885" lon="12.47359"><ele>1003.0</ele><time>2026-04-26T12:56:16.039Z</time></trkpt><trkpt lat="46.5287983" lon="12.4736183"><ele>1003.0</ele><time>2026-04-26T12:56:18.039Z</time></trkpt><trkpt lat="46.5287383" lon="12.47366"><ele>1002.9999999999999</ele><time>2026-04-26T12:56:21.039Z</time></trkpt><trkpt lat="46.5287833" lon="12.4737383"><ele>1003.0</ele><time>2026-04-26T12:56:23.038Z</time></trkpt><trkpt lat="46.52887" lon="12.4738017"><ele>1004.1666666666666</ele><time>2026-04-26T12:56:25.039Z</time></trkpt><trkpt lat="46.5289717" lon="12.4739067"><ele>1005.3333333333333</ele><time>2026-04-26T12:56:27.038Z</time></trkpt><trkpt lat="46.5290267" lon="12.4739867"><ele>1006.5</ele><time>2026-04-26T12:56:28.038Z</time></trkpt><trkpt lat="46.52908" lon="12.47404"><ele>1007.6666666666667</ele><time>2026-04-26T12:56:29.036Z</time></trkpt><trkpt lat="46.529135" lon="12.4740883"><ele>1008.8333333333334</ele><time>2026-04-26T12:56:30.039Z</time></trkpt><trkpt lat="46.5292333" lon="12.474175"><ele>1010.0</ele><time>2026-04-26T12:56:32.037Z</time></trkpt><trkpt lat="46.5293317" lon="12.4742667"><ele>1010.0</ele><time>2026-04-26T12:56:34.039Z</time></trkpt><trkpt lat="46.52942" lon="12.4743483"><ele>1010.0</ele><time>2026-04-26T12:56:36.039Z</time></trkpt><trkpt lat="46.5295067" lon="12.47441"><ele>1010.0</ele><time>2026-04-26T12:56:38.037Z</time></trkpt><trkpt lat="46.529585" lon="12.47448"><ele>1010.0</ele><time>2026-04-26T12:56:40.04Z</time></trkpt><trkpt lat="46.5296633" lon="12.4745433"><ele>1010.0</ele><time>2026-04-26T12:56:42.042Z</time></trkpt><trkpt lat="46.5297367" lon="12.4745883"><ele>1013.8333333333334</ele><time>2026-04-26T12:56:44.039Z</time></trkpt><trkpt lat="46.5298067" lon="12.4746383"><ele>1017.6666666666667</ele><time>2026-04-26T12:56:46.038Z</time></trkpt><trkpt lat="46.5298717" lon="12.4746983"><ele>1021.5</ele><time>2026-04-26T12:56:48.039Z</time></trkpt><trkpt lat="46.5299383" lon="12.4747717"><ele>1025.3333333333333</ele><time>2026-04-26T12:56:50.039Z</time></trkpt><trkpt lat="46.5300183" lon="12.47484"><ele>1029.1666666666665</ele><time>2026-04-26T12:56:52.038Z</time></trkpt><trkpt lat="46.5301" lon="12.474885"><ele>1033.0</ele><time>2026-04-26T12:56:54.04Z</time></trkpt><trkpt lat="46.5301867" lon="12.474935"><ele>1033.0</ele><time>2026-04-26T12:56:56.039Z</time></trkpt><trkpt lat="46.5302417" lon="12.4749817"><ele>1033.0</ele><time>2026-04-26T12:56:57.038Z</time></trkpt><trkpt lat="46.5303333" lon="12.4751067"><ele>1033.0</ele><time>2026-04-26T12:56:59.036Z</time></trkpt><trkpt lat="46.530415" lon="12.4752467"><ele>1033.0</ele><time>2026-04-26T12:57:01.039Z</time></trkpt><trkpt lat="46.5304967" lon="12.475355"><ele>1033.0</ele><time>2026-04-26T12:57:03.035Z</time></trkpt><trkpt lat="46.530575" lon="12.4754533"><ele>1037.4</ele><time>2026-04-26T12:57:05.038Z</time></trkpt><trkpt lat="46.5306483" lon="12.4755467"><ele>1041.8</ele><time>2026-04-26T12:57:07.037Z</time></trkpt><trkpt lat="46.5307283" lon="12.47565"><ele>1046.2</ele><time>2026-04-26T12:57:09.039Z</time></trkpt><trkpt lat="46.5308167" lon="12.4757633"><ele>1050.6</ele><time>2026-04-26T12:57:11.04Z</time></trkpt><trkpt lat="46.5308983" lon="12.475875"><ele>1055.0</ele><time>2026-04-26T12:57:13.039Z</time></trkpt><trkpt lat="46.530965" lon="12.4759867"><ele>1055.0</ele><time>2026-04-26T12:57:15.04Z</time></trkpt><trkpt lat="46.5310217" lon="12.4760917"><ele>1055.0</ele><time>2026-04-26T12:57:17.035Z</time></trkpt><trkpt lat="46.5310733" lon="12.476215"><ele>1055.0</ele><time>2026-04-26T12:57:19.037Z</time></trkpt><trkpt lat="46.5311283" lon="12.47633"><ele>1055.0</ele><time>2026-04-26T12:57:21.038Z</time></trkpt><trkpt lat="46.5311883" lon="12.4764417"><ele>1055.0</ele><time>2026-04-26T12:57:23.037Z</time></trkpt><trkpt lat="46.53126" lon="12.4765317"><ele>1058.4</ele><time>2026-04-26T12:57:25.042Z</time></trkpt><trkpt lat="46.531355" lon="12.4766117"><ele>1061.8</ele><time>2026-04-26T12:57:27.04Z</time></trkpt><trkpt lat="46.531455" lon="12.4766783"><ele>1065.2</ele><time>2026-04-26T12:57:29.038Z</time></trkpt><trkpt lat="46.5315417" lon="12.47674"><ele>1068.6</ele><time>2026-04-26T12:57:31.039Z</time></trkpt><trkpt lat="46.5316267" lon="12.4767867"><ele>1072.0</ele><time>2026-04-26T12:57:33.038Z</time></trkpt><trkpt lat="46.5317167" lon="12.47683"><ele>1072.0</ele><time>2026-04-26T12:57:35.039Z</time></trkpt><trkpt lat="46.531825" lon="12.4769033"><ele>1072.0</ele><time>2026-04-26T12:57:37.037Z</time></trkpt><trkpt lat="46.5318817" lon="12.4769467"><ele>1072.0</ele><time>2026-04-26T12:57:38.04Z</time></trkpt><trkpt lat="46.5319383" lon="12.4769883"><ele>1072.0</ele><time>2026-04-26T12:57:39.038Z</time></trkpt><trkpt lat="46.532" lon="12.4770283"><ele>1072.0</ele><time>2026-04-26T12:57:40.04Z</time></trkpt><trkpt lat="46.532055" lon="12.4770767"><ele>1072.0</ele><time>2026-04-26T12:57:41.035Z</time></trkpt><trkpt lat="46.5321183" lon="12.4771267"><ele>1073.6666666666665</ele><time>2026-04-26T12:57:42.038Z</time></trkpt><trkpt lat="46.53218" lon="12.477185"><ele>1075.3333333333333</ele><time>2026-04-26T12:57:43.038Z</time></trkpt><trkpt lat="46.5322433" lon="12.4772533"><ele>1077.0</ele><time>2026-04-26T12:57:44.039Z</time></trkpt><trkpt lat="46.53231" lon="12.4773233"><ele>1078.6666666666667</ele><time>2026-04-26T12:57:45.039Z</time></trkpt><trkpt lat="46.5323783" lon="12.4773933"><ele>1080.3333333333335</ele><time>2026-04-26T12:57:46.038Z</time></trkpt><trkpt lat="46.532435" lon="12.4774717"><ele>1082.0</ele><time>2026-04-26T12:57:47.039Z</time></trkpt><trkpt lat="46.5324867" lon="12.477555"><ele>1082.0000000000002</ele><time>2026-04-26T12:57:48.04Z</time></trkpt><trkpt lat="46.5325417" lon="12.4776367"><ele>1082.0</ele><time>2026-04-26T12:57:49.039Z</time></trkpt><trkpt lat="46.5325933" lon="12.4776917"><ele>1082.0</ele><time>2026-04-26T12:57:50.039Z</time></trkpt><trkpt lat="46.532655" lon="12.4777317"><ele>1082.0</ele><time>2026-04-26T12:57:51.042Z</time></trkpt><trkpt lat="46.532725" lon="12.477765"><ele>1082.0</ele><time>2026-04-26T12:57:52.039Z</time></trkpt><trkpt lat="46.5327967" lon="12.4777817"><ele>1082.0000000000002</ele><time>2026-04-26T12:57:53.04Z</time></trkpt><trkpt lat="46.5328783" lon="12.477775"><ele>1082.0</ele><time>2026-04-26T12:57:54.039Z</time></trkpt><trkpt lat="46.5329567" lon="12.477775"><ele>1083.4285714285716</ele><time>2026-04-26T12:57:55.039Z</time></trkpt><trkpt lat="46.5330283" lon="12.477785"><ele>1084.857142857143</ele><time>2026-04-26T12:57:56.039Z</time></trkpt><trkpt lat="46.5330983" lon="12.4778033"><ele>1086.2857142857142</ele><time>2026-04-26T12:57:57.039Z</time></trkpt><trkpt lat="46.5331717" lon="12.4778317"><ele>1087.7142857142858</ele><time>2026-04-26T12:57:58.039Z</time></trkpt><trkpt lat="46.5332383" lon="12.4778783"><ele>1089.142857142857</ele><time>2026-04-26T12:57:59.036Z</time></trkpt><trkpt lat="46.5333017" lon="12.4779417"><ele>1090.5714285714287</ele><time>2026-04-26T12:58:00.042Z</time></trkpt><trkpt lat="46.533365" lon="12.4780067"><ele>1092.0</ele><time>2026-04-26T12:58:01.038Z</time></trkpt><trkpt lat="46.5334367" lon="12.4780783"><ele>1092.0</ele><time>2026-04-26T12:58:02.037Z</time></trkpt><trkpt lat="46.5335067" lon="12.478155"><ele>1092.0</ele><time>2026-04-26T12:58:03.039Z</time></trkpt><trkpt lat="46.533575" lon="12.47822"><ele>1092.0</ele><time>2026-04-26T12:58:04.036Z</time></trkpt><trkpt lat="46.5336383" lon="12.47827"><ele>1092.0</ele><time>2026-04-26T12:58:05.035Z</time></trkpt><trkpt lat="46.5337017" lon="12.4782967"><ele>1092.0</ele><time>2026-04-26T12:58:06.041Z</time></trkpt><trkpt lat="46.5338017" lon="12.4782833"><ele>1092.0</ele><time>2026-04-26T12:58:08.038Z</time></trkpt><trkpt lat="46.53389" lon="12.4782533"><ele>1094.2</ele><time>2026-04-26T12:58:10.037Z</time></trkpt><trkpt lat="46.5339667" lon="12.478235"><ele>1096.4</ele><time>2026-04-26T12:58:12.04Z</time></trkpt><trkpt lat="46.5340483" lon="12.47822"><ele>1098.6</ele><time>2026-04-26T12:58:14.039Z</time></trkpt><trkpt lat="46.5341583" lon="12.4782517"><ele>1100.8</ele><time>2026-04-26T12:58:16.04Z</time></trkpt><trkpt lat="46.5342733" lon="12.4782933"><ele>1103.0</ele><time>2026-04-26T12:58:18.04Z</time></trkpt><trkpt lat="46.534345" lon="12.478315"><ele>1103.0</ele><time>2026-04-26T12:58:19.039Z</time></trkpt><trkpt lat="46.534425" lon="12.4783183"><ele>1103.0</ele><time>2026-04-26T12:58:20.04Z</time></trkpt><trkpt lat="46.534545" lon="12.47834"><ele>1103.0</ele><time>2026-04-26T12:58:22.037Z</time></trkpt><trkpt lat="46.53467" lon="12.4783317"><ele>1103.0</ele><time>2026-04-26T12:58:24.039Z</time></trkpt><trkpt lat="46.5347367" lon="12.478325"><ele>1103.0</ele><time>2026-04-26T12:58:25.039Z</time></trkpt><trkpt lat="46.5348033" lon="12.4783167"><ele>1105.1666666666667</ele><time>2026-04-26T12:58:26.035Z</time></trkpt><trkpt lat="46.5348667" lon="12.4783067"><ele>1107.3333333333335</ele><time>2026-04-26T12:58:27.039Z</time></trkpt><trkpt lat="46.53499" lon="12.4783"><ele>1109.5</ele><time>2026-04-26T12:58:29.038Z</time></trkpt><trkpt lat="46.5350983" lon="12.4782617"><ele>1111.6666666666667</ele><time>2026-04-26T12:58:31.04Z</time></trkpt><trkpt lat="46.5351567" lon="12.4781983"><ele>1113.8333333333333</ele><time>2026-04-26T12:58:33.036Z</time></trkpt><trkpt lat="46.5351583" lon="12.4780867"><ele>1116.0</ele><time>2026-04-26T12:58:35.039Z</time></trkpt><trkpt lat="46.5351167" lon="12.477985"><ele>1114.5</ele><time>2026-04-26T12:58:38.038Z</time></trkpt><trkpt lat="46.5350667" lon="12.4779117"><ele>1113.0</ele><time>2026-04-26T12:58:41.04Z</time></trkpt><trkpt lat="46.5350067" lon="12.4778483"><ele>1111.5</ele><time>2026-04-26T12:58:44.038Z</time></trkpt><trkpt lat="46.5349683" lon="12.4777717"><ele>1110.0</ele><time>2026-04-26T12:58:47.039Z</time></trkpt><trkpt lat="46.5349533" lon="12.4776617"><ele>1108.5</ele><time>2026-04-26T12:58:49.04Z</time></trkpt><trkpt lat="46.5349633" lon="12.4775017"><ele>1107.0</ele><time>2026-04-26T12:58:51.04Z</time></trkpt><trkpt lat="46.5349767" lon="12.47741"><ele>1107.0</ele><time>2026-04-26T12:58:52.037Z</time></trkpt><trkpt lat="46.5349933" lon="12.4773183"><ele>1107.0</ele><time>2026-04-26T12:58:53.036Z</time></trkpt><trkpt lat="46.5350267" lon="12.4772267"><ele>1107.0</ele><time>2026-04-26T12:58:54.04Z</time></trkpt><trkpt lat="46.5350967" lon="12.47712"><ele>1107.0</ele><time>2026-04-26T12:58:55.039Z</time></trkpt><trkpt lat="46.535145" lon="12.477015"><ele>1107.0</ele><time>2026-04-26T12:58:56.036Z</time></trkpt><trkpt lat="46.5351867" lon="12.4769"><ele>1107.0</ele><time>2026-04-26T12:58:57.04Z</time></trkpt><trkpt lat="46.53523" lon="12.4767767"><ele>1107.2</ele><time>2026-04-26T12:58:58.036Z</time></trkpt><trkpt lat="46.5352783" lon="12.4766433"><ele>1107.4</ele><time>2026-04-26T12:58:59.036Z</time></trkpt><trkpt lat="46.53534" lon="12.4765417"><ele>1107.6</ele><time>2026-04-26T12:59:00.042Z</time></trkpt><trkpt lat="46.5354033" lon="12.4764633"><ele>1107.8</ele><time>2026-04-26T12:59:01.038Z</time></trkpt><trkpt lat="46.535465" lon="12.47642"><ele>1108.0</ele><time>2026-04-26T12:59:02.039Z</time></trkpt><trkpt lat="46.53556" lon="12.4763467"><ele>1104.6666666666665</ele><time>2026-04-26T12:59:04.038Z</time></trkpt><trkpt lat="46.5356333" lon="12.47626"><ele>1101.3333333333333</ele><time>2026-04-26T12:59:06.037Z</time></trkpt><trkpt lat="46.5356967" lon="12.4761633"><ele>1098.0</ele><time>2026-04-26T12:59:08.037Z</time></trkpt><trkpt lat="46.5357583" lon="12.4761033"><ele>1094.6666666666667</ele><time>2026-04-26T12:59:10.038Z</time></trkpt><trkpt lat="46.5358467" lon="12.4760033"><ele>1091.3333333333335</ele><time>2026-04-26T12:59:12.035Z</time></trkpt><trkpt lat="46.5358917" lon="12.4759383"><ele>1088.0</ele><time>2026-04-26T12:59:13.04Z</time></trkpt><trkpt lat="46.5359817" lon="12.475825"><ele>1088.0</ele><time>2026-04-26T12:59:15.039Z</time></trkpt><trkpt lat="46.5360283" lon="12.47576"><ele>1088.0</ele><time>2026-04-26T12:59:16.038Z</time></trkpt><trkpt lat="46.53608" lon="12.4756883"><ele>1088.0</ele><time>2026-04-26T12:59:17.04Z</time></trkpt><trkpt lat="46.5361367" lon="12.47561"><ele>1088.0</ele><time>2026-04-26T12:59:18.041Z</time></trkpt><trkpt lat="46.5361917" lon="12.47552"><ele>1088.0</ele><time>2026-04-26T12:59:19.04Z</time></trkpt><trkpt lat="46.5362367" lon="12.4754283"><ele>1088.0</ele><time>2026-04-26T12:59:20.038Z</time></trkpt><trkpt lat="46.5362833" lon="12.4753217"><ele>1087.6</ele><time>2026-04-26T12:59:21.04Z</time></trkpt><trkpt lat="46.5363467" lon="12.47521"><ele>1087.1999999999998</ele><time>2026-04-26T12:59:22.038Z</time></trkpt><trkpt lat="46.5364083" lon="12.4750683"><ele>1086.8</ele><time>2026-04-26T12:59:23.038Z</time></trkpt><trkpt lat="46.536455" lon="12.4749467"><ele>1086.3999999999999</ele><time>2026-04-26T12:59:24.04Z</time></trkpt><trkpt lat="46.53652" lon="12.4747833"><ele>1086.0</ele><time>2026-04-26T12:59:25.038Z</time></trkpt><trkpt lat="46.5365783" lon="12.47467"><ele>1082.3999999999999</ele><time>2026-04-26T12:59:26.039Z</time></trkpt><trkpt lat="46.5366417" lon="12.474545"><ele>1078.8</ele><time>2026-04-26T12:59:27.037Z</time></trkpt><trkpt lat="46.5366933" lon="12.4744433"><ele>1075.1999999999998</ele><time>2026-04-26T12:59:28.039Z</time></trkpt><trkpt lat="46.5367467" lon="12.4743283"><ele>1071.6</ele><time>2026-04-26T12:59:29.039Z</time></trkpt><trkpt lat="46.536795" lon="12.474225"><ele>1068.0</ele><time>2026-04-26T12:59:30.04Z</time></trkpt><trkpt lat="46.53685" lon="12.4741233"><ele>1068.0</ele><time>2026-04-26T12:59:31.036Z</time></trkpt><trkpt lat="46.5368983" lon="12.47404"><ele>1068.0</ele><time>2026-04-26T12:59:32.036Z</time></trkpt><trkpt lat="46.5369483" lon="12.473965"><ele>1068.0</ele><time>2026-04-26T12:59:33.039Z</time></trkpt><trkpt lat="46.5370017" lon="12.473885"><ele>1068.0</ele><time>2026-04-26T12:59:34.035Z</time></trkpt><trkpt lat="46.5370567" lon="12.4738017"><ele>1068.0</ele><time>2026-04-26T12:59:35.037Z</time></trkpt><trkpt lat="46.537105" lon="12.47372"><ele>1068.0</ele><time>2026-04-26T12:59:36.039Z</time></trkpt><trkpt lat="46.53716" lon="12.4736383"><ele>1067.857142857143</ele><time>2026-04-26T12:59:37.036Z</time></trkpt><trkpt lat="46.5372233" lon="12.4735733"><ele>1067.7142857142858</ele><time>2026-04-26T12:59:38.037Z</time></trkpt><trkpt lat="46.5372867" lon="12.4735033"><ele>1067.5714285714284</ele><time>2026-04-26T12:59:39.035Z</time></trkpt><trkpt lat="46.5373417" lon="12.4734583"><ele>1067.4285714285716</ele><time>2026-04-26T12:59:40.037Z</time></trkpt><trkpt lat="46.53739" lon="12.4733883"><ele>1067.2857142857142</ele><time>2026-04-26T12:59:41.036Z</time></trkpt><trkpt lat="46.5374417" lon="12.4733283"><ele>1067.142857142857</ele><time>2026-04-26T12:59:42.04Z</time></trkpt><trkpt lat="46.5374933" lon="12.4732433"><ele>1067.0</ele><time>2026-04-26T12:59:43.038Z</time></trkpt><trkpt lat="46.53753" lon="12.4731667"><ele>1066.9999999999998</ele><time>2026-04-26T12:59:44.038Z</time></trkpt><trkpt lat="46.5375767" lon="12.4730983"><ele>1067.0</ele><time>2026-04-26T12:59:45.039Z</time></trkpt><trkpt lat="46.5376333" lon="12.4730383"><ele>1067.0</ele><time>2026-04-26T12:59:46.036Z</time></trkpt><trkpt lat="46.5377" lon="12.4730033"><ele>1067.0</ele><time>2026-04-26T12:59:47.038Z</time></trkpt><trkpt lat="46.5377717" lon="12.47297"><ele>1067.0</ele><time>2026-04-26T12:59:48.041Z</time></trkpt><trkpt lat="46.5378433" lon="12.4729317"><ele>1066.9999999999998</ele><time>2026-04-26T12:59:49.039Z</time></trkpt><trkpt lat="46.5379067" lon="12.47291"><ele>1067.0</ele><time>2026-04-26T12:59:50.038Z</time></trkpt><trkpt lat="46.5379717" lon="12.4728917"><ele>1064.3333333333335</ele><time>2026-04-26T12:59:51.04Z</time></trkpt><trkpt lat="46.5380367" lon="12.4728817"><ele>1061.6666666666667</ele><time>2026-04-26T12:59:52.038Z</time></trkpt><trkpt lat="46.5381017" lon="12.4728633"><ele>1059.0</ele><time>2026-04-26T12:59:53.039Z</time></trkpt><trkpt lat="46.5381667" lon="12.472845"><ele>1056.3333333333333</ele><time>2026-04-26T12:59:54.043Z</time></trkpt><trkpt lat="46.53828" lon="12.472825"><ele>1053.6666666666665</ele><time>2026-04-26T12:59:56.038Z</time></trkpt><trkpt lat="46.5383817" lon="12.4728183"><ele>1051.0</ele><time>2026-04-26T12:59:58.038Z</time></trkpt><trkpt lat="46.5384833" lon="12.4728133"><ele>1051.0</ele><time>2026-04-26T13:00:00.039Z</time></trkpt><trkpt lat="46.5385767" lon="12.4728183"><ele>1051.0</ele><time>2026-04-26T13:00:02.038Z</time></trkpt><trkpt lat="46.5386583" lon="12.4728367"><ele>1051.0</ele><time>2026-04-26T13:00:04.038Z</time></trkpt><trkpt lat="46.538775" lon="12.4728717"><ele>1051.0</ele><time>2026-04-26T13:00:06.042Z</time></trkpt><trkpt lat="46.5388483" lon="12.472905"><ele>1051.0</ele><time>2026-04-26T13:00:07.039Z</time></trkpt><trkpt lat="46.5389283" lon="12.4729467"><ele>1052.2</ele><time>2026-04-26T13:00:08.033Z</time></trkpt><trkpt lat="46.53901" lon="12.47297"><ele>1053.3999999999999</ele><time>2026-04-26T13:00:09.038Z</time></trkpt><trkpt lat="46.5390833" lon="12.473005"><ele>1054.6</ele><time>2026-04-26T13:00:10.034Z</time></trkpt><trkpt lat="46.5391583" lon="12.473035"><ele>1055.8</ele><time>2026-04-26T13:00:11.039Z</time></trkpt><trkpt lat="46.5392717" lon="12.4730283"><ele>1057.0</ele><time>2026-04-26T13:00:13.04Z</time></trkpt><trkpt lat="46.5393783" lon="12.473"><ele>1057.0</ele><time>2026-04-26T13:00:15.039Z</time></trkpt><trkpt lat="46.539435" lon="12.4729483"><ele>1057.0</ele><time>2026-04-26T13:00:16.04Z</time></trkpt><trkpt lat="46.5395267" lon="12.4728467"><ele>1057.0</ele><time>2026-04-26T13:00:18.038Z</time></trkpt><trkpt lat="46.539585" lon="12.4727833"><ele>1057.0</ele><time>2026-04-26T13:00:19.04Z</time></trkpt><trkpt lat="46.5396533" lon="12.47269"><ele>1057.0</ele><time>2026-04-26T13:00:21.038Z</time></trkpt><trkpt lat="46.5397067" lon="12.47254"><ele>1047.5</ele><time>2026-04-26T13:00:23.04Z</time></trkpt><trkpt lat="46.5397333" lon="12.4724367"><ele>1038.0</ele><time>2026-04-26T13:00:24.027Z</time></trkpt><trkpt lat="46.5397383" lon="12.4723033"><ele>1028.5</ele><time>2026-04-26T13:00:25.028Z</time></trkpt><trkpt lat="46.5397183" lon="12.472085"><ele>1019.0</ele><time>2026-04-26T13:00:26.03Z</time></trkpt><trkpt lat="46.5397483" lon="12.4718783"><ele>1015.8000000000001</ele><time>2026-04-26T13:00:27.029Z</time></trkpt><trkpt lat="46.5397483" lon="12.4717017"><ele>1012.6000000000001</ele><time>2026-04-26T13:00:28.029Z</time></trkpt><trkpt lat="46.5397433" lon="12.4715567"><ele>1009.4</ele><time>2026-04-26T13:00:29.028Z</time></trkpt><trkpt lat="46.539745" lon="12.471425"><ele>1006.2</ele><time>2026-04-26T13:00:30.029Z</time></trkpt><trkpt lat="46.5397617" lon="12.471315"><ele>1003.0</ele><time>2026-04-26T13:00:31.028Z</time></trkpt><trkpt lat="46.5397933" lon="12.47123"><ele>1002.9999999999999</ele><time>2026-04-26T13:00:32.029Z</time></trkpt><trkpt lat="46.5398567" lon="12.4711167"><ele>1003.0</ele><time>2026-04-26T13:00:34.038Z</time></trkpt><trkpt lat="46.5399283" lon="12.471115"><ele>1003.0</ele><time>2026-04-26T13:00:37.037Z</time></trkpt><trkpt lat="46.53998" lon="12.4712017"><ele>1003.0</ele><time>2026-04-26T13:00:39.04Z</time></trkpt><trkpt lat="46.5400533" lon="12.4712867"><ele>1002.9999999999999</ele><time>2026-04-26T13:00:41.036Z</time></trkpt><trkpt lat="46.54013" lon="12.4713867"><ele>1003.0</ele><time>2026-04-26T13:00:43.039Z</time></trkpt><trkpt lat="46.540205" lon="12.4715217"><ele>1002.9999999999999</ele><time>2026-04-26T13:00:45.038Z</time></trkpt><trkpt lat="46.5402483" lon="12.4716083"><ele>1003.0</ele><time>2026-04-26T13:00:46.034Z</time></trkpt><trkpt lat="46.5403017" lon="12.471705"><ele>1003.0</ele><time>2026-04-26T13:00:47.039Z</time></trkpt><trkpt lat="46.54035" lon="12.4717933"><ele>1003.0</ele><time>2026-04-26T13:00:48.04Z</time></trkpt><trkpt lat="46.5404017" lon="12.47188"><ele>1002.9999999999999</ele><time>2026-04-26T13:00:49.04Z</time></trkpt><trkpt lat="46.540455" lon="12.471975"><ele>1003.0</ele><time>2026-04-26T13:00:50.036Z</time></trkpt><trkpt lat="46.5404933" lon="12.47207"><ele>998.1666666666666</ele><time>2026-04-26T13:00:51.04Z</time></trkpt><trkpt lat="46.5405367" lon="12.4721517"><ele>993.3333333333333</ele><time>2026-04-26T13:00:52.037Z</time></trkpt><trkpt lat="46.54059" lon="12.4722367"><ele>988.5</ele><time>2026-04-26T13:00:53.04Z</time></trkpt><trkpt lat="46.5406467" lon="12.472315"><ele>983.6666666666667</ele><time>2026-04-26T13:00:54.04Z</time></trkpt><trkpt lat="46.5406983" lon="12.4723767"><ele>978.8333333333334</ele><time>2026-04-26T13:00:55.039Z</time></trkpt><trkpt lat="46.5407833" lon="12.4724833"><ele>974.0</ele><time>2026-04-26T13:00:57.038Z</time></trkpt><trkpt lat="46.54088" lon="12.4725633"><ele>974.0000000000001</ele><time>2026-04-26T13:00:59.039Z</time></trkpt><trkpt lat="46.5409383" lon="12.47262"><ele>974.0</ele><time>2026-04-26T13:01:00.035Z</time></trkpt><trkpt lat="46.5409867" lon="12.47268"><ele>974.0</ele><time>2026-04-26T13:01:01.036Z</time></trkpt><trkpt lat="46.541085" lon="12.4727767"><ele>974.0</ele><time>2026-04-26T13:01:03.035Z</time></trkpt><trkpt lat="46.5411483" lon="12.4728267"><ele>974.0000000000001</ele><time>2026-04-26T13:01:04.038Z</time></trkpt><trkpt lat="46.5412017" lon="12.47288"><ele>974.0</ele><time>2026-04-26T13:01:05.037Z</time></trkpt><trkpt lat="46.5413017" lon="12.4729783"><ele>969.3333333333334</ele><time>2026-04-26T13:01:07.039Z</time></trkpt><trkpt lat="46.5413667" lon="12.4730167"><ele>964.6666666666667</ele><time>2026-04-26T13:01:08.035Z</time></trkpt><trkpt lat="46.54144" lon="12.4730883"><ele>960.0</ele><time>2026-04-26T13:01:10.038Z</time></trkpt><trkpt lat="46.5415083" lon="12.4731567"><ele>955.3333333333333</ele><time>2026-04-26T13:01:12.038Z</time></trkpt><trkpt lat="46.5416033" lon="12.4732133"><ele>950.6666666666666</ele><time>2026-04-26T13:01:14.038Z</time></trkpt><trkpt lat="46.5417" lon="12.4732433"><ele>946.0</ele><time>2026-04-26T13:01:16.035Z</time></trkpt><trkpt lat="46.5417967" lon="12.47329"><ele>946.0</ele><time>2026-04-26T13:01:18.039Z</time></trkpt><trkpt lat="46.5418867" lon="12.4733733"><ele>945.9999999999999</ele><time>2026-04-26T13:01:20.035Z</time></trkpt><trkpt lat="46.5419417" lon="12.4734967"><ele>945.9999999999999</ele><time>2026-04-26T13:01:22.035Z</time></trkpt><trkpt lat="46.5419667" lon="12.4736667"><ele>946.0</ele><time>2026-04-26T13:01:24.042Z</time></trkpt><trkpt lat="46.5419767" lon="12.47376"><ele>946.0</ele><time>2026-04-26T13:01:25.039Z</time></trkpt><trkpt lat="46.54198" lon="12.4738567"><ele>948.2857142857143</ele><time>2026-04-26T13:01:26.04Z</time></trkpt><trkpt lat="46.5419983" lon="12.47395"><ele>950.5714285714284</ele><time>2026-04-26T13:01:27.038Z</time></trkpt><trkpt lat="46.5420233" lon="12.47405"><ele>952.8571428571428</ele><time>2026-04-26T13:01:28.037Z</time></trkpt><trkpt lat="46.5420517" lon="12.4741417"><ele>955.1428571428571</ele><time>2026-04-26T13:01:29.037Z</time></trkpt><trkpt lat="46.5420833" lon="12.4742467"><ele>957.4285714285713</ele><time>2026-04-26T13:01:30.04Z</time></trkpt><trkpt lat="46.54211" lon="12.47435"><ele>959.7142857142856</ele><time>2026-04-26T13:01:31.04Z</time></trkpt><trkpt lat="46.5421367" lon="12.474455"><ele>961.9999999999999</ele><time>2026-04-26T13:01:32.035Z</time></trkpt><trkpt lat="46.5421567" lon="12.474555"><ele>957.3333333333334</ele><time>2026-04-26T13:01:33.039Z</time></trkpt><trkpt lat="46.54218" lon="12.47466"><ele>952.6666666666667</ele><time>2026-04-26T13:01:34.036Z</time></trkpt><trkpt lat="46.542215" lon="12.4747583"><ele>948.0</ele><time>2026-04-26T13:01:35.04Z</time></trkpt><trkpt lat="46.5422483" lon="12.4748567"><ele>943.3333333333333</ele><time>2026-04-26T13:01:36.041Z</time></trkpt><trkpt lat="46.5422767" lon="12.4749533"><ele>938.6666666666666</ele><time>2026-04-26T13:01:37.04Z</time></trkpt><trkpt lat="46.542295" lon="12.47505"><ele>934.0</ele><time>2026-04-26T13:01:38.038Z</time></trkpt><trkpt lat="46.5423383" lon="12.4752283"><ele>933.9999999999999</ele><time>2026-04-26T13:01:40.038Z</time></trkpt><trkpt lat="46.5423517" lon="12.4753217"><ele>934.0</ele><time>2026-04-26T13:01:41.039Z</time></trkpt><trkpt lat="46.54237" lon="12.4754217"><ele>933.9999999999999</ele><time>2026-04-26T13:01:42.041Z</time></trkpt><trkpt lat="46.5423867" lon="12.4755233"><ele>933.9999999999999</ele><time>2026-04-26T13:01:43.038Z</time></trkpt><trkpt lat="46.5423983" lon="12.47563"><ele>934.0</ele><time>2026-04-26T13:01:44.036Z</time></trkpt><trkpt lat="46.5424083" lon="12.4757333"><ele>933.9999999999999</ele><time>2026-04-26T13:01:45.038Z</time></trkpt><trkpt lat="46.54242" lon="12.4758267"><ele>933.9999999999999</ele><time>2026-04-26T13:01:46.036Z</time></trkpt><trkpt lat="46.542435" lon="12.4759183"><ele>936.4999999999999</ele><time>2026-04-26T13:01:47.037Z</time></trkpt><trkpt lat="46.5424467" lon="12.4760117"><ele>939.0</ele><time>2026-04-26T13:01:48.041Z</time></trkpt><trkpt lat="46.5424717" lon="12.4761817"><ele>941.5</ele><time>2026-04-26T13:01:50.039Z</time></trkpt><trkpt lat="46.5425" lon="12.476265"><ele>944.0</ele><time>2026-04-26T13:01:51.04Z</time></trkpt><trkpt lat="46.5425367" lon="12.47635"><ele>946.4999999999999</ele><time>2026-04-26T13:01:52.037Z</time></trkpt><trkpt lat="46.542585" lon="12.476445"><ele>949.0</ele><time>2026-04-26T13:01:53.04Z</time></trkpt><trkpt lat="46.5426283" lon="12.4765417"><ele>952.0000000000001</ele><time>2026-04-26T13:01:54.039Z</time></trkpt><trkpt lat="46.54266" lon="12.4766317"><ele>955.0</ele><time>2026-04-26T13:01:55.04Z</time></trkpt><trkpt lat="46.542685" lon="12.4767317"><ele>958.0000000000001</ele><time>2026-04-26T13:01:56.039Z</time></trkpt><trkpt lat="46.54271" lon="12.4768317"><ele>961.0000000000001</ele><time>2026-04-26T13:01:57.037Z</time></trkpt><trkpt lat="46.5427383" lon="12.4769283"><ele>964.0</ele><time>2026-04-26T13:01:58.039Z</time></trkpt><trkpt lat="46.5427717" lon="12.477025"><ele>967.0000000000001</ele><time>2026-04-26T13:01:59.04Z</time></trkpt><trkpt lat="46.542805" lon="12.4771183"><ele>970.0000000000001</ele><time>2026-04-26T13:02:00.041Z</time></trkpt><trkpt lat="46.5428283" lon="12.4772133"><ele>970.1428571428573</ele><time>2026-04-26T13:02:01.04Z</time></trkpt><trkpt lat="46.54286" lon="12.4773033"><ele>970.2857142857143</ele><time>2026-04-26T13:02:02.037Z</time></trkpt><trkpt lat="46.5428867" lon="12.4773933"><ele>970.4285714285716</ele><time>2026-04-26T13:02:03.041Z</time></trkpt><trkpt lat="46.5429117" lon="12.4774883"><ele>970.5714285714287</ele><time>2026-04-26T13:02:04.039Z</time></trkpt><trkpt lat="46.542935" lon="12.4775867"><ele>970.7142857142858</ele><time>2026-04-26T13:02:05.038Z</time></trkpt><trkpt lat="46.5429667" lon="12.4776817"><ele>970.8571428571429</ele><time>2026-04-26T13:02:06.04Z</time></trkpt><trkpt lat="46.543" lon="12.477775"><ele>971.0</ele><time>2026-04-26T13:02:07.039Z</time></trkpt><trkpt lat="46.5430367" lon="12.47787"><ele>974.8</ele><time>2026-04-26T13:02:08.039Z</time></trkpt><trkpt lat="46.5430767" lon="12.4779567"><ele>978.5999999999999</ele><time>2026-04-26T13:02:09.04Z</time></trkpt><trkpt lat="46.54311" lon="12.4780467"><ele>982.4</ele><time>2026-04-26T13:02:10.036Z</time></trkpt><trkpt lat="46.543165" lon="12.478195"><ele>986.2</ele><time>2026-04-26T13:02:12.04Z</time></trkpt><trkpt lat="46.5432267" lon="12.4783167"><ele>990.0</ele><time>2026-04-26T13:02:14.036Z</time></trkpt><trkpt lat="46.5433083" lon="12.478405"><ele>990.0</ele><time>2026-04-26T13:02:16.041Z</time></trkpt><trkpt lat="46.5433967" lon="12.4784733"><ele>990.0</ele><time>2026-04-26T13:02:18.039Z</time></trkpt><trkpt lat="46.5434867" lon="12.47854"><ele>990.0</ele><time>2026-04-26T13:02:20.038Z</time></trkpt><trkpt lat="46.5435683" lon="12.4786017"><ele>990.0</ele><time>2026-04-26T13:02:22.039Z</time></trkpt><trkpt lat="46.5436217" lon="12.478695"><ele>990.0</ele><time>2026-04-26T13:02:24.04Z</time></trkpt><trkpt lat="46.54365" lon="12.4788083"><ele>994.1666666666666</ele><time>2026-04-26T13:02:26.039Z</time></trkpt><trkpt lat="46.5436767" lon="12.4789483"><ele>998.3333333333333</ele><time>2026-04-26T13:02:28.039Z</time></trkpt><trkpt lat="46.5436467" lon="12.4790567"><ele>1002.5</ele><time>2026-04-26T13:02:30.041Z</time></trkpt><trkpt lat="46.5436067" lon="12.47915"><ele>1006.6666666666666</ele><time>2026-04-26T13:02:32.039Z</time></trkpt><trkpt lat="46.5436" lon="12.4792533"><ele>1010.8333333333333</ele><time>2026-04-26T13:02:34.041Z</time></trkpt><trkpt lat="46.5436017" lon="12.479395"><ele>1015.0</ele><time>2026-04-26T13:02:36.04Z</time></trkpt><trkpt lat="46.543575" lon="12.4794983"><ele>1019.2</ele><time>2026-04-26T13:02:38.036Z</time></trkpt><trkpt lat="46.543565" lon="12.4796783"><ele>1023.4</ele><time>2026-04-26T13:02:41.039Z</time></trkpt><trkpt lat="46.5435933" lon="12.4797967"><ele>1027.6</ele><time>2026-04-26T13:02:43.037Z</time></trkpt><trkpt lat="46.5436267" lon="12.4799183"><ele>1031.8</ele><time>2026-04-26T13:02:45.038Z</time></trkpt><trkpt lat="46.5436283" lon="12.4800483"><ele>1036.0</ele><time>2026-04-26T13:02:47.039Z</time></trkpt><trkpt lat="46.5435567" lon="12.480135"><ele>1036.0</ele><time>2026-04-26T13:02:49.039Z</time></trkpt><trkpt lat="46.5434983" lon="12.4802283"><ele>1036.0</ele><time>2026-04-26T13:02:51.038Z</time></trkpt><trkpt lat="46.54347" lon="12.480315"><ele>1036.0</ele><time>2026-04-26T13:02:53.042Z</time></trkpt><trkpt lat="46.5434667" lon="12.48046"><ele>1036.0</ele><time>2026-04-26T13:02:55.039Z</time></trkpt><trkpt lat="46.5434017" lon="12.480575"><ele>1036.0</ele><time>2026-04-26T13:02:57.038Z</time></trkpt><trkpt lat="46.543345" lon="12.4806783"><ele>1036.0</ele><time>2026-04-26T13:02:59.04Z</time></trkpt><trkpt lat="46.5432917" lon="12.4807983"><ele>1039.2</ele><time>2026-04-26T13:03:01.039Z</time></trkpt><trkpt lat="46.543245" lon="12.4809367"><ele>1042.3999999999999</ele><time>2026-04-26T13:03:03.036Z</time></trkpt><trkpt lat="46.5432333" lon="12.4810783"><ele>1045.6</ele><time>2026-04-26T13:03:05.04Z</time></trkpt><trkpt lat="46.5432167" lon="12.4812133"><ele>1048.8</ele><time>2026-04-26T13:03:07.036Z</time></trkpt><trkpt lat="46.5432" lon="12.4813283"><ele>1052.0</ele><time>2026-04-26T13:03:09.037Z</time></trkpt><trkpt lat="46.5432283" lon="12.4814567"><ele>1053.0</ele><time>2026-04-26T13:03:11.036Z</time></trkpt><trkpt lat="46.543285" lon="12.4815783"><ele>1054.0</ele><time>2026-04-26T13:03:13.039Z</time></trkpt><trkpt lat="46.54334" lon="12.4816867"><ele>1055.0</ele><time>2026-04-26T13:03:15.036Z</time></trkpt><trkpt lat="46.5433717" lon="12.48182"><ele>1056.0</ele><time>2026-04-26T13:03:17.035Z</time></trkpt><trkpt lat="46.5433983" lon="12.48194"><ele>1057.0</ele><time>2026-04-26T13:03:19.04Z</time></trkpt><trkpt lat="46.5434333" lon="12.4820733"><ele>1059.3333333333333</ele><time>2026-04-26T13:03:21.038Z</time></trkpt><trkpt lat="46.5435033" lon="12.4821883"><ele>1061.6666666666665</ele><time>2026-04-26T13:03:23.038Z</time></trkpt><trkpt lat="46.543575" lon="12.4823467"><ele>1064.0</ele><time>2026-04-26T13:03:25.039Z</time></trkpt><trkpt lat="46.543615" lon="12.48242"><ele>1066.3333333333333</ele><time>2026-04-26T13:03:26.038Z</time></trkpt><trkpt lat="46.5436533" lon="12.4825067"><ele>1068.6666666666667</ele><time>2026-04-26T13:03:27.038Z</time></trkpt><trkpt lat="46.5436867" lon="12.4825933"><ele>1071.0</ele><time>2026-04-26T13:03:28.035Z</time></trkpt><trkpt lat="46.5437133" lon="12.4827433"><ele>1072.3333333333333</ele><time>2026-04-26T13:03:30.042Z</time></trkpt><trkpt lat="46.5437483" lon="12.482825"><ele>1073.6666666666667</ele><time>2026-04-26T13:03:31.035Z</time></trkpt><trkpt lat="46.5437917" lon="12.48294"><ele>1075.0</ele><time>2026-04-26T13:03:33.038Z</time></trkpt><trkpt lat="46.5438317" lon="12.4830683"><ele>1076.3333333333335</ele><time>2026-04-26T13:03:35.037Z</time></trkpt><trkpt lat="46.5438617" lon="12.48317"><ele>1077.6666666666667</ele><time>2026-04-26T13:03:37.038Z</time></trkpt><trkpt lat="46.543905" lon="12.4832883"><ele>1079.0</ele><time>2026-04-26T13:03:39.038Z</time></trkpt><trkpt lat="46.5439467" lon="12.483405"><ele>1079.0</ele><time>2026-04-26T13:03:41.035Z</time></trkpt><trkpt lat="46.5439817" lon="12.4835133"><ele>1079.0</ele><time>2026-04-26T13:03:43.038Z</time></trkpt><trkpt lat="46.5440267" lon="12.4836517"><ele>1079.0</ele><time>2026-04-26T13:03:45.039Z</time></trkpt><trkpt lat="46.5440833" lon="12.483805"><ele>1079.0</ele><time>2026-04-26T13:03:47.039Z</time></trkpt><trkpt lat="46.5441583" lon="12.4839133"><ele>1079.0</ele><time>2026-04-26T13:03:49.034Z</time></trkpt><trkpt lat="46.5442417" lon="12.4840583"><ele>1082.5</ele><time>2026-04-26T13:03:51.039Z</time></trkpt><trkpt lat="46.54429" lon="12.48419"><ele>1086.0</ele><time>2026-04-26T13:03:53.038Z</time></trkpt><trkpt lat="46.5443333" lon="12.4843083"><ele>1089.5</ele><time>2026-04-26T13:03:55.04Z</time></trkpt><trkpt lat="46.5443767" lon="12.4844217"><ele>1093.0</ele><time>2026-04-26T13:03:57.038Z</time></trkpt><trkpt lat="46.544405" lon="12.4845067"><ele>1096.5</ele><time>2026-04-26T13:03:58.038Z</time></trkpt><trkpt lat="46.5444517" lon="12.4846083"><ele>1100.0</ele><time>2026-04-26T13:04:00.039Z</time></trkpt><trkpt lat="46.5445167" lon="12.4846967"><ele>1099.4</ele><time>2026-04-26T13:04:02.037Z</time></trkpt><trkpt lat="46.5445967" lon="12.48482"><ele>1098.8</ele><time>2026-04-26T13:04:04.036Z</time></trkpt><trkpt lat="46.5446383" lon="12.4848967"><ele>1098.2</ele><time>2026-04-26T13:04:05.038Z</time></trkpt><trkpt lat="46.5447183" lon="12.4850583"><ele>1097.6</ele><time>2026-04-26T13:04:07.038Z</time></trkpt><trkpt lat="46.5447583" lon="12.4851467"><ele>1097.0</ele><time>2026-04-26T13:04:08.035Z</time></trkpt><trkpt lat="46.5447983" lon="12.4852317"><ele>1097.0</ele><time>2026-04-26T13:04:09.038Z</time></trkpt><trkpt lat="46.5448533" lon="12.485345"><ele>1097.0</ele><time>2026-04-26T13:04:10.038Z</time></trkpt><trkpt lat="46.5448933" lon="12.485445"><ele>1097.0</ele><time>2026-04-26T13:04:11.041Z</time></trkpt><trkpt lat="46.544925" lon="12.4855533"><ele>1097.0</ele><time>2026-04-26T13:04:12.036Z</time></trkpt><trkpt lat="46.5449417" lon="12.485725"><ele>1097.0</ele><time>2026-04-26T13:04:13.04Z</time></trkpt><trkpt lat="46.54494" lon="12.48589"><ele>1100.0</ele><time>2026-04-26T13:04:14.036Z</time></trkpt><trkpt lat="46.54491" lon="12.4860167"><ele>1103.0</ele><time>2026-04-26T13:04:15.038Z</time></trkpt><trkpt lat="46.5448917" lon="12.48616"><ele>1106.0</ele><time>2026-04-26T13:04:17.037Z</time></trkpt><trkpt lat="46.54492" lon="12.486265"><ele>1109.0</ele><time>2026-04-26T13:04:19.04Z</time></trkpt><trkpt lat="46.5450317" lon="12.4862883"><ele>1112.0</ele><time>2026-04-26T13:04:21.042Z</time></trkpt><trkpt lat="46.545095" lon="12.48626"><ele>1115.0</ele><time>2026-04-26T13:04:22.039Z</time></trkpt><trkpt lat="46.5451367" lon="12.4861833"><ele>1115.0</ele><time>2026-04-26T13:04:23.04Z</time></trkpt><trkpt lat="46.5452233" lon="12.4861433"><ele>1115.0</ele><time>2026-04-26T13:04:25.038Z</time></trkpt><trkpt lat="46.54531" lon="12.4861717"><ele>1115.0</ele><time>2026-04-26T13:04:27.035Z</time></trkpt><trkpt lat="46.5453817" lon="12.4862567"><ele>1115.0</ele><time>2026-04-26T13:04:29.042Z</time></trkpt><trkpt lat="46.5454283" lon="12.4863367"><ele>1115.0</ele><time>2026-04-26T13:04:30.041Z</time></trkpt><trkpt lat="46.5454767" lon="12.4864233"><ele>1115.0</ele><time>2026-04-26T13:04:31.039Z</time></trkpt><trkpt lat="46.5455267" lon="12.486495"><ele>1117.6</ele><time>2026-04-26T13:04:32.035Z</time></trkpt><trkpt lat="46.5455767" lon="12.4865767"><ele>1120.2</ele><time>2026-04-26T13:04:33.038Z</time></trkpt><trkpt lat="46.54562" lon="12.4866617"><ele>1122.8</ele><time>2026-04-26T13:04:34.038Z</time></trkpt><trkpt lat="46.5456883" lon="12.4867833"><ele>1125.4</ele><time>2026-04-26T13:04:36.038Z</time></trkpt><trkpt lat="46.54576" lon="12.48685"><ele>1128.0</ele><time>2026-04-26T13:04:38.034Z</time></trkpt><trkpt lat="46.545875" lon="12.4868683"><ele>1128.0</ele><time>2026-04-26T13:04:40.038Z</time></trkpt><trkpt lat="46.5459417" lon="12.4868617"><ele>1128.0</ele><time>2026-04-26T13:04:41.036Z</time></trkpt><trkpt lat="46.5460133" lon="12.4868517"><ele>1128.0</ele><time>2026-04-26T13:04:42.04Z</time></trkpt><trkpt lat="46.5460767" lon="12.4868417"><ele>1128.0</ele><time>2026-04-26T13:04:43.037Z</time></trkpt><trkpt lat="46.546145" lon="12.48685"><ele>1128.0</ele><time>2026-04-26T13:04:44.035Z</time></trkpt><trkpt lat="46.5462133" lon="12.4868533"><ele>1128.0</ele><time>2026-04-26T13:04:45.036Z</time></trkpt><trkpt lat="46.546345" lon="12.4868783"><ele>1129.8333333333333</ele><time>2026-04-26T13:04:47.037Z</time></trkpt><trkpt lat="46.54641" lon="12.4869033"><ele>1131.6666666666667</ele><time>2026-04-26T13:04:48.038Z</time></trkpt><trkpt lat="46.5465117" lon="12.486955"><ele>1133.5</ele><time>2026-04-26T13:04:50.038Z</time></trkpt><trkpt lat="46.5465767" lon="12.4870317"><ele>1135.3333333333335</ele><time>2026-04-26T13:04:52.037Z</time></trkpt><trkpt lat="46.5466483" lon="12.48709"><ele>1137.1666666666667</ele><time>2026-04-26T13:04:54.038Z</time></trkpt><trkpt lat="46.54674" lon="12.4871133"><ele>1139.0</ele><time>2026-04-26T13:04:56.034Z</time></trkpt><trkpt lat="46.5468133" lon="12.4870933"><ele>1139.0</ele><time>2026-04-26T13:04:58.037Z</time></trkpt><trkpt lat="46.5469" lon="12.4870167"><ele>1139.0</ele><time>2026-04-26T13:05:00.04Z</time></trkpt><trkpt lat="46.5469683" lon="12.4869417"><ele>1139.0</ele><time>2026-04-26T13:05:02.036Z</time></trkpt><trkpt lat="46.5470467" lon="12.4869367"><ele>1139.0</ele><time>2026-04-26T13:05:04.035Z</time></trkpt><trkpt lat="46.5470967" lon="12.4869983"><ele>1139.0</ele><time>2026-04-26T13:05:06.038Z</time></trkpt><trkpt lat="46.54712" lon="12.4870983"><ele>1139.0</ele><time>2026-04-26T13:05:08.036Z</time></trkpt><trkpt lat="46.547125" lon="12.4871983"><ele>1143.7142857142858</ele><time>2026-04-26T13:05:10.037Z</time></trkpt><trkpt lat="46.5471233" lon="12.4873"><ele>1148.4285714285716</ele><time>2026-04-26T13:05:13.037Z</time></trkpt><trkpt lat="46.5470833" lon="12.487385"><ele>1153.142857142857</ele><time>2026-04-26T13:05:16.037Z</time></trkpt><trkpt lat="46.5470533" lon="12.4874717"><ele>1157.857142857143</ele><time>2026-04-26T13:05:19.035Z</time></trkpt><trkpt lat="46.5470233" lon="12.487585"><ele>1162.5714285714284</ele><time>2026-04-26T13:05:22.035Z</time></trkpt><trkpt lat="46.5470083" lon="12.4876767"><ele>1167.2857142857142</ele><time>2026-04-26T13:05:25.037Z</time></trkpt><trkpt lat="46.5469683" lon="12.4877833"><ele>1172.0</ele><time>2026-04-26T13:05:28.035Z</time></trkpt><trkpt lat="46.54691" lon="12.4878483"><ele>1172.0</ele><time>2026-04-26T13:05:31.037Z</time></trkpt><trkpt lat="46.5468467" lon="12.4878717"><ele>1172.0</ele><time>2026-04-26T13:05:34.036Z</time></trkpt><trkpt lat="46.5467417" lon="12.4879267"><ele>1172.0</ele><time>2026-04-26T13:06:56.026Z</time></trkpt><trkpt lat="46.5467567" lon="12.4880433"><ele>1172.0</ele><time>2026-04-26T13:14:45.039Z</time></trkpt><trkpt lat="46.5467567" lon="12.4881483"><ele>1172.0</ele><time>2026-04-26T13:14:49.039Z</time></trkpt><trkpt lat="46.546775" lon="12.4882583"><ele>1172.0</ele><time>2026-04-26T13:14:51.038Z</time></trkpt><trkpt lat="46.5467933" lon="12.4883933"><ele>1176.0</ele><time>2026-04-26T13:14:54.038Z</time></trkpt><trkpt lat="46.5468217" lon="12.4885017"><ele>1180.0</ele><time>2026-04-26T13:14:56.038Z</time></trkpt><trkpt lat="46.5468617" lon="12.4885983"><ele>1184.0</ele><time>2026-04-26T13:14:59.037Z</time></trkpt><trkpt lat="46.5469" lon="12.488675"><ele>1188.0</ele><time>2026-04-26T13:15:02.038Z</time></trkpt><trkpt lat="46.5469417" lon="12.4887667"><ele>1192.0</ele><time>2026-04-26T13:15:05.037Z</time></trkpt><trkpt lat="46.5469733" lon="12.488875"><ele>1196.0</ele><time>2026-04-26T13:15:08.039Z</time></trkpt><trkpt lat="46.5470183" lon="12.4889883"><ele>1198.857142857143</ele><time>2026-04-26T13:15:11.04Z</time></trkpt><trkpt lat="46.5470433" lon="12.48909"><ele>1201.7142857142858</ele><time>2026-04-26T13:15:14.04Z</time></trkpt><trkpt lat="46.5470617" lon="12.48918"><ele>1204.5714285714284</ele><time>2026-04-26T13:15:17.037Z</time></trkpt><trkpt lat="46.5470683" lon="12.489295"><ele>1207.4285714285716</ele><time>2026-04-26T13:15:22.035Z</time></trkpt><trkpt lat="46.5470933" lon="12.48939"><ele>1210.2857142857144</ele><time>2026-04-26T13:15:26.039Z</time></trkpt><trkpt lat="46.5471067" lon="12.4894967"><ele>1213.142857142857</ele><time>2026-04-26T13:15:29.04Z</time></trkpt><trkpt lat="46.5471067" lon="12.4895933"><ele>1216.0</ele><time>2026-04-26T13:15:34.04Z</time></trkpt><trkpt lat="46.547025" lon="12.4896633"><ele>1217.3333333333333</ele><time>2026-04-26T13:15:55.038Z</time></trkpt><trkpt lat="46.5469717" lon="12.4895833"><ele>1218.6666666666665</ele><time>2026-04-26T13:16:00.039Z</time></trkpt><trkpt lat="46.5468917" lon="12.489575"><ele>1220.0</ele><time>2026-04-26T13:16:04.04Z</time></trkpt><trkpt lat="46.5468267" lon="12.4895383"><ele>1221.3333333333333</ele><time>2026-04-26T13:16:11.04Z</time></trkpt><trkpt lat="46.5467233" lon="12.4895833"><ele>1222.6666666666667</ele><time>2026-04-26T13:16:26.039Z</time></trkpt><trkpt lat="46.5467267" lon="12.4896883"><ele>1224.0</ele><time>2026-04-26T13:16:29.04Z</time></trkpt><trkpt lat="46.5467483" lon="12.4897817"><ele>1228.8333333333333</ele><time>2026-04-26T13:16:31.041Z</time></trkpt><trkpt lat="46.5467633" lon="12.4898833"><ele>1233.6666666666667</ele><time>2026-04-26T13:16:33.039Z</time></trkpt><trkpt lat="46.5467717" lon="12.4900133"><ele>1238.5</ele><time>2026-04-26T13:16:36.036Z</time></trkpt><trkpt lat="46.54679" lon="12.4901417"><ele>1243.3333333333335</ele><time>2026-04-26T13:16:39.037Z</time></trkpt><trkpt lat="46.5468" lon="12.4902667"><ele>1248.1666666666667</ele><time>2026-04-26T13:16:42.042Z</time></trkpt><trkpt lat="46.5468067" lon="12.49039"><ele>1253.0</ele><time>2026-04-26T13:16:45.03Z</time></trkpt><trkpt lat="46.54683" lon="12.4905067"><ele>1254.2</ele><time>2026-04-26T13:16:48.028Z</time></trkpt><trkpt lat="46.54687" lon="12.4906017"><ele>1255.4</ele><time>2026-04-26T13:16:50.028Z</time></trkpt><trkpt lat="46.5469133" lon="12.4907133"><ele>1256.6000000000001</ele><time>2026-04-26T13:16:52.028Z</time></trkpt><trkpt lat="46.54696" lon="12.49084"><ele>1257.8</ele><time>2026-04-26T13:16:54.041Z</time></trkpt><trkpt lat="46.54702" lon="12.490985"><ele>1259.0</ele><time>2026-04-26T13:16:56.041Z</time></trkpt><trkpt lat="46.547075" lon="12.4911333"><ele>1265.0</ele><time>2026-04-26T13:16:58.035Z</time></trkpt><trkpt lat="46.547125" lon="12.4912783"><ele>1271.0</ele><time>2026-04-26T13:17:00.042Z</time></trkpt><trkpt lat="46.54718" lon="12.4914317"><ele>1277.0</ele><time>2026-04-26T13:17:02.039Z</time></trkpt><trkpt lat="46.5472367" lon="12.4915783"><ele>1283.0</ele><time>2026-04-26T13:17:04.037Z</time></trkpt><trkpt lat="46.5472917" lon="12.4917083"><ele>1283.0</ele><time>2026-04-26T13:17:06.043Z</time></trkpt><trkpt lat="46.5473567" lon="12.4918433"><ele>1283.0</ele><time>2026-04-26T13:17:08.041Z</time></trkpt><trkpt lat="46.5474333" lon="12.491985"><ele>1283.0</ele><time>2026-04-26T13:17:10.036Z</time></trkpt><trkpt lat="46.5475167" lon="12.4920867"><ele>1283.0</ele><time>2026-04-26T13:17:12.04Z</time></trkpt><trkpt lat="46.5476" lon="12.49217"><ele>1283.0</ele><time>2026-04-26T13:17:14.041Z</time></trkpt><trkpt lat="46.5476617" lon="12.4922067"><ele>1286.2</ele><time>2026-04-26T13:17:15.039Z</time></trkpt><trkpt lat="46.547715" lon="12.4922817"><ele>1289.4</ele><time>2026-04-26T13:17:17.04Z</time></trkpt><trkpt lat="46.547785" lon="12.49239"><ele>1292.6000000000001</ele><time>2026-04-26T13:17:19.037Z</time></trkpt><trkpt lat="46.547865" lon="12.492505"><ele>1295.8000000000002</ele><time>2026-04-26T13:17:21.04Z</time></trkpt><trkpt lat="46.5479667" lon="12.4926033"><ele>1299.0</ele><time>2026-04-26T13:17:23.036Z</time></trkpt><trkpt lat="46.54807" lon="12.4926267"><ele>1299.0</ele><time>2026-04-26T13:17:25.04Z</time></trkpt><trkpt lat="46.548165" lon="12.4926567"><ele>1299.0</ele><time>2026-04-26T13:17:27.034Z</time></trkpt><trkpt lat="46.5482517" lon="12.4927033"><ele>1299.0</ele><time>2026-04-26T13:17:29.034Z</time></trkpt><trkpt lat="46.5483267" lon="12.492755"><ele>1299.0</ele><time>2026-04-26T13:17:31.036Z</time></trkpt><trkpt lat="46.5483983" lon="12.4928417"><ele>1299.0</ele><time>2026-04-26T13:17:33.039Z</time></trkpt><trkpt lat="46.5484383" lon="12.4929467"><ele>1299.0</ele><time>2026-04-26T13:17:35.036Z</time></trkpt><trkpt lat="46.5484517" lon="12.493055"><ele>1301.0</ele><time>2026-04-26T13:17:38.041Z</time></trkpt><trkpt lat="46.5484767" lon="12.493145"><ele>1303.0</ele><time>2026-04-26T13:17:44.039Z</time></trkpt><trkpt lat="46.5485433" lon="12.4931667"><ele>1305.0</ele><time>2026-04-26T13:18:03.04Z</time></trkpt><trkpt lat="46.548645" lon="12.4931933"><ele>1307.0</ele><time>2026-04-26T13:18:12.041Z</time></trkpt><trkpt lat="46.5486867" lon="12.49328"><ele>1309.0</ele><time>2026-04-26T13:18:21.039Z</time></trkpt><trkpt lat="46.5487183" lon="12.4933717"><ele>1311.0</ele><time>2026-04-26T13:18:27.04Z</time></trkpt><trkpt lat="46.548785" lon="12.49342"><ele>1311.0</ele><time>2026-04-26T13:18:32.038Z</time></trkpt><trkpt lat="46.5488433" lon="12.4934733"><ele>1311.0</ele><time>2026-04-26T13:18:37.04Z</time></trkpt><trkpt lat="46.5489117" lon="12.4935017"><ele>1311.0</ele><time>2026-04-26T13:18:41.039Z</time></trkpt><trkpt lat="46.548975" lon="12.4935183"><ele>1311.0</ele><time>2026-04-26T13:18:45.039Z</time></trkpt><trkpt lat="46.54893" lon="12.4934483"><ele>1311.0</ele><time>2026-04-26T13:18:57.039Z</time></trkpt><trkpt lat="46.5488683" lon="12.493415"><ele>1311.0</ele><time>2026-04-26T13:19:05.04Z</time></trkpt><trkpt lat="46.5488167" lon="12.49334"><ele>1311.0</ele><time>2026-04-26T13:19:10.038Z</time></trkpt><trkpt lat="46.548755" lon="12.49327"><ele>1312.4285714285716</ele><time>2026-04-26T13:19:14.042Z</time></trkpt><trkpt lat="46.5487" lon="12.4932117"><ele>1313.8571428571427</ele><time>2026-04-26T13:19:18.039Z</time></trkpt><trkpt lat="46.5486983" lon="12.4931167"><ele>1315.2857142857142</ele><time>2026-04-26T13:19:22.039Z</time></trkpt><trkpt lat="46.5486583" lon="12.4930233"><ele>1316.7142857142858</ele><time>2026-04-26T13:19:28.038Z</time></trkpt><trkpt lat="46.5485883" lon="12.4929867"><ele>1318.1428571428573</ele><time>2026-04-26T13:19:33.041Z</time></trkpt><trkpt lat="46.5485167" lon="12.4929683"><ele>1319.5714285714284</ele><time>2026-04-26T13:19:38.039Z</time></trkpt><trkpt lat="46.5485417" lon="12.4930567"><ele>1321.0</ele><time>2026-04-26T13:21:11.039Z</time></trkpt><trkpt lat="46.5486183" lon="12.4931217"><ele>1321.0</ele><time>2026-04-26T13:21:15.039Z</time></trkpt><trkpt lat="46.54865" lon="12.4932283"><ele>1321.0</ele><time>2026-04-26T13:21:17.04Z</time></trkpt><trkpt lat="46.5486933" lon="12.4933633"><ele>1321.0</ele><time>2026-04-26T13:21:19.04Z</time></trkpt><trkpt lat="46.548785" lon="12.4934717"><ele>1321.0</ele><time>2026-04-26T13:21:21.039Z</time></trkpt><trkpt lat="46.5488467" lon="12.4935"><ele>1321.0</ele><time>2026-04-26T13:21:22.04Z</time></trkpt><trkpt lat="46.5489367" lon="12.4935683"><ele>1320.6</ele><time>2026-04-26T13:21:24.037Z</time></trkpt><trkpt lat="46.5489783" lon="12.4936783"><ele>1320.1999999999998</ele><time>2026-04-26T13:21:26.04Z</time></trkpt><trkpt lat="46.5490033" lon="12.4937917"><ele>1319.8000000000002</ele><time>2026-04-26T13:21:28.035Z</time></trkpt><trkpt lat="46.5490133" lon="12.4939233"><ele>1319.4</ele><time>2026-04-26T13:21:30.043Z</time></trkpt><trkpt lat="46.5490083" lon="12.4940667"><ele>1319.0</ele><time>2026-04-26T13:21:32.043Z</time></trkpt><trkpt lat="46.5489833" lon="12.49422"><ele>1319.0</ele><time>2026-04-26T13:21:34.039Z</time></trkpt><trkpt lat="46.5489483" lon="12.4943683"><ele>1319.0</ele><time>2026-04-26T13:21:36.041Z</time></trkpt><trkpt lat="46.5489333" lon="12.49451"><ele>1319.0</ele><time>2026-04-26T13:21:38.042Z</time></trkpt><trkpt lat="46.5489533" lon="12.4946617"><ele>1319.0</ele><time>2026-04-26T13:21:40.038Z</time></trkpt><trkpt lat="46.548985" lon="12.4948067"><ele>1319.0</ele><time>2026-04-26T13:21:42.041Z</time></trkpt><trkpt lat="46.5490033" lon="12.4949333"><ele>1321.5</ele><time>2026-04-26T13:21:44.043Z</time></trkpt><trkpt lat="46.54904" lon="12.4950717"><ele>1324.0</ele><time>2026-04-26T13:21:46.039Z</time></trkpt><trkpt lat="46.5490633" lon="12.4952333"><ele>1326.5</ele><time>2026-04-26T13:21:48.042Z</time></trkpt><trkpt lat="46.5490633" lon="12.4954167"><ele>1329.0</ele><time>2026-04-26T13:21:50.04Z</time></trkpt><trkpt lat="46.5490767" lon="12.4955967"><ele>1331.1666666666667</ele><time>2026-04-26T13:21:52.04Z</time></trkpt><trkpt lat="46.5490883" lon="12.4956867"><ele>1333.3333333333333</ele><time>2026-04-26T13:21:53.04Z</time></trkpt><trkpt lat="46.5491367" lon="12.495855"><ele>1335.5</ele><time>2026-04-26T13:21:55.042Z</time></trkpt><trkpt lat="46.549165" lon="12.4959417"><ele>1337.6666666666665</ele><time>2026-04-26T13:21:56.039Z</time></trkpt><trkpt lat="46.5491883" lon="12.49604"><ele>1339.8333333333333</ele><time>2026-04-26T13:21:57.04Z</time></trkpt><trkpt lat="46.5492083" lon="12.496135"><ele>1342.0</ele><time>2026-04-26T13:21:58.04Z</time></trkpt><trkpt lat="46.549225" lon="12.4962283"><ele>1343.4285714285713</ele><time>2026-04-26T13:21:59.039Z</time></trkpt><trkpt lat="46.549245" lon="12.4963233"><ele>1344.857142857143</ele><time>2026-04-26T13:22:00.043Z</time></trkpt><trkpt lat="46.549265" lon="12.496415"><ele>1346.2857142857142</ele><time>2026-04-26T13:22:01.039Z</time></trkpt><trkpt lat="46.5492783" lon="12.4965117"><ele>1347.7142857142858</ele><time>2026-04-26T13:22:02.04Z</time></trkpt><trkpt lat="46.54927" lon="12.4966083"><ele>1349.142857142857</ele><time>2026-04-26T13:22:03.039Z</time></trkpt><trkpt lat="46.5492333" lon="12.4967383"><ele>1350.5714285714287</ele><time>2026-04-26T13:22:05.04Z</time></trkpt><trkpt lat="46.5491867" lon="12.49681"><ele>1352.0</ele><time>2026-04-26T13:22:07.04Z</time></trkpt><trkpt lat="46.5490967" lon="12.49673"><ele>1352.0</ele><time>2026-04-26T13:22:09.028Z</time></trkpt><trkpt lat="46.549065" lon="12.4966483"><ele>1352.0</ele><time>2026-04-26T13:22:10.028Z</time></trkpt><trkpt lat="46.5489967" lon="12.4965483"><ele>1352.0</ele><time>2026-04-26T13:22:12.029Z</time></trkpt><trkpt lat="46.5489333" lon="12.4964817"><ele>1352.0</ele><time>2026-04-26T13:22:14.033Z</time></trkpt><trkpt lat="46.5488583" lon="12.4965117"><ele>1352.0</ele><time>2026-04-26T13:22:16.028Z</time></trkpt><trkpt lat="46.548815" lon="12.4966033"><ele>1352.0</ele><time>2026-04-26T13:22:18.03Z</time></trkpt><trkpt lat="46.5488417" lon="12.4967617"><ele>1352.0</ele><time>2026-04-26T13:22:20.041Z</time></trkpt><trkpt lat="46.5488583" lon="12.4968633"><ele>1352.0</ele><time>2026-04-26T13:22:21.041Z</time></trkpt><trkpt lat="46.54886" lon="12.496975"><ele>1352.0</ele><time>2026-04-26T13:22:22.039Z</time></trkpt><trkpt lat="46.548865" lon="12.4970967"><ele>1352.0</ele><time>2026-04-26T13:22:23.042Z</time></trkpt><trkpt lat="46.54888" lon="12.49721"><ele>1352.0</ele><time>2026-04-26T13:22:24.04Z</time></trkpt><trkpt lat="46.548895" lon="12.4973067"><ele>1352.0</ele><time>2026-04-26T13:22:25.039Z</time></trkpt><trkpt lat="46.5489217" lon="12.4974033"><ele>1353.5</ele><time>2026-04-26T13:22:26.042Z</time></trkpt><trkpt lat="46.548945" lon="12.4974933"><ele>1355.0</ele><time>2026-04-26T13:22:27.036Z</time></trkpt><trkpt lat="46.5489767" lon="12.4976667"><ele>1356.5</ele><time>2026-04-26T13:22:29.039Z</time></trkpt><trkpt lat="46.549" lon="12.4977667"><ele>1358.0</ele><time>2026-04-26T13:22:30.041Z</time></trkpt><trkpt lat="46.5490283" lon="12.4978733"><ele>1359.5</ele><time>2026-04-26T13:22:31.042Z</time></trkpt><trkpt lat="46.5490533" lon="12.49798"><ele>1361.0</ele><time>2026-04-26T13:22:32.042Z</time></trkpt><trkpt lat="46.5490783" lon="12.4980867"><ele>1363.8333333333335</ele><time>2026-04-26T13:22:33.041Z</time></trkpt><trkpt lat="46.549105" lon="12.498195"><ele>1366.6666666666667</ele><time>2026-04-26T13:22:34.039Z</time></trkpt><trkpt lat="46.5491283" lon="12.4983067"><ele>1369.5</ele><time>2026-04-26T13:22:35.04Z</time></trkpt><trkpt lat="46.5491467" lon="12.49842"><ele>1372.3333333333333</ele><time>2026-04-26T13:22:36.039Z</time></trkpt><trkpt lat="46.5491617" lon="12.4985183"><ele>1375.1666666666665</ele><time>2026-04-26T13:22:37.04Z</time></trkpt><trkpt lat="46.5491833" lon="12.49862"><ele>1378.0</ele><time>2026-04-26T13:22:38.043Z</time></trkpt><trkpt lat="46.5492033" lon="12.498725"><ele>1379.4285714285713</ele><time>2026-04-26T13:22:39.039Z</time></trkpt><trkpt lat="46.5492133" lon="12.4988283"><ele>1380.857142857143</ele><time>2026-04-26T13:22:40.036Z</time></trkpt><trkpt lat="46.5492233" lon="12.4989217"><ele>1382.2857142857142</ele><time>2026-04-26T13:22:41.042Z</time></trkpt><trkpt lat="46.5492367" lon="12.4990133"><ele>1383.7142857142858</ele><time>2026-04-26T13:22:42.041Z</time></trkpt><trkpt lat="46.5492567" lon="12.4991033"><ele>1385.142857142857</ele><time>2026-04-26T13:22:43.041Z</time></trkpt><trkpt lat="46.54928" lon="12.49919"><ele>1386.5714285714287</ele><time>2026-04-26T13:22:44.044Z</time></trkpt><trkpt lat="46.5493067" lon="12.499275"><ele>1388.0</ele><time>2026-04-26T13:22:45.038Z</time></trkpt><trkpt lat="46.5493317" lon="12.4993633"><ele>1388.0</ele><time>2026-04-26T13:22:46.04Z</time></trkpt><trkpt lat="46.549355" lon="12.4995233"><ele>1388.0</ele><time>2026-04-26T13:22:48.041Z</time></trkpt><trkpt lat="46.5493417" lon="12.4996683"><ele>1388.0</ele><time>2026-04-26T13:22:50.04Z</time></trkpt><trkpt lat="46.5492483" lon="12.499675"><ele>1388.0</ele><time>2026-04-26T13:22:53.039Z</time></trkpt><trkpt lat="46.5491933" lon="12.4995967"><ele>1388.0</ele><time>2026-04-26T13:22:54.041Z</time></trkpt><trkpt lat="46.5491433" lon="12.4995017"><ele>1388.0</ele><time>2026-04-26T13:22:55.04Z</time></trkpt><trkpt lat="46.5491" lon="12.4994233"><ele>1388.0</ele><time>2026-04-26T13:22:56.04Z</time></trkpt><trkpt lat="46.54901" lon="12.49931"><ele>1388.0</ele><time>2026-04-26T13:22:58.04Z</time></trkpt><trkpt lat="46.5489067" lon="12.4992183"><ele>1388.0</ele><time>2026-04-26T13:23:00.039Z</time></trkpt><trkpt lat="46.5488267" lon="12.4991283"><ele>1388.0</ele><time>2026-04-26T13:23:02.041Z</time></trkpt><trkpt lat="46.548745" lon="12.4990633"><ele>1391.6000000000001</ele><time>2026-04-26T13:23:04.039Z</time></trkpt><trkpt lat="46.5486533" lon="12.4990283"><ele>1395.2</ele><time>2026-04-26T13:23:06.043Z</time></trkpt><trkpt lat="46.5485517" lon="12.4990117"><ele>1398.8</ele><time>2026-04-26T13:23:08.042Z</time></trkpt><trkpt lat="46.5484467" lon="12.4989883"><ele>1402.4</ele><time>2026-04-26T13:23:10.041Z</time></trkpt><trkpt lat="46.54835" lon="12.4989783"><ele>1406.0</ele><time>2026-04-26T13:23:12.039Z</time></trkpt><trkpt lat="46.54826" lon="12.499"><ele>1406.0</ele><time>2026-04-26T13:23:14.042Z</time></trkpt><trkpt lat="46.54818" lon="12.499015"><ele>1406.0</ele><time>2026-04-26T13:23:16.037Z</time></trkpt><trkpt lat="46.5481083" lon="12.499045"><ele>1406.0</ele><time>2026-04-26T13:23:18.042Z</time></trkpt><trkpt lat="46.54804" lon="12.499085"><ele>1406.0</ele><time>2026-04-26T13:23:20.042Z</time></trkpt><trkpt lat="46.5479883" lon="12.499195"><ele>1406.0</ele><time>2026-04-26T13:23:22.038Z</time></trkpt><trkpt lat="46.548005" lon="12.49934"><ele>1406.0</ele><time>2026-04-26T13:23:25.041Z</time></trkpt><trkpt lat="46.5480433" lon="12.4994233"><ele>1406.0</ele><time>2026-04-26T13:23:26.039Z</time></trkpt><trkpt lat="46.5480633" lon="12.49952"><ele>1406.0</ele><time>2026-04-26T13:23:27.038Z</time></trkpt><trkpt lat="46.5480967" lon="12.4996217"><ele>1406.0</ele><time>2026-04-26T13:23:28.041Z</time></trkpt><trkpt lat="46.5481267" lon="12.4997317"><ele>1406.0</ele><time>2026-04-26T13:23:29.039Z</time></trkpt><trkpt lat="46.5481667" lon="12.499845"><ele>1406.0</ele><time>2026-04-26T13:23:30.043Z</time></trkpt><trkpt lat="46.54821" lon="12.4999667"><ele>1406.0</ele><time>2026-04-26T13:23:31.039Z</time></trkpt><trkpt lat="46.548245" lon="12.5001017"><ele>1408.0</ele><time>2026-04-26T13:23:32.04Z</time></trkpt><trkpt lat="46.54828" lon="12.50025"><ele>1410.0</ele><time>2026-04-26T13:23:33.041Z</time></trkpt><trkpt lat="46.5483133" lon="12.5004"><ele>1412.0</ele><time>2026-04-26T13:23:34.04Z</time></trkpt><trkpt lat="46.5483517" lon="12.5005533"><ele>1414.0</ele><time>2026-04-26T13:23:35.04Z</time></trkpt><trkpt lat="46.5484067" lon="12.5007067"><ele>1416.0</ele><time>2026-04-26T13:23:36.04Z</time></trkpt><trkpt lat="46.5484533" lon="12.5008767"><ele>1418.5</ele><time>2026-04-26T13:23:37.039Z</time></trkpt><trkpt lat="46.54851" lon="12.50102"><ele>1421.0</ele><time>2026-04-26T13:23:38.04Z</time></trkpt><trkpt lat="46.5485617" lon="12.5011783"><ele>1423.5</ele><time>2026-04-26T13:23:39.04Z</time></trkpt><trkpt lat="46.5486167" lon="12.5013417"><ele>1426.0</ele><time>2026-04-26T13:23:40.04Z</time></trkpt><trkpt lat="46.54867" lon="12.50151"><ele>1424.75</ele><time>2026-04-26T13:23:41.04Z</time></trkpt><trkpt lat="46.54873" lon="12.5016683"><ele>1423.5</ele><time>2026-04-26T13:23:42.041Z</time></trkpt><trkpt lat="46.54879" lon="12.5018267"><ele>1422.25</ele><time>2026-04-26T13:23:43.04Z</time></trkpt><trkpt lat="46.5488567" lon="12.5019883"><ele>1421.0</ele><time>2026-04-26T13:23:44.043Z</time></trkpt><trkpt lat="46.5489183" lon="12.5021483"><ele>1421.0</ele><time>2026-04-26T13:23:45.038Z</time></trkpt><trkpt lat="46.548985" lon="12.5023"><ele>1421.0</ele><time>2026-04-26T13:23:46.036Z</time></trkpt><trkpt lat="46.5490583" lon="12.50245"><ele>1421.0</ele><time>2026-04-26T13:23:47.039Z</time></trkpt><trkpt lat="46.54914" lon="12.5026017"><ele>1421.0</ele><time>2026-04-26T13:23:48.04Z</time></trkpt><trkpt lat="46.5492183" lon="12.5027633"><ele>1423.0</ele><time>2026-04-26T13:23:49.04Z</time></trkpt><trkpt lat="46.5492967" lon="12.5029183"><ele>1425.0</ele><time>2026-04-26T13:23:50.04Z</time></trkpt><trkpt lat="46.54937" lon="12.5030867"><ele>1427.0</ele><time>2026-04-26T13:23:51.039Z</time></trkpt><trkpt lat="46.549445" lon="12.5032417"><ele>1429.0</ele><time>2026-04-26T13:23:52.039Z</time></trkpt><trkpt lat="46.54952" lon="12.5033767"><ele>1426.25</ele><time>2026-04-26T13:23:53.04Z</time></trkpt><trkpt lat="46.549605" lon="12.503505"><ele>1423.5</ele><time>2026-04-26T13:23:54.042Z</time></trkpt><trkpt lat="46.5497" lon="12.503635"><ele>1420.75</ele><time>2026-04-26T13:23:55.039Z</time></trkpt><trkpt lat="46.5497867" lon="12.5037717"><ele>1418.0</ele><time>2026-04-26T13:23:56.042Z</time></trkpt><trkpt lat="46.5498633" lon="12.503915"><ele>1418.0</ele><time>2026-04-26T13:23:57.039Z</time></trkpt><trkpt lat="46.5499267" lon="12.504055"><ele>1418.0</ele><time>2026-04-26T13:23:58.037Z</time></trkpt><trkpt lat="46.54998" lon="12.504195"><ele>1418.0</ele><time>2026-04-26T13:23:59.037Z</time></trkpt><trkpt lat="46.5500433" lon="12.5043483"><ele>1418.0</ele><time>2026-04-26T13:24:00.04Z</time></trkpt><trkpt lat="46.5501133" lon="12.5045"><ele>1419.25</ele><time>2026-04-26T13:24:01.041Z</time></trkpt><trkpt lat="46.550195" lon="12.5046317"><ele>1420.5</ele><time>2026-04-26T13:24:02.041Z</time></trkpt><trkpt lat="46.550285" lon="12.50474"><ele>1421.75</ele><time>2026-04-26T13:24:03.043Z</time></trkpt><trkpt lat="46.5503767" lon="12.504835"><ele>1423.0</ele><time>2026-04-26T13:24:04.039Z</time></trkpt><trkpt lat="46.5504533" lon="12.50493"><ele>1419.4</ele><time>2026-04-26T13:24:05.039Z</time></trkpt><trkpt lat="46.5505217" lon="12.5050383"><ele>1415.8000000000002</ele><time>2026-04-26T13:24:06.043Z</time></trkpt><trkpt lat="46.5505767" lon="12.5051667"><ele>1412.2</ele><time>2026-04-26T13:24:07.037Z</time></trkpt><trkpt lat="46.5506117" lon="12.5052967"><ele>1408.6</ele><time>2026-04-26T13:24:08.041Z</time></trkpt><trkpt lat="46.55064" lon="12.5054317"><ele>1405.0</ele><time>2026-04-26T13:24:09.04Z</time></trkpt><trkpt lat="46.5506717" lon="12.505545"><ele>1405.0</ele><time>2026-04-26T13:24:10.041Z</time></trkpt><trkpt lat="46.5507067" lon="12.505645"><ele>1405.0</ele><time>2026-04-26T13:24:11.042Z</time></trkpt><trkpt lat="46.5507333" lon="12.5057317"><ele>1405.0</ele><time>2026-04-26T13:24:12.036Z</time></trkpt><trkpt lat="46.55076" lon="12.505825"><ele>1405.0</ele><time>2026-04-26T13:24:14.041Z</time></trkpt><trkpt lat="46.5508433" lon="12.50584"><ele>1405.0</ele><time>2026-04-26T13:24:17.041Z</time></trkpt><trkpt lat="46.5509767" lon="12.5057833"><ele>1405.0</ele><time>2026-04-26T13:24:19.041Z</time></trkpt><trkpt lat="46.5510683" lon="12.505735"><ele>1405.0</ele><time>2026-04-26T13:24:20.041Z</time></trkpt><trkpt lat="46.5511717" lon="12.5057117"><ele>1405.0</ele><time>2026-04-26T13:24:21.04Z</time></trkpt><trkpt lat="46.5512767" lon="12.505685"><ele>1405.0</ele><time>2026-04-26T13:24:22.038Z</time></trkpt><trkpt lat="46.5513667" lon="12.5056717"><ele>1405.0</ele><time>2026-04-26T13:24:23.037Z</time></trkpt><trkpt lat="46.551445" lon="12.505665"><ele>1405.0</ele><time>2026-04-26T13:24:24.044Z</time></trkpt><trkpt lat="46.5515083" lon="12.5056367"><ele>1405.0</ele><time>2026-04-26T13:24:25.038Z</time></trkpt><trkpt lat="46.5515633" lon="12.5055783"><ele>1402.6</ele><time>2026-04-26T13:24:26.044Z</time></trkpt><trkpt lat="46.5516183" lon="12.5054917"><ele>1400.2</ele><time>2026-04-26T13:24:27.04Z</time></trkpt><trkpt lat="46.5516767" lon="12.5053833"><ele>1397.8000000000002</ele><time>2026-04-26T13:24:28.038Z</time></trkpt><trkpt lat="46.5517367" lon="12.5052717"><ele>1395.4</ele><time>2026-04-26T13:24:29.036Z</time></trkpt><trkpt lat="46.5518033" lon="12.5051817"><ele>1393.0</ele><time>2026-04-26T13:24:30.042Z</time></trkpt><trkpt lat="46.5518917" lon="12.5050983"><ele>1390.25</ele><time>2026-04-26T13:24:31.036Z</time></trkpt><trkpt lat="46.5519933" lon="12.505045"><ele>1387.5</ele><time>2026-04-26T13:24:32.042Z</time></trkpt><trkpt lat="46.5520983" lon="12.5049983"><ele>1384.75</ele><time>2026-04-26T13:24:33.04Z</time></trkpt><trkpt lat="46.55222" lon="12.5049667"><ele>1382.0</ele><time>2026-04-26T13:24:34.042Z</time></trkpt><trkpt lat="46.552345" lon="12.5048983"><ele>1381.1999999999998</ele><time>2026-04-26T13:24:35.04Z</time></trkpt><trkpt lat="46.5524633" lon="12.5048367"><ele>1380.4</ele><time>2026-04-26T13:24:36.04Z</time></trkpt><trkpt lat="46.5525617" lon="12.504765"><ele>1379.6</ele><time>2026-04-26T13:24:37.04Z</time></trkpt><trkpt lat="46.55264" lon="12.5046983"><ele>1378.8000000000002</ele><time>2026-04-26T13:24:38.041Z</time></trkpt><trkpt lat="46.55272" lon="12.504655"><ele>1378.0</ele><time>2026-04-26T13:24:39.038Z</time></trkpt><trkpt lat="46.5527917" lon="12.5046167"><ele>1378.0</ele><time>2026-04-26T13:24:40.04Z</time></trkpt><trkpt lat="46.552865" lon="12.5045817"><ele>1378.0</ele><time>2026-04-26T13:24:41.042Z</time></trkpt><trkpt lat="46.5529367" lon="12.5045367"><ele>1378.0</ele><time>2026-04-26T13:24:42.035Z</time></trkpt><trkpt lat="46.553005" lon="12.50448"><ele>1378.0</ele><time>2026-04-26T13:24:43.041Z</time></trkpt><trkpt lat="46.55306" lon="12.5044067"><ele>1378.0</ele><time>2026-04-26T13:24:44.043Z</time></trkpt><trkpt lat="46.5531117" lon="12.5043317"><ele>1378.0</ele><time>2026-04-26T13:24:45.039Z</time></trkpt><trkpt lat="46.55314" lon="12.50422"><ele>1376.4</ele><time>2026-04-26T13:24:46.039Z</time></trkpt><trkpt lat="46.55314" lon="12.5040783"><ele>1374.8000000000002</ele><time>2026-04-26T13:24:47.039Z</time></trkpt><trkpt lat="46.5531383" lon="12.50393"><ele>1373.2</ele><time>2026-04-26T13:24:48.036Z</time></trkpt><trkpt lat="46.5531067" lon="12.5037683"><ele>1371.6</ele><time>2026-04-26T13:24:49.04Z</time></trkpt><trkpt lat="46.5530817" lon="12.5036133"><ele>1370.0</ele><time>2026-04-26T13:24:50.039Z</time></trkpt><trkpt lat="46.5530517" lon="12.5034583"><ele>1369.6</ele><time>2026-04-26T13:24:51.04Z</time></trkpt><trkpt lat="46.5530517" lon="12.5033117"><ele>1369.2</ele><time>2026-04-26T13:24:52.035Z</time></trkpt><trkpt lat="46.5530833" lon="12.5031883"><ele>1368.8000000000002</ele><time>2026-04-26T13:24:53.04Z</time></trkpt><trkpt lat="46.553115" lon="12.5030667"><ele>1368.4</ele><time>2026-04-26T13:24:54.04Z</time></trkpt><trkpt lat="46.5531517" lon="12.5029483"><ele>1368.0</ele><time>2026-04-26T13:24:55.041Z</time></trkpt><trkpt lat="46.5531833" lon="12.5028183"><ele>1365.8000000000002</ele><time>2026-04-26T13:24:56.042Z</time></trkpt><trkpt lat="46.5532167" lon="12.5026817"><ele>1363.6</ele><time>2026-04-26T13:24:57.041Z</time></trkpt><trkpt lat="46.5532567" lon="12.5025533"><ele>1361.4</ele><time>2026-04-26T13:24:58.038Z</time></trkpt><trkpt lat="46.55331" lon="12.5024417"><ele>1359.1999999999998</ele><time>2026-04-26T13:24:59.041Z</time></trkpt><trkpt lat="46.5533817" lon="12.5023483"><ele>1357.0</ele><time>2026-04-26T13:25:00.041Z</time></trkpt><trkpt lat="46.5534733" lon="12.5022767"><ele>1357.0</ele><time>2026-04-26T13:25:01.039Z</time></trkpt><trkpt lat="46.5535767" lon="12.5022033"><ele>1357.0</ele><time>2026-04-26T13:25:02.039Z</time></trkpt><trkpt lat="46.5536783" lon="12.5021233"><ele>1357.0</ele><time>2026-04-26T13:25:03.04Z</time></trkpt><trkpt lat="46.5537833" lon="12.5020217"><ele>1357.0</ele><time>2026-04-26T13:25:04.04Z</time></trkpt><trkpt lat="46.5538833" lon="12.5019017"><ele>1355.75</ele><time>2026-04-26T13:25:05.04Z</time></trkpt><trkpt lat="46.5539817" lon="12.50177"><ele>1354.5</ele><time>2026-04-26T13:25:06.039Z</time></trkpt><trkpt lat="46.554075" lon="12.5016133"><ele>1353.25</ele><time>2026-04-26T13:25:07.037Z</time></trkpt><trkpt lat="46.5541717" lon="12.5014583"><ele>1352.0</ele><time>2026-04-26T13:25:08.04Z</time></trkpt><trkpt lat="46.5542683" lon="12.5013067"><ele>1351.75</ele><time>2026-04-26T13:25:09.041Z</time></trkpt><trkpt lat="46.554365" lon="12.501165"><ele>1351.5</ele><time>2026-04-26T13:25:10.035Z</time></trkpt><trkpt lat="46.5544683" lon="12.5010383"><ele>1351.25</ele><time>2026-04-26T13:25:11.039Z</time></trkpt><trkpt lat="46.55458" lon="12.5009183"><ele>1351.0</ele><time>2026-04-26T13:25:12.043Z</time></trkpt><trkpt lat="46.554695" lon="12.5008133"><ele>1351.0</ele><time>2026-04-26T13:25:13.038Z</time></trkpt><trkpt lat="46.5548117" lon="12.5007217"><ele>1351.0</ele><time>2026-04-26T13:25:14.04Z</time></trkpt><trkpt lat="46.55493" lon="12.5006433"><ele>1351.0</ele><time>2026-04-26T13:25:15.042Z</time></trkpt><trkpt lat="46.5550467" lon="12.5005683"><ele>1351.0</ele><time>2026-04-26T13:25:16.036Z</time></trkpt><trkpt lat="46.5551533" lon="12.5005167"><ele>1351.0</ele><time>2026-04-26T13:25:17.039Z</time></trkpt><trkpt lat="46.5552383" lon="12.5004917"><ele>1351.0</ele><time>2026-04-26T13:25:18.04Z</time></trkpt><trkpt lat="46.555315" lon="12.5004683"><ele>1351.0</ele><time>2026-04-26T13:25:19.041Z</time></trkpt><trkpt lat="46.5554017" lon="12.5004667"><ele>1351.0</ele><time>2026-04-26T13:25:20.041Z</time></trkpt><trkpt lat="46.5555" lon="12.5004967"><ele>1351.0</ele><time>2026-04-26T13:25:21.037Z</time></trkpt><trkpt lat="46.5556183" lon="12.50054"><ele>1351.0</ele><time>2026-04-26T13:25:22.039Z</time></trkpt><trkpt lat="46.5557333" lon="12.500575"><ele>1351.0</ele><time>2026-04-26T13:25:23.04Z</time></trkpt><trkpt lat="46.5558383" lon="12.5005767"><ele>1351.0</ele><time>2026-04-26T13:25:24.039Z</time></trkpt><trkpt lat="46.5559383" lon="12.5005683"><ele>1351.0</ele><time>2026-04-26T13:25:25.038Z</time></trkpt><trkpt lat="46.556035" lon="12.50054"><ele>1351.0</ele><time>2026-04-26T13:25:26.042Z</time></trkpt><trkpt lat="46.556135" lon="12.5004733"><ele>1349.75</ele><time>2026-04-26T13:25:27.039Z</time></trkpt><trkpt lat="46.5562383" lon="12.5003733"><ele>1348.5</ele><time>2026-04-26T13:25:28.04Z</time></trkpt><trkpt lat="46.5563467" lon="12.50025"><ele>1347.25</ele><time>2026-04-26T13:25:29.041Z</time></trkpt><trkpt lat="46.5564533" lon="12.5001183"><ele>1346.0</ele><time>2026-04-26T13:25:30.043Z</time></trkpt><trkpt lat="46.5565567" lon="12.5000033"><ele>1346.0</ele><time>2026-04-26T13:25:31.039Z</time></trkpt><trkpt lat="46.55666" lon="12.499895"><ele>1346.0</ele><time>2026-04-26T13:25:32.041Z</time></trkpt><trkpt lat="46.5567617" lon="12.4998133"><ele>1346.0</ele><time>2026-04-26T13:25:33.041Z</time></trkpt><trkpt lat="46.5568717" lon="12.4997583"><ele>1346.0</ele><time>2026-04-26T13:25:34.039Z</time></trkpt><trkpt lat="46.5569983" lon="12.499695"><ele>1345.75</ele><time>2026-04-26T13:25:35.039Z</time></trkpt><trkpt lat="46.557135" lon="12.49966"><ele>1345.5</ele><time>2026-04-26T13:25:36.042Z</time></trkpt><trkpt lat="46.55728" lon="12.4996283"><ele>1345.25</ele><time>2026-04-26T13:25:37.04Z</time></trkpt><trkpt lat="46.557425" lon="12.499565"><ele>1345.0</ele><time>2026-04-26T13:25:38.041Z</time></trkpt><trkpt lat="46.5575567" lon="12.4995417"><ele>1345.0</ele><time>2026-04-26T13:25:39.039Z</time></trkpt><trkpt lat="46.5576933" lon="12.499515"><ele>1345.0</ele><time>2026-04-26T13:25:40.04Z</time></trkpt><trkpt lat="46.55783" lon="12.4995117"><ele>1345.0</ele><time>2026-04-26T13:25:41.037Z</time></trkpt><trkpt lat="46.5579733" lon="12.499505"><ele>1345.0</ele><time>2026-04-26T13:25:42.041Z</time></trkpt><trkpt lat="46.5581117" lon="12.4995133"><ele>1342.0</ele><time>2026-04-26T13:25:43.038Z</time></trkpt><trkpt lat="46.5582483" lon="12.4995283"><ele>1339.0</ele><time>2026-04-26T13:25:44.041Z</time></trkpt><trkpt lat="46.5583883" lon="12.49953"><ele>1336.0</ele><time>2026-04-26T13:25:45.04Z</time></trkpt><trkpt lat="46.5585283" lon="12.499505"><ele>1333.0</ele><time>2026-04-26T13:25:46.039Z</time></trkpt><trkpt lat="46.5586733" lon="12.4994767"><ele>1329.5</ele><time>2026-04-26T13:25:47.039Z</time></trkpt><trkpt lat="46.5588233" lon="12.499455"><ele>1326.0</ele><time>2026-04-26T13:25:48.041Z</time></trkpt><trkpt lat="46.55897" lon="12.4994167"><ele>1322.5</ele><time>2026-04-26T13:25:49.037Z</time></trkpt><trkpt lat="46.559115" lon="12.4993833"><ele>1319.0</ele><time>2026-04-26T13:25:50.037Z</time></trkpt><trkpt lat="46.5592583" lon="12.4993433"><ele>1319.0</ele><time>2026-04-26T13:25:51.038Z</time></trkpt><trkpt lat="46.5593783" lon="12.4993133"><ele>1319.0</ele><time>2026-04-26T13:25:52.036Z</time></trkpt><trkpt lat="46.5594917" lon="12.49927"><ele>1319.0</ele><time>2026-04-26T13:25:53.042Z</time></trkpt><trkpt lat="46.5596033" lon="12.4992133"><ele>1319.0</ele><time>2026-04-26T13:25:54.038Z</time></trkpt><trkpt lat="46.5596983" lon="12.499165"><ele>1319.0</ele><time>2026-04-26T13:25:55.042Z</time></trkpt><trkpt lat="46.5598" lon="12.4991183"><ele>1319.0</ele><time>2026-04-26T13:25:56.041Z</time></trkpt><trkpt lat="46.5599017" lon="12.49911"><ele>1319.0</ele><time>2026-04-26T13:25:57.039Z</time></trkpt><trkpt lat="46.5599983" lon="12.4991017"><ele>1319.0</ele><time>2026-04-26T13:25:58.04Z</time></trkpt><trkpt lat="46.5600883" lon="12.4991283"><ele>1319.0</ele><time>2026-04-26T13:25:59.04Z</time></trkpt><trkpt lat="46.5601733" lon="12.4991767"><ele>1319.0</ele><time>2026-04-26T13:26:00.04Z</time></trkpt><trkpt lat="46.5602517" lon="12.499245"><ele>1319.0</ele><time>2026-04-26T13:26:01.039Z</time></trkpt><trkpt lat="46.5603233" lon="12.4993383"><ele>1319.0</ele><time>2026-04-26T13:26:02.042Z</time></trkpt><trkpt lat="46.5603917" lon="12.4994283"><ele>1319.0</ele><time>2026-04-26T13:26:03.037Z</time></trkpt><trkpt lat="46.5604517" lon="12.4995217"><ele>1319.0</ele><time>2026-04-26T13:26:04.037Z</time></trkpt><trkpt lat="46.5605167" lon="12.49961"><ele>1318.8333333333335</ele><time>2026-04-26T13:26:05.038Z</time></trkpt><trkpt lat="46.5605867" lon="12.4996917"><ele>1318.6666666666667</ele><time>2026-04-26T13:26:06.042Z</time></trkpt><trkpt lat="46.56065" lon="12.4997683"><ele>1318.5</ele><time>2026-04-26T13:26:07.04Z</time></trkpt><trkpt lat="46.5607183" lon="12.4998417"><ele>1318.3333333333333</ele><time>2026-04-26T13:26:08.038Z</time></trkpt><trkpt lat="46.5607867" lon="12.4999267"><ele>1318.1666666666665</ele><time>2026-04-26T13:26:09.04Z</time></trkpt><trkpt lat="46.560845" lon="12.5000283"><ele>1318.0</ele><time>2026-04-26T13:26:10.04Z</time></trkpt><trkpt lat="46.5609017" lon="12.5001217"><ele>1318.0</ele><time>2026-04-26T13:26:11.04Z</time></trkpt><trkpt lat="46.5609517" lon="12.50022"><ele>1318.0</ele><time>2026-04-26T13:26:12.04Z</time></trkpt><trkpt lat="46.5609933" lon="12.5003283"><ele>1318.0</ele><time>2026-04-26T13:26:13.04Z</time></trkpt><trkpt lat="46.5610483" lon="12.5004383"><ele>1318.0</ele><time>2026-04-26T13:26:14.043Z</time></trkpt><trkpt lat="46.5611067" lon="12.5005567"><ele>1318.0</ele><time>2026-04-26T13:26:15.035Z</time></trkpt><trkpt lat="46.5611733" lon="12.50067"><ele>1318.0</ele><time>2026-04-26T13:26:16.039Z</time></trkpt><trkpt lat="46.5612433" lon="12.5007917"><ele>1318.0</ele><time>2026-04-26T13:26:17.037Z</time></trkpt><trkpt lat="46.56132" lon="12.5009167"><ele>1318.0</ele><time>2026-04-26T13:26:18.041Z</time></trkpt><trkpt lat="46.5613883" lon="12.5010667"><ele>1318.0</ele><time>2026-04-26T13:26:19.036Z</time></trkpt><trkpt lat="46.561455" lon="12.5012217"><ele>1317.0</ele><time>2026-04-26T13:26:20.041Z</time></trkpt><trkpt lat="46.5615167" lon="12.50138"><ele>1316.0</ele><time>2026-04-26T13:26:21.038Z</time></trkpt><trkpt lat="46.56158" lon="12.5015517"><ele>1315.0</ele><time>2026-04-26T13:26:22.041Z</time></trkpt><trkpt lat="46.5616533" lon="12.5017217"><ele>1314.0</ele><time>2026-04-26T13:26:23.036Z</time></trkpt><trkpt lat="46.5617217" lon="12.5018733"><ele>1314.0</ele><time>2026-04-26T13:26:24.04Z</time></trkpt><trkpt lat="46.5617817" lon="12.5020117"><ele>1314.0</ele><time>2026-04-26T13:26:25.04Z</time></trkpt><trkpt lat="46.5618417" lon="12.50214"><ele>1314.0</ele><time>2026-04-26T13:26:26.042Z</time></trkpt><trkpt lat="46.561905" lon="12.5022433"><ele>1314.0</ele><time>2026-04-26T13:26:27.038Z</time></trkpt><trkpt lat="46.5619783" lon="12.502325"><ele>1314.0</ele><time>2026-04-26T13:26:28.04Z</time></trkpt><trkpt lat="46.5620533" lon="12.5023983"><ele>1313.8000000000002</ele><time>2026-04-26T13:26:29.04Z</time></trkpt><trkpt lat="46.5621517" lon="12.5024517"><ele>1313.6000000000001</ele><time>2026-04-26T13:26:30.039Z</time></trkpt><trkpt lat="46.5622517" lon="12.5024933"><ele>1313.4</ele><time>2026-04-26T13:26:31.038Z</time></trkpt><trkpt lat="46.5623567" lon="12.5025317"><ele>1313.2</ele><time>2026-04-26T13:26:32.036Z</time></trkpt><trkpt lat="46.5624667" lon="12.5025517"><ele>1313.0</ele><time>2026-04-26T13:26:33.036Z</time></trkpt><trkpt lat="46.5625733" lon="12.50256"><ele>1313.0</ele><time>2026-04-26T13:26:34.04Z</time></trkpt><trkpt lat="46.562685" lon="12.502535"><ele>1313.0</ele><time>2026-04-26T13:26:35.042Z</time></trkpt><trkpt lat="46.5628" lon="12.5024883"><ele>1313.0</ele><time>2026-04-26T13:26:36.043Z</time></trkpt><trkpt lat="46.5629167" lon="12.5024217"><ele>1313.0</ele><time>2026-04-26T13:26:37.037Z</time></trkpt><trkpt lat="46.5630183" lon="12.5023517"><ele>1311.8333333333335</ele><time>2026-04-26T13:26:38.043Z</time></trkpt><trkpt lat="46.5630983" lon="12.5022883"><ele>1310.6666666666667</ele><time>2026-04-26T13:26:39.041Z</time></trkpt><trkpt lat="46.5631683" lon="12.502275"><ele>1309.5</ele><time>2026-04-26T13:26:40.04Z</time></trkpt><trkpt lat="46.5632433" lon="12.5022733"><ele>1308.3333333333333</ele><time>2026-04-26T13:26:41.041Z</time></trkpt><trkpt lat="46.5633167" lon="12.5023233"><ele>1307.1666666666665</ele><time>2026-04-26T13:26:42.04Z</time></trkpt><trkpt lat="46.5633967" lon="12.50241"><ele>1306.0</ele><time>2026-04-26T13:26:43.04Z</time></trkpt><trkpt lat="46.563475" lon="12.502475"><ele>1306.0</ele><time>2026-04-26T13:26:44.042Z</time></trkpt><trkpt lat="46.56355" lon="12.502535"><ele>1306.0</ele><time>2026-04-26T13:26:45.04Z</time></trkpt><trkpt lat="46.5636183" lon="12.5025983"><ele>1306.0</ele><time>2026-04-26T13:26:46.037Z</time></trkpt><trkpt lat="46.5636883" lon="12.5026633"><ele>1306.0</ele><time>2026-04-26T13:26:47.038Z</time></trkpt><trkpt lat="46.5637633" lon="12.502725"><ele>1306.0</ele><time>2026-04-26T13:26:48.041Z</time></trkpt><trkpt lat="46.5638433" lon="12.50279"><ele>1306.0</ele><time>2026-04-26T13:26:49.039Z</time></trkpt><trkpt lat="46.5639183" lon="12.5028633"><ele>1306.1666666666665</ele><time>2026-04-26T13:26:50.041Z</time></trkpt><trkpt lat="46.5639933" lon="12.5029333"><ele>1306.3333333333333</ele><time>2026-04-26T13:26:51.04Z</time></trkpt><trkpt lat="46.5640683" lon="12.503005"><ele>1306.5</ele><time>2026-04-26T13:26:52.035Z</time></trkpt><trkpt lat="46.5641367" lon="12.5030767"><ele>1306.6666666666667</ele><time>2026-04-26T13:26:53.04Z</time></trkpt><trkpt lat="46.5642033" lon="12.50316"><ele>1306.8333333333335</ele><time>2026-04-26T13:26:54.042Z</time></trkpt><trkpt lat="46.5642733" lon="12.5032433"><ele>1307.0</ele><time>2026-04-26T13:26:55.04Z</time></trkpt><trkpt lat="46.5643417" lon="12.5033217"><ele>1307.0</ele><time>2026-04-26T13:26:56.042Z</time></trkpt><trkpt lat="46.5644117" lon="12.5034"><ele>1307.0</ele><time>2026-04-26T13:26:57.041Z</time></trkpt><trkpt lat="46.56448" lon="12.5034783"><ele>1307.0</ele><time>2026-04-26T13:26:58.036Z</time></trkpt><trkpt lat="46.5645467" lon="12.50355"><ele>1307.0</ele><time>2026-04-26T13:26:59.039Z</time></trkpt><trkpt lat="46.5646133" lon="12.5036133"><ele>1307.0</ele><time>2026-04-26T13:27:00.037Z</time></trkpt><trkpt lat="46.5646767" lon="12.5036733"><ele>1307.0</ele><time>2026-04-26T13:27:01.041Z</time></trkpt><trkpt lat="46.5647433" lon="12.5037233"><ele>1307.5</ele><time>2026-04-26T13:27:02.042Z</time></trkpt><trkpt lat="46.564815" lon="12.50376"><ele>1308.0</ele><time>2026-04-26T13:27:03.036Z</time></trkpt><trkpt lat="46.56489" lon="12.5037867"><ele>1308.5</ele><time>2026-04-26T13:27:04.038Z</time></trkpt><trkpt lat="46.5649717" lon="12.5038167"><ele>1309.0</ele><time>2026-04-26T13:27:05.04Z</time></trkpt><trkpt lat="46.56505" lon="12.5038483"><ele>1309.5</ele><time>2026-04-26T13:27:06.038Z</time></trkpt><trkpt lat="46.5651217" lon="12.5038967"><ele>1310.0</ele><time>2026-04-26T13:27:07.038Z</time></trkpt><trkpt lat="46.5652017" lon="12.503955"><ele>1310.0</ele><time>2026-04-26T13:27:08.041Z</time></trkpt><trkpt lat="46.56527" lon="12.504035"><ele>1310.0</ele><time>2026-04-26T13:27:09.035Z</time></trkpt><trkpt lat="46.5653333" lon="12.5041167"><ele>1310.0</ele><time>2026-04-26T13:27:10.035Z</time></trkpt><trkpt lat="46.5653933" lon="12.5042033"><ele>1310.0</ele><time>2026-04-26T13:27:11.036Z</time></trkpt><trkpt lat="46.5654583" lon="12.5042917"><ele>1310.0</ele><time>2026-04-26T13:27:12.043Z</time></trkpt><trkpt lat="46.5655267" lon="12.5043767"><ele>1310.0</ele><time>2026-04-26T13:27:13.038Z</time></trkpt><trkpt lat="46.5656" lon="12.5044683"><ele>1311.2</ele><time>2026-04-26T13:27:14.044Z</time></trkpt><trkpt lat="46.5656733" lon="12.5045567"><ele>1312.4</ele><time>2026-04-26T13:27:15.037Z</time></trkpt><trkpt lat="46.5657483" lon="12.5046517"><ele>1313.6</ele><time>2026-04-26T13:27:16.04Z</time></trkpt><trkpt lat="46.5658233" lon="12.5047467"><ele>1314.8</ele><time>2026-04-26T13:27:17.035Z</time></trkpt><trkpt lat="46.5658967" lon="12.5048333"><ele>1316.0</ele><time>2026-04-26T13:27:18.04Z</time></trkpt><trkpt lat="46.56597" lon="12.5049133"><ele>1316.0</ele><time>2026-04-26T13:27:19.036Z</time></trkpt><trkpt lat="46.5660433" lon="12.505"><ele>1316.0</ele><time>2026-04-26T13:27:20.041Z</time></trkpt><trkpt lat="46.5661183" lon="12.5050867"><ele>1316.0</ele><time>2026-04-26T13:27:21.04Z</time></trkpt><trkpt lat="46.5661883" lon="12.5051717"><ele>1316.0</ele><time>2026-04-26T13:27:22.04Z</time></trkpt><trkpt lat="46.5662533" lon="12.505255"><ele>1316.0</ele><time>2026-04-26T13:27:23.04Z</time></trkpt><trkpt lat="46.5663133" lon="12.5053333"><ele>1316.0</ele><time>2026-04-26T13:27:24.04Z</time></trkpt><trkpt lat="46.5663833" lon="12.505405"><ele>1317.0</ele><time>2026-04-26T13:27:25.038Z</time></trkpt><trkpt lat="46.5664567" lon="12.5054733"><ele>1318.0</ele><time>2026-04-26T13:27:26.039Z</time></trkpt><trkpt lat="46.5665233" lon="12.5055517"><ele>1319.0</ele><time>2026-04-26T13:27:27.04Z</time></trkpt><trkpt lat="46.5665867" lon="12.5056333"><ele>1320.0</ele><time>2026-04-26T13:27:28.036Z</time></trkpt><trkpt lat="46.566635" lon="12.505725"><ele>1321.0</ele><time>2026-04-26T13:27:29.04Z</time></trkpt><trkpt lat="46.566685" lon="12.5058167"><ele>1322.0</ele><time>2026-04-26T13:27:30.038Z</time></trkpt><trkpt lat="46.5667317" lon="12.505905"><ele>1322.0</ele><time>2026-04-26T13:27:31.038Z</time></trkpt><trkpt lat="46.566785" lon="12.5059783"><ele>1322.0</ele><time>2026-04-26T13:27:32.039Z</time></trkpt><trkpt lat="46.5668333" lon="12.5060667"><ele>1322.0</ele><time>2026-04-26T13:27:33.038Z</time></trkpt><trkpt lat="46.5668833" lon="12.5061533"><ele>1322.0</ele><time>2026-04-26T13:27:34.04Z</time></trkpt><trkpt lat="46.5669317" lon="12.5062467"><ele>1322.0</ele><time>2026-04-26T13:27:35.027Z</time></trkpt><trkpt lat="46.5669883" lon="12.5063433"><ele>1322.0</ele><time>2026-04-26T13:27:36.039Z</time></trkpt><trkpt lat="46.5670333" lon="12.5064517"><ele>1323.3333333333335</ele><time>2026-04-26T13:27:37.041Z</time></trkpt><trkpt lat="46.567075" lon="12.5065617"><ele>1324.6666666666667</ele><time>2026-04-26T13:27:38.041Z</time></trkpt><trkpt lat="46.56712" lon="12.5066667"><ele>1326.0</ele><time>2026-04-26T13:27:39.04Z</time></trkpt><trkpt lat="46.5671633" lon="12.5067767"><ele>1327.3333333333333</ele><time>2026-04-26T13:27:40.04Z</time></trkpt><trkpt lat="46.5672067" lon="12.5068817"><ele>1328.6666666666665</ele><time>2026-04-26T13:27:41.04Z</time></trkpt><trkpt lat="46.5672517" lon="12.506985"><ele>1330.0</ele><time>2026-04-26T13:27:42.042Z</time></trkpt><trkpt lat="46.567305" lon="12.5070817"><ele>1330.0</ele><time>2026-04-26T13:27:43.041Z</time></trkpt><trkpt lat="46.56736" lon="12.5071683"><ele>1330.0</ele><time>2026-04-26T13:27:44.043Z</time></trkpt><trkpt lat="46.5674083" lon="12.5072667"><ele>1330.0</ele><time>2026-04-26T13:27:45.037Z</time></trkpt><trkpt lat="46.5674683" lon="12.50736"><ele>1330.0</ele><time>2026-04-26T13:27:46.042Z</time></trkpt><trkpt lat="46.5675317" lon="12.5074583"><ele>1330.0</ele><time>2026-04-26T13:27:47.039Z</time></trkpt><trkpt lat="46.5676117" lon="12.507565"><ele>1330.0</ele><time>2026-04-26T13:27:48.04Z</time></trkpt><trkpt lat="46.56769" lon="12.507675"><ele>1330.0</ele><time>2026-04-26T13:27:49.039Z</time></trkpt><trkpt lat="46.5677617" lon="12.50778"><ele>1330.0</ele><time>2026-04-26T13:27:50.041Z</time></trkpt><trkpt lat="46.5678267" lon="12.5078783"><ele>1330.0</ele><time>2026-04-26T13:27:51.04Z</time></trkpt><trkpt lat="46.5678833" lon="12.5079733"><ele>1330.0</ele><time>2026-04-26T13:27:52.035Z</time></trkpt><trkpt lat="46.5679367" lon="12.5080717"><ele>1333.3333333333333</ele><time>2026-04-26T13:27:53.039Z</time></trkpt><trkpt lat="46.5679683" lon="12.50818"><ele>1336.6666666666665</ele><time>2026-04-26T13:27:54.042Z</time></trkpt><trkpt lat="46.5679883" lon="12.5083017"><ele>1340.0</ele><time>2026-04-26T13:27:55.041Z</time></trkpt><trkpt lat="46.5679983" lon="12.5084267"><ele>1343.3333333333333</ele><time>2026-04-26T13:27:56.04Z</time></trkpt><trkpt lat="46.5679933" lon="12.508555"><ele>1346.6666666666667</ele><time>2026-04-26T13:27:57.04Z</time></trkpt><trkpt lat="46.56798" lon="12.5086833"><ele>1350.0</ele><time>2026-04-26T13:27:58.039Z</time></trkpt><trkpt lat="46.5679617" lon="12.5088067"><ele>1351.5</ele><time>2026-04-26T13:27:59.04Z</time></trkpt><trkpt lat="46.5679517" lon="12.50893"><ele>1353.0</ele><time>2026-04-26T13:28:00.039Z</time></trkpt><trkpt lat="46.5679333" lon="12.50905"><ele>1354.5</ele><time>2026-04-26T13:28:01.039Z</time></trkpt><trkpt lat="46.5679017" lon="12.509165"><ele>1356.0</ele><time>2026-04-26T13:28:02.041Z</time></trkpt><trkpt lat="46.56787" lon="12.5092833"><ele>1357.5</ele><time>2026-04-26T13:28:03.039Z</time></trkpt><trkpt lat="46.5678317" lon="12.5093983"><ele>1359.0</ele><time>2026-04-26T13:28:04.038Z</time></trkpt><trkpt lat="46.5678017" lon="12.50952"><ele>1356.1666666666667</ele><time>2026-04-26T13:28:05.037Z</time></trkpt><trkpt lat="46.56777" lon="12.5096383"><ele>1353.3333333333333</ele><time>2026-04-26T13:28:06.041Z</time></trkpt><trkpt lat="46.567745" lon="12.5097567"><ele>1350.5</ele><time>2026-04-26T13:28:07.041Z</time></trkpt><trkpt lat="46.5677183" lon="12.509875"><ele>1347.6666666666665</ele><time>2026-04-26T13:28:08.04Z</time></trkpt><trkpt lat="46.56769" lon="12.509995"><ele>1344.8333333333333</ele><time>2026-04-26T13:28:09.04Z</time></trkpt><trkpt lat="46.5676617" lon="12.5101133"><ele>1342.0</ele><time>2026-04-26T13:28:10.038Z</time></trkpt><trkpt lat="46.5676317" lon="12.5102333"><ele>1342.0</ele><time>2026-04-26T13:28:11.039Z</time></trkpt><trkpt lat="46.567605" lon="12.5103517"><ele>1342.0</ele><time>2026-04-26T13:28:12.037Z</time></trkpt><trkpt lat="46.5675817" lon="12.5104717"><ele>1342.0</ele><time>2026-04-26T13:28:13.038Z</time></trkpt><trkpt lat="46.567565" lon="12.510595"><ele>1342.0</ele><time>2026-04-26T13:28:14.041Z</time></trkpt><trkpt lat="46.5675567" lon="12.51072"><ele>1342.0</ele><time>2026-04-26T13:28:15.04Z</time></trkpt><trkpt lat="46.5675467" lon="12.5108417"><ele>1342.0</ele><time>2026-04-26T13:28:16.039Z</time></trkpt><trkpt lat="46.5675367" lon="12.5109583"><ele>1342.8333333333333</ele><time>2026-04-26T13:28:17.037Z</time></trkpt><trkpt lat="46.567535" lon="12.51107"><ele>1343.6666666666665</ele><time>2026-04-26T13:28:18.04Z</time></trkpt><trkpt lat="46.56755" lon="12.5111867"><ele>1344.5</ele><time>2026-04-26T13:28:19.041Z</time></trkpt><trkpt lat="46.5675733" lon="12.5113067"><ele>1345.3333333333333</ele><time>2026-04-26T13:28:20.041Z</time></trkpt><trkpt lat="46.5676" lon="12.5114233"><ele>1346.1666666666667</ele><time>2026-04-26T13:28:21.038Z</time></trkpt><trkpt lat="46.5676317" lon="12.5115433"><ele>1347.0</ele><time>2026-04-26T13:28:22.038Z</time></trkpt><trkpt lat="46.56766" lon="12.51166"><ele>1347.5</ele><time>2026-04-26T13:28:23.038Z</time></trkpt><trkpt lat="46.5676883" lon="12.5117817"><ele>1348.0</ele><time>2026-04-26T13:28:24.042Z</time></trkpt><trkpt lat="46.5677033" lon="12.511905"><ele>1348.5</ele><time>2026-04-26T13:28:25.04Z</time></trkpt><trkpt lat="46.5677133" lon="12.5120333"><ele>1349.0</ele><time>2026-04-26T13:28:26.04Z</time></trkpt><trkpt lat="46.5677217" lon="12.5121567"><ele>1349.5</ele><time>2026-04-26T13:28:27.04Z</time></trkpt><trkpt lat="46.56773" lon="12.5122783"><ele>1350.0</ele><time>2026-04-26T13:28:28.036Z</time></trkpt><trkpt lat="46.5677417" lon="12.5124"><ele>1350.4285714285713</ele><time>2026-04-26T13:28:29.041Z</time></trkpt><trkpt lat="46.567755" lon="12.51252"><ele>1350.857142857143</ele><time>2026-04-26T13:28:30.039Z</time></trkpt><trkpt lat="46.56776" lon="12.51263"><ele>1351.2857142857142</ele><time>2026-04-26T13:28:31.04Z</time></trkpt><trkpt lat="46.567765" lon="12.51273"><ele>1351.7142857142858</ele><time>2026-04-26T13:28:32.043Z</time></trkpt><trkpt lat="46.567765" lon="12.5128283"><ele>1352.142857142857</ele><time>2026-04-26T13:28:33.04Z</time></trkpt><trkpt lat="46.5677583" lon="12.5129283"><ele>1352.5714285714287</ele><time>2026-04-26T13:28:34.039Z</time></trkpt><trkpt lat="46.5677417" lon="12.5130333"><ele>1353.0</ele><time>2026-04-26T13:28:35.036Z</time></trkpt><trkpt lat="46.567725" lon="12.5131417"><ele>1354.5</ele><time>2026-04-26T13:28:36.042Z</time></trkpt><trkpt lat="46.5677067" lon="12.5132517"><ele>1356.0</ele><time>2026-04-26T13:28:37.04Z</time></trkpt><trkpt lat="46.5676917" lon="12.513365"><ele>1357.5</ele><time>2026-04-26T13:28:38.039Z</time></trkpt><trkpt lat="46.5676767" lon="12.5134767"><ele>1359.0</ele><time>2026-04-26T13:28:39.04Z</time></trkpt><trkpt lat="46.5676617" lon="12.5135883"><ele>1360.5</ele><time>2026-04-26T13:28:40.042Z</time></trkpt><trkpt lat="46.5676533" lon="12.5137017"><ele>1362.0</ele><time>2026-04-26T13:28:41.036Z</time></trkpt><trkpt lat="46.56764" lon="12.5138083"><ele>1363.6666666666667</ele><time>2026-04-26T13:28:42.041Z</time></trkpt><trkpt lat="46.567625" lon="12.5139167"><ele>1365.3333333333333</ele><time>2026-04-26T13:28:43.04Z</time></trkpt><trkpt lat="46.567605" lon="12.514025"><ele>1367.0</ele><time>2026-04-26T13:28:44.042Z</time></trkpt><trkpt lat="46.567575" lon="12.5141267"><ele>1368.6666666666665</ele><time>2026-04-26T13:28:45.04Z</time></trkpt><trkpt lat="46.5675367" lon="12.5142233"><ele>1370.3333333333333</ele><time>2026-04-26T13:28:46.039Z</time></trkpt><trkpt lat="46.5674883" lon="12.5143117"><ele>1372.0</ele><time>2026-04-26T13:28:47.038Z</time></trkpt><trkpt lat="46.56744" lon="12.5143967"><ele>1372.0</ele><time>2026-04-26T13:28:48.039Z</time></trkpt><trkpt lat="46.5673933" lon="12.5144717"><ele>1372.0</ele><time>2026-04-26T13:28:49.04Z</time></trkpt><trkpt lat="46.5673283" lon="12.5145917"><ele>1372.0</ele><time>2026-04-26T13:28:51.037Z</time></trkpt><trkpt lat="46.5672867" lon="12.5147183"><ele>1372.0</ele><time>2026-04-26T13:28:53.038Z</time></trkpt><trkpt lat="46.5672267" lon="12.51487"><ele>1372.0</ele><time>2026-04-26T13:28:55.037Z</time></trkpt><trkpt lat="46.5671867" lon="12.5149467"><ele>1372.6666666666665</ele><time>2026-04-26T13:28:56.04Z</time></trkpt><trkpt lat="46.567145" lon="12.51503"><ele>1373.3333333333333</ele><time>2026-04-26T13:28:57.041Z</time></trkpt><trkpt lat="46.5671017" lon="12.5151167"><ele>1374.0</ele><time>2026-04-26T13:28:58.039Z</time></trkpt><trkpt lat="46.5670567" lon="12.5152083"><ele>1374.6666666666667</ele><time>2026-04-26T13:28:59.04Z</time></trkpt><trkpt lat="46.56701" lon="12.515305"><ele>1375.3333333333335</ele><time>2026-04-26T13:29:00.039Z</time></trkpt><trkpt lat="46.5669567" lon="12.5153967"><ele>1376.0</ele><time>2026-04-26T13:29:01.037Z</time></trkpt><trkpt lat="46.5668967" lon="12.5155033"><ele>1376.0</ele><time>2026-04-26T13:29:02.044Z</time></trkpt><trkpt lat="46.5668383" lon="12.5156067"><ele>1376.0</ele><time>2026-04-26T13:29:03.034Z</time></trkpt><trkpt lat="46.566785" lon="12.5157083"><ele>1376.0</ele><time>2026-04-26T13:29:04.039Z</time></trkpt><trkpt lat="46.5667367" lon="12.5158067"><ele>1376.0</ele><time>2026-04-26T13:29:05.041Z</time></trkpt><trkpt lat="46.566685" lon="12.5158967"><ele>1376.0</ele><time>2026-04-26T13:29:06.037Z</time></trkpt><trkpt lat="46.56664" lon="12.515995"><ele>1376.0</ele><time>2026-04-26T13:29:07.039Z</time></trkpt><trkpt lat="46.5666033" lon="12.5161"><ele>1376.0000000000002</ele><time>2026-04-26T13:29:08.039Z</time></trkpt><trkpt lat="46.56657" lon="12.516205"><ele>1376.0</ele><time>2026-04-26T13:29:09.036Z</time></trkpt><trkpt lat="46.56655" lon="12.51631"><ele>1376.0</ele><time>2026-04-26T13:29:10.036Z</time></trkpt><trkpt lat="46.566535" lon="12.5164117"><ele>1376.0</ele><time>2026-04-26T13:29:11.039Z</time></trkpt><trkpt lat="46.5665133" lon="12.5165117"><ele>1376.0</ele><time>2026-04-26T13:29:12.039Z</time></trkpt><trkpt lat="46.5665017" lon="12.5166117"><ele>1376.0000000000002</ele><time>2026-04-26T13:29:13.038Z</time></trkpt><trkpt lat="46.566495" lon="12.51671"><ele>1376.0</ele><time>2026-04-26T13:29:14.041Z</time></trkpt><trkpt lat="46.5664817" lon="12.5168067"><ele>1377.1666666666667</ele><time>2026-04-26T13:29:15.039Z</time></trkpt><trkpt lat="46.5664767" lon="12.5169067"><ele>1378.3333333333335</ele><time>2026-04-26T13:29:16.04Z</time></trkpt><trkpt lat="46.5664717" lon="12.5170133"><ele>1379.5</ele><time>2026-04-26T13:29:17.039Z</time></trkpt><trkpt lat="46.5664733" lon="12.5171267"><ele>1380.6666666666667</ele><time>2026-04-26T13:29:18.042Z</time></trkpt><trkpt lat="46.56649" lon="12.517255"><ele>1381.8333333333333</ele><time>2026-04-26T13:29:19.04Z</time></trkpt><trkpt lat="46.566505" lon="12.517385"><ele>1383.0</ele><time>2026-04-26T13:29:20.041Z</time></trkpt><trkpt lat="46.5665267" lon="12.5175217"><ele>1383.0</ele><time>2026-04-26T13:29:21.04Z</time></trkpt><trkpt lat="46.5665467" lon="12.51766"><ele>1383.0</ele><time>2026-04-26T13:29:22.041Z</time></trkpt><trkpt lat="46.5665667" lon="12.5178033"><ele>1383.0</ele><time>2026-04-26T13:29:23.04Z</time></trkpt><trkpt lat="46.56659" lon="12.51794"><ele>1383.0</ele><time>2026-04-26T13:29:24.041Z</time></trkpt><trkpt lat="46.56662" lon="12.5180683"><ele>1383.0</ele><time>2026-04-26T13:29:25.039Z</time></trkpt><trkpt lat="46.5666617" lon="12.51818"><ele>1381.6000000000001</ele><time>2026-04-26T13:29:26.044Z</time></trkpt><trkpt lat="46.5667267" lon="12.5182867"><ele>1380.2</ele><time>2026-04-26T13:29:27.04Z</time></trkpt><trkpt lat="46.56681" lon="12.5183733"><ele>1378.8</ele><time>2026-04-26T13:29:28.039Z</time></trkpt><trkpt lat="46.5668933" lon="12.51845"><ele>1377.4</ele><time>2026-04-26T13:29:29.04Z</time></trkpt><trkpt lat="46.566975" lon="12.5185317"><ele>1376.0</ele><time>2026-04-26T13:29:30.04Z</time></trkpt><trkpt lat="46.56704" lon="12.5186417"><ele>1381.4</ele><time>2026-04-26T13:29:31.041Z</time></trkpt><trkpt lat="46.5670867" lon="12.5187583"><ele>1386.8</ele><time>2026-04-26T13:29:32.041Z</time></trkpt><trkpt lat="46.5671133" lon="12.518885"><ele>1392.2</ele><time>2026-04-26T13:29:33.035Z</time></trkpt><trkpt lat="46.5671217" lon="12.5190217"><ele>1397.6000000000001</ele><time>2026-04-26T13:29:34.038Z</time></trkpt><trkpt lat="46.5671167" lon="12.5191633"><ele>1403.0</ele><time>2026-04-26T13:29:35.039Z</time></trkpt><trkpt lat="46.567105" lon="12.5193083"><ele>1403.0</ele><time>2026-04-26T13:29:36.039Z</time></trkpt><trkpt lat="46.5670917" lon="12.5194567"><ele>1403.0</ele><time>2026-04-26T13:29:37.04Z</time></trkpt><trkpt lat="46.5670717" lon="12.5195917"><ele>1403.0</ele><time>2026-04-26T13:29:38.042Z</time></trkpt><trkpt lat="46.567055" lon="12.5197167"><ele>1403.0</ele><time>2026-04-26T13:29:39.041Z</time></trkpt><trkpt lat="46.567045" lon="12.519835"><ele>1403.0</ele><time>2026-04-26T13:29:40.036Z</time></trkpt><trkpt lat="46.56703" lon="12.5199467"><ele>1403.0</ele><time>2026-04-26T13:29:41.041Z</time></trkpt><trkpt lat="46.56702" lon="12.5200533"><ele>1401.4285714285713</ele><time>2026-04-26T13:29:42.04Z</time></trkpt><trkpt lat="46.5670167" lon="12.520145"><ele>1399.857142857143</ele><time>2026-04-26T13:29:43.04Z</time></trkpt><trkpt lat="46.5670183" lon="12.52024"><ele>1398.2857142857142</ele><time>2026-04-26T13:29:44.041Z</time></trkpt><trkpt lat="46.5670183" lon="12.5203383"><ele>1396.7142857142858</ele><time>2026-04-26T13:29:45.039Z</time></trkpt><trkpt lat="46.5670217" lon="12.5204383"><ele>1395.142857142857</ele><time>2026-04-26T13:29:46.037Z</time></trkpt><trkpt lat="46.5670267" lon="12.5205333"><ele>1393.5714285714284</ele><time>2026-04-26T13:29:47.038Z</time></trkpt><trkpt lat="46.567045" lon="12.52069"><ele>1392.0</ele><time>2026-04-26T13:29:49.038Z</time></trkpt><trkpt lat="46.56706" lon="12.5208267"><ele>1392.0</ele><time>2026-04-26T13:29:51.038Z</time></trkpt><trkpt lat="46.567055" lon="12.5210417"><ele>1392.0</ele><time>2026-04-26T13:29:54.044Z</time></trkpt><trkpt lat="46.5669883" lon="12.5211633"><ele>1392.0</ele><time>2026-04-26T13:29:56.029Z</time></trkpt><trkpt lat="46.5668883" lon="12.5212933"><ele>1392.0</ele><time>2026-04-26T13:29:58.027Z</time></trkpt><trkpt lat="46.5668433" lon="12.52137"><ele>1390.142857142857</ele><time>2026-04-26T13:29:59.029Z</time></trkpt><trkpt lat="46.5668033" lon="12.52145"><ele>1388.2857142857142</ele><time>2026-04-26T13:30:00.027Z</time></trkpt><trkpt lat="46.56676" lon="12.521525"><ele>1386.4285714285716</ele><time>2026-04-26T13:30:01.027Z</time></trkpt><trkpt lat="46.5667133" lon="12.5215967"><ele>1384.5714285714284</ele><time>2026-04-26T13:30:02.027Z</time></trkpt><trkpt lat="46.5666617" lon="12.5216683"><ele>1382.7142857142858</ele><time>2026-04-26T13:30:03.039Z</time></trkpt><trkpt lat="46.5666133" lon="12.5217617"><ele>1380.857142857143</ele><time>2026-04-26T13:30:04.04Z</time></trkpt><trkpt lat="46.5665783" lon="12.521875"><ele>1379.0</ele><time>2026-04-26T13:30:05.04Z</time></trkpt><trkpt lat="46.5665333" lon="12.5219917"><ele>1378.3333333333335</ele><time>2026-04-26T13:30:06.041Z</time></trkpt><trkpt lat="46.566455" lon="12.5220683"><ele>1377.6666666666667</ele><time>2026-04-26T13:30:07.04Z</time></trkpt><trkpt lat="46.5663867" lon="12.5221667"><ele>1377.0</ele><time>2026-04-26T13:30:08.041Z</time></trkpt><trkpt lat="46.5663233" lon="12.5222533"><ele>1376.3333333333333</ele><time>2026-04-26T13:30:09.039Z</time></trkpt><trkpt lat="46.5662717" lon="12.5223267"><ele>1375.6666666666665</ele><time>2026-04-26T13:30:10.038Z</time></trkpt><trkpt lat="46.566215" lon="12.5223917"><ele>1375.0</ele><time>2026-04-26T13:30:11.038Z</time></trkpt><trkpt lat="46.5661767" lon="12.5225233"><ele>1375.0</ele><time>2026-04-26T13:30:13.04Z</time></trkpt><trkpt lat="46.566295" lon="12.5226267"><ele>1375.0</ele><time>2026-04-26T13:30:15.04Z</time></trkpt><trkpt lat="46.56636" lon="12.5226167"><ele>1375.0</ele><time>2026-04-26T13:30:16.038Z</time></trkpt><trkpt lat="46.5664617" lon="12.5225267"><ele>1375.0</ele><time>2026-04-26T13:30:17.04Z</time></trkpt><trkpt lat="46.5665517" lon="12.5224633"><ele>1375.0</ele><time>2026-04-26T13:30:18.038Z</time></trkpt><trkpt lat="46.5666417" lon="12.5224033"><ele>1375.0</ele><time>2026-04-26T13:30:19.04Z</time></trkpt><trkpt lat="46.5667367" lon="12.5223317"><ele>1375.0</ele><time>2026-04-26T13:30:20.041Z</time></trkpt><trkpt lat="46.5668217" lon="12.5222383"><ele>1375.0</ele><time>2026-04-26T13:30:21.041Z</time></trkpt><trkpt lat="46.5669" lon="12.5221317"><ele>1375.0</ele><time>2026-04-26T13:30:22.038Z</time></trkpt><trkpt lat="46.56698" lon="12.5220367"><ele>1375.0</ele><time>2026-04-26T13:30:23.04Z</time></trkpt><trkpt lat="46.56706" lon="12.5219617"><ele>1375.0</ele><time>2026-04-26T13:30:24.038Z</time></trkpt><trkpt lat="46.5671483" lon="12.5218867"><ele>1375.0</ele><time>2026-04-26T13:30:25.038Z</time></trkpt><trkpt lat="46.5672433" lon="12.5218317"><ele>1375.0</ele><time>2026-04-26T13:30:26.039Z</time></trkpt><trkpt lat="46.5673367" lon="12.5217917"><ele>1375.0</ele><time>2026-04-26T13:30:27.037Z</time></trkpt><trkpt lat="46.567435" lon="12.521795"><ele>1375.0</ele><time>2026-04-26T13:30:28.038Z</time></trkpt><trkpt lat="46.5675333" lon="12.5218017"><ele>1375.0</ele><time>2026-04-26T13:30:29.035Z</time></trkpt><trkpt lat="46.5676217" lon="12.5217983"><ele>1375.0</ele><time>2026-04-26T13:30:30.041Z</time></trkpt><trkpt lat="46.5677067" lon="12.5217883"><ele>1375.0</ele><time>2026-04-26T13:30:31.038Z</time></trkpt><trkpt lat="46.5677783" lon="12.5217483"><ele>1375.0</ele><time>2026-04-26T13:30:32.042Z</time></trkpt><trkpt lat="46.5678783" lon="12.521745"><ele>1375.0</ele><time>2026-04-26T13:30:34.037Z</time></trkpt><trkpt lat="46.5679067" lon="12.5218467"><ele>1375.0</ele><time>2026-04-26T13:30:36.042Z</time></trkpt><trkpt lat="46.5678233" lon="12.5219667"><ele>1375.0</ele><time>2026-04-26T13:30:38.044Z</time></trkpt><trkpt lat="46.5677433" lon="12.5220133"><ele>1375.0</ele><time>2026-04-26T13:30:39.04Z</time></trkpt><trkpt lat="46.5676683" lon="12.5220517"><ele>1375.0</ele><time>2026-04-26T13:30:40.037Z</time></trkpt><trkpt lat="46.5675833" lon="12.52209"><ele>1375.0</ele><time>2026-04-26T13:30:41.04Z</time></trkpt><trkpt lat="46.5675133" lon="12.5221333"><ele>1375.0</ele><time>2026-04-26T13:30:42.038Z</time></trkpt><trkpt lat="46.5674467" lon="12.52219"><ele>1375.0</ele><time>2026-04-26T13:30:43.04Z</time></trkpt><trkpt lat="46.5673767" lon="12.52226"><ele>1371.8</ele><time>2026-04-26T13:30:44.042Z</time></trkpt><trkpt lat="46.5673067" lon="12.5223333"><ele>1368.6</ele><time>2026-04-26T13:30:45.04Z</time></trkpt><trkpt lat="46.5672433" lon="12.5224267"><ele>1365.4</ele><time>2026-04-26T13:30:46.038Z</time></trkpt><trkpt lat="46.567175" lon="12.522545"><ele>1362.2</ele><time>2026-04-26T13:30:47.039Z</time></trkpt><trkpt lat="46.5671083" lon="12.5226667"><ele>1359.0</ele><time>2026-04-26T13:30:48.039Z</time></trkpt><trkpt lat="46.567045" lon="12.5227917"><ele>1359.2</ele><time>2026-04-26T13:30:49.038Z</time></trkpt><trkpt lat="46.5669867" lon="12.52292"><ele>1359.4</ele><time>2026-04-26T13:30:50.041Z</time></trkpt><trkpt lat="46.56693" lon="12.52305"><ele>1359.6</ele><time>2026-04-26T13:30:51.04Z</time></trkpt><trkpt lat="46.5668683" lon="12.5231733"><ele>1359.8</ele><time>2026-04-26T13:30:52.032Z</time></trkpt><trkpt lat="46.5668117" lon="12.523295"><ele>1360.0</ele><time>2026-04-26T13:30:53.039Z</time></trkpt><trkpt lat="46.56675" lon="12.52341"><ele>1360.0</ele><time>2026-04-26T13:30:54.04Z</time></trkpt><trkpt lat="46.5666933" lon="12.5235167"><ele>1360.0</ele><time>2026-04-26T13:30:55.04Z</time></trkpt><trkpt lat="46.56663" lon="12.52362"><ele>1360.0</ele><time>2026-04-26T13:30:56.043Z</time></trkpt><trkpt lat="46.566565" lon="12.5237183"><ele>1360.0</ele><time>2026-04-26T13:30:57.04Z</time></trkpt><trkpt lat="46.566495" lon="12.5238067"><ele>1360.0</ele><time>2026-04-26T13:30:58.039Z</time></trkpt><trkpt lat="46.566425" lon="12.5238917"><ele>1357.2</ele><time>2026-04-26T13:30:59.036Z</time></trkpt><trkpt lat="46.5663483" lon="12.5239867"><ele>1354.4</ele><time>2026-04-26T13:31:00.043Z</time></trkpt><trkpt lat="46.5662617" lon="12.5240783"><ele>1351.6</ele><time>2026-04-26T13:31:01.039Z</time></trkpt><trkpt lat="46.5661733" lon="12.52417"><ele>1348.8</ele><time>2026-04-26T13:31:02.044Z</time></trkpt><trkpt lat="46.566085" lon="12.52426"><ele>1346.0</ele><time>2026-04-26T13:31:03.039Z</time></trkpt><trkpt lat="46.566005" lon="12.5243483"><ele>1346.0</ele><time>2026-04-26T13:31:04.04Z</time></trkpt><trkpt lat="46.5659267" lon="12.5244333"><ele>1346.0</ele><time>2026-04-26T13:31:05.04Z</time></trkpt><trkpt lat="46.5658533" lon="12.52451"><ele>1346.0</ele><time>2026-04-26T13:31:06.042Z</time></trkpt><trkpt lat="46.5657817" lon="12.5245833"><ele>1346.0</ele><time>2026-04-26T13:31:07.04Z</time></trkpt><trkpt lat="46.56571" lon="12.5246583"><ele>1346.0</ele><time>2026-04-26T13:31:08.041Z</time></trkpt><trkpt lat="46.56564" lon="12.5247267"><ele>1346.0</ele><time>2026-04-26T13:31:09.04Z</time></trkpt><trkpt lat="46.5655733" lon="12.5247933"><ele>1346.1666666666667</ele><time>2026-04-26T13:31:10.04Z</time></trkpt><trkpt lat="46.56551" lon="12.5248617"><ele>1346.3333333333335</ele><time>2026-04-26T13:31:11.038Z</time></trkpt><trkpt lat="46.56545" lon="12.5249317"><ele>1346.5</ele><time>2026-04-26T13:31:12.034Z</time></trkpt><trkpt lat="46.5653933" lon="12.52501"><ele>1346.6666666666667</ele><time>2026-04-26T13:31:13.037Z</time></trkpt><trkpt lat="46.565345" lon="12.525095"><ele>1346.8333333333333</ele><time>2026-04-26T13:31:14.039Z</time></trkpt><trkpt lat="46.5653017" lon="12.5251833"><ele>1347.0</ele><time>2026-04-26T13:31:15.039Z</time></trkpt><trkpt lat="46.5652633" lon="12.5252767"><ele>1344.0</ele><time>2026-04-26T13:31:16.037Z</time></trkpt><trkpt lat="46.5652267" lon="12.5253567"><ele>1341.0</ele><time>2026-04-26T13:31:17.039Z</time></trkpt><trkpt lat="46.565175" lon="12.52547"><ele>1338.0</ele><time>2026-04-26T13:31:19.041Z</time></trkpt><trkpt lat="46.5651283" lon="12.5255367"><ele>1335.0</ele><time>2026-04-26T13:31:22.038Z</time></trkpt><trkpt lat="46.5650733" lon="12.5255983"><ele>1332.0</ele><time>2026-04-26T13:31:24.04Z</time></trkpt><trkpt lat="46.5649717" lon="12.5256983"><ele>1329.0</ele><time>2026-04-26T13:31:26.041Z</time></trkpt><trkpt lat="46.5648983" lon="12.5257483"><ele>1328.3333333333333</ele><time>2026-04-26T13:31:27.039Z</time></trkpt><trkpt lat="46.5648233" lon="12.5258083"><ele>1327.6666666666667</ele><time>2026-04-26T13:31:28.035Z</time></trkpt><trkpt lat="46.5647517" lon="12.5258683"><ele>1327.0</ele><time>2026-04-26T13:31:29.037Z</time></trkpt><trkpt lat="46.5646817" lon="12.5259233"><ele>1326.3333333333335</ele><time>2026-04-26T13:31:30.039Z</time></trkpt><trkpt lat="46.5646217" lon="12.5259867"><ele>1325.6666666666667</ele><time>2026-04-26T13:31:31.038Z</time></trkpt><trkpt lat="46.5645683" lon="12.5260717"><ele>1325.0</ele><time>2026-04-26T13:31:32.04Z</time></trkpt><trkpt lat="46.56451" lon="12.5261683"><ele>1321.6</ele><time>2026-04-26T13:31:33.037Z</time></trkpt><trkpt lat="46.56445" lon="12.52628"><ele>1318.2</ele><time>2026-04-26T13:31:34.034Z</time></trkpt><trkpt lat="46.5643933" lon="12.5264017"><ele>1314.8000000000002</ele><time>2026-04-26T13:31:35.036Z</time></trkpt><trkpt lat="46.5643417" lon="12.52652"><ele>1311.4</ele><time>2026-04-26T13:31:36.039Z</time></trkpt><trkpt lat="46.564295" lon="12.5266317"><ele>1308.0</ele><time>2026-04-26T13:31:37.037Z</time></trkpt><trkpt lat="46.5642517" lon="12.52674"><ele>1308.0</ele><time>2026-04-26T13:31:38.04Z</time></trkpt><trkpt lat="46.56421" lon="12.5268533"><ele>1308.0</ele><time>2026-04-26T13:31:39.039Z</time></trkpt><trkpt lat="46.56417" lon="12.5269617"><ele>1308.0</ele><time>2026-04-26T13:31:40.037Z</time></trkpt><trkpt lat="46.5641283" lon="12.5270633"><ele>1308.0</ele><time>2026-04-26T13:31:41.041Z</time></trkpt><trkpt lat="46.5640983" lon="12.5271667"><ele>1308.0</ele><time>2026-04-26T13:31:42.04Z</time></trkpt><trkpt lat="46.564085" lon="12.5272717"><ele>1308.0</ele><time>2026-04-26T13:31:43.039Z</time></trkpt><trkpt lat="46.5640867" lon="12.5273833"><ele>1305.8333333333333</ele><time>2026-04-26T13:31:44.043Z</time></trkpt><trkpt lat="46.5640867" lon="12.52748"><ele>1303.6666666666667</ele><time>2026-04-26T13:31:45.039Z</time></trkpt><trkpt lat="46.56409" lon="12.5275783"><ele>1301.5</ele><time>2026-04-26T13:31:46.038Z</time></trkpt><trkpt lat="46.56409" lon="12.5276767"><ele>1299.3333333333335</ele><time>2026-04-26T13:31:47.036Z</time></trkpt><trkpt lat="46.5640833" lon="12.5277717"><ele>1297.1666666666667</ele><time>2026-04-26T13:31:48.039Z</time></trkpt><trkpt lat="46.56402" lon="12.527915"><ele>1295.0</ele><time>2026-04-26T13:31:50.041Z</time></trkpt><trkpt lat="46.56392" lon="12.5279933"><ele>1292.4</ele><time>2026-04-26T13:31:52.039Z</time></trkpt><trkpt lat="46.5638083" lon="12.5280517"><ele>1289.8</ele><time>2026-04-26T13:31:54.042Z</time></trkpt><trkpt lat="46.563745" lon="12.52809"><ele>1287.1999999999998</ele><time>2026-04-26T13:31:55.04Z</time></trkpt><trkpt lat="46.5636467" lon="12.5281967"><ele>1284.6</ele><time>2026-04-26T13:31:57.039Z</time></trkpt><trkpt lat="46.5636067" lon="12.5283733"><ele>1282.0</ele><time>2026-04-26T13:31:59.039Z</time></trkpt><trkpt lat="46.5635933" lon="12.528475"><ele>1281.142857142857</ele><time>2026-04-26T13:32:00.038Z</time></trkpt><trkpt lat="46.5635783" lon="12.528575"><ele>1280.2857142857142</ele><time>2026-04-26T13:32:01.037Z</time></trkpt><trkpt lat="46.5635633" lon="12.5286767"><ele>1279.4285714285716</ele><time>2026-04-26T13:32:02.039Z</time></trkpt><trkpt lat="46.56354" lon="12.52878"><ele>1278.5714285714284</ele><time>2026-04-26T13:32:03.036Z</time></trkpt><trkpt lat="46.56351" lon="12.52889"><ele>1277.7142857142856</ele><time>2026-04-26T13:32:04.04Z</time></trkpt><trkpt lat="46.563485" lon="12.528995"><ele>1276.857142857143</ele><time>2026-04-26T13:32:05.038Z</time></trkpt><trkpt lat="46.5634717" lon="12.5290917"><ele>1276.0</ele><time>2026-04-26T13:32:06.039Z</time></trkpt><trkpt lat="46.5634617" lon="12.5292433"><ele>1274.3333333333333</ele><time>2026-04-26T13:32:08.041Z</time></trkpt><trkpt lat="46.563425" lon="12.529425"><ele>1272.6666666666665</ele><time>2026-04-26T13:32:10.039Z</time></trkpt><trkpt lat="46.5634" lon="12.529525"><ele>1271.0</ele><time>2026-04-26T13:32:11.039Z</time></trkpt><trkpt lat="46.5633567" lon="12.5296083"><ele>1269.3333333333333</ele><time>2026-04-26T13:32:12.041Z</time></trkpt><trkpt lat="46.5633033" lon="12.52969"><ele>1267.6666666666667</ele><time>2026-04-26T13:32:13.038Z</time></trkpt><trkpt lat="46.5632567" lon="12.529775"><ele>1266.0</ele><time>2026-04-26T13:32:14.04Z</time></trkpt><trkpt lat="46.5632133" lon="12.5298533"><ele>1264.6666666666667</ele><time>2026-04-26T13:32:15.04Z</time></trkpt><trkpt lat="46.5631317" lon="12.5299717"><ele>1263.3333333333333</ele><time>2026-04-26T13:32:17.038Z</time></trkpt><trkpt lat="46.563065" lon="12.530065"><ele>1262.0</ele><time>2026-04-26T13:32:19.039Z</time></trkpt><trkpt lat="46.5630183" lon="12.5301283"><ele>1260.6666666666665</ele><time>2026-04-26T13:32:21.036Z</time></trkpt><trkpt lat="46.5629817" lon="12.5302183"><ele>1259.3333333333333</ele><time>2026-04-26T13:32:24.041Z</time></trkpt><trkpt lat="46.56292" lon="12.5302933"><ele>1258.0</ele><time>2026-04-26T13:32:28.034Z</time></trkpt><trkpt lat="46.5629617" lon="12.5302133"><ele>1258.0</ele><time>2026-04-26T13:32:36.037Z</time></trkpt><trkpt lat="46.56305" lon="12.5301083"><ele>1258.0</ele><time>2026-04-26T13:32:38.039Z</time></trkpt><trkpt lat="46.5631067" lon="12.5300333"><ele>1258.0</ele><time>2026-04-26T13:32:39.04Z</time></trkpt><trkpt lat="46.56316" lon="12.5299567"><ele>1258.0</ele><time>2026-04-26T13:32:40.035Z</time></trkpt><trkpt lat="46.563205" lon="12.529875"><ele>1258.0</ele><time>2026-04-26T13:32:41.039Z</time></trkpt><trkpt lat="46.5632467" lon="12.5297933"><ele>1258.0</ele><time>2026-04-26T13:32:42.037Z</time></trkpt><trkpt lat="46.5632917" lon="12.52971"><ele>1258.0</ele><time>2026-04-26T13:32:43.038Z</time></trkpt><trkpt lat="46.5633367" lon="12.52964"><ele>1258.0</ele><time>2026-04-26T13:32:44.039Z</time></trkpt><trkpt lat="46.5633817" lon="12.529565"><ele>1258.0</ele><time>2026-04-26T13:32:45.041Z</time></trkpt><trkpt lat="46.5634433" lon="12.5294117"><ele>1258.0</ele><time>2026-04-26T13:32:47.04Z</time></trkpt><trkpt lat="46.563465" lon="12.5293183"><ele>1258.0</ele><time>2026-04-26T13:32:48.039Z</time></trkpt><trkpt lat="46.5634867" lon="12.5292217"><ele>1258.0</ele><time>2026-04-26T13:32:49.044Z</time></trkpt><trkpt lat="46.5635083" lon="12.5291217"><ele>1259.3333333333333</ele><time>2026-04-26T13:32:50.028Z</time></trkpt><trkpt lat="46.563525" lon="12.5290333"><ele>1260.6666666666665</ele><time>2026-04-26T13:32:51.03Z</time></trkpt><trkpt lat="46.5635633" lon="12.5288517"><ele>1262.0</ele><time>2026-04-26T13:32:53.029Z</time></trkpt><trkpt lat="46.563575" lon="12.5287567"><ele>1263.3333333333333</ele><time>2026-04-26T13:32:54.027Z</time></trkpt><trkpt lat="46.5636033" lon="12.5286417"><ele>1264.6666666666667</ele><time>2026-04-26T13:32:56.027Z</time></trkpt><trkpt lat="46.5636283" lon="12.5285083"><ele>1266.0</ele><time>2026-04-26T13:32:58.027Z</time></trkpt><trkpt lat="46.5636317" lon="12.5283933"><ele>1266.0</ele><time>2026-04-26T13:33:00.039Z</time></trkpt><trkpt lat="46.5636517" lon="12.5282633"><ele>1266.0</ele><time>2026-04-26T13:33:04.035Z</time></trkpt><trkpt lat="46.56359" lon="12.5283733"><ele>1266.0</ele><time>2026-04-26T13:33:20.04Z</time></trkpt><trkpt lat="46.563565" lon="12.5284767"><ele>1266.0</ele><time>2026-04-26T13:33:21.039Z</time></trkpt><trkpt lat="46.563535" lon="12.5285817"><ele>1266.0</ele><time>2026-04-26T13:33:22.038Z</time></trkpt><trkpt lat="46.5635067" lon="12.528705"><ele>1266.0</ele><time>2026-04-26T13:33:23.039Z</time></trkpt><trkpt lat="46.5634817" lon="12.5288467"><ele>1266.0</ele><time>2026-04-26T13:33:24.038Z</time></trkpt><trkpt lat="46.5634567" lon="12.5289917"><ele>1266.0</ele><time>2026-04-26T13:33:25.037Z</time></trkpt><trkpt lat="46.5634433" lon="12.529125"><ele>1266.0</ele><time>2026-04-26T13:33:26.041Z</time></trkpt><trkpt lat="46.5634317" lon="12.5292467"><ele>1266.0</ele><time>2026-04-26T13:33:27.039Z</time></trkpt><trkpt lat="46.563405" lon="12.5293683"><ele>1266.0</ele><time>2026-04-26T13:33:28.039Z</time></trkpt><trkpt lat="46.5633667" lon="12.5294767"><ele>1264.857142857143</ele><time>2026-04-26T13:33:29.039Z</time></trkpt><trkpt lat="46.5633233" lon="12.5295783"><ele>1263.7142857142858</ele><time>2026-04-26T13:33:30.04Z</time></trkpt><trkpt lat="46.5632733" lon="12.5296633"><ele>1262.5714285714284</ele><time>2026-04-26T13:33:31.039Z</time></trkpt><trkpt lat="46.5632317" lon="12.5297533"><ele>1261.4285714285716</ele><time>2026-04-26T13:33:32.043Z</time></trkpt><trkpt lat="46.563195" lon="12.5298433"><ele>1260.2857142857144</ele><time>2026-04-26T13:33:33.037Z</time></trkpt><trkpt lat="46.5631533" lon="12.529925"><ele>1259.142857142857</ele><time>2026-04-26T13:33:34.038Z</time></trkpt><trkpt lat="46.563105" lon="12.5299967"><ele>1258.0</ele><time>2026-04-26T13:33:35.04Z</time></trkpt><trkpt lat="46.5630583" lon="12.5300717"><ele>1258.0</ele><time>2026-04-26T13:33:36.04Z</time></trkpt><trkpt lat="46.56301" lon="12.53015"><ele>1258.0</ele><time>2026-04-26T13:33:37.04Z</time></trkpt><trkpt lat="46.562965" lon="12.5302267"><ele>1258.0</ele><time>2026-04-26T13:33:38.039Z</time></trkpt><trkpt lat="46.5629233" lon="12.53031"><ele>1258.0</ele><time>2026-04-26T13:33:39.039Z</time></trkpt><trkpt lat="46.5628867" lon="12.5304"><ele>1258.0</ele><time>2026-04-26T13:33:40.036Z</time></trkpt><trkpt lat="46.5628583" lon="12.5304983"><ele>1258.0</ele><time>2026-04-26T13:33:41.038Z</time></trkpt><trkpt lat="46.5628317" lon="12.530585"><ele>1258.0</ele><time>2026-04-26T13:33:42.044Z</time></trkpt><trkpt lat="46.5627883" lon="12.53071"><ele>1255.4</ele><time>2026-04-26T13:33:44.043Z</time></trkpt><trkpt lat="46.5627317" lon="12.5307883"><ele>1252.8</ele><time>2026-04-26T13:33:47.038Z</time></trkpt><trkpt lat="46.562645" lon="12.5308567"><ele>1250.2</ele><time>2026-04-26T13:33:50.04Z</time></trkpt><trkpt lat="46.5625483" lon="12.5309617"><ele>1247.6</ele><time>2026-04-26T13:33:52.039Z</time></trkpt><trkpt lat="46.5624883" lon="12.5310317"><ele>1245.0</ele><time>2026-04-26T13:33:53.041Z</time></trkpt><trkpt lat="46.56244" lon="12.5311217"><ele>1245.0</ele><time>2026-04-26T13:33:54.043Z</time></trkpt><trkpt lat="46.5623867" lon="12.5312167"><ele>1245.0</ele><time>2026-04-26T13:33:55.038Z</time></trkpt><trkpt lat="46.5623317" lon="12.5313167"><ele>1245.0</ele><time>2026-04-26T13:33:56.039Z</time></trkpt><trkpt lat="46.5622733" lon="12.5314117"><ele>1245.0</ele><time>2026-04-26T13:33:57.04Z</time></trkpt><trkpt lat="46.56221" lon="12.5314917"><ele>1245.0</ele><time>2026-04-26T13:33:58.038Z</time></trkpt><trkpt lat="46.5621467" lon="12.5315783"><ele>1245.0</ele><time>2026-04-26T13:33:59.037Z</time></trkpt><trkpt lat="46.56208" lon="12.5316633"><ele>1244.6666666666667</ele><time>2026-04-26T13:34:00.04Z</time></trkpt><trkpt lat="46.5620267" lon="12.5317983"><ele>1244.3333333333333</ele><time>2026-04-26T13:34:01.038Z</time></trkpt><trkpt lat="46.5619467" lon="12.5318617"><ele>1244.0</ele><time>2026-04-26T13:34:02.039Z</time></trkpt><trkpt lat="46.5618817" lon="12.531915"><ele>1243.6666666666665</ele><time>2026-04-26T13:34:03.038Z</time></trkpt><trkpt lat="46.5618067" lon="12.5319583"><ele>1243.3333333333333</ele><time>2026-04-26T13:34:04.038Z</time></trkpt><trkpt lat="46.56175" lon="12.532015"><ele>1243.0</ele><time>2026-04-26T13:34:05.04Z</time></trkpt><trkpt lat="46.5616883" lon="12.5320817"><ele>1245.6666666666665</ele><time>2026-04-26T13:34:06.039Z</time></trkpt><trkpt lat="46.5616233" lon="12.5321467"><ele>1248.3333333333333</ele><time>2026-04-26T13:34:07.039Z</time></trkpt><trkpt lat="46.5615517" lon="12.5322183"><ele>1251.0</ele><time>2026-04-26T13:34:08.04Z</time></trkpt><trkpt lat="46.5614767" lon="12.5322933"><ele>1253.6666666666667</ele><time>2026-04-26T13:34:09.037Z</time></trkpt><trkpt lat="46.5614067" lon="12.5323783"><ele>1256.3333333333335</ele><time>2026-04-26T13:34:10.037Z</time></trkpt><trkpt lat="46.5613433" lon="12.5324633"><ele>1259.0</ele><time>2026-04-26T13:34:11.035Z</time></trkpt><trkpt lat="46.5612883" lon="12.5325667"><ele>1259.0</ele><time>2026-04-26T13:34:12.04Z</time></trkpt><trkpt lat="46.5612317" lon="12.53267"><ele>1259.0</ele><time>2026-04-26T13:34:13.039Z</time></trkpt><trkpt lat="46.5611583" lon="12.5327617"><ele>1259.0</ele><time>2026-04-26T13:34:14.04Z</time></trkpt><trkpt lat="46.5610833" lon="12.5329033"><ele>1259.0</ele><time>2026-04-26T13:34:15.04Z</time></trkpt><trkpt lat="46.5610233" lon="12.5330667"><ele>1259.0</ele><time>2026-04-26T13:34:16.035Z</time></trkpt><trkpt lat="46.5609517" lon="12.5331967"><ele>1256.6000000000001</ele><time>2026-04-26T13:34:17.039Z</time></trkpt><trkpt lat="46.560895" lon="12.5333183"><ele>1254.2</ele><time>2026-04-26T13:34:18.042Z</time></trkpt><trkpt lat="46.5608433" lon="12.5334433"><ele>1251.8000000000002</ele><time>2026-04-26T13:34:19.038Z</time></trkpt><trkpt lat="46.56082" lon="12.533595"><ele>1249.4</ele><time>2026-04-26T13:34:20.04Z</time></trkpt><trkpt lat="46.5608" lon="12.5337333"><ele>1247.0</ele><time>2026-04-26T13:34:21.039Z</time></trkpt><trkpt lat="46.56079" lon="12.5338717"><ele>1247.0</ele><time>2026-04-26T13:34:22.037Z</time></trkpt><trkpt lat="46.5607717" lon="12.5340117"><ele>1247.0</ele><time>2026-04-26T13:34:23.037Z</time></trkpt><trkpt lat="46.5607517" lon="12.5341417"><ele>1247.0</ele><time>2026-04-26T13:34:24.04Z</time></trkpt><trkpt lat="46.5607367" lon="12.5342517"><ele>1247.0</ele><time>2026-04-26T13:34:25.038Z</time></trkpt><trkpt lat="46.5607367" lon="12.5344383"><ele>1247.0</ele><time>2026-04-26T13:34:27.037Z</time></trkpt><trkpt lat="46.5607417" lon="12.534535"><ele>1246.2857142857142</ele><time>2026-04-26T13:34:28.037Z</time></trkpt><trkpt lat="46.5607417" lon="12.53463"><ele>1245.5714285714284</ele><time>2026-04-26T13:34:29.039Z</time></trkpt><trkpt lat="46.5607417" lon="12.5347267"><ele>1244.8571428571427</ele><time>2026-04-26T13:34:30.041Z</time></trkpt><trkpt lat="46.5607183" lon="12.5348233"><ele>1244.142857142857</ele><time>2026-04-26T13:34:31.034Z</time></trkpt><trkpt lat="46.560685" lon="12.5349317"><ele>1243.4285714285713</ele><time>2026-04-26T13:34:32.039Z</time></trkpt><trkpt lat="46.560655" lon="12.5350283"><ele>1242.7142857142856</ele><time>2026-04-26T13:34:33.038Z</time></trkpt><trkpt lat="46.56059" lon="12.5351"><ele>1242.0</ele><time>2026-04-26T13:34:34.037Z</time></trkpt><trkpt lat="46.5605167" lon="12.5351617"><ele>1241.9999999999998</ele><time>2026-04-26T13:34:35.039Z</time></trkpt><trkpt lat="46.5604583" lon="12.5352067"><ele>1242.0</ele><time>2026-04-26T13:34:36.04Z</time></trkpt><trkpt lat="46.5604067" lon="12.53527"><ele>1242.0</ele><time>2026-04-26T13:34:37.038Z</time></trkpt><trkpt lat="46.5603583" lon="12.535345"><ele>1242.0</ele><time>2026-04-26T13:34:38.039Z</time></trkpt><trkpt lat="46.5603067" lon="12.535415"><ele>1242.0</ele><time>2026-04-26T13:34:39.038Z</time></trkpt><trkpt lat="46.560245" lon="12.5354867"><ele>1241.9999999999998</ele><time>2026-04-26T13:34:40.035Z</time></trkpt><trkpt lat="46.56017" lon="12.5355683"><ele>1242.0</ele><time>2026-04-26T13:34:41.037Z</time></trkpt><trkpt lat="46.5601167" lon="12.53568"><ele>1239.4285714285713</ele><time>2026-04-26T13:34:42.037Z</time></trkpt><trkpt lat="46.5600617" lon="12.5357567"><ele>1236.857142857143</ele><time>2026-04-26T13:34:43.038Z</time></trkpt><trkpt lat="46.5600267" lon="12.5358533"><ele>1234.2857142857142</ele><time>2026-04-26T13:34:44.043Z</time></trkpt><trkpt lat="46.56" lon="12.53595"><ele>1231.7142857142858</ele><time>2026-04-26T13:34:45.041Z</time></trkpt><trkpt lat="46.559975" lon="12.536045"><ele>1229.142857142857</ele><time>2026-04-26T13:34:46.036Z</time></trkpt><trkpt lat="46.55997" lon="12.5361583"><ele>1226.5714285714284</ele><time>2026-04-26T13:34:47.038Z</time></trkpt><trkpt lat="46.5599583" lon="12.5362517"><ele>1224.0</ele><time>2026-04-26T13:34:48.039Z</time></trkpt><trkpt lat="46.5599533" lon="12.5363767"><ele>1223.1666666666667</ele><time>2026-04-26T13:34:49.039Z</time></trkpt><trkpt lat="46.559955" lon="12.5364983"><ele>1222.3333333333333</ele><time>2026-04-26T13:34:50.041Z</time></trkpt><trkpt lat="46.5599617" lon="12.5366083"><ele>1221.5</ele><time>2026-04-26T13:34:51.039Z</time></trkpt><trkpt lat="46.5599617" lon="12.5367167"><ele>1220.6666666666665</ele><time>2026-04-26T13:34:52.038Z</time></trkpt><trkpt lat="46.5599533" lon="12.5368183"><ele>1219.8333333333333</ele><time>2026-04-26T13:34:53.039Z</time></trkpt><trkpt lat="46.5599433" lon="12.536965"><ele>1219.0</ele><time>2026-04-26T13:34:55.04Z</time></trkpt><trkpt lat="46.5599467" lon="12.537065"><ele>1216.6666666666665</ele><time>2026-04-26T13:34:58.034Z</time></trkpt><trkpt lat="46.55991" lon="12.5371417"><ele>1214.3333333333333</ele><time>2026-04-26T13:35:03.039Z</time></trkpt><trkpt lat="46.5598633" lon="12.5372283"><ele>1212.0</ele><time>2026-04-26T13:35:08.04Z</time></trkpt><trkpt lat="46.5597983" lon="12.5372967"><ele>1209.6666666666667</ele><time>2026-04-26T13:35:13.037Z</time></trkpt><trkpt lat="46.559725" lon="12.5374033"><ele>1207.3333333333335</ele><time>2026-04-26T13:35:16.038Z</time></trkpt><trkpt lat="46.5596783" lon="12.53751"><ele>1205.0</ele><time>2026-04-26T13:35:18.041Z</time></trkpt><trkpt lat="46.5596083" lon="12.5375983"><ele>1203.8333333333335</ele><time>2026-04-26T13:35:20.04Z</time></trkpt><trkpt lat="46.5595183" lon="12.5377167"><ele>1202.6666666666667</ele><time>2026-04-26T13:35:22.037Z</time></trkpt><trkpt lat="46.5594617" lon="12.5377683"><ele>1201.5</ele><time>2026-04-26T13:35:23.034Z</time></trkpt><trkpt lat="46.5593833" lon="12.537795"><ele>1200.3333333333333</ele><time>2026-04-26T13:35:24.041Z</time></trkpt><trkpt lat="46.55931" lon="12.5378367"><ele>1199.1666666666665</ele><time>2026-04-26T13:35:25.036Z</time></trkpt><trkpt lat="46.5592417" lon="12.53789"><ele>1198.0</ele><time>2026-04-26T13:35:26.04Z</time></trkpt><trkpt lat="46.55919" lon="12.53798"><ele>1197.0</ele><time>2026-04-26T13:35:27.04Z</time></trkpt><trkpt lat="46.5591317" lon="12.53807"><ele>1196.0</ele><time>2026-04-26T13:35:28.035Z</time></trkpt><trkpt lat="46.5590833" lon="12.538175"><ele>1195.0</ele><time>2026-04-26T13:35:29.037Z</time></trkpt><trkpt lat="46.5590517" lon="12.5382867"><ele>1194.0</ele><time>2026-04-26T13:35:30.04Z</time></trkpt><trkpt lat="46.5590267" lon="12.5384"><ele>1193.0</ele><time>2026-04-26T13:35:31.035Z</time></trkpt><trkpt lat="46.5590033" lon="12.5385233"><ele>1192.0</ele><time>2026-04-26T13:35:32.041Z</time></trkpt><trkpt lat="46.55899" lon="12.5386583"><ele>1189.8</ele><time>2026-04-26T13:35:33.036Z</time></trkpt><trkpt lat="46.5589767" lon="12.5387867"><ele>1187.6</ele><time>2026-04-26T13:35:34.039Z</time></trkpt><trkpt lat="46.558975" lon="12.5389217"><ele>1185.3999999999999</ele><time>2026-04-26T13:35:35.037Z</time></trkpt><trkpt lat="46.5589733" lon="12.5390567"><ele>1183.2</ele><time>2026-04-26T13:35:36.041Z</time></trkpt><trkpt lat="46.5589817" lon="12.5392133"><ele>1181.0</ele><time>2026-04-26T13:35:37.038Z</time></trkpt><trkpt lat="46.5589917" lon="12.53935"><ele>1181.0</ele><time>2026-04-26T13:35:38.041Z</time></trkpt><trkpt lat="46.55899" lon="12.5394767"><ele>1181.0</ele><time>2026-04-26T13:35:39.039Z</time></trkpt><trkpt lat="46.5590117" lon="12.5396267"><ele>1181.0</ele><time>2026-04-26T13:35:40.039Z</time></trkpt><trkpt lat="46.5590283" lon="12.5397533"><ele>1181.0</ele><time>2026-04-26T13:35:41.035Z</time></trkpt><trkpt lat="46.5590383" lon="12.5398617"><ele>1181.0</ele><time>2026-04-26T13:35:42.039Z</time></trkpt><trkpt lat="46.5590583" lon="12.53997"><ele>1181.0</ele><time>2026-04-26T13:35:43.039Z</time></trkpt><trkpt lat="46.5590733" lon="12.54012"><ele>1179.6666666666667</ele><time>2026-04-26T13:35:45.04Z</time></trkpt><trkpt lat="46.5590833" lon="12.540215"><ele>1178.3333333333335</ele><time>2026-04-26T13:35:47.038Z</time></trkpt><trkpt lat="46.5590933" lon="12.5403217"><ele>1177.0</ele><time>2026-04-26T13:35:50.039Z</time></trkpt><trkpt lat="46.5590417" lon="12.5403767"><ele>1175.6666666666667</ele><time>2026-04-26T13:35:53.038Z</time></trkpt><trkpt lat="46.5589583" lon="12.5404233"><ele>1174.3333333333333</ele><time>2026-04-26T13:35:55.04Z</time></trkpt><trkpt lat="46.5588533" lon="12.5404667"><ele>1173.0</ele><time>2026-04-26T13:35:57.038Z</time></trkpt><trkpt lat="46.5587567" lon="12.5405167"><ele>1168.0</ele><time>2026-04-26T13:35:59.039Z</time></trkpt><trkpt lat="46.5586483" lon="12.5405583"><ele>1163.0</ele><time>2026-04-26T13:36:01.039Z</time></trkpt><trkpt lat="46.5585283" lon="12.5406017"><ele>1158.0</ele><time>2026-04-26T13:36:03.039Z</time></trkpt><trkpt lat="46.5584617" lon="12.54062"><ele>1153.0</ele><time>2026-04-26T13:36:04.039Z</time></trkpt><trkpt lat="46.5583967" lon="12.54064"><ele>1148.0</ele><time>2026-04-26T13:36:05.035Z</time></trkpt><trkpt lat="46.5582733" lon="12.5406433"><ele>1148.0</ele><time>2026-04-26T13:36:07.039Z</time></trkpt><trkpt lat="46.5581617" lon="12.5406167"><ele>1148.0</ele><time>2026-04-26T13:36:09.037Z</time></trkpt><trkpt lat="46.55805" lon="12.540585"><ele>1148.0</ele><time>2026-04-26T13:36:11.037Z</time></trkpt><trkpt lat="46.55795" lon="12.540565"><ele>1148.0</ele><time>2026-04-26T13:36:13.036Z</time></trkpt><trkpt lat="46.5578683" lon="12.5406183"><ele>1148.0</ele><time>2026-04-26T13:36:15.04Z</time></trkpt><trkpt lat="46.55781" lon="12.5406833"><ele>1141.2</ele><time>2026-04-26T13:36:17.036Z</time></trkpt><trkpt lat="46.557785" lon="12.5408017"><ele>1134.4</ele><time>2026-04-26T13:36:19.041Z</time></trkpt><trkpt lat="46.5578183" lon="12.5409533"><ele>1127.6000000000001</ele><time>2026-04-26T13:36:21.039Z</time></trkpt><trkpt lat="46.5578583" lon="12.5410967"><ele>1120.8</ele><time>2026-04-26T13:36:23.04Z</time></trkpt><trkpt lat="46.5579333" lon="12.5412183"><ele>1114.0</ele><time>2026-04-26T13:36:25.039Z</time></trkpt><trkpt lat="46.5579817" lon="12.5412783"><ele>1114.0</ele><time>2026-04-26T13:36:26.04Z</time></trkpt><trkpt lat="46.5580333" lon="12.5413333"><ele>1114.0</ele><time>2026-04-26T13:36:27.038Z</time></trkpt><trkpt lat="46.558095" lon="12.5413767"><ele>1114.0</ele><time>2026-04-26T13:36:28.038Z</time></trkpt><trkpt lat="46.5581733" lon="12.541465"><ele>1114.0</ele><time>2026-04-26T13:36:30.037Z</time></trkpt><trkpt lat="46.5581933" lon="12.5415767"><ele>1114.0</ele><time>2026-04-26T13:36:32.041Z</time></trkpt><trkpt lat="46.558155" lon="12.5416833"><ele>1114.0</ele><time>2026-04-26T13:36:34.039Z</time></trkpt><trkpt lat="46.5580767" lon="12.541715"><ele>1114.0</ele><time>2026-04-26T13:36:36.039Z</time></trkpt><trkpt lat="46.5579967" lon="12.541745"><ele>1114.0</ele><time>2026-04-26T13:36:38.039Z</time></trkpt><trkpt lat="46.5579217" lon="12.54178"><ele>1114.0</ele><time>2026-04-26T13:36:40.035Z</time></trkpt><trkpt lat="46.5578467" lon="12.5418"><ele>1114.0</ele><time>2026-04-26T13:36:43.039Z</time></trkpt><trkpt lat="46.557775" lon="12.5418467"><ele>1114.0</ele><time>2026-04-26T13:36:46.039Z</time></trkpt><trkpt lat="46.5577167" lon="12.5418883"><ele>1114.0</ele><time>2026-04-26T13:36:48.039Z</time></trkpt><trkpt lat="46.5576567" lon="12.5419417"><ele>1110.0</ele><time>2026-04-26T13:36:50.042Z</time></trkpt><trkpt lat="46.557555" lon="12.5419833"><ele>1106.0</ele><time>2026-04-26T13:36:52.036Z</time></trkpt><trkpt lat="46.557445" lon="12.5420133"><ele>1102.0</ele><time>2026-04-26T13:36:54.04Z</time></trkpt><trkpt lat="46.557365" lon="12.542025"><ele>1098.0</ele><time>2026-04-26T13:36:56.042Z</time></trkpt><trkpt lat="46.5572917" lon="12.5420183"><ele>1094.0</ele><time>2026-04-26T13:36:58.039Z</time></trkpt><trkpt lat="46.55722" lon="12.5419983"><ele>1090.0</ele><time>2026-04-26T13:37:00.04Z</time></trkpt><trkpt lat="46.5571383" lon="12.5420017"><ele>1090.0</ele><time>2026-04-26T13:37:03.04Z</time></trkpt><trkpt lat="46.5570733" lon="12.5419483"><ele>1090.0</ele><time>2026-04-26T13:37:06.04Z</time></trkpt><trkpt lat="46.55701" lon="12.5418817"><ele>1090.0</ele><time>2026-04-26T13:37:08.041Z</time></trkpt><trkpt lat="46.5569117" lon="12.5417667"><ele>1090.0</ele><time>2026-04-26T13:37:10.038Z</time></trkpt><trkpt lat="46.5568583" lon="12.5416867"><ele>1090.0</ele><time>2026-04-26T13:37:11.039Z</time></trkpt><trkpt lat="46.5568017" lon="12.5416017"><ele>1090.0</ele><time>2026-04-26T13:37:12.042Z</time></trkpt><trkpt lat="46.556745" lon="12.5415083"><ele>1086.5</ele><time>2026-04-26T13:37:13.04Z</time></trkpt><trkpt lat="46.5566917" lon="12.5414133"><ele>1083.0</ele><time>2026-04-26T13:37:14.042Z</time></trkpt><trkpt lat="46.5566367" lon="12.5413217"><ele>1079.5</ele><time>2026-04-26T13:37:15.04Z</time></trkpt><trkpt lat="46.55658" lon="12.54124"><ele>1076.0</ele><time>2026-04-26T13:37:16.04Z</time></trkpt><trkpt lat="46.5565283" lon="12.5411617"><ele>1072.5</ele><time>2026-04-26T13:37:17.039Z</time></trkpt><trkpt lat="46.556485" lon="12.541095"><ele>1069.0</ele><time>2026-04-26T13:37:18.04Z</time></trkpt><trkpt lat="46.55641" lon="12.540995"><ele>1069.0</ele><time>2026-04-26T13:37:20.044Z</time></trkpt><trkpt lat="46.5563333" lon="12.5409817"><ele>1069.0</ele><time>2026-04-26T13:37:22.037Z</time></trkpt><trkpt lat="46.5562683" lon="12.541065"><ele>1069.0</ele><time>2026-04-26T13:37:24.038Z</time></trkpt><trkpt lat="46.5562233" lon="12.5412017"><ele>1069.0</ele><time>2026-04-26T13:37:26.041Z</time></trkpt><trkpt lat="46.55618" lon="12.5413033"><ele>1069.0</ele><time>2026-04-26T13:37:28.037Z</time></trkpt><trkpt lat="46.5561133" lon="12.5413133"><ele>1069.0</ele><time>2026-04-26T13:37:31.038Z</time></trkpt><trkpt lat="46.5560283" lon="12.541235"><ele>1061.6666666666665</ele><time>2026-04-26T13:37:33.035Z</time></trkpt><trkpt lat="46.5559367" lon="12.5411883"><ele>1054.3333333333333</ele><time>2026-04-26T13:37:35.037Z</time></trkpt><trkpt lat="46.5558667" lon="12.541155"><ele>1047.0</ele><time>2026-04-26T13:37:37.039Z</time></trkpt><trkpt lat="46.5558317" lon="12.5410467"><ele>1039.6666666666667</ele><time>2026-04-26T13:37:40.038Z</time></trkpt><trkpt lat="46.5557683" lon="12.5410633"><ele>1032.3333333333335</ele><time>2026-04-26T13:37:43.038Z</time></trkpt><trkpt lat="46.5557433" lon="12.541185"><ele>1025.0</ele><time>2026-04-26T13:37:45.04Z</time></trkpt><trkpt lat="46.555725" lon="12.5413783"><ele>1024.1666666666667</ele><time>2026-04-26T13:37:47.039Z</time></trkpt><trkpt lat="46.555705" lon="12.5414783"><ele>1023.3333333333334</ele><time>2026-04-26T13:37:48.04Z</time></trkpt><trkpt lat="46.555685" lon="12.541585"><ele>1022.5</ele><time>2026-04-26T13:37:49.037Z</time></trkpt><trkpt lat="46.5556617" lon="12.541685"><ele>1021.6666666666667</ele><time>2026-04-26T13:37:50.042Z</time></trkpt><trkpt lat="46.5555983" lon="12.5417867"><ele>1020.8333333333334</ele><time>2026-04-26T13:37:52.039Z</time></trkpt><trkpt lat="46.5554917" lon="12.5417867"><ele>1020.0</ele><time>2026-04-26T13:37:54.041Z</time></trkpt><trkpt lat="46.5554283" lon="12.54175"><ele>1015.0</ele><time>2026-04-26T13:37:55.04Z</time></trkpt><trkpt lat="46.5553683" lon="12.541695"><ele>1010.0</ele><time>2026-04-26T13:37:56.038Z</time></trkpt><trkpt lat="46.555295" lon="12.5415667"><ele>1005.0</ele><time>2026-04-26T13:37:58.036Z</time></trkpt><trkpt lat="46.5552433" lon="12.5414967"><ele>1000.0</ele><time>2026-04-26T13:38:00.04Z</time></trkpt><trkpt lat="46.5551717" lon="12.541545"><ele>995.0</ele><time>2026-04-26T13:38:02.041Z</time></trkpt><trkpt lat="46.5551233" lon="12.5416833"><ele>990.0</ele><time>2026-04-26T13:38:04.039Z</time></trkpt><trkpt lat="46.5551317" lon="12.5418117"><ele>990.0</ele><time>2026-04-26T13:38:05.035Z</time></trkpt><trkpt lat="46.5551467" lon="12.54193"><ele>990.0</ele><time>2026-04-26T13:38:06.04Z</time></trkpt><trkpt lat="46.555175" lon="12.542055"><ele>990.0</ele><time>2026-04-26T13:38:07.041Z</time></trkpt><trkpt lat="46.5552117" lon="12.5421867"><ele>990.0</ele><time>2026-04-26T13:38:08.04Z</time></trkpt><trkpt lat="46.5552533" lon="12.5423217"><ele>990.0</ele><time>2026-04-26T13:38:09.036Z</time></trkpt><trkpt lat="46.5552983" lon="12.54246"><ele>989.6</ele><time>2026-04-26T13:38:10.039Z</time></trkpt><trkpt lat="46.5553467" lon="12.5426"><ele>989.2</ele><time>2026-04-26T13:38:11.041Z</time></trkpt><trkpt lat="46.5553867" lon="12.5427417"><ele>988.8</ele><time>2026-04-26T13:38:12.039Z</time></trkpt><trkpt lat="46.5554283" lon="12.5428817"><ele>988.4</ele><time>2026-04-26T13:38:13.039Z</time></trkpt><trkpt lat="46.5554633" lon="12.5430183"><ele>988.0</ele><time>2026-04-26T13:38:14.04Z</time></trkpt><trkpt lat="46.55549" lon="12.543145"><ele>987.9999999999999</ele><time>2026-04-26T13:38:15.039Z</time></trkpt><trkpt lat="46.5555117" lon="12.5432667"><ele>988.0</ele><time>2026-04-26T13:38:16.037Z</time></trkpt><trkpt lat="46.5555267" lon="12.5433717"><ele>988.0</ele><time>2026-04-26T13:38:17.039Z</time></trkpt><trkpt lat="46.5555517" lon="12.5435517"><ele>988.0</ele><time>2026-04-26T13:38:19.04Z</time></trkpt><trkpt lat="46.5555717" lon="12.54366"><ele>987.9999999999999</ele><time>2026-04-26T13:38:20.041Z</time></trkpt><trkpt lat="46.5556033" lon="12.5437683"><ele>988.0</ele><time>2026-04-26T13:38:21.039Z</time></trkpt><trkpt lat="46.5556467" lon="12.5438833"><ele>983.8</ele><time>2026-04-26T13:38:22.034Z</time></trkpt><trkpt lat="46.555695" lon="12.544"><ele>979.5999999999999</ele><time>2026-04-26T13:38:23.039Z</time></trkpt><trkpt lat="46.555745" lon="12.54412"><ele>975.4000000000001</ele><time>2026-04-26T13:38:24.04Z</time></trkpt><trkpt lat="46.5557883" lon="12.5442467"><ele>971.2</ele><time>2026-04-26T13:38:25.03Z</time></trkpt><trkpt lat="46.5558283" lon="12.54437"><ele>967.0</ele><time>2026-04-26T13:38:26.028Z</time></trkpt><trkpt lat="46.555875" lon="12.5444883"><ele>967.2</ele><time>2026-04-26T13:38:27.03Z</time></trkpt><trkpt lat="46.5559333" lon="12.5445933"><ele>967.4000000000001</ele><time>2026-04-26T13:38:28.028Z</time></trkpt><trkpt lat="46.55601" lon="12.5446883"><ele>967.5999999999999</ele><time>2026-04-26T13:38:29.028Z</time></trkpt><trkpt lat="46.5560883" lon="12.54477"><ele>967.8</ele><time>2026-04-26T13:38:30.028Z</time></trkpt><trkpt lat="46.5561583" lon="12.5448583"><ele>968.0</ele><time>2026-04-26T13:38:31.028Z</time></trkpt><trkpt lat="46.5562233" lon="12.544945"><ele>968.0000000000001</ele><time>2026-04-26T13:38:32.031Z</time></trkpt><trkpt lat="46.5562783" lon="12.545025"><ele>968.0</ele><time>2026-04-26T13:38:33.028Z</time></trkpt><trkpt lat="46.5563333" lon="12.5451017"><ele>968.0</ele><time>2026-04-26T13:38:34.028Z</time></trkpt><trkpt lat="46.55639" lon="12.5451717"><ele>968.0</ele><time>2026-04-26T13:38:35.041Z</time></trkpt><trkpt lat="46.5564583" lon="12.54523"><ele>968.0000000000001</ele><time>2026-04-26T13:38:36.039Z</time></trkpt><trkpt lat="46.556525" lon="12.5452917"><ele>968.0</ele><time>2026-04-26T13:38:37.036Z</time></trkpt><trkpt lat="46.55659" lon="12.54535"><ele>962.8571428571428</ele><time>2026-04-26T13:38:38.042Z</time></trkpt><trkpt lat="46.5566467" lon="12.5454267"><ele>957.7142857142856</ele><time>2026-04-26T13:38:39.039Z</time></trkpt><trkpt lat="46.5566917" lon="12.54552"><ele>952.5714285714286</ele><time>2026-04-26T13:38:40.036Z</time></trkpt><trkpt lat="46.5567317" lon="12.5456183"><ele>947.4285714285713</ele><time>2026-04-26T13:38:41.039Z</time></trkpt><trkpt lat="46.55677" lon="12.5456967"><ele>942.2857142857142</ele><time>2026-04-26T13:38:42.04Z</time></trkpt><trkpt lat="46.5568233" lon="12.5457667"><ele>937.1428571428571</ele><time>2026-04-26T13:38:43.038Z</time></trkpt><trkpt lat="46.55689" lon="12.5458233"><ele>932.0</ele><time>2026-04-26T13:38:44.042Z</time></trkpt><trkpt lat="46.5569633" lon="12.54588"><ele>934.5000000000001</ele><time>2026-04-26T13:38:45.04Z</time></trkpt><trkpt lat="46.5570467" lon="12.5459417"><ele>937.0</ele><time>2026-04-26T13:38:46.04Z</time></trkpt><trkpt lat="46.5571333" lon="12.54599"><ele>939.5</ele><time>2026-04-26T13:38:47.039Z</time></trkpt><trkpt lat="46.5572117" lon="12.5460267"><ele>942.0</ele><time>2026-04-26T13:38:48.043Z</time></trkpt><trkpt lat="46.55729" lon="12.5460567"><ele>944.5000000000001</ele><time>2026-04-26T13:38:49.039Z</time></trkpt><trkpt lat="46.55736" lon="12.5461133"><ele>947.0</ele><time>2026-04-26T13:38:50.04Z</time></trkpt><trkpt lat="46.55742" lon="12.5461983"><ele>941.6666666666667</ele><time>2026-04-26T13:38:51.037Z</time></trkpt><trkpt lat="46.5574767" lon="12.546285"><ele>936.3333333333334</ele><time>2026-04-26T13:38:52.038Z</time></trkpt><trkpt lat="46.5575317" lon="12.5463683"><ele>931.0</ele><time>2026-04-26T13:38:53.036Z</time></trkpt><trkpt lat="46.5575783" lon="12.5464483"><ele>925.6666666666667</ele><time>2026-04-26T13:38:54.042Z</time></trkpt><trkpt lat="46.55762" lon="12.5465383"><ele>920.3333333333334</ele><time>2026-04-26T13:38:55.039Z</time></trkpt><trkpt lat="46.5576617" lon="12.546625"><ele>915.0</ele><time>2026-04-26T13:38:56.04Z</time></trkpt><trkpt lat="46.5577117" lon="12.5467167"><ele>915.0</ele><time>2026-04-26T13:38:57.039Z</time></trkpt><trkpt lat="46.55777" lon="12.5467967"><ele>915.0</ele><time>2026-04-26T13:38:58.037Z</time></trkpt><trkpt lat="46.5578333" lon="12.5468633"><ele>915.0</ele><time>2026-04-26T13:38:59.038Z</time></trkpt><trkpt lat="46.5578967" lon="12.5469233"><ele>915.0</ele><time>2026-04-26T13:39:00.041Z</time></trkpt><trkpt lat="46.5579633" lon="12.5469717"><ele>915.0</ele><time>2026-04-26T13:39:01.04Z</time></trkpt><trkpt lat="46.5580367" lon="12.547005"><ele>915.0</ele><time>2026-04-26T13:39:02.037Z</time></trkpt><trkpt lat="46.5581167" lon="12.5470267"><ele>914.0</ele><time>2026-04-26T13:39:03.039Z</time></trkpt><trkpt lat="46.5582033" lon="12.54704"><ele>913.0</ele><time>2026-04-26T13:39:04.039Z</time></trkpt><trkpt lat="46.558285" lon="12.54705"><ele>912.0</ele><time>2026-04-26T13:39:05.04Z</time></trkpt><trkpt lat="46.5583617" lon="12.5470567"><ele>911.0</ele><time>2026-04-26T13:39:06.04Z</time></trkpt><trkpt lat="46.558435" lon="12.5470667"><ele>910.0</ele><time>2026-04-26T13:39:07.038Z</time></trkpt><trkpt lat="46.5585033" lon="12.54708"><ele>909.0</ele><time>2026-04-26T13:39:08.042Z</time></trkpt><trkpt lat="46.5585683" lon="12.5471017"><ele>909.0</ele><time>2026-04-26T13:39:09.039Z</time></trkpt><trkpt lat="46.55868" lon="12.5471583"><ele>909.0000000000001</ele><time>2026-04-26T13:39:11.039Z</time></trkpt><trkpt lat="46.5587567" lon="12.5472417"><ele>909.0000000000001</ele><time>2026-04-26T13:39:13.041Z</time></trkpt><trkpt lat="46.558805" lon="12.5473083"><ele>909.0</ele><time>2026-04-26T13:39:15.039Z</time></trkpt><trkpt lat="46.558885" lon="12.5473467"><ele>909.0</ele><time>2026-04-26T13:39:17.04Z</time></trkpt><trkpt lat="46.5589933" lon="12.5473983"><ele>909.4000000000001</ele><time>2026-04-26T13:39:19.04Z</time></trkpt><trkpt lat="46.5590717" lon="12.5475017"><ele>909.8000000000001</ele><time>2026-04-26T13:39:21.041Z</time></trkpt><trkpt lat="46.5590917" lon="12.5476717"><ele>910.1999999999999</ele><time>2026-04-26T13:39:23.044Z</time></trkpt><trkpt lat="46.5591083" lon="12.5477617"><ele>910.5999999999999</ele><time>2026-04-26T13:39:24.043Z</time></trkpt><trkpt lat="46.5591283" lon="12.5478533"><ele>911.0</ele><time>2026-04-26T13:39:25.04Z</time></trkpt><trkpt lat="46.5591617" lon="12.5480367"><ele>911.2857142857143</ele><time>2026-04-26T13:39:27.042Z</time></trkpt><trkpt lat="46.5591667" lon="12.5481317"><ele>911.5714285714284</ele><time>2026-04-26T13:39:28.037Z</time></trkpt><trkpt lat="46.5591683" lon="12.5482283"><ele>911.8571428571428</ele><time>2026-04-26T13:39:29.043Z</time></trkpt><trkpt lat="46.5591533" lon="12.5483733"><ele>912.1428571428571</ele><time>2026-04-26T13:39:31.04Z</time></trkpt><trkpt lat="46.5591233" lon="12.54846"><ele>912.4285714285713</ele><time>2026-04-26T13:39:33.037Z</time></trkpt><trkpt lat="46.5590583" lon="12.5484733"><ele>912.7142857142856</ele><time>2026-04-26T13:39:58.037Z</time></trkpt><trkpt lat="46.55904" lon="12.5485633"><ele>912.9999999999999</ele><time>2026-04-26T13:40:01.039Z</time></trkpt><trkpt lat="46.5590783" lon="12.5486567"><ele>912.9999999999999</ele><time>2026-04-26T13:40:06.039Z</time></trkpt><trkpt lat="46.5592017" lon="12.548665"><ele>913.0</ele><time>2026-04-26T13:40:08.042Z</time></trkpt><trkpt lat="46.55927" lon="12.548655"><ele>913.0</ele><time>2026-04-26T13:40:09.04Z</time></trkpt><trkpt lat="46.5593433" lon="12.5486433"><ele>913.0</ele><time>2026-04-26T13:40:10.036Z</time></trkpt><trkpt lat="46.559415" lon="12.548625"><ele>912.9999999999999</ele><time>2026-04-26T13:40:11.04Z</time></trkpt><trkpt lat="46.5594933" lon="12.5485967"><ele>913.0</ele><time>2026-04-26T13:40:12.04Z</time></trkpt><trkpt lat="46.5595817" lon="12.54857"><ele>913.8</ele><time>2026-04-26T13:40:13.039Z</time></trkpt><trkpt lat="46.5596733" lon="12.5485367"><ele>914.5999999999999</ele><time>2026-04-26T13:40:14.041Z</time></trkpt><trkpt lat="46.55977" lon="12.548505"><ele>915.4000000000001</ele><time>2026-04-26T13:40:15.036Z</time></trkpt><trkpt lat="46.5598683" lon="12.5484567"><ele>916.2</ele><time>2026-04-26T13:40:16.037Z</time></trkpt><trkpt lat="46.5599683" lon="12.5483917"><ele>917.0</ele><time>2026-04-26T13:40:17.041Z</time></trkpt><trkpt lat="46.5600667" lon="12.548315"><ele>917.0</ele><time>2026-04-26T13:40:18.037Z</time></trkpt><trkpt lat="46.5601583" lon="12.5482383"><ele>917.0</ele><time>2026-04-26T13:40:19.038Z</time></trkpt><trkpt lat="46.56024" lon="12.5481717"><ele>917.0</ele><time>2026-04-26T13:40:20.035Z</time></trkpt><trkpt lat="46.5603083" lon="12.5481117"><ele>917.0</ele><time>2026-04-26T13:40:21.035Z</time></trkpt><trkpt lat="46.560365" lon="12.5480567"><ele>917.0</ele><time>2026-04-26T13:40:22.036Z</time></trkpt><trkpt lat="46.5604767" lon="12.547995"><ele>918.7142857142858</ele><time>2026-04-26T13:40:24.04Z</time></trkpt><trkpt lat="46.56054" lon="12.547995"><ele>920.4285714285714</ele><time>2026-04-26T13:40:25.036Z</time></trkpt><trkpt lat="46.5606017" lon="12.5480267"><ele>922.1428571428571</ele><time>2026-04-26T13:40:26.039Z</time></trkpt><trkpt lat="46.560665" lon="12.548065"><ele>923.8571428571429</ele><time>2026-04-26T13:40:27.039Z</time></trkpt><trkpt lat="46.560725" lon="12.5481217"><ele>925.5714285714287</ele><time>2026-04-26T13:40:28.038Z</time></trkpt><trkpt lat="46.56077" lon="12.548215"><ele>927.2857142857143</ele><time>2026-04-26T13:40:29.04Z</time></trkpt><trkpt lat="46.5607967" lon="12.54831"><ele>929.0</ele><time>2026-04-26T13:40:30.04Z</time></trkpt><trkpt lat="46.5608067" lon="12.5484183"><ele>929.0</ele><time>2026-04-26T13:40:31.039Z</time></trkpt><trkpt lat="46.5608117" lon="12.54852"><ele>929.0000000000001</ele><time>2026-04-26T13:40:32.041Z</time></trkpt><trkpt lat="46.5608117" lon="12.548625"><ele>929.0</ele><time>2026-04-26T13:40:33.04Z</time></trkpt><trkpt lat="46.5608033" lon="12.5487217"><ele>929.0</ele><time>2026-04-26T13:40:34.037Z</time></trkpt><trkpt lat="46.5607867" lon="12.5488417"><ele>929.0000000000001</ele><time>2026-04-26T13:40:36.042Z</time></trkpt><trkpt lat="46.5607517" lon="12.5489233"><ele>929.0</ele><time>2026-04-26T13:40:39.039Z</time></trkpt><trkpt lat="46.5607233" lon="12.5490317"><ele>929.0</ele><time>2026-04-26T13:40:42.037Z</time></trkpt><trkpt lat="46.5606833" lon="12.5491567"><ele>933.0000000000001</ele><time>2026-04-26T13:40:45.038Z</time></trkpt><trkpt lat="46.5606417" lon="12.5492283"><ele>937.0</ele><time>2026-04-26T13:40:47.038Z</time></trkpt><trkpt lat="46.56057" lon="12.54928"><ele>941.0</ele><time>2026-04-26T13:40:50.042Z</time></trkpt><trkpt lat="46.5605" lon="12.54932"><ele>945.0</ele><time>2026-04-26T13:40:53.038Z</time></trkpt><trkpt lat="46.5604767" lon="12.5494333"><ele>949.0000000000001</ele><time>2026-04-26T13:40:55.036Z</time></trkpt><trkpt lat="46.5605167" lon="12.5495617"><ele>953.0</ele><time>2026-04-26T13:40:57.038Z</time></trkpt><trkpt lat="46.5606017" lon="12.5496867"><ele>955.5000000000001</ele><time>2026-04-26T13:40:59.039Z</time></trkpt><trkpt lat="46.5606517" lon="12.54975"><ele>958.0</ele><time>2026-04-26T13:41:00.042Z</time></trkpt><trkpt lat="46.560725" lon="12.54988"><ele>960.5</ele><time>2026-04-26T13:41:02.042Z</time></trkpt><trkpt lat="46.560755" lon="12.55002"><ele>963.0</ele><time>2026-04-26T13:41:04.036Z</time></trkpt><trkpt lat="46.5607733" lon="12.55014"><ele>965.5000000000001</ele><time>2026-04-26T13:41:06.039Z</time></trkpt><trkpt lat="46.5608333" lon="12.5501783"><ele>968.0</ele><time>2026-04-26T13:41:10.039Z</time></trkpt><trkpt lat="46.560905" lon="12.550105"><ele>968.0000000000001</ele><time>2026-04-26T13:41:12.04Z</time></trkpt><trkpt lat="46.56098" lon="12.55004"><ele>968.0</ele><time>2026-04-26T13:41:14.04Z</time></trkpt><trkpt lat="46.5610533" lon="12.55006"><ele>968.0</ele><time>2026-04-26T13:41:16.038Z</time></trkpt><trkpt lat="46.5611333" lon="12.5500967"><ele>968.0</ele><time>2026-04-26T13:41:18.039Z</time></trkpt><trkpt lat="46.5612333" lon="12.550135"><ele>968.0000000000001</ele><time>2026-04-26T13:41:20.041Z</time></trkpt><trkpt lat="46.56131" lon="12.5500883"><ele>968.0</ele><time>2026-04-26T13:41:22.036Z</time></trkpt><trkpt lat="46.5613583" lon="12.5500217"><ele>973.1666666666667</ele><time>2026-04-26T13:41:23.039Z</time></trkpt><trkpt lat="46.5614233" lon="12.5499417"><ele>978.3333333333334</ele><time>2026-04-26T13:41:25.038Z</time></trkpt><trkpt lat="46.5615083" lon="12.549875"><ele>983.5</ele><time>2026-04-26T13:41:27.039Z</time></trkpt><trkpt lat="46.5615917" lon="12.5498583"><ele>988.6666666666667</ele><time>2026-04-26T13:41:29.036Z</time></trkpt><trkpt lat="46.56167" lon="12.5498133"><ele>993.8333333333334</ele><time>2026-04-26T13:41:31.04Z</time></trkpt><trkpt lat="46.5617383" lon="12.5497617"><ele>999.0</ele><time>2026-04-26T13:41:32.041Z</time></trkpt><trkpt lat="46.5618383" lon="12.5496933"><ele>999.0</ele><time>2026-04-26T13:41:34.039Z</time></trkpt><trkpt lat="46.5619033" lon="12.54961"><ele>999.0</ele><time>2026-04-26T13:41:36.04Z</time></trkpt><trkpt lat="46.56198" lon="12.5495483"><ele>999.0</ele><time>2026-04-26T13:41:38.039Z</time></trkpt><trkpt lat="46.5620583" lon="12.54957"><ele>999.0</ele><time>2026-04-26T13:41:40.036Z</time></trkpt><trkpt lat="46.5621433" lon="12.549625"><ele>999.0</ele><time>2026-04-26T13:41:42.039Z</time></trkpt><trkpt lat="46.5622267" lon="12.549655"><ele>999.0</ele><time>2026-04-26T13:41:44.041Z</time></trkpt><trkpt lat="46.5623217" lon="12.5496133"><ele>1002.0</ele><time>2026-04-26T13:41:46.039Z</time></trkpt><trkpt lat="46.5624133" lon="12.54956"><ele>1005.0</ele><time>2026-04-26T13:41:48.041Z</time></trkpt><trkpt lat="46.56249" lon="12.54955"><ele>1008.0</ele><time>2026-04-26T13:41:50.042Z</time></trkpt><trkpt lat="46.5625583" lon="12.549535"><ele>1011.0</ele><time>2026-04-26T13:41:52.039Z</time></trkpt><trkpt lat="46.5626333" lon="12.549495"><ele>1014.0</ele><time>2026-04-26T13:41:54.039Z</time></trkpt><trkpt lat="46.5627133" lon="12.54942"><ele>1017.0</ele><time>2026-04-26T13:41:56.04Z</time></trkpt><trkpt lat="46.5628017" lon="12.5493367"><ele>1022.4000000000001</ele><time>2026-04-26T13:41:58.035Z</time></trkpt><trkpt lat="46.562885" lon="12.5492933"><ele>1027.8000000000002</ele><time>2026-04-26T13:42:00.039Z</time></trkpt><trkpt lat="46.56297" lon="12.5492833"><ele>1033.2</ele><time>2026-04-26T13:42:02.04Z</time></trkpt><trkpt lat="46.5630517" lon="12.5493233"><ele>1038.6000000000001</ele><time>2026-04-26T13:42:04.035Z</time></trkpt><trkpt lat="46.5631633" lon="12.549335"><ele>1044.0</ele><time>2026-04-26T13:42:06.038Z</time></trkpt><trkpt lat="46.56326" lon="12.5492983"><ele>1044.0</ele><time>2026-04-26T13:42:08.04Z</time></trkpt><trkpt lat="46.5633617" lon="12.54925"><ele>1044.0</ele><time>2026-04-26T13:42:10.039Z</time></trkpt><trkpt lat="46.56345" lon="12.5492183"><ele>1044.0</ele><time>2026-04-26T13:42:12.04Z</time></trkpt><trkpt lat="46.5634983" lon="12.549305"><ele>1044.0</ele><time>2026-04-26T13:42:16.039Z</time></trkpt><trkpt lat="46.5635433" lon="12.549405"><ele>1044.0</ele><time>2026-04-26T13:42:19.039Z</time></trkpt><trkpt lat="46.5635983" lon="12.5494517"><ele>1044.0</ele><time>2026-04-26T13:42:22.039Z</time></trkpt><trkpt lat="46.563665" lon="12.549445"><ele>1047.1666666666667</ele><time>2026-04-26T13:42:24.04Z</time></trkpt><trkpt lat="46.56372" lon="12.5495433"><ele>1050.3333333333333</ele><time>2026-04-26T13:42:27.041Z</time></trkpt><trkpt lat="46.5637883" lon="12.54958"><ele>1053.5</ele><time>2026-04-26T13:42:29.042Z</time></trkpt><trkpt lat="46.5638733" lon="12.549535"><ele>1056.6666666666665</ele><time>2026-04-26T13:42:31.041Z</time></trkpt><trkpt lat="46.56395" lon="12.5495383"><ele>1059.8333333333333</ele><time>2026-04-26T13:42:35.028Z</time></trkpt><trkpt lat="46.564025" lon="12.5494783"><ele>1063.0</ele><time>2026-04-26T13:42:40.03Z</time></trkpt><trkpt lat="46.5640783" lon="12.5495833"><ele>1063.0</ele><time>2026-04-26T13:42:43.041Z</time></trkpt><trkpt lat="46.5641467" lon="12.549635"><ele>1063.0</ele><time>2026-04-26T13:42:46.042Z</time></trkpt><trkpt lat="46.5642" lon="12.5495483"><ele>1063.0</ele><time>2026-04-26T13:42:50.042Z</time></trkpt><trkpt lat="46.5642917" lon="12.5495083"><ele>1063.0</ele><time>2026-04-26T13:42:53.039Z</time></trkpt><trkpt lat="46.5643733" lon="12.5495033"><ele>1063.0</ele><time>2026-04-26T13:42:55.038Z</time></trkpt><trkpt lat="46.56447" lon="12.5494917"><ele>1063.0</ele><time>2026-04-26T13:42:57.038Z</time></trkpt><trkpt lat="46.5645583" lon="12.5495083"><ele>1066.4</ele><time>2026-04-26T13:42:59.039Z</time></trkpt><trkpt lat="46.5646483" lon="12.5495333"><ele>1069.8</ele><time>2026-04-26T13:43:01.04Z</time></trkpt><trkpt lat="46.5647467" lon="12.54957"><ele>1073.2</ele><time>2026-04-26T13:43:03.037Z</time></trkpt><trkpt lat="46.5648367" lon="12.54963"><ele>1076.6</ele><time>2026-04-26T13:43:05.04Z</time></trkpt><trkpt lat="46.5649067" lon="12.5496883"><ele>1080.0</ele><time>2026-04-26T13:43:07.04Z</time></trkpt><trkpt lat="46.56499" lon="12.5496833"><ele>1080.0</ele><time>2026-04-26T13:43:09.041Z</time></trkpt><trkpt lat="46.5650883" lon="12.549665"><ele>1080.0</ele><time>2026-04-26T13:43:11.04Z</time></trkpt><trkpt lat="46.5652017" lon="12.5496133"><ele>1080.0</ele><time>2026-04-26T13:43:13.039Z</time></trkpt><trkpt lat="46.5653183" lon="12.5495417"><ele>1080.0</ele><time>2026-04-26T13:43:15.041Z</time></trkpt><trkpt lat="46.5653883" lon="12.5495017"><ele>1080.0</ele><time>2026-04-26T13:43:16.04Z</time></trkpt><trkpt lat="46.5654667" lon="12.54947"><ele>1083.1666666666667</ele><time>2026-04-26T13:43:17.041Z</time></trkpt><trkpt lat="46.56555" lon="12.54945"><ele>1086.3333333333333</ele><time>2026-04-26T13:43:18.04Z</time></trkpt><trkpt lat="46.56563" lon="12.5494467"><ele>1089.5</ele><time>2026-04-26T13:43:19.04Z</time></trkpt><trkpt lat="46.5657133" lon="12.54944"><ele>1092.6666666666665</ele><time>2026-04-26T13:43:20.041Z</time></trkpt><trkpt lat="46.5658017" lon="12.5494183"><ele>1095.8333333333333</ele><time>2026-04-26T13:43:21.037Z</time></trkpt><trkpt lat="46.5658883" lon="12.5493817"><ele>1099.0</ele><time>2026-04-26T13:43:22.037Z</time></trkpt><trkpt lat="46.5659767" lon="12.5493317"><ele>1099.0</ele><time>2026-04-26T13:43:23.039Z</time></trkpt><trkpt lat="46.56606" lon="12.5492783"><ele>1099.0</ele><time>2026-04-26T13:43:24.04Z</time></trkpt><trkpt lat="46.5661417" lon="12.5492317"><ele>1099.0</ele><time>2026-04-26T13:43:25.041Z</time></trkpt><trkpt lat="46.56622" lon="12.549205"><ele>1099.0</ele><time>2026-04-26T13:43:26.041Z</time></trkpt><trkpt lat="46.5662967" lon="12.5491867"><ele>1099.0</ele><time>2026-04-26T13:43:27.039Z</time></trkpt><trkpt lat="46.56637" lon="12.5491633"><ele>1099.0</ele><time>2026-04-26T13:43:28.04Z</time></trkpt><trkpt lat="46.5664433" lon="12.5491417"><ele>1102.3333333333333</ele><time>2026-04-26T13:43:29.038Z</time></trkpt><trkpt lat="46.5665183" lon="12.549115"><ele>1105.6666666666665</ele><time>2026-04-26T13:43:30.042Z</time></trkpt><trkpt lat="46.5665917" lon="12.5490817"><ele>1109.0</ele><time>2026-04-26T13:43:31.039Z</time></trkpt><trkpt lat="46.566665" lon="12.5490433"><ele>1112.3333333333333</ele><time>2026-04-26T13:43:32.041Z</time></trkpt><trkpt lat="46.5667317" lon="12.549"><ele>1115.6666666666667</ele><time>2026-04-26T13:43:33.041Z</time></trkpt><trkpt lat="46.5667917" lon="12.5489517"><ele>1119.0</ele><time>2026-04-26T13:43:34.039Z</time></trkpt><trkpt lat="46.5669" lon="12.5488683"><ele>1119.0</ele><time>2026-04-26T13:43:36.039Z</time></trkpt><trkpt lat="46.5669967" lon="12.5488217"><ele>1119.0</ele><time>2026-04-26T13:43:38.041Z</time></trkpt><trkpt lat="46.5670967" lon="12.548805"><ele>1119.0</ele><time>2026-04-26T13:43:40.04Z</time></trkpt><trkpt lat="46.5671983" lon="12.548795"><ele>1119.0</ele><time>2026-04-26T13:43:42.036Z</time></trkpt><trkpt lat="46.5672967" lon="12.5488033"><ele>1119.0</ele><time>2026-04-26T13:43:44.039Z</time></trkpt><trkpt lat="46.567405" lon="12.5487683"><ele>1120.4</ele><time>2026-04-26T13:43:46.035Z</time></trkpt><trkpt lat="46.567515" lon="12.5487117"><ele>1121.8000000000002</ele><time>2026-04-26T13:43:48.026Z</time></trkpt><trkpt lat="46.5675767" lon="12.5486833"><ele>1123.1999999999998</ele><time>2026-04-26T13:43:49.028Z</time></trkpt><trkpt lat="46.567695" lon="12.548625"><ele>1124.6</ele><time>2026-04-26T13:43:51.027Z</time></trkpt><trkpt lat="46.567795" lon="12.548585"><ele>1126.0</ele><time>2026-04-26T13:43:53.028Z</time></trkpt><trkpt lat="46.5678567" lon="12.548615"><ele>1128.6666666666665</ele><time>2026-04-26T13:43:55.027Z</time></trkpt><trkpt lat="46.567885" lon="12.548705"><ele>1131.3333333333333</ele><time>2026-04-26T13:43:58.043Z</time></trkpt><trkpt lat="46.5677967" lon="12.54875"><ele>1134.0</ele><time>2026-04-26T13:44:02.039Z</time></trkpt><trkpt lat="46.5678217" lon="12.5488467"><ele>1136.6666666666667</ele><time>2026-04-26T13:44:05.039Z</time></trkpt><trkpt lat="46.56789" lon="12.5488833"><ele>1139.3333333333335</ele><time>2026-04-26T13:44:07.04Z</time></trkpt><trkpt lat="46.5679767" lon="12.5489"><ele>1142.0</ele><time>2026-04-26T13:44:09.035Z</time></trkpt><trkpt lat="46.5680617" lon="12.548925"><ele>1146.8333333333335</ele><time>2026-04-26T13:44:11.038Z</time></trkpt><trkpt lat="46.5681467" lon="12.5489517"><ele>1151.6666666666667</ele><time>2026-04-26T13:44:13.038Z</time></trkpt><trkpt lat="46.56821" lon="12.5489917"><ele>1156.5</ele><time>2026-04-26T13:44:15.038Z</time></trkpt><trkpt lat="46.56828" lon="12.5490433"><ele>1161.3333333333333</ele><time>2026-04-26T13:44:17.038Z</time></trkpt><trkpt lat="46.56837" lon="12.5490417"><ele>1166.1666666666665</ele><time>2026-04-26T13:44:19.038Z</time></trkpt><trkpt lat="46.5684317" lon="12.5489517"><ele>1171.0</ele><time>2026-04-26T13:44:21.039Z</time></trkpt><trkpt lat="46.56844" lon="12.5488183"><ele>1171.0</ele><time>2026-04-26T13:44:23.041Z</time></trkpt><trkpt lat="46.5684117" lon="12.548735"><ele>1171.0</ele><time>2026-04-26T13:44:24.043Z</time></trkpt><trkpt lat="46.5683967" lon="12.5486233"><ele>1171.0</ele><time>2026-04-26T13:44:26.04Z</time></trkpt><trkpt lat="46.56842" lon="12.5485117"><ele>1171.0</ele><time>2026-04-26T13:44:28.041Z</time></trkpt><trkpt lat="46.56846" lon="12.5484033"><ele>1171.0</ele><time>2026-04-26T13:44:30.04Z</time></trkpt><trkpt lat="46.5685483" lon="12.54839"><ele>1171.0</ele><time>2026-04-26T13:44:33.042Z</time></trkpt><trkpt lat="46.56862" lon="12.5484517"><ele>1169.1666666666665</ele><time>2026-04-26T13:44:35.041Z</time></trkpt><trkpt lat="46.568685" lon="12.5485083"><ele>1167.3333333333333</ele><time>2026-04-26T13:44:37.039Z</time></trkpt><trkpt lat="46.56875" lon="12.5485533"><ele>1165.5</ele><time>2026-04-26T13:44:39.04Z</time></trkpt><trkpt lat="46.5688233" lon="12.54862"><ele>1163.6666666666667</ele><time>2026-04-26T13:44:41.039Z</time></trkpt><trkpt lat="46.568855" lon="12.548755"><ele>1161.8333333333335</ele><time>2026-04-26T13:44:43.04Z</time></trkpt><trkpt lat="46.5688933" lon="12.5488583"><ele>1160.0</ele><time>2026-04-26T13:44:45.04Z</time></trkpt><trkpt lat="46.5689583" lon="12.5489033"><ele>1167.6666666666667</ele><time>2026-04-26T13:44:47.039Z</time></trkpt><trkpt lat="46.5690217" lon="12.548925"><ele>1175.3333333333335</ele><time>2026-04-26T13:44:50.041Z</time></trkpt><trkpt lat="46.569095" lon="12.54895"><ele>1183.0</ele><time>2026-04-26T13:44:53.04Z</time></trkpt><trkpt lat="46.5691733" lon="12.5489667"><ele>1190.6666666666667</ele><time>2026-04-26T13:44:56.042Z</time></trkpt><trkpt lat="46.5692483" lon="12.5489833"><ele>1198.3333333333333</ele><time>2026-04-26T13:44:59.04Z</time></trkpt><trkpt lat="46.5693467" lon="12.5489817"><ele>1206.0</ele><time>2026-04-26T13:45:02.039Z</time></trkpt><trkpt lat="46.5694383" lon="12.5488717"><ele>1206.0</ele><time>2026-04-26T13:45:04.039Z</time></trkpt><trkpt lat="46.5694833" lon="12.5487917"><ele>1206.0</ele><time>2026-04-26T13:45:05.041Z</time></trkpt><trkpt lat="46.5695267" lon="12.54872"><ele>1206.0</ele><time>2026-04-26T13:45:06.042Z</time></trkpt><trkpt lat="46.569555" lon="12.5486333"><ele>1206.0</ele><time>2026-04-26T13:45:07.043Z</time></trkpt><trkpt lat="46.569575" lon="12.5484733"><ele>1206.0</ele><time>2026-04-26T13:45:09.038Z</time></trkpt><trkpt lat="46.569555" lon="12.5483083"><ele>1206.0</ele><time>2026-04-26T13:45:11.04Z</time></trkpt><trkpt lat="46.569585" lon="12.5481567"><ele>1207.0</ele><time>2026-04-26T13:45:13.043Z</time></trkpt><trkpt lat="46.569655" lon="12.5480117"><ele>1208.0</ele><time>2026-04-26T13:45:15.039Z</time></trkpt><trkpt lat="46.56974" lon="12.5478867"><ele>1209.0</ele><time>2026-04-26T13:45:17.041Z</time></trkpt><trkpt lat="46.5697967" lon="12.5478383"><ele>1210.0</ele><time>2026-04-26T13:45:18.041Z</time></trkpt><trkpt lat="46.5698567" lon="12.5478033"><ele>1211.0</ele><time>2026-04-26T13:45:19.041Z</time></trkpt><trkpt lat="46.56992" lon="12.54777"><ele>1212.0</ele><time>2026-04-26T13:45:20.039Z</time></trkpt><trkpt lat="46.5700317" lon="12.5476967"><ele>1212.0</ele><time>2026-04-26T13:45:22.04Z</time></trkpt><trkpt lat="46.570125" lon="12.5476217"><ele>1212.0</ele><time>2026-04-26T13:45:24.041Z</time></trkpt><trkpt lat="46.5702083" lon="12.5475767"><ele>1212.0</ele><time>2026-04-26T13:45:26.041Z</time></trkpt><trkpt lat="46.5702933" lon="12.5475333"><ele>1212.0</ele><time>2026-04-26T13:45:28.039Z</time></trkpt><trkpt lat="46.5703767" lon="12.5474917"><ele>1212.0</ele><time>2026-04-26T13:45:30.035Z</time></trkpt><trkpt lat="46.5704533" lon="12.5474783"><ele>1215.5</ele><time>2026-04-26T13:45:32.04Z</time></trkpt><trkpt lat="46.57052" lon="12.5474817"><ele>1219.0</ele><time>2026-04-26T13:45:34.041Z</time></trkpt><trkpt lat="46.5705883" lon="12.54743"><ele>1222.5</ele><time>2026-04-26T13:45:37.043Z</time></trkpt><trkpt lat="46.5706383" lon="12.5473467"><ele>1226.0</ele><time>2026-04-26T13:45:39.044Z</time></trkpt><trkpt lat="46.5706983" lon="12.547275"><ele>1229.5</ele><time>2026-04-26T13:45:42.042Z</time></trkpt><trkpt lat="46.57066" lon="12.5473933"><ele>1233.0</ele><time>2026-04-26T13:45:48.043Z</time></trkpt><trkpt lat="46.5705683" lon="12.54744"><ele>1233.0</ele><time>2026-04-26T13:45:50.04Z</time></trkpt><trkpt lat="46.5704783" lon="12.547495"><ele>1233.0</ele><time>2026-04-26T13:45:52.041Z</time></trkpt><trkpt lat="46.570425" lon="12.547545"><ele>1233.0</ele><time>2026-04-26T13:45:53.043Z</time></trkpt><trkpt lat="46.5703467" lon="12.54768"><ele>1233.0</ele><time>2026-04-26T13:45:55.041Z</time></trkpt><trkpt lat="46.5703167" lon="12.5477683"><ele>1233.0</ele><time>2026-04-26T13:45:56.042Z</time></trkpt><trkpt lat="46.5702533" lon="12.54792"><ele>1231.5</ele><time>2026-04-26T13:45:58.04Z</time></trkpt><trkpt lat="46.570215" lon="12.5480683"><ele>1230.0</ele><time>2026-04-26T13:46:00.04Z</time></trkpt><trkpt lat="46.5702233" lon="12.54819"><ele>1228.5</ele><time>2026-04-26T13:46:02.04Z</time></trkpt><trkpt lat="46.5703217" lon="12.5482"><ele>1227.0</ele><time>2026-04-26T13:46:04.04Z</time></trkpt><trkpt lat="46.5703817" lon="12.548155"><ele>1225.5</ele><time>2026-04-26T13:46:05.042Z</time></trkpt><trkpt lat="46.570435" lon="12.5480867"><ele>1224.0</ele><time>2026-04-26T13:46:06.044Z</time></trkpt><trkpt lat="46.5705083" lon="12.54799"><ele>1225.8</ele><time>2026-04-26T13:46:07.041Z</time></trkpt><trkpt lat="46.5705617" lon="12.5479217"><ele>1227.6000000000001</ele><time>2026-04-26T13:46:08.042Z</time></trkpt><trkpt lat="46.570645" lon="12.5478267"><ele>1229.4</ele><time>2026-04-26T13:46:10.038Z</time></trkpt><trkpt lat="46.57074" lon="12.5477633"><ele>1231.2</ele><time>2026-04-26T13:46:12.044Z</time></trkpt><trkpt lat="46.5708433" lon="12.5477317"><ele>1233.0</ele><time>2026-04-26T13:46:14.041Z</time></trkpt><trkpt lat="46.570955" lon="12.5477467"><ele>1233.0</ele><time>2026-04-26T13:46:16.039Z</time></trkpt><trkpt lat="46.571055" lon="12.5478"><ele>1233.0</ele><time>2026-04-26T13:46:18.04Z</time></trkpt><trkpt lat="46.57114" lon="12.5478717"><ele>1233.0</ele><time>2026-04-26T13:46:20.039Z</time></trkpt><trkpt lat="46.571255" lon="12.5478567"><ele>1233.0</ele><time>2026-04-26T13:46:22.04Z</time></trkpt><trkpt lat="46.5713167" lon="12.5478333"><ele>1233.0</ele><time>2026-04-26T13:46:23.041Z</time></trkpt><trkpt lat="46.5713817" lon="12.5478033"><ele>1235.1666666666667</ele><time>2026-04-26T13:46:24.039Z</time></trkpt><trkpt lat="46.5714467" lon="12.5478"><ele>1237.3333333333333</ele><time>2026-04-26T13:46:25.04Z</time></trkpt><trkpt lat="46.5715533" lon="12.5477483"><ele>1239.5</ele><time>2026-04-26T13:46:27.041Z</time></trkpt><trkpt lat="46.571625" lon="12.5476867"><ele>1241.6666666666665</ele><time>2026-04-26T13:46:29.04Z</time></trkpt><trkpt lat="46.5716933" lon="12.5476717"><ele>1243.8333333333333</ele><time>2026-04-26T13:46:32.038Z</time></trkpt><trkpt lat="46.5716117" lon="12.54774"><ele>1246.0</ele><time>2026-04-26T13:46:35.041Z</time></trkpt><trkpt lat="46.5715217" lon="12.5478317"><ele>1246.1666666666665</ele><time>2026-04-26T13:46:37.043Z</time></trkpt><trkpt lat="46.5714767" lon="12.5479"><ele>1246.3333333333333</ele><time>2026-04-26T13:46:38.039Z</time></trkpt><trkpt lat="46.57143" lon="12.5479733"><ele>1246.5</ele><time>2026-04-26T13:46:39.04Z</time></trkpt><trkpt lat="46.5713883" lon="12.5480433"><ele>1246.6666666666667</ele><time>2026-04-26T13:46:40.036Z</time></trkpt><trkpt lat="46.5712967" lon="12.54817"><ele>1246.8333333333335</ele><time>2026-04-26T13:46:42.035Z</time></trkpt><trkpt lat="46.5712017" lon="12.548285"><ele>1247.0</ele><time>2026-04-26T13:46:44.036Z</time></trkpt><trkpt lat="46.5711067" lon="12.5483967"><ele>1247.0</ele><time>2026-04-26T13:46:46.035Z</time></trkpt><trkpt lat="46.5710583" lon="12.5484583"><ele>1247.0</ele><time>2026-04-26T13:46:47.039Z</time></trkpt><trkpt lat="46.57101" lon="12.548535"><ele>1247.0</ele><time>2026-04-26T13:46:48.038Z</time></trkpt><trkpt lat="46.57097" lon="12.54863"><ele>1247.0</ele><time>2026-04-26T13:46:49.036Z</time></trkpt><trkpt lat="46.5709283" lon="12.5487333"><ele>1247.0</ele><time>2026-04-26T13:46:50.039Z</time></trkpt><trkpt lat="46.5708983" lon="12.548845"><ele>1247.0</ele><time>2026-04-26T13:46:51.037Z</time></trkpt><trkpt lat="46.5708767" lon="12.5489517"><ele>1248.5</ele><time>2026-04-26T13:46:52.037Z</time></trkpt><trkpt lat="46.5708833" lon="12.549075"><ele>1250.0</ele><time>2026-04-26T13:46:53.038Z</time></trkpt><trkpt lat="46.5708667" lon="12.5491783"><ele>1251.5</ele><time>2026-04-26T13:46:54.041Z</time></trkpt><trkpt lat="46.57086" lon="12.549295"><ele>1253.0</ele><time>2026-04-26T13:46:55.034Z</time></trkpt><trkpt lat="46.5708417" lon="12.5494"><ele>1254.5</ele><time>2026-04-26T13:46:56.039Z</time></trkpt><trkpt lat="46.5707917" lon="12.54948"><ele>1256.0</ele><time>2026-04-26T13:46:57.04Z</time></trkpt><trkpt lat="46.5707117" lon="12.5495333"><ele>1256.0</ele><time>2026-04-26T13:46:58.036Z</time></trkpt><trkpt lat="46.5706133" lon="12.5495583"><ele>1256.0</ele><time>2026-04-26T13:46:59.04Z</time></trkpt><trkpt lat="46.5705267" lon="12.549575"><ele>1256.0</ele><time>2026-04-26T13:47:00.034Z</time></trkpt><trkpt lat="46.57044" lon="12.5495917"><ele>1256.0</ele><time>2026-04-26T13:47:01.04Z</time></trkpt><trkpt lat="46.570355" lon="12.5496167"><ele>1256.0</ele><time>2026-04-26T13:47:02.038Z</time></trkpt><trkpt lat="46.570275" lon="12.5496617"><ele>1256.0</ele><time>2026-04-26T13:47:03.039Z</time></trkpt><trkpt lat="46.5701983" lon="12.5497233"><ele>1256.0</ele><time>2026-04-26T13:47:04.037Z</time></trkpt><trkpt lat="46.5701317" lon="12.549795"><ele>1256.0</ele><time>2026-04-26T13:47:05.038Z</time></trkpt><trkpt lat="46.570085" lon="12.5498883"><ele>1256.0</ele><time>2026-04-26T13:47:06.038Z</time></trkpt><trkpt lat="46.5700633" lon="12.55"><ele>1256.0</ele><time>2026-04-26T13:47:07.037Z</time></trkpt><trkpt lat="46.57005" lon="12.55011"><ele>1256.0</ele><time>2026-04-26T13:47:08.038Z</time></trkpt><trkpt lat="46.5700467" lon="12.55022"><ele>1256.0</ele><time>2026-04-26T13:47:09.038Z</time></trkpt><trkpt lat="46.5700633" lon="12.55034"><ele>1257.5</ele><time>2026-04-26T13:47:10.039Z</time></trkpt><trkpt lat="46.570065" lon="12.550465"><ele>1259.0</ele><time>2026-04-26T13:47:11.039Z</time></trkpt><trkpt lat="46.5700633" lon="12.5505983"><ele>1260.5</ele><time>2026-04-26T13:47:12.039Z</time></trkpt><trkpt lat="46.5700433" lon="12.5507217"><ele>1262.0</ele><time>2026-04-26T13:47:13.039Z</time></trkpt><trkpt lat="46.570015" lon="12.5508383"><ele>1263.5</ele><time>2026-04-26T13:47:14.041Z</time></trkpt><trkpt lat="46.56998" lon="12.550955"><ele>1265.0</ele><time>2026-04-26T13:47:15.037Z</time></trkpt><trkpt lat="46.5699517" lon="12.551075"><ele>1265.0</ele><time>2026-04-26T13:47:16.036Z</time></trkpt><trkpt lat="46.5699333" lon="12.5511933"><ele>1265.0</ele><time>2026-04-26T13:47:17.035Z</time></trkpt><trkpt lat="46.56992" lon="12.5513117"><ele>1265.0</ele><time>2026-04-26T13:47:18.04Z</time></trkpt><trkpt lat="46.5699083" lon="12.5514283"><ele>1265.0</ele><time>2026-04-26T13:47:19.038Z</time></trkpt><trkpt lat="46.5698883" lon="12.5515433"><ele>1265.0</ele><time>2026-04-26T13:47:20.039Z</time></trkpt><trkpt lat="46.569865" lon="12.551655"><ele>1265.0</ele><time>2026-04-26T13:47:21.038Z</time></trkpt><trkpt lat="46.5698433" lon="12.55176"><ele>1267.5</ele><time>2026-04-26T13:47:22.038Z</time></trkpt><trkpt lat="46.56983" lon="12.5518717"><ele>1270.0</ele><time>2026-04-26T13:47:23.038Z</time></trkpt><trkpt lat="46.5698233" lon="12.5519817"><ele>1272.5</ele><time>2026-04-26T13:47:24.042Z</time></trkpt><trkpt lat="46.5698217" lon="12.5520967"><ele>1275.0</ele><time>2026-04-26T13:47:25.04Z</time></trkpt><trkpt lat="46.5698183" lon="12.55221"><ele>1277.5</ele><time>2026-04-26T13:47:26.041Z</time></trkpt><trkpt lat="46.5698117" lon="12.5523267"><ele>1280.0</ele><time>2026-04-26T13:47:27.04Z</time></trkpt><trkpt lat="46.5697967" lon="12.5524467"><ele>1282.6666666666667</ele><time>2026-04-26T13:47:28.039Z</time></trkpt><trkpt lat="46.569775" lon="12.5525633"><ele>1285.3333333333335</ele><time>2026-04-26T13:47:29.038Z</time></trkpt><trkpt lat="46.5697417" lon="12.5526783"><ele>1288.0</ele><time>2026-04-26T13:47:30.042Z</time></trkpt><trkpt lat="46.5696983" lon="12.5527833"><ele>1290.6666666666667</ele><time>2026-04-26T13:47:31.038Z</time></trkpt><trkpt lat="46.5696567" lon="12.5528917"><ele>1293.3333333333333</ele><time>2026-04-26T13:47:32.041Z</time></trkpt><trkpt lat="46.5696067" lon="12.55299"><ele>1296.0</ele><time>2026-04-26T13:47:33.036Z</time></trkpt><trkpt lat="46.5695533" lon="12.553085"><ele>1293.3333333333333</ele><time>2026-04-26T13:47:34.039Z</time></trkpt><trkpt lat="46.5694983" lon="12.55318"><ele>1290.6666666666667</ele><time>2026-04-26T13:47:35.035Z</time></trkpt><trkpt lat="46.5694433" lon="12.5532833"><ele>1288.0</ele><time>2026-04-26T13:47:36.039Z</time></trkpt><trkpt lat="46.569385" lon="12.5533817"><ele>1285.3333333333335</ele><time>2026-04-26T13:47:37.039Z</time></trkpt><trkpt lat="46.5693233" lon="12.5534717"><ele>1282.6666666666667</ele><time>2026-04-26T13:47:38.038Z</time></trkpt><trkpt lat="46.5692667" lon="12.5535567"><ele>1280.0</ele><time>2026-04-26T13:47:39.037Z</time></trkpt><trkpt lat="46.5692133" lon="12.5536367"><ele>1284.3333333333335</ele><time>2026-04-26T13:47:40.035Z</time></trkpt><trkpt lat="46.569165" lon="12.5537233"><ele>1288.6666666666667</ele><time>2026-04-26T13:47:41.039Z</time></trkpt><trkpt lat="46.5691167" lon="12.5538167"><ele>1293.0</ele><time>2026-04-26T13:47:42.038Z</time></trkpt><trkpt lat="46.5690683" lon="12.553905"><ele>1297.3333333333333</ele><time>2026-04-26T13:47:43.035Z</time></trkpt><trkpt lat="46.569015" lon="12.553995"><ele>1301.6666666666665</ele><time>2026-04-26T13:47:44.04Z</time></trkpt><trkpt lat="46.56896" lon="12.5540767"><ele>1306.0</ele><time>2026-04-26T13:47:45.038Z</time></trkpt><trkpt lat="46.5689" lon="12.5541633"><ele>1306.0</ele><time>2026-04-26T13:47:46.037Z</time></trkpt><trkpt lat="46.568835" lon="12.5542467"><ele>1306.0</ele><time>2026-04-26T13:47:47.037Z</time></trkpt><trkpt lat="46.5687667" lon="12.554325"><ele>1306.0</ele><time>2026-04-26T13:47:48.037Z</time></trkpt><trkpt lat="46.5686983" lon="12.5544017"><ele>1306.0</ele><time>2026-04-26T13:47:49.035Z</time></trkpt><trkpt lat="46.5686283" lon="12.5544633"><ele>1306.0</ele><time>2026-04-26T13:47:50.038Z</time></trkpt><trkpt lat="46.5685583" lon="12.5545233"><ele>1306.0</ele><time>2026-04-26T13:47:51.038Z</time></trkpt><trkpt lat="46.5684833" lon="12.554575"><ele>1307.6666666666665</ele><time>2026-04-26T13:47:52.034Z</time></trkpt><trkpt lat="46.5684083" lon="12.5546267"><ele>1309.3333333333333</ele><time>2026-04-26T13:47:53.036Z</time></trkpt><trkpt lat="46.568335" lon="12.5546867"><ele>1311.0</ele><time>2026-04-26T13:47:54.04Z</time></trkpt><trkpt lat="46.56826" lon="12.55474"><ele>1312.6666666666667</ele><time>2026-04-26T13:47:55.039Z</time></trkpt><trkpt lat="46.568185" lon="12.5547933"><ele>1314.3333333333335</ele><time>2026-04-26T13:47:56.04Z</time></trkpt><trkpt lat="46.5681117" lon="12.554845"><ele>1316.0</ele><time>2026-04-26T13:47:57.039Z</time></trkpt><trkpt lat="46.5680433" lon="12.5548983"><ele>1316.0</ele><time>2026-04-26T13:47:58.038Z</time></trkpt><trkpt lat="46.5679767" lon="12.554955"><ele>1316.0</ele><time>2026-04-26T13:47:59.038Z</time></trkpt><trkpt lat="46.5679083" lon="12.5550217"><ele>1316.0</ele><time>2026-04-26T13:48:00.038Z</time></trkpt><trkpt lat="46.5678417" lon="12.555095"><ele>1316.0</ele><time>2026-04-26T13:48:01.039Z</time></trkpt><trkpt lat="46.5677783" lon="12.5551733"><ele>1316.0</ele><time>2026-04-26T13:48:02.037Z</time></trkpt><trkpt lat="46.5677217" lon="12.5552483"><ele>1316.0</ele><time>2026-04-26T13:48:03.036Z</time></trkpt><trkpt lat="46.567665" lon="12.5553217"><ele>1316.8333333333335</ele><time>2026-04-26T13:48:04.033Z</time></trkpt><trkpt lat="46.567605" lon="12.5553817"><ele>1317.6666666666667</ele><time>2026-04-26T13:48:05.037Z</time></trkpt><trkpt lat="46.5675383" lon="12.5554333"><ele>1318.5</ele><time>2026-04-26T13:48:06.037Z</time></trkpt><trkpt lat="46.5674683" lon="12.5554733"><ele>1319.3333333333333</ele><time>2026-04-26T13:48:07.037Z</time></trkpt><trkpt lat="46.5673967" lon="12.5555083"><ele>1320.1666666666665</ele><time>2026-04-26T13:48:08.04Z</time></trkpt><trkpt lat="46.56732" lon="12.55553"><ele>1321.0</ele><time>2026-04-26T13:48:09.039Z</time></trkpt><trkpt lat="46.5672483" lon="12.5555483"><ele>1321.0</ele><time>2026-04-26T13:48:10.036Z</time></trkpt><trkpt lat="46.567175" lon="12.5555683"><ele>1321.0</ele><time>2026-04-26T13:48:11.036Z</time></trkpt><trkpt lat="46.567065" lon="12.5555683"><ele>1321.0</ele><time>2026-04-26T13:48:13.036Z</time></trkpt><trkpt lat="46.5669417" lon="12.5555683"><ele>1321.0</ele><time>2026-04-26T13:48:15.037Z</time></trkpt><trkpt lat="46.5668583" lon="12.5555717"><ele>1321.0</ele><time>2026-04-26T13:48:17.036Z</time></trkpt><trkpt lat="46.566795" lon="12.5555683"><ele>1302.0</ele><time>2026-04-26T13:48:19.038Z</time></trkpt></trkseg><trkseg><trkpt lat="46.566705" lon="12.55573"><ele>1302.0</ele><time>2026-04-26T13:59:13.035Z</time></trkpt><trkpt lat="46.56668" lon="12.5558267"><ele>1302.0</ele><time>2026-04-26T13:59:14.039Z</time></trkpt><trkpt lat="46.5666533" lon="12.5559417"><ele>1302.0</ele><time>2026-04-26T13:59:15.039Z</time></trkpt><trkpt lat="46.5666317" lon="12.5560667"><ele>1302.0</ele><time>2026-04-26T13:59:16.037Z</time></trkpt><trkpt lat="46.5666167" lon="12.556185"><ele>1302.0</ele><time>2026-04-26T13:59:17.042Z</time></trkpt><trkpt lat="46.5666083" lon="12.5563033"><ele>1302.0</ele><time>2026-04-26T13:59:18.04Z</time></trkpt><trkpt lat="46.5666083" lon="12.5564233"><ele>1302.3333333333333</ele><time>2026-04-26T13:59:19.041Z</time></trkpt><trkpt lat="46.5666083" lon="12.5565367"><ele>1302.6666666666667</ele><time>2026-04-26T13:59:20.04Z</time></trkpt><trkpt lat="46.566615" lon="12.5566533"><ele>1303.0</ele><time>2026-04-26T13:59:21.041Z</time></trkpt><trkpt lat="46.5666183" lon="12.5567783"><ele>1303.3333333333335</ele><time>2026-04-26T13:59:22.043Z</time></trkpt><trkpt lat="46.5666283" lon="12.556905"><ele>1303.6666666666667</ele><time>2026-04-26T13:59:23.041Z</time></trkpt><trkpt lat="46.5666467" lon="12.5570267"><ele>1304.0</ele><time>2026-04-26T13:59:24.044Z</time></trkpt><trkpt lat="46.5666717" lon="12.5571417"><ele>1303.0</ele><time>2026-04-26T13:59:25.041Z</time></trkpt><trkpt lat="46.5667033" lon="12.5572483"><ele>1302.0</ele><time>2026-04-26T13:59:26.043Z</time></trkpt><trkpt lat="46.566735" lon="12.55735"><ele>1301.0</ele><time>2026-04-26T13:59:27.04Z</time></trkpt><trkpt lat="46.566765" lon="12.5574583"><ele>1300.0</ele><time>2026-04-26T13:59:28.04Z</time></trkpt><trkpt lat="46.5667967" lon="12.55758"><ele>1299.0</ele><time>2026-04-26T13:59:29.041Z</time></trkpt><trkpt lat="46.5668333" lon="12.557705"><ele>1298.0</ele><time>2026-04-26T13:59:30.04Z</time></trkpt><trkpt lat="46.5668767" lon="12.5578417"><ele>1295.0</ele><time>2026-04-26T13:59:31.04Z</time></trkpt><trkpt lat="46.5669217" lon="12.55797"><ele>1292.0</ele><time>2026-04-26T13:59:32.042Z</time></trkpt><trkpt lat="46.5669717" lon="12.5580867"><ele>1289.0</ele><time>2026-04-26T13:59:33.038Z</time></trkpt><trkpt lat="46.56703" lon="12.5581917"><ele>1286.0</ele><time>2026-04-26T13:59:34.038Z</time></trkpt><trkpt lat="46.567095" lon="12.5582833"><ele>1283.0</ele><time>2026-04-26T13:59:35.038Z</time></trkpt><trkpt lat="46.5671717" lon="12.5583533"><ele>1285.2</ele><time>2026-04-26T13:59:36.035Z</time></trkpt><trkpt lat="46.5672583" lon="12.5584017"><ele>1287.4</ele><time>2026-04-26T13:59:37.041Z</time></trkpt><trkpt lat="46.5673533" lon="12.5584567"><ele>1289.6000000000001</ele><time>2026-04-26T13:59:38.042Z</time></trkpt><trkpt lat="46.5674433" lon="12.558535"><ele>1291.8000000000002</ele><time>2026-04-26T13:59:39.036Z</time></trkpt><trkpt lat="46.5675267" lon="12.558635"><ele>1294.0</ele><time>2026-04-26T13:59:40.04Z</time></trkpt><trkpt lat="46.5675967" lon="12.55876"><ele>1294.0</ele><time>2026-04-26T13:59:41.039Z</time></trkpt><trkpt lat="46.5676517" lon="12.558895"><ele>1294.0</ele><time>2026-04-26T13:59:42.038Z</time></trkpt><trkpt lat="46.5677033" lon="12.5590217"><ele>1294.0</ele><time>2026-04-26T13:59:43.04Z</time></trkpt><trkpt lat="46.5677517" lon="12.5591267"><ele>1294.0</ele><time>2026-04-26T13:59:44.038Z</time></trkpt><trkpt lat="46.5678117" lon="12.559215"><ele>1294.0</ele><time>2026-04-26T13:59:45.039Z</time></trkpt><trkpt lat="46.5678683" lon="12.5592983"><ele>1298.6666666666665</ele><time>2026-04-26T13:59:46.037Z</time></trkpt><trkpt lat="46.567925" lon="12.5593883"><ele>1303.3333333333333</ele><time>2026-04-26T13:59:47.037Z</time></trkpt><trkpt lat="46.5679833" lon="12.5594733"><ele>1308.0</ele><time>2026-04-26T13:59:48.035Z</time></trkpt><trkpt lat="46.56805" lon="12.55955"><ele>1312.6666666666667</ele><time>2026-04-26T13:59:49.041Z</time></trkpt><trkpt lat="46.5681167" lon="12.559625"><ele>1317.3333333333335</ele><time>2026-04-26T13:59:50.037Z</time></trkpt><trkpt lat="46.568185" lon="12.5596983"><ele>1322.0</ele><time>2026-04-26T13:59:51.041Z</time></trkpt><trkpt lat="46.56825" lon="12.5597617"><ele>1322.0</ele><time>2026-04-26T13:59:52.035Z</time></trkpt><trkpt lat="46.568345" lon="12.559775"><ele>1322.0</ele><time>2026-04-26T13:59:54.042Z</time></trkpt><trkpt lat="46.5683883" lon="12.5596783"><ele>1322.0</ele><time>2026-04-26T13:59:56.043Z</time></trkpt><trkpt lat="46.56831" lon="12.5595117"><ele>1322.0</ele><time>2026-04-26T13:59:58.04Z</time></trkpt><trkpt lat="46.5682633" lon="12.559415"><ele>1322.0</ele><time>2026-04-26T13:59:59.039Z</time></trkpt><trkpt lat="46.56822" lon="12.5592967"><ele>1324.6</ele><time>2026-04-26T14:00:00.04Z</time></trkpt><trkpt lat="46.5681717" lon="12.5591667"><ele>1327.1999999999998</ele><time>2026-04-26T14:00:01.036Z</time></trkpt><trkpt lat="46.5681333" lon="12.5590283"><ele>1329.8</ele><time>2026-04-26T14:00:02.039Z</time></trkpt><trkpt lat="46.5680983" lon="12.5588917"><ele>1332.4</ele><time>2026-04-26T14:00:03.035Z</time></trkpt><trkpt lat="46.568065" lon="12.5587517"><ele>1335.0</ele><time>2026-04-26T14:00:04.034Z</time></trkpt><trkpt lat="46.56803" lon="12.558615"><ele>1331.8</ele><time>2026-04-26T14:00:05.041Z</time></trkpt><trkpt lat="46.5679883" lon="12.55849"><ele>1328.6</ele><time>2026-04-26T14:00:06.042Z</time></trkpt><trkpt lat="46.5679433" lon="12.5583667"><ele>1325.4</ele><time>2026-04-26T14:00:07.038Z</time></trkpt><trkpt lat="46.5678867" lon="12.5582567"><ele>1322.2</ele><time>2026-04-26T14:00:08.041Z</time></trkpt><trkpt lat="46.567815" lon="12.55817"><ele>1319.0</ele><time>2026-04-26T14:00:09.04Z</time></trkpt><trkpt lat="46.5677333" lon="12.5581017"><ele>1319.0</ele><time>2026-04-26T14:00:10.039Z</time></trkpt><trkpt lat="46.5676617" lon="12.55804"><ele>1319.0</ele><time>2026-04-26T14:00:11.037Z</time></trkpt><trkpt lat="46.5675933" lon="12.5579333"><ele>1319.0</ele><time>2026-04-26T14:00:13.041Z</time></trkpt><trkpt lat="46.5676117" lon="12.5578433"><ele>1319.0</ele><time>2026-04-26T14:00:15.038Z</time></trkpt><trkpt lat="46.5677333" lon="12.5578783"><ele>1319.0</ele><time>2026-04-26T14:00:18.039Z</time></trkpt><trkpt lat="46.5678117" lon="12.5579467"><ele>1326.4</ele><time>2026-04-26T14:00:19.036Z</time></trkpt><trkpt lat="46.5678967" lon="12.5580167"><ele>1333.8000000000002</ele><time>2026-04-26T14:00:20.04Z</time></trkpt><trkpt lat="46.5679833" lon="12.5581"><ele>1341.1999999999998</ele><time>2026-04-26T14:00:21.039Z</time></trkpt><trkpt lat="46.5680733" lon="12.558195"><ele>1348.6</ele><time>2026-04-26T14:00:22.04Z</time></trkpt><trkpt lat="46.5681617" lon="12.558295"><ele>1356.0</ele><time>2026-04-26T14:00:23.041Z</time></trkpt><trkpt lat="46.5682433" lon="12.5583833"><ele>1356.0</ele><time>2026-04-26T14:00:24.042Z</time></trkpt><trkpt lat="46.5683167" lon="12.558465"><ele>1356.0</ele><time>2026-04-26T14:00:25.038Z</time></trkpt><trkpt lat="46.5683833" lon="12.558555"><ele>1356.0</ele><time>2026-04-26T14:00:26.04Z</time></trkpt><trkpt lat="46.568455" lon="12.5588283"><ele>1356.0</ele><time>2026-04-26T14:00:28.039Z</time></trkpt><trkpt lat="46.56857" lon="12.5589467"><ele>1352.5</ele><time>2026-04-26T14:00:29.339Z</time></trkpt><trkpt lat="46.5686883" lon="12.5590917"><ele>1349.0</ele><time>2026-04-26T14:00:31.035Z</time></trkpt><trkpt lat="46.5687483" lon="12.5591733"><ele>1345.5</ele><time>2026-04-26T14:00:32.036Z</time></trkpt><trkpt lat="46.5688" lon="12.5592483"><ele>1342.0</ele><time>2026-04-26T14:00:33.036Z</time></trkpt><trkpt lat="46.5688433" lon="12.5593233"><ele>1338.5</ele><time>2026-04-26T14:00:34.036Z</time></trkpt><trkpt lat="46.5688817" lon="12.5594067"><ele>1335.0</ele><time>2026-04-26T14:00:35.036Z</time></trkpt><trkpt lat="46.5689267" lon="12.5594967"><ele>1340.3333333333333</ele><time>2026-04-26T14:00:36.04Z</time></trkpt><trkpt lat="46.5689683" lon="12.5595833"><ele>1345.6666666666667</ele><time>2026-04-26T14:00:37.039Z</time></trkpt><trkpt lat="46.56901" lon="12.5596733"><ele>1351.0</ele><time>2026-04-26T14:00:38.037Z</time></trkpt><trkpt lat="46.56906" lon="12.55976"><ele>1356.3333333333335</ele><time>2026-04-26T14:00:39.034Z</time></trkpt><trkpt lat="46.5691083" lon="12.55985"><ele>1361.6666666666667</ele><time>2026-04-26T14:00:40.033Z</time></trkpt><trkpt lat="46.56915" lon="12.55995"><ele>1367.0</ele><time>2026-04-26T14:00:41.036Z</time></trkpt><trkpt lat="46.5691817" lon="12.56005"><ele>1367.0</ele><time>2026-04-26T14:00:42.033Z</time></trkpt><trkpt lat="46.5692" lon="12.5601717"><ele>1367.0</ele><time>2026-04-26T14:00:43.033Z</time></trkpt><trkpt lat="46.5692167" lon="12.5603033"><ele>1367.0</ele><time>2026-04-26T14:00:44.04Z</time></trkpt><trkpt lat="46.5692317" lon="12.5604283"><ele>1367.0</ele><time>2026-04-26T14:00:45.036Z</time></trkpt><trkpt lat="46.56926" lon="12.56055"><ele>1367.0</ele><time>2026-04-26T14:00:46.035Z</time></trkpt><trkpt lat="46.5692983" lon="12.5606683"><ele>1367.0</ele><time>2026-04-26T14:00:47.037Z</time></trkpt><trkpt lat="46.569345" lon="12.56081"><ele>1365.6</ele><time>2026-04-26T14:00:48.038Z</time></trkpt><trkpt lat="46.5693933" lon="12.560955"><ele>1364.1999999999998</ele><time>2026-04-26T14:00:49.037Z</time></trkpt><trkpt lat="46.56943" lon="12.5610983"><ele>1362.8</ele><time>2026-04-26T14:00:50.037Z</time></trkpt><trkpt lat="46.5694483" lon="12.5612367"><ele>1361.4</ele><time>2026-04-26T14:00:51.038Z</time></trkpt><trkpt lat="46.5694533" lon="12.561375"><ele>1360.0</ele><time>2026-04-26T14:00:52.035Z</time></trkpt><trkpt lat="46.5694617" lon="12.56151"><ele>1360.0</ele><time>2026-04-26T14:00:53.038Z</time></trkpt><trkpt lat="46.5694833" lon="12.5616417"><ele>1360.0</ele><time>2026-04-26T14:00:54.039Z</time></trkpt><trkpt lat="46.5695067" lon="12.561765"><ele>1360.0</ele><time>2026-04-26T14:00:55.038Z</time></trkpt><trkpt lat="46.5695167" lon="12.5618867"><ele>1360.0</ele><time>2026-04-26T14:00:56.04Z</time></trkpt><trkpt lat="46.56951" lon="12.5620067"><ele>1360.0</ele><time>2026-04-26T14:00:57.033Z</time></trkpt><trkpt lat="46.5694867" lon="12.5621117"><ele>1360.0</ele><time>2026-04-26T14:00:58.039Z</time></trkpt><trkpt lat="46.5694633" lon="12.5622083"><ele>1359.3333333333333</ele><time>2026-04-26T14:00:59.034Z</time></trkpt><trkpt lat="46.5694683" lon="12.5623717"><ele>1358.6666666666665</ele><time>2026-04-26T14:01:01.038Z</time></trkpt><trkpt lat="46.5695083" lon="12.5624467"><ele>1358.0</ele><time>2026-04-26T14:01:02.041Z</time></trkpt><trkpt lat="46.56956" lon="12.5625233"><ele>1357.3333333333333</ele><time>2026-04-26T14:01:03.038Z</time></trkpt><trkpt lat="46.5696133" lon="12.5626117"><ele>1356.6666666666667</ele><time>2026-04-26T14:01:04.037Z</time></trkpt><trkpt lat="46.5696667" lon="12.5627017"><ele>1356.0</ele><time>2026-04-26T14:01:05.042Z</time></trkpt><trkpt lat="46.56972" lon="12.5627867"><ele>1360.6666666666667</ele><time>2026-04-26T14:01:06.041Z</time></trkpt><trkpt lat="46.5697767" lon="12.5628717"><ele>1365.3333333333333</ele><time>2026-04-26T14:01:07.037Z</time></trkpt><trkpt lat="46.5698367" lon="12.56296"><ele>1370.0</ele><time>2026-04-26T14:01:08.041Z</time></trkpt><trkpt lat="46.5698917" lon="12.563055"><ele>1374.6666666666665</ele><time>2026-04-26T14:01:09.036Z</time></trkpt><trkpt lat="46.5699467" lon="12.5631483"><ele>1379.3333333333333</ele><time>2026-04-26T14:01:10.039Z</time></trkpt><trkpt lat="46.5700083" lon="12.56323"><ele>1384.0</ele><time>2026-04-26T14:01:11.038Z</time></trkpt><trkpt lat="46.5700833" lon="12.563295"><ele>1384.0</ele><time>2026-04-26T14:01:12.038Z</time></trkpt><trkpt lat="46.57016" lon="12.5633417"><ele>1384.0</ele><time>2026-04-26T14:01:13.038Z</time></trkpt><trkpt lat="46.5702417" lon="12.5633667"><ele>1384.0</ele><time>2026-04-26T14:01:14.038Z</time></trkpt><trkpt lat="46.57033" lon="12.5633767"><ele>1384.0</ele><time>2026-04-26T14:01:15.039Z</time></trkpt><trkpt lat="46.5704217" lon="12.5633883"><ele>1384.0</ele><time>2026-04-26T14:01:16.035Z</time></trkpt><trkpt lat="46.5705117" lon="12.563415"><ele>1384.0</ele><time>2026-04-26T14:01:17.037Z</time></trkpt><trkpt lat="46.5705967" lon="12.56346"><ele>1386.5</ele><time>2026-04-26T14:01:18.038Z</time></trkpt><trkpt lat="46.57067" lon="12.563525"><ele>1389.0</ele><time>2026-04-26T14:01:19.037Z</time></trkpt><trkpt lat="46.570735" lon="12.5635883"><ele>1391.5</ele><time>2026-04-26T14:01:20.04Z</time></trkpt><trkpt lat="46.57079" lon="12.5636483"><ele>1394.0</ele><time>2026-04-26T14:01:21.041Z</time></trkpt><trkpt lat="46.5708417" lon="12.5637133"><ele>1396.5</ele><time>2026-04-26T14:01:22.038Z</time></trkpt><trkpt lat="46.5709333" lon="12.5637783"><ele>1399.0</ele><time>2026-04-26T14:01:24.04Z</time></trkpt><trkpt lat="46.5709983" lon="12.5637117"><ele>1402.6666666666665</ele><time>2026-04-26T14:01:26.039Z</time></trkpt><trkpt lat="46.5709833" lon="12.5636"><ele>1406.3333333333333</ele><time>2026-04-26T14:01:28.035Z</time></trkpt><trkpt lat="46.57094" lon="12.5634717"><ele>1410.0</ele><time>2026-04-26T14:01:30.038Z</time></trkpt><trkpt lat="46.57096" lon="12.5633567"><ele>1413.6666666666667</ele><time>2026-04-26T14:01:32.041Z</time></trkpt><trkpt lat="46.5710433" lon="12.5633033"><ele>1417.3333333333335</ele><time>2026-04-26T14:01:35.04Z</time></trkpt><trkpt lat="46.5710917" lon="12.5634067"><ele>1421.0</ele><time>2026-04-26T14:01:37.038Z</time></trkpt><trkpt lat="46.5711417" lon="12.5635467"><ele>1421.0</ele><time>2026-04-26T14:01:39.038Z</time></trkpt><trkpt lat="46.5711633" lon="12.5636333"><ele>1421.0</ele><time>2026-04-26T14:01:40.036Z</time></trkpt><trkpt lat="46.5712017" lon="12.5637767"><ele>1421.0</ele><time>2026-04-26T14:01:42.04Z</time></trkpt><trkpt lat="46.5712333" lon="12.5639167"><ele>1421.0</ele><time>2026-04-26T14:01:44.04Z</time></trkpt><trkpt lat="46.5713017" lon="12.5640283"><ele>1421.0</ele><time>2026-04-26T14:01:46.034Z</time></trkpt><trkpt lat="46.5713883" lon="12.564085"><ele>1424.6</ele><time>2026-04-26T14:01:48.041Z</time></trkpt><trkpt lat="46.57144" lon="12.5641767"><ele>1428.1999999999998</ele><time>2026-04-26T14:01:50.04Z</time></trkpt><trkpt lat="46.5714517" lon="12.5643067"><ele>1431.8000000000002</ele><time>2026-04-26T14:01:52.038Z</time></trkpt><trkpt lat="46.5714667" lon="12.56446"><ele>1435.4</ele><time>2026-04-26T14:01:54.042Z</time></trkpt><trkpt lat="46.57152" lon="12.5646067"><ele>1439.0</ele><time>2026-04-26T14:01:56.042Z</time></trkpt><trkpt lat="46.5716083" lon="12.5647217"><ele>1439.0</ele><time>2026-04-26T14:01:58.039Z</time></trkpt><trkpt lat="46.571675" lon="12.5647483"><ele>1439.0</ele><time>2026-04-26T14:01:59.039Z</time></trkpt><trkpt lat="46.57175" lon="12.5647617"><ele>1439.0</ele><time>2026-04-26T14:02:00.04Z</time></trkpt><trkpt lat="46.5718183" lon="12.564775"><ele>1439.0</ele><time>2026-04-26T14:02:01.04Z</time></trkpt><trkpt lat="46.5719017" lon="12.564855"><ele>1439.0</ele><time>2026-04-26T14:02:03.041Z</time></trkpt><trkpt lat="46.5719483" lon="12.5650067"><ele>1439.0</ele><time>2026-04-26T14:02:05.037Z</time></trkpt><trkpt lat="46.5719933" lon="12.5651683"><ele>1444.3333333333335</ele><time>2026-04-26T14:02:07.04Z</time></trkpt><trkpt lat="46.5720533" lon="12.565335"><ele>1449.6666666666667</ele><time>2026-04-26T14:02:09.039Z</time></trkpt><trkpt lat="46.5720783" lon="12.5654217"><ele>1455.0</ele><time>2026-04-26T14:02:10.038Z</time></trkpt><trkpt lat="46.5721017" lon="12.5655117"><ele>1460.3333333333333</ele><time>2026-04-26T14:02:11.039Z</time></trkpt><trkpt lat="46.572135" lon="12.565595"><ele>1465.6666666666665</ele><time>2026-04-26T14:02:12.036Z</time></trkpt><trkpt lat="46.572185" lon="12.5656683"><ele>1471.0</ele><time>2026-04-26T14:02:13.039Z</time></trkpt><trkpt lat="46.5722583" lon="12.5657217"><ele>1471.0</ele><time>2026-04-26T14:02:14.04Z</time></trkpt><trkpt lat="46.572335" lon="12.5657683"><ele>1471.0</ele><time>2026-04-26T14:02:15.038Z</time></trkpt><trkpt lat="46.572405" lon="12.5658183"><ele>1471.0</ele><time>2026-04-26T14:02:16.04Z</time></trkpt><trkpt lat="46.5724683" lon="12.5658733"><ele>1471.0</ele><time>2026-04-26T14:02:17.038Z</time></trkpt><trkpt lat="46.5725233" lon="12.5660183"><ele>1471.0</ele><time>2026-04-26T14:02:19.039Z</time></trkpt><trkpt lat="46.5725117" lon="12.56611"><ele>1471.0</ele><time>2026-04-26T14:02:20.039Z</time></trkpt><trkpt lat="46.5724817" lon="12.5662067"><ele>1470.1666666666665</ele><time>2026-04-26T14:02:21.039Z</time></trkpt><trkpt lat="46.5724283" lon="12.56631"><ele>1469.3333333333333</ele><time>2026-04-26T14:02:22.039Z</time></trkpt><trkpt lat="46.5723833" lon="12.5664133"><ele>1468.5</ele><time>2026-04-26T14:02:23.038Z</time></trkpt><trkpt lat="46.5723483" lon="12.5665183"><ele>1467.6666666666667</ele><time>2026-04-26T14:02:24.039Z</time></trkpt><trkpt lat="46.5723233" lon="12.5666333"><ele>1466.8333333333335</ele><time>2026-04-26T14:02:25.039Z</time></trkpt><trkpt lat="46.57232" lon="12.5667517"><ele>1466.0</ele><time>2026-04-26T14:02:26.041Z</time></trkpt><trkpt lat="46.5723283" lon="12.566865"><ele>1466.0</ele><time>2026-04-26T14:02:27.04Z</time></trkpt><trkpt lat="46.5723517" lon="12.566985"><ele>1466.0</ele><time>2026-04-26T14:02:28.034Z</time></trkpt><trkpt lat="46.5723933" lon="12.5670967"><ele>1466.0</ele><time>2026-04-26T14:02:29.036Z</time></trkpt><trkpt lat="46.5724333" lon="12.5671867"><ele>1466.0</ele><time>2026-04-26T14:02:30.04Z</time></trkpt><trkpt lat="46.5725283" lon="12.5672467"><ele>1466.0</ele><time>2026-04-26T14:02:32.03Z</time></trkpt><trkpt lat="46.572595" lon="12.5672233"><ele>1466.0</ele><time>2026-04-26T14:02:33.037Z</time></trkpt><trkpt lat="46.5726617" lon="12.5671833"><ele>1463.8333333333335</ele><time>2026-04-26T14:02:34.037Z</time></trkpt><trkpt lat="46.5727233" lon="12.5671433"><ele>1461.6666666666667</ele><time>2026-04-26T14:02:35.041Z</time></trkpt><trkpt lat="46.57278" lon="12.5670983"><ele>1459.5</ele><time>2026-04-26T14:02:36.037Z</time></trkpt><trkpt lat="46.572875" lon="12.5670167"><ele>1457.3333333333333</ele><time>2026-04-26T14:02:38.041Z</time></trkpt><trkpt lat="46.572945" lon="12.566945"><ele>1455.1666666666665</ele><time>2026-04-26T14:02:40.039Z</time></trkpt><trkpt lat="46.57301" lon="12.5668833"><ele>1453.0</ele><time>2026-04-26T14:02:42.04Z</time></trkpt><trkpt lat="46.5730783" lon="12.5668"><ele>1459.6000000000001</ele><time>2026-04-26T14:02:44.04Z</time></trkpt><trkpt lat="46.57314" lon="12.5667283"><ele>1466.2</ele><time>2026-04-26T14:02:46.037Z</time></trkpt><trkpt lat="46.573195" lon="12.5666767"><ele>1472.8</ele><time>2026-04-26T14:02:48.04Z</time></trkpt><trkpt lat="46.5732683" lon="12.5665983"><ele>1479.4</ele><time>2026-04-26T14:02:50.04Z</time></trkpt><trkpt lat="46.5733467" lon="12.5665017"><ele>1486.0</ele><time>2026-04-26T14:02:52.037Z</time></trkpt><trkpt lat="46.57345" lon="12.5664117"><ele>1486.0</ele><time>2026-04-26T14:02:54.029Z</time></trkpt><trkpt lat="46.5735683" lon="12.566455"><ele>1486.0</ele><time>2026-04-26T14:02:56.03Z</time></trkpt><trkpt lat="46.5736233" lon="12.5665067"><ele>1486.0</ele><time>2026-04-26T14:02:57.03Z</time></trkpt><trkpt lat="46.573705" lon="12.5665683"><ele>1486.0</ele><time>2026-04-26T14:02:59.03Z</time></trkpt><trkpt lat="46.5737717" lon="12.5665333"><ele>1486.0</ele><time>2026-04-26T14:03:01.027Z</time></trkpt><trkpt lat="46.5737783" lon="12.5664217"><ele>1486.0</ele><time>2026-04-26T14:03:03.035Z</time></trkpt><trkpt lat="46.573735" lon="12.5663417"><ele>1487.4285714285716</ele><time>2026-04-26T14:03:04.038Z</time></trkpt><trkpt lat="46.5736917" lon="12.5662667"><ele>1488.8571428571427</ele><time>2026-04-26T14:03:05.036Z</time></trkpt><trkpt lat="46.5736567" lon="12.56619"><ele>1490.2857142857142</ele><time>2026-04-26T14:03:06.04Z</time></trkpt><trkpt lat="46.5736183" lon="12.56611"><ele>1491.7142857142858</ele><time>2026-04-26T14:03:07.039Z</time></trkpt><trkpt lat="46.5735767" lon="12.5660183"><ele>1493.1428571428573</ele><time>2026-04-26T14:03:08.037Z</time></trkpt><trkpt lat="46.5735217" lon="12.5659267"><ele>1494.5714285714284</ele><time>2026-04-26T14:03:09.038Z</time></trkpt><trkpt lat="46.5734667" lon="12.5658417"><ele>1496.0</ele><time>2026-04-26T14:03:10.035Z</time></trkpt><trkpt lat="46.573425" lon="12.56577"><ele>1496.8333333333335</ele><time>2026-04-26T14:03:11.036Z</time></trkpt><trkpt lat="46.5734017" lon="12.5656733"><ele>1497.6666666666667</ele><time>2026-04-26T14:03:13.038Z</time></trkpt><trkpt lat="46.5734783" lon="12.5656517"><ele>1498.5</ele><time>2026-04-26T14:03:16.036Z</time></trkpt><trkpt lat="46.5735883" lon="12.565735"><ele>1499.3333333333333</ele><time>2026-04-26T14:03:18.036Z</time></trkpt><trkpt lat="46.57365" lon="12.5657783"><ele>1500.1666666666665</ele><time>2026-04-26T14:03:19.04Z</time></trkpt><trkpt lat="46.5737067" lon="12.56583"><ele>1501.0</ele><time>2026-04-26T14:03:20.04Z</time></trkpt><trkpt lat="46.5737667" lon="12.5658833"><ele>1517.0</ele><time>2026-04-26T14:03:21.037Z</time></trkpt><trkpt lat="46.5738267" lon="12.5659267"><ele>1517.0</ele><time>2026-04-26T14:03:22.036Z</time></trkpt><trkpt lat="46.5739267" lon="12.56594"><ele>1517.0</ele><time>2026-04-26T14:03:24.035Z</time></trkpt><trkpt lat="46.573985" lon="12.5659"><ele>1517.0</ele><time>2026-04-26T14:03:26.039Z</time></trkpt><trkpt lat="46.5739717" lon="12.5657983"><ele>1517.0</ele><time>2026-04-26T14:03:28.037Z</time></trkpt><trkpt lat="46.5739083" lon="12.5656667"><ele>1517.0</ele><time>2026-04-26T14:03:30.041Z</time></trkpt></trkseg><trkseg><trkpt lat="46.5976933" lon="12.5587517"><ele>1891.0</ele><time>2026-04-26T14:22:32.031Z</time></trkpt><trkpt lat="46.5978233" lon="12.5587833"><ele>1891.0</ele><time>2026-04-26T14:22:34.026Z</time></trkpt><trkpt lat="46.5979633" lon="12.5588217"><ele>1891.0</ele><time>2026-04-26T14:22:36.026Z</time></trkpt><trkpt lat="46.5980383" lon="12.5588467"><ele>1891.0</ele><time>2026-04-26T14:22:37.026Z</time></trkpt><trkpt lat="46.5982517" lon="12.5589"><ele>1892.75</ele><time>2026-04-26T14:22:40.027Z</time></trkpt><trkpt lat="46.5984617" lon="12.5589683"><ele>1894.5</ele><time>2026-04-26T14:22:43.026Z</time></trkpt><trkpt lat="46.5985383" lon="12.5590033"><ele>1896.25</ele><time>2026-04-26T14:22:44.026Z</time></trkpt><trkpt lat="46.59862" lon="12.5590333"><ele>1898.0</ele><time>2026-04-26T14:22:45.026Z</time></trkpt><trkpt lat="46.5987067" lon="12.5590567"><ele>1904.0</ele><time>2026-04-26T14:22:46.039Z</time></trkpt><trkpt lat="46.5988933" lon="12.5591333"><ele>1910.0</ele><time>2026-04-26T14:22:48.026Z</time></trkpt><trkpt lat="46.5991533" lon="12.5593333"><ele>1910.0</ele><time>2026-04-26T14:22:51.025Z</time></trkpt><trkpt lat="46.5992433" lon="12.559395"><ele>1910.0</ele><time>2026-04-26T14:22:52.026Z</time></trkpt><trkpt lat="46.5993217" lon="12.559465"><ele>1910.0</ele><time>2026-04-26T14:22:53.026Z</time></trkpt><trkpt lat="46.599385" lon="12.5595583"><ele>1910.0</ele><time>2026-04-26T14:22:54.026Z</time></trkpt><trkpt lat="46.5995033" lon="12.55976"><ele>1910.8</ele><time>2026-04-26T14:22:56.027Z</time></trkpt><trkpt lat="46.599565" lon="12.5598517"><ele>1911.6</ele><time>2026-04-26T14:22:57.025Z</time></trkpt><trkpt lat="46.5996417" lon="12.5599417"><ele>1912.4</ele><time>2026-04-26T14:22:58.026Z</time></trkpt><trkpt lat="46.5997283" lon="12.5600283"><ele>1913.2</ele><time>2026-04-26T14:22:59.026Z</time></trkpt><trkpt lat="46.5998167" lon="12.5601167"><ele>1914.0</ele><time>2026-04-26T14:23:00.026Z</time></trkpt><trkpt lat="46.599895" lon="12.5602033"><ele>1914.0</ele><time>2026-04-26T14:23:01.028Z</time></trkpt><trkpt lat="46.5999583" lon="12.5602767"><ele>1914.0000000000002</ele><time>2026-04-26T14:23:02.027Z</time></trkpt><trkpt lat="46.6000133" lon="12.5603517"><ele>1914.0</ele><time>2026-04-26T14:23:03.026Z</time></trkpt><trkpt lat="46.6000567" lon="12.5604383"><ele>1914.0</ele><time>2026-04-26T14:23:04.026Z</time></trkpt><trkpt lat="46.6000917" lon="12.560515"><ele>1914.0000000000002</ele><time>2026-04-26T14:23:05.028Z</time></trkpt><trkpt lat="46.60013" lon="12.5605933"><ele>1914.0</ele><time>2026-04-26T14:23:06.029Z</time></trkpt><trkpt lat="46.6001733" lon="12.5606817"><ele>1914.0</ele><time>2026-04-26T14:23:07.027Z</time></trkpt><trkpt lat="46.6002133" lon="12.5607783"><ele>1912.1666666666667</ele><time>2026-04-26T14:23:08.026Z</time></trkpt><trkpt lat="46.6002517" lon="12.5608783"><ele>1910.3333333333335</ele><time>2026-04-26T14:23:09.025Z</time></trkpt><trkpt lat="46.600285" lon="12.5609783"><ele>1908.5</ele><time>2026-04-26T14:23:10.028Z</time></trkpt><trkpt lat="46.6003233" lon="12.5610717"><ele>1906.6666666666667</ele><time>2026-04-26T14:23:11.026Z</time></trkpt><trkpt lat="46.6003683" lon="12.561155"><ele>1904.8333333333335</ele><time>2026-04-26T14:23:12.026Z</time></trkpt><trkpt lat="46.6004167" lon="12.5612233"><ele>1903.0</ele><time>2026-04-26T14:23:13.026Z</time></trkpt><trkpt lat="46.6005217" lon="12.5612833"><ele>1903.0000000000002</ele><time>2026-04-26T14:23:15.025Z</time></trkpt><trkpt lat="46.600645" lon="12.5612817"><ele>1903.0</ele><time>2026-04-26T14:23:17.026Z</time></trkpt><trkpt lat="46.6007083" lon="12.5612383"><ele>1903.0</ele><time>2026-04-26T14:23:18.028Z</time></trkpt><trkpt lat="46.60077" lon="12.5611783"><ele>1903.0</ele><time>2026-04-26T14:23:19.026Z</time></trkpt><trkpt lat="46.6008317" lon="12.56113"><ele>1903.0000000000002</ele><time>2026-04-26T14:23:20.03Z</time></trkpt><trkpt lat="46.600905" lon="12.5610867"><ele>1903.0</ele><time>2026-04-26T14:23:21.026Z</time></trkpt><trkpt lat="46.6009867" lon="12.5610417"><ele>1903.0000000000002</ele><time>2026-04-26T14:23:22.027Z</time></trkpt><trkpt lat="46.6010683" lon="12.56101"><ele>1903.0</ele><time>2026-04-26T14:23:23.026Z</time></trkpt><trkpt lat="46.6011483" lon="12.5609867"><ele>1903.0</ele><time>2026-04-26T14:23:24.026Z</time></trkpt><trkpt lat="46.601225" lon="12.5609767"><ele>1903.0</ele><time>2026-04-26T14:23:25.028Z</time></trkpt><trkpt lat="46.6012983" lon="12.5609767"><ele>1903.0000000000002</ele><time>2026-04-26T14:23:26.028Z</time></trkpt><trkpt lat="46.6013617" lon="12.56101"><ele>1903.0</ele><time>2026-04-26T14:23:27.027Z</time></trkpt><trkpt lat="46.60143" lon="12.5610583"><ele>1900.6666666666667</ele><time>2026-04-26T14:23:28.028Z</time></trkpt><trkpt lat="46.6015067" lon="12.5611133"><ele>1898.3333333333335</ele><time>2026-04-26T14:23:29.026Z</time></trkpt><trkpt lat="46.6015867" lon="12.5611617"><ele>1896.0</ele><time>2026-04-26T14:23:30.026Z</time></trkpt><trkpt lat="46.601665" lon="12.5612067"><ele>1893.6666666666665</ele><time>2026-04-26T14:23:31.027Z</time></trkpt><trkpt lat="46.60174" lon="12.5612517"><ele>1891.3333333333333</ele><time>2026-04-26T14:23:32.028Z</time></trkpt><trkpt lat="46.6018133" lon="12.5613"><ele>1889.0</ele><time>2026-04-26T14:23:33.026Z</time></trkpt><trkpt lat="46.601885" lon="12.561345"><ele>1885.8333333333333</ele><time>2026-04-26T14:23:34.027Z</time></trkpt><trkpt lat="46.6019617" lon="12.561375"><ele>1882.6666666666665</ele><time>2026-04-26T14:23:35.026Z</time></trkpt><trkpt lat="46.6020317" lon="12.56142"><ele>1879.5</ele><time>2026-04-26T14:23:36.026Z</time></trkpt><trkpt lat="46.6020883" lon="12.5614617"><ele>1876.3333333333335</ele><time>2026-04-26T14:23:37.026Z</time></trkpt><trkpt lat="46.60217" lon="12.5615683"><ele>1873.1666666666667</ele><time>2026-04-26T14:23:39.026Z</time></trkpt><trkpt lat="46.6022283" lon="12.5617133"><ele>1870.0</ele><time>2026-04-26T14:23:41.026Z</time></trkpt><trkpt lat="46.6023" lon="12.5617867"><ele>1870.0000000000002</ele><time>2026-04-26T14:23:43.026Z</time></trkpt><trkpt lat="46.6023617" lon="12.5618167"><ele>1870.0</ele><time>2026-04-26T14:23:44.027Z</time></trkpt><trkpt lat="46.6024217" lon="12.5618467"><ele>1870.0</ele><time>2026-04-26T14:23:45.026Z</time></trkpt><trkpt lat="46.60251" lon="12.5619317"><ele>1870.0</ele><time>2026-04-26T14:23:47.027Z</time></trkpt><trkpt lat="46.6026083" lon="12.5620283"><ele>1870.0000000000002</ele><time>2026-04-26T14:23:49.026Z</time></trkpt><trkpt lat="46.60269" lon="12.56208"><ele>1870.0</ele><time>2026-04-26T14:23:51.026Z</time></trkpt><trkpt lat="46.60278" lon="12.5621"><ele>1865.6</ele><time>2026-04-26T14:23:53.026Z</time></trkpt><trkpt lat="46.6028733" lon="12.5621433"><ele>1861.2</ele><time>2026-04-26T14:23:55.027Z</time></trkpt><trkpt lat="46.6029783" lon="12.5622467"><ele>1856.8000000000002</ele><time>2026-04-26T14:23:57.026Z</time></trkpt><trkpt lat="46.6030783" lon="12.562375"><ele>1852.4</ele><time>2026-04-26T14:23:59.026Z</time></trkpt><trkpt lat="46.6031417" lon="12.5624433"><ele>1848.0</ele><time>2026-04-26T14:24:00.027Z</time></trkpt><trkpt lat="46.60321" lon="12.5625033"><ele>1848.0</ele><time>2026-04-26T14:24:01.026Z</time></trkpt><trkpt lat="46.6032733" lon="12.5625483"><ele>1848.0</ele><time>2026-04-26T14:24:02.027Z</time></trkpt><trkpt lat="46.6033383" lon="12.5625867"><ele>1848.0</ele><time>2026-04-26T14:24:03.027Z</time></trkpt><trkpt lat="46.60342" lon="12.5626617"><ele>1848.0</ele><time>2026-04-26T14:24:05.032Z</time></trkpt><trkpt lat="46.6034717" lon="12.562745"><ele>1848.0</ele><time>2026-04-26T14:24:08.027Z</time></trkpt><trkpt lat="46.6033817" lon="12.562795"><ele>1848.0</ele><time>2026-04-26T14:24:11.026Z</time></trkpt><trkpt lat="46.6032517" lon="12.5628517"><ele>1848.0</ele><time>2026-04-26T14:24:13.027Z</time></trkpt><trkpt lat="46.6031367" lon="12.5628433"><ele>1848.0000000000002</ele><time>2026-04-26T14:24:14.028Z</time></trkpt><trkpt lat="46.6030067" lon="12.562805"><ele>1848.0000000000002</ele><time>2026-04-26T14:24:16.026Z</time></trkpt><trkpt lat="46.6028983" lon="12.5627767"><ele>1848.0</ele><time>2026-04-26T14:24:17.026Z</time></trkpt><trkpt lat="46.6028233" lon="12.5627567"><ele>1848.0</ele><time>2026-04-26T14:24:18.027Z</time></trkpt><trkpt lat="46.6027083" lon="12.56272"><ele>1847.5</ele><time>2026-04-26T14:24:20.026Z</time></trkpt><trkpt lat="46.602795" lon="12.56286"><ele>1847.0</ele><time>2026-04-26T14:24:28.026Z</time></trkpt><trkpt lat="46.6028717" lon="12.5629117"><ele>1846.5</ele><time>2026-04-26T14:24:29.026Z</time></trkpt><trkpt lat="46.602945" lon="12.5629617"><ele>1846.0</ele><time>2026-04-26T14:24:30.026Z</time></trkpt><trkpt lat="46.6030083" lon="12.563015"><ele>1845.5</ele><time>2026-04-26T14:24:31.026Z</time></trkpt><trkpt lat="46.6030683" lon="12.5630767"><ele>1845.0</ele><time>2026-04-26T14:24:32.026Z</time></trkpt><trkpt lat="46.60312" lon="12.5631367"><ele>1841.2</ele><time>2026-04-26T14:24:33.027Z</time></trkpt><trkpt lat="46.6031917" lon="12.56327"><ele>1837.4</ele><time>2026-04-26T14:24:34.025Z</time></trkpt><trkpt lat="46.6032983" lon="12.5634333"><ele>1833.6</ele><time>2026-04-26T14:24:36.025Z</time></trkpt><trkpt lat="46.6033617" lon="12.5634883"><ele>1829.8</ele><time>2026-04-26T14:24:37.026Z</time></trkpt><trkpt lat="46.6034367" lon="12.563545"><ele>1826.0</ele><time>2026-04-26T14:24:38.027Z</time></trkpt><trkpt lat="46.60351" lon="12.5635867"><ele>1826.0</ele><time>2026-04-26T14:24:39.024Z</time></trkpt><trkpt lat="46.60359" lon="12.563625"><ele>1826.0</ele><time>2026-04-26T14:24:40.026Z</time></trkpt><trkpt lat="46.6036683" lon="12.56365"><ele>1826.0</ele><time>2026-04-26T14:24:41.026Z</time></trkpt><trkpt lat="46.6036733" lon="12.5641417"><ele>1821.6</ele><time>2026-04-26T14:28:20.027Z</time></trkpt><trkpt lat="46.6036917" lon="12.56427"><ele>1817.1999999999998</ele><time>2026-04-26T14:28:22.026Z</time></trkpt><trkpt lat="46.603715" lon="12.56441"><ele>1812.8000000000002</ele><time>2026-04-26T14:28:24.038Z</time></trkpt><trkpt lat="46.603735" lon="12.5645533"><ele>1808.4</ele><time>2026-04-26T14:28:26.039Z</time></trkpt><trkpt lat="46.6037917" lon="12.5647283"><ele>1804.0</ele><time>2026-04-26T14:28:28.036Z</time></trkpt><trkpt lat="46.603815" lon="12.564845"><ele>1801.6</ele><time>2026-04-26T14:28:29.038Z</time></trkpt><trkpt lat="46.6038383" lon="12.5649917"><ele>1799.2</ele><time>2026-04-26T14:28:30.039Z</time></trkpt><trkpt lat="46.6038617" lon="12.5651367"><ele>1796.7999999999997</ele><time>2026-04-26T14:28:31.037Z</time></trkpt><trkpt lat="46.60389" lon="12.5652617"><ele>1794.3999999999999</ele><time>2026-04-26T14:28:32.041Z</time></trkpt><trkpt lat="46.60392" lon="12.5653783"><ele>1792.0</ele><time>2026-04-26T14:28:33.038Z</time></trkpt><trkpt lat="46.6039483" lon="12.5654783"><ele>1790.0000000000002</ele><time>2026-04-26T14:28:34.038Z</time></trkpt><trkpt lat="46.603995" lon="12.5655567"><ele>1788.0</ele><time>2026-04-26T14:28:35.036Z</time></trkpt><trkpt lat="46.6040783" lon="12.5656283"><ele>1786.0</ele><time>2026-04-26T14:28:37.041Z</time></trkpt><trkpt lat="46.6041683" lon="12.5656067"><ele>1784.0</ele><time>2026-04-26T14:28:39.04Z</time></trkpt><trkpt lat="46.60425" lon="12.56552"><ele>1782.0000000000002</ele><time>2026-04-26T14:28:41.04Z</time></trkpt><trkpt lat="46.604295" lon="12.565455"><ele>1780.0</ele><time>2026-04-26T14:28:42.039Z</time></trkpt><trkpt lat="46.6043533" lon="12.5653667"><ele>1780.3333333333335</ele><time>2026-04-26T14:28:43.04Z</time></trkpt><trkpt lat="46.60442" lon="12.5652767"><ele>1780.6666666666667</ele><time>2026-04-26T14:28:44.039Z</time></trkpt><trkpt lat="46.6044817" lon="12.5651967"><ele>1781.0</ele><time>2026-04-26T14:28:45.039Z</time></trkpt><trkpt lat="46.604545" lon="12.5651183"><ele>1781.3333333333335</ele><time>2026-04-26T14:28:46.037Z</time></trkpt><trkpt lat="46.6046117" lon="12.565065"><ele>1781.6666666666667</ele><time>2026-04-26T14:28:47.039Z</time></trkpt><trkpt lat="46.604685" lon="12.56504"><ele>1782.0</ele><time>2026-04-26T14:28:48.041Z</time></trkpt><trkpt lat="46.60477" lon="12.56505"><ele>1782.0</ele><time>2026-04-26T14:28:49.038Z</time></trkpt><trkpt lat="46.6048633" lon="12.56508"><ele>1781.9999999999998</ele><time>2026-04-26T14:28:50.041Z</time></trkpt><trkpt lat="46.6049717" lon="12.5651183"><ele>1781.9999999999998</ele><time>2026-04-26T14:28:51.037Z</time></trkpt><trkpt lat="46.605075" lon="12.5651333"><ele>1782.0</ele><time>2026-04-26T14:28:52.037Z</time></trkpt><trkpt lat="46.6051733" lon="12.5651367"><ele>1782.0</ele><time>2026-04-26T14:28:53.041Z</time></trkpt><trkpt lat="46.6052717" lon="12.56512"><ele>1778.6</ele><time>2026-04-26T14:28:54.04Z</time></trkpt><trkpt lat="46.6053717" lon="12.5650733"><ele>1775.1999999999998</ele><time>2026-04-26T14:28:55.038Z</time></trkpt><trkpt lat="46.6054717" lon="12.5650367"><ele>1771.8</ele><time>2026-04-26T14:28:56.042Z</time></trkpt><trkpt lat="46.6055633" lon="12.5650017"><ele>1768.4</ele><time>2026-04-26T14:28:57.038Z</time></trkpt><trkpt lat="46.60565" lon="12.564955"><ele>1765.0</ele><time>2026-04-26T14:28:58.037Z</time></trkpt><trkpt lat="46.6057333" lon="12.5648967"><ele>1765.0</ele><time>2026-04-26T14:28:59.042Z</time></trkpt><trkpt lat="46.6058083" lon="12.5647933"><ele>1765.0</ele><time>2026-04-26T14:29:00.037Z</time></trkpt><trkpt lat="46.605885" lon="12.564695"><ele>1765.0</ele><time>2026-04-26T14:29:01.042Z</time></trkpt><trkpt lat="46.605955" lon="12.56459"><ele>1765.0</ele><time>2026-04-26T14:29:02.043Z</time></trkpt><trkpt lat="46.6060167" lon="12.564495"><ele>1765.0</ele><time>2026-04-26T14:29:03.04Z</time></trkpt><trkpt lat="46.60607" lon="12.5644233"><ele>1765.3333333333335</ele><time>2026-04-26T14:29:04.039Z</time></trkpt><trkpt lat="46.6061583" lon="12.5643633"><ele>1765.6666666666667</ele><time>2026-04-26T14:29:06.041Z</time></trkpt><trkpt lat="46.60622" lon="12.5644067"><ele>1766.0</ele><time>2026-04-26T14:29:08.04Z</time></trkpt><trkpt lat="46.6062433" lon="12.56452"><ele>1766.3333333333335</ele><time>2026-04-26T14:29:10.039Z</time></trkpt><trkpt lat="46.6062617" lon="12.5646217"><ele>1766.6666666666667</ele><time>2026-04-26T14:29:11.043Z</time></trkpt><trkpt lat="46.6062867" lon="12.5647417"><ele>1767.0</ele><time>2026-04-26T14:29:12.04Z</time></trkpt><trkpt lat="46.60631" lon="12.5648767"><ele>1767.0</ele><time>2026-04-26T14:29:13.041Z</time></trkpt><trkpt lat="46.6063167" lon="12.5650233"><ele>1766.9999999999998</ele><time>2026-04-26T14:29:14.04Z</time></trkpt><trkpt lat="46.6063067" lon="12.5651767"><ele>1766.9999999999998</ele><time>2026-04-26T14:29:15.042Z</time></trkpt><trkpt lat="46.6062917" lon="12.5653267"><ele>1767.0</ele><time>2026-04-26T14:29:16.037Z</time></trkpt><trkpt lat="46.6062833" lon="12.565465"><ele>1767.0</ele><time>2026-04-26T14:29:17.041Z</time></trkpt><trkpt lat="46.606285" lon="12.5655833"><ele>1765.6666666666667</ele><time>2026-04-26T14:29:18.04Z</time></trkpt><trkpt lat="46.6063017" lon="12.5656833"><ele>1764.3333333333335</ele><time>2026-04-26T14:29:19.041Z</time></trkpt><trkpt lat="46.6063717" lon="12.5658183"><ele>1763.0</ele><time>2026-04-26T14:29:21.042Z</time></trkpt><trkpt lat="46.6064383" lon="12.565875"><ele>1761.6666666666667</ele><time>2026-04-26T14:29:22.04Z</time></trkpt><trkpt lat="46.6065" lon="12.56595"><ele>1760.3333333333335</ele><time>2026-04-26T14:29:23.038Z</time></trkpt><trkpt lat="46.6065567" lon="12.56604"><ele>1759.0</ele><time>2026-04-26T14:29:24.041Z</time></trkpt><trkpt lat="46.6066083" lon="12.5661333"><ele>1759.0000000000002</ele><time>2026-04-26T14:29:25.039Z</time></trkpt><trkpt lat="46.6066467" lon="12.56621"><ele>1759.0</ele><time>2026-04-26T14:29:26.041Z</time></trkpt><trkpt lat="46.6067117" lon="12.5662833"><ele>1759.0</ele><time>2026-04-26T14:29:28.04Z</time></trkpt><trkpt lat="46.6067933" lon="12.5662383"><ele>1759.0</ele><time>2026-04-26T14:29:31.039Z</time></trkpt><trkpt lat="46.606865" lon="12.5661583"><ele>1759.0000000000002</ele><time>2026-04-26T14:29:33.04Z</time></trkpt><trkpt lat="46.6069467" lon="12.5660883"><ele>1759.0</ele><time>2026-04-26T14:29:35.039Z</time></trkpt><trkpt lat="46.60703" lon="12.566035"><ele>1761.0000000000002</ele><time>2026-04-26T14:29:37.041Z</time></trkpt><trkpt lat="46.607125" lon="12.565975"><ele>1763.0</ele><time>2026-04-26T14:29:39.035Z</time></trkpt><trkpt lat="46.6071967" lon="12.5658983"><ele>1765.0</ele><time>2026-04-26T14:29:41.039Z</time></trkpt><trkpt lat="46.6072567" lon="12.565845"><ele>1767.0</ele><time>2026-04-26T14:29:44.041Z</time></trkpt><trkpt lat="46.6073283" lon="12.5658317"><ele>1769.0000000000002</ele><time>2026-04-26T14:29:47.036Z</time></trkpt><trkpt lat="46.607395" lon="12.56586"><ele>1771.0</ele><time>2026-04-26T14:29:50.04Z</time></trkpt><trkpt lat="46.60747" lon="12.5658717"><ele>1771.0</ele><time>2026-04-26T14:29:53.038Z</time></trkpt><trkpt lat="46.607545" lon="12.5659117"><ele>1771.0</ele><time>2026-04-26T14:29:56.041Z</time></trkpt><trkpt lat="46.6076233" lon="12.5659183"><ele>1771.0</ele><time>2026-04-26T14:29:59.04Z</time></trkpt><trkpt lat="46.6076967" lon="12.5658867"><ele>1771.0</ele><time>2026-04-26T14:30:02.045Z</time></trkpt><trkpt lat="46.60776" lon="12.5658733"><ele>1771.0</ele><time>2026-04-26T14:30:05.042Z</time></trkpt><trkpt lat="46.607825" lon="12.5659083"><ele>1771.0</ele><time>2026-04-26T14:30:08.043Z</time></trkpt><trkpt lat="46.60789" lon="12.565935"><ele>1771.0</ele><time>2026-04-26T14:30:12.038Z</time></trkpt><trkpt lat="46.60797" lon="12.5659467"><ele>1771.5714285714287</ele><time>2026-04-26T14:30:16.04Z</time></trkpt><trkpt lat="46.6080267" lon="12.5659967"><ele>1772.142857142857</ele><time>2026-04-26T14:30:19.035Z</time></trkpt><trkpt lat="46.6080733" lon="12.566065"><ele>1772.7142857142858</ele><time>2026-04-26T14:30:22.04Z</time></trkpt><trkpt lat="46.60815" lon="12.5660517"><ele>1773.2857142857142</ele><time>2026-04-26T14:30:26.042Z</time></trkpt><trkpt lat="46.6082067" lon="12.566145"><ele>1773.857142857143</ele><time>2026-04-26T14:30:30.044Z</time></trkpt><trkpt lat="46.6082483" lon="12.5662167"><ele>1774.4285714285716</ele><time>2026-04-26T14:30:33.038Z</time></trkpt><trkpt lat="46.6082917" lon="12.5662917"><ele>1775.0</ele><time>2026-04-26T14:30:36.039Z</time></trkpt><trkpt lat="46.6083467" lon="12.5663583"><ele>1774.9999999999998</ele><time>2026-04-26T14:30:38.041Z</time></trkpt><trkpt lat="46.6084033" lon="12.56644"><ele>1775.0</ele><time>2026-04-26T14:30:40.038Z</time></trkpt><trkpt lat="46.608465" lon="12.566475"><ele>1775.0</ele><time>2026-04-26T14:30:42.043Z</time></trkpt><trkpt lat="46.6085333" lon="12.566555"><ele>1775.0</ele><time>2026-04-26T14:30:45.039Z</time></trkpt><trkpt lat="46.608585" lon="12.5666583"><ele>1774.9999999999998</ele><time>2026-04-26T14:30:48.04Z</time></trkpt><trkpt lat="46.6086367" lon="12.5667167"><ele>1775.0</ele><time>2026-04-26T14:30:50.043Z</time></trkpt><trkpt lat="46.6087183" lon="12.5667433"><ele>1774.8333333333333</ele><time>2026-04-26T14:30:52.039Z</time></trkpt><trkpt lat="46.6087933" lon="12.5667633"><ele>1774.6666666666665</ele><time>2026-04-26T14:30:54.043Z</time></trkpt><trkpt lat="46.608875" lon="12.5668183"><ele>1774.5</ele><time>2026-04-26T14:30:57.039Z</time></trkpt><trkpt lat="46.608925" lon="12.5668867"><ele>1774.3333333333335</ele><time>2026-04-26T14:30:59.041Z</time></trkpt><trkpt lat="46.60898" lon="12.5670033"><ele>1774.1666666666667</ele><time>2026-04-26T14:31:01.042Z</time></trkpt><trkpt lat="46.6090417" lon="12.5671133"><ele>1774.0</ele><time>2026-04-26T14:31:03.04Z</time></trkpt><trkpt lat="46.6090633" lon="12.5672617"><ele>1774.0</ele><time>2026-04-26T14:31:05.043Z</time></trkpt><trkpt lat="46.6091033" lon="12.5674283"><ele>1774.0</ele><time>2026-04-26T14:31:07.039Z</time></trkpt><trkpt lat="46.6091467" lon="12.567555"><ele>1774.0</ele><time>2026-04-26T14:31:09.039Z</time></trkpt><trkpt lat="46.6092217" lon="12.5676233"><ele>1774.0</ele><time>2026-04-26T14:31:11.041Z</time></trkpt><trkpt lat="46.60931" lon="12.5676617"><ele>1774.0</ele><time>2026-04-26T14:31:13.042Z</time></trkpt><trkpt lat="46.6093917" lon="12.5677267"><ele>1774.0</ele><time>2026-04-26T14:31:15.041Z</time></trkpt><trkpt lat="46.609465" lon="12.567805"><ele>1774.0</ele><time>2026-04-26T14:31:17.041Z</time></trkpt><trkpt lat="46.6095483" lon="12.5678917"><ele>1774.0</ele><time>2026-04-26T14:31:19.039Z</time></trkpt><trkpt lat="46.6096633" lon="12.5679717"><ele>1774.0</ele><time>2026-04-26T14:31:21.04Z</time></trkpt><trkpt lat="46.6097233" lon="12.5680133"><ele>1774.0</ele><time>2026-04-26T14:31:22.041Z</time></trkpt><trkpt lat="46.6097767" lon="12.56807"><ele>1777.1666666666667</ele><time>2026-04-26T14:31:23.04Z</time></trkpt><trkpt lat="46.6098283" lon="12.5681383"><ele>1780.3333333333335</ele><time>2026-04-26T14:31:24.038Z</time></trkpt><trkpt lat="46.609875" lon="12.568215"><ele>1783.5</ele><time>2026-04-26T14:31:25.037Z</time></trkpt><trkpt lat="46.6099233" lon="12.568285"><ele>1786.6666666666665</ele><time>2026-04-26T14:31:26.041Z</time></trkpt><trkpt lat="46.609975" lon="12.5683383"><ele>1789.8333333333333</ele><time>2026-04-26T14:31:27.041Z</time></trkpt><trkpt lat="46.6100733" lon="12.5684017"><ele>1793.0</ele><time>2026-04-26T14:31:29.037Z</time></trkpt><trkpt lat="46.61016" lon="12.56846"><ele>1792.9999999999998</ele><time>2026-04-26T14:31:31.04Z</time></trkpt><trkpt lat="46.6102433" lon="12.568525"><ele>1793.0</ele><time>2026-04-26T14:31:33.037Z</time></trkpt><trkpt lat="46.610315" lon="12.56857"><ele>1793.0</ele><time>2026-04-26T14:31:35.04Z</time></trkpt><trkpt lat="46.610385" lon="12.56864"><ele>1793.0</ele><time>2026-04-26T14:31:38.039Z</time></trkpt><trkpt lat="46.61046" lon="12.5687033"><ele>1792.9999999999998</ele><time>2026-04-26T14:31:41.041Z</time></trkpt><trkpt lat="46.610535" lon="12.56877"><ele>1793.0</ele><time>2026-04-26T14:31:44.043Z</time></trkpt><trkpt lat="46.6105767" lon="12.5688433"><ele>1797.9999999999998</ele><time>2026-04-26T14:31:47.039Z</time></trkpt><trkpt lat="46.6106433" lon="12.568905"><ele>1803.0</ele><time>2026-04-26T14:31:51.035Z</time></trkpt><trkpt lat="46.6107033" lon="12.568965"><ele>1808.0</ele><time>2026-04-26T14:31:54.046Z</time></trkpt><trkpt lat="46.6107783" lon="12.5690183"><ele>1813.0</ele><time>2026-04-26T14:31:56.043Z</time></trkpt><trkpt lat="46.6108583" lon="12.56908"><ele>1817.9999999999998</ele><time>2026-04-26T14:31:58.038Z</time></trkpt><trkpt lat="46.610925" lon="12.5691233"><ele>1823.0</ele><time>2026-04-26T14:32:00.044Z</time></trkpt><trkpt lat="46.6109933" lon="12.56915"><ele>1822.9999999999998</ele><time>2026-04-26T14:32:02.044Z</time></trkpt><trkpt lat="46.6110483" lon="12.5692117"><ele>1823.0</ele><time>2026-04-26T14:32:05.031Z</time></trkpt><trkpt lat="46.611105" lon="12.5692683"><ele>1823.0</ele><time>2026-04-26T14:32:08.04Z</time></trkpt><trkpt lat="46.6111833" lon="12.5693433"><ele>1823.0</ele><time>2026-04-26T14:32:11.042Z</time></trkpt><trkpt lat="46.6112667" lon="12.5693983"><ele>1822.9999999999998</ele><time>2026-04-26T14:32:14.043Z</time></trkpt><trkpt lat="46.6113317" lon="12.5694383"><ele>1823.0</ele><time>2026-04-26T14:32:17.04Z</time></trkpt><trkpt lat="46.61139" lon="12.56948"><ele>1842.0</ele><time>2026-04-26T14:32:20.042Z</time></trkpt><trkpt lat="46.6113967" lon="12.5696017"><ele>1843.0</ele><time>2026-04-26T14:32:23.038Z</time></trkpt><trkpt lat="46.611455" lon="12.5695267"><ele>1843.0</ele><time>2026-04-26T14:32:54.04Z</time></trkpt><trkpt lat="46.61151" lon="12.56945"><ele>1842.0</ele><time>2026-04-26T14:33:35.035Z</time></trkpt></trkseg><trkseg><trkpt lat="46.6264583" lon="12.574905"><ele>2051.0</ele><time>2026-04-26T15:18:29.026Z</time></trkpt><trkpt lat="46.6264033" lon="12.57496"><ele>2051.0</ele><time>2026-04-26T15:18:31.027Z</time></trkpt><trkpt lat="46.6263367" lon="12.5750467"><ele>2051.0</ele><time>2026-04-26T15:18:34.026Z</time></trkpt><trkpt lat="46.6262833" lon="12.5751383"><ele>2051.0</ele><time>2026-04-26T15:18:36.026Z</time></trkpt><trkpt lat="46.626235" lon="12.5752467"><ele>2051.0</ele><time>2026-04-26T15:18:38.028Z</time></trkpt><trkpt lat="46.6262" lon="12.575335"><ele>2051.0</ele><time>2026-04-26T15:18:40.026Z</time></trkpt><trkpt lat="46.626145" lon="12.5754567"><ele>2049.0</ele><time>2026-04-26T15:18:43.027Z</time></trkpt><trkpt lat="46.6261117" lon="12.5755867"><ele>2047.0</ele><time>2026-04-26T15:18:45.028Z</time></trkpt><trkpt lat="46.626095" lon="12.5757383"><ele>2045.0</ele><time>2026-04-26T15:18:47.026Z</time></trkpt><trkpt lat="46.6261033" lon="12.5758917"><ele>2043.0</ele><time>2026-04-26T15:18:49.028Z</time></trkpt><trkpt lat="46.626115" lon="12.5759867"><ele>2040.9999999999998</ele><time>2026-04-26T15:18:50.028Z</time></trkpt><trkpt lat="46.6261217" lon="12.576095"><ele>2039.0</ele><time>2026-04-26T15:18:51.026Z</time></trkpt><trkpt lat="46.6261317" lon="12.5762017"><ele>2038.7142857142858</ele><time>2026-04-26T15:18:52.026Z</time></trkpt><trkpt lat="46.62613" lon="12.576295"><ele>2038.4285714285713</ele><time>2026-04-26T15:18:53.029Z</time></trkpt><trkpt lat="46.6261133" lon="12.5764083"><ele>2038.142857142857</ele><time>2026-04-26T15:18:55.029Z</time></trkpt><trkpt lat="46.6261083" lon="12.5765067"><ele>2037.857142857143</ele><time>2026-04-26T15:18:58.026Z</time></trkpt><trkpt lat="46.626115" lon="12.5766083"><ele>2037.5714285714284</ele><time>2026-04-26T15:19:00.027Z</time></trkpt><trkpt lat="46.6260733" lon="12.576705"><ele>2037.2857142857142</ele><time>2026-04-26T15:19:02.027Z</time></trkpt><trkpt lat="46.62602" lon="12.5768067"><ele>2037.0</ele><time>2026-04-26T15:19:04.028Z</time></trkpt><trkpt lat="46.6260117" lon="12.5769567"><ele>2036.8</ele><time>2026-04-26T15:19:06.027Z</time></trkpt><trkpt lat="46.62604" lon="12.5771"><ele>2036.6</ele><time>2026-04-26T15:19:08.03Z</time></trkpt><trkpt lat="46.626105" lon="12.57722"><ele>2036.3999999999999</ele><time>2026-04-26T15:19:10.028Z</time></trkpt><trkpt lat="46.6261817" lon="12.5773267"><ele>2036.1999999999998</ele><time>2026-04-26T15:19:12.027Z</time></trkpt><trkpt lat="46.6262533" lon="12.577435"><ele>2036.0</ele><time>2026-04-26T15:19:14.026Z</time></trkpt><trkpt lat="46.6262933" lon="12.57754"><ele>2035.9999999999998</ele><time>2026-04-26T15:19:16.029Z</time></trkpt><trkpt lat="46.6262333" lon="12.5776017"><ele>2036.0</ele><time>2026-04-26T15:19:25.026Z</time></trkpt><trkpt lat="46.626145" lon="12.577635"><ele>2035.9999999999998</ele><time>2026-04-26T15:19:29.029Z</time></trkpt><trkpt lat="46.62608" lon="12.5776533"><ele>2035.9999999999998</ele><time>2026-04-26T15:19:31.028Z</time></trkpt><trkpt lat="46.626015" lon="12.5776767"><ele>2036.0</ele><time>2026-04-26T15:19:33.027Z</time></trkpt><trkpt lat="46.62596" lon="12.5777617"><ele>2035.9999999999998</ele><time>2026-04-26T15:19:42.027Z</time></trkpt><trkpt lat="46.62593" lon="12.5778433"><ele>2035.9999999999998</ele><time>2026-04-26T15:19:44.027Z</time></trkpt><trkpt lat="46.6259033" lon="12.5779733"><ele>2035.1666666666665</ele><time>2026-04-26T15:19:46.029Z</time></trkpt><trkpt lat="46.6258733" lon="12.578145"><ele>2034.3333333333333</ele><time>2026-04-26T15:19:48.027Z</time></trkpt><trkpt lat="46.6258467" lon="12.5782883"><ele>2033.5</ele><time>2026-04-26T15:19:50.027Z</time></trkpt><trkpt lat="46.6258317" lon="12.5784"><ele>2032.6666666666665</ele><time>2026-04-26T15:19:52.027Z</time></trkpt><trkpt lat="46.6258183" lon="12.5784967"><ele>2031.8333333333333</ele><time>2026-04-26T15:19:54.028Z</time></trkpt><trkpt lat="46.6257967" lon="12.5786067"><ele>2031.0</ele><time>2026-04-26T15:19:56.028Z</time></trkpt><trkpt lat="46.62578" lon="12.5787467"><ele>2031.0</ele><time>2026-04-26T15:19:58.027Z</time></trkpt><trkpt lat="46.6257633" lon="12.578925"><ele>2031.0</ele><time>2026-04-26T15:20:00.03Z</time></trkpt><trkpt lat="46.6257467" lon="12.579045"><ele>2031.0</ele><time>2026-04-26T15:20:01.028Z</time></trkpt><trkpt lat="46.6257283" lon="12.5791583"><ele>2031.0</ele><time>2026-04-26T15:20:02.026Z</time></trkpt><trkpt lat="46.6257117" lon="12.579255"><ele>2031.0</ele><time>2026-04-26T15:20:03.028Z</time></trkpt><trkpt lat="46.625675" lon="12.5794267"><ele>2033.0</ele><time>2026-04-26T15:20:05.028Z</time></trkpt><trkpt lat="46.6256367" lon="12.5795717"><ele>2035.0</ele><time>2026-04-26T15:20:07.026Z</time></trkpt><trkpt lat="46.6255783" lon="12.5796617"><ele>2037.0</ele><time>2026-04-26T15:20:09.025Z</time></trkpt><trkpt lat="46.6255117" lon="12.579765"><ele>2039.0</ele><time>2026-04-26T15:20:11.026Z</time></trkpt><trkpt lat="46.62545" lon="12.579885"><ele>2041.0</ele><time>2026-04-26T15:20:13.032Z</time></trkpt><trkpt lat="46.6254067" lon="12.58"><ele>2041.0000000000002</ele><time>2026-04-26T15:20:15.025Z</time></trkpt><trkpt lat="46.6253617" lon="12.5801083"><ele>2041.0</ele><time>2026-04-26T15:20:17.026Z</time></trkpt><trkpt lat="46.6252967" lon="12.5802117"><ele>2041.0</ele><time>2026-04-26T15:20:19.028Z</time></trkpt><trkpt lat="46.6252433" lon="12.5803017"><ele>2041.0</ele><time>2026-04-26T15:20:21.029Z</time></trkpt><trkpt lat="46.6252033" lon="12.580415"><ele>2041.0000000000002</ele><time>2026-04-26T15:20:23.026Z</time></trkpt><trkpt lat="46.62516" lon="12.5805267"><ele>2041.0</ele><time>2026-04-26T15:20:25.026Z</time></trkpt><trkpt lat="46.6251117" lon="12.580595"><ele>2038.0000000000002</ele><time>2026-04-26T15:20:28.027Z</time></trkpt><trkpt lat="46.6250467" lon="12.58057"><ele>2035.0</ele><time>2026-04-26T15:20:31.029Z</time></trkpt><trkpt lat="46.6249483" lon="12.58058"><ele>2032.0</ele><time>2026-04-26T15:20:33.025Z</time></trkpt><trkpt lat="46.6248233" lon="12.5805933"><ele>2029.0</ele><time>2026-04-26T15:20:35.026Z</time></trkpt><trkpt lat="46.6247483" lon="12.5805833"><ele>2026.0000000000002</ele><time>2026-04-26T15:20:36.026Z</time></trkpt><trkpt lat="46.6246767" lon="12.5805667"><ele>2023.0</ele><time>2026-04-26T15:20:37.027Z</time></trkpt><trkpt lat="46.6246083" lon="12.5805517"><ele>2023.0000000000002</ele><time>2026-04-26T15:20:38.029Z</time></trkpt><trkpt lat="46.6245233" lon="12.5805467"><ele>2023.0</ele><time>2026-04-26T15:20:40.028Z</time></trkpt><trkpt lat="46.62446" lon="12.5804767"><ele>2023.0</ele><time>2026-04-26T15:20:42.025Z</time></trkpt><trkpt lat="46.62439" lon="12.5803917"><ele>2023.0</ele><time>2026-04-26T15:20:44.029Z</time></trkpt><trkpt lat="46.62433" lon="12.5803233"><ele>2023.0000000000002</ele><time>2026-04-26T15:20:46.029Z</time></trkpt><trkpt lat="46.62425" lon="12.5803617"><ele>2023.0</ele><time>2026-04-26T15:20:50.029Z</time></trkpt><trkpt lat="46.62422" lon="12.5804467"><ele>2017.8000000000002</ele><time>2026-04-26T15:20:52.026Z</time></trkpt><trkpt lat="46.62419" lon="12.5805783"><ele>2012.6000000000001</ele><time>2026-04-26T15:20:54.028Z</time></trkpt><trkpt lat="46.6241467" lon="12.580745"><ele>2007.3999999999999</ele><time>2026-04-26T15:20:56.027Z</time></trkpt><trkpt lat="46.6241183" lon="12.58087"><ele>2002.1999999999998</ele><time>2026-04-26T15:20:58.029Z</time></trkpt><trkpt lat="46.6241017" lon="12.5809917"><ele>1997.0</ele><time>2026-04-26T15:21:00.026Z</time></trkpt><trkpt lat="46.6240517" lon="12.58109"><ele>1996.9999999999998</ele><time>2026-04-26T15:21:02.026Z</time></trkpt><trkpt lat="46.6240333" lon="12.581185"><ele>1997.0</ele><time>2026-04-26T15:21:04.026Z</time></trkpt><trkpt lat="46.62408" lon="12.5812867"><ele>1997.0</ele><time>2026-04-26T15:21:06.025Z</time></trkpt><trkpt lat="46.6241133" lon="12.5813983"><ele>1997.0</ele><time>2026-04-26T15:21:08.027Z</time></trkpt><trkpt lat="46.6240617" lon="12.5814783"><ele>1996.9999999999998</ele><time>2026-04-26T15:21:10.028Z</time></trkpt><trkpt lat="46.623965" lon="12.5815467"><ele>1997.0</ele><time>2026-04-26T15:21:12.029Z</time></trkpt><trkpt lat="46.6238833" lon="12.5815983"><ele>1996.9999999999998</ele><time>2026-04-26T15:21:14.029Z</time></trkpt><trkpt lat="46.6238067" lon="12.5816417"><ele>1997.0</ele><time>2026-04-26T15:21:16.028Z</time></trkpt><trkpt lat="46.6237233" lon="12.5816967"><ele>1997.0</ele><time>2026-04-26T15:21:18.028Z</time></trkpt><trkpt lat="46.6236433" lon="12.58176"><ele>1997.0</ele><time>2026-04-26T15:21:20.027Z</time></trkpt><trkpt lat="46.62356" lon="12.5818117"><ele>1996.9999999999998</ele><time>2026-04-26T15:21:22.026Z</time></trkpt><trkpt lat="46.6234967" lon="12.5818467"><ele>1997.0</ele><time>2026-04-26T15:21:24.028Z</time></trkpt><trkpt lat="46.6233617" lon="12.58184"><ele>1993.7142857142858</ele><time>2026-04-26T15:21:33.025Z</time></trkpt><trkpt lat="46.6232733" lon="12.5818233"><ele>1990.4285714285713</ele><time>2026-04-26T15:21:35.028Z</time></trkpt><trkpt lat="46.6232067" lon="12.5818483"><ele>1987.142857142857</ele><time>2026-04-26T15:21:38.026Z</time></trkpt><trkpt lat="46.623135" lon="12.5818633"><ele>1983.857142857143</ele><time>2026-04-26T15:21:42.026Z</time></trkpt><trkpt lat="46.6230733" lon="12.5818883"><ele>1980.5714285714284</ele><time>2026-04-26T15:21:44.027Z</time></trkpt><trkpt lat="46.6230167" lon="12.5819367"><ele>1977.2857142857142</ele><time>2026-04-26T15:21:46.026Z</time></trkpt><trkpt lat="46.62295" lon="12.5820167"><ele>1974.0</ele><time>2026-04-26T15:21:48.025Z</time></trkpt><trkpt lat="46.6228967" lon="12.582075"><ele>1974.0</ele><time>2026-04-26T15:21:50.027Z</time></trkpt><trkpt lat="46.62282" lon="12.58215"><ele>1974.0</ele><time>2026-04-26T15:21:53.027Z</time></trkpt><trkpt lat="46.622775" lon="12.5822367"><ele>1974.0</ele><time>2026-04-26T15:21:55.026Z</time></trkpt><trkpt lat="46.6227333" lon="12.5823133"><ele>1974.0</ele><time>2026-04-26T15:21:57.026Z</time></trkpt><trkpt lat="46.6226767" lon="12.5824133"><ele>1974.0</ele><time>2026-04-26T15:22:00.026Z</time></trkpt><trkpt lat="46.622635" lon="12.5824917"><ele>1974.0</ele><time>2026-04-26T15:22:02.026Z</time></trkpt><trkpt lat="46.6225933" lon="12.5825833"><ele>1970.0</ele><time>2026-04-26T15:22:05.026Z</time></trkpt><trkpt lat="46.6225633" lon="12.5826883"><ele>1966.0</ele><time>2026-04-26T15:22:09.026Z</time></trkpt><trkpt lat="46.6225433" lon="12.5827917"><ele>1962.0</ele><time>2026-04-26T15:22:13.028Z</time></trkpt><trkpt lat="46.6224933" lon="12.5828567"><ele>1958.0</ele><time>2026-04-26T15:22:18.027Z</time></trkpt><trkpt lat="46.62244" lon="12.5829167"><ele>1954.0</ele><time>2026-04-26T15:22:21.026Z</time></trkpt><trkpt lat="46.6223933" lon="12.5829783"><ele>1950.0</ele><time>2026-04-26T15:22:24.029Z</time></trkpt><trkpt lat="46.6223383" lon="12.5830667"><ele>1946.0</ele><time>2026-04-26T15:22:27.027Z</time></trkpt><trkpt lat="46.62227" lon="12.583115"><ele>1945.9999999999998</ele><time>2026-04-26T15:22:29.027Z</time></trkpt><trkpt lat="46.62221" lon="12.5831633"><ele>1946.0</ele><time>2026-04-26T15:22:31.027Z</time></trkpt><trkpt lat="46.622145" lon="12.5832233"><ele>1946.0</ele><time>2026-04-26T15:22:34.029Z</time></trkpt><trkpt lat="46.622075" lon="12.58328"><ele>1946.0</ele><time>2026-04-26T15:22:38.029Z</time></trkpt><trkpt lat="46.6219967" lon="12.58333"><ele>1945.9999999999998</ele><time>2026-04-26T15:22:42.028Z</time></trkpt><trkpt lat="46.621915" lon="12.58339"><ele>1946.0</ele><time>2026-04-26T15:22:45.028Z</time></trkpt><trkpt lat="46.62185" lon="12.583415"><ele>1939.8333333333333</ele><time>2026-04-26T15:22:47.028Z</time></trkpt><trkpt lat="46.6217817" lon="12.583435"><ele>1933.6666666666665</ele><time>2026-04-26T15:22:50.029Z</time></trkpt><trkpt lat="46.6217067" lon="12.5834917"><ele>1927.5</ele><time>2026-04-26T15:23:12.029Z</time></trkpt><trkpt lat="46.6216483" lon="12.5835283"><ele>1921.3333333333335</ele><time>2026-04-26T15:23:14.028Z</time></trkpt><trkpt lat="46.621565" lon="12.5835683"><ele>1915.1666666666667</ele><time>2026-04-26T15:23:16.029Z</time></trkpt><trkpt lat="46.621465" lon="12.5836067"><ele>1909.0</ele><time>2026-04-26T15:23:18.027Z</time></trkpt><trkpt lat="46.6213883" lon="12.583615"><ele>1909.0000000000002</ele><time>2026-04-26T15:23:20.027Z</time></trkpt><trkpt lat="46.6213117" lon="12.5835917"><ele>1909.0</ele><time>2026-04-26T15:23:24.026Z</time></trkpt><trkpt lat="46.6212483" lon="12.5835467"><ele>1909.0</ele><time>2026-04-26T15:23:30.027Z</time></trkpt><trkpt lat="46.6211767" lon="12.583555"><ele>1909.0</ele><time>2026-04-26T15:23:34.026Z</time></trkpt><trkpt lat="46.6211167" lon="12.5836133"><ele>1909.0000000000002</ele><time>2026-04-26T15:23:37.027Z</time></trkpt><trkpt lat="46.62107" lon="12.5836983"><ele>1909.0</ele><time>2026-04-26T15:23:39.026Z</time></trkpt><trkpt lat="46.6209833" lon="12.5837617"><ele>1910.5000000000002</ele><time>2026-04-26T15:23:42.027Z</time></trkpt><trkpt lat="46.6209217" lon="12.5837417"><ele>1912.0</ele><time>2026-04-26T15:23:44.027Z</time></trkpt><trkpt lat="46.6208233" lon="12.5836833"><ele>1913.5</ele><time>2026-04-26T15:23:47.029Z</time></trkpt><trkpt lat="46.62071" lon="12.583675"><ele>1915.0</ele><time>2026-04-26T15:23:49.028Z</time></trkpt><trkpt lat="46.6206217" lon="12.5836583"><ele>1916.5000000000002</ele><time>2026-04-26T15:23:51.028Z</time></trkpt><trkpt lat="46.6205517" lon="12.5836467"><ele>1918.0</ele><time>2026-04-26T15:23:53.029Z</time></trkpt><trkpt lat="46.620485" lon="12.5836383"><ele>1918.0</ele><time>2026-04-26T15:23:55.028Z</time></trkpt><trkpt lat="46.6204217" lon="12.5836417"><ele>1918.0</ele><time>2026-04-26T15:23:57.027Z</time></trkpt><trkpt lat="46.6203533" lon="12.5836867"><ele>1918.0</ele><time>2026-04-26T15:24:00.026Z</time></trkpt><trkpt lat="46.6203" lon="12.5837433"><ele>1918.0</ele><time>2026-04-26T15:24:04.026Z</time></trkpt><trkpt lat="46.620225" lon="12.58378"><ele>1918.0</ele><time>2026-04-26T15:24:06.028Z</time></trkpt><trkpt lat="46.62016" lon="12.5838117"><ele>1918.0</ele><time>2026-04-26T15:24:07.027Z</time></trkpt><trkpt lat="46.6200817" lon="12.58384"><ele>1918.0</ele><time>2026-04-26T15:24:08.028Z</time></trkpt><trkpt lat="46.6200033" lon="12.58387"><ele>1913.5000000000002</ele><time>2026-04-26T15:24:09.027Z</time></trkpt><trkpt lat="46.619935" lon="12.583895"><ele>1909.0</ele><time>2026-04-26T15:24:10.027Z</time></trkpt><trkpt lat="46.6198633" lon="12.5839233"><ele>1904.5</ele><time>2026-04-26T15:24:11.027Z</time></trkpt><trkpt lat="46.619785" lon="12.5839483"><ele>1900.0</ele><time>2026-04-26T15:24:12.029Z</time></trkpt><trkpt lat="46.619705" lon="12.583975"><ele>1895.5000000000002</ele><time>2026-04-26T15:24:13.029Z</time></trkpt><trkpt lat="46.6196283" lon="12.584005"><ele>1891.0</ele><time>2026-04-26T15:24:14.027Z</time></trkpt><trkpt lat="46.619545" lon="12.5840383"><ele>1888.0000000000002</ele><time>2026-04-26T15:24:15.028Z</time></trkpt><trkpt lat="46.6194617" lon="12.584075"><ele>1885.0</ele><time>2026-04-26T15:24:16.03Z</time></trkpt><trkpt lat="46.619375" lon="12.5841"><ele>1882.0</ele><time>2026-04-26T15:24:17.028Z</time></trkpt><trkpt lat="46.6192767" lon="12.5841133"><ele>1879.0</ele><time>2026-04-26T15:24:18.027Z</time></trkpt><trkpt lat="46.619185" lon="12.5841133"><ele>1876.0000000000002</ele><time>2026-04-26T15:24:19.026Z</time></trkpt><trkpt lat="46.619105" lon="12.58412"><ele>1873.0</ele><time>2026-04-26T15:24:20.027Z</time></trkpt><trkpt lat="46.619025" lon="12.5841317"><ele>1873.0000000000002</ele><time>2026-04-26T15:24:21.026Z</time></trkpt><trkpt lat="46.6189433" lon="12.5841467"><ele>1873.0</ele><time>2026-04-26T15:24:22.026Z</time></trkpt><trkpt lat="46.61886" lon="12.5841633"><ele>1873.0</ele><time>2026-04-26T15:24:23.029Z</time></trkpt><trkpt lat="46.61878" lon="12.5841783"><ele>1873.0</ele><time>2026-04-26T15:24:24.029Z</time></trkpt><trkpt lat="46.6187033" lon="12.5841983"><ele>1873.0000000000002</ele><time>2026-04-26T15:24:25.026Z</time></trkpt><trkpt lat="46.6186367" lon="12.5842183"><ele>1873.0</ele><time>2026-04-26T15:24:26.029Z</time></trkpt><trkpt lat="46.6185767" lon="12.5842483"><ele>1869.6000000000001</ele><time>2026-04-26T15:24:27.029Z</time></trkpt><trkpt lat="46.6184867" lon="12.584305"><ele>1866.2000000000003</ele><time>2026-04-26T15:24:29.029Z</time></trkpt><trkpt lat="46.618405" lon="12.5843417"><ele>1862.8</ele><time>2026-04-26T15:24:31.029Z</time></trkpt><trkpt lat="46.618315" lon="12.5843717"><ele>1859.4</ele><time>2026-04-26T15:24:33.027Z</time></trkpt><trkpt lat="46.6182" lon="12.584395"><ele>1856.0</ele><time>2026-04-26T15:24:35.029Z</time></trkpt><trkpt lat="46.6181367" lon="12.5844083"><ele>1856.0</ele><time>2026-04-26T15:24:36.028Z</time></trkpt><trkpt lat="46.61801" lon="12.5844483"><ele>1856.0</ele><time>2026-04-26T15:24:38.028Z</time></trkpt><trkpt lat="46.6179483" lon="12.5844667"><ele>1856.0</ele><time>2026-04-26T15:24:39.03Z</time></trkpt><trkpt lat="46.61784" lon="12.5844917"><ele>1856.0</ele><time>2026-04-26T15:24:41.026Z</time></trkpt><trkpt lat="46.6177433" lon="12.5845183"><ele>1856.0</ele><time>2026-04-26T15:24:43.026Z</time></trkpt><trkpt lat="46.6176683" lon="12.5845317"><ele>1853.6</ele><time>2026-04-26T15:24:45.028Z</time></trkpt><trkpt lat="46.6175917" lon="12.5845633"><ele>1851.1999999999998</ele><time>2026-04-26T15:24:47.027Z</time></trkpt><trkpt lat="46.6175017" lon="12.5846033"><ele>1848.8000000000002</ele><time>2026-04-26T15:24:49.028Z</time></trkpt><trkpt lat="46.6174167" lon="12.5846417"><ele>1846.4</ele><time>2026-04-26T15:24:51.025Z</time></trkpt><trkpt lat="46.6173133" lon="12.584665"><ele>1844.0</ele><time>2026-04-26T15:24:53.028Z</time></trkpt><trkpt lat="46.6172267" lon="12.58467"><ele>1844.0</ele><time>2026-04-26T15:24:55.028Z</time></trkpt><trkpt lat="46.6171583" lon="12.5846867"><ele>1844.0</ele><time>2026-04-26T15:24:57.028Z</time></trkpt><trkpt lat="46.6170733" lon="12.584715"><ele>1844.0</ele><time>2026-04-26T15:24:59.026Z</time></trkpt><trkpt lat="46.61697" lon="12.5847433"><ele>1844.0</ele><time>2026-04-26T15:25:01.025Z</time></trkpt><trkpt lat="46.616855" lon="12.5847767"><ele>1844.0</ele><time>2026-04-26T15:25:03.026Z</time></trkpt><trkpt lat="46.6167567" lon="12.5847767"><ele>1839.4999999999998</ele><time>2026-04-26T15:25:05.025Z</time></trkpt><trkpt lat="46.6166617" lon="12.584775"><ele>1835.0</ele><time>2026-04-26T15:25:07.025Z</time></trkpt><trkpt lat="46.616565" lon="12.5848"><ele>1830.5</ele><time>2026-04-26T15:25:09.026Z</time></trkpt><trkpt lat="46.6164833" lon="12.584835"><ele>1826.0</ele><time>2026-04-26T15:25:11.029Z</time></trkpt><trkpt lat="46.6163967" lon="12.5848633"><ele>1821.4999999999998</ele><time>2026-04-26T15:25:14.028Z</time></trkpt><trkpt lat="46.61633" lon="12.5848733"><ele>1817.0</ele><time>2026-04-26T15:25:16.025Z</time></trkpt><trkpt lat="46.616255" lon="12.5848867"><ele>1817.0</ele><time>2026-04-26T15:25:18.026Z</time></trkpt><trkpt lat="46.6161717" lon="12.5849017"><ele>1816.9999999999998</ele><time>2026-04-26T15:25:20.026Z</time></trkpt><trkpt lat="46.6160967" lon="12.5848867"><ele>1816.9999999999998</ele><time>2026-04-26T15:25:22.025Z</time></trkpt><trkpt lat="46.616" lon="12.5849217"><ele>1817.0</ele><time>2026-04-26T15:25:24.028Z</time></trkpt><trkpt lat="46.6158883" lon="12.5849483"><ele>1817.0</ele><time>2026-04-26T15:25:26.026Z</time></trkpt><trkpt lat="46.6157683" lon="12.5849683"><ele>1813.1666666666665</ele><time>2026-04-26T15:25:28.031Z</time></trkpt><trkpt lat="46.615645" lon="12.5849817"><ele>1809.3333333333333</ele><time>2026-04-26T15:25:30.026Z</time></trkpt><trkpt lat="46.61558" lon="12.58498"><ele>1805.5</ele><time>2026-04-26T15:25:31.025Z</time></trkpt><trkpt lat="46.6155033" lon="12.5849633"><ele>1801.6666666666665</ele><time>2026-04-26T15:25:32.025Z</time></trkpt><trkpt lat="46.615425" lon="12.5849367"><ele>1797.8333333333333</ele><time>2026-04-26T15:25:33.025Z</time></trkpt><trkpt lat="46.6153383" lon="12.5849083"><ele>1794.0</ele><time>2026-04-26T15:25:34.026Z</time></trkpt><trkpt lat="46.6152483" lon="12.5848817"><ele>1791.0</ele><time>2026-04-26T15:25:35.026Z</time></trkpt><trkpt lat="46.6151633" lon="12.5848567"><ele>1788.0</ele><time>2026-04-26T15:25:36.026Z</time></trkpt><trkpt lat="46.6150867" lon="12.5848367"><ele>1785.0</ele><time>2026-04-26T15:25:37.025Z</time></trkpt><trkpt lat="46.615015" lon="12.584825"><ele>1782.0</ele><time>2026-04-26T15:25:38.026Z</time></trkpt><trkpt lat="46.614945" lon="12.584825"><ele>1779.0</ele><time>2026-04-26T15:25:39.025Z</time></trkpt><trkpt lat="46.6148433" lon="12.5848783"><ele>1776.0</ele><time>2026-04-26T15:25:41.026Z</time></trkpt><trkpt lat="46.61475" lon="12.584975"><ele>1776.0</ele><time>2026-04-26T15:25:43.026Z</time></trkpt><trkpt lat="46.6146533" lon="12.5850317"><ele>1776.0</ele><time>2026-04-26T15:25:45.025Z</time></trkpt><trkpt lat="46.6145267" lon="12.5850367"><ele>1776.0</ele><time>2026-04-26T15:25:47.026Z</time></trkpt><trkpt lat="46.6144583" lon="12.5850517"><ele>1776.0</ele><time>2026-04-26T15:25:48.027Z</time></trkpt><trkpt lat="46.614375" lon="12.58509"><ele>1776.0</ele><time>2026-04-26T15:25:49.026Z</time></trkpt><trkpt lat="46.61428" lon="12.5851383"><ele>1773.5</ele><time>2026-04-26T15:25:50.026Z</time></trkpt><trkpt lat="46.6141983" lon="12.58518"><ele>1771.0</ele><time>2026-04-26T15:25:51.025Z</time></trkpt><trkpt lat="46.614125" lon="12.5852083"><ele>1768.5</ele><time>2026-04-26T15:25:52.026Z</time></trkpt><trkpt lat="46.6140583" lon="12.58523"><ele>1766.0</ele><time>2026-04-26T15:25:53.025Z</time></trkpt><trkpt lat="46.613995" lon="12.5852467"><ele>1763.5</ele><time>2026-04-26T15:25:54.025Z</time></trkpt><trkpt lat="46.6138733" lon="12.5852467"><ele>1761.0</ele><time>2026-04-26T15:25:56.026Z</time></trkpt><trkpt lat="46.6137633" lon="12.5852317"><ele>1761.0</ele><time>2026-04-26T15:25:58.027Z</time></trkpt><trkpt lat="46.6136883" lon="12.585255"><ele>1761.0</ele><time>2026-04-26T15:26:00.03Z</time></trkpt><trkpt lat="46.6135883" lon="12.585285"><ele>1761.0</ele><time>2026-04-26T15:26:02.027Z</time></trkpt><trkpt lat="46.6135233" lon="12.58531"><ele>1761.0</ele><time>2026-04-26T15:26:03.025Z</time></trkpt><trkpt lat="46.6134483" lon="12.5853467"><ele>1761.0</ele><time>2026-04-26T15:26:04.027Z</time></trkpt><trkpt lat="46.6133767" lon="12.585395"><ele>1761.0</ele><time>2026-04-26T15:26:05.025Z</time></trkpt><trkpt lat="46.6133083" lon="12.585445"><ele>1760.1428571428573</ele><time>2026-04-26T15:26:06.025Z</time></trkpt><trkpt lat="46.6132417" lon="12.5854817"><ele>1759.2857142857142</ele><time>2026-04-26T15:26:07.026Z</time></trkpt><trkpt lat="46.6131733" lon="12.5855017"><ele>1758.4285714285716</ele><time>2026-04-26T15:26:08.027Z</time></trkpt><trkpt lat="46.6131017" lon="12.5855083"><ele>1757.5714285714287</ele><time>2026-04-26T15:26:09.026Z</time></trkpt><trkpt lat="46.6130383" lon="12.5855183"><ele>1756.7142857142858</ele><time>2026-04-26T15:26:10.026Z</time></trkpt><trkpt lat="46.6129733" lon="12.585535"><ele>1755.857142857143</ele><time>2026-04-26T15:26:11.025Z</time></trkpt><trkpt lat="46.612905" lon="12.5855617"><ele>1755.0</ele><time>2026-04-26T15:26:12.026Z</time></trkpt><trkpt lat="46.6128367" lon="12.5855967"><ele>1751.7142857142856</ele><time>2026-04-26T15:26:13.027Z</time></trkpt><trkpt lat="46.61277" lon="12.585615"><ele>1748.4285714285716</ele><time>2026-04-26T15:26:14.028Z</time></trkpt><trkpt lat="46.6127033" lon="12.5856233"><ele>1745.142857142857</ele><time>2026-04-26T15:26:15.025Z</time></trkpt><trkpt lat="46.6126283" lon="12.5856367"><ele>1741.8571428571427</ele><time>2026-04-26T15:26:16.026Z</time></trkpt><trkpt lat="46.61255" lon="12.5856733"><ele>1738.5714285714284</ele><time>2026-04-26T15:26:17.026Z</time></trkpt><trkpt lat="46.61248" lon="12.5857183"><ele>1735.2857142857142</ele><time>2026-04-26T15:26:18.026Z</time></trkpt><trkpt lat="46.6124167" lon="12.5857717"><ele>1732.0</ele><time>2026-04-26T15:26:19.025Z</time></trkpt><trkpt lat="46.6123217" lon="12.58583"><ele>1732.0000000000002</ele><time>2026-04-26T15:26:21.025Z</time></trkpt><trkpt lat="46.612265" lon="12.58587"><ele>1732.0</ele><time>2026-04-26T15:26:23.025Z</time></trkpt><trkpt lat="46.6121983" lon="12.5859017"><ele>1732.0</ele><time>2026-04-26T15:26:26.029Z</time></trkpt><trkpt lat="46.6121133" lon="12.5859067"><ele>1732.0</ele><time>2026-04-26T15:26:29.026Z</time></trkpt><trkpt lat="46.6120483" lon="12.5858933"><ele>1732.0000000000002</ele><time>2026-04-26T15:26:31.026Z</time></trkpt><trkpt lat="46.6119583" lon="12.5858817"><ele>1732.0</ele><time>2026-04-26T15:26:34.026Z</time></trkpt><trkpt lat="46.6118383" lon="12.5859167"><ele>1730.6</ele><time>2026-04-26T15:26:36.027Z</time></trkpt><trkpt lat="46.6117617" lon="12.5859333"><ele>1729.1999999999998</ele><time>2026-04-26T15:26:37.026Z</time></trkpt><trkpt lat="46.6116683" lon="12.585955"><ele>1727.8</ele><time>2026-04-26T15:26:38.026Z</time></trkpt><trkpt lat="46.611565" lon="12.5859933"><ele>1726.4</ele><time>2026-04-26T15:26:39.026Z</time></trkpt><trkpt lat="46.61147" lon="12.5860067"><ele>1725.0</ele><time>2026-04-26T15:26:40.025Z</time></trkpt><trkpt lat="46.6113367" lon="12.5860517"><ele>1725.0</ele><time>2026-04-26T15:26:42.026Z</time></trkpt><trkpt lat="46.611275" lon="12.5860783"><ele>1725.0</ele><time>2026-04-26T15:26:44.027Z</time></trkpt><trkpt lat="46.6111583" lon="12.5861283"><ele>1725.0</ele><time>2026-04-26T15:26:47.026Z</time></trkpt><trkpt lat="46.6110733" lon="12.5861817"><ele>1725.0</ele><time>2026-04-26T15:26:49.028Z</time></trkpt><trkpt lat="46.6109867" lon="12.586215"><ele>1725.0</ele><time>2026-04-26T15:26:51.028Z</time></trkpt><trkpt lat="46.6109233" lon="12.5862433"><ele>1725.0</ele><time>2026-04-26T15:26:53.032Z</time></trkpt><trkpt lat="46.610855" lon="12.5862767"><ele>1717.4</ele><time>2026-04-26T15:26:55.026Z</time></trkpt><trkpt lat="46.610785" lon="12.58629"><ele>1709.8</ele><time>2026-04-26T15:26:57.028Z</time></trkpt><trkpt lat="46.610685" lon="12.5863767"><ele>1702.1999999999998</ele><time>2026-04-26T15:27:00.03Z</time></trkpt><trkpt lat="46.61064" lon="12.5864883"><ele>1694.6</ele><time>2026-04-26T15:27:02.028Z</time></trkpt><trkpt lat="46.6105967" lon="12.5866033"><ele>1687.0</ele><time>2026-04-26T15:27:04.028Z</time></trkpt><trkpt lat="46.61054" lon="12.58677"><ele>1687.0</ele><time>2026-04-26T15:27:07.027Z</time></trkpt><trkpt lat="46.6105067" lon="12.5868567"><ele>1687.0</ele><time>2026-04-26T15:27:09.027Z</time></trkpt><trkpt lat="46.6104883" lon="12.5869517"><ele>1687.0</ele><time>2026-04-26T15:27:11.028Z</time></trkpt><trkpt lat="46.6104733" lon="12.587065"><ele>1687.0</ele><time>2026-04-26T15:27:13.026Z</time></trkpt><trkpt lat="46.610455" lon="12.5871683"><ele>1687.0</ele><time>2026-04-26T15:27:15.025Z</time></trkpt><trkpt lat="46.610425" lon="12.5872733"><ele>1687.0</ele><time>2026-04-26T15:27:17.026Z</time></trkpt><trkpt lat="46.61039" lon="12.5873767"><ele>1687.0</ele><time>2026-04-26T15:27:19.027Z</time></trkpt><trkpt lat="46.6103867" lon="12.5874783"><ele>1686.3333333333335</ele><time>2026-04-26T15:27:21.027Z</time></trkpt><trkpt lat="46.610405" lon="12.5875733"><ele>1685.6666666666667</ele><time>2026-04-26T15:27:23.028Z</time></trkpt><trkpt lat="46.610405" lon="12.587665"><ele>1685.0</ele><time>2026-04-26T15:27:25.027Z</time></trkpt><trkpt lat="46.6103883" lon="12.5877683"><ele>1684.3333333333335</ele><time>2026-04-26T15:27:27.025Z</time></trkpt><trkpt lat="46.610355" lon="12.587875"><ele>1683.6666666666667</ele><time>2026-04-26T15:27:29.026Z</time></trkpt><trkpt lat="46.6102983" lon="12.5880133"><ele>1683.0</ele><time>2026-04-26T15:27:31.025Z</time></trkpt><trkpt lat="46.6102683" lon="12.5881"><ele>1682.9999999999998</ele><time>2026-04-26T15:27:32.026Z</time></trkpt><trkpt lat="46.6102333" lon="12.5881983"><ele>1683.0</ele><time>2026-04-26T15:27:33.026Z</time></trkpt><trkpt lat="46.6101983" lon="12.58829"><ele>1683.0</ele><time>2026-04-26T15:27:34.026Z</time></trkpt><trkpt lat="46.6101633" lon="12.5883833"><ele>1683.0</ele><time>2026-04-26T15:27:35.033Z</time></trkpt><trkpt lat="46.61014" lon="12.588475"><ele>1683.0</ele><time>2026-04-26T15:27:36.027Z</time></trkpt><trkpt lat="46.6101067" lon="12.5885617"><ele>1682.9999999999998</ele><time>2026-04-26T15:27:37.026Z</time></trkpt><trkpt lat="46.610075" lon="12.588655"><ele>1683.0</ele><time>2026-04-26T15:27:38.028Z</time></trkpt><trkpt lat="46.6100467" lon="12.5887533"><ele>1675.6000000000001</ele><time>2026-04-26T15:27:39.026Z</time></trkpt><trkpt lat="46.61002" lon="12.5888417"><ele>1668.2</ele><time>2026-04-26T15:27:40.026Z</time></trkpt><trkpt lat="46.6100267" lon="12.5890017"><ele>1660.8</ele><time>2026-04-26T15:27:42.028Z</time></trkpt><trkpt lat="46.6100283" lon="12.589165"><ele>1653.4</ele><time>2026-04-26T15:27:44.026Z</time></trkpt><trkpt lat="46.61002" lon="12.589345"><ele>1646.0</ele><time>2026-04-26T15:27:46.026Z</time></trkpt><trkpt lat="46.6100217" lon="12.5894433"><ele>1640.4999999999998</ele><time>2026-04-26T15:27:47.026Z</time></trkpt><trkpt lat="46.610025" lon="12.5895483"><ele>1635.0</ele><time>2026-04-26T15:27:48.025Z</time></trkpt><trkpt lat="46.6100233" lon="12.5896617"><ele>1629.5</ele><time>2026-04-26T15:27:49.026Z</time></trkpt><trkpt lat="46.6100183" lon="12.58978"><ele>1624.0</ele><time>2026-04-26T15:27:50.026Z</time></trkpt><trkpt lat="46.6100283" lon="12.5898783"><ele>1618.4999999999998</ele><time>2026-04-26T15:27:51.026Z</time></trkpt><trkpt lat="46.6100333" lon="12.59"><ele>1613.0</ele><time>2026-04-26T15:27:53.026Z</time></trkpt><trkpt lat="46.6099867" lon="12.5900933"><ele>1613.0</ele><time>2026-04-26T15:27:55.026Z</time></trkpt><trkpt lat="46.609905" lon="12.5901633"><ele>1613.0</ele><time>2026-04-26T15:27:57.025Z</time></trkpt><trkpt lat="46.609845" lon="12.5901983"><ele>1613.0</ele><time>2026-04-26T15:27:58.026Z</time></trkpt><trkpt lat="46.6097267" lon="12.5902517"><ele>1613.0</ele><time>2026-04-26T15:28:00.026Z</time></trkpt><trkpt lat="46.6096183" lon="12.59027"><ele>1613.0</ele><time>2026-04-26T15:28:02.026Z</time></trkpt><trkpt lat="46.6095533" lon="12.5902767"><ele>1617.0</ele><time>2026-04-26T15:28:04.026Z</time></trkpt><trkpt lat="46.60949" lon="12.5903267"><ele>1621.0</ele><time>2026-04-26T15:28:06.026Z</time></trkpt><trkpt lat="46.60938" lon="12.5904017"><ele>1625.0</ele><time>2026-04-26T15:28:08.026Z</time></trkpt><trkpt lat="46.60932" lon="12.59044"><ele>1629.0</ele><time>2026-04-26T15:28:09.026Z</time></trkpt><trkpt lat="46.6092267" lon="12.5905383"><ele>1633.0</ele><time>2026-04-26T15:28:11.026Z</time></trkpt><trkpt lat="46.6091333" lon="12.5906317"><ele>1633.0</ele><time>2026-04-26T15:28:13.026Z</time></trkpt><trkpt lat="46.6090733" lon="12.5906683"><ele>1633.0</ele><time>2026-04-26T15:28:14.027Z</time></trkpt><trkpt lat="46.60901" lon="12.5907333"><ele>1633.0</ele><time>2026-04-26T15:28:15.026Z</time></trkpt><trkpt lat="46.608925" lon="12.59085"><ele>1633.0</ele><time>2026-04-26T15:28:16.026Z</time></trkpt><trkpt lat="46.6088583" lon="12.5909533"><ele>1633.0</ele><time>2026-04-26T15:28:17.026Z</time></trkpt><trkpt lat="46.60881" lon="12.5910917"><ele>1628.2</ele><time>2026-04-26T15:28:19.026Z</time></trkpt><trkpt lat="46.60877" lon="12.5912183"><ele>1623.4</ele><time>2026-04-26T15:28:21.027Z</time></trkpt><trkpt lat="46.6087367" lon="12.5913867"><ele>1618.6000000000001</ele><time>2026-04-26T15:28:23.026Z</time></trkpt><trkpt lat="46.60871" lon="12.5914767"><ele>1613.8000000000002</ele><time>2026-04-26T15:28:24.028Z</time></trkpt><trkpt lat="46.6086967" lon="12.59165"><ele>1609.0</ele><time>2026-04-26T15:28:26.027Z</time></trkpt><trkpt lat="46.6086567" lon="12.5918283"><ele>1609.0000000000002</ele><time>2026-04-26T15:28:28.026Z</time></trkpt><trkpt lat="46.6085983" lon="12.591905"><ele>1609.0</ele><time>2026-04-26T15:28:30.026Z</time></trkpt><trkpt lat="46.6085017" lon="12.59182"><ele>1609.0</ele><time>2026-04-26T15:28:32.027Z</time></trkpt><trkpt lat="46.6084317" lon="12.5917517"><ele>1609.0</ele><time>2026-04-26T15:28:33.025Z</time></trkpt><trkpt lat="46.6083567" lon="12.5917017"><ele>1609.0000000000002</ele><time>2026-04-26T15:28:34.026Z</time></trkpt><trkpt lat="46.6082833" lon="12.5916767"><ele>1609.0</ele><time>2026-04-26T15:28:35.026Z</time></trkpt><trkpt lat="46.60822" lon="12.5916633"><ele>1609.0</ele><time>2026-04-26T15:28:36.026Z</time></trkpt><trkpt lat="46.6081033" lon="12.5916617"><ele>1609.0</ele><time>2026-04-26T15:28:38.032Z</time></trkpt><trkpt lat="46.6080067" lon="12.5916117"><ele>1609.0</ele><time>2026-04-26T15:28:40.026Z</time></trkpt><trkpt lat="46.6079067" lon="12.5915217"><ele>1609.0</ele><time>2026-04-26T15:28:42.026Z</time></trkpt><trkpt lat="46.60786" lon="12.5914517"><ele>1609.0</ele><time>2026-04-26T15:28:43.029Z</time></trkpt><trkpt lat="46.6078183" lon="12.5913783"><ele>1608.6</ele><time>2026-04-26T15:28:44.028Z</time></trkpt><trkpt lat="46.607735" lon="12.5912917"><ele>1608.2</ele><time>2026-04-26T15:28:46.026Z</time></trkpt><trkpt lat="46.6076667" lon="12.5911867"><ele>1607.8</ele><time>2026-04-26T15:28:48.027Z</time></trkpt><trkpt lat="46.6075767" lon="12.5910467"><ele>1607.3999999999999</ele><time>2026-04-26T15:28:50.028Z</time></trkpt><trkpt lat="46.6075233" lon="12.5909767"><ele>1607.0</ele><time>2026-04-26T15:28:51.025Z</time></trkpt><trkpt lat="46.607475" lon="12.590895"><ele>1606.9999999999998</ele><time>2026-04-26T15:28:52.026Z</time></trkpt><trkpt lat="46.60743" lon="12.5908117"><ele>1607.0</ele><time>2026-04-26T15:28:53.026Z</time></trkpt><trkpt lat="46.6073817" lon="12.5907267"><ele>1607.0</ele><time>2026-04-26T15:28:54.026Z</time></trkpt><trkpt lat="46.6073217" lon="12.5906383"><ele>1607.0</ele><time>2026-04-26T15:28:55.027Z</time></trkpt><trkpt lat="46.6072567" lon="12.590555"><ele>1606.9999999999998</ele><time>2026-04-26T15:28:56.027Z</time></trkpt><trkpt lat="46.6072033" lon="12.5904933"><ele>1607.0</ele><time>2026-04-26T15:28:57.025Z</time></trkpt><trkpt lat="46.6071117" lon="12.5903983"><ele>1607.25</ele><time>2026-04-26T15:28:59.029Z</time></trkpt><trkpt lat="46.60702" lon="12.5903317"><ele>1607.5</ele><time>2026-04-26T15:29:01.026Z</time></trkpt><trkpt lat="46.606905" lon="12.590265"><ele>1607.75</ele><time>2026-04-26T15:29:03.029Z</time></trkpt><trkpt lat="46.6067817" lon="12.5902267"><ele>1608.0</ele><time>2026-04-26T15:29:05.026Z</time></trkpt><trkpt lat="46.6066767" lon="12.5901583"><ele>1608.0</ele><time>2026-04-26T15:29:07.026Z</time></trkpt><trkpt lat="46.60659" lon="12.5900417"><ele>1608.0</ele><time>2026-04-26T15:29:09.028Z</time></trkpt><trkpt lat="46.60653" lon="12.589985"><ele>1608.0</ele><time>2026-04-26T15:29:10.026Z</time></trkpt><trkpt lat="46.606465" lon="12.5899283"><ele>1608.0</ele><time>2026-04-26T15:29:11.026Z</time></trkpt><trkpt lat="46.60639" lon="12.5898833"><ele>1608.0</ele><time>2026-04-26T15:29:12.026Z</time></trkpt><trkpt lat="46.60633" lon="12.5898467"><ele>1608.0</ele><time>2026-04-26T15:29:13.026Z</time></trkpt><trkpt lat="46.6062667" lon="12.5898217"><ele>1608.5</ele><time>2026-04-26T15:29:14.026Z</time></trkpt><trkpt lat="46.6061417" lon="12.5897717"><ele>1609.0</ele><time>2026-04-26T15:29:16.026Z</time></trkpt><trkpt lat="46.606075" lon="12.5897667"><ele>1609.5</ele><time>2026-04-26T15:29:17.026Z</time></trkpt><trkpt lat="46.6060033" lon="12.5897733"><ele>1610.0</ele><time>2026-04-26T15:29:18.03Z</time></trkpt><trkpt lat="46.6059283" lon="12.5897933"><ele>1610.5</ele><time>2026-04-26T15:29:19.026Z</time></trkpt><trkpt lat="46.605855" lon="12.5898467"><ele>1611.0</ele><time>2026-04-26T15:29:20.026Z</time></trkpt><trkpt lat="46.60579" lon="12.5899083"><ele>1611.0</ele><time>2026-04-26T15:29:21.027Z</time></trkpt><trkpt lat="46.6057283" lon="12.5899617"><ele>1611.0</ele><time>2026-04-26T15:29:22.026Z</time></trkpt><trkpt lat="46.6056667" lon="12.5900233"><ele>1611.0</ele><time>2026-04-26T15:29:23.026Z</time></trkpt><trkpt lat="46.6056067" lon="12.59008"><ele>1611.0</ele><time>2026-04-26T15:29:24.027Z</time></trkpt><trkpt lat="46.6055433" lon="12.5901333"><ele>1611.0</ele><time>2026-04-26T15:29:25.026Z</time></trkpt><trkpt lat="46.6054817" lon="12.5901783"><ele>1611.0</ele><time>2026-04-26T15:29:26.026Z</time></trkpt><trkpt lat="46.6053867" lon="12.5902383"><ele>1610.1666666666667</ele><time>2026-04-26T15:29:28.026Z</time></trkpt><trkpt lat="46.6053117" lon="12.5902583"><ele>1609.3333333333335</ele><time>2026-04-26T15:29:34.026Z</time></trkpt><trkpt lat="46.60525" lon="12.5902767"><ele>1608.5</ele><time>2026-04-26T15:29:36.026Z</time></trkpt><trkpt lat="46.6051917" lon="12.5903133"><ele>1607.6666666666667</ele><time>2026-04-26T15:29:37.027Z</time></trkpt><trkpt lat="46.605105" lon="12.59037"><ele>1606.8333333333335</ele><time>2026-04-26T15:29:38.027Z</time></trkpt><trkpt lat="46.6050117" lon="12.5904467"><ele>1606.0</ele><time>2026-04-26T15:29:39.026Z</time></trkpt><trkpt lat="46.6049267" lon="12.5905317"><ele>1606.0000000000002</ele><time>2026-04-26T15:29:40.026Z</time></trkpt><trkpt lat="46.60485" lon="12.590605"><ele>1606.0</ele><time>2026-04-26T15:29:41.027Z</time></trkpt><trkpt lat="46.6047933" lon="12.5906683"><ele>1606.0</ele><time>2026-04-26T15:29:42.026Z</time></trkpt><trkpt lat="46.6046917" lon="12.59073"><ele>1606.0</ele><time>2026-04-26T15:29:44.029Z</time></trkpt><trkpt lat="46.6046283" lon="12.5907567"><ele>1606.0000000000002</ele><time>2026-04-26T15:29:45.027Z</time></trkpt><trkpt lat="46.6045617" lon="12.5907833"><ele>1606.0</ele><time>2026-04-26T15:29:46.026Z</time></trkpt><trkpt lat="46.6044933" lon="12.5908067"><ele>1608.3333333333335</ele><time>2026-04-26T15:29:47.029Z</time></trkpt><trkpt lat="46.6044233" lon="12.590825"><ele>1610.6666666666667</ele><time>2026-04-26T15:29:48.026Z</time></trkpt><trkpt lat="46.6043467" lon="12.5908567"><ele>1613.0</ele><time>2026-04-26T15:29:49.026Z</time></trkpt><trkpt lat="46.604275" lon="12.59091"><ele>1615.3333333333335</ele><time>2026-04-26T15:29:50.027Z</time></trkpt><trkpt lat="46.604215" lon="12.5910017"><ele>1617.6666666666667</ele><time>2026-04-26T15:29:51.028Z</time></trkpt><trkpt lat="46.6041567" lon="12.591085"><ele>1620.0</ele><time>2026-04-26T15:29:52.026Z</time></trkpt><trkpt lat="46.60411" lon="12.5911683"><ele>1617.1666666666667</ele><time>2026-04-26T15:29:53.028Z</time></trkpt><trkpt lat="46.6040283" lon="12.5912967"><ele>1614.3333333333335</ele><time>2026-04-26T15:29:55.026Z</time></trkpt><trkpt lat="46.6039783" lon="12.591355"><ele>1611.5</ele><time>2026-04-26T15:29:56.027Z</time></trkpt><trkpt lat="46.60387" lon="12.591425"><ele>1608.6666666666667</ele><time>2026-04-26T15:29:58.026Z</time></trkpt><trkpt lat="46.6038083" lon="12.591445"><ele>1605.8333333333335</ele><time>2026-04-26T15:29:59.026Z</time></trkpt><trkpt lat="46.6037433" lon="12.5914717"><ele>1603.0</ele><time>2026-04-26T15:30:00.026Z</time></trkpt><trkpt lat="46.6036733" lon="12.5914983"><ele>1604.142857142857</ele><time>2026-04-26T15:30:01.026Z</time></trkpt><trkpt lat="46.6036033" lon="12.5915233"><ele>1605.2857142857142</ele><time>2026-04-26T15:30:02.028Z</time></trkpt><trkpt lat="46.6035383" lon="12.5915483"><ele>1606.4285714285716</ele><time>2026-04-26T15:30:03.026Z</time></trkpt><trkpt lat="46.60347" lon="12.5915733"><ele>1607.5714285714284</ele><time>2026-04-26T15:30:04.026Z</time></trkpt><trkpt lat="46.6034" lon="12.5915933"><ele>1608.7142857142858</ele><time>2026-04-26T15:30:05.026Z</time></trkpt><trkpt lat="46.6033367" lon="12.591625"><ele>1609.857142857143</ele><time>2026-04-26T15:30:06.026Z</time></trkpt><trkpt lat="46.6032717" lon="12.591645"><ele>1611.0</ele><time>2026-04-26T15:30:07.026Z</time></trkpt><trkpt lat="46.6032067" lon="12.5916417"><ele>1611.0</ele><time>2026-04-26T15:30:08.028Z</time></trkpt><trkpt lat="46.603125" lon="12.59164"><ele>1611.0</ele><time>2026-04-26T15:30:09.027Z</time></trkpt><trkpt lat="46.6030467" lon="12.59164"><ele>1611.0</ele><time>2026-04-26T15:30:10.026Z</time></trkpt><trkpt lat="46.602965" lon="12.5916617"><ele>1611.0</ele><time>2026-04-26T15:30:11.026Z</time></trkpt><trkpt lat="46.6028817" lon="12.5916883"><ele>1611.0</ele><time>2026-04-26T15:30:12.026Z</time></trkpt><trkpt lat="46.6028017" lon="12.5917117"><ele>1611.0</ele><time>2026-04-26T15:30:13.027Z</time></trkpt><trkpt lat="46.602735" lon="12.5917433"><ele>1609.4</ele><time>2026-04-26T15:30:14.027Z</time></trkpt><trkpt lat="46.6026267" lon="12.5917333"><ele>1607.8</ele><time>2026-04-26T15:30:16.026Z</time></trkpt><trkpt lat="46.60257" lon="12.59162"><ele>1606.2</ele><time>2026-04-26T15:30:18.026Z</time></trkpt><trkpt lat="46.602565" lon="12.5915217"><ele>1604.6000000000001</ele><time>2026-04-26T15:30:19.029Z</time></trkpt><trkpt lat="46.602585" lon="12.5913367"><ele>1603.0</ele><time>2026-04-26T15:30:21.026Z</time></trkpt><trkpt lat="46.6025983" lon="12.59124"><ele>1601.1666666666667</ele><time>2026-04-26T15:30:22.026Z</time></trkpt><trkpt lat="46.6026167" lon="12.5911383"><ele>1599.3333333333335</ele><time>2026-04-26T15:30:23.026Z</time></trkpt><trkpt lat="46.60263" lon="12.5910417"><ele>1597.5</ele><time>2026-04-26T15:30:24.029Z</time></trkpt><trkpt lat="46.60263" lon="12.5908683"><ele>1595.6666666666665</ele><time>2026-04-26T15:30:26.026Z</time></trkpt><trkpt lat="46.6025867" lon="12.5907767"><ele>1593.8333333333333</ele><time>2026-04-26T15:30:28.026Z</time></trkpt><trkpt lat="46.6025283" lon="12.5908783"><ele>1592.0</ele><time>2026-04-26T15:30:30.027Z</time></trkpt><trkpt lat="46.6025067" lon="12.590965"><ele>1591.9999999999998</ele><time>2026-04-26T15:30:31.026Z</time></trkpt><trkpt lat="46.602485" lon="12.5910567"><ele>1592.0</ele><time>2026-04-26T15:30:32.026Z</time></trkpt><trkpt lat="46.6024617" lon="12.5911483"><ele>1592.0</ele><time>2026-04-26T15:30:33.026Z</time></trkpt><trkpt lat="46.602435" lon="12.5912317"><ele>1592.0</ele><time>2026-04-26T15:30:34.026Z</time></trkpt><trkpt lat="46.6023633" lon="12.5913383"><ele>1591.9999999999998</ele><time>2026-04-26T15:30:36.026Z</time></trkpt><trkpt lat="46.602265" lon="12.591355"><ele>1592.0</ele><time>2026-04-26T15:30:38.027Z</time></trkpt><trkpt lat="46.6022017" lon="12.5913117"><ele>1592.0</ele><time>2026-04-26T15:30:41.026Z</time></trkpt><trkpt lat="46.6022083" lon="12.5911767"><ele>1592.0</ele><time>2026-04-26T15:30:48.026Z</time></trkpt><trkpt lat="46.60223" lon="12.591005"><ele>1592.0</ele><time>2026-04-26T15:30:50.029Z</time></trkpt><trkpt lat="46.602245" lon="12.5908883"><ele>1592.0</ele><time>2026-04-26T15:30:51.025Z</time></trkpt><trkpt lat="46.6022567" lon="12.5907583"><ele>1592.0</ele><time>2026-04-26T15:30:52.026Z</time></trkpt><trkpt lat="46.602265" lon="12.5906233"><ele>1592.0</ele><time>2026-04-26T15:30:53.026Z</time></trkpt><trkpt lat="46.6022717" lon="12.5904833"><ele>1592.0</ele><time>2026-04-26T15:30:54.026Z</time></trkpt><trkpt lat="46.6022833" lon="12.5903417"><ele>1592.0</ele><time>2026-04-26T15:30:55.026Z</time></trkpt><trkpt lat="46.6022883" lon="12.5901983"><ele>1592.0</ele><time>2026-04-26T15:30:56.026Z</time></trkpt><trkpt lat="46.60228" lon="12.5900617"><ele>1592.0</ele><time>2026-04-26T15:30:57.025Z</time></trkpt><trkpt lat="46.602245" lon="12.5899333"><ele>1590.0</ele><time>2026-04-26T15:30:58.026Z</time></trkpt><trkpt lat="46.602195" lon="12.5898233"><ele>1588.0</ele><time>2026-04-26T15:30:59.026Z</time></trkpt><trkpt lat="46.6021283" lon="12.5897233"><ele>1586.0</ele><time>2026-04-26T15:31:00.025Z</time></trkpt><trkpt lat="46.60206" lon="12.5896267"><ele>1584.0</ele><time>2026-04-26T15:31:01.027Z</time></trkpt><trkpt lat="46.60198" lon="12.5895383"><ele>1582.0</ele><time>2026-04-26T15:31:02.026Z</time></trkpt><trkpt lat="46.6019" lon="12.5894517"><ele>1576.8333333333335</ele><time>2026-04-26T15:31:03.025Z</time></trkpt><trkpt lat="46.60183" lon="12.589375"><ele>1571.6666666666667</ele><time>2026-04-26T15:31:04.026Z</time></trkpt><trkpt lat="46.601775" lon="12.5892933"><ele>1566.5</ele><time>2026-04-26T15:31:05.027Z</time></trkpt><trkpt lat="46.6017283" lon="12.58921"><ele>1561.3333333333335</ele><time>2026-04-26T15:31:06.026Z</time></trkpt><trkpt lat="46.601695" lon="12.58906"><ele>1556.1666666666667</ele><time>2026-04-26T15:31:08.027Z</time></trkpt><trkpt lat="46.6017517" lon="12.5890183"><ele>1551.0</ele><time>2026-04-26T15:31:09.025Z</time></trkpt><trkpt lat="46.6019083" lon="12.5889733"><ele>1553.0</ele><time>2026-04-26T15:31:11.027Z</time></trkpt><trkpt lat="46.6020267" lon="12.58897"><ele>1555.0</ele><time>2026-04-26T15:31:12.027Z</time></trkpt><trkpt lat="46.602165" lon="12.5889483"><ele>1557.0</ele><time>2026-04-26T15:31:13.026Z</time></trkpt><trkpt lat="46.6022817" lon="12.5889133"><ele>1559.0</ele><time>2026-04-26T15:31:14.027Z</time></trkpt><trkpt lat="46.6023917" lon="12.5888717"><ele>1559.0</ele><time>2026-04-26T15:31:15.027Z</time></trkpt><trkpt lat="46.6024867" lon="12.5888233"><ele>1559.0</ele><time>2026-04-26T15:31:16.029Z</time></trkpt><trkpt lat="46.602585" lon="12.5887667"><ele>1559.0</ele><time>2026-04-26T15:31:17.028Z</time></trkpt><trkpt lat="46.60267" lon="12.58869"><ele>1559.0</ele><time>2026-04-26T15:31:18.026Z</time></trkpt><trkpt lat="46.6027433" lon="12.5885983"><ele>1559.0</ele><time>2026-04-26T15:31:19.026Z</time></trkpt><trkpt lat="46.6028067" lon="12.5885033"><ele>1558.1666666666665</ele><time>2026-04-26T15:31:20.028Z</time></trkpt><trkpt lat="46.6028633" lon="12.588405"><ele>1557.3333333333333</ele><time>2026-04-26T15:31:21.025Z</time></trkpt><trkpt lat="46.60289" lon="12.58827"><ele>1556.5</ele><time>2026-04-26T15:31:22.026Z</time></trkpt><trkpt lat="46.6029033" lon="12.5881533"><ele>1555.6666666666665</ele><time>2026-04-26T15:31:23.026Z</time></trkpt><trkpt lat="46.6028917" lon="12.5880467"><ele>1554.8333333333333</ele><time>2026-04-26T15:31:24.026Z</time></trkpt><trkpt lat="46.6028683" lon="12.5879383"><ele>1554.0</ele><time>2026-04-26T15:31:25.027Z</time></trkpt><trkpt lat="46.6028433" lon="12.587845"><ele>1549.6</ele><time>2026-04-26T15:31:26.026Z</time></trkpt><trkpt lat="46.6027867" lon="12.5877133"><ele>1545.2</ele><time>2026-04-26T15:31:28.026Z</time></trkpt><trkpt lat="46.6027" lon="12.5877017"><ele>1540.8</ele><time>2026-04-26T15:31:30.028Z</time></trkpt><trkpt lat="46.6026117" lon="12.58782"><ele>1536.3999999999999</ele><time>2026-04-26T15:31:32.026Z</time></trkpt><trkpt lat="46.6025733" lon="12.5879"><ele>1532.0</ele><time>2026-04-26T15:31:33.025Z</time></trkpt><trkpt lat="46.6025267" lon="12.5879817"><ele>1532.0</ele><time>2026-04-26T15:31:34.026Z</time></trkpt><trkpt lat="46.6024767" lon="12.5880467"><ele>1532.0</ele><time>2026-04-26T15:31:35.027Z</time></trkpt><trkpt lat="46.6024067" lon="12.5880783"><ele>1532.0</ele><time>2026-04-26T15:31:36.027Z</time></trkpt><trkpt lat="46.60233" lon="12.5880983"><ele>1532.0</ele><time>2026-04-26T15:31:37.027Z</time></trkpt><trkpt lat="46.6022333" lon="12.5881033"><ele>1532.0</ele><time>2026-04-26T15:31:38.027Z</time></trkpt><trkpt lat="46.6021333" lon="12.58811"><ele>1532.0</ele><time>2026-04-26T15:31:39.026Z</time></trkpt><trkpt lat="46.6020217" lon="12.5881083"><ele>1531.25</ele><time>2026-04-26T15:31:40.025Z</time></trkpt><trkpt lat="46.601905" lon="12.5881067"><ele>1530.5</ele><time>2026-04-26T15:31:41.025Z</time></trkpt><trkpt lat="46.60179" lon="12.5880933"><ele>1529.75</ele><time>2026-04-26T15:31:42.025Z</time></trkpt><trkpt lat="46.6016617" lon="12.5880867"><ele>1529.0</ele><time>2026-04-26T15:31:43.026Z</time></trkpt><trkpt lat="46.601525" lon="12.5880817"><ele>1529.0</ele><time>2026-04-26T15:31:44.034Z</time></trkpt><trkpt lat="46.6013967" lon="12.5880733"><ele>1529.0</ele><time>2026-04-26T15:31:45.025Z</time></trkpt><trkpt lat="46.601265" lon="12.5880683"><ele>1529.0</ele><time>2026-04-26T15:31:46.026Z</time></trkpt><trkpt lat="46.6011417" lon="12.5880683"><ele>1529.0</ele><time>2026-04-26T15:31:47.025Z</time></trkpt><trkpt lat="46.601035" lon="12.5880667"><ele>1525.2</ele><time>2026-04-26T15:31:48.027Z</time></trkpt><trkpt lat="46.6009467" lon="12.5880667"><ele>1521.4</ele><time>2026-04-26T15:31:49.026Z</time></trkpt><trkpt lat="46.600865" lon="12.58805"><ele>1517.6</ele><time>2026-04-26T15:31:50.025Z</time></trkpt><trkpt lat="46.6007717" lon="12.588005"><ele>1513.8</ele><time>2026-04-26T15:31:51.024Z</time></trkpt><trkpt lat="46.6006783" lon="12.5879517"><ele>1510.0</ele><time>2026-04-26T15:31:52.026Z</time></trkpt><trkpt lat="46.6005783" lon="12.5878683"><ele>1506.4</ele><time>2026-04-26T15:31:53.025Z</time></trkpt><trkpt lat="46.60048" lon="12.5877767"><ele>1502.8</ele><time>2026-04-26T15:31:54.025Z</time></trkpt><trkpt lat="46.600385" lon="12.5876883"><ele>1499.1999999999998</ele><time>2026-04-26T15:31:55.029Z</time></trkpt><trkpt lat="46.6003033" lon="12.5875983"><ele>1495.6</ele><time>2026-04-26T15:31:56.026Z</time></trkpt><trkpt lat="46.6002317" lon="12.5875117"><ele>1492.0</ele><time>2026-04-26T15:31:57.024Z</time></trkpt><trkpt lat="46.6001583" lon="12.5874383"><ele>1489.5714285714287</ele><time>2026-04-26T15:31:58.027Z</time></trkpt><trkpt lat="46.6000767" lon="12.5873933"><ele>1487.1428571428573</ele><time>2026-04-26T15:31:59.025Z</time></trkpt><trkpt lat="46.600005" lon="12.5873567"><ele>1484.7142857142858</ele><time>2026-04-26T15:32:00.025Z</time></trkpt><trkpt lat="46.5999417" lon="12.5873367"><ele>1482.2857142857142</ele><time>2026-04-26T15:32:01.027Z</time></trkpt><trkpt lat="46.5998817" lon="12.5873033"><ele>1479.857142857143</ele><time>2026-04-26T15:32:02.028Z</time></trkpt><trkpt lat="46.599825" lon="12.5872467"><ele>1477.4285714285713</ele><time>2026-04-26T15:32:03.025Z</time></trkpt><trkpt lat="46.5997733" lon="12.58717"><ele>1475.0</ele><time>2026-04-26T15:32:04.026Z</time></trkpt><trkpt lat="46.5997217" lon="12.5870667"><ele>1475.0</ele><time>2026-04-26T15:32:05.026Z</time></trkpt><trkpt lat="46.5996683" lon="12.5869483"><ele>1475.0</ele><time>2026-04-26T15:32:06.025Z</time></trkpt><trkpt lat="46.5996083" lon="12.5868217"><ele>1475.0</ele><time>2026-04-26T15:32:07.025Z</time></trkpt><trkpt lat="46.5995417" lon="12.58669"><ele>1475.0</ele><time>2026-04-26T15:32:08.026Z</time></trkpt><trkpt lat="46.5994667" lon="12.5865667"><ele>1475.0</ele><time>2026-04-26T15:32:09.025Z</time></trkpt><trkpt lat="46.5993983" lon="12.58644"><ele>1475.0</ele><time>2026-04-26T15:32:10.025Z</time></trkpt><trkpt lat="46.5993433" lon="12.586305"><ele>1475.0</ele><time>2026-04-26T15:32:11.025Z</time></trkpt><trkpt lat="46.5993017" lon="12.5861583"><ele>1475.0</ele><time>2026-04-26T15:32:12.025Z</time></trkpt><trkpt lat="46.5992617" lon="12.5860017"><ele>1475.0</ele><time>2026-04-26T15:32:13.025Z</time></trkpt><trkpt lat="46.5992183" lon="12.585835"><ele>1470.5</ele><time>2026-04-26T15:32:14.026Z</time></trkpt><trkpt lat="46.5991717" lon="12.5856683"><ele>1466.0</ele><time>2026-04-26T15:32:15.025Z</time></trkpt><trkpt lat="46.5991283" lon="12.5855117"><ele>1461.5</ele><time>2026-04-26T15:32:16.026Z</time></trkpt><trkpt lat="46.599085" lon="12.5853633"><ele>1457.0</ele><time>2026-04-26T15:32:17.028Z</time></trkpt><trkpt lat="46.5990317" lon="12.5852133"><ele>1456.25</ele><time>2026-04-26T15:32:18.026Z</time></trkpt><trkpt lat="46.598965" lon="12.5850717"><ele>1455.5</ele><time>2026-04-26T15:32:19.028Z</time></trkpt><trkpt lat="46.5988933" lon="12.5849333"><ele>1454.75</ele><time>2026-04-26T15:32:20.026Z</time></trkpt><trkpt lat="46.5988117" lon="12.5848017"><ele>1454.0</ele><time>2026-04-26T15:32:21.025Z</time></trkpt><trkpt lat="46.5987317" lon="12.5846783"><ele>1454.75</ele><time>2026-04-26T15:32:22.025Z</time></trkpt><trkpt lat="46.5986517" lon="12.5845617"><ele>1455.5</ele><time>2026-04-26T15:32:23.025Z</time></trkpt><trkpt lat="46.59858" lon="12.5844333"><ele>1456.25</ele><time>2026-04-26T15:32:24.025Z</time></trkpt><trkpt lat="46.5985183" lon="12.5842917"><ele>1457.0</ele><time>2026-04-26T15:32:25.025Z</time></trkpt><trkpt lat="46.5984683" lon="12.5841367"><ele>1455.25</ele><time>2026-04-26T15:32:26.027Z</time></trkpt><trkpt lat="46.5984367" lon="12.58397"><ele>1453.5</ele><time>2026-04-26T15:32:27.024Z</time></trkpt><trkpt lat="46.5984167" lon="12.5838033"><ele>1451.75</ele><time>2026-04-26T15:32:28.025Z</time></trkpt><trkpt lat="46.598385" lon="12.5836467"><ele>1450.0</ele><time>2026-04-26T15:32:29.026Z</time></trkpt><trkpt lat="46.5983367" lon="12.5835"><ele>1449.5</ele><time>2026-04-26T15:32:30.025Z</time></trkpt><trkpt lat="46.59829" lon="12.5833517"><ele>1449.0</ele><time>2026-04-26T15:32:31.026Z</time></trkpt><trkpt lat="46.5982483" lon="12.583195"><ele>1448.5</ele><time>2026-04-26T15:32:32.028Z</time></trkpt><trkpt lat="46.5982167" lon="12.5830283"><ele>1448.0</ele><time>2026-04-26T15:32:33.025Z</time></trkpt><trkpt lat="46.5981767" lon="12.5828617"><ele>1446.5</ele><time>2026-04-26T15:32:34.025Z</time></trkpt><trkpt lat="46.5981333" lon="12.582695"><ele>1445.0</ele><time>2026-04-26T15:32:35.026Z</time></trkpt><trkpt lat="46.5980933" lon="12.58253"><ele>1443.5</ele><time>2026-04-26T15:32:36.025Z</time></trkpt><trkpt lat="46.5980517" lon="12.5823633"><ele>1442.0</ele><time>2026-04-26T15:32:37.025Z</time></trkpt><trkpt lat="46.5980167" lon="12.5822033"><ele>1442.0</ele><time>2026-04-26T15:32:38.025Z</time></trkpt><trkpt lat="46.5979917" lon="12.5820483"><ele>1442.0</ele><time>2026-04-26T15:32:39.025Z</time></trkpt><trkpt lat="46.59798" lon="12.58189"><ele>1442.0</ele><time>2026-04-26T15:32:40.025Z</time></trkpt><trkpt lat="46.5979867" lon="12.58173"><ele>1442.0</ele><time>2026-04-26T15:32:41.026Z</time></trkpt><trkpt lat="46.5980033" lon="12.5815667"><ele>1442.0</ele><time>2026-04-26T15:32:42.025Z</time></trkpt><trkpt lat="46.5980133" lon="12.5814033"><ele>1439.1999999999998</ele><time>2026-04-26T15:32:43.028Z</time></trkpt><trkpt lat="46.5980217" lon="12.581245"><ele>1436.4</ele><time>2026-04-26T15:32:44.026Z</time></trkpt><trkpt lat="46.5980183" lon="12.5810967"><ele>1433.6</ele><time>2026-04-26T15:32:45.024Z</time></trkpt><trkpt lat="46.5980067" lon="12.5809517"><ele>1430.8000000000002</ele><time>2026-04-26T15:32:46.028Z</time></trkpt><trkpt lat="46.5979883" lon="12.5808133"><ele>1428.0</ele><time>2026-04-26T15:32:47.025Z</time></trkpt><trkpt lat="46.5979517" lon="12.580695"><ele>1425.1666666666667</ele><time>2026-04-26T15:32:48.025Z</time></trkpt><trkpt lat="46.5978983" lon="12.5805933"><ele>1422.3333333333333</ele><time>2026-04-26T15:32:49.025Z</time></trkpt><trkpt lat="46.597835" lon="12.5805167"><ele>1419.5</ele><time>2026-04-26T15:32:50.026Z</time></trkpt><trkpt lat="46.5977667" lon="12.5804667"><ele>1416.6666666666665</ele><time>2026-04-26T15:32:51.025Z</time></trkpt><trkpt lat="46.597675" lon="12.5804417"><ele>1413.8333333333333</ele><time>2026-04-26T15:32:52.027Z</time></trkpt><trkpt lat="46.5975767" lon="12.5804417"><ele>1411.0</ele><time>2026-04-26T15:32:53.026Z</time></trkpt><trkpt lat="46.5974767" lon="12.5804367"><ele>1409.8</ele><time>2026-04-26T15:32:54.025Z</time></trkpt><trkpt lat="46.5973733" lon="12.5804133"><ele>1408.6</ele><time>2026-04-26T15:32:55.025Z</time></trkpt><trkpt lat="46.5972717" lon="12.5803717"><ele>1407.4</ele><time>2026-04-26T15:32:56.026Z</time></trkpt><trkpt lat="46.5971733" lon="12.5803283"><ele>1406.2</ele><time>2026-04-26T15:32:57.025Z</time></trkpt><trkpt lat="46.5970767" lon="12.580285"><ele>1405.0</ele><time>2026-04-26T15:32:58.026Z</time></trkpt><trkpt lat="46.5969717" lon="12.5802617"><ele>1397.25</ele><time>2026-04-26T15:32:59.025Z</time></trkpt><trkpt lat="46.5968667" lon="12.580255"><ele>1389.5</ele><time>2026-04-26T15:33:00.028Z</time></trkpt><trkpt lat="46.5967567" lon="12.58027"><ele>1381.75</ele><time>2026-04-26T15:33:01.025Z</time></trkpt><trkpt lat="46.5966333" lon="12.580295"><ele>1374.0</ele><time>2026-04-26T15:33:02.028Z</time></trkpt><trkpt lat="46.5965183" lon="12.5803167"><ele>1374.0</ele><time>2026-04-26T15:33:03.025Z</time></trkpt><trkpt lat="46.5964167" lon="12.5803267"><ele>1374.0</ele><time>2026-04-26T15:33:04.025Z</time></trkpt><trkpt lat="46.5963117" lon="12.5803317"><ele>1374.0</ele><time>2026-04-26T15:33:05.03Z</time></trkpt><trkpt lat="46.5962" lon="12.5803283"><ele>1374.0</ele><time>2026-04-26T15:33:06.026Z</time></trkpt><trkpt lat="46.5960883" lon="12.58033"><ele>1374.0</ele><time>2026-04-26T15:33:07.027Z</time></trkpt><trkpt lat="46.5959783" lon="12.58032"><ele>1373.0</ele><time>2026-04-26T15:33:08.029Z</time></trkpt><trkpt lat="46.595865" lon="12.5803017"><ele>1372.0</ele><time>2026-04-26T15:33:09.025Z</time></trkpt><trkpt lat="46.5957583" lon="12.5802683"><ele>1371.0</ele><time>2026-04-26T15:33:10.026Z</time></trkpt><trkpt lat="46.59565" lon="12.58024"><ele>1370.0</ele><time>2026-04-26T15:33:11.026Z</time></trkpt><trkpt lat="46.5955367" lon="12.5802267"><ele>1369.0</ele><time>2026-04-26T15:33:12.025Z</time></trkpt><trkpt lat="46.5954183" lon="12.5802167"><ele>1366.0</ele><time>2026-04-26T15:33:13.026Z</time></trkpt><trkpt lat="46.5953017" lon="12.5801983"><ele>1363.0</ele><time>2026-04-26T15:33:14.027Z</time></trkpt><trkpt lat="46.595185" lon="12.580185"><ele>1360.0</ele><time>2026-04-26T15:33:15.025Z</time></trkpt><trkpt lat="46.5950717" lon="12.580165"><ele>1357.0</ele><time>2026-04-26T15:33:16.025Z</time></trkpt><trkpt lat="46.59496" lon="12.58014"><ele>1357.0</ele><time>2026-04-26T15:33:17.026Z</time></trkpt><trkpt lat="46.59484" lon="12.580125"><ele>1357.0</ele><time>2026-04-26T15:33:18.025Z</time></trkpt><trkpt lat="46.5947267" lon="12.5801367"><ele>1357.0</ele><time>2026-04-26T15:33:19.026Z</time></trkpt><trkpt lat="46.5946117" lon="12.5801617"><ele>1357.0</ele><time>2026-04-26T15:33:20.026Z</time></trkpt><trkpt lat="46.5944983" lon="12.5802033"><ele>1355.0</ele><time>2026-04-26T15:33:21.025Z</time></trkpt><trkpt lat="46.5943867" lon="12.58025"><ele>1353.0</ele><time>2026-04-26T15:33:22.026Z</time></trkpt><trkpt lat="46.59428" lon="12.5802983"><ele>1351.0</ele><time>2026-04-26T15:33:23.026Z</time></trkpt><trkpt lat="46.5941917" lon="12.580345"><ele>1349.0</ele><time>2026-04-26T15:33:24.025Z</time></trkpt><trkpt lat="46.594115" lon="12.5803983"><ele>1347.0</ele><time>2026-04-26T15:33:25.025Z</time></trkpt><trkpt lat="46.5940467" lon="12.5804683"><ele>1347.0</ele><time>2026-04-26T15:33:26.026Z</time></trkpt><trkpt lat="46.5939817" lon="12.5805433"><ele>1347.0</ele><time>2026-04-26T15:33:27.025Z</time></trkpt><trkpt lat="46.59392" lon="12.58062"><ele>1347.0</ele><time>2026-04-26T15:33:28.025Z</time></trkpt><trkpt lat="46.59385" lon="12.5806717"><ele>1347.0</ele><time>2026-04-26T15:33:29.026Z</time></trkpt><trkpt lat="46.5937767" lon="12.5806967"><ele>1347.0</ele><time>2026-04-26T15:33:30.025Z</time></trkpt><trkpt lat="46.5937" lon="12.5806967"><ele>1347.0</ele><time>2026-04-26T15:33:31.025Z</time></trkpt><trkpt lat="46.5936117" lon="12.5806717"><ele>1346.5</ele><time>2026-04-26T15:33:32.026Z</time></trkpt><trkpt lat="46.59354" lon="12.5806183"><ele>1346.0</ele><time>2026-04-26T15:33:33.025Z</time></trkpt><trkpt lat="46.593475" lon="12.5805483"><ele>1345.5</ele><time>2026-04-26T15:33:34.028Z</time></trkpt><trkpt lat="46.5934117" lon="12.5804667"><ele>1345.0</ele><time>2026-04-26T15:33:35.028Z</time></trkpt><trkpt lat="46.5933517" lon="12.5803783"><ele>1344.5</ele><time>2026-04-26T15:33:36.026Z</time></trkpt><trkpt lat="46.5932983" lon="12.580275"><ele>1344.0</ele><time>2026-04-26T15:33:37.026Z</time></trkpt><trkpt lat="46.5932483" lon="12.58016"><ele>1340.0</ele><time>2026-04-26T15:33:38.025Z</time></trkpt><trkpt lat="46.593195" lon="12.5800467"><ele>1336.0</ele><time>2026-04-26T15:33:39.026Z</time></trkpt><trkpt lat="46.593135" lon="12.5799383"><ele>1332.0</ele><time>2026-04-26T15:33:40.026Z</time></trkpt><trkpt lat="46.5930683" lon="12.5798483"><ele>1328.0</ele><time>2026-04-26T15:33:41.025Z</time></trkpt><trkpt lat="46.5930017" lon="12.57977"><ele>1324.0</ele><time>2026-04-26T15:33:42.026Z</time></trkpt><trkpt lat="46.5929383" lon="12.579695"><ele>1320.0</ele><time>2026-04-26T15:33:43.026Z</time></trkpt><trkpt lat="46.5928717" lon="12.579635"><ele>1322.0</ele><time>2026-04-26T15:33:44.026Z</time></trkpt><trkpt lat="46.5927983" lon="12.57958"><ele>1324.0</ele><time>2026-04-26T15:33:45.025Z</time></trkpt><trkpt lat="46.59272" lon="12.5795383"><ele>1326.0</ele><time>2026-04-26T15:33:46.026Z</time></trkpt><trkpt lat="46.59264" lon="12.5795117"><ele>1328.0</ele><time>2026-04-26T15:33:47.027Z</time></trkpt><trkpt lat="46.5925617" lon="12.5795"><ele>1330.0</ele><time>2026-04-26T15:33:48.025Z</time></trkpt><trkpt lat="46.5924967" lon="12.57952"><ele>1332.0</ele><time>2026-04-26T15:33:49.026Z</time></trkpt><trkpt lat="46.5924" lon="12.5796283"><ele>1327.8333333333333</ele><time>2026-04-26T15:33:51.025Z</time></trkpt><trkpt lat="46.5923583" lon="12.57974"><ele>1323.6666666666667</ele><time>2026-04-26T15:33:53.028Z</time></trkpt><trkpt lat="46.5923167" lon="12.5798417"><ele>1319.5</ele><time>2026-04-26T15:33:55.026Z</time></trkpt><trkpt lat="46.5922583" lon="12.57998"><ele>1315.3333333333335</ele><time>2026-04-26T15:33:57.025Z</time></trkpt><trkpt lat="46.5922167" lon="12.5800517"><ele>1311.1666666666667</ele><time>2026-04-26T15:33:58.026Z</time></trkpt><trkpt lat="46.5921667" lon="12.5801117"><ele>1307.0</ele><time>2026-04-26T15:33:59.026Z</time></trkpt><trkpt lat="46.5921233" lon="12.5801817"><ele>1307.0</ele><time>2026-04-26T15:34:00.027Z</time></trkpt><trkpt lat="46.5920667" lon="12.5802483"><ele>1307.0</ele><time>2026-04-26T15:34:01.026Z</time></trkpt><trkpt lat="46.592" lon="12.580315"><ele>1307.0</ele><time>2026-04-26T15:34:02.026Z</time></trkpt><trkpt lat="46.5919167" lon="12.5803967"><ele>1307.0</ele><time>2026-04-26T15:34:03.026Z</time></trkpt><trkpt lat="46.591825" lon="12.5804717"><ele>1307.0</ele><time>2026-04-26T15:34:04.025Z</time></trkpt><trkpt lat="46.5917233" lon="12.5805433"><ele>1306.25</ele><time>2026-04-26T15:34:05.026Z</time></trkpt><trkpt lat="46.5916133" lon="12.580615"><ele>1305.5</ele><time>2026-04-26T15:34:06.025Z</time></trkpt><trkpt lat="46.5915083" lon="12.5806867"><ele>1304.75</ele><time>2026-04-26T15:34:07.026Z</time></trkpt><trkpt lat="46.591405" lon="12.5807483"><ele>1304.0</ele><time>2026-04-26T15:34:08.027Z</time></trkpt><trkpt lat="46.5912983" lon="12.580785"><ele>1304.0</ele><time>2026-04-26T15:34:09.025Z</time></trkpt><trkpt lat="46.5911867" lon="12.5808067"><ele>1304.0</ele><time>2026-04-26T15:34:10.026Z</time></trkpt><trkpt lat="46.5910833" lon="12.580835"><ele>1304.0</ele><time>2026-04-26T15:34:11.026Z</time></trkpt><trkpt lat="46.5909783" lon="12.58086"><ele>1304.0</ele><time>2026-04-26T15:34:12.026Z</time></trkpt><trkpt lat="46.5908833" lon="12.5808833"><ele>1304.0</ele><time>2026-04-26T15:34:13.026Z</time></trkpt><trkpt lat="46.5907967" lon="12.5809"><ele>1303.8000000000002</ele><time>2026-04-26T15:34:14.027Z</time></trkpt><trkpt lat="46.5907183" lon="12.5809033"><ele>1303.6000000000001</ele><time>2026-04-26T15:34:15.025Z</time></trkpt><trkpt lat="46.5906333" lon="12.5808683"><ele>1303.4</ele><time>2026-04-26T15:34:16.026Z</time></trkpt><trkpt lat="46.5905433" lon="12.5808233"><ele>1303.2</ele><time>2026-04-26T15:34:17.025Z</time></trkpt><trkpt lat="46.5904533" lon="12.5807667"><ele>1303.0</ele><time>2026-04-26T15:34:18.025Z</time></trkpt><trkpt lat="46.5903633" lon="12.58071"><ele>1301.8000000000002</ele><time>2026-04-26T15:34:19.025Z</time></trkpt><trkpt lat="46.5902717" lon="12.5806683"><ele>1300.6</ele><time>2026-04-26T15:34:20.026Z</time></trkpt><trkpt lat="46.590175" lon="12.5806483"><ele>1299.4</ele><time>2026-04-26T15:34:21.026Z</time></trkpt><trkpt lat="46.5900733" lon="12.580635"><ele>1298.1999999999998</ele><time>2026-04-26T15:34:22.026Z</time></trkpt><trkpt lat="46.589975" lon="12.5806267"><ele>1297.0</ele><time>2026-04-26T15:34:23.026Z</time></trkpt><trkpt lat="46.5898783" lon="12.5806233"><ele>1297.0</ele><time>2026-04-26T15:34:24.027Z</time></trkpt><trkpt lat="46.58978" lon="12.5806367"><ele>1297.0</ele><time>2026-04-26T15:34:25.025Z</time></trkpt><trkpt lat="46.5896767" lon="12.5806383"><ele>1297.0</ele><time>2026-04-26T15:34:26.027Z</time></trkpt><trkpt lat="46.5895683" lon="12.5806567"><ele>1297.0</ele><time>2026-04-26T15:34:27.025Z</time></trkpt><trkpt lat="46.5894533" lon="12.58069"><ele>1297.0</ele><time>2026-04-26T15:34:28.026Z</time></trkpt><trkpt lat="46.5893383" lon="12.5807367"><ele>1299.75</ele><time>2026-04-26T15:34:29.026Z</time></trkpt><trkpt lat="46.5892283" lon="12.5807983"><ele>1302.5</ele><time>2026-04-26T15:34:30.026Z</time></trkpt><trkpt lat="46.5891183" lon="12.580865"><ele>1305.25</ele><time>2026-04-26T15:34:31.026Z</time></trkpt><trkpt lat="46.5890083" lon="12.5809533"><ele>1308.0</ele><time>2026-04-26T15:34:32.026Z</time></trkpt><trkpt lat="46.5889017" lon="12.5810533"><ele>1308.0</ele><time>2026-04-26T15:34:33.026Z</time></trkpt><trkpt lat="46.5888" lon="12.58116"><ele>1308.0</ele><time>2026-04-26T15:34:34.026Z</time></trkpt><trkpt lat="46.588705" lon="12.5812633"><ele>1308.0</ele><time>2026-04-26T15:34:35.025Z</time></trkpt><trkpt lat="46.5886183" lon="12.581355"><ele>1308.0</ele><time>2026-04-26T15:34:36.025Z</time></trkpt><trkpt lat="46.5885417" lon="12.58143"><ele>1308.0</ele><time>2026-04-26T15:34:37.026Z</time></trkpt><trkpt lat="46.5884667" lon="12.5814833"><ele>1305.4</ele><time>2026-04-26T15:34:38.026Z</time></trkpt><trkpt lat="46.588385" lon="12.5815233"><ele>1302.8000000000002</ele><time>2026-04-26T15:34:39.026Z</time></trkpt><trkpt lat="46.5882967" lon="12.581555"><ele>1300.2</ele><time>2026-04-26T15:34:40.026Z</time></trkpt><trkpt lat="46.5881983" lon="12.581565"><ele>1297.6</ele><time>2026-04-26T15:34:41.026Z</time></trkpt><trkpt lat="46.5880983" lon="12.5815667"><ele>1295.0</ele><time>2026-04-26T15:34:42.026Z</time></trkpt><trkpt lat="46.5879917" lon="12.581555"><ele>1295.0</ele><time>2026-04-26T15:34:43.026Z</time></trkpt><trkpt lat="46.5878833" lon="12.58155"><ele>1295.0</ele><time>2026-04-26T15:34:44.026Z</time></trkpt><trkpt lat="46.587765" lon="12.5815567"><ele>1295.0</ele><time>2026-04-26T15:34:45.025Z</time></trkpt><trkpt lat="46.5876483" lon="12.58156"><ele>1295.0</ele><time>2026-04-26T15:34:46.026Z</time></trkpt><trkpt lat="46.5875367" lon="12.581565"><ele>1295.4</ele><time>2026-04-26T15:34:47.025Z</time></trkpt><trkpt lat="46.58743" lon="12.5815533"><ele>1295.8</ele><time>2026-04-26T15:34:48.025Z</time></trkpt><trkpt lat="46.5873217" lon="12.5815333"><ele>1296.1999999999998</ele><time>2026-04-26T15:34:49.026Z</time></trkpt><trkpt lat="46.58721" lon="12.581515"><ele>1296.6</ele><time>2026-04-26T15:34:50.026Z</time></trkpt><trkpt lat="46.5871" lon="12.581525"><ele>1297.0</ele><time>2026-04-26T15:34:51.025Z</time></trkpt><trkpt lat="46.5869933" lon="12.5815483"><ele>1298.0</ele><time>2026-04-26T15:34:52.026Z</time></trkpt><trkpt lat="46.58689" lon="12.5815883"><ele>1299.0</ele><time>2026-04-26T15:34:53.025Z</time></trkpt><trkpt lat="46.5867933" lon="12.5816233"><ele>1300.0</ele><time>2026-04-26T15:34:54.026Z</time></trkpt><trkpt lat="46.5867033" lon="12.5816483"><ele>1301.0</ele><time>2026-04-26T15:34:55.026Z</time></trkpt><trkpt lat="46.5866233" lon="12.5816667"><ele>1302.0</ele><time>2026-04-26T15:34:56.026Z</time></trkpt><trkpt lat="46.58654" lon="12.5816817"><ele>1302.0</ele><time>2026-04-26T15:34:57.027Z</time></trkpt><trkpt lat="46.58646" lon="12.5816867"><ele>1302.0</ele><time>2026-04-26T15:34:58.027Z</time></trkpt><trkpt lat="46.5863767" lon="12.581675"><ele>1302.0</ele><time>2026-04-26T15:34:59.025Z</time></trkpt><trkpt lat="46.5862917" lon="12.5816567"><ele>1302.0</ele><time>2026-04-26T15:35:00.025Z</time></trkpt><trkpt lat="46.586205" lon="12.58163"><ele>1302.0</ele><time>2026-04-26T15:35:01.026Z</time></trkpt><trkpt lat="46.5861183" lon="12.5815967"><ele>1302.0</ele><time>2026-04-26T15:35:02.025Z</time></trkpt><trkpt lat="46.5860317" lon="12.5815517"><ele>1302.3333333333333</ele><time>2026-04-26T15:35:03.025Z</time></trkpt><trkpt lat="46.585945" lon="12.5815"><ele>1302.6666666666667</ele><time>2026-04-26T15:35:04.027Z</time></trkpt><trkpt lat="46.58586" lon="12.5814517"><ele>1303.0</ele><time>2026-04-26T15:35:05.026Z</time></trkpt><trkpt lat="46.58578" lon="12.5814133"><ele>1303.3333333333335</ele><time>2026-04-26T15:35:06.026Z</time></trkpt><trkpt lat="46.5857" lon="12.5813983"><ele>1303.6666666666667</ele><time>2026-04-26T15:35:07.025Z</time></trkpt><trkpt lat="46.58562" lon="12.5814083"><ele>1304.0</ele><time>2026-04-26T15:35:08.026Z</time></trkpt><trkpt lat="46.58554" lon="12.58143"><ele>1304.0</ele><time>2026-04-26T15:35:09.025Z</time></trkpt><trkpt lat="46.585455" lon="12.581455"><ele>1304.0</ele><time>2026-04-26T15:35:10.026Z</time></trkpt><trkpt lat="46.58537" lon="12.5814667"><ele>1304.0</ele><time>2026-04-26T15:35:11.026Z</time></trkpt><trkpt lat="46.5852883" lon="12.5814717"><ele>1304.0</ele><time>2026-04-26T15:35:12.025Z</time></trkpt><trkpt lat="46.5852167" lon="12.5814767"><ele>1304.0</ele><time>2026-04-26T15:35:13.026Z</time></trkpt><trkpt lat="46.58515" lon="12.5814717"><ele>1304.0</ele><time>2026-04-26T15:35:14.026Z</time></trkpt><trkpt lat="46.5850867" lon="12.5814583"><ele>1302.5714285714287</ele><time>2026-04-26T15:35:15.025Z</time></trkpt><trkpt lat="46.5850233" lon="12.5814183"><ele>1301.142857142857</ele><time>2026-04-26T15:35:16.026Z</time></trkpt><trkpt lat="46.584965" lon="12.5813567"><ele>1299.7142857142858</ele><time>2026-04-26T15:35:17.026Z</time></trkpt><trkpt lat="46.5849033" lon="12.5812833"><ele>1298.2857142857142</ele><time>2026-04-26T15:35:18.025Z</time></trkpt><trkpt lat="46.5848467" lon="12.581205"><ele>1296.857142857143</ele><time>2026-04-26T15:35:19.026Z</time></trkpt><trkpt lat="46.5848033" lon="12.5811217"><ele>1295.4285714285713</ele><time>2026-04-26T15:35:20.026Z</time></trkpt><trkpt lat="46.5847733" lon="12.5810283"><ele>1294.0</ele><time>2026-04-26T15:35:21.025Z</time></trkpt><trkpt lat="46.584745" lon="12.5809283"><ele>1293.2</ele><time>2026-04-26T15:35:22.026Z</time></trkpt><trkpt lat="46.5847217" lon="12.5808383"><ele>1292.4</ele><time>2026-04-26T15:35:23.025Z</time></trkpt><trkpt lat="46.5846683" lon="12.580725"><ele>1291.6</ele><time>2026-04-26T15:35:25.026Z</time></trkpt><trkpt lat="46.5845883" lon="12.5806583"><ele>1290.8</ele><time>2026-04-26T15:35:27.026Z</time></trkpt><trkpt lat="46.5844717" lon="12.5805783"><ele>1290.0</ele><time>2026-04-26T15:35:29.026Z</time></trkpt><trkpt lat="46.5844133" lon="12.580525"><ele>1290.0</ele><time>2026-04-26T15:35:30.026Z</time></trkpt><trkpt lat="46.58435" lon="12.580455"><ele>1290.0</ele><time>2026-04-26T15:35:31.026Z</time></trkpt><trkpt lat="46.5842783" lon="12.58038"><ele>1290.0</ele><time>2026-04-26T15:35:32.027Z</time></trkpt><trkpt lat="46.5841917" lon="12.5803033"><ele>1290.0</ele><time>2026-04-26T15:35:33.028Z</time></trkpt><trkpt lat="46.5841033" lon="12.5802217"><ele>1290.0</ele><time>2026-04-26T15:35:34.029Z</time></trkpt><trkpt lat="46.5840217" lon="12.5801417"><ele>1293.3333333333333</ele><time>2026-04-26T15:35:35.026Z</time></trkpt><trkpt lat="46.5839417" lon="12.58007"><ele>1296.6666666666667</ele><time>2026-04-26T15:35:36.026Z</time></trkpt><trkpt lat="46.5838567" lon="12.58"><ele>1300.0</ele><time>2026-04-26T15:35:37.026Z</time></trkpt><trkpt lat="46.5838033" lon="12.579945"><ele>1303.3333333333335</ele><time>2026-04-26T15:35:38.026Z</time></trkpt><trkpt lat="46.58375" lon="12.5798933"><ele>1306.6666666666667</ele><time>2026-04-26T15:35:39.028Z</time></trkpt><trkpt lat="46.5836983" lon="12.5798367"><ele>1310.0</ele><time>2026-04-26T15:35:40.025Z</time></trkpt><trkpt lat="46.5835933" lon="12.5797433"><ele>1310.0</ele><time>2026-04-26T15:35:42.026Z</time></trkpt><trkpt lat="46.583535" lon="12.5797017"><ele>1310.0</ele><time>2026-04-26T15:35:43.026Z</time></trkpt><trkpt lat="46.5834717" lon="12.5796617"><ele>1310.0</ele><time>2026-04-26T15:35:44.026Z</time></trkpt><trkpt lat="46.58341" lon="12.5796267"><ele>1310.0</ele><time>2026-04-26T15:35:45.025Z</time></trkpt><trkpt lat="46.5833417" lon="12.5796"><ele>1310.0</ele><time>2026-04-26T15:35:46.027Z</time></trkpt><trkpt lat="46.5832717" lon="12.5795817"><ele>1310.0</ele><time>2026-04-26T15:35:47.026Z</time></trkpt><trkpt lat="46.5832017" lon="12.5795767"><ele>1310.0</ele><time>2026-04-26T15:35:48.025Z</time></trkpt><trkpt lat="46.5831367" lon="12.5795683"><ele>1310.0</ele><time>2026-04-26T15:35:49.026Z</time></trkpt><trkpt lat="46.5830317" lon="12.5795233"><ele>1310.0</ele><time>2026-04-26T15:35:51.026Z</time></trkpt><trkpt lat="46.5829417" lon="12.5794767"><ele>1310.0</ele><time>2026-04-26T15:35:53.026Z</time></trkpt><trkpt lat="46.5828467" lon="12.579435"><ele>1310.0</ele><time>2026-04-26T15:35:55.025Z</time></trkpt><trkpt lat="46.5827833" lon="12.5793983"><ele>1310.0</ele><time>2026-04-26T15:35:57.025Z</time></trkpt><trkpt lat="46.582715" lon="12.5794067"><ele>1310.0</ele><time>2026-04-26T15:36:01.026Z</time></trkpt><trkpt lat="46.5826233" lon="12.5793317"><ele>1313.0</ele><time>2026-04-26T15:37:17.027Z</time></trkpt><trkpt lat="46.58254" lon="12.5794033"><ele>1316.0</ele><time>2026-04-26T15:37:19.026Z</time></trkpt><trkpt lat="46.582445" lon="12.579495"><ele>1319.0</ele><time>2026-04-26T15:37:21.027Z</time></trkpt><trkpt lat="46.5823567" lon="12.5795133"><ele>1322.0</ele><time>2026-04-26T15:37:23.026Z</time></trkpt><trkpt lat="46.582265" lon="12.5794633"><ele>1325.0</ele><time>2026-04-26T15:37:25.029Z</time></trkpt><trkpt lat="46.58216" lon="12.57937"><ele>1325.0</ele><time>2026-04-26T15:37:27.025Z</time></trkpt><trkpt lat="46.5820983" lon="12.5792967"><ele>1325.0</ele><time>2026-04-26T15:37:28.026Z</time></trkpt><trkpt lat="46.582035" lon="12.5792017"><ele>1325.0</ele><time>2026-04-26T15:37:29.026Z</time></trkpt><trkpt lat="46.5819733" lon="12.5791283"><ele>1325.0</ele><time>2026-04-26T15:37:30.027Z</time></trkpt><trkpt lat="46.58192" lon="12.57906"><ele>1325.0</ele><time>2026-04-26T15:37:31.026Z</time></trkpt><trkpt lat="46.5818617" lon="12.578945"><ele>1325.0</ele><time>2026-04-26T15:37:33.025Z</time></trkpt><trkpt lat="46.581815" lon="12.57881"><ele>1322.6</ele><time>2026-04-26T15:37:35.026Z</time></trkpt><trkpt lat="46.5817717" lon="12.57868"><ele>1320.2</ele><time>2026-04-26T15:37:37.027Z</time></trkpt><trkpt lat="46.5817317" lon="12.5785983"><ele>1317.8000000000002</ele><time>2026-04-26T15:37:39.025Z</time></trkpt><trkpt lat="46.5817017" lon="12.57848"><ele>1315.4</ele><time>2026-04-26T15:37:42.026Z</time></trkpt><trkpt lat="46.58167" lon="12.5783367"><ele>1313.0</ele><time>2026-04-26T15:37:44.026Z</time></trkpt><trkpt lat="46.5816567" lon="12.5781583"><ele>1313.0</ele><time>2026-04-26T15:37:46.027Z</time></trkpt><trkpt lat="46.5816517" lon="12.5780533"><ele>1313.0</ele><time>2026-04-26T15:37:47.026Z</time></trkpt><trkpt lat="46.581645" lon="12.5779367"><ele>1313.0</ele><time>2026-04-26T15:37:48.026Z</time></trkpt><trkpt lat="46.5816283" lon="12.57781"><ele>1313.0</ele><time>2026-04-26T15:37:49.026Z</time></trkpt><trkpt lat="46.5815967" lon="12.5777167"><ele>1313.0</ele><time>2026-04-26T15:37:50.026Z</time></trkpt><trkpt lat="46.5815467" lon="12.5776233"><ele>1313.0</ele><time>2026-04-26T15:37:51.025Z</time></trkpt><trkpt lat="46.5814983" lon="12.5775233"><ele>1314.0</ele><time>2026-04-26T15:37:52.026Z</time></trkpt><trkpt lat="46.5814433" lon="12.5774517"><ele>1315.0</ele><time>2026-04-26T15:37:53.026Z</time></trkpt><trkpt lat="46.5813767" lon="12.5773833"><ele>1316.0</ele><time>2026-04-26T15:37:54.026Z</time></trkpt><trkpt lat="46.5813133" lon="12.5773167"><ele>1317.0</ele><time>2026-04-26T15:37:55.026Z</time></trkpt><trkpt lat="46.5812467" lon="12.5772433"><ele>1318.0</ele><time>2026-04-26T15:37:56.027Z</time></trkpt><trkpt lat="46.581195" lon="12.5771467"><ele>1319.0</ele><time>2026-04-26T15:37:57.028Z</time></trkpt><trkpt lat="46.581145" lon="12.577015"><ele>1313.8000000000002</ele><time>2026-04-26T15:37:58.027Z</time></trkpt><trkpt lat="46.581125" lon="12.57682"><ele>1308.6000000000001</ele><time>2026-04-26T15:37:59.031Z</time></trkpt><trkpt lat="46.5810767" lon="12.57668"><ele>1303.4</ele><time>2026-04-26T15:38:00.029Z</time></trkpt><trkpt lat="46.58104" lon="12.5765633"><ele>1298.2</ele><time>2026-04-26T15:38:01.028Z</time></trkpt><trkpt lat="46.5809983" lon="12.5764667"><ele>1293.0</ele><time>2026-04-26T15:38:02.03Z</time></trkpt><trkpt lat="46.5809533" lon="12.5763817"><ele>1293.0</ele><time>2026-04-26T15:38:03.026Z</time></trkpt><trkpt lat="46.5809" lon="12.576295"><ele>1293.0</ele><time>2026-04-26T15:38:04.026Z</time></trkpt><trkpt lat="46.5808383" lon="12.5762033"><ele>1293.0</ele><time>2026-04-26T15:38:05.026Z</time></trkpt><trkpt lat="46.5807633" lon="12.5761133"><ele>1293.0</ele><time>2026-04-26T15:38:06.026Z</time></trkpt><trkpt lat="46.5806967" lon="12.5760133"><ele>1293.0</ele><time>2026-04-26T15:38:07.026Z</time></trkpt><trkpt lat="46.5806283" lon="12.5759017"><ele>1295.6000000000001</ele><time>2026-04-26T15:38:08.029Z</time></trkpt><trkpt lat="46.5805667" lon="12.5757883"><ele>1298.2</ele><time>2026-04-26T15:38:09.025Z</time></trkpt><trkpt lat="46.5805183" lon="12.57567"><ele>1300.8</ele><time>2026-04-26T15:38:10.028Z</time></trkpt><trkpt lat="46.580475" lon="12.5755433"><ele>1303.4</ele><time>2026-04-26T15:38:11.025Z</time></trkpt><trkpt lat="46.5804383" lon="12.5754183"><ele>1306.0</ele><time>2026-04-26T15:38:12.026Z</time></trkpt><trkpt lat="46.5804117" lon="12.575285"><ele>1308.8</ele><time>2026-04-26T15:38:13.025Z</time></trkpt><trkpt lat="46.5804083" lon="12.5751467"><ele>1311.6</ele><time>2026-04-26T15:38:14.028Z</time></trkpt><trkpt lat="46.580415" lon="12.5749933"><ele>1314.4</ele><time>2026-04-26T15:38:15.024Z</time></trkpt><trkpt lat="46.5804233" lon="12.5748383"><ele>1317.2</ele><time>2026-04-26T15:38:16.025Z</time></trkpt><trkpt lat="46.58042" lon="12.5746917"><ele>1320.0</ele><time>2026-04-26T15:38:17.025Z</time></trkpt><trkpt lat="46.5803967" lon="12.57456"><ele>1322.2</ele><time>2026-04-26T15:38:18.025Z</time></trkpt><trkpt lat="46.580375" lon="12.5744283"><ele>1324.4</ele><time>2026-04-26T15:38:19.025Z</time></trkpt><trkpt lat="46.58034" lon="12.574305"><ele>1326.6</ele><time>2026-04-26T15:38:20.026Z</time></trkpt><trkpt lat="46.580295" lon="12.5741917"><ele>1328.8</ele><time>2026-04-26T15:38:21.029Z</time></trkpt><trkpt lat="46.5802467" lon="12.57408"><ele>1331.0</ele><time>2026-04-26T15:38:22.025Z</time></trkpt><trkpt lat="46.5802" lon="12.5739633"><ele>1327.6</ele><time>2026-04-26T15:38:23.025Z</time></trkpt><trkpt lat="46.5801467" lon="12.5738483"><ele>1324.1999999999998</ele><time>2026-04-26T15:38:24.025Z</time></trkpt><trkpt lat="46.5800933" lon="12.57375"><ele>1320.8000000000002</ele><time>2026-04-26T15:38:25.025Z</time></trkpt><trkpt lat="46.58005" lon="12.57367"><ele>1317.4</ele><time>2026-04-26T15:38:26.025Z</time></trkpt><trkpt lat="46.5800133" lon="12.5735133"><ele>1314.0</ele><time>2026-04-26T15:38:28.025Z</time></trkpt><trkpt lat="46.5799783" lon="12.5733517"><ele>1314.0</ele><time>2026-04-26T15:38:30.025Z</time></trkpt><trkpt lat="46.5799283" lon="12.5732133"><ele>1314.0</ele><time>2026-04-26T15:38:32.029Z</time></trkpt><trkpt lat="46.5799933" lon="12.5732633"><ele>1314.0</ele><time>2026-04-26T15:38:37.025Z</time></trkpt><trkpt lat="46.5800783" lon="12.57336"><ele>1314.0</ele><time>2026-04-26T15:38:39.025Z</time></trkpt><trkpt lat="46.580185" lon="12.5734267"><ele>1314.0</ele><time>2026-04-26T15:38:41.025Z</time></trkpt><trkpt lat="46.580255" lon="12.5734383"><ele>1314.0</ele><time>2026-04-26T15:39:43.027Z</time></trkpt><trkpt lat="46.5801783" lon="12.573385"><ele>1314.0</ele><time>2026-04-26T15:39:45.028Z</time></trkpt><trkpt lat="46.58008" lon="12.5732667"><ele>1314.0</ele><time>2026-04-26T15:39:48.026Z</time></trkpt><trkpt lat="46.58" lon="12.5731933"><ele>1314.0</ele><time>2026-04-26T15:39:50.027Z</time></trkpt><trkpt lat="46.57992" lon="12.5732467"><ele>1314.0</ele><time>2026-04-26T15:39:52.026Z</time></trkpt><trkpt lat="46.5798983" lon="12.573365"><ele>1314.0</ele><time>2026-04-26T15:39:54.026Z</time></trkpt><trkpt lat="46.57991" lon="12.5734583"><ele>1314.0</ele><time>2026-04-26T15:39:55.026Z</time></trkpt><trkpt lat="46.579945" lon="12.5736033"><ele>1314.0</ele><time>2026-04-26T15:39:56.027Z</time></trkpt><trkpt lat="46.57999" lon="12.5737383"><ele>1314.0</ele><time>2026-04-26T15:39:57.026Z</time></trkpt><trkpt lat="46.58004" lon="12.5738683"><ele>1314.0</ele><time>2026-04-26T15:39:58.026Z</time></trkpt><trkpt lat="46.5801017" lon="12.57402"><ele>1309.75</ele><time>2026-04-26T15:39:59.028Z</time></trkpt><trkpt lat="46.5801617" lon="12.574185"><ele>1305.5</ele><time>2026-04-26T15:40:00.027Z</time></trkpt><trkpt lat="46.5802167" lon="12.5743583"><ele>1301.25</ele><time>2026-04-26T15:40:01.026Z</time></trkpt><trkpt lat="46.5802717" lon="12.574535"><ele>1297.0</ele><time>2026-04-26T15:40:02.026Z</time></trkpt><trkpt lat="46.5803083" lon="12.5747017"><ele>1299.25</ele><time>2026-04-26T15:40:03.026Z</time></trkpt><trkpt lat="46.58034" lon="12.574865"><ele>1301.5</ele><time>2026-04-26T15:40:04.026Z</time></trkpt><trkpt lat="46.5803433" lon="12.5750417"><ele>1303.75</ele><time>2026-04-26T15:40:05.027Z</time></trkpt><trkpt lat="46.5803483" lon="12.5752117"><ele>1306.0</ele><time>2026-04-26T15:40:06.027Z</time></trkpt><trkpt lat="46.580355" lon="12.5753767"><ele>1306.0</ele><time>2026-04-26T15:40:07.026Z</time></trkpt><trkpt lat="46.5803867" lon="12.575555"><ele>1306.0</ele><time>2026-04-26T15:40:08.026Z</time></trkpt><trkpt lat="46.58043" lon="12.5757183"><ele>1306.0</ele><time>2026-04-26T15:40:09.026Z</time></trkpt><trkpt lat="46.5804817" lon="12.5758617"><ele>1306.0</ele><time>2026-04-26T15:40:10.026Z</time></trkpt><trkpt lat="46.5805383" lon="12.5759883"><ele>1306.0</ele><time>2026-04-26T15:40:11.026Z</time></trkpt><trkpt lat="46.5805967" lon="12.576095"><ele>1306.0</ele><time>2026-04-26T15:40:12.027Z</time></trkpt><trkpt lat="46.58066" lon="12.5761783"><ele>1306.0</ele><time>2026-04-26T15:40:13.026Z</time></trkpt><trkpt lat="46.5807183" lon="12.57625"><ele>1306.0</ele><time>2026-04-26T15:40:14.026Z</time></trkpt><trkpt lat="46.5807983" lon="12.5762867"><ele>1306.0</ele><time>2026-04-26T15:40:15.026Z</time></trkpt><trkpt lat="46.5808633" lon="12.5763667"><ele>1306.0</ele><time>2026-04-26T15:40:17.026Z</time></trkpt><trkpt lat="46.5807717" lon="12.5764283"><ele>1306.0</ele><time>2026-04-26T15:40:21.026Z</time></trkpt><trkpt lat="46.5806983" lon="12.5764033"><ele>1306.0</ele><time>2026-04-26T15:40:22.026Z</time></trkpt><trkpt lat="46.580595" lon="12.5763167"><ele>1306.0</ele><time>2026-04-26T15:40:24.028Z</time></trkpt><trkpt lat="46.5805083" lon="12.5761883"><ele>1306.0</ele><time>2026-04-26T15:40:26.026Z</time></trkpt><trkpt lat="46.5804717" lon="12.5761083"><ele>1306.0</ele><time>2026-04-26T15:40:27.026Z</time></trkpt><trkpt lat="46.5804367" lon="12.5760267"><ele>1306.0</ele><time>2026-04-26T15:40:28.027Z</time></trkpt><trkpt lat="46.5803633" lon="12.575895"><ele>1306.0</ele><time>2026-04-26T15:40:30.026Z</time></trkpt><trkpt lat="46.5802933" lon="12.5757367"><ele>1306.0</ele><time>2026-04-26T15:40:32.027Z</time></trkpt><trkpt lat="46.5802633" lon="12.5756483"><ele>1306.0</ele><time>2026-04-26T15:40:33.026Z</time></trkpt><trkpt lat="46.580235" lon="12.575555"><ele>1306.0</ele><time>2026-04-26T15:40:34.026Z</time></trkpt><trkpt lat="46.58021" lon="12.57546"><ele>1302.0</ele><time>2026-04-26T15:40:35.03Z</time></trkpt><trkpt lat="46.5801917" lon="12.5753383"><ele>1298.0</ele><time>2026-04-26T15:40:36.029Z</time></trkpt><trkpt lat="46.580155" lon="12.5752167"><ele>1294.0</ele><time>2026-04-26T15:40:37.028Z</time></trkpt><trkpt lat="46.580105" lon="12.5751117"><ele>1290.0</ele><time>2026-04-26T15:40:38.028Z</time></trkpt><trkpt lat="46.580055" lon="12.5750033"><ele>1286.0</ele><time>2026-04-26T15:40:39.027Z</time></trkpt><trkpt lat="46.5800033" lon="12.5748983"><ele>1282.0</ele><time>2026-04-26T15:40:40.027Z</time></trkpt><trkpt lat="46.5799617" lon="12.574795"><ele>1282.0</ele><time>2026-04-26T15:40:41.027Z</time></trkpt><trkpt lat="46.579925" lon="12.574695"><ele>1282.0</ele><time>2026-04-26T15:40:42.027Z</time></trkpt><trkpt lat="46.5798867" lon="12.5745917"><ele>1282.0</ele><time>2026-04-26T15:40:43.026Z</time></trkpt><trkpt lat="46.5798533" lon="12.57449"><ele>1282.0</ele><time>2026-04-26T15:40:44.028Z</time></trkpt><trkpt lat="46.5798133" lon="12.5744"><ele>1282.0</ele><time>2026-04-26T15:40:45.028Z</time></trkpt><trkpt lat="46.5797767" lon="12.57431"><ele>1282.0</ele><time>2026-04-26T15:40:46.025Z</time></trkpt><trkpt lat="46.5797367" lon="12.5742283"><ele>1283.0</ele><time>2026-04-26T15:40:47.026Z</time></trkpt><trkpt lat="46.5797017" lon="12.5741483"><ele>1284.0</ele><time>2026-04-26T15:40:48.025Z</time></trkpt><trkpt lat="46.579635" lon="12.5740117"><ele>1285.0</ele><time>2026-04-26T15:40:50.026Z</time></trkpt><trkpt lat="46.5795667" lon="12.5738917"><ele>1286.0</ele><time>2026-04-26T15:40:52.025Z</time></trkpt><trkpt lat="46.5794983" lon="12.57376"><ele>1287.0</ele><time>2026-04-26T15:40:54.027Z</time></trkpt><trkpt lat="46.5794167" lon="12.5736217"><ele>1287.0</ele><time>2026-04-26T15:40:56.026Z</time></trkpt><trkpt lat="46.5793417" lon="12.5734767"><ele>1287.0</ele><time>2026-04-26T15:40:58.026Z</time></trkpt><trkpt lat="46.5793067" lon="12.5733983"><ele>1287.0</ele><time>2026-04-26T15:40:59.028Z</time></trkpt><trkpt lat="46.5792717" lon="12.5733083"><ele>1287.0</ele><time>2026-04-26T15:41:00.025Z</time></trkpt><trkpt lat="46.5792417" lon="12.5732067"><ele>1287.0</ele><time>2026-04-26T15:41:01.025Z</time></trkpt><trkpt lat="46.5792083" lon="12.5731083"><ele>1287.0</ele><time>2026-04-26T15:41:02.029Z</time></trkpt><trkpt lat="46.5791733" lon="12.573025"><ele>1287.0</ele><time>2026-04-26T15:41:03.028Z</time></trkpt><trkpt lat="46.579105" lon="12.5728883"><ele>1287.0</ele><time>2026-04-26T15:41:05.026Z</time></trkpt><trkpt lat="46.57906" lon="12.5728217"><ele>1287.0</ele><time>2026-04-26T15:41:06.028Z</time></trkpt><trkpt lat="46.57901" lon="12.5727583"><ele>1287.0</ele><time>2026-04-26T15:41:07.028Z</time></trkpt><trkpt lat="46.57896" lon="12.5726867"><ele>1287.0</ele><time>2026-04-26T15:41:08.026Z</time></trkpt><trkpt lat="46.5789133" lon="12.5726033"><ele>1287.0</ele><time>2026-04-26T15:41:09.025Z</time></trkpt><trkpt lat="46.578865" lon="12.57252"><ele>1286.2857142857142</ele><time>2026-04-26T15:41:10.029Z</time></trkpt><trkpt lat="46.5788217" lon="12.5724417"><ele>1285.5714285714287</ele><time>2026-04-26T15:41:11.029Z</time></trkpt><trkpt lat="46.5787817" lon="12.572365"><ele>1284.857142857143</ele><time>2026-04-26T15:41:12.029Z</time></trkpt><trkpt lat="46.5787317" lon="12.5723"><ele>1284.142857142857</ele><time>2026-04-26T15:41:13.028Z</time></trkpt><trkpt lat="46.5786767" lon="12.572245"><ele>1283.4285714285713</ele><time>2026-04-26T15:41:14.029Z</time></trkpt><trkpt lat="46.5786183" lon="12.572205"><ele>1282.7142857142858</ele><time>2026-04-26T15:41:15.032Z</time></trkpt><trkpt lat="46.57851" lon="12.57219"><ele>1282.0</ele><time>2026-04-26T15:41:17.026Z</time></trkpt><trkpt lat="46.5784517" lon="12.57227"><ele>1282.0</ele><time>2026-04-26T15:41:19.026Z</time></trkpt><trkpt lat="46.5784767" lon="12.5724083"><ele>1282.0</ele><time>2026-04-26T15:41:21.025Z</time></trkpt><trkpt lat="46.5785133" lon="12.5724933"><ele>1282.0</ele><time>2026-04-26T15:41:22.025Z</time></trkpt><trkpt lat="46.57856" lon="12.5725883"><ele>1282.0</ele><time>2026-04-26T15:41:23.027Z</time></trkpt><trkpt lat="46.578615" lon="12.57268"><ele>1282.0</ele><time>2026-04-26T15:41:24.029Z</time></trkpt><trkpt lat="46.578675" lon="12.5727767"><ele>1282.0</ele><time>2026-04-26T15:41:25.026Z</time></trkpt><trkpt lat="46.5787283" lon="12.5728667"><ele>1283.0</ele><time>2026-04-26T15:41:26.026Z</time></trkpt><trkpt lat="46.5787717" lon="12.5729467"><ele>1284.0</ele><time>2026-04-26T15:41:27.025Z</time></trkpt><trkpt lat="46.5788183" lon="12.5730767"><ele>1285.0</ele><time>2026-04-26T15:41:29.025Z</time></trkpt><trkpt lat="46.5787817" lon="12.5731567"><ele>1286.0</ele><time>2026-04-26T15:41:32.027Z</time></trkpt><trkpt lat="46.578705" lon="12.573075"><ele>1287.0</ele><time>2026-04-26T15:41:35.029Z</time></trkpt><trkpt lat="46.5786117" lon="12.5729583"><ele>1283.0</ele><time>2026-04-26T15:41:37.026Z</time></trkpt><trkpt lat="46.5785567" lon="12.5729033"><ele>1279.0</ele><time>2026-04-26T15:41:38.026Z</time></trkpt><trkpt lat="46.5784317" lon="12.57287"><ele>1275.0</ele><time>2026-04-26T15:41:40.026Z</time></trkpt><trkpt lat="46.5783733" lon="12.5729133"><ele>1271.0</ele><time>2026-04-26T15:41:41.027Z</time></trkpt><trkpt lat="46.578335" lon="12.5730233"><ele>1267.0</ele><time>2026-04-26T15:41:43.026Z</time></trkpt><trkpt lat="46.5783783" lon="12.573165"><ele>1267.0</ele><time>2026-04-26T15:41:45.025Z</time></trkpt><trkpt lat="46.5784233" lon="12.5732917"><ele>1267.0</ele><time>2026-04-26T15:41:47.026Z</time></trkpt><trkpt lat="46.5785" lon="12.5734317"><ele>1267.0</ele><time>2026-04-26T15:41:49.027Z</time></trkpt><trkpt lat="46.5785433" lon="12.57351"><ele>1267.0</ele><time>2026-04-26T15:41:50.026Z</time></trkpt><trkpt lat="46.578595" lon="12.573575"><ele>1267.0</ele><time>2026-04-26T15:41:51.025Z</time></trkpt><trkpt lat="46.578645" lon="12.57364"><ele>1267.0</ele><time>2026-04-26T15:41:52.026Z</time></trkpt><trkpt lat="46.5787017" lon="12.57371"><ele>1268.1666666666665</ele><time>2026-04-26T15:41:53.026Z</time></trkpt><trkpt lat="46.5787617" lon="12.5737783"><ele>1269.3333333333333</ele><time>2026-04-26T15:41:54.025Z</time></trkpt><trkpt lat="46.5788267" lon="12.5738467"><ele>1270.5</ele><time>2026-04-26T15:41:55.026Z</time></trkpt><trkpt lat="46.5788833" lon="12.5739233"><ele>1271.6666666666667</ele><time>2026-04-26T15:41:56.026Z</time></trkpt><trkpt lat="46.5789233" lon="12.5740183"><ele>1272.8333333333335</ele><time>2026-04-26T15:41:57.026Z</time></trkpt><trkpt lat="46.5789533" lon="12.57412"><ele>1274.0</ele><time>2026-04-26T15:41:58.027Z</time></trkpt><trkpt lat="46.5789767" lon="12.5742333"><ele>1274.0</ele><time>2026-04-26T15:41:59.028Z</time></trkpt><trkpt lat="46.579005" lon="12.57434"><ele>1274.0</ele><time>2026-04-26T15:42:00.025Z</time></trkpt><trkpt lat="46.5790317" lon="12.5744533"><ele>1274.0</ele><time>2026-04-26T15:42:01.026Z</time></trkpt><trkpt lat="46.5790667" lon="12.5745683"><ele>1274.0</ele><time>2026-04-26T15:42:02.027Z</time></trkpt><trkpt lat="46.5791133" lon="12.5746717"><ele>1274.0</ele><time>2026-04-26T15:42:03.025Z</time></trkpt><trkpt lat="46.57916" lon="12.57477"><ele>1274.0</ele><time>2026-04-26T15:42:04.026Z</time></trkpt><trkpt lat="46.5792133" lon="12.5748633"><ele>1273.142857142857</ele><time>2026-04-26T15:42:05.028Z</time></trkpt><trkpt lat="46.5792633" lon="12.5749467"><ele>1272.2857142857142</ele><time>2026-04-26T15:42:06.026Z</time></trkpt><trkpt lat="46.5793083" lon="12.5750317"><ele>1271.4285714285716</ele><time>2026-04-26T15:42:07.026Z</time></trkpt><trkpt lat="46.5793567" lon="12.575105"><ele>1270.5714285714284</ele><time>2026-04-26T15:42:08.028Z</time></trkpt><trkpt lat="46.5794117" lon="12.5751817"><ele>1269.7142857142858</ele><time>2026-04-26T15:42:09.025Z</time></trkpt><trkpt lat="46.579465" lon="12.5752583"><ele>1268.857142857143</ele><time>2026-04-26T15:42:10.026Z</time></trkpt><trkpt lat="46.579525" lon="12.5753317"><ele>1268.0</ele><time>2026-04-26T15:42:11.027Z</time></trkpt><trkpt lat="46.5795783" lon="12.5754083"><ele>1268.0</ele><time>2026-04-26T15:42:12.025Z</time></trkpt><trkpt lat="46.579635" lon="12.5754867"><ele>1268.0</ele><time>2026-04-26T15:42:13.029Z</time></trkpt><trkpt lat="46.5796617" lon="12.57559"><ele>1268.0</ele><time>2026-04-26T15:42:14.027Z</time></trkpt><trkpt lat="46.5796917" lon="12.5757033"><ele>1268.0</ele><time>2026-04-26T15:42:15.025Z</time></trkpt><trkpt lat="46.579715" lon="12.5758183"><ele>1268.0</ele><time>2026-04-26T15:42:16.026Z</time></trkpt><trkpt lat="46.5797383" lon="12.5759317"><ele>1268.0</ele><time>2026-04-26T15:42:17.026Z</time></trkpt><trkpt lat="46.579765" lon="12.5760483"><ele>1268.0</ele><time>2026-04-26T15:42:18.025Z</time></trkpt><trkpt lat="46.5797867" lon="12.5761683"><ele>1268.0</ele><time>2026-04-26T15:42:19.026Z</time></trkpt><trkpt lat="46.579805" lon="12.5762933"><ele>1268.0</ele><time>2026-04-26T15:42:20.026Z</time></trkpt><trkpt lat="46.5798283" lon="12.576415"><ele>1268.0</ele><time>2026-04-26T15:42:21.026Z</time></trkpt><trkpt lat="46.5798517" lon="12.5765417"><ele>1268.0</ele><time>2026-04-26T15:42:22.026Z</time></trkpt><trkpt lat="46.579885" lon="12.5766733"><ele>1268.0</ele><time>2026-04-26T15:42:23.026Z</time></trkpt><trkpt lat="46.5799233" lon="12.5768183"><ele>1265.0</ele><time>2026-04-26T15:42:24.026Z</time></trkpt><trkpt lat="46.579955" lon="12.57697"><ele>1262.0</ele><time>2026-04-26T15:42:25.026Z</time></trkpt><trkpt lat="46.5799717" lon="12.577125"><ele>1259.0</ele><time>2026-04-26T15:42:26.027Z</time></trkpt><trkpt lat="46.5799767" lon="12.5772767"><ele>1256.0</ele><time>2026-04-26T15:42:27.026Z</time></trkpt><trkpt lat="46.5799683" lon="12.5774283"><ele>1253.0</ele><time>2026-04-26T15:42:28.026Z</time></trkpt><trkpt lat="46.5799683" lon="12.5775867"><ele>1250.2</ele><time>2026-04-26T15:42:29.026Z</time></trkpt><trkpt lat="46.5799633" lon="12.577735"><ele>1247.4</ele><time>2026-04-26T15:42:30.026Z</time></trkpt><trkpt lat="46.5799567" lon="12.577875"><ele>1244.6000000000001</ele><time>2026-04-26T15:42:31.026Z</time></trkpt><trkpt lat="46.5799533" lon="12.5780067"><ele>1241.8</ele><time>2026-04-26T15:42:32.029Z</time></trkpt><trkpt lat="46.57996" lon="12.57814"><ele>1239.0</ele><time>2026-04-26T15:42:33.028Z</time></trkpt><trkpt lat="46.5799833" lon="12.578265"><ele>1237.5</ele><time>2026-04-26T15:42:34.026Z</time></trkpt><trkpt lat="46.58002" lon="12.5783817"><ele>1236.0</ele><time>2026-04-26T15:42:35.026Z</time></trkpt><trkpt lat="46.58007" lon="12.578495"><ele>1234.5</ele><time>2026-04-26T15:42:36.026Z</time></trkpt><trkpt lat="46.5801217" lon="12.5785983"><ele>1233.0</ele><time>2026-04-26T15:42:37.026Z</time></trkpt><trkpt lat="46.5801817" lon="12.5786933"><ele>1231.5</ele><time>2026-04-26T15:42:38.026Z</time></trkpt><trkpt lat="46.5802483" lon="12.5787667"><ele>1230.0</ele><time>2026-04-26T15:42:39.025Z</time></trkpt><trkpt lat="46.5803233" lon="12.578825"><ele>1231.1666666666667</ele><time>2026-04-26T15:42:40.026Z</time></trkpt><trkpt lat="46.5804083" lon="12.57887"><ele>1232.3333333333333</ele><time>2026-04-26T15:42:41.026Z</time></trkpt><trkpt lat="46.5804883" lon="12.5789267"><ele>1233.5</ele><time>2026-04-26T15:42:42.026Z</time></trkpt><trkpt lat="46.5805633" lon="12.5789967"><ele>1234.6666666666665</ele><time>2026-04-26T15:42:43.026Z</time></trkpt><trkpt lat="46.5806283" lon="12.5790717"><ele>1235.8333333333333</ele><time>2026-04-26T15:42:44.026Z</time></trkpt><trkpt lat="46.5806917" lon="12.57914"><ele>1237.0</ele><time>2026-04-26T15:42:45.025Z</time></trkpt><trkpt lat="46.5807367" lon="12.5792067"><ele>1237.0</ele><time>2026-04-26T15:42:46.026Z</time></trkpt><trkpt lat="46.5807733" lon="12.5793367"><ele>1237.0</ele><time>2026-04-26T15:42:48.025Z</time></trkpt><trkpt lat="46.5807" lon="12.579365"><ele>1237.0</ele><time>2026-04-26T15:42:50.029Z</time></trkpt><trkpt lat="46.580635" lon="12.5792817"><ele>1237.0</ele><time>2026-04-26T15:42:51.029Z</time></trkpt><trkpt lat="46.58057" lon="12.5791983"><ele>1237.0</ele><time>2026-04-26T15:42:52.027Z</time></trkpt><trkpt lat="46.5804883" lon="12.57913"><ele>1237.0</ele><time>2026-04-26T15:42:53.029Z</time></trkpt><trkpt lat="46.5804067" lon="12.57908"><ele>1233.0</ele><time>2026-04-26T15:42:54.029Z</time></trkpt><trkpt lat="46.5803333" lon="12.57905"><ele>1229.0</ele><time>2026-04-26T15:42:55.028Z</time></trkpt><trkpt lat="46.580255" lon="12.5790283"><ele>1225.0</ele><time>2026-04-26T15:42:56.03Z</time></trkpt><trkpt lat="46.5801717" lon="12.579"><ele>1221.0</ele><time>2026-04-26T15:42:57.028Z</time></trkpt><trkpt lat="46.58009" lon="12.57897"><ele>1217.0</ele><time>2026-04-26T15:42:58.028Z</time></trkpt><trkpt lat="46.5799983" lon="12.578935"><ele>1213.0</ele><time>2026-04-26T15:42:59.028Z</time></trkpt><trkpt lat="46.5799183" lon="12.578875"><ele>1213.0</ele><time>2026-04-26T15:43:00.028Z</time></trkpt><trkpt lat="46.5798467" lon="12.5788"><ele>1213.0</ele><time>2026-04-26T15:43:01.028Z</time></trkpt><trkpt lat="46.57978" lon="12.5787117"><ele>1213.0</ele><time>2026-04-26T15:43:02.029Z</time></trkpt><trkpt lat="46.5797133" lon="12.5786167"><ele>1213.0</ele><time>2026-04-26T15:43:03.029Z</time></trkpt><trkpt lat="46.5796517" lon="12.5785217"><ele>1213.0</ele><time>2026-04-26T15:43:04.029Z</time></trkpt><trkpt lat="46.579595" lon="12.5784183"><ele>1215.8333333333333</ele><time>2026-04-26T15:43:05.026Z</time></trkpt><trkpt lat="46.5795617" lon="12.57831"><ele>1218.6666666666665</ele><time>2026-04-26T15:43:06.029Z</time></trkpt><trkpt lat="46.579555" lon="12.5781883"><ele>1221.5</ele><time>2026-04-26T15:43:07.029Z</time></trkpt><trkpt lat="46.579565" lon="12.5780683"><ele>1224.3333333333333</ele><time>2026-04-26T15:43:08.026Z</time></trkpt><trkpt lat="46.5795833" lon="12.5779533"><ele>1227.1666666666667</ele><time>2026-04-26T15:43:09.025Z</time></trkpt><trkpt lat="46.5796017" lon="12.5778517"><ele>1230.0</ele><time>2026-04-26T15:43:10.029Z</time></trkpt><trkpt lat="46.5796117" lon="12.5776917"><ele>1231.5</ele><time>2026-04-26T15:43:12.029Z</time></trkpt><trkpt lat="46.5795383" lon="12.5776733"><ele>1233.0</ele><time>2026-04-26T15:43:15.025Z</time></trkpt><trkpt lat="46.57949" lon="12.5777667"><ele>1234.5</ele><time>2026-04-26T15:43:17.026Z</time></trkpt><trkpt lat="46.5794883" lon="12.577875"><ele>1236.0</ele><time>2026-04-26T15:43:19.026Z</time></trkpt><trkpt lat="46.579485" lon="12.5779867"><ele>1237.5</ele><time>2026-04-26T15:43:21.025Z</time></trkpt><trkpt lat="46.579475" lon="12.5781083"><ele>1239.0</ele><time>2026-04-26T15:43:23.026Z</time></trkpt><trkpt lat="46.5794367" lon="12.5782417"><ele>1229.6000000000001</ele><time>2026-04-26T15:43:25.026Z</time></trkpt><trkpt lat="46.5794083" lon="12.5783917"><ele>1220.2</ele><time>2026-04-26T15:43:27.026Z</time></trkpt><trkpt lat="46.5794167" lon="12.5785583"><ele>1210.8000000000002</ele><time>2026-04-26T15:43:29.027Z</time></trkpt><trkpt lat="46.5794567" lon="12.5787283"><ele>1201.4</ele><time>2026-04-26T15:43:31.026Z</time></trkpt><trkpt lat="46.5794833" lon="12.5788133"><ele>1192.0</ele><time>2026-04-26T15:43:32.027Z</time></trkpt><trkpt lat="46.5795117" lon="12.578905"><ele>1195.5</ele><time>2026-04-26T15:43:33.026Z</time></trkpt><trkpt lat="46.5795333" lon="12.5790033"><ele>1199.0</ele><time>2026-04-26T15:43:34.026Z</time></trkpt><trkpt lat="46.5795567" lon="12.5791"><ele>1202.5</ele><time>2026-04-26T15:43:35.027Z</time></trkpt><trkpt lat="46.5795867" lon="12.5791883"><ele>1206.0</ele><time>2026-04-26T15:43:36.026Z</time></trkpt><trkpt lat="46.579625" lon="12.5792683"><ele>1209.5</ele><time>2026-04-26T15:43:37.026Z</time></trkpt><trkpt lat="46.579685" lon="12.5794067"><ele>1213.0</ele><time>2026-04-26T15:43:39.026Z</time></trkpt><trkpt lat="46.5796433" lon="12.5795033"><ele>1213.0</ele><time>2026-04-26T15:43:41.026Z</time></trkpt><trkpt lat="46.5795317" lon="12.579435"><ele>1213.0</ele><time>2026-04-26T15:43:43.026Z</time></trkpt><trkpt lat="46.5795033" lon="12.57933"><ele>1213.0</ele><time>2026-04-26T15:43:44.029Z</time></trkpt><trkpt lat="46.5794617" lon="12.57916"><ele>1213.0</ele><time>2026-04-26T15:43:46.029Z</time></trkpt><trkpt lat="46.5794017" lon="12.579"><ele>1213.0</ele><time>2026-04-26T15:43:48.027Z</time></trkpt><trkpt lat="46.57933" lon="12.5788533"><ele>1209.5</ele><time>2026-04-26T15:43:50.026Z</time></trkpt><trkpt lat="46.5792667" lon="12.5786917"><ele>1206.0</ele><time>2026-04-26T15:43:52.027Z</time></trkpt><trkpt lat="46.579245" lon="12.5786"><ele>1202.5</ele><time>2026-04-26T15:43:53.027Z</time></trkpt><trkpt lat="46.5792217" lon="12.5785017"><ele>1199.0</ele><time>2026-04-26T15:43:54.029Z</time></trkpt><trkpt lat="46.5792117" lon="12.5784017"><ele>1195.5</ele><time>2026-04-26T15:43:55.029Z</time></trkpt><trkpt lat="46.5792067" lon="12.5782917"><ele>1192.0</ele><time>2026-04-26T15:43:56.029Z</time></trkpt><trkpt lat="46.5792017" lon="12.5781817"><ele>1192.0</ele><time>2026-04-26T15:43:57.029Z</time></trkpt><trkpt lat="46.5791967" lon="12.5780717"><ele>1192.0</ele><time>2026-04-26T15:43:58.029Z</time></trkpt><trkpt lat="46.579185" lon="12.577965"><ele>1192.0</ele><time>2026-04-26T15:43:59.029Z</time></trkpt><trkpt lat="46.5791783" lon="12.57787"><ele>1192.0</ele><time>2026-04-26T15:44:00.028Z</time></trkpt><trkpt lat="46.5791367" lon="12.5777167"><ele>1192.0</ele><time>2026-04-26T15:44:02.028Z</time></trkpt><trkpt lat="46.5790533" lon="12.57764"><ele>1192.0</ele><time>2026-04-26T15:44:04.026Z</time></trkpt><trkpt lat="46.5789717" lon="12.5776617"><ele>1192.0</ele><time>2026-04-26T15:44:06.029Z</time></trkpt><trkpt lat="46.57896" lon="12.5777617"><ele>1192.0</ele><time>2026-04-26T15:44:07.029Z</time></trkpt><trkpt lat="46.5789833" lon="12.57787"><ele>1192.0</ele><time>2026-04-26T15:44:08.029Z</time></trkpt><trkpt lat="46.5789967" lon="12.57799"><ele>1192.0</ele><time>2026-04-26T15:44:09.025Z</time></trkpt><trkpt lat="46.579005" lon="12.5781133"><ele>1192.0</ele><time>2026-04-26T15:44:10.026Z</time></trkpt><trkpt lat="46.579005" lon="12.578235"><ele>1192.0</ele><time>2026-04-26T15:44:11.026Z</time></trkpt><trkpt lat="46.5790033" lon="12.578345"><ele>1192.0</ele><time>2026-04-26T15:44:12.026Z</time></trkpt><trkpt lat="46.5790033" lon="12.5784567"><ele>1192.0</ele><time>2026-04-26T15:44:13.026Z</time></trkpt><trkpt lat="46.5790033" lon="12.5785733"><ele>1192.0</ele><time>2026-04-26T15:44:14.026Z</time></trkpt><trkpt lat="46.5790083" lon="12.5786967"><ele>1192.0</ele><time>2026-04-26T15:44:15.026Z</time></trkpt><trkpt lat="46.5790117" lon="12.5788233"><ele>1192.0</ele><time>2026-04-26T15:44:16.026Z</time></trkpt><trkpt lat="46.579015" lon="12.57895"><ele>1192.0</ele><time>2026-04-26T15:44:17.027Z</time></trkpt><trkpt lat="46.5790183" lon="12.579085"><ele>1190.2</ele><time>2026-04-26T15:44:18.026Z</time></trkpt><trkpt lat="46.579015" lon="12.57922"><ele>1188.4</ele><time>2026-04-26T15:44:19.029Z</time></trkpt><trkpt lat="46.57901" lon="12.579355"><ele>1186.6</ele><time>2026-04-26T15:44:20.029Z</time></trkpt><trkpt lat="46.5790183" lon="12.5794883"><ele>1184.8</ele><time>2026-04-26T15:44:21.025Z</time></trkpt><trkpt lat="46.5790467" lon="12.5796217"><ele>1183.0</ele><time>2026-04-26T15:44:22.029Z</time></trkpt><trkpt lat="46.5790933" lon="12.5797517"><ele>1182.4</ele><time>2026-04-26T15:44:23.029Z</time></trkpt><trkpt lat="46.57916" lon="12.5798617"><ele>1181.8</ele><time>2026-04-26T15:44:24.025Z</time></trkpt><trkpt lat="46.5792367" lon="12.57995"><ele>1181.2</ele><time>2026-04-26T15:44:25.027Z</time></trkpt><trkpt lat="46.5793283" lon="12.580015"><ele>1180.6</ele><time>2026-04-26T15:44:26.029Z</time></trkpt><trkpt lat="46.5794283" lon="12.580055"><ele>1180.0</ele><time>2026-04-26T15:44:27.026Z</time></trkpt><trkpt lat="46.5795333" lon="12.5800833"><ele>1180.0</ele><time>2026-04-26T15:44:28.025Z</time></trkpt><trkpt lat="46.5796417" lon="12.5801183"><ele>1180.0</ele><time>2026-04-26T15:44:29.028Z</time></trkpt><trkpt lat="46.5797417" lon="12.5801733"><ele>1180.0</ele><time>2026-04-26T15:44:30.026Z</time></trkpt><trkpt lat="46.5798283" lon="12.58025"><ele>1180.0</ele><time>2026-04-26T15:44:31.029Z</time></trkpt><trkpt lat="46.5799083" lon="12.5803483"><ele>1180.0</ele><time>2026-04-26T15:44:32.029Z</time></trkpt><trkpt lat="46.57998" lon="12.5804617"><ele>1178.8</ele><time>2026-04-26T15:44:33.026Z</time></trkpt><trkpt lat="46.5800417" lon="12.5805667"><ele>1177.6</ele><time>2026-04-26T15:44:34.026Z</time></trkpt><trkpt lat="46.58011" lon="12.5806567"><ele>1176.4</ele><time>2026-04-26T15:44:35.03Z</time></trkpt><trkpt lat="46.5801917" lon="12.5807217"><ele>1175.2</ele><time>2026-04-26T15:44:36.026Z</time></trkpt><trkpt lat="46.5802883" lon="12.5807533"><ele>1174.0</ele><time>2026-04-26T15:44:37.026Z</time></trkpt><trkpt lat="46.580395" lon="12.5807617"><ele>1174.0</ele><time>2026-04-26T15:44:38.026Z</time></trkpt><trkpt lat="46.5805017" lon="12.5807717"><ele>1174.0</ele><time>2026-04-26T15:44:39.026Z</time></trkpt><trkpt lat="46.5806117" lon="12.580805"><ele>1174.0</ele><time>2026-04-26T15:44:40.029Z</time></trkpt><trkpt lat="46.58072" lon="12.5808667"><ele>1174.0</ele><time>2026-04-26T15:44:41.026Z</time></trkpt><trkpt lat="46.5808167" lon="12.580965"><ele>1174.0</ele><time>2026-04-26T15:44:42.026Z</time></trkpt><trkpt lat="46.5808933" lon="12.5810817"><ele>1174.0</ele><time>2026-04-26T15:44:43.026Z</time></trkpt><trkpt lat="46.5809583" lon="12.581215"><ele>1174.0</ele><time>2026-04-26T15:44:44.028Z</time></trkpt><trkpt lat="46.5810233" lon="12.58135"><ele>1174.0</ele><time>2026-04-26T15:44:45.025Z</time></trkpt><trkpt lat="46.5810783" lon="12.581495"><ele>1175.8</ele><time>2026-04-26T15:44:46.025Z</time></trkpt><trkpt lat="46.58112" lon="12.5816417"><ele>1177.6000000000001</ele><time>2026-04-26T15:44:47.026Z</time></trkpt><trkpt lat="46.5811517" lon="12.581785"><ele>1179.4</ele><time>2026-04-26T15:44:48.025Z</time></trkpt><trkpt lat="46.5811917" lon="12.58191"><ele>1181.2</ele><time>2026-04-26T15:44:49.027Z</time></trkpt><trkpt lat="46.5812433" lon="12.5820133"><ele>1183.0</ele><time>2026-04-26T15:44:50.026Z</time></trkpt><trkpt lat="46.5813033" lon="12.58208"><ele>1183.0</ele><time>2026-04-26T15:44:51.025Z</time></trkpt><trkpt lat="46.58136" lon="12.5821267"><ele>1183.0</ele><time>2026-04-26T15:44:52.025Z</time></trkpt><trkpt lat="46.5814533" lon="12.582205"><ele>1183.0</ele><time>2026-04-26T15:44:54.026Z</time></trkpt><trkpt lat="46.5813167" lon="12.5821083"><ele>1183.0</ele><time>2026-04-26T15:44:59.026Z</time></trkpt><trkpt lat="46.5812633" lon="12.5820233"><ele>1183.0</ele><time>2026-04-26T15:45:00.025Z</time></trkpt><trkpt lat="46.5812067" lon="12.581955"><ele>1176.0</ele><time>2026-04-26T15:45:01.025Z</time></trkpt><trkpt lat="46.5811417" lon="12.5818767"><ele>1169.0</ele><time>2026-04-26T15:45:02.025Z</time></trkpt><trkpt lat="46.5810683" lon="12.5817983"><ele>1162.0</ele><time>2026-04-26T15:45:03.024Z</time></trkpt><trkpt lat="46.5809983" lon="12.581715"><ele>1155.0</ele><time>2026-04-26T15:45:04.025Z</time></trkpt><trkpt lat="46.5809267" lon="12.5816283"><ele>1148.0</ele><time>2026-04-26T15:45:05.027Z</time></trkpt><trkpt lat="46.580845" lon="12.5815383"><ele>1148.0</ele><time>2026-04-26T15:45:06.025Z</time></trkpt><trkpt lat="46.5807617" lon="12.5814533"><ele>1148.0</ele><time>2026-04-26T15:45:07.025Z</time></trkpt><trkpt lat="46.5806683" lon="12.5813817"><ele>1148.0</ele><time>2026-04-26T15:45:08.025Z</time></trkpt><trkpt lat="46.5805667" lon="12.5813317"><ele>1148.0</ele><time>2026-04-26T15:45:09.025Z</time></trkpt><trkpt lat="46.5804567" lon="12.581315"><ele>1148.0</ele><time>2026-04-26T15:45:10.026Z</time></trkpt><trkpt lat="46.58034" lon="12.5813383"><ele>1143.25</ele><time>2026-04-26T15:45:11.025Z</time></trkpt><trkpt lat="46.5802283" lon="12.581385"><ele>1138.5</ele><time>2026-04-26T15:45:12.025Z</time></trkpt><trkpt lat="46.5801067" lon="12.5814433"><ele>1133.75</ele><time>2026-04-26T15:45:13.025Z</time></trkpt><trkpt lat="46.5799783" lon="12.5815033"><ele>1129.0</ele><time>2026-04-26T15:45:14.025Z</time></trkpt><trkpt lat="46.579845" lon="12.5815567"><ele>1129.0</ele><time>2026-04-26T15:45:15.025Z</time></trkpt><trkpt lat="46.5797117" lon="12.58159"><ele>1129.0</ele><time>2026-04-26T15:45:16.025Z</time></trkpt><trkpt lat="46.5795783" lon="12.5816117"><ele>1129.0</ele><time>2026-04-26T15:45:17.026Z</time></trkpt><trkpt lat="46.57944" lon="12.5816217"><ele>1129.0</ele><time>2026-04-26T15:45:18.028Z</time></trkpt><trkpt lat="46.5793017" lon="12.5816133"><ele>1126.5</ele><time>2026-04-26T15:45:19.025Z</time></trkpt><trkpt lat="46.5791617" lon="12.5815933"><ele>1124.0</ele><time>2026-04-26T15:45:20.027Z</time></trkpt><trkpt lat="46.579025" lon="12.5815617"><ele>1121.5</ele><time>2026-04-26T15:45:21.024Z</time></trkpt><trkpt lat="46.5789" lon="12.5815167"><ele>1119.0</ele><time>2026-04-26T15:45:22.026Z</time></trkpt><trkpt lat="46.5787783" lon="12.5814533"><ele>1118.0</ele><time>2026-04-26T15:45:23.026Z</time></trkpt><trkpt lat="46.5786617" lon="12.581375"><ele>1117.0</ele><time>2026-04-26T15:45:24.03Z</time></trkpt><trkpt lat="46.5785467" lon="12.58128"><ele>1116.0</ele><time>2026-04-26T15:45:25.025Z</time></trkpt><trkpt lat="46.5784433" lon="12.58117"><ele>1115.0</ele><time>2026-04-26T15:45:26.029Z</time></trkpt><trkpt lat="46.57835" lon="12.5810483"><ele>1113.25</ele><time>2026-04-26T15:45:27.024Z</time></trkpt><trkpt lat="46.5782583" lon="12.5809367"><ele>1111.5</ele><time>2026-04-26T15:45:28.027Z</time></trkpt><trkpt lat="46.5781567" lon="12.5808333"><ele>1109.75</ele><time>2026-04-26T15:45:29.025Z</time></trkpt><trkpt lat="46.578055" lon="12.58074"><ele>1108.0</ele><time>2026-04-26T15:45:30.028Z</time></trkpt><trkpt lat="46.5779533" lon="12.5806567"><ele>1104.0</ele><time>2026-04-26T15:45:31.024Z</time></trkpt><trkpt lat="46.57785" lon="12.580575"><ele>1100.0</ele><time>2026-04-26T15:45:32.026Z</time></trkpt><trkpt lat="46.577745" lon="12.5805017"><ele>1096.0</ele><time>2026-04-26T15:45:33.025Z</time></trkpt><trkpt lat="46.5776367" lon="12.5804433"><ele>1092.0</ele><time>2026-04-26T15:45:34.025Z</time></trkpt><trkpt lat="46.5775233" lon="12.5803833"><ele>1093.0</ele><time>2026-04-26T15:45:35.025Z</time></trkpt><trkpt lat="46.5774133" lon="12.5803233"><ele>1094.0</ele><time>2026-04-26T15:45:36.025Z</time></trkpt><trkpt lat="46.5773067" lon="12.5802617"><ele>1095.0</ele><time>2026-04-26T15:45:37.025Z</time></trkpt><trkpt lat="46.5772" lon="12.5802033"><ele>1096.0</ele><time>2026-04-26T15:45:38.025Z</time></trkpt><trkpt lat="46.5770917" lon="12.5801567"><ele>1094.8</ele><time>2026-04-26T15:45:39.025Z</time></trkpt><trkpt lat="46.576985" lon="12.5801267"><ele>1093.6</ele><time>2026-04-26T15:45:40.025Z</time></trkpt><trkpt lat="46.576875" lon="12.58012"><ele>1092.4</ele><time>2026-04-26T15:45:41.025Z</time></trkpt><trkpt lat="46.5767633" lon="12.58015"><ele>1091.2</ele><time>2026-04-26T15:45:42.025Z</time></trkpt><trkpt lat="46.5766533" lon="12.5801983"><ele>1090.0</ele><time>2026-04-26T15:45:43.025Z</time></trkpt><trkpt lat="46.5765433" lon="12.5802567"><ele>1090.0</ele><time>2026-04-26T15:45:44.025Z</time></trkpt><trkpt lat="46.5764367" lon="12.5803217"><ele>1090.0</ele><time>2026-04-26T15:45:45.025Z</time></trkpt><trkpt lat="46.57633" lon="12.5803917"><ele>1090.0</ele><time>2026-04-26T15:45:46.026Z</time></trkpt><trkpt lat="46.5762217" lon="12.5804567"><ele>1090.0</ele><time>2026-04-26T15:45:47.028Z</time></trkpt><trkpt lat="46.5761117" lon="12.5805117"><ele>1084.5</ele><time>2026-04-26T15:45:48.025Z</time></trkpt><trkpt lat="46.576" lon="12.5805533"><ele>1079.0</ele><time>2026-04-26T15:45:49.026Z</time></trkpt><trkpt lat="46.5758817" lon="12.580585"><ele>1073.5</ele><time>2026-04-26T15:45:50.026Z</time></trkpt><trkpt lat="46.57576" lon="12.5806033"><ele>1068.0</ele><time>2026-04-26T15:45:51.026Z</time></trkpt><trkpt lat="46.5756367" lon="12.5806067"><ele>1068.0</ele><time>2026-04-26T15:45:52.029Z</time></trkpt><trkpt lat="46.5755083" lon="12.58061"><ele>1068.0</ele><time>2026-04-26T15:45:53.026Z</time></trkpt><trkpt lat="46.5753783" lon="12.5806067"><ele>1068.0</ele><time>2026-04-26T15:45:54.025Z</time></trkpt><trkpt lat="46.5752467" lon="12.5806"><ele>1068.0</ele><time>2026-04-26T15:45:55.026Z</time></trkpt><trkpt lat="46.5751133" lon="12.5805983"><ele>1067.0</ele><time>2026-04-26T15:45:56.027Z</time></trkpt><trkpt lat="46.5749817" lon="12.5806083"><ele>1066.0</ele><time>2026-04-26T15:45:57.029Z</time></trkpt><trkpt lat="46.574845" lon="12.5806367"><ele>1065.0</ele><time>2026-04-26T15:45:58.025Z</time></trkpt><trkpt lat="46.5747117" lon="12.5807017"><ele>1064.0</ele><time>2026-04-26T15:45:59.025Z</time></trkpt><trkpt lat="46.5745933" lon="12.58078"><ele>1065.75</ele><time>2026-04-26T15:46:00.028Z</time></trkpt><trkpt lat="46.5744917" lon="12.5808683"><ele>1067.5</ele><time>2026-04-26T15:46:01.025Z</time></trkpt><trkpt lat="46.5744017" lon="12.5809733"><ele>1069.25</ele><time>2026-04-26T15:46:02.026Z</time></trkpt><trkpt lat="46.5743267" lon="12.5811"><ele>1071.0</ele><time>2026-04-26T15:46:03.026Z</time></trkpt><trkpt lat="46.5742733" lon="12.58123"><ele>1067.0</ele><time>2026-04-26T15:46:04.026Z</time></trkpt><trkpt lat="46.5742217" lon="12.5813533"><ele>1063.0</ele><time>2026-04-26T15:46:05.026Z</time></trkpt><trkpt lat="46.5741583" lon="12.5814683"><ele>1059.0</ele><time>2026-04-26T15:46:06.029Z</time></trkpt><trkpt lat="46.5740867" lon="12.581575"><ele>1055.0</ele><time>2026-04-26T15:46:07.026Z</time></trkpt><trkpt lat="46.574005" lon="12.5816767"><ele>1051.0</ele><time>2026-04-26T15:46:08.026Z</time></trkpt><trkpt lat="46.5739167" lon="12.5817733"><ele>1051.0</ele><time>2026-04-26T15:46:09.025Z</time></trkpt><trkpt lat="46.5738233" lon="12.5818733"><ele>1051.0</ele><time>2026-04-26T15:46:10.025Z</time></trkpt><trkpt lat="46.57373" lon="12.58198"><ele>1051.0</ele><time>2026-04-26T15:46:11.026Z</time></trkpt><trkpt lat="46.5736317" lon="12.5820867"><ele>1051.0</ele><time>2026-04-26T15:46:12.025Z</time></trkpt><trkpt lat="46.5735267" lon="12.5821867"><ele>1047.75</ele><time>2026-04-26T15:46:13.026Z</time></trkpt><trkpt lat="46.573415" lon="12.5822733"><ele>1044.5</ele><time>2026-04-26T15:46:14.027Z</time></trkpt><trkpt lat="46.5733067" lon="12.5823517"><ele>1041.25</ele><time>2026-04-26T15:46:15.026Z</time></trkpt><trkpt lat="46.57319" lon="12.582435"><ele>1038.0</ele><time>2026-04-26T15:46:16.025Z</time></trkpt><trkpt lat="46.57308" lon="12.58251"><ele>1038.0</ele><time>2026-04-26T15:46:17.029Z</time></trkpt><trkpt lat="46.5729683" lon="12.5825933"><ele>1038.0</ele><time>2026-04-26T15:46:18.025Z</time></trkpt><trkpt lat="46.5728583" lon="12.5826633"><ele>1038.0</ele><time>2026-04-26T15:46:19.026Z</time></trkpt><trkpt lat="46.5727367" lon="12.5827183"><ele>1038.0</ele><time>2026-04-26T15:46:20.026Z</time></trkpt><trkpt lat="46.5726217" lon="12.582755"><ele>1039.0</ele><time>2026-04-26T15:46:21.026Z</time></trkpt><trkpt lat="46.572495" lon="12.5827883"><ele>1040.0</ele><time>2026-04-26T15:46:22.026Z</time></trkpt><trkpt lat="46.5723783" lon="12.5828233"><ele>1041.0</ele><time>2026-04-26T15:46:23.027Z</time></trkpt><trkpt lat="46.57226" lon="12.5828667"><ele>1042.0</ele><time>2026-04-26T15:46:24.025Z</time></trkpt><trkpt lat="46.572145" lon="12.5829333"><ele>1040.6666666666665</ele><time>2026-04-26T15:46:25.026Z</time></trkpt><trkpt lat="46.5720417" lon="12.5830217"><ele>1039.3333333333333</ele><time>2026-04-26T15:46:26.026Z</time></trkpt><trkpt lat="46.571955" lon="12.5831083"><ele>1038.0</ele><time>2026-04-26T15:46:27.025Z</time></trkpt><trkpt lat="46.5718933" lon="12.5831733"><ele>1036.6666666666667</ele><time>2026-04-26T15:46:28.026Z</time></trkpt><trkpt lat="46.5718367" lon="12.5832233"><ele>1035.3333333333335</ele><time>2026-04-26T15:46:29.026Z</time></trkpt><trkpt lat="46.5717767" lon="12.5832567"><ele>1034.0</ele><time>2026-04-26T15:46:30.026Z</time></trkpt><trkpt lat="46.5717067" lon="12.5832633"><ele>1031.3333333333335</ele><time>2026-04-26T15:46:31.026Z</time></trkpt><trkpt lat="46.57164" lon="12.5832833"><ele>1028.6666666666667</ele><time>2026-04-26T15:46:32.026Z</time></trkpt><trkpt lat="46.57157" lon="12.5833183"><ele>1026.0</ele><time>2026-04-26T15:46:33.025Z</time></trkpt><trkpt lat="46.5714983" lon="12.5833617"><ele>1023.3333333333333</ele><time>2026-04-26T15:46:34.025Z</time></trkpt><trkpt lat="46.571425" lon="12.5834083"><ele>1020.6666666666666</ele><time>2026-04-26T15:46:35.026Z</time></trkpt><trkpt lat="46.5713467" lon="12.5834667"><ele>1018.0</ele><time>2026-04-26T15:46:36.025Z</time></trkpt><trkpt lat="46.5712717" lon="12.583535"><ele>1018.0</ele><time>2026-04-26T15:46:37.026Z</time></trkpt><trkpt lat="46.571195" lon="12.5836133"><ele>1018.0</ele><time>2026-04-26T15:46:38.026Z</time></trkpt><trkpt lat="46.5711133" lon="12.5837067"><ele>1018.0</ele><time>2026-04-26T15:46:39.025Z</time></trkpt><trkpt lat="46.5710333" lon="12.5838133"><ele>1018.0</ele><time>2026-04-26T15:46:40.025Z</time></trkpt><trkpt lat="46.5709467" lon="12.5839233"><ele>1018.0</ele><time>2026-04-26T15:46:41.026Z</time></trkpt><trkpt lat="46.57086" lon="12.5840383"><ele>1018.5</ele><time>2026-04-26T15:46:42.025Z</time></trkpt><trkpt lat="46.5707733" lon="12.5841517"><ele>1019.0</ele><time>2026-04-26T15:46:43.025Z</time></trkpt><trkpt lat="46.570695" lon="12.58427"><ele>1019.5</ele><time>2026-04-26T15:46:44.026Z</time></trkpt><trkpt lat="46.570625" lon="12.5843917"><ele>1020.0</ele><time>2026-04-26T15:46:45.025Z</time></trkpt><trkpt lat="46.57056" lon="12.5845267"><ele>1020.0</ele><time>2026-04-26T15:46:46.026Z</time></trkpt><trkpt lat="46.5705" lon="12.5846683"><ele>1020.0</ele><time>2026-04-26T15:46:47.026Z</time></trkpt><trkpt lat="46.5704433" lon="12.584805"><ele>1020.0</ele><time>2026-04-26T15:46:48.028Z</time></trkpt><trkpt lat="46.5703767" lon="12.5849117"><ele>1020.0</ele><time>2026-04-26T15:46:49.026Z</time></trkpt><trkpt lat="46.5702983" lon="12.5849983"><ele>1020.0</ele><time>2026-04-26T15:46:50.027Z</time></trkpt><trkpt lat="46.5702067" lon="12.5850583"><ele>1015.8</ele><time>2026-04-26T15:46:51.026Z</time></trkpt><trkpt lat="46.5700983" lon="12.5850783"><ele>1011.6</ele><time>2026-04-26T15:46:52.026Z</time></trkpt><trkpt lat="46.5699883" lon="12.585075"><ele>1007.4000000000001</ele><time>2026-04-26T15:46:53.025Z</time></trkpt><trkpt lat="46.5698817" lon="12.5850483"><ele>1003.2</ele><time>2026-04-26T15:46:54.025Z</time></trkpt><trkpt lat="46.56978" lon="12.5850467"><ele>999.0</ele><time>2026-04-26T15:46:55.025Z</time></trkpt><trkpt lat="46.5696767" lon="12.585075"><ele>999.0</ele><time>2026-04-26T15:46:56.026Z</time></trkpt><trkpt lat="46.5695783" lon="12.5851233"><ele>999.0</ele><time>2026-04-26T15:46:57.026Z</time></trkpt><trkpt lat="46.569475" lon="12.585195"><ele>999.0</ele><time>2026-04-26T15:46:58.026Z</time></trkpt><trkpt lat="46.569375" lon="12.5852883"><ele>999.0</ele><time>2026-04-26T15:46:59.027Z</time></trkpt><trkpt lat="46.5692767" lon="12.585385"><ele>996.2</ele><time>2026-04-26T15:47:00.025Z</time></trkpt><trkpt lat="46.5691883" lon="12.5854883"><ele>993.4000000000001</ele><time>2026-04-26T15:47:01.026Z</time></trkpt><trkpt lat="46.569105" lon="12.5855933"><ele>990.6</ele><time>2026-04-26T15:47:02.026Z</time></trkpt><trkpt lat="46.5690183" lon="12.58568"><ele>987.8</ele><time>2026-04-26T15:47:03.025Z</time></trkpt><trkpt lat="46.5689233" lon="12.5857467"><ele>985.0</ele><time>2026-04-26T15:47:04.026Z</time></trkpt><trkpt lat="46.5688233" lon="12.5857983"><ele>985.0</ele><time>2026-04-26T15:47:05.026Z</time></trkpt><trkpt lat="46.568725" lon="12.5858583"><ele>985.0</ele><time>2026-04-26T15:47:06.025Z</time></trkpt><trkpt lat="46.5686233" lon="12.5859283"><ele>985.0</ele><time>2026-04-26T15:47:07.026Z</time></trkpt><trkpt lat="46.56852" lon="12.585995"><ele>985.0</ele><time>2026-04-26T15:47:08.026Z</time></trkpt><trkpt lat="46.5684283" lon="12.5860683"><ele>985.0</ele><time>2026-04-26T15:47:09.025Z</time></trkpt><trkpt lat="46.5683483" lon="12.5861417"><ele>981.4999999999999</ele><time>2026-04-26T15:47:10.025Z</time></trkpt><trkpt lat="46.5682733" lon="12.5862117"><ele>978.0</ele><time>2026-04-26T15:47:11.027Z</time></trkpt><trkpt lat="46.5682233" lon="12.5862983"><ele>974.5</ele><time>2026-04-26T15:47:12.025Z</time></trkpt><trkpt lat="46.5681833" lon="12.5863983"><ele>971.0</ele><time>2026-04-26T15:47:13.026Z</time></trkpt><trkpt lat="46.5681583" lon="12.5865067"><ele>967.4999999999999</ele><time>2026-04-26T15:47:14.026Z</time></trkpt><trkpt lat="46.56815" lon="12.5866117"><ele>964.0</ele><time>2026-04-26T15:47:15.025Z</time></trkpt><trkpt lat="46.5681633" lon="12.58671"><ele>964.0</ele><time>2026-04-26T15:47:16.026Z</time></trkpt><trkpt lat="46.5681783" lon="12.586825"><ele>964.0000000000001</ele><time>2026-04-26T15:47:17.026Z</time></trkpt><trkpt lat="46.56819" lon="12.58693"><ele>964.0</ele><time>2026-04-26T15:47:18.025Z</time></trkpt><trkpt lat="46.5681967" lon="12.5870333"><ele>964.0</ele><time>2026-04-26T15:47:19.026Z</time></trkpt><trkpt lat="46.5682067" lon="12.5871433"><ele>964.0000000000001</ele><time>2026-04-26T15:47:20.027Z</time></trkpt><trkpt lat="46.5682133" lon="12.5872483"><ele>964.0</ele><time>2026-04-26T15:47:21.025Z</time></trkpt><trkpt lat="46.5682133" lon="12.5873483"><ele>964.0</ele><time>2026-04-26T15:47:22.025Z</time></trkpt><trkpt lat="46.5681933" lon="12.587445"><ele>962.8000000000001</ele><time>2026-04-26T15:47:23.026Z</time></trkpt><trkpt lat="46.5681733" lon="12.5875333"><ele>961.6000000000001</ele><time>2026-04-26T15:47:24.027Z</time></trkpt><trkpt lat="46.5681183" lon="12.587645"><ele>960.4</ele><time>2026-04-26T15:47:26.026Z</time></trkpt><trkpt lat="46.5680333" lon="12.587655"><ele>959.2</ele><time>2026-04-26T15:47:46.025Z</time></trkpt><trkpt lat="46.56793" lon="12.5875433"><ele>958.0</ele><time>2026-04-26T15:47:48.026Z</time></trkpt><trkpt lat="46.5678617" lon="12.58747"><ele>957.0</ele><time>2026-04-26T15:47:49.027Z</time></trkpt><trkpt lat="46.5677917" lon="12.5873933"><ele>956.0</ele><time>2026-04-26T15:47:50.028Z</time></trkpt><trkpt lat="46.5677133" lon="12.5873167"><ele>955.0</ele><time>2026-04-26T15:47:51.025Z</time></trkpt><trkpt lat="46.5676367" lon="12.58724"><ele>954.0</ele><time>2026-04-26T15:47:52.026Z</time></trkpt><trkpt lat="46.5675583" lon="12.5871667"><ele>953.0</ele><time>2026-04-26T15:47:53.028Z</time></trkpt><trkpt lat="46.5674817" lon="12.587095"><ele>953.0000000000001</ele><time>2026-04-26T15:47:54.025Z</time></trkpt><trkpt lat="46.5674183" lon="12.5870267"><ele>953.0</ele><time>2026-04-26T15:47:55.029Z</time></trkpt><trkpt lat="46.5673617" lon="12.5869633"><ele>953.0</ele><time>2026-04-26T15:47:56.026Z</time></trkpt><trkpt lat="46.5672667" lon="12.58688"><ele>953.0</ele><time>2026-04-26T15:47:58.028Z</time></trkpt><trkpt lat="46.5671933" lon="12.58684"><ele>953.0000000000001</ele><time>2026-04-26T15:49:07.026Z</time></trkpt><trkpt lat="46.567225" lon="12.5867317"><ele>953.0</ele><time>2026-04-26T15:49:13.035Z</time></trkpt><trkpt lat="46.5671883" lon="12.5869"><ele>952.5000000000001</ele><time>2026-04-26T15:50:09.039Z</time></trkpt><trkpt lat="46.5671667" lon="12.586765"><ele>952.0</ele><time>2026-04-26T15:55:21.036Z</time></trkpt><trkpt lat="46.5671333" lon="12.5866517"><ele>951.5</ele><time>2026-04-26T15:55:23.034Z</time></trkpt><trkpt lat="46.5670883" lon="12.5865767"><ele>951.0</ele><time>2026-04-26T15:55:24.039Z</time></trkpt><trkpt lat="46.56703" lon="12.58649"><ele>950.5000000000001</ele><time>2026-04-26T15:55:25.039Z</time></trkpt><trkpt lat="46.56697" lon="12.5863867"><ele>950.0</ele><time>2026-04-26T15:55:26.043Z</time></trkpt><trkpt lat="46.5668983" lon="12.58628"><ele>951.25</ele><time>2026-04-26T15:55:27.041Z</time></trkpt><trkpt lat="46.56682" lon="12.586165"><ele>952.5</ele><time>2026-04-26T15:55:28.04Z</time></trkpt><trkpt lat="46.5667433" lon="12.5860433"><ele>953.75</ele><time>2026-04-26T15:55:29.039Z</time></trkpt><trkpt lat="46.56666" lon="12.585915"><ele>955.0</ele><time>2026-04-26T15:55:30.041Z</time></trkpt><trkpt lat="46.5665783" lon="12.585785"><ele>955.0</ele><time>2026-04-26T15:55:31.039Z</time></trkpt><trkpt lat="46.566505" lon="12.5856617"><ele>955.0</ele><time>2026-04-26T15:55:32.038Z</time></trkpt><trkpt lat="46.56644" lon="12.5855417"><ele>955.0</ele><time>2026-04-26T15:55:33.04Z</time></trkpt><trkpt lat="46.5663883" lon="12.5854233"><ele>955.0</ele><time>2026-04-26T15:55:34.037Z</time></trkpt><trkpt lat="46.5663383" lon="12.5853067"><ele>955.0</ele><time>2026-04-26T15:55:35.036Z</time></trkpt><trkpt lat="46.5662883" lon="12.5851817"><ele>957.5</ele><time>2026-04-26T15:55:36.042Z</time></trkpt><trkpt lat="46.5662367" lon="12.5850467"><ele>960.0</ele><time>2026-04-26T15:55:37.041Z</time></trkpt><trkpt lat="46.5661817" lon="12.5849033"><ele>962.5</ele><time>2026-04-26T15:55:38.043Z</time></trkpt><trkpt lat="46.5661233" lon="12.58475"><ele>965.0</ele><time>2026-04-26T15:55:39.039Z</time></trkpt><trkpt lat="46.5660633" lon="12.5845883"><ele>959.75</ele><time>2026-04-26T15:55:40.039Z</time></trkpt><trkpt lat="46.5660217" lon="12.5844117"><ele>954.5</ele><time>2026-04-26T15:55:41.041Z</time></trkpt><trkpt lat="46.56599" lon="12.58423"><ele>949.25</ele><time>2026-04-26T15:55:42.041Z</time></trkpt><trkpt lat="46.5659633" lon="12.5840433"><ele>944.0</ele><time>2026-04-26T15:55:43.037Z</time></trkpt><trkpt lat="46.565945" lon="12.583845"><ele>945.0</ele><time>2026-04-26T15:55:44.042Z</time></trkpt><trkpt lat="46.5659217" lon="12.5836567"><ele>946.0</ele><time>2026-04-26T15:55:45.038Z</time></trkpt><trkpt lat="46.5658933" lon="12.5834633"><ele>947.0</ele><time>2026-04-26T15:55:46.04Z</time></trkpt><trkpt lat="46.565865" lon="12.5832717"><ele>948.0</ele><time>2026-04-26T15:55:47.033Z</time></trkpt><trkpt lat="46.56583" lon="12.5830817"><ele>948.0</ele><time>2026-04-26T15:55:48.039Z</time></trkpt><trkpt lat="46.5657917" lon="12.5829067"><ele>948.0</ele><time>2026-04-26T15:55:49.038Z</time></trkpt><trkpt lat="46.5657467" lon="12.5827367"><ele>948.0</ele><time>2026-04-26T15:55:50.041Z</time></trkpt><trkpt lat="46.5657" lon="12.5825833"><ele>948.0</ele><time>2026-04-26T15:55:51.037Z</time></trkpt><trkpt lat="46.5656567" lon="12.582445"><ele>948.8</ele><time>2026-04-26T15:55:52.036Z</time></trkpt><trkpt lat="46.5656133" lon="12.5823117"><ele>949.5999999999999</ele><time>2026-04-26T15:55:53.038Z</time></trkpt><trkpt lat="46.5655817" lon="12.5821817"><ele>950.4000000000001</ele><time>2026-04-26T15:55:54.041Z</time></trkpt><trkpt lat="46.5655517" lon="12.5820483"><ele>951.2</ele><time>2026-04-26T15:55:55.035Z</time></trkpt><trkpt lat="46.5655333" lon="12.581905"><ele>952.0</ele><time>2026-04-26T15:55:56.04Z</time></trkpt><trkpt lat="46.5655167" lon="12.5817683"><ele>952.0</ele><time>2026-04-26T15:55:57.041Z</time></trkpt><trkpt lat="46.5655083" lon="12.58163"><ele>952.0</ele><time>2026-04-26T15:55:58.04Z</time></trkpt><trkpt lat="46.5655033" lon="12.5814983"><ele>952.0</ele><time>2026-04-26T15:55:59.036Z</time></trkpt><trkpt lat="46.565495" lon="12.581365"><ele>952.0</ele><time>2026-04-26T15:56:00.039Z</time></trkpt><trkpt lat="46.5654833" lon="12.5812167"><ele>952.0</ele><time>2026-04-26T15:56:01.039Z</time></trkpt><trkpt lat="46.5654783" lon="12.5810667"><ele>951.9999999999999</ele><time>2026-04-26T15:56:02.042Z</time></trkpt><trkpt lat="46.5654667" lon="12.5809217"><ele>952.0</ele><time>2026-04-26T15:56:03.039Z</time></trkpt><trkpt lat="46.5654533" lon="12.5807833"><ele>952.0</ele><time>2026-04-26T15:56:04.041Z</time></trkpt><trkpt lat="46.5654433" lon="12.5806617"><ele>952.0</ele><time>2026-04-26T15:56:05.037Z</time></trkpt><trkpt lat="46.5654317" lon="12.58055"><ele>951.9999999999999</ele><time>2026-04-26T15:56:06.043Z</time></trkpt><trkpt lat="46.5654017" lon="12.5804533"><ele>952.0</ele><time>2026-04-26T15:56:08.036Z</time></trkpt><trkpt lat="46.565305" lon="12.580485"><ele>950.4000000000001</ele><time>2026-04-26T15:56:12.038Z</time></trkpt><trkpt lat="46.56517" lon="12.5805283"><ele>948.8000000000001</ele><time>2026-04-26T15:56:14.041Z</time></trkpt><trkpt lat="46.5650967" lon="12.580555"><ele>947.2</ele><time>2026-04-26T15:56:15.04Z</time></trkpt><trkpt lat="46.56503" lon="12.5805867"><ele>945.6</ele><time>2026-04-26T15:56:16.04Z</time></trkpt><trkpt lat="46.56494" lon="12.5806333"><ele>944.0</ele><time>2026-04-26T15:56:18.04Z</time></trkpt><trkpt lat="46.564875" lon="12.580685"><ele>944.0000000000001</ele><time>2026-04-26T15:56:20.04Z</time></trkpt><trkpt lat="46.564765" lon="12.58073"><ele>944.0</ele><time>2026-04-26T15:56:22.041Z</time></trkpt><trkpt lat="46.56468" lon="12.5807467"><ele>944.0</ele><time>2026-04-26T15:56:24.04Z</time></trkpt><trkpt lat="46.5646067" lon="12.5808067"><ele>944.0</ele><time>2026-04-26T15:56:26.042Z</time></trkpt><trkpt lat="46.5645633" lon="12.5808917"><ele>944.0000000000001</ele><time>2026-04-26T15:56:27.036Z</time></trkpt><trkpt lat="46.56453" lon="12.5809867"><ele>944.0</ele><time>2026-04-26T15:56:28.037Z</time></trkpt><trkpt lat="46.56449" lon="12.5810833"><ele>943.0</ele><time>2026-04-26T15:56:29.035Z</time></trkpt><trkpt lat="46.56444" lon="12.5811883"><ele>942.0000000000001</ele><time>2026-04-26T15:56:30.04Z</time></trkpt><trkpt lat="46.5643817" lon="12.5812683"><ele>941.0000000000001</ele><time>2026-04-26T15:56:31.041Z</time></trkpt><trkpt lat="46.5642983" lon="12.58134"><ele>940.0</ele><time>2026-04-26T15:56:32.042Z</time></trkpt><trkpt lat="46.5641917" lon="12.5813817"><ele>939.0</ele><time>2026-04-26T15:56:33.04Z</time></trkpt><trkpt lat="46.564095" lon="12.5814183"><ele>939.0</ele><time>2026-04-26T15:56:34.039Z</time></trkpt><trkpt lat="46.564005" lon="12.58146"><ele>939.0000000000001</ele><time>2026-04-26T15:56:35.04Z</time></trkpt><trkpt lat="46.5639133" lon="12.5815017"><ele>939.0000000000001</ele><time>2026-04-26T15:56:36.039Z</time></trkpt><trkpt lat="46.56382" lon="12.58156"><ele>939.0</ele><time>2026-04-26T15:56:37.036Z</time></trkpt><trkpt lat="46.5637233" lon="12.581625"><ele>939.0</ele><time>2026-04-26T15:56:38.04Z</time></trkpt><trkpt lat="46.5636283" lon="12.5816933"><ele>940.0</ele><time>2026-04-26T15:56:39.036Z</time></trkpt><trkpt lat="46.5635267" lon="12.58176"><ele>941.0</ele><time>2026-04-26T15:56:40.038Z</time></trkpt><trkpt lat="46.5634217" lon="12.581825"><ele>942.0</ele><time>2026-04-26T15:56:41.036Z</time></trkpt><trkpt lat="46.5633133" lon="12.5818917"><ele>943.0</ele><time>2026-04-26T15:56:42.042Z</time></trkpt><trkpt lat="46.5632133" lon="12.58196"><ele>943.5</ele><time>2026-04-26T15:56:43.037Z</time></trkpt><trkpt lat="46.5631067" lon="12.5820283"><ele>944.0</ele><time>2026-04-26T15:56:44.04Z</time></trkpt><trkpt lat="46.562995" lon="12.58209"><ele>944.5</ele><time>2026-04-26T15:56:45.04Z</time></trkpt><trkpt lat="46.5628917" lon="12.582165"><ele>945.0</ele><time>2026-04-26T15:56:46.038Z</time></trkpt><trkpt lat="46.5627917" lon="12.5822483"><ele>945.75</ele><time>2026-04-26T15:56:47.037Z</time></trkpt><trkpt lat="46.5626883" lon="12.5823333"><ele>946.5</ele><time>2026-04-26T15:56:48.039Z</time></trkpt><trkpt lat="46.5625867" lon="12.582425"><ele>947.25</ele><time>2026-04-26T15:56:49.038Z</time></trkpt><trkpt lat="46.5624867" lon="12.5825217"><ele>948.0</ele><time>2026-04-26T15:56:50.037Z</time></trkpt><trkpt lat="46.5623983" lon="12.58261"><ele>948.0</ele><time>2026-04-26T15:56:51.036Z</time></trkpt><trkpt lat="46.56232" lon="12.5827"><ele>948.0</ele><time>2026-04-26T15:56:52.037Z</time></trkpt><trkpt lat="46.5622417" lon="12.582795"><ele>948.0</ele><time>2026-04-26T15:56:53.04Z</time></trkpt><trkpt lat="46.56216" lon="12.5828917"><ele>948.0</ele><time>2026-04-26T15:56:54.039Z</time></trkpt><trkpt lat="46.5620817" lon="12.5829967"><ele>948.0</ele><time>2026-04-26T15:56:55.038Z</time></trkpt><trkpt lat="46.562005" lon="12.5831033"><ele>947.75</ele><time>2026-04-26T15:56:56.042Z</time></trkpt><trkpt lat="46.56193" lon="12.583225"><ele>947.5</ele><time>2026-04-26T15:56:57.041Z</time></trkpt><trkpt lat="46.5618517" lon="12.58335"><ele>947.25</ele><time>2026-04-26T15:56:58.04Z</time></trkpt><trkpt lat="46.5617767" lon="12.5834767"><ele>947.0</ele><time>2026-04-26T15:56:59.039Z</time></trkpt><trkpt lat="46.56169" lon="12.583615"><ele>948.0</ele><time>2026-04-26T15:57:00.039Z</time></trkpt><trkpt lat="46.5615983" lon="12.583745"><ele>949.0</ele><time>2026-04-26T15:57:01.035Z</time></trkpt><trkpt lat="46.561505" lon="12.5838717"><ele>950.0</ele><time>2026-04-26T15:57:02.042Z</time></trkpt><trkpt lat="46.561415" lon="12.58398"><ele>951.0</ele><time>2026-04-26T15:57:03.039Z</time></trkpt><trkpt lat="46.5613267" lon="12.5840733"><ele>951.0</ele><time>2026-04-26T15:57:04.037Z</time></trkpt><trkpt lat="46.5612367" lon="12.5841633"><ele>950.9999999999999</ele><time>2026-04-26T15:57:05.039Z</time></trkpt><trkpt lat="46.5611467" lon="12.584255"><ele>950.9999999999999</ele><time>2026-04-26T15:57:06.041Z</time></trkpt><trkpt lat="46.5610533" lon="12.5843433"><ele>951.0</ele><time>2026-04-26T15:57:07.04Z</time></trkpt><trkpt lat="46.5609583" lon="12.5844217"><ele>951.0</ele><time>2026-04-26T15:57:08.042Z</time></trkpt><trkpt lat="46.5608583" lon="12.5844883"><ele>954.5</ele><time>2026-04-26T15:57:09.035Z</time></trkpt><trkpt lat="46.5607567" lon="12.58455"><ele>958.0</ele><time>2026-04-26T15:57:10.04Z</time></trkpt><trkpt lat="46.56065" lon="12.5846083"><ele>961.5</ele><time>2026-04-26T15:57:11.04Z</time></trkpt><trkpt lat="46.56054" lon="12.5846567"><ele>965.0</ele><time>2026-04-26T15:57:12.04Z</time></trkpt><trkpt lat="46.560425" lon="12.584695"><ele>962.5</ele><time>2026-04-26T15:57:13.036Z</time></trkpt><trkpt lat="46.56031" lon="12.5847317"><ele>960.0</ele><time>2026-04-26T15:57:14.039Z</time></trkpt><trkpt lat="46.560195" lon="12.584765"><ele>957.5</ele><time>2026-04-26T15:57:15.041Z</time></trkpt><trkpt lat="46.560085" lon="12.5847983"><ele>955.0</ele><time>2026-04-26T15:57:16.037Z</time></trkpt><trkpt lat="46.5599717" lon="12.5848267"><ele>955.0</ele><time>2026-04-26T15:57:17.041Z</time></trkpt><trkpt lat="46.559865" lon="12.58486"><ele>955.0</ele><time>2026-04-26T15:57:18.036Z</time></trkpt><trkpt lat="46.559755" lon="12.5848967"><ele>955.0</ele><time>2026-04-26T15:57:19.041Z</time></trkpt><trkpt lat="46.5596417" lon="12.584935"><ele>955.0</ele><time>2026-04-26T15:57:20.042Z</time></trkpt><trkpt lat="46.5595283" lon="12.5849733"><ele>955.5</ele><time>2026-04-26T15:57:21.04Z</time></trkpt><trkpt lat="46.55941" lon="12.5850033"><ele>956.0</ele><time>2026-04-26T15:57:22.037Z</time></trkpt><trkpt lat="46.5592917" lon="12.585025"><ele>956.5</ele><time>2026-04-26T15:57:23.039Z</time></trkpt><trkpt lat="46.5591733" lon="12.5850483"><ele>957.0</ele><time>2026-04-26T15:57:24.041Z</time></trkpt><trkpt lat="46.559065" lon="12.5850833"><ele>957.0</ele><time>2026-04-26T15:57:25.041Z</time></trkpt><trkpt lat="46.5589633" lon="12.5851267"><ele>957.0</ele><time>2026-04-26T15:57:26.041Z</time></trkpt><trkpt lat="46.5588717" lon="12.5851867"><ele>957.0</ele><time>2026-04-26T15:57:27.041Z</time></trkpt><trkpt lat="46.5587833" lon="12.5852617"><ele>957.0</ele><time>2026-04-26T15:57:28.04Z</time></trkpt><trkpt lat="46.5586933" lon="12.58534"><ele>957.0</ele><time>2026-04-26T15:57:29.037Z</time></trkpt><trkpt lat="46.5586017" lon="12.585425"><ele>960.2</ele><time>2026-04-26T15:57:30.039Z</time></trkpt><trkpt lat="46.5585067" lon="12.585505"><ele>963.4000000000001</ele><time>2026-04-26T15:57:31.038Z</time></trkpt><trkpt lat="46.55841" lon="12.5855733"><ele>966.5999999999999</ele><time>2026-04-26T15:57:32.041Z</time></trkpt><trkpt lat="46.5583067" lon="12.58564"><ele>969.8</ele><time>2026-04-26T15:57:33.041Z</time></trkpt><trkpt lat="46.5582033" lon="12.585705"><ele>973.0</ele><time>2026-04-26T15:57:34.04Z</time></trkpt><trkpt lat="46.5581" lon="12.5857667"><ele>973.0</ele><time>2026-04-26T15:57:35.036Z</time></trkpt><trkpt lat="46.5579967" lon="12.58583"><ele>973.0</ele><time>2026-04-26T15:57:36.042Z</time></trkpt><trkpt lat="46.5578917" lon="12.5858833"><ele>973.0</ele><time>2026-04-26T15:57:37.041Z</time></trkpt><trkpt lat="46.5577817" lon="12.5859383"><ele>973.0</ele><time>2026-04-26T15:57:38.042Z</time></trkpt><trkpt lat="46.5576733" lon="12.585995"><ele>971.5</ele><time>2026-04-26T15:57:39.041Z</time></trkpt><trkpt lat="46.5575617" lon="12.5860517"><ele>970.0</ele><time>2026-04-26T15:57:40.041Z</time></trkpt><trkpt lat="46.5574483" lon="12.5861067"><ele>968.5</ele><time>2026-04-26T15:57:41.037Z</time></trkpt><trkpt lat="46.55733" lon="12.58616"><ele>967.0</ele><time>2026-04-26T15:57:42.037Z</time></trkpt><trkpt lat="46.5572067" lon="12.5862083"><ele>969.5</ele><time>2026-04-26T15:57:43.038Z</time></trkpt><trkpt lat="46.5570817" lon="12.5862567"><ele>972.0</ele><time>2026-04-26T15:57:44.042Z</time></trkpt><trkpt lat="46.5569617" lon="12.5863083"><ele>974.5</ele><time>2026-04-26T15:57:45.041Z</time></trkpt><trkpt lat="46.556845" lon="12.586365"><ele>977.0</ele><time>2026-04-26T15:57:46.036Z</time></trkpt><trkpt lat="46.5567267" lon="12.5864233"><ele>977.0</ele><time>2026-04-26T15:57:47.04Z</time></trkpt><trkpt lat="46.5566133" lon="12.5864767"><ele>977.0</ele><time>2026-04-26T15:57:48.034Z</time></trkpt><trkpt lat="46.5565067" lon="12.5865233"><ele>977.0</ele><time>2026-04-26T15:57:49.037Z</time></trkpt><trkpt lat="46.5564017" lon="12.58657"><ele>977.0</ele><time>2026-04-26T15:57:50.041Z</time></trkpt><trkpt lat="46.5562983" lon="12.5866217"><ele>975.6</ele><time>2026-04-26T15:57:51.039Z</time></trkpt><trkpt lat="46.5561933" lon="12.5866717"><ele>974.2</ele><time>2026-04-26T15:57:52.034Z</time></trkpt><trkpt lat="46.5560867" lon="12.5867167"><ele>972.8</ele><time>2026-04-26T15:57:53.039Z</time></trkpt><trkpt lat="46.5559783" lon="12.5867583"><ele>971.4</ele><time>2026-04-26T15:57:54.038Z</time></trkpt><trkpt lat="46.55587" lon="12.5868"><ele>970.0</ele><time>2026-04-26T15:57:55.039Z</time></trkpt><trkpt lat="46.55576" lon="12.5868333"><ele>970.0</ele><time>2026-04-26T15:57:56.041Z</time></trkpt><trkpt lat="46.5556533" lon="12.58686"><ele>970.0</ele><time>2026-04-26T15:57:57.038Z</time></trkpt><trkpt lat="46.5555467" lon="12.5868667"><ele>970.0</ele><time>2026-04-26T15:57:58.036Z</time></trkpt><trkpt lat="46.5554383" lon="12.586855"><ele>970.0</ele><time>2026-04-26T15:57:59.038Z</time></trkpt><trkpt lat="46.5553283" lon="12.5868417"><ele>970.0</ele><time>2026-04-26T15:58:00.04Z</time></trkpt><trkpt lat="46.555215" lon="12.5868483"><ele>970.8</ele><time>2026-04-26T15:58:01.038Z</time></trkpt><trkpt lat="46.5551083" lon="12.5868883"><ele>971.6</ele><time>2026-04-26T15:58:02.041Z</time></trkpt><trkpt lat="46.55501" lon="12.5869617"><ele>972.4000000000001</ele><time>2026-04-26T15:58:03.036Z</time></trkpt><trkpt lat="46.5549183" lon="12.5870583"><ele>973.2</ele><time>2026-04-26T15:58:04.04Z</time></trkpt><trkpt lat="46.554835" lon="12.5871683"><ele>974.0</ele><time>2026-04-26T15:58:05.037Z</time></trkpt><trkpt lat="46.55475" lon="12.5872767"><ele>975.5</ele><time>2026-04-26T15:58:06.042Z</time></trkpt><trkpt lat="46.554665" lon="12.587385"><ele>977.0</ele><time>2026-04-26T15:58:07.041Z</time></trkpt><trkpt lat="46.5545783" lon="12.58749"><ele>978.5</ele><time>2026-04-26T15:58:08.041Z</time></trkpt><trkpt lat="46.55449" lon="12.5875933"><ele>980.0</ele><time>2026-04-26T15:58:09.041Z</time></trkpt><trkpt lat="46.5544017" lon="12.5876933"><ele>980.0</ele><time>2026-04-26T15:58:10.035Z</time></trkpt><trkpt lat="46.55431" lon="12.5877917"><ele>980.0</ele><time>2026-04-26T15:58:11.039Z</time></trkpt><trkpt lat="46.554215" lon="12.587885"><ele>980.0</ele><time>2026-04-26T15:58:12.041Z</time></trkpt><trkpt lat="46.5541167" lon="12.587965"><ele>980.0</ele><time>2026-04-26T15:58:13.041Z</time></trkpt><trkpt lat="46.5540167" lon="12.588035"><ele>981.2</ele><time>2026-04-26T15:58:14.042Z</time></trkpt><trkpt lat="46.5539183" lon="12.5881083"><ele>982.4</ele><time>2026-04-26T15:58:15.04Z</time></trkpt><trkpt lat="46.5538183" lon="12.5881717"><ele>983.5999999999999</ele><time>2026-04-26T15:58:16.037Z</time></trkpt><trkpt lat="46.5537183" lon="12.58823"><ele>984.8</ele><time>2026-04-26T15:58:17.036Z</time></trkpt><trkpt lat="46.5536233" lon="12.58829"><ele>986.0</ele><time>2026-04-26T15:58:18.039Z</time></trkpt><trkpt lat="46.5535283" lon="12.588345"><ele>986.0</ele><time>2026-04-26T15:58:19.038Z</time></trkpt><trkpt lat="46.5534383" lon="12.5883967"><ele>985.9999999999999</ele><time>2026-04-26T15:58:20.042Z</time></trkpt><trkpt lat="46.5533533" lon="12.58844"><ele>985.9999999999999</ele><time>2026-04-26T15:58:21.04Z</time></trkpt><trkpt lat="46.55327" lon="12.5884717"><ele>986.0</ele><time>2026-04-26T15:58:22.036Z</time></trkpt><trkpt lat="46.5531833" lon="12.588515"><ele>986.0</ele><time>2026-04-26T15:58:23.039Z</time></trkpt><trkpt lat="46.5531" lon="12.5885683"><ele>986.0</ele><time>2026-04-26T15:58:24.04Z</time></trkpt><trkpt lat="46.55302" lon="12.5886333"><ele>985.9999999999999</ele><time>2026-04-26T15:58:25.041Z</time></trkpt><trkpt lat="46.5529517" lon="12.588725"><ele>985.9999999999999</ele><time>2026-04-26T15:58:26.043Z</time></trkpt><trkpt lat="46.5528967" lon="12.5888283"><ele>986.0</ele><time>2026-04-26T15:58:27.037Z</time></trkpt><trkpt lat="46.5528483" lon="12.5889417"><ele>986.0</ele><time>2026-04-26T15:58:28.039Z</time></trkpt><trkpt lat="46.5528133" lon="12.5890667"><ele>986.0</ele><time>2026-04-26T15:58:29.041Z</time></trkpt><trkpt lat="46.5527867" lon="12.5891967"><ele>985.9999999999999</ele><time>2026-04-26T15:58:30.04Z</time></trkpt><trkpt lat="46.552765" lon="12.5893317"><ele>985.9999999999999</ele><time>2026-04-26T15:58:31.041Z</time></trkpt><trkpt lat="46.5527517" lon="12.5894733"><ele>986.0</ele><time>2026-04-26T15:58:32.041Z</time></trkpt><trkpt lat="46.55274" lon="12.5896183"><ele>986.0</ele><time>2026-04-26T15:58:33.041Z</time></trkpt><trkpt lat="46.5527267" lon="12.589765"><ele>987.0</ele><time>2026-04-26T15:58:34.039Z</time></trkpt><trkpt lat="46.552705" lon="12.5899133"><ele>987.9999999999999</ele><time>2026-04-26T15:58:35.04Z</time></trkpt><trkpt lat="46.5526833" lon="12.590065"><ele>988.9999999999999</ele><time>2026-04-26T15:58:36.04Z</time></trkpt><trkpt lat="46.5526633" lon="12.5902133"><ele>990.0</ele><time>2026-04-26T15:58:37.034Z</time></trkpt><trkpt lat="46.5526417" lon="12.5903683"><ele>991.0</ele><time>2026-04-26T15:58:38.042Z</time></trkpt><trkpt lat="46.5526017" lon="12.590515"><ele>994.25</ele><time>2026-04-26T15:58:39.04Z</time></trkpt><trkpt lat="46.5525483" lon="12.5906583"><ele>997.5</ele><time>2026-04-26T15:58:40.04Z</time></trkpt><trkpt lat="46.5524833" lon="12.59079"><ele>1000.75</ele><time>2026-04-26T15:58:41.036Z</time></trkpt><trkpt lat="46.5524067" lon="12.5909217"><ele>1004.0</ele><time>2026-04-26T15:58:42.04Z</time></trkpt><trkpt lat="46.5523217" lon="12.5910333"><ele>1004.0</ele><time>2026-04-26T15:58:43.04Z</time></trkpt><trkpt lat="46.552235" lon="12.5911283"><ele>1004.0000000000001</ele><time>2026-04-26T15:58:44.039Z</time></trkpt><trkpt lat="46.5521533" lon="12.5912233"><ele>1004.0000000000001</ele><time>2026-04-26T15:58:45.04Z</time></trkpt><trkpt lat="46.55207" lon="12.5913133"><ele>1004.0</ele><time>2026-04-26T15:58:46.041Z</time></trkpt><trkpt lat="46.5519767" lon="12.5913983"><ele>1004.0</ele><time>2026-04-26T15:58:47.039Z</time></trkpt><trkpt lat="46.5518783" lon="12.5914733"><ele>1006.25</ele><time>2026-04-26T15:58:48.038Z</time></trkpt><trkpt lat="46.5517733" lon="12.5915417"><ele>1008.5</ele><time>2026-04-26T15:58:49.038Z</time></trkpt><trkpt lat="46.55167" lon="12.5916033"><ele>1010.75</ele><time>2026-04-26T15:58:50.04Z</time></trkpt><trkpt lat="46.5515617" lon="12.5916583"><ele>1013.0</ele><time>2026-04-26T15:58:51.039Z</time></trkpt><trkpt lat="46.5514533" lon="12.5917133"><ele>1013.0</ele><time>2026-04-26T15:58:52.036Z</time></trkpt><trkpt lat="46.5513433" lon="12.591765"><ele>1013.0</ele><time>2026-04-26T15:58:53.037Z</time></trkpt><trkpt lat="46.5512283" lon="12.5918133"><ele>1013.0</ele><time>2026-04-26T15:58:54.039Z</time></trkpt><trkpt lat="46.5511183" lon="12.5918617"><ele>1013.0</ele><time>2026-04-26T15:58:55.04Z</time></trkpt><trkpt lat="46.5510067" lon="12.5919117"><ele>1011.0</ele><time>2026-04-26T15:58:56.041Z</time></trkpt><trkpt lat="46.5508983" lon="12.5919667"><ele>1009.0</ele><time>2026-04-26T15:58:57.041Z</time></trkpt><trkpt lat="46.5507883" lon="12.5920133"><ele>1007.0</ele><time>2026-04-26T15:58:58.036Z</time></trkpt><trkpt lat="46.5506867" lon="12.5920633"><ele>1005.0</ele><time>2026-04-26T15:58:59.04Z</time></trkpt><trkpt lat="46.5505817" lon="12.592115"><ele>1003.0</ele><time>2026-04-26T15:59:00.038Z</time></trkpt><trkpt lat="46.5504767" lon="12.5921667"><ele>1005.0</ele><time>2026-04-26T15:59:01.04Z</time></trkpt><trkpt lat="46.5503783" lon="12.5922267"><ele>1007.0</ele><time>2026-04-26T15:59:02.042Z</time></trkpt><trkpt lat="46.5502817" lon="12.5922833"><ele>1009.0</ele><time>2026-04-26T15:59:03.039Z</time></trkpt><trkpt lat="46.550185" lon="12.5923383"><ele>1011.0</ele><time>2026-04-26T15:59:04.038Z</time></trkpt><trkpt lat="46.5500917" lon="12.5924"><ele>1013.0</ele><time>2026-04-26T15:59:05.041Z</time></trkpt><trkpt lat="46.5500117" lon="12.5924733"><ele>1013.0000000000001</ele><time>2026-04-26T15:59:06.04Z</time></trkpt><trkpt lat="46.5499383" lon="12.5925567"><ele>1013.0</ele><time>2026-04-26T15:59:07.04Z</time></trkpt><trkpt lat="46.5498767" lon="12.59264"><ele>1013.0</ele><time>2026-04-26T15:59:08.04Z</time></trkpt><trkpt lat="46.5498233" lon="12.5927183"><ele>1013.0</ele><time>2026-04-26T15:59:09.037Z</time></trkpt><trkpt lat="46.54977" lon="12.5928017"><ele>1013.0000000000001</ele><time>2026-04-26T15:59:10.038Z</time></trkpt><trkpt lat="46.5497183" lon="12.592895"><ele>1013.0</ele><time>2026-04-26T15:59:11.041Z</time></trkpt><trkpt lat="46.5496617" lon="12.592975"><ele>1014.4</ele><time>2026-04-26T15:59:12.034Z</time></trkpt><trkpt lat="46.5496067" lon="12.59307"><ele>1015.8</ele><time>2026-04-26T15:59:13.038Z</time></trkpt><trkpt lat="46.5494917" lon="12.5932567"><ele>1017.2</ele><time>2026-04-26T15:59:15.039Z</time></trkpt><trkpt lat="46.5494283" lon="12.5933583"><ele>1018.6</ele><time>2026-04-26T15:59:16.039Z</time></trkpt><trkpt lat="46.54936" lon="12.5934517"><ele>1020.0</ele><time>2026-04-26T15:59:17.039Z</time></trkpt><trkpt lat="46.549295" lon="12.593535"><ele>1020.0</ele><time>2026-04-26T15:59:18.037Z</time></trkpt><trkpt lat="46.5492367" lon="12.59362"><ele>1020.0</ele><time>2026-04-26T15:59:19.037Z</time></trkpt><trkpt lat="46.5491817" lon="12.5936967"><ele>1020.0</ele><time>2026-04-26T15:59:20.039Z</time></trkpt><trkpt lat="46.5491217" lon="12.5937667"><ele>1020.0</ele><time>2026-04-26T15:59:21.037Z</time></trkpt><trkpt lat="46.5490583" lon="12.5938283"><ele>1020.0</ele><time>2026-04-26T15:59:22.035Z</time></trkpt><trkpt lat="46.54898" lon="12.5938667"><ele>1020.0</ele><time>2026-04-26T15:59:23.038Z</time></trkpt><trkpt lat="46.548905" lon="12.59392"><ele>1023.3333333333334</ele><time>2026-04-26T15:59:24.042Z</time></trkpt><trkpt lat="46.5488267" lon="12.5939767"><ele>1026.6666666666667</ele><time>2026-04-26T15:59:25.038Z</time></trkpt><trkpt lat="46.54875" lon="12.5940283"><ele>1030.0</ele><time>2026-04-26T15:59:26.039Z</time></trkpt><trkpt lat="46.54868" lon="12.5940717"><ele>1033.3333333333335</ele><time>2026-04-26T15:59:27.035Z</time></trkpt><trkpt lat="46.5486167" lon="12.5941217"><ele>1036.6666666666667</ele><time>2026-04-26T15:59:28.037Z</time></trkpt><trkpt lat="46.5485467" lon="12.5941683"><ele>1040.0</ele><time>2026-04-26T15:59:29.039Z</time></trkpt><trkpt lat="46.54847" lon="12.594215"><ele>1040.0</ele><time>2026-04-26T15:59:30.039Z</time></trkpt><trkpt lat="46.5483867" lon="12.5942367"><ele>1040.0</ele><time>2026-04-26T15:59:31.039Z</time></trkpt><trkpt lat="46.5483017" lon="12.59425"><ele>1040.0</ele><time>2026-04-26T15:59:32.039Z</time></trkpt><trkpt lat="46.548225" lon="12.5942533"><ele>1040.0</ele><time>2026-04-26T15:59:33.042Z</time></trkpt><trkpt lat="46.548145" lon="12.59424"><ele>1040.0</ele><time>2026-04-26T15:59:34.036Z</time></trkpt><trkpt lat="46.5480667" lon="12.59424"><ele>1040.0</ele><time>2026-04-26T15:59:35.038Z</time></trkpt><trkpt lat="46.547985" lon="12.594245"><ele>1040.0</ele><time>2026-04-26T15:59:36.038Z</time></trkpt><trkpt lat="46.5479033" lon="12.5942367"><ele>1040.0</ele><time>2026-04-26T15:59:37.038Z</time></trkpt><trkpt lat="46.5478183" lon="12.5942083"><ele>1040.0</ele><time>2026-04-26T15:59:38.039Z</time></trkpt><trkpt lat="46.5477267" lon="12.5941783"><ele>1040.0</ele><time>2026-04-26T15:59:39.036Z</time></trkpt><trkpt lat="46.5476333" lon="12.594155"><ele>1040.0</ele><time>2026-04-26T15:59:40.036Z</time></trkpt><trkpt lat="46.5475367" lon="12.5941417"><ele>1039.2</ele><time>2026-04-26T15:59:41.039Z</time></trkpt><trkpt lat="46.5474367" lon="12.594165"><ele>1038.4</ele><time>2026-04-26T15:59:42.04Z</time></trkpt><trkpt lat="46.54734" lon="12.5942167"><ele>1037.6</ele><time>2026-04-26T15:59:43.039Z</time></trkpt><trkpt lat="46.5472533" lon="12.5942867"><ele>1036.8</ele><time>2026-04-26T15:59:44.041Z</time></trkpt><trkpt lat="46.5471633" lon="12.5943583"><ele>1036.0</ele><time>2026-04-26T15:59:45.041Z</time></trkpt><trkpt lat="46.547085" lon="12.5944333"><ele>1038.2</ele><time>2026-04-26T15:59:46.036Z</time></trkpt><trkpt lat="46.5470083" lon="12.5945083"><ele>1040.3999999999999</ele><time>2026-04-26T15:59:47.039Z</time></trkpt><trkpt lat="46.54693" lon="12.5945767"><ele>1042.6</ele><time>2026-04-26T15:59:48.04Z</time></trkpt><trkpt lat="46.5468467" lon="12.59465"><ele>1044.8</ele><time>2026-04-26T15:59:49.042Z</time></trkpt><trkpt lat="46.546755" lon="12.594725"><ele>1047.0</ele><time>2026-04-26T15:59:50.041Z</time></trkpt><trkpt lat="46.5466617" lon="12.5948"><ele>1047.0</ele><time>2026-04-26T15:59:51.038Z</time></trkpt><trkpt lat="46.5465683" lon="12.5948717"><ele>1047.0</ele><time>2026-04-26T15:59:52.038Z</time></trkpt><trkpt lat="46.5464817" lon="12.59496"><ele>1047.0</ele><time>2026-04-26T15:59:53.04Z</time></trkpt><trkpt lat="46.5464067" lon="12.5950683"><ele>1047.0</ele><time>2026-04-26T15:59:54.036Z</time></trkpt><trkpt lat="46.546345" lon="12.5951967"><ele>1047.0</ele><time>2026-04-26T15:59:55.039Z</time></trkpt><trkpt lat="46.5462867" lon="12.5953233"><ele>1047.0</ele><time>2026-04-26T15:59:56.039Z</time></trkpt><trkpt lat="46.5462383" lon="12.5954267"><ele>1047.0</ele><time>2026-04-26T15:59:57.038Z</time></trkpt><trkpt lat="46.5462017" lon="12.595515"><ele>1047.0</ele><time>2026-04-26T15:59:58.035Z</time></trkpt><trkpt lat="46.5461217" lon="12.5956117"><ele>1047.0</ele><time>2026-04-26T16:00:00.042Z</time></trkpt><trkpt lat="46.5460117" lon="12.59555"><ele>1047.0</ele><time>2026-04-26T16:00:02.04Z</time></trkpt><trkpt lat="46.5459117" lon="12.595475"><ele>1047.0</ele><time>2026-04-26T16:00:03.039Z</time></trkpt><trkpt lat="46.54583" lon="12.5954333"><ele>1047.0</ele><time>2026-04-26T16:00:04.04Z</time></trkpt><trkpt lat="46.545745" lon="12.5954067"><ele>1047.0</ele><time>2026-04-26T16:00:05.041Z</time></trkpt><trkpt lat="46.5456583" lon="12.5954033"><ele>1047.0</ele><time>2026-04-26T16:00:06.04Z</time></trkpt><trkpt lat="46.54557" lon="12.5954567"><ele>1047.0</ele><time>2026-04-26T16:00:07.041Z</time></trkpt><trkpt lat="46.545515" lon="12.59555"><ele>1047.0</ele><time>2026-04-26T16:00:08.042Z</time></trkpt><trkpt lat="46.54547" lon="12.5956467"><ele>1047.0000000000002</ele><time>2026-04-26T16:00:09.042Z</time></trkpt><trkpt lat="46.5454233" lon="12.5957333"><ele>1047.0</ele><time>2026-04-26T16:00:10.043Z</time></trkpt><trkpt lat="46.5453683" lon="12.5958083"><ele>1047.0</ele><time>2026-04-26T16:00:11.039Z</time></trkpt><trkpt lat="46.5453017" lon="12.5958667"><ele>1047.0</ele><time>2026-04-26T16:00:12.041Z</time></trkpt><trkpt lat="46.5452283" lon="12.595905"><ele>1047.0</ele><time>2026-04-26T16:00:13.042Z</time></trkpt><trkpt lat="46.545155" lon="12.5959183"><ele>1047.0000000000002</ele><time>2026-04-26T16:00:14.044Z</time></trkpt><trkpt lat="46.5450883" lon="12.5959233"><ele>1047.0</ele><time>2026-04-26T16:00:15.043Z</time></trkpt><trkpt lat="46.5450217" lon="12.5959167"><ele>1050.5714285714287</ele><time>2026-04-26T16:00:16.039Z</time></trkpt><trkpt lat="46.5449567" lon="12.5959017"><ele>1054.142857142857</ele><time>2026-04-26T16:00:17.042Z</time></trkpt><trkpt lat="46.5448917" lon="12.5958767"><ele>1057.7142857142858</ele><time>2026-04-26T16:00:18.044Z</time></trkpt><trkpt lat="46.544825" lon="12.5958383"><ele>1061.2857142857142</ele><time>2026-04-26T16:00:19.042Z</time></trkpt><trkpt lat="46.5447583" lon="12.5958017"><ele>1064.857142857143</ele><time>2026-04-26T16:00:20.042Z</time></trkpt><trkpt lat="46.5446967" lon="12.59576"><ele>1068.4285714285716</ele><time>2026-04-26T16:00:21.041Z</time></trkpt><trkpt lat="46.544635" lon="12.5957167"><ele>1072.0</ele><time>2026-04-26T16:00:22.036Z</time></trkpt><trkpt lat="46.5445717" lon="12.5956617"><ele>1073.1666666666665</ele><time>2026-04-26T16:00:23.04Z</time></trkpt><trkpt lat="46.5445083" lon="12.595595"><ele>1074.3333333333333</ele><time>2026-04-26T16:00:24.041Z</time></trkpt><trkpt lat="46.5444383" lon="12.5955317"><ele>1075.5</ele><time>2026-04-26T16:00:25.038Z</time></trkpt><trkpt lat="46.5443717" lon="12.5954633"><ele>1076.6666666666667</ele><time>2026-04-26T16:00:26.043Z</time></trkpt><trkpt lat="46.544295" lon="12.5953983"><ele>1077.8333333333335</ele><time>2026-04-26T16:00:27.042Z</time></trkpt><trkpt lat="46.544215" lon="12.5953383"><ele>1079.0</ele><time>2026-04-26T16:00:28.04Z</time></trkpt><trkpt lat="46.5441283" lon="12.595285"><ele>1080.6666666666667</ele><time>2026-04-26T16:00:29.044Z</time></trkpt><trkpt lat="46.544045" lon="12.59525"><ele>1082.3333333333335</ele><time>2026-04-26T16:00:30.04Z</time></trkpt><trkpt lat="46.54396" lon="12.5952283"><ele>1084.0</ele><time>2026-04-26T16:00:31.04Z</time></trkpt><trkpt lat="46.543875" lon="12.59521"><ele>1085.6666666666667</ele><time>2026-04-26T16:00:32.044Z</time></trkpt><trkpt lat="46.54379" lon="12.59519"><ele>1087.3333333333333</ele><time>2026-04-26T16:00:33.044Z</time></trkpt><trkpt lat="46.5437017" lon="12.5951833"><ele>1089.0</ele><time>2026-04-26T16:00:34.04Z</time></trkpt><trkpt lat="46.543615" lon="12.5951817"><ele>1089.5</ele><time>2026-04-26T16:00:35.042Z</time></trkpt><trkpt lat="46.54353" lon="12.59519"><ele>1090.0</ele><time>2026-04-26T16:00:36.042Z</time></trkpt><trkpt lat="46.5434467" lon="12.5952067"><ele>1090.5</ele><time>2026-04-26T16:00:37.04Z</time></trkpt><trkpt lat="46.5433583" lon="12.59523"><ele>1091.0</ele><time>2026-04-26T16:00:38.044Z</time></trkpt><trkpt lat="46.5432733" lon="12.59525"><ele>1091.5</ele><time>2026-04-26T16:00:39.04Z</time></trkpt><trkpt lat="46.5431883" lon="12.5952683"><ele>1092.0</ele><time>2026-04-26T16:00:40.038Z</time></trkpt><trkpt lat="46.5431017" lon="12.595285"><ele>1092.0</ele><time>2026-04-26T16:00:41.041Z</time></trkpt><trkpt lat="46.5430167" lon="12.5952983"><ele>1092.0</ele><time>2026-04-26T16:00:42.043Z</time></trkpt><trkpt lat="46.54293" lon="12.5953083"><ele>1092.0</ele><time>2026-04-26T16:00:43.041Z</time></trkpt><trkpt lat="46.542845" lon="12.595325"><ele>1092.0</ele><time>2026-04-26T16:00:44.04Z</time></trkpt><trkpt lat="46.54277" lon="12.5953333"><ele>1092.0</ele><time>2026-04-26T16:00:45.042Z</time></trkpt><trkpt lat="46.5426967" lon="12.5953417"><ele>1092.0</ele><time>2026-04-26T16:00:46.041Z</time></trkpt><trkpt lat="46.5426233" lon="12.5953483"><ele>1091.0</ele><time>2026-04-26T16:00:47.042Z</time></trkpt><trkpt lat="46.5425483" lon="12.59536"><ele>1090.0</ele><time>2026-04-26T16:00:48.042Z</time></trkpt><trkpt lat="46.5424717" lon="12.595375"><ele>1089.0</ele><time>2026-04-26T16:00:49.043Z</time></trkpt><trkpt lat="46.542395" lon="12.5954017"><ele>1088.0</ele><time>2026-04-26T16:00:50.042Z</time></trkpt><trkpt lat="46.5423283" lon="12.5954367"><ele>1087.0</ele><time>2026-04-26T16:00:51.042Z</time></trkpt><trkpt lat="46.5422567" lon="12.59548"><ele>1086.0</ele><time>2026-04-26T16:00:52.038Z</time></trkpt><trkpt lat="46.54219" lon="12.5955217"><ele>1086.0</ele><time>2026-04-26T16:00:53.039Z</time></trkpt><trkpt lat="46.5421283" lon="12.5955617"><ele>1086.0</ele><time>2026-04-26T16:00:54.04Z</time></trkpt><trkpt lat="46.542025" lon="12.595595"><ele>1086.0</ele><time>2026-04-26T16:00:56.041Z</time></trkpt><trkpt lat="46.5419517" lon="12.5955383"><ele>1086.0</ele><time>2026-04-26T16:00:58.036Z</time></trkpt><trkpt lat="46.542045" lon="12.59541"><ele>1086.0</ele><time>2026-04-26T16:01:01.041Z</time></trkpt><trkpt lat="46.5420917" lon="12.5953483"><ele>1086.0</ele><time>2026-04-26T16:01:02.042Z</time></trkpt><trkpt lat="46.5421433" lon="12.59527"><ele>1089.0</ele><time>2026-04-26T16:01:03.038Z</time></trkpt><trkpt lat="46.542195" lon="12.5951917"><ele>1092.0</ele><time>2026-04-26T16:01:04.036Z</time></trkpt><trkpt lat="46.5422533" lon="12.5951183"><ele>1095.0</ele><time>2026-04-26T16:01:05.037Z</time></trkpt><trkpt lat="46.54231" lon="12.5950617"><ele>1098.0</ele><time>2026-04-26T16:01:06.037Z</time></trkpt><trkpt lat="46.5423783" lon="12.5950067"><ele>1101.0</ele><time>2026-04-26T16:01:07.038Z</time></trkpt><trkpt lat="46.5424567" lon="12.594955"><ele>1104.0</ele><time>2026-04-26T16:01:08.043Z</time></trkpt><trkpt lat="46.542525" lon="12.5949183"><ele>1104.0</ele><time>2026-04-26T16:01:09.037Z</time></trkpt><trkpt lat="46.5425933" lon="12.594845"><ele>1104.0</ele><time>2026-04-26T16:01:10.037Z</time></trkpt><trkpt lat="46.5426617" lon="12.5947583"><ele>1104.0</ele><time>2026-04-26T16:01:11.039Z</time></trkpt><trkpt lat="46.5427133" lon="12.5946783"><ele>1104.0</ele><time>2026-04-26T16:01:12.039Z</time></trkpt><trkpt lat="46.542765" lon="12.5945983"><ele>1104.0</ele><time>2026-04-26T16:01:13.038Z</time></trkpt><trkpt lat="46.5428083" lon="12.594515"><ele>1104.0</ele><time>2026-04-26T16:01:14.039Z</time></trkpt><trkpt lat="46.5428383" lon="12.59443"><ele>1104.0</ele><time>2026-04-26T16:01:15.037Z</time></trkpt><trkpt lat="46.5428583" lon="12.5942633"><ele>1104.0</ele><time>2026-04-26T16:01:17.037Z</time></trkpt><trkpt lat="46.5427333" lon="12.594335"><ele>1104.0</ele><time>2026-04-26T16:01:21.04Z</time></trkpt><trkpt lat="46.5426533" lon="12.5944383"><ele>1104.0</ele><time>2026-04-26T16:01:22.034Z</time></trkpt><trkpt lat="46.542585" lon="12.5945283"><ele>1104.0</ele><time>2026-04-26T16:01:23.035Z</time></trkpt><trkpt lat="46.5425083" lon="12.5946083"><ele>1104.0</ele><time>2026-04-26T16:01:24.04Z</time></trkpt><trkpt lat="46.5424183" lon="12.59469"><ele>1104.0</ele><time>2026-04-26T16:01:25.038Z</time></trkpt><trkpt lat="46.5423267" lon="12.5947683"><ele>1104.0</ele><time>2026-04-26T16:01:26.041Z</time></trkpt><trkpt lat="46.5422283" lon="12.5948567"><ele>1104.0</ele><time>2026-04-26T16:01:27.038Z</time></trkpt><trkpt lat="46.5421333" lon="12.594945"><ele>1104.5</ele><time>2026-04-26T16:01:28.04Z</time></trkpt><trkpt lat="46.5420383" lon="12.595035"><ele>1105.0</ele><time>2026-04-26T16:01:29.039Z</time></trkpt><trkpt lat="46.541945" lon="12.5951367"><ele>1105.5</ele><time>2026-04-26T16:01:30.041Z</time></trkpt><trkpt lat="46.5418533" lon="12.5952383"><ele>1106.0</ele><time>2026-04-26T16:01:31.036Z</time></trkpt><trkpt lat="46.54176" lon="12.59534"><ele>1106.0</ele><time>2026-04-26T16:01:32.036Z</time></trkpt><trkpt lat="46.5416633" lon="12.595425"><ele>1106.0</ele><time>2026-04-26T16:01:33.036Z</time></trkpt><trkpt lat="46.54156" lon="12.5955183"><ele>1106.0</ele><time>2026-04-26T16:01:34.035Z</time></trkpt><trkpt lat="46.54145" lon="12.5955983"><ele>1106.0</ele><time>2026-04-26T16:01:35.038Z</time></trkpt><trkpt lat="46.5413383" lon="12.59566"><ele>1106.0</ele><time>2026-04-26T16:01:36.035Z</time></trkpt><trkpt lat="46.541225" lon="12.5957017"><ele>1106.0</ele><time>2026-04-26T16:01:37.036Z</time></trkpt><trkpt lat="46.5411133" lon="12.595735"><ele>1106.0</ele><time>2026-04-26T16:01:38.04Z</time></trkpt><trkpt lat="46.5409983" lon="12.59577"><ele>1106.0</ele><time>2026-04-26T16:01:39.037Z</time></trkpt><trkpt lat="46.5408883" lon="12.59581"><ele>1108.6</ele><time>2026-04-26T16:01:40.035Z</time></trkpt><trkpt lat="46.5407867" lon="12.5958483"><ele>1111.1999999999998</ele><time>2026-04-26T16:01:41.038Z</time></trkpt><trkpt lat="46.5406867" lon="12.595875"><ele>1113.8000000000002</ele><time>2026-04-26T16:01:42.036Z</time></trkpt><trkpt lat="46.5405833" lon="12.59588"><ele>1116.4</ele><time>2026-04-26T16:01:43.04Z</time></trkpt><trkpt lat="46.54048" lon="12.5958733"><ele>1119.0</ele><time>2026-04-26T16:01:44.04Z</time></trkpt><trkpt lat="46.54038" lon="12.59587"><ele>1119.6000000000001</ele><time>2026-04-26T16:01:45.036Z</time></trkpt><trkpt lat="46.5402733" lon="12.59588"><ele>1120.2</ele><time>2026-04-26T16:01:46.035Z</time></trkpt><trkpt lat="46.5401633" lon="12.595895"><ele>1120.8000000000002</ele><time>2026-04-26T16:01:47.04Z</time></trkpt><trkpt lat="46.540055" lon="12.595915"><ele>1121.4</ele><time>2026-04-26T16:01:48.039Z</time></trkpt><trkpt lat="46.5399617" lon="12.5959317"><ele>1122.0</ele><time>2026-04-26T16:01:49.036Z</time></trkpt><trkpt lat="46.5398767" lon="12.5959383"><ele>1122.0</ele><time>2026-04-26T16:01:50.038Z</time></trkpt><trkpt lat="46.5398" lon="12.5959467"><ele>1122.0</ele><time>2026-04-26T16:01:51.034Z</time></trkpt><trkpt lat="46.5397233" lon="12.5959383"><ele>1122.0</ele><time>2026-04-26T16:01:52.036Z</time></trkpt><trkpt lat="46.53966" lon="12.5959117"><ele>1122.0</ele><time>2026-04-26T16:01:53.039Z</time></trkpt><trkpt lat="46.5396" lon="12.5958517"><ele>1122.0</ele><time>2026-04-26T16:01:54.038Z</time></trkpt><trkpt lat="46.5395383" lon="12.5957967"><ele>1122.0</ele><time>2026-04-26T16:01:55.036Z</time></trkpt><trkpt lat="46.53947" lon="12.5957467"><ele>1122.0</ele><time>2026-04-26T16:01:56.04Z</time></trkpt><trkpt lat="46.5394" lon="12.5957067"><ele>1122.0</ele><time>2026-04-26T16:01:57.04Z</time></trkpt><trkpt lat="46.5393283" lon="12.59568"><ele>1122.0</ele><time>2026-04-26T16:01:58.036Z</time></trkpt><trkpt lat="46.539255" lon="12.5956583"><ele>1122.0</ele><time>2026-04-26T16:01:59.035Z</time></trkpt><trkpt lat="46.539175" lon="12.5956467"><ele>1122.0</ele><time>2026-04-26T16:02:00.034Z</time></trkpt><trkpt lat="46.5390917" lon="12.5956367"><ele>1122.0</ele><time>2026-04-26T16:02:01.039Z</time></trkpt><trkpt lat="46.5390083" lon="12.5956367"><ele>1122.0</ele><time>2026-04-26T16:02:02.038Z</time></trkpt><trkpt lat="46.53892" lon="12.5956433"><ele>1122.0</ele><time>2026-04-26T16:02:03.038Z</time></trkpt><trkpt lat="46.5388333" lon="12.59564"><ele>1122.0</ele><time>2026-04-26T16:02:04.035Z</time></trkpt><trkpt lat="46.538745" lon="12.595645"><ele>1122.0</ele><time>2026-04-26T16:02:05.036Z</time></trkpt><trkpt lat="46.538655" lon="12.5956533"><ele>1122.0</ele><time>2026-04-26T16:02:06.039Z</time></trkpt><trkpt lat="46.53857" lon="12.5956633"><ele>1122.0</ele><time>2026-04-26T16:02:07.035Z</time></trkpt><trkpt lat="46.538485" lon="12.595685"><ele>1122.0</ele><time>2026-04-26T16:02:08.04Z</time></trkpt><trkpt lat="46.5384067" lon="12.595725"><ele>1122.1666666666667</ele><time>2026-04-26T16:02:09.035Z</time></trkpt><trkpt lat="46.538335" lon="12.5957867"><ele>1122.3333333333333</ele><time>2026-04-26T16:02:10.036Z</time></trkpt><trkpt lat="46.5382683" lon="12.5958617"><ele>1122.5</ele><time>2026-04-26T16:02:11.035Z</time></trkpt><trkpt lat="46.538205" lon="12.5959533"><ele>1122.6666666666665</ele><time>2026-04-26T16:02:12.037Z</time></trkpt><trkpt lat="46.5381417" lon="12.5960483"><ele>1122.8333333333333</ele><time>2026-04-26T16:02:13.035Z</time></trkpt><trkpt lat="46.538075" lon="12.596135"><ele>1123.0</ele><time>2026-04-26T16:02:14.04Z</time></trkpt><trkpt lat="46.5380117" lon="12.59622"><ele>1123.0</ele><time>2026-04-26T16:02:15.035Z</time></trkpt><trkpt lat="46.5379533" lon="12.5963017"><ele>1123.0</ele><time>2026-04-26T16:02:16.036Z</time></trkpt><trkpt lat="46.5378983" lon="12.5963817"><ele>1123.0</ele><time>2026-04-26T16:02:17.034Z</time></trkpt><trkpt lat="46.5378417" lon="12.5964617"><ele>1123.0</ele><time>2026-04-26T16:02:18.04Z</time></trkpt><trkpt lat="46.537785" lon="12.5965467"><ele>1123.0</ele><time>2026-04-26T16:02:19.04Z</time></trkpt><trkpt lat="46.53773" lon="12.5966383"><ele>1123.0</ele><time>2026-04-26T16:02:20.04Z</time></trkpt><trkpt lat="46.5376817" lon="12.59673"><ele>1125.1666666666665</ele><time>2026-04-26T16:02:21.04Z</time></trkpt><trkpt lat="46.537625" lon="12.5968133"><ele>1127.3333333333333</ele><time>2026-04-26T16:02:22.036Z</time></trkpt><trkpt lat="46.53757" lon="12.59689"><ele>1129.5</ele><time>2026-04-26T16:02:23.038Z</time></trkpt><trkpt lat="46.53751" lon="12.596965"><ele>1131.6666666666667</ele><time>2026-04-26T16:02:24.039Z</time></trkpt><trkpt lat="46.5374483" lon="12.59704"><ele>1133.8333333333335</ele><time>2026-04-26T16:02:25.04Z</time></trkpt><trkpt lat="46.5373817" lon="12.5971167"><ele>1136.0</ele><time>2026-04-26T16:02:26.041Z</time></trkpt><trkpt lat="46.5373083" lon="12.5971833"><ele>1136.0</ele><time>2026-04-26T16:02:27.038Z</time></trkpt><trkpt lat="46.537235" lon="12.5972417"><ele>1136.0</ele><time>2026-04-26T16:02:28.036Z</time></trkpt><trkpt lat="46.53716" lon="12.5973"><ele>1136.0</ele><time>2026-04-26T16:02:29.039Z</time></trkpt><trkpt lat="46.5370883" lon="12.59736"><ele>1136.0</ele><time>2026-04-26T16:02:30.04Z</time></trkpt><trkpt lat="46.5370183" lon="12.5974183"><ele>1136.0</ele><time>2026-04-26T16:02:31.04Z</time></trkpt><trkpt lat="46.536945" lon="12.5974717"><ele>1136.0</ele><time>2026-04-26T16:02:32.04Z</time></trkpt><trkpt lat="46.5368683" lon="12.5975183"><ele>1137.3333333333335</ele><time>2026-04-26T16:02:33.04Z</time></trkpt><trkpt lat="46.5367917" lon="12.5975617"><ele>1138.6666666666667</ele><time>2026-04-26T16:02:34.038Z</time></trkpt><trkpt lat="46.5367183" lon="12.5976033"><ele>1140.0</ele><time>2026-04-26T16:02:35.036Z</time></trkpt><trkpt lat="46.5366467" lon="12.597655"><ele>1141.3333333333333</ele><time>2026-04-26T16:02:36.04Z</time></trkpt><trkpt lat="46.5365767" lon="12.5977183"><ele>1142.6666666666665</ele><time>2026-04-26T16:02:37.04Z</time></trkpt><trkpt lat="46.5365183" lon="12.5977967"><ele>1144.0</ele><time>2026-04-26T16:02:38.039Z</time></trkpt><trkpt lat="46.5364667" lon="12.5978967"><ele>1144.0</ele><time>2026-04-26T16:02:39.038Z</time></trkpt><trkpt lat="46.536415" lon="12.5979967"><ele>1144.0</ele><time>2026-04-26T16:02:40.036Z</time></trkpt><trkpt lat="46.5363667" lon="12.598105"><ele>1144.0</ele><time>2026-04-26T16:02:41.036Z</time></trkpt><trkpt lat="46.5363183" lon="12.59821"><ele>1144.0</ele><time>2026-04-26T16:02:42.038Z</time></trkpt><trkpt lat="46.53627" lon="12.5983117"><ele>1144.0</ele><time>2026-04-26T16:02:43.038Z</time></trkpt><trkpt lat="46.536225" lon="12.5984033"><ele>1144.0</ele><time>2026-04-26T16:02:44.04Z</time></trkpt><trkpt lat="46.5361783" lon="12.5984933"><ele>1146.0</ele><time>2026-04-26T16:02:45.036Z</time></trkpt><trkpt lat="46.536125" lon="12.5985817"><ele>1148.0</ele><time>2026-04-26T16:02:46.034Z</time></trkpt><trkpt lat="46.5360683" lon="12.5986483"><ele>1150.0</ele><time>2026-04-26T16:02:47.035Z</time></trkpt><trkpt lat="46.536005" lon="12.598705"><ele>1152.0</ele><time>2026-04-26T16:02:48.035Z</time></trkpt><trkpt lat="46.53593" lon="12.59875"><ele>1154.0</ele><time>2026-04-26T16:02:49.038Z</time></trkpt><trkpt lat="46.5358483" lon="12.5987883"><ele>1156.0</ele><time>2026-04-26T16:02:50.039Z</time></trkpt><trkpt lat="46.53577" lon="12.5988283"><ele>1156.0</ele><time>2026-04-26T16:02:51.04Z</time></trkpt><trkpt lat="46.5356883" lon="12.5988767"><ele>1156.0</ele><time>2026-04-26T16:02:52.033Z</time></trkpt><trkpt lat="46.5356067" lon="12.5989217"><ele>1156.0</ele><time>2026-04-26T16:02:53.039Z</time></trkpt><trkpt lat="46.535525" lon="12.598965"><ele>1156.0</ele><time>2026-04-26T16:02:54.039Z</time></trkpt><trkpt lat="46.535445" lon="12.5990083"><ele>1156.0</ele><time>2026-04-26T16:02:55.038Z</time></trkpt><trkpt lat="46.5353617" lon="12.59905"><ele>1156.0</ele><time>2026-04-26T16:02:56.04Z</time></trkpt><trkpt lat="46.5352767" lon="12.5990583"><ele>1158.5</ele><time>2026-04-26T16:02:57.036Z</time></trkpt><trkpt lat="46.5351983" lon="12.5990417"><ele>1161.0</ele><time>2026-04-26T16:02:58.041Z</time></trkpt><trkpt lat="46.5351267" lon="12.5990033"><ele>1163.5</ele><time>2026-04-26T16:02:59.035Z</time></trkpt><trkpt lat="46.535055" lon="12.5989433"><ele>1166.0</ele><time>2026-04-26T16:03:00.039Z</time></trkpt><trkpt lat="46.5349883" lon="12.5988783"><ele>1168.5</ele><time>2026-04-26T16:03:01.039Z</time></trkpt><trkpt lat="46.53492" lon="12.598815"><ele>1171.0</ele><time>2026-04-26T16:03:02.038Z</time></trkpt><trkpt lat="46.5348517" lon="12.59875"><ele>1171.0</ele><time>2026-04-26T16:03:03.039Z</time></trkpt><trkpt lat="46.53478" lon="12.5986833"><ele>1171.0</ele><time>2026-04-26T16:03:04.036Z</time></trkpt><trkpt lat="46.5347083" lon="12.59865"><ele>1171.0</ele><time>2026-04-26T16:03:05.038Z</time></trkpt><trkpt lat="46.5346367" lon="12.5986383"><ele>1171.0</ele><time>2026-04-26T16:03:06.039Z</time></trkpt><trkpt lat="46.5345617" lon="12.5986517"><ele>1171.0</ele><time>2026-04-26T16:03:07.026Z</time></trkpt><trkpt lat="46.5344967" lon="12.5987083"><ele>1171.0</ele><time>2026-04-26T16:03:08.027Z</time></trkpt><trkpt lat="46.5344433" lon="12.598795"><ele>1171.2</ele><time>2026-04-26T16:03:09.027Z</time></trkpt><trkpt lat="46.5343933" lon="12.5989183"><ele>1171.3999999999999</ele><time>2026-04-26T16:03:10.026Z</time></trkpt><trkpt lat="46.5343517" lon="12.5990433"><ele>1171.6</ele><time>2026-04-26T16:03:11.026Z</time></trkpt><trkpt lat="46.5343217" lon="12.5992033"><ele>1171.8</ele><time>2026-04-26T16:03:12.027Z</time></trkpt><trkpt lat="46.534285" lon="12.5993483"><ele>1172.0</ele><time>2026-04-26T16:03:13.027Z</time></trkpt><trkpt lat="46.5342567" lon="12.5995033"><ele>1172.6</ele><time>2026-04-26T16:03:14.027Z</time></trkpt><trkpt lat="46.5342333" lon="12.5996667"><ele>1173.2</ele><time>2026-04-26T16:03:15.026Z</time></trkpt><trkpt lat="46.5341983" lon="12.5998117"><ele>1173.8</ele><time>2026-04-26T16:03:16.026Z</time></trkpt><trkpt lat="46.5341617" lon="12.5999367"><ele>1174.4</ele><time>2026-04-26T16:03:17.037Z</time></trkpt><trkpt lat="46.5341283" lon="12.6000417"><ele>1175.0</ele><time>2026-04-26T16:03:18.038Z</time></trkpt><trkpt lat="46.5340917" lon="12.6001233"><ele>1175.0</ele><time>2026-04-26T16:03:19.038Z</time></trkpt><trkpt lat="46.533995" lon="12.6001583"><ele>1175.0</ele><time>2026-04-26T16:03:21.04Z</time></trkpt><trkpt lat="46.533885" lon="12.60006"><ele>1175.0</ele><time>2026-04-26T16:03:23.039Z</time></trkpt><trkpt lat="46.5338267" lon="12.6000033"><ele>1175.0</ele><time>2026-04-26T16:03:24.037Z</time></trkpt><trkpt lat="46.5337267" lon="12.5999233"><ele>1175.0</ele><time>2026-04-26T16:03:26.026Z</time></trkpt><trkpt lat="46.5336233" lon="12.5999017"><ele>1176.4</ele><time>2026-04-26T16:03:28.026Z</time></trkpt><trkpt lat="46.53355" lon="12.59998"><ele>1177.8</ele><time>2026-04-26T16:03:30.025Z</time></trkpt><trkpt lat="46.5335933" lon="12.6001233"><ele>1179.2</ele><time>2026-04-26T16:03:32.027Z</time></trkpt><trkpt lat="46.53369" lon="12.6002183"><ele>1180.6</ele><time>2026-04-26T16:03:34.027Z</time></trkpt><trkpt lat="46.5337833" lon="12.6003383"><ele>1182.0</ele><time>2026-04-26T16:03:36.038Z</time></trkpt><trkpt lat="46.5337983" lon="12.6004617"><ele>1185.3333333333333</ele><time>2026-04-26T16:03:38.039Z</time></trkpt><trkpt lat="46.5337217" lon="12.600495"><ele>1188.6666666666667</ele><time>2026-04-26T16:03:41.037Z</time></trkpt><trkpt lat="46.5336283" lon="12.6004733"><ele>1192.0</ele><time>2026-04-26T16:03:43.038Z</time></trkpt><trkpt lat="46.533565" lon="12.6004633"><ele>1195.3333333333335</ele><time>2026-04-26T16:03:45.037Z</time></trkpt><trkpt lat="46.53351" lon="12.600535"><ele>1198.6666666666667</ele><time>2026-04-26T16:03:49.036Z</time></trkpt><trkpt lat="46.5334983" lon="12.6006467"><ele>1202.0</ele><time>2026-04-26T16:03:52.039Z</time></trkpt><trkpt lat="46.533455" lon="12.6007333"><ele>1202.0</ele><time>2026-04-26T16:03:56.039Z</time></trkpt><trkpt lat="46.53339" lon="12.6007033"><ele>1202.0</ele><time>2026-04-26T16:03:59.039Z</time></trkpt><trkpt lat="46.5333233" lon="12.6007"><ele>1202.0</ele><time>2026-04-26T16:04:02.039Z</time></trkpt><trkpt lat="46.5332617" lon="12.6006517"><ele>1202.0</ele><time>2026-04-26T16:04:05.035Z</time></trkpt><trkpt lat="46.5332733" lon="12.6007617"><ele>1202.0</ele><time>2026-04-26T16:04:10.036Z</time></trkpt><trkpt lat="46.5333367" lon="12.6008317"><ele>1202.0</ele><time>2026-04-26T16:04:12.04Z</time></trkpt><trkpt lat="46.53339" lon="12.6009217"><ele>1202.0</ele><time>2026-04-26T16:04:14.04Z</time></trkpt><trkpt lat="46.5334183" lon="12.601015"><ele>1202.0</ele><time>2026-04-26T16:04:16.036Z</time></trkpt><trkpt lat="46.533405" lon="12.601105"><ele>1202.0</ele><time>2026-04-26T16:04:18.039Z</time></trkpt><trkpt lat="46.533335" lon="12.6010683"><ele>1202.0</ele><time>2026-04-26T16:04:22.036Z</time></trkpt><trkpt lat="46.53327" lon="12.600985"><ele>1202.0</ele><time>2026-04-26T16:04:24.039Z</time></trkpt><trkpt lat="46.533195" lon="12.6009583"><ele>1202.0</ele><time>2026-04-26T16:04:26.036Z</time></trkpt><trkpt lat="46.5331317" lon="12.6009483"><ele>1202.0</ele><time>2026-04-26T16:04:28.035Z</time></trkpt><trkpt lat="46.533085" lon="12.601025"><ele>1202.0</ele><time>2026-04-26T16:04:32.036Z</time></trkpt><trkpt lat="46.5331567" lon="12.6011317"><ele>1203.0</ele><time>2026-04-26T16:04:34.035Z</time></trkpt><trkpt lat="46.5332033" lon="12.6011967"><ele>1204.0</ele><time>2026-04-26T16:04:35.036Z</time></trkpt><trkpt lat="46.5332483" lon="12.601265"><ele>1205.0</ele><time>2026-04-26T16:04:36.038Z</time></trkpt><trkpt lat="46.5332733" lon="12.6013783"><ele>1206.0</ele><time>2026-04-26T16:04:38.039Z</time></trkpt><trkpt lat="46.5332133" lon="12.6014533"><ele>1207.0</ele><time>2026-04-26T16:04:41.036Z</time></trkpt><trkpt lat="46.5331317" lon="12.6013883"><ele>1208.0</ele><time>2026-04-26T16:04:44.039Z</time></trkpt><trkpt lat="46.53307" lon="12.601365"><ele>1209.0</ele><time>2026-04-26T16:04:46.037Z</time></trkpt><trkpt lat="46.5329933" lon="12.6013517"><ele>1209.0</ele><time>2026-04-26T16:04:48.041Z</time></trkpt><trkpt lat="46.5329233" lon="12.6013767"><ele>1209.0</ele><time>2026-04-26T16:04:51.039Z</time></trkpt><trkpt lat="46.5329667" lon="12.6014817"><ele>1209.0</ele><time>2026-04-26T16:04:54.04Z</time></trkpt><trkpt lat="46.5329433" lon="12.6015717"><ele>1209.0</ele><time>2026-04-26T16:04:57.04Z</time></trkpt><trkpt lat="46.5328917" lon="12.6016467"><ele>1209.0</ele><time>2026-04-26T16:05:00.038Z</time></trkpt><trkpt lat="46.5328433" lon="12.601575"><ele>1209.0</ele><time>2026-04-26T16:05:04.033Z</time></trkpt><trkpt lat="46.5327817" lon="12.6014767"><ele>1214.1666666666667</ele><time>2026-04-26T16:05:06.038Z</time></trkpt><trkpt lat="46.53271" lon="12.601445"><ele>1219.3333333333333</ele><time>2026-04-26T16:05:09.034Z</time></trkpt><trkpt lat="46.5326517" lon="12.6014817"><ele>1224.5</ele><time>2026-04-26T16:05:13.039Z</time></trkpt><trkpt lat="46.5326933" lon="12.6016083"><ele>1229.6666666666665</ele><time>2026-04-26T16:05:16.036Z</time></trkpt><trkpt lat="46.5327517" lon="12.6017483"><ele>1234.8333333333333</ele><time>2026-04-26T16:05:18.039Z</time></trkpt><trkpt lat="46.5327617" lon="12.601845"><ele>1240.0</ele><time>2026-04-26T16:05:20.037Z</time></trkpt><trkpt lat="46.5327167" lon="12.6019233"><ele>1240.0</ele><time>2026-04-26T16:05:23.04Z</time></trkpt><trkpt lat="46.5326667" lon="12.6019917"><ele>1240.0</ele><time>2026-04-26T16:05:26.037Z</time></trkpt><trkpt lat="46.5326167" lon="12.601885"><ele>1240.0</ele><time>2026-04-26T16:05:29.037Z</time></trkpt><trkpt lat="46.5325533" lon="12.60184"><ele>1240.0</ele><time>2026-04-26T16:05:32.034Z</time></trkpt><trkpt lat="46.5324833" lon="12.601875"><ele>1240.0</ele><time>2026-04-26T16:05:35.034Z</time></trkpt><trkpt lat="46.5324983" lon="12.6019883"><ele>1240.0</ele><time>2026-04-26T16:05:38.039Z</time></trkpt><trkpt lat="46.5325933" lon="12.6020983"><ele>1242.8</ele><time>2026-04-26T16:05:40.037Z</time></trkpt><trkpt lat="46.5326317" lon="12.602175"><ele>1245.6</ele><time>2026-04-26T16:05:41.035Z</time></trkpt><trkpt lat="46.5326783" lon="12.602335"><ele>1248.4</ele><time>2026-04-26T16:05:43.04Z</time></trkpt><trkpt lat="46.5326533" lon="12.6024767"><ele>1251.2</ele><time>2026-04-26T16:05:45.037Z</time></trkpt><trkpt lat="46.5325433" lon="12.6023583"><ele>1254.0</ele><time>2026-04-26T16:05:48.039Z</time></trkpt><trkpt lat="46.5324633" lon="12.602205"><ele>1254.0</ele><time>2026-04-26T16:05:49.04Z</time></trkpt><trkpt lat="46.5323967" lon="12.60207"><ele>1254.0</ele><time>2026-04-26T16:05:50.038Z</time></trkpt><trkpt lat="46.5323367" lon="12.601945"><ele>1254.0</ele><time>2026-04-26T16:05:51.039Z</time></trkpt><trkpt lat="46.532275" lon="12.601815"><ele>1254.0</ele><time>2026-04-26T16:05:52.035Z</time></trkpt><trkpt lat="46.532195" lon="12.6017"><ele>1254.0</ele><time>2026-04-26T16:05:53.036Z</time></trkpt><trkpt lat="46.532115" lon="12.6016083"><ele>1254.0</ele><time>2026-04-26T16:05:54.042Z</time></trkpt><trkpt lat="46.532015" lon="12.601565"><ele>1254.0</ele><time>2026-04-26T16:05:55.041Z</time></trkpt><trkpt lat="46.5319133" lon="12.601555"><ele>1254.0</ele><time>2026-04-26T16:05:56.039Z</time></trkpt><trkpt lat="46.5318067" lon="12.6015633"><ele>1254.0</ele><time>2026-04-26T16:05:57.036Z</time></trkpt><trkpt lat="46.5316983" lon="12.6015717"><ele>1254.0</ele><time>2026-04-26T16:05:58.036Z</time></trkpt><trkpt lat="46.5315883" lon="12.6015833"><ele>1254.0</ele><time>2026-04-26T16:05:59.038Z</time></trkpt><trkpt lat="46.5314767" lon="12.60159"><ele>1254.0</ele><time>2026-04-26T16:06:00.04Z</time></trkpt><trkpt lat="46.5313633" lon="12.6015783"><ele>1254.0</ele><time>2026-04-26T16:06:01.036Z</time></trkpt><trkpt lat="46.5312583" lon="12.6015533"><ele>1254.0</ele><time>2026-04-26T16:06:02.038Z</time></trkpt><trkpt lat="46.531155" lon="12.6015083"><ele>1254.0</ele><time>2026-04-26T16:06:03.038Z</time></trkpt><trkpt lat="46.5310517" lon="12.6014317"><ele>1252.75</ele><time>2026-04-26T16:06:04.036Z</time></trkpt><trkpt lat="46.530955" lon="12.6013283"><ele>1251.5</ele><time>2026-04-26T16:06:05.038Z</time></trkpt><trkpt lat="46.53086" lon="12.60122"><ele>1250.25</ele><time>2026-04-26T16:06:06.037Z</time></trkpt><trkpt lat="46.5307683" lon="12.6011"><ele>1249.0</ele><time>2026-04-26T16:06:07.036Z</time></trkpt><trkpt lat="46.5306633" lon="12.6009983"><ele>1249.0</ele><time>2026-04-26T16:06:08.038Z</time></trkpt><trkpt lat="46.53056" lon="12.6009"><ele>1249.0</ele><time>2026-04-26T16:06:09.036Z</time></trkpt><trkpt lat="46.530465" lon="12.6008083"><ele>1249.0</ele><time>2026-04-26T16:06:10.035Z</time></trkpt><trkpt lat="46.5303667" lon="12.600735"><ele>1249.0</ele><time>2026-04-26T16:06:11.035Z</time></trkpt><trkpt lat="46.53026" lon="12.6006883"><ele>1254.25</ele><time>2026-04-26T16:06:12.041Z</time></trkpt><trkpt lat="46.5301517" lon="12.60066"><ele>1259.5</ele><time>2026-04-26T16:06:13.039Z</time></trkpt><trkpt lat="46.5300383" lon="12.6006483"><ele>1264.75</ele><time>2026-04-26T16:06:14.041Z</time></trkpt><trkpt lat="46.52992" lon="12.6006467"><ele>1270.0</ele><time>2026-04-26T16:06:15.039Z</time></trkpt><trkpt lat="46.5297983" lon="12.6006517"><ele>1270.0</ele><time>2026-04-26T16:06:16.035Z</time></trkpt><trkpt lat="46.529675" lon="12.600665"><ele>1270.0</ele><time>2026-04-26T16:06:17.035Z</time></trkpt><trkpt lat="46.5295533" lon="12.6006767"><ele>1270.0</ele><time>2026-04-26T16:06:18.035Z</time></trkpt><trkpt lat="46.52943" lon="12.6006833"><ele>1270.0</ele><time>2026-04-26T16:06:19.037Z</time></trkpt><trkpt lat="46.5293117" lon="12.6006833"><ele>1270.5</ele><time>2026-04-26T16:06:20.04Z</time></trkpt><trkpt lat="46.5291967" lon="12.6006783"><ele>1271.0</ele><time>2026-04-26T16:06:21.037Z</time></trkpt><trkpt lat="46.5290783" lon="12.6006583"><ele>1271.5</ele><time>2026-04-26T16:06:22.035Z</time></trkpt><trkpt lat="46.528965" lon="12.6006383"><ele>1272.0</ele><time>2026-04-26T16:06:23.034Z</time></trkpt><trkpt lat="46.5288517" lon="12.600615"><ele>1272.0</ele><time>2026-04-26T16:06:24.037Z</time></trkpt><trkpt lat="46.528735" lon="12.60059"><ele>1272.0</ele><time>2026-04-26T16:06:25.039Z</time></trkpt><trkpt lat="46.5286217" lon="12.600565"><ele>1272.0</ele><time>2026-04-26T16:06:26.039Z</time></trkpt><trkpt lat="46.52851" lon="12.600525"><ele>1272.0</ele><time>2026-04-26T16:06:27.04Z</time></trkpt><trkpt lat="46.5283933" lon="12.6004867"><ele>1272.0</ele><time>2026-04-26T16:06:28.035Z</time></trkpt><trkpt lat="46.5282783" lon="12.6004517"><ele>1272.0</ele><time>2026-04-26T16:06:29.038Z</time></trkpt><trkpt lat="46.5281583" lon="12.6004233"><ele>1272.0</ele><time>2026-04-26T16:06:30.038Z</time></trkpt><trkpt lat="46.5280483" lon="12.6003983"><ele>1272.0</ele><time>2026-04-26T16:06:31.036Z</time></trkpt><trkpt lat="46.5279517" lon="12.6003917"><ele>1272.0</ele><time>2026-04-26T16:06:32.041Z</time></trkpt><trkpt lat="46.5278667" lon="12.6004117"><ele>1272.0</ele><time>2026-04-26T16:06:33.034Z</time></trkpt><trkpt lat="46.527785" lon="12.6004533"><ele>1272.0</ele><time>2026-04-26T16:06:34.036Z</time></trkpt><trkpt lat="46.5276967" lon="12.6005117"><ele>1272.0</ele><time>2026-04-26T16:06:35.036Z</time></trkpt><trkpt lat="46.5276067" lon="12.600575"><ele>1272.0</ele><time>2026-04-26T16:06:36.04Z</time></trkpt><trkpt lat="46.5275117" lon="12.6006267"><ele>1272.0</ele><time>2026-04-26T16:06:37.039Z</time></trkpt><trkpt lat="46.52741" lon="12.6006683"><ele>1272.0</ele><time>2026-04-26T16:06:38.04Z</time></trkpt><trkpt lat="46.52731" lon="12.600695"><ele>1272.0</ele><time>2026-04-26T16:06:39.036Z</time></trkpt><trkpt lat="46.5272083" lon="12.6007083"><ele>1272.0</ele><time>2026-04-26T16:06:40.036Z</time></trkpt><trkpt lat="46.5271033" lon="12.6007217"><ele>1272.0</ele><time>2026-04-26T16:06:41.038Z</time></trkpt><trkpt lat="46.5269983" lon="12.6007217"><ele>1272.0</ele><time>2026-04-26T16:06:42.034Z</time></trkpt><trkpt lat="46.5268917" lon="12.600725"><ele>1271.8</ele><time>2026-04-26T16:06:43.037Z</time></trkpt><trkpt lat="46.52679" lon="12.6007367"><ele>1271.6</ele><time>2026-04-26T16:06:44.037Z</time></trkpt><trkpt lat="46.5266883" lon="12.60075"><ele>1271.3999999999999</ele><time>2026-04-26T16:06:45.034Z</time></trkpt><trkpt lat="46.5265833" lon="12.6007683"><ele>1271.2</ele><time>2026-04-26T16:06:46.035Z</time></trkpt><trkpt lat="46.52648" lon="12.6007983"><ele>1271.0</ele><time>2026-04-26T16:06:47.038Z</time></trkpt><trkpt lat="46.5263833" lon="12.60083"><ele>1271.0</ele><time>2026-04-26T16:06:48.04Z</time></trkpt><trkpt lat="46.5262833" lon="12.6008717"><ele>1271.0</ele><time>2026-04-26T16:06:49.034Z</time></trkpt><trkpt lat="46.526185" lon="12.600915"><ele>1271.0</ele><time>2026-04-26T16:06:50.039Z</time></trkpt><trkpt lat="46.526085" lon="12.6009467"><ele>1271.0</ele><time>2026-04-26T16:06:51.038Z</time></trkpt><trkpt lat="46.52598" lon="12.6009633"><ele>1271.0</ele><time>2026-04-26T16:06:52.036Z</time></trkpt><trkpt lat="46.5258817" lon="12.60096"><ele>1270.6</ele><time>2026-04-26T16:06:53.036Z</time></trkpt><trkpt lat="46.5257767" lon="12.60096"><ele>1270.1999999999998</ele><time>2026-04-26T16:06:54.04Z</time></trkpt><trkpt lat="46.52568" lon="12.600925"><ele>1269.8000000000002</ele><time>2026-04-26T16:06:55.038Z</time></trkpt><trkpt lat="46.5255817" lon="12.600875"><ele>1269.4</ele><time>2026-04-26T16:06:56.038Z</time></trkpt><trkpt lat="46.5254867" lon="12.60082"><ele>1269.0</ele><time>2026-04-26T16:06:57.034Z</time></trkpt><trkpt lat="46.5253917" lon="12.6007583"><ele>1271.6</ele><time>2026-04-26T16:06:58.036Z</time></trkpt><trkpt lat="46.525295" lon="12.6006967"><ele>1274.2</ele><time>2026-04-26T16:06:59.039Z</time></trkpt><trkpt lat="46.5252067" lon="12.6006417"><ele>1276.8</ele><time>2026-04-26T16:07:00.04Z</time></trkpt><trkpt lat="46.52512" lon="12.600605"><ele>1279.3999999999999</ele><time>2026-04-26T16:07:01.039Z</time></trkpt><trkpt lat="46.5250367" lon="12.6005733"><ele>1282.0</ele><time>2026-04-26T16:07:02.04Z</time></trkpt><trkpt lat="46.5249533" lon="12.6005583"><ele>1282.0</ele><time>2026-04-26T16:07:03.038Z</time></trkpt><trkpt lat="46.524865" lon="12.6005667"><ele>1282.0</ele><time>2026-04-26T16:07:04.036Z</time></trkpt><trkpt lat="46.5247817" lon="12.60059"><ele>1282.0</ele><time>2026-04-26T16:07:05.034Z</time></trkpt><trkpt lat="46.52469" lon="12.6006217"><ele>1282.0</ele><time>2026-04-26T16:07:06.04Z</time></trkpt><trkpt lat="46.5245967" lon="12.6006633"><ele>1282.0</ele><time>2026-04-26T16:07:07.038Z</time></trkpt><trkpt lat="46.5244983" lon="12.6007083"><ele>1282.25</ele><time>2026-04-26T16:07:08.042Z</time></trkpt><trkpt lat="46.5243983" lon="12.600765"><ele>1282.5</ele><time>2026-04-26T16:07:09.039Z</time></trkpt><trkpt lat="46.52429" lon="12.600825"><ele>1282.75</ele><time>2026-04-26T16:07:10.036Z</time></trkpt><trkpt lat="46.52418" lon="12.600885"><ele>1283.0</ele><time>2026-04-26T16:07:11.038Z</time></trkpt><trkpt lat="46.52407" lon="12.6009317"><ele>1283.0</ele><time>2026-04-26T16:07:12.038Z</time></trkpt><trkpt lat="46.5239733" lon="12.6009717"><ele>1283.0</ele><time>2026-04-26T16:07:13.039Z</time></trkpt><trkpt lat="46.5238833" lon="12.60098"><ele>1283.0</ele><time>2026-04-26T16:07:14.038Z</time></trkpt><trkpt lat="46.5238" lon="12.600945"><ele>1283.0</ele><time>2026-04-26T16:07:15.039Z</time></trkpt><trkpt lat="46.5237233" lon="12.6008767"><ele>1283.0</ele><time>2026-04-26T16:07:16.037Z</time></trkpt><trkpt lat="46.5236633" lon="12.6007817"><ele>1282.0</ele><time>2026-04-26T16:07:17.039Z</time></trkpt><trkpt lat="46.5236217" lon="12.6006533"><ele>1281.0</ele><time>2026-04-26T16:07:18.04Z</time></trkpt><trkpt lat="46.5235917" lon="12.6005083"><ele>1280.0</ele><time>2026-04-26T16:07:19.038Z</time></trkpt><trkpt lat="46.5235717" lon="12.60036"><ele>1279.0</ele><time>2026-04-26T16:07:20.042Z</time></trkpt><trkpt lat="46.523555" lon="12.600205"><ele>1278.0</ele><time>2026-04-26T16:07:21.04Z</time></trkpt><trkpt lat="46.52354" lon="12.6000533"><ele>1278.0</ele><time>2026-04-26T16:07:22.036Z</time></trkpt><trkpt lat="46.5235217" lon="12.5999167"><ele>1278.0</ele><time>2026-04-26T16:07:23.039Z</time></trkpt><trkpt lat="46.5234917" lon="12.599805"><ele>1278.0</ele><time>2026-04-26T16:07:24.04Z</time></trkpt><trkpt lat="46.5234483" lon="12.59971"><ele>1278.0</ele><time>2026-04-26T16:07:25.039Z</time></trkpt><trkpt lat="46.5233967" lon="12.599635"><ele>1278.0</ele><time>2026-04-26T16:07:26.038Z</time></trkpt><trkpt lat="46.5233267" lon="12.59958"><ele>1278.0</ele><time>2026-04-26T16:07:27.04Z</time></trkpt><trkpt lat="46.52324" lon="12.59956"><ele>1278.0</ele><time>2026-04-26T16:07:28.038Z</time></trkpt><trkpt lat="46.5231433" lon="12.5995667"><ele>1278.0</ele><time>2026-04-26T16:07:29.036Z</time></trkpt><trkpt lat="46.5230433" lon="12.59959"><ele>1278.0</ele><time>2026-04-26T16:07:30.039Z</time></trkpt><trkpt lat="46.5229383" lon="12.5996167"><ele>1278.0</ele><time>2026-04-26T16:07:31.041Z</time></trkpt><trkpt lat="46.5228333" lon="12.5996383"><ele>1278.0</ele><time>2026-04-26T16:07:32.039Z</time></trkpt><trkpt lat="46.5227267" lon="12.5996483"><ele>1280.0</ele><time>2026-04-26T16:07:33.039Z</time></trkpt><trkpt lat="46.52262" lon="12.5996233"><ele>1282.0</ele><time>2026-04-26T16:07:34.039Z</time></trkpt><trkpt lat="46.5225217" lon="12.599565"><ele>1284.0</ele><time>2026-04-26T16:07:35.04Z</time></trkpt><trkpt lat="46.5224217" lon="12.5995083"><ele>1286.0</ele><time>2026-04-26T16:07:36.041Z</time></trkpt><trkpt lat="46.5223317" lon="12.59944"><ele>1288.0</ele><time>2026-04-26T16:07:37.04Z</time></trkpt><trkpt lat="46.522245" lon="12.599355"><ele>1289.4</ele><time>2026-04-26T16:07:38.042Z</time></trkpt><trkpt lat="46.5221583" lon="12.599265"><ele>1290.8000000000002</ele><time>2026-04-26T16:07:39.039Z</time></trkpt><trkpt lat="46.5220783" lon="12.5991567"><ele>1292.2</ele><time>2026-04-26T16:07:40.036Z</time></trkpt><trkpt lat="46.521995" lon="12.59907"><ele>1293.6</ele><time>2026-04-26T16:07:41.04Z</time></trkpt><trkpt lat="46.5219067" lon="12.59899"><ele>1295.0</ele><time>2026-04-26T16:07:42.039Z</time></trkpt><trkpt lat="46.521815" lon="12.5989283"><ele>1295.0</ele><time>2026-04-26T16:07:43.04Z</time></trkpt><trkpt lat="46.5217233" lon="12.598875"><ele>1295.0</ele><time>2026-04-26T16:07:44.042Z</time></trkpt><trkpt lat="46.5216267" lon="12.59884"><ele>1295.0</ele><time>2026-04-26T16:07:45.04Z</time></trkpt><trkpt lat="46.521535" lon="12.598825"><ele>1295.0</ele><time>2026-04-26T16:07:46.039Z</time></trkpt><trkpt lat="46.5214383" lon="12.5988233"><ele>1295.0</ele><time>2026-04-26T16:07:47.039Z</time></trkpt><trkpt lat="46.52135" lon="12.5988317"><ele>1295.0</ele><time>2026-04-26T16:07:48.038Z</time></trkpt><trkpt lat="46.521255" lon="12.59884"><ele>1295.0</ele><time>2026-04-26T16:07:49.035Z</time></trkpt><trkpt lat="46.521165" lon="12.5988417"><ele>1295.0</ele><time>2026-04-26T16:07:50.039Z</time></trkpt><trkpt lat="46.5210717" lon="12.5988533"><ele>1295.0</ele><time>2026-04-26T16:07:51.039Z</time></trkpt><trkpt lat="46.520985" lon="12.598855"><ele>1295.0</ele><time>2026-04-26T16:07:52.04Z</time></trkpt><trkpt lat="46.5209" lon="12.59885"><ele>1295.4285714285713</ele><time>2026-04-26T16:07:53.039Z</time></trkpt><trkpt lat="46.5208183" lon="12.5988467"><ele>1295.857142857143</ele><time>2026-04-26T16:07:54.042Z</time></trkpt><trkpt lat="46.5207383" lon="12.5988383"><ele>1296.2857142857142</ele><time>2026-04-26T16:07:55.04Z</time></trkpt><trkpt lat="46.5206633" lon="12.5988333"><ele>1296.7142857142858</ele><time>2026-04-26T16:07:56.041Z</time></trkpt><trkpt lat="46.5205983" lon="12.5988217"><ele>1297.142857142857</ele><time>2026-04-26T16:07:57.04Z</time></trkpt><trkpt lat="46.5205267" lon="12.59882"><ele>1297.5714285714284</ele><time>2026-04-26T16:07:58.035Z</time></trkpt><trkpt lat="46.5204617" lon="12.598825"><ele>1298.0</ele><time>2026-04-26T16:07:59.04Z</time></trkpt><trkpt lat="46.5203583" lon="12.598835"><ele>1298.0</ele><time>2026-04-26T16:08:01.04Z</time></trkpt><trkpt lat="46.5202533" lon="12.5988517"><ele>1298.0</ele><time>2026-04-26T16:08:03.04Z</time></trkpt><trkpt lat="46.5201283" lon="12.5988417"><ele>1298.0</ele><time>2026-04-26T16:08:05.038Z</time></trkpt><trkpt lat="46.5200633" lon="12.5988267"><ele>1298.0</ele><time>2026-04-26T16:08:06.039Z</time></trkpt><trkpt lat="46.52" lon="12.5988117"><ele>1298.0</ele><time>2026-04-26T16:08:07.039Z</time></trkpt><trkpt lat="46.5199317" lon="12.5987983"><ele>1298.0</ele><time>2026-04-26T16:08:08.04Z</time></trkpt><trkpt lat="46.5198483" lon="12.5987967"><ele>1298.0</ele><time>2026-04-26T16:08:09.039Z</time></trkpt><trkpt lat="46.5197617" lon="12.5987983"><ele>1298.0</ele><time>2026-04-26T16:08:10.036Z</time></trkpt><trkpt lat="46.5196667" lon="12.5987867"><ele>1298.0</ele><time>2026-04-26T16:08:11.041Z</time></trkpt><trkpt lat="46.5195617" lon="12.5987533"><ele>1298.0</ele><time>2026-04-26T16:08:12.04Z</time></trkpt><trkpt lat="46.5194583" lon="12.59873"><ele>1298.0</ele><time>2026-04-26T16:08:13.04Z</time></trkpt><trkpt lat="46.5193467" lon="12.5987317"><ele>1299.25</ele><time>2026-04-26T16:08:14.039Z</time></trkpt><trkpt lat="46.519235" lon="12.5987583"><ele>1300.5</ele><time>2026-04-26T16:08:15.039Z</time></trkpt><trkpt lat="46.5191267" lon="12.598805"><ele>1301.75</ele><time>2026-04-26T16:08:16.037Z</time></trkpt><trkpt lat="46.51902" lon="12.59887"><ele>1303.0</ele><time>2026-04-26T16:08:17.039Z</time></trkpt><trkpt lat="46.5189117" lon="12.5989417"><ele>1303.0</ele><time>2026-04-26T16:08:18.038Z</time></trkpt><trkpt lat="46.518815" lon="12.599025"><ele>1303.0</ele><time>2026-04-26T16:08:19.039Z</time></trkpt><trkpt lat="46.5187217" lon="12.5991117"><ele>1303.0</ele><time>2026-04-26T16:08:20.041Z</time></trkpt><trkpt lat="46.5186267" lon="12.599195"><ele>1303.0</ele><time>2026-04-26T16:08:21.035Z</time></trkpt><trkpt lat="46.5185333" lon="12.5992783"><ele>1303.0</ele><time>2026-04-26T16:08:22.034Z</time></trkpt><trkpt lat="46.5184467" lon="12.5993683"><ele>1304.6000000000001</ele><time>2026-04-26T16:08:23.039Z</time></trkpt><trkpt lat="46.51836" lon="12.5994567"><ele>1306.2</ele><time>2026-04-26T16:08:24.038Z</time></trkpt><trkpt lat="46.5182683" lon="12.59952"><ele>1307.8</ele><time>2026-04-26T16:08:25.039Z</time></trkpt><trkpt lat="46.5181817" lon="12.5995617"><ele>1309.4</ele><time>2026-04-26T16:08:26.039Z</time></trkpt><trkpt lat="46.51809" lon="12.59959"><ele>1311.0</ele><time>2026-04-26T16:08:27.037Z</time></trkpt><trkpt lat="46.517995" lon="12.5996067"><ele>1312.0</ele><time>2026-04-26T16:08:28.038Z</time></trkpt><trkpt lat="46.517895" lon="12.5996183"><ele>1313.0</ele><time>2026-04-26T16:08:29.039Z</time></trkpt><trkpt lat="46.5177917" lon="12.5996267"><ele>1314.0</ele><time>2026-04-26T16:08:30.037Z</time></trkpt><trkpt lat="46.5176867" lon="12.5996317"><ele>1315.0</ele><time>2026-04-26T16:08:31.039Z</time></trkpt><trkpt lat="46.5175833" lon="12.599645"><ele>1316.0</ele><time>2026-04-26T16:08:32.041Z</time></trkpt><trkpt lat="46.5174833" lon="12.5996683"><ele>1316.0</ele><time>2026-04-26T16:08:33.037Z</time></trkpt><trkpt lat="46.517395" lon="12.5996917"><ele>1316.0</ele><time>2026-04-26T16:08:34.039Z</time></trkpt><trkpt lat="46.5173083" lon="12.59972"><ele>1316.0</ele><time>2026-04-26T16:08:35.036Z</time></trkpt><trkpt lat="46.51722" lon="12.5997533"><ele>1316.0</ele><time>2026-04-26T16:08:36.037Z</time></trkpt><trkpt lat="46.517135" lon="12.5997883"><ele>1316.0</ele><time>2026-04-26T16:08:37.039Z</time></trkpt><trkpt lat="46.5170467" lon="12.59984"><ele>1316.8</ele><time>2026-04-26T16:08:38.04Z</time></trkpt><trkpt lat="46.5169583" lon="12.5999017"><ele>1317.6</ele><time>2026-04-26T16:08:39.038Z</time></trkpt><trkpt lat="46.5168667" lon="12.5999617"><ele>1318.4</ele><time>2026-04-26T16:08:40.035Z</time></trkpt><trkpt lat="46.51677" lon="12.6000117"><ele>1319.2</ele><time>2026-04-26T16:08:41.038Z</time></trkpt><trkpt lat="46.51667" lon="12.6000483"><ele>1320.0</ele><time>2026-04-26T16:08:42.04Z</time></trkpt><trkpt lat="46.5165717" lon="12.600075"><ele>1320.0</ele><time>2026-04-26T16:08:43.039Z</time></trkpt><trkpt lat="46.51647" lon="12.6000917"><ele>1320.0</ele><time>2026-04-26T16:08:44.041Z</time></trkpt><trkpt lat="46.5163683" lon="12.6001"><ele>1320.0</ele><time>2026-04-26T16:08:45.04Z</time></trkpt><trkpt lat="46.5162633" lon="12.6001067"><ele>1320.0</ele><time>2026-04-26T16:08:46.035Z</time></trkpt><trkpt lat="46.5161633" lon="12.6001067"><ele>1320.0</ele><time>2026-04-26T16:08:47.036Z</time></trkpt><trkpt lat="46.5160667" lon="12.6001"><ele>1321.6</ele><time>2026-04-26T16:08:48.041Z</time></trkpt><trkpt lat="46.5159667" lon="12.6000917"><ele>1323.2</ele><time>2026-04-26T16:08:49.04Z</time></trkpt><trkpt lat="46.5158717" lon="12.6000817"><ele>1324.8000000000002</ele><time>2026-04-26T16:08:50.041Z</time></trkpt><trkpt lat="46.5157783" lon="12.6000733"><ele>1326.4</ele><time>2026-04-26T16:08:51.04Z</time></trkpt><trkpt lat="46.5156883" lon="12.600065"><ele>1328.0</ele><time>2026-04-26T16:08:52.037Z</time></trkpt><trkpt lat="46.5155933" lon="12.6000583"><ele>1328.0</ele><time>2026-04-26T16:08:53.037Z</time></trkpt><trkpt lat="46.5155" lon="12.600055"><ele>1328.0</ele><time>2026-04-26T16:08:54.039Z</time></trkpt><trkpt lat="46.5154083" lon="12.6000517"><ele>1328.0</ele><time>2026-04-26T16:08:55.036Z</time></trkpt><trkpt lat="46.515315" lon="12.60006"><ele>1328.0</ele><time>2026-04-26T16:08:56.041Z</time></trkpt><trkpt lat="46.51522" lon="12.6000783"><ele>1328.0</ele><time>2026-04-26T16:08:57.039Z</time></trkpt><trkpt lat="46.5151283" lon="12.60009"><ele>1329.8333333333335</ele><time>2026-04-26T16:08:58.039Z</time></trkpt><trkpt lat="46.5150433" lon="12.6001017"><ele>1331.6666666666667</ele><time>2026-04-26T16:08:59.04Z</time></trkpt><trkpt lat="46.5149583" lon="12.60012"><ele>1333.5</ele><time>2026-04-26T16:09:00.038Z</time></trkpt><trkpt lat="46.5148783" lon="12.60014"><ele>1335.3333333333333</ele><time>2026-04-26T16:09:01.036Z</time></trkpt><trkpt lat="46.5148067" lon="12.600155"><ele>1337.1666666666665</ele><time>2026-04-26T16:09:02.042Z</time></trkpt><trkpt lat="46.5147283" lon="12.6001717"><ele>1339.0</ele><time>2026-04-26T16:09:03.038Z</time></trkpt><trkpt lat="46.5146467" lon="12.60019"><ele>1339.0</ele><time>2026-04-26T16:09:04.04Z</time></trkpt><trkpt lat="46.5145733" lon="12.6002183"><ele>1339.0</ele><time>2026-04-26T16:09:05.038Z</time></trkpt><trkpt lat="46.5145033" lon="12.60025"><ele>1339.0</ele><time>2026-04-26T16:09:06.04Z</time></trkpt><trkpt lat="46.5144067" lon="12.6003283"><ele>1339.0</ele><time>2026-04-26T16:09:08.042Z</time></trkpt><trkpt lat="46.5143467" lon="12.6004667"><ele>1339.0</ele><time>2026-04-26T16:09:10.036Z</time></trkpt><trkpt lat="46.5143283" lon="12.6005617"><ele>1339.0</ele><time>2026-04-26T16:09:11.039Z</time></trkpt><trkpt lat="46.5142983" lon="12.6006667"><ele>1339.5</ele><time>2026-04-26T16:09:12.041Z</time></trkpt><trkpt lat="46.5142583" lon="12.60077"><ele>1340.0</ele><time>2026-04-26T16:09:13.04Z</time></trkpt><trkpt lat="46.51421" lon="12.6008633"><ele>1340.5</ele><time>2026-04-26T16:09:14.042Z</time></trkpt><trkpt lat="46.5141567" lon="12.600945"><ele>1341.0</ele><time>2026-04-26T16:09:15.034Z</time></trkpt><trkpt lat="46.5141" lon="12.6010433"><ele>1341.5</ele><time>2026-04-26T16:09:16.035Z</time></trkpt><trkpt lat="46.5140383" lon="12.6011233"><ele>1342.0</ele><time>2026-04-26T16:09:17.034Z</time></trkpt><trkpt lat="46.5139733" lon="12.6011983"><ele>1343.1999999999998</ele><time>2026-04-26T16:09:18.037Z</time></trkpt><trkpt lat="46.5139067" lon="12.6012483"><ele>1344.4</ele><time>2026-04-26T16:09:19.04Z</time></trkpt><trkpt lat="46.5138317" lon="12.6012967"><ele>1345.6</ele><time>2026-04-26T16:09:20.041Z</time></trkpt><trkpt lat="46.5137433" lon="12.6013533"><ele>1346.8000000000002</ele><time>2026-04-26T16:09:21.039Z</time></trkpt><trkpt lat="46.5136517" lon="12.6014167"><ele>1348.0</ele><time>2026-04-26T16:09:22.039Z</time></trkpt><trkpt lat="46.51356" lon="12.6014883"><ele>1348.0</ele><time>2026-04-26T16:09:23.038Z</time></trkpt><trkpt lat="46.5134667" lon="12.6015633"><ele>1348.0</ele><time>2026-04-26T16:09:24.041Z</time></trkpt><trkpt lat="46.513375" lon="12.6016467"><ele>1348.0</ele><time>2026-04-26T16:09:25.04Z</time></trkpt><trkpt lat="46.513295" lon="12.6017233"><ele>1348.0</ele><time>2026-04-26T16:09:26.04Z</time></trkpt><trkpt lat="46.5132183" lon="12.601795"><ele>1348.0</ele><time>2026-04-26T16:09:27.034Z</time></trkpt><trkpt lat="46.5131383" lon="12.601865"><ele>1348.0</ele><time>2026-04-26T16:09:28.036Z</time></trkpt><trkpt lat="46.5130683" lon="12.60192"><ele>1348.0</ele><time>2026-04-26T16:09:29.04Z</time></trkpt><trkpt lat="46.5129967" lon="12.6019567"><ele>1348.0</ele><time>2026-04-26T16:09:30.04Z</time></trkpt><trkpt lat="46.5129233" lon="12.601995"><ele>1348.0</ele><time>2026-04-26T16:09:31.04Z</time></trkpt><trkpt lat="46.5128567" lon="12.60203"><ele>1348.0</ele><time>2026-04-26T16:09:32.041Z</time></trkpt><trkpt lat="46.5127783" lon="12.6020617"><ele>1348.0</ele><time>2026-04-26T16:09:33.039Z</time></trkpt><trkpt lat="46.5126967" lon="12.6020833"><ele>1348.8000000000002</ele><time>2026-04-26T16:09:34.041Z</time></trkpt><trkpt lat="46.5126133" lon="12.6020833"><ele>1349.6</ele><time>2026-04-26T16:09:35.04Z</time></trkpt><trkpt lat="46.5125233" lon="12.602065"><ele>1350.4</ele><time>2026-04-26T16:09:36.04Z</time></trkpt><trkpt lat="46.5124333" lon="12.6020283"><ele>1351.1999999999998</ele><time>2026-04-26T16:09:37.039Z</time></trkpt><trkpt lat="46.5123417" lon="12.6019833"><ele>1352.0</ele><time>2026-04-26T16:09:38.041Z</time></trkpt><trkpt lat="46.512245" lon="12.6019433"><ele>1352.0</ele><time>2026-04-26T16:09:39.036Z</time></trkpt><trkpt lat="46.5121517" lon="12.601925"><ele>1352.0</ele><time>2026-04-26T16:09:40.04Z</time></trkpt><trkpt lat="46.5120683" lon="12.6019317"><ele>1352.0</ele><time>2026-04-26T16:09:41.039Z</time></trkpt><trkpt lat="46.5119867" lon="12.60196"><ele>1352.0</ele><time>2026-04-26T16:09:42.039Z</time></trkpt><trkpt lat="46.5119083" lon="12.60201"><ele>1352.0</ele><time>2026-04-26T16:09:43.039Z</time></trkpt><trkpt lat="46.5118383" lon="12.602085"><ele>1352.0</ele><time>2026-04-26T16:09:44.041Z</time></trkpt><trkpt lat="46.5117733" lon="12.6021783"><ele>1353.0</ele><time>2026-04-26T16:09:45.037Z</time></trkpt><trkpt lat="46.5117133" lon="12.602265"><ele>1354.0</ele><time>2026-04-26T16:09:46.039Z</time></trkpt><trkpt lat="46.5116533" lon="12.6023567"><ele>1355.0</ele><time>2026-04-26T16:09:47.039Z</time></trkpt><trkpt lat="46.5116" lon="12.602455"><ele>1356.0</ele><time>2026-04-26T16:09:48.042Z</time></trkpt><trkpt lat="46.5115567" lon="12.602565"><ele>1357.0</ele><time>2026-04-26T16:09:49.04Z</time></trkpt><trkpt lat="46.5115083" lon="12.6026767"><ele>1358.0</ele><time>2026-04-26T16:09:50.038Z</time></trkpt><trkpt lat="46.511455" lon="12.6027883"><ele>1358.8000000000002</ele><time>2026-04-26T16:09:51.039Z</time></trkpt><trkpt lat="46.51139" lon="12.6028917"><ele>1359.6</ele><time>2026-04-26T16:09:52.04Z</time></trkpt><trkpt lat="46.5113167" lon="12.602975"><ele>1360.4</ele><time>2026-04-26T16:09:53.04Z</time></trkpt><trkpt lat="46.5112383" lon="12.6030583"><ele>1361.1999999999998</ele><time>2026-04-26T16:09:54.039Z</time></trkpt><trkpt lat="46.5111583" lon="12.603135"><ele>1362.0</ele><time>2026-04-26T16:09:55.04Z</time></trkpt><trkpt lat="46.5110583" lon="12.6037067"><ele>1362.0</ele><time>2026-04-26T16:09:57.228Z</time></trkpt><trkpt lat="46.5108717" lon="12.603545"><ele>1362.0</ele><time>2026-04-26T16:09:59.036Z</time></trkpt><trkpt lat="46.5107667" lon="12.6035717"><ele>1362.0</ele><time>2026-04-26T16:10:00.034Z</time></trkpt><trkpt lat="46.5106783" lon="12.6036117"><ele>1362.0</ele><time>2026-04-26T16:10:01.038Z</time></trkpt><trkpt lat="46.510585" lon="12.6036433"><ele>1367.6</ele><time>2026-04-26T16:10:02.037Z</time></trkpt><trkpt lat="46.51049" lon="12.6036767"><ele>1373.1999999999998</ele><time>2026-04-26T16:10:03.04Z</time></trkpt><trkpt lat="46.5104" lon="12.6037183"><ele>1378.8</ele><time>2026-04-26T16:10:04.036Z</time></trkpt><trkpt lat="46.5103083" lon="12.603755"><ele>1384.4</ele><time>2026-04-26T16:10:05.039Z</time></trkpt><trkpt lat="46.5102183" lon="12.6037917"><ele>1390.0</ele><time>2026-04-26T16:10:06.036Z</time></trkpt><trkpt lat="46.510125" lon="12.603845"><ele>1390.8</ele><time>2026-04-26T16:10:07.038Z</time></trkpt><trkpt lat="46.51004" lon="12.6039083"><ele>1391.6</ele><time>2026-04-26T16:10:08.039Z</time></trkpt><trkpt lat="46.5099583" lon="12.6039683"><ele>1392.4</ele><time>2026-04-26T16:10:09.039Z</time></trkpt><trkpt lat="46.50987" lon="12.6040067"><ele>1393.2</ele><time>2026-04-26T16:10:10.036Z</time></trkpt><trkpt lat="46.5097817" lon="12.604045"><ele>1394.0</ele><time>2026-04-26T16:10:11.037Z</time></trkpt><trkpt lat="46.5097" lon="12.6040483"><ele>1394.0</ele><time>2026-04-26T16:10:12.038Z</time></trkpt><trkpt lat="46.5096217" lon="12.604025"><ele>1394.0</ele><time>2026-04-26T16:10:13.036Z</time></trkpt><trkpt lat="46.5095517" lon="12.6039517"><ele>1394.0</ele><time>2026-04-26T16:10:14.039Z</time></trkpt><trkpt lat="46.5094833" lon="12.6038567"><ele>1394.0</ele><time>2026-04-26T16:10:15.035Z</time></trkpt><trkpt lat="46.5094133" lon="12.60377"><ele>1394.0</ele><time>2026-04-26T16:10:16.034Z</time></trkpt><trkpt lat="46.509335" lon="12.60368"><ele>1390.4</ele><time>2026-04-26T16:10:17.034Z</time></trkpt><trkpt lat="46.509255" lon="12.6036"><ele>1386.8000000000002</ele><time>2026-04-26T16:10:18.025Z</time></trkpt><trkpt lat="46.5091683" lon="12.60351"><ele>1383.1999999999998</ele><time>2026-04-26T16:10:19.027Z</time></trkpt><trkpt lat="46.5090783" lon="12.6034267"><ele>1379.6</ele><time>2026-04-26T16:10:20.031Z</time></trkpt><trkpt lat="46.50899" lon="12.60338"><ele>1376.0</ele><time>2026-04-26T16:10:21.027Z</time></trkpt><trkpt lat="46.508895" lon="12.6033533"><ele>1376.0</ele><time>2026-04-26T16:10:22.027Z</time></trkpt><trkpt lat="46.5087983" lon="12.6033267"><ele>1376.0</ele><time>2026-04-26T16:10:23.027Z</time></trkpt><trkpt lat="46.5087067" lon="12.6033017"><ele>1376.0</ele><time>2026-04-26T16:10:24.026Z</time></trkpt><trkpt lat="46.5086133" lon="12.6032817"><ele>1376.0</ele><time>2026-04-26T16:10:25.026Z</time></trkpt><trkpt lat="46.5085217" lon="12.6032483"><ele>1376.0</ele><time>2026-04-26T16:10:26.03Z</time></trkpt><trkpt lat="46.5084367" lon="12.6032083"><ele>1382.1999999999998</ele><time>2026-04-26T16:10:27.027Z</time></trkpt><trkpt lat="46.5083467" lon="12.603165"><ele>1388.3999999999999</ele><time>2026-04-26T16:10:28.038Z</time></trkpt><trkpt lat="46.5082667" lon="12.6031167"><ele>1394.6</ele><time>2026-04-26T16:10:29.039Z</time></trkpt><trkpt lat="46.5081817" lon="12.6030583"><ele>1400.8</ele><time>2026-04-26T16:10:30.038Z</time></trkpt><trkpt lat="46.5081" lon="12.6030067"><ele>1407.0</ele><time>2026-04-26T16:10:31.036Z</time></trkpt><trkpt lat="46.5080033" lon="12.6029833"><ele>1407.0</ele><time>2026-04-26T16:10:32.04Z</time></trkpt><trkpt lat="46.5079117" lon="12.6029667"><ele>1407.0</ele><time>2026-04-26T16:10:33.035Z</time></trkpt><trkpt lat="46.507825" lon="12.60298"><ele>1407.0</ele><time>2026-04-26T16:10:34.036Z</time></trkpt><trkpt lat="46.5077317" lon="12.6029983"><ele>1407.0</ele><time>2026-04-26T16:10:35.037Z</time></trkpt><trkpt lat="46.5076383" lon="12.6030033"><ele>1407.0</ele><time>2026-04-26T16:10:36.038Z</time></trkpt><trkpt lat="46.5075433" lon="12.602995"><ele>1406.1999999999998</ele><time>2026-04-26T16:10:37.035Z</time></trkpt><trkpt lat="46.5074483" lon="12.602975"><ele>1405.4</ele><time>2026-04-26T16:10:38.035Z</time></trkpt><trkpt lat="46.507355" lon="12.6029417"><ele>1404.6</ele><time>2026-04-26T16:10:39.038Z</time></trkpt><trkpt lat="46.50727" lon="12.6029117"><ele>1403.8000000000002</ele><time>2026-04-26T16:10:40.034Z</time></trkpt><trkpt lat="46.507175" lon="12.6028983"><ele>1403.0</ele><time>2026-04-26T16:10:41.034Z</time></trkpt><trkpt lat="46.5070833" lon="12.6029083"><ele>1401.8333333333335</ele><time>2026-04-26T16:10:42.044Z</time></trkpt><trkpt lat="46.5070017" lon="12.6029317"><ele>1400.6666666666667</ele><time>2026-04-26T16:10:43.038Z</time></trkpt><trkpt lat="46.5069167" lon="12.60296"><ele>1399.5</ele><time>2026-04-26T16:10:44.032Z</time></trkpt><trkpt lat="46.5068333" lon="12.6029817"><ele>1398.3333333333333</ele><time>2026-04-26T16:10:45.026Z</time></trkpt><trkpt lat="46.5067567" lon="12.6029983"><ele>1397.1666666666665</ele><time>2026-04-26T16:10:46.026Z</time></trkpt><trkpt lat="46.50669" lon="12.6030083"><ele>1396.0</ele><time>2026-04-26T16:10:47.028Z</time></trkpt><trkpt lat="46.50658" lon="12.6030567"><ele>1396.0</ele><time>2026-04-26T16:10:49.029Z</time></trkpt><trkpt lat="46.5064933" lon="12.6031833"><ele>1396.0</ele><time>2026-04-26T16:10:51.025Z</time></trkpt><trkpt lat="46.5064433" lon="12.6032717"><ele>1396.0</ele><time>2026-04-26T16:10:52.027Z</time></trkpt><trkpt lat="46.5063967" lon="12.6033667"><ele>1396.0</ele><time>2026-04-26T16:10:53.026Z</time></trkpt><trkpt lat="46.50635" lon="12.6034683"><ele>1396.0</ele><time>2026-04-26T16:10:54.038Z</time></trkpt><trkpt lat="46.5063133" lon="12.6035533"><ele>1396.0</ele><time>2026-04-26T16:10:55.038Z</time></trkpt><trkpt lat="46.5062733" lon="12.603635"><ele>1393.3333333333333</ele><time>2026-04-26T16:10:56.039Z</time></trkpt><trkpt lat="46.5062367" lon="12.6037283"><ele>1390.6666666666665</ele><time>2026-04-26T16:10:57.035Z</time></trkpt><trkpt lat="46.5062017" lon="12.603805"><ele>1388.0</ele><time>2026-04-26T16:10:58.039Z</time></trkpt><trkpt lat="46.5061467" lon="12.6039333"><ele>1385.3333333333333</ele><time>2026-04-26T16:11:00.038Z</time></trkpt><trkpt lat="46.5061117" lon="12.60403"><ele>1382.6666666666667</ele><time>2026-04-26T16:11:02.038Z</time></trkpt><trkpt lat="46.5060733" lon="12.6041633"><ele>1380.0</ele><time>2026-04-26T16:11:05.038Z</time></trkpt><trkpt lat="46.5060017" lon="12.6042733"><ele>1380.0</ele><time>2026-04-26T16:11:07.034Z</time></trkpt><trkpt lat="46.5059517" lon="12.6043417"><ele>1380.0</ele><time>2026-04-26T16:11:08.039Z</time></trkpt><trkpt lat="46.5059033" lon="12.6044033"><ele>1380.0</ele><time>2026-04-26T16:11:09.037Z</time></trkpt><trkpt lat="46.5058217" lon="12.6045"><ele>1380.0</ele><time>2026-04-26T16:11:11.037Z</time></trkpt><trkpt lat="46.5057667" lon="12.60455"><ele>1380.0</ele><time>2026-04-26T16:11:13.037Z</time></trkpt><trkpt lat="46.5056683" lon="12.60459"><ele>1380.0</ele><time>2026-04-26T16:11:32.036Z</time></trkpt><trkpt lat="46.5055433" lon="12.60468"><ele>1380.0</ele><time>2026-04-26T16:11:44.043Z</time></trkpt><trkpt lat="46.5054683" lon="12.6047417"><ele>1380.0</ele><time>2026-04-26T16:11:47.038Z</time></trkpt><trkpt lat="46.505395" lon="12.6048033"><ele>1380.0</ele><time>2026-04-26T16:11:50.042Z</time></trkpt><trkpt lat="46.5053267" lon="12.6048433"><ele>1380.0</ele><time>2026-04-26T16:11:52.034Z</time></trkpt><trkpt lat="46.5052633" lon="12.6049"><ele>1380.0</ele><time>2026-04-26T16:11:54.04Z</time></trkpt><trkpt lat="46.505195" lon="12.6049433"><ele>1380.0</ele><time>2026-04-26T16:11:56.038Z</time></trkpt><trkpt lat="46.5051117" lon="12.604965"><ele>1380.0</ele><time>2026-04-26T16:11:59.039Z</time></trkpt><trkpt lat="46.5050467" lon="12.60497"><ele>1380.0</ele><time>2026-04-26T16:12:01.037Z</time></trkpt><trkpt lat="46.5049717" lon="12.6049933"><ele>1380.0</ele><time>2026-04-26T16:12:05.038Z</time></trkpt><trkpt lat="46.504895" lon="12.6050867"><ele>1380.0</ele><time>2026-04-26T16:12:08.038Z</time></trkpt><trkpt lat="46.504835" lon="12.6051933"><ele>1380.0</ele><time>2026-04-26T16:12:10.037Z</time></trkpt><trkpt lat="46.50476" lon="12.6052783"><ele>1380.0</ele><time>2026-04-26T16:12:12.038Z</time></trkpt><trkpt lat="46.504655" lon="12.6053183"><ele>1382.6</ele><time>2026-04-26T16:12:14.04Z</time></trkpt><trkpt lat="46.5045433" lon="12.6053383"><ele>1385.2</ele><time>2026-04-26T16:12:16.04Z</time></trkpt><trkpt lat="46.5044433" lon="12.60535"><ele>1387.8000000000002</ele><time>2026-04-26T16:12:18.041Z</time></trkpt><trkpt lat="46.5043667" lon="12.605375"><ele>1390.4</ele><time>2026-04-26T16:12:20.039Z</time></trkpt><trkpt lat="46.5042817" lon="12.6054417"><ele>1393.0</ele><time>2026-04-26T16:12:22.038Z</time></trkpt><trkpt lat="46.504195" lon="12.6055033"><ele>1393.0</ele><time>2026-04-26T16:12:24.038Z</time></trkpt><trkpt lat="46.5041133" lon="12.60553"><ele>1393.0</ele><time>2026-04-26T16:12:26.04Z</time></trkpt><trkpt lat="46.5040417" lon="12.60558"><ele>1393.0</ele><time>2026-04-26T16:12:28.038Z</time></trkpt><trkpt lat="46.5039433" lon="12.6056267"><ele>1393.0</ele><time>2026-04-26T16:12:30.038Z</time></trkpt><trkpt lat="46.50385" lon="12.60571"><ele>1393.0</ele><time>2026-04-26T16:12:32.039Z</time></trkpt><trkpt lat="46.5037867" lon="12.6058033"><ele>1391.3333333333333</ele><time>2026-04-26T16:12:34.037Z</time></trkpt><trkpt lat="46.50374" lon="12.6059167"><ele>1389.6666666666665</ele><time>2026-04-26T16:12:36.036Z</time></trkpt><trkpt lat="46.503695" lon="12.6060367"><ele>1388.0</ele><time>2026-04-26T16:12:38.041Z</time></trkpt><trkpt lat="46.503655" lon="12.606125"><ele>1386.3333333333333</ele><time>2026-04-26T16:12:40.036Z</time></trkpt><trkpt lat="46.503595" lon="12.6062467"><ele>1384.6666666666667</ele><time>2026-04-26T16:12:42.042Z</time></trkpt><trkpt lat="46.5035533" lon="12.6063417"><ele>1383.0</ele><time>2026-04-26T16:12:44.041Z</time></trkpt><trkpt lat="46.5034983" lon="12.606415"><ele>1387.0</ele><time>2026-04-26T16:12:50.042Z</time></trkpt><trkpt lat="46.5034233" lon="12.6064433"><ele>1391.0</ele><time>2026-04-26T16:12:53.04Z</time></trkpt><trkpt lat="46.50335" lon="12.6065083"><ele>1395.0</ele><time>2026-04-26T16:12:55.039Z</time></trkpt><trkpt lat="46.5032617" lon="12.6066167"><ele>1399.0</ele><time>2026-04-26T16:12:57.039Z</time></trkpt><trkpt lat="46.5031817" lon="12.6067067"><ele>1403.0</ele><time>2026-04-26T16:12:59.038Z</time></trkpt><trkpt lat="46.503085" lon="12.6067633"><ele>1403.0</ele><time>2026-04-26T16:13:01.037Z</time></trkpt><trkpt lat="46.5029817" lon="12.6068183"><ele>1403.0</ele><time>2026-04-26T16:13:03.037Z</time></trkpt><trkpt lat="46.50289" lon="12.606845"><ele>1403.0</ele><time>2026-04-26T16:13:05.039Z</time></trkpt><trkpt lat="46.5028083" lon="12.6068717"><ele>1403.0</ele><time>2026-04-26T16:13:07.034Z</time></trkpt><trkpt lat="46.5027333" lon="12.6069"><ele>1403.0</ele><time>2026-04-26T16:13:09.037Z</time></trkpt><trkpt lat="46.5026583" lon="12.6069367"><ele>1403.0</ele><time>2026-04-26T16:13:11.035Z</time></trkpt><trkpt lat="46.5025933" lon="12.606965"><ele>1404.6000000000001</ele><time>2026-04-26T16:13:13.036Z</time></trkpt><trkpt lat="46.5025617" lon="12.6070633"><ele>1406.2</ele><time>2026-04-26T16:13:25.039Z</time></trkpt><trkpt lat="46.50251" lon="12.6071483"><ele>1407.8</ele><time>2026-04-26T16:13:28.039Z</time></trkpt><trkpt lat="46.5024417" lon="12.6072533"><ele>1409.4</ele><time>2026-04-26T16:13:31.038Z</time></trkpt><trkpt lat="46.5023567" lon="12.60733"><ele>1411.0</ele><time>2026-04-26T16:13:33.037Z</time></trkpt><trkpt lat="46.5022567" lon="12.6074233"><ele>1411.0</ele><time>2026-04-26T16:13:35.038Z</time></trkpt><trkpt lat="46.5021633" lon="12.60752"><ele>1411.0</ele><time>2026-04-26T16:13:37.037Z</time></trkpt><trkpt lat="46.50207" lon="12.60763"><ele>1411.0</ele><time>2026-04-26T16:13:39.037Z</time></trkpt><trkpt lat="46.5019867" lon="12.6077517"><ele>1411.0</ele><time>2026-04-26T16:13:41.037Z</time></trkpt><trkpt lat="46.5018917" lon="12.60783"><ele>1412.1666666666665</ele><time>2026-04-26T16:13:43.038Z</time></trkpt><trkpt lat="46.5017917" lon="12.6078967"><ele>1413.3333333333333</ele><time>2026-04-26T16:13:45.037Z</time></trkpt><trkpt lat="46.5017383" lon="12.6079467"><ele>1414.5</ele><time>2026-04-26T16:13:46.041Z</time></trkpt><trkpt lat="46.5016867" lon="12.6080017"><ele>1415.6666666666667</ele><time>2026-04-26T16:13:47.036Z</time></trkpt><trkpt lat="46.5016183" lon="12.60811"><ele>1416.8333333333335</ele><time>2026-04-26T16:13:49.036Z</time></trkpt><trkpt lat="46.5015533" lon="12.6082083"><ele>1418.0</ele><time>2026-04-26T16:13:51.038Z</time></trkpt><trkpt lat="46.5015033" lon="12.6082917"><ele>1418.0</ele><time>2026-04-26T16:13:53.036Z</time></trkpt><trkpt lat="46.501455" lon="12.60836"><ele>1418.0</ele><time>2026-04-26T16:13:55.037Z</time></trkpt><trkpt lat="46.501395" lon="12.60844"><ele>1418.0</ele><time>2026-04-26T16:13:57.037Z</time></trkpt><trkpt lat="46.50134" lon="12.6085533"><ele>1418.0</ele><time>2026-04-26T16:13:59.035Z</time></trkpt><trkpt lat="46.5012717" lon="12.608635"><ele>1418.0</ele><time>2026-04-26T16:14:01.039Z</time></trkpt><trkpt lat="46.5011967" lon="12.60872"><ele>1418.0</ele><time>2026-04-26T16:14:03.036Z</time></trkpt><trkpt lat="46.5011267" lon="12.6088167"><ele>1417.3333333333335</ele><time>2026-04-26T16:14:05.033Z</time></trkpt><trkpt lat="46.5010833" lon="12.6089283"><ele>1416.6666666666667</ele><time>2026-04-26T16:14:07.035Z</time></trkpt><trkpt lat="46.501035" lon="12.60904"><ele>1416.0</ele><time>2026-04-26T16:14:09.038Z</time></trkpt><trkpt lat="46.5009867" lon="12.6091083"><ele>1415.3333333333333</ele><time>2026-04-26T16:14:10.034Z</time></trkpt><trkpt lat="46.5009333" lon="12.6091783"><ele>1414.6666666666665</ele><time>2026-04-26T16:14:11.038Z</time></trkpt><trkpt lat="46.5008767" lon="12.6092617"><ele>1414.0</ele><time>2026-04-26T16:14:12.039Z</time></trkpt><trkpt lat="46.500825" lon="12.6093367"><ele>1414.0</ele><time>2026-04-26T16:14:13.039Z</time></trkpt><trkpt lat="46.5007767" lon="12.6094083"><ele>1414.0</ele><time>2026-04-26T16:14:14.042Z</time></trkpt><trkpt lat="46.5007367" lon="12.6094833"><ele>1414.0</ele><time>2026-04-26T16:14:15.039Z</time></trkpt><trkpt lat="46.5007133" lon="12.6095783"><ele>1414.0</ele><time>2026-04-26T16:14:16.039Z</time></trkpt><trkpt lat="46.5006967" lon="12.609685"><ele>1414.0</ele><time>2026-04-26T16:14:17.039Z</time></trkpt><trkpt lat="46.5006867" lon="12.6097933"><ele>1414.0</ele><time>2026-04-26T16:14:18.038Z</time></trkpt><trkpt lat="46.5006683" lon="12.6098967"><ele>1414.0</ele><time>2026-04-26T16:14:19.036Z</time></trkpt><trkpt lat="46.5006483" lon="12.6100067"><ele>1416.6666666666665</ele><time>2026-04-26T16:14:20.041Z</time></trkpt><trkpt lat="46.5006283" lon="12.610105"><ele>1419.3333333333333</ele><time>2026-04-26T16:14:21.039Z</time></trkpt><trkpt lat="46.5006067" lon="12.6101967"><ele>1422.0</ele><time>2026-04-26T16:14:22.039Z</time></trkpt><trkpt lat="46.50059" lon="12.6102917"><ele>1424.6666666666667</ele><time>2026-04-26T16:14:23.037Z</time></trkpt><trkpt lat="46.500575" lon="12.6103883"><ele>1427.3333333333335</ele><time>2026-04-26T16:14:24.037Z</time></trkpt><trkpt lat="46.5005633" lon="12.6104817"><ele>1430.0</ele><time>2026-04-26T16:14:25.038Z</time></trkpt><trkpt lat="46.5005383" lon="12.6106517"><ele>1431.8333333333335</ele><time>2026-04-26T16:14:27.035Z</time></trkpt><trkpt lat="46.500525" lon="12.610745"><ele>1433.6666666666667</ele><time>2026-04-26T16:14:28.037Z</time></trkpt><trkpt lat="46.5005133" lon="12.6108617"><ele>1435.5</ele><time>2026-04-26T16:14:29.038Z</time></trkpt><trkpt lat="46.5005" lon="12.6109667"><ele>1437.3333333333333</ele><time>2026-04-26T16:14:30.036Z</time></trkpt><trkpt lat="46.5004867" lon="12.6110817"><ele>1439.1666666666665</ele><time>2026-04-26T16:14:31.038Z</time></trkpt><trkpt lat="46.50047" lon="12.6111983"><ele>1441.0</ele><time>2026-04-26T16:14:32.038Z</time></trkpt><trkpt lat="46.5004483" lon="12.611305"><ele>1443.3333333333333</ele><time>2026-04-26T16:14:33.038Z</time></trkpt><trkpt lat="46.50042" lon="12.6114067"><ele>1445.6666666666665</ele><time>2026-04-26T16:14:34.035Z</time></trkpt><trkpt lat="46.5003933" lon="12.611505"><ele>1448.0</ele><time>2026-04-26T16:14:35.038Z</time></trkpt><trkpt lat="46.50037" lon="12.6116133"><ele>1450.3333333333333</ele><time>2026-04-26T16:14:36.041Z</time></trkpt><trkpt lat="46.5003467" lon="12.61173"><ele>1452.6666666666667</ele><time>2026-04-26T16:14:37.038Z</time></trkpt><trkpt lat="46.5003233" lon="12.61184"><ele>1455.0</ele><time>2026-04-26T16:14:38.038Z</time></trkpt><trkpt lat="46.5002967" lon="12.6119483"><ele>1451.4285714285713</ele><time>2026-04-26T16:14:39.037Z</time></trkpt><trkpt lat="46.50027" lon="12.6120567"><ele>1447.8571428571427</ele><time>2026-04-26T16:14:40.038Z</time></trkpt><trkpt lat="46.5002433" lon="12.6121583"><ele>1444.2857142857142</ele><time>2026-04-26T16:14:41.039Z</time></trkpt><trkpt lat="46.50022" lon="12.612265"><ele>1440.7142857142858</ele><time>2026-04-26T16:14:42.039Z</time></trkpt><trkpt lat="46.5002067" lon="12.6123683"><ele>1437.142857142857</ele><time>2026-04-26T16:14:43.038Z</time></trkpt><trkpt lat="46.5002017" lon="12.6124733"><ele>1433.5714285714287</ele><time>2026-04-26T16:14:44.039Z</time></trkpt><trkpt lat="46.5001983" lon="12.612575"><ele>1430.0</ele><time>2026-04-26T16:14:45.04Z</time></trkpt><trkpt lat="46.500215" lon="12.612685"><ele>1430.0</ele><time>2026-04-26T16:14:46.037Z</time></trkpt><trkpt lat="46.50023" lon="12.6127917"><ele>1430.0</ele><time>2026-04-26T16:14:47.039Z</time></trkpt><trkpt lat="46.5002383" lon="12.6128917"><ele>1430.0</ele><time>2026-04-26T16:14:48.038Z</time></trkpt><trkpt lat="46.5002483" lon="12.6129967"><ele>1430.0</ele><time>2026-04-26T16:14:49.039Z</time></trkpt><trkpt lat="46.500255" lon="12.6130967"><ele>1430.0</ele><time>2026-04-26T16:14:50.04Z</time></trkpt><trkpt lat="46.5002583" lon="12.6131967"><ele>1430.0</ele><time>2026-04-26T16:14:51.04Z</time></trkpt><trkpt lat="46.5002583" lon="12.613295"><ele>1430.0</ele><time>2026-04-26T16:14:52.038Z</time></trkpt><trkpt lat="46.5002583" lon="12.6134033"><ele>1430.3333333333335</ele><time>2026-04-26T16:14:53.038Z</time></trkpt><trkpt lat="46.50026" lon="12.61351"><ele>1430.6666666666667</ele><time>2026-04-26T16:14:54.037Z</time></trkpt><trkpt lat="46.5002633" lon="12.6136117"><ele>1431.0</ele><time>2026-04-26T16:14:55.034Z</time></trkpt><trkpt lat="46.5002633" lon="12.61371"><ele>1431.3333333333333</ele><time>2026-04-26T16:14:56.038Z</time></trkpt><trkpt lat="46.5002617" lon="12.613805"><ele>1431.6666666666665</ele><time>2026-04-26T16:14:57.039Z</time></trkpt><trkpt lat="46.5002333" lon="12.61398"><ele>1432.0</ele><time>2026-04-26T16:14:59.039Z</time></trkpt><trkpt lat="46.5002217" lon="12.6140717"><ele>1432.7142857142858</ele><time>2026-04-26T16:15:00.039Z</time></trkpt><trkpt lat="46.500215" lon="12.6141633"><ele>1433.4285714285716</ele><time>2026-04-26T16:15:01.035Z</time></trkpt><trkpt lat="46.5002083" lon="12.6142567"><ele>1434.1428571428573</ele><time>2026-04-26T16:15:02.038Z</time></trkpt><trkpt lat="46.5002017" lon="12.6143517"><ele>1434.857142857143</ele><time>2026-04-26T16:15:03.039Z</time></trkpt><trkpt lat="46.5001983" lon="12.6144567"><ele>1435.5714285714284</ele><time>2026-04-26T16:15:04.038Z</time></trkpt><trkpt lat="46.5001983" lon="12.6145633"><ele>1436.2857142857144</ele><time>2026-04-26T16:15:05.041Z</time></trkpt><trkpt lat="46.5002067" lon="12.6146717"><ele>1437.0</ele><time>2026-04-26T16:15:06.038Z</time></trkpt><trkpt lat="46.5002233" lon="12.614775"><ele>1438.8</ele><time>2026-04-26T16:15:07.038Z</time></trkpt><trkpt lat="46.5002367" lon="12.614865"><ele>1440.6</ele><time>2026-04-26T16:15:08.041Z</time></trkpt><trkpt lat="46.5002483" lon="12.6150333"><ele>1442.3999999999999</ele><time>2026-04-26T16:15:10.036Z</time></trkpt><trkpt lat="46.5002333" lon="12.6151933"><ele>1444.1999999999998</ele><time>2026-04-26T16:15:12.041Z</time></trkpt><trkpt lat="46.5002217" lon="12.6153617"><ele>1446.0</ele><time>2026-04-26T16:15:14.038Z</time></trkpt><trkpt lat="46.5002317" lon="12.6155"><ele>1447.1999999999998</ele><time>2026-04-26T16:15:16.037Z</time></trkpt><trkpt lat="46.5002483" lon="12.615655"><ele>1448.3999999999999</ele><time>2026-04-26T16:15:18.043Z</time></trkpt><trkpt lat="46.5002483" lon="12.61579"><ele>1449.6</ele><time>2026-04-26T16:15:20.038Z</time></trkpt><trkpt lat="46.5002333" lon="12.6159417"><ele>1450.8</ele><time>2026-04-26T16:15:22.036Z</time></trkpt><trkpt lat="46.5002217" lon="12.6160933"><ele>1452.0</ele><time>2026-04-26T16:15:24.038Z</time></trkpt><trkpt lat="46.5002117" lon="12.6162183"><ele>1454.0</ele><time>2026-04-26T16:15:26.039Z</time></trkpt><trkpt lat="46.5002017" lon="12.61634"><ele>1456.0</ele><time>2026-04-26T16:15:28.037Z</time></trkpt><trkpt lat="46.5002217" lon="12.6165267"><ele>1458.0</ele><time>2026-04-26T16:15:30.038Z</time></trkpt><trkpt lat="46.5002217" lon="12.6166933"><ele>1460.0</ele><time>2026-04-26T16:15:32.038Z</time></trkpt><trkpt lat="46.5002383" lon="12.61684"><ele>1462.0</ele><time>2026-04-26T16:15:34.036Z</time></trkpt><trkpt lat="46.5002633" lon="12.616935"><ele>1463.5714285714284</ele><time>2026-04-26T16:15:36.038Z</time></trkpt><trkpt lat="46.5003067" lon="12.61703"><ele>1465.142857142857</ele><time>2026-04-26T16:15:40.036Z</time></trkpt><trkpt lat="46.5003117" lon="12.617135"><ele>1466.7142857142858</ele><time>2026-04-26T16:15:44.041Z</time></trkpt><trkpt lat="46.500305" lon="12.6172517"><ele>1468.2857142857142</ele><time>2026-04-26T16:15:47.04Z</time></trkpt><trkpt lat="46.5002967" lon="12.6173467"><ele>1469.857142857143</ele><time>2026-04-26T16:15:49.039Z</time></trkpt><trkpt lat="46.5002917" lon="12.617445"><ele>1471.4285714285713</ele><time>2026-04-26T16:15:51.034Z</time></trkpt><trkpt lat="46.5002833" lon="12.617545"><ele>1473.0</ele><time>2026-04-26T16:15:54.042Z</time></trkpt><trkpt lat="46.500215" lon="12.6175783"><ele>1473.0</ele><time>2026-04-26T16:16:02.039Z</time></trkpt><trkpt lat="46.5001383" lon="12.6175033"><ele>1473.0</ele><time>2026-04-26T16:16:04.038Z</time></trkpt><trkpt lat="46.5000833" lon="12.61745"><ele>1473.0</ele><time>2026-04-26T16:16:05.039Z</time></trkpt><trkpt lat="46.4999533" lon="12.61737"><ele>1473.0</ele><time>2026-04-26T16:16:07.039Z</time></trkpt><trkpt lat="46.4998817" lon="12.6173333"><ele>1473.0</ele><time>2026-04-26T16:16:08.04Z</time></trkpt><trkpt lat="46.4997967" lon="12.6173067"><ele>1473.0</ele><time>2026-04-26T16:16:09.038Z</time></trkpt><trkpt lat="46.49971" lon="12.6172767"><ele>1473.0</ele><time>2026-04-26T16:16:10.038Z</time></trkpt><trkpt lat="46.4996217" lon="12.6172433"><ele>1473.0</ele><time>2026-04-26T16:16:11.038Z</time></trkpt><trkpt lat="46.4995317" lon="12.6172117"><ele>1473.0</ele><time>2026-04-26T16:16:12.035Z</time></trkpt><trkpt lat="46.4994517" lon="12.61716"><ele>1473.0</ele><time>2026-04-26T16:16:13.038Z</time></trkpt><trkpt lat="46.4993833" lon="12.6170883"><ele>1473.0</ele><time>2026-04-26T16:16:14.041Z</time></trkpt><trkpt lat="46.4993217" lon="12.61701"><ele>1471.3333333333333</ele><time>2026-04-26T16:16:15.038Z</time></trkpt><trkpt lat="46.4992683" lon="12.6169233"><ele>1469.6666666666667</ele><time>2026-04-26T16:16:16.038Z</time></trkpt><trkpt lat="46.499215" lon="12.6168367"><ele>1468.0</ele><time>2026-04-26T16:16:17.037Z</time></trkpt><trkpt lat="46.4991667" lon="12.6167483"><ele>1466.3333333333335</ele><time>2026-04-26T16:16:18.039Z</time></trkpt><trkpt lat="46.4991167" lon="12.61665"><ele>1464.6666666666667</ele><time>2026-04-26T16:16:19.04Z</time></trkpt><trkpt lat="46.4990583" lon="12.6165433"><ele>1463.0</ele><time>2026-04-26T16:16:20.04Z</time></trkpt><trkpt lat="46.499" lon="12.6164317"><ele>1463.0</ele><time>2026-04-26T16:16:21.039Z</time></trkpt><trkpt lat="46.4989417" lon="12.6163017"><ele>1463.0</ele><time>2026-04-26T16:16:22.04Z</time></trkpt><trkpt lat="46.49888" lon="12.6161517"><ele>1463.0</ele><time>2026-04-26T16:16:23.038Z</time></trkpt><trkpt lat="46.4988117" lon="12.6159833"><ele>1463.0</ele><time>2026-04-26T16:16:24.046Z</time></trkpt><trkpt lat="46.4987433" lon="12.6158017"><ele>1462.25</ele><time>2026-04-26T16:16:25.04Z</time></trkpt><trkpt lat="46.4986683" lon="12.6156233"><ele>1461.5</ele><time>2026-04-26T16:16:26.04Z</time></trkpt><trkpt lat="46.4985983" lon="12.615465"><ele>1460.75</ele><time>2026-04-26T16:16:27.039Z</time></trkpt><trkpt lat="46.4985267" lon="12.6153233"><ele>1460.0</ele><time>2026-04-26T16:16:28.037Z</time></trkpt><trkpt lat="46.498425" lon="12.6151733"><ele>1456.5</ele><time>2026-04-26T16:16:29.038Z</time></trkpt><trkpt lat="46.498335" lon="12.6150217"><ele>1453.0</ele><time>2026-04-26T16:16:30.038Z</time></trkpt><trkpt lat="46.498255" lon="12.6148717"><ele>1449.5</ele><time>2026-04-26T16:16:31.036Z</time></trkpt><trkpt lat="46.4982" lon="12.614725"><ele>1446.0</ele><time>2026-04-26T16:16:32.04Z</time></trkpt><trkpt lat="46.4981417" lon="12.6145767"><ele>1445.5</ele><time>2026-04-26T16:16:33.037Z</time></trkpt><trkpt lat="46.4980767" lon="12.6144367"><ele>1445.0</ele><time>2026-04-26T16:16:34.038Z</time></trkpt><trkpt lat="46.4980017" lon="12.6143183"><ele>1444.5</ele><time>2026-04-26T16:16:35.039Z</time></trkpt><trkpt lat="46.49792" lon="12.61421"><ele>1444.0</ele><time>2026-04-26T16:16:36.039Z</time></trkpt><trkpt lat="46.497835" lon="12.6141017"><ele>1444.0</ele><time>2026-04-26T16:16:37.042Z</time></trkpt><trkpt lat="46.497745" lon="12.6140017"><ele>1444.0</ele><time>2026-04-26T16:16:38.04Z</time></trkpt><trkpt lat="46.49766" lon="12.6139283"><ele>1444.0</ele><time>2026-04-26T16:16:39.037Z</time></trkpt><trkpt lat="46.4975767" lon="12.6138783"><ele>1444.0</ele><time>2026-04-26T16:16:40.037Z</time></trkpt><trkpt lat="46.497495" lon="12.6138433"><ele>1444.0</ele><time>2026-04-26T16:16:41.038Z</time></trkpt><trkpt lat="46.4974317" lon="12.6138233"><ele>1444.0</ele><time>2026-04-26T16:16:42.04Z</time></trkpt><trkpt lat="46.4973667" lon="12.6137817"><ele>1444.0</ele><time>2026-04-26T16:16:44.039Z</time></trkpt><trkpt lat="46.4973317" lon="12.613655"><ele>1444.0</ele><time>2026-04-26T16:16:47.038Z</time></trkpt><trkpt lat="46.4973383" lon="12.61351"><ele>1444.0</ele><time>2026-04-26T16:16:49.035Z</time></trkpt><trkpt lat="46.497355" lon="12.6134067"><ele>1444.0</ele><time>2026-04-26T16:16:50.039Z</time></trkpt><trkpt lat="46.4973667" lon="12.6133"><ele>1444.0</ele><time>2026-04-26T16:16:51.039Z</time></trkpt><trkpt lat="46.4973633" lon="12.6131833"><ele>1443.75</ele><time>2026-04-26T16:16:52.036Z</time></trkpt><trkpt lat="46.4973433" lon="12.6130467"><ele>1443.5</ele><time>2026-04-26T16:16:53.038Z</time></trkpt><trkpt lat="46.4972983" lon="12.6128917"><ele>1443.25</ele><time>2026-04-26T16:16:54.039Z</time></trkpt><trkpt lat="46.49723" lon="12.6127167"><ele>1443.0</ele><time>2026-04-26T16:16:55.039Z</time></trkpt><trkpt lat="46.49716" lon="12.6125383"><ele>1442.75</ele><time>2026-04-26T16:16:56.04Z</time></trkpt><trkpt lat="46.4970983" lon="12.61235"><ele>1442.5</ele><time>2026-04-26T16:16:57.037Z</time></trkpt><trkpt lat="46.4970317" lon="12.612165"><ele>1442.25</ele><time>2026-04-26T16:16:58.037Z</time></trkpt><trkpt lat="46.4969717" lon="12.611975"><ele>1442.0</ele><time>2026-04-26T16:16:59.036Z</time></trkpt><trkpt lat="46.49691" lon="12.611795"><ele>1442.0</ele><time>2026-04-26T16:17:00.039Z</time></trkpt><trkpt lat="46.496855" lon="12.6116417"><ele>1442.0</ele><time>2026-04-26T16:17:01.039Z</time></trkpt><trkpt lat="46.4968233" lon="12.6114817"><ele>1442.0</ele><time>2026-04-26T16:17:02.042Z</time></trkpt><trkpt lat="46.4968017" lon="12.6113183"><ele>1442.0</ele><time>2026-04-26T16:17:03.038Z</time></trkpt><trkpt lat="46.4967583" lon="12.611165"><ele>1440.75</ele><time>2026-04-26T16:17:04.036Z</time></trkpt><trkpt lat="46.4967" lon="12.6110183"><ele>1439.5</ele><time>2026-04-26T16:17:05.039Z</time></trkpt><trkpt lat="46.4966383" lon="12.61086"><ele>1438.25</ele><time>2026-04-26T16:17:06.042Z</time></trkpt><trkpt lat="46.49658" lon="12.6106967"><ele>1437.0</ele><time>2026-04-26T16:17:07.041Z</time></trkpt><trkpt lat="46.496525" lon="12.61051"><ele>1435.5</ele><time>2026-04-26T16:17:08.042Z</time></trkpt><trkpt lat="46.4964633" lon="12.61032"><ele>1434.0</ele><time>2026-04-26T16:17:09.038Z</time></trkpt><trkpt lat="46.4964017" lon="12.6101417"><ele>1432.5</ele><time>2026-04-26T16:17:10.038Z</time></trkpt><trkpt lat="46.4963333" lon="12.6099867"><ele>1431.0</ele><time>2026-04-26T16:17:11.037Z</time></trkpt><trkpt lat="46.4962683" lon="12.609845"><ele>1430.25</ele><time>2026-04-26T16:17:12.036Z</time></trkpt><trkpt lat="46.496205" lon="12.6097117"><ele>1429.5</ele><time>2026-04-26T16:17:13.035Z</time></trkpt><trkpt lat="46.4961483" lon="12.6095733"><ele>1428.75</ele><time>2026-04-26T16:17:14.039Z</time></trkpt><trkpt lat="46.496085" lon="12.6094217"><ele>1428.0</ele><time>2026-04-26T16:17:15.041Z</time></trkpt><trkpt lat="46.49602" lon="12.6092717"><ele>1428.0</ele><time>2026-04-26T16:17:16.042Z</time></trkpt><trkpt lat="46.4959517" lon="12.60913"><ele>1428.0</ele><time>2026-04-26T16:17:17.036Z</time></trkpt><trkpt lat="46.49588" lon="12.609"><ele>1428.0</ele><time>2026-04-26T16:17:18.04Z</time></trkpt><trkpt lat="46.4958033" lon="12.6088967"><ele>1428.0</ele><time>2026-04-26T16:17:19.037Z</time></trkpt><trkpt lat="46.4957133" lon="12.608815"><ele>1428.0</ele><time>2026-04-26T16:17:20.039Z</time></trkpt><trkpt lat="46.495525" lon="12.6086867"><ele>1427.6666666666667</ele><time>2026-04-26T16:17:22.038Z</time></trkpt><trkpt lat="46.4954517" lon="12.60863"><ele>1427.3333333333333</ele><time>2026-04-26T16:17:23.035Z</time></trkpt><trkpt lat="46.4953933" lon="12.6085667"><ele>1427.0</ele><time>2026-04-26T16:17:24.039Z</time></trkpt><trkpt lat="46.4953517" lon="12.6084883"><ele>1426.6666666666665</ele><time>2026-04-26T16:17:25.04Z</time></trkpt><trkpt lat="46.495345" lon="12.608355"><ele>1426.3333333333333</ele><time>2026-04-26T16:17:27.036Z</time></trkpt><trkpt lat="46.4953567" lon="12.6082317"><ele>1426.0</ele><time>2026-04-26T16:17:29.037Z</time></trkpt><trkpt lat="46.4953717" lon="12.6080983"><ele>1426.0</ele><time>2026-04-26T16:17:31.036Z</time></trkpt><trkpt lat="46.49539" lon="12.6079617"><ele>1426.0</ele><time>2026-04-26T16:17:33.035Z</time></trkpt><trkpt lat="46.4954383" lon="12.607805"><ele>1426.0</ele><time>2026-04-26T16:17:35.037Z</time></trkpt><trkpt lat="46.4954833" lon="12.6077233"><ele>1426.0</ele><time>2026-04-26T16:17:36.04Z</time></trkpt><trkpt lat="46.4955383" lon="12.6076367"><ele>1426.0</ele><time>2026-04-26T16:17:37.038Z</time></trkpt><trkpt lat="46.4956" lon="12.6075483"><ele>1426.6666666666665</ele><time>2026-04-26T16:17:38.039Z</time></trkpt><trkpt lat="46.4956633" lon="12.60746"><ele>1427.3333333333333</ele><time>2026-04-26T16:17:39.038Z</time></trkpt><trkpt lat="46.49572" lon="12.607365"><ele>1428.0</ele><time>2026-04-26T16:17:40.039Z</time></trkpt><trkpt lat="46.495765" lon="12.6072717"><ele>1428.6666666666667</ele><time>2026-04-26T16:17:41.039Z</time></trkpt><trkpt lat="46.4958017" lon="12.60717"><ele>1429.3333333333335</ele><time>2026-04-26T16:17:42.043Z</time></trkpt><trkpt lat="46.4958217" lon="12.6070783"><ele>1430.0</ele><time>2026-04-26T16:17:43.04Z</time></trkpt><trkpt lat="46.495825" lon="12.6069867"><ele>1431.3333333333335</ele><time>2026-04-26T16:17:44.042Z</time></trkpt><trkpt lat="46.49581" lon="12.606845"><ele>1432.6666666666667</ele><time>2026-04-26T16:17:46.036Z</time></trkpt><trkpt lat="46.4958017" lon="12.606955"><ele>1434.0</ele><time>2026-04-26T16:17:57.037Z</time></trkpt><trkpt lat="46.4957533" lon="12.606865"><ele>1435.3333333333333</ele><time>2026-04-26T16:18:03.036Z</time></trkpt><trkpt lat="46.4956833" lon="12.606745"><ele>1436.6666666666665</ele><time>2026-04-26T16:18:05.04Z</time></trkpt><trkpt lat="46.4956333" lon="12.6066867"><ele>1438.0</ele><time>2026-04-26T16:18:06.04Z</time></trkpt><trkpt lat="46.4955733" lon="12.6066433"><ele>1438.0</ele><time>2026-04-26T16:18:07.038Z</time></trkpt><trkpt lat="46.4955133" lon="12.606595"><ele>1438.0</ele><time>2026-04-26T16:18:08.042Z</time></trkpt><trkpt lat="46.4954167" lon="12.6064933"><ele>1438.0</ele><time>2026-04-26T16:18:10.035Z</time></trkpt><trkpt lat="46.4953217" lon="12.6063783"><ele>1438.0</ele><time>2026-04-26T16:18:12.039Z</time></trkpt><trkpt lat="46.4952717" lon="12.6063117"><ele>1438.0</ele><time>2026-04-26T16:18:13.04Z</time></trkpt><trkpt lat="46.4951917" lon="12.6061783"><ele>1442.0</ele><time>2026-04-26T16:18:15.04Z</time></trkpt><trkpt lat="46.4951033" lon="12.606045"><ele>1446.0</ele><time>2026-04-26T16:18:17.037Z</time></trkpt><trkpt lat="46.4950067" lon="12.60592"><ele>1450.0</ele><time>2026-04-26T16:18:19.041Z</time></trkpt><trkpt lat="46.4949567" lon="12.6058583"><ele>1454.0</ele><time>2026-04-26T16:18:20.041Z</time></trkpt><trkpt lat="46.4949033" lon="12.6058017"><ele>1458.0</ele><time>2026-04-26T16:18:21.04Z</time></trkpt><trkpt lat="46.4948533" lon="12.6057417"><ele>1458.0</ele><time>2026-04-26T16:18:22.04Z</time></trkpt><trkpt lat="46.494785" lon="12.6056483"><ele>1458.0</ele><time>2026-04-26T16:18:24.041Z</time></trkpt><trkpt lat="46.49476" lon="12.605515"><ele>1458.0</ele><time>2026-04-26T16:18:27.042Z</time></trkpt><trkpt lat="46.49481" lon="12.6054283"><ele>1458.0</ele><time>2026-04-26T16:18:29.04Z</time></trkpt><trkpt lat="46.49488" lon="12.6053283"><ele>1458.0</ele><time>2026-04-26T16:18:31.04Z</time></trkpt><trkpt lat="46.4949667" lon="12.605235"><ele>1458.0</ele><time>2026-04-26T16:18:33.036Z</time></trkpt><trkpt lat="46.49505" lon="12.60525"><ele>1458.0</ele><time>2026-04-26T16:18:35.039Z</time></trkpt><trkpt lat="46.4951183" lon="12.60533"><ele>1458.0</ele><time>2026-04-26T16:18:36.04Z</time></trkpt><trkpt lat="46.4951967" lon="12.6054017"><ele>1458.0</ele><time>2026-04-26T16:18:37.04Z</time></trkpt><trkpt lat="46.4952633" lon="12.6054583"><ele>1458.0</ele><time>2026-04-26T16:18:38.042Z</time></trkpt><trkpt lat="46.4953617" lon="12.6054967"><ele>1458.0</ele><time>2026-04-26T16:18:40.038Z</time></trkpt><trkpt lat="46.495345" lon="12.605395"><ele>1460.8333333333333</ele><time>2026-04-26T16:18:44.041Z</time></trkpt><trkpt lat="46.4952667" lon="12.6052933"><ele>1463.6666666666667</ele><time>2026-04-26T16:18:46.036Z</time></trkpt><trkpt lat="46.49519" lon="12.605155"><ele>1466.5</ele><time>2026-04-26T16:18:48.043Z</time></trkpt><trkpt lat="46.49515" lon="12.6050767"><ele>1469.3333333333335</ele><time>2026-04-26T16:18:49.041Z</time></trkpt><trkpt lat="46.4951083" lon="12.60499"><ele>1472.1666666666667</ele><time>2026-04-26T16:18:50.042Z</time></trkpt><trkpt lat="46.4950667" lon="12.6049033"><ele>1475.0</ele><time>2026-04-26T16:18:51.036Z</time></trkpt><trkpt lat="46.4950367" lon="12.6048017"><ele>1475.0</ele><time>2026-04-26T16:18:52.04Z</time></trkpt><trkpt lat="46.4950183" lon="12.6046917"><ele>1475.0</ele><time>2026-04-26T16:18:53.039Z</time></trkpt><trkpt lat="46.49501" lon="12.6045733"><ele>1475.0</ele><time>2026-04-26T16:18:54.041Z</time></trkpt><trkpt lat="46.4950033" lon="12.6044567"><ele>1475.0</ele><time>2026-04-26T16:18:55.034Z</time></trkpt><trkpt lat="46.494995" lon="12.6043467"><ele>1475.0</ele><time>2026-04-26T16:18:56.041Z</time></trkpt><trkpt lat="46.49498" lon="12.6042333"><ele>1475.0</ele><time>2026-04-26T16:18:57.038Z</time></trkpt><trkpt lat="46.4949617" lon="12.6041233"><ele>1478.6</ele><time>2026-04-26T16:18:58.036Z</time></trkpt><trkpt lat="46.4949367" lon="12.6040283"><ele>1482.2</ele><time>2026-04-26T16:18:59.037Z</time></trkpt><trkpt lat="46.494875" lon="12.603885"><ele>1485.8000000000002</ele><time>2026-04-26T16:19:01.039Z</time></trkpt><trkpt lat="46.4948017" lon="12.6038383"><ele>1489.4</ele><time>2026-04-26T16:19:03.036Z</time></trkpt><trkpt lat="46.4946883" lon="12.6039117"><ele>1493.0</ele><time>2026-04-26T16:19:05.038Z</time></trkpt><trkpt lat="46.4946083" lon="12.6040017"><ele>1493.6666666666667</ele><time>2026-04-26T16:19:06.038Z</time></trkpt><trkpt lat="46.4945333" lon="12.6040633"><ele>1494.3333333333335</ele><time>2026-04-26T16:19:07.036Z</time></trkpt><trkpt lat="46.4944683" lon="12.604135"><ele>1495.0</ele><time>2026-04-26T16:19:08.042Z</time></trkpt><trkpt lat="46.494405" lon="12.604195"><ele>1495.6666666666667</ele><time>2026-04-26T16:19:09.041Z</time></trkpt><trkpt lat="46.4943417" lon="12.6042517"><ele>1496.3333333333333</ele><time>2026-04-26T16:19:10.04Z</time></trkpt><trkpt lat="46.494285" lon="12.6043083"><ele>1497.0</ele><time>2026-04-26T16:19:11.039Z</time></trkpt><trkpt lat="46.4942283" lon="12.60436"><ele>1497.0</ele><time>2026-04-26T16:19:12.043Z</time></trkpt><trkpt lat="46.4941483" lon="12.60441"><ele>1497.0</ele><time>2026-04-26T16:19:13.04Z</time></trkpt><trkpt lat="46.4940667" lon="12.6044983"><ele>1497.0</ele><time>2026-04-26T16:19:15.04Z</time></trkpt><trkpt lat="46.4940017" lon="12.6045183"><ele>1497.0</ele><time>2026-04-26T16:19:16.035Z</time></trkpt><trkpt lat="46.4939267" lon="12.604515"><ele>1497.0</ele><time>2026-04-26T16:19:17.038Z</time></trkpt><trkpt lat="46.49386" lon="12.6044967"><ele>1497.0</ele><time>2026-04-26T16:19:18.036Z</time></trkpt><trkpt lat="46.4937867" lon="12.6044733"><ele>1499.3333333333333</ele><time>2026-04-26T16:19:19.036Z</time></trkpt><trkpt lat="46.49371" lon="12.604455"><ele>1501.6666666666667</ele><time>2026-04-26T16:19:20.043Z</time></trkpt><trkpt lat="46.493635" lon="12.6044417"><ele>1504.0</ele><time>2026-04-26T16:19:21.035Z</time></trkpt><trkpt lat="46.4935533" lon="12.6044383"><ele>1506.3333333333335</ele><time>2026-04-26T16:19:22.04Z</time></trkpt><trkpt lat="46.4934717" lon="12.6044367"><ele>1508.6666666666667</ele><time>2026-04-26T16:19:23.037Z</time></trkpt><trkpt lat="46.4933967" lon="12.6044333"><ele>1511.0</ele><time>2026-04-26T16:19:24.038Z</time></trkpt><trkpt lat="46.4933233" lon="12.6044367"><ele>1511.0</ele><time>2026-04-26T16:19:25.039Z</time></trkpt><trkpt lat="46.4932533" lon="12.6044367"><ele>1511.0</ele><time>2026-04-26T16:19:26.04Z</time></trkpt><trkpt lat="46.4931233" lon="12.6044417"><ele>1511.0</ele><time>2026-04-26T16:19:28.04Z</time></trkpt><trkpt lat="46.49306" lon="12.6044517"><ele>1511.0</ele><time>2026-04-26T16:19:29.04Z</time></trkpt><trkpt lat="46.4929433" lon="12.604505"><ele>1511.0</ele><time>2026-04-26T16:19:31.041Z</time></trkpt><trkpt lat="46.4928433" lon="12.6045933"><ele>1508.25</ele><time>2026-04-26T16:19:33.041Z</time></trkpt><trkpt lat="46.4927433" lon="12.6046883"><ele>1505.5</ele><time>2026-04-26T16:19:35.041Z</time></trkpt><trkpt lat="46.4926167" lon="12.604725"><ele>1502.75</ele><time>2026-04-26T16:19:37.036Z</time></trkpt><trkpt lat="46.492535" lon="12.6046483"><ele>1500.0</ele><time>2026-04-26T16:19:39.037Z</time></trkpt><trkpt lat="46.4925" lon="12.6045"><ele>1503.6</ele><time>2026-04-26T16:19:41.038Z</time></trkpt><trkpt lat="46.4924633" lon="12.60433"><ele>1507.2</ele><time>2026-04-26T16:19:43.04Z</time></trkpt><trkpt lat="46.4924033" lon="12.6042"><ele>1510.8000000000002</ele><time>2026-04-26T16:19:45.039Z</time></trkpt><trkpt lat="46.4923267" lon="12.6041083"><ele>1514.4</ele><time>2026-04-26T16:19:47.038Z</time></trkpt><trkpt lat="46.492225" lon="12.6040333"><ele>1518.0</ele><time>2026-04-26T16:19:49.037Z</time></trkpt><trkpt lat="46.49217" lon="12.6039883"><ele>1518.0</ele><time>2026-04-26T16:19:50.041Z</time></trkpt><trkpt lat="46.49212" lon="12.6039267"><ele>1518.0</ele><time>2026-04-26T16:19:51.04Z</time></trkpt><trkpt lat="46.4920683" lon="12.6038533"><ele>1518.0</ele><time>2026-04-26T16:19:52.038Z</time></trkpt><trkpt lat="46.4920233" lon="12.6037717"><ele>1518.0</ele><time>2026-04-26T16:19:53.037Z</time></trkpt><trkpt lat="46.491985" lon="12.603685"><ele>1518.0</ele><time>2026-04-26T16:19:54.04Z</time></trkpt><trkpt lat="46.4919167" lon="12.60356"><ele>1518.0</ele><time>2026-04-26T16:19:56.037Z</time></trkpt><trkpt lat="46.4917833" lon="12.6035367"><ele>1521.0</ele><time>2026-04-26T16:19:58.034Z</time></trkpt><trkpt lat="46.4916883" lon="12.603535"><ele>1524.0</ele><time>2026-04-26T16:19:59.037Z</time></trkpt><trkpt lat="46.4916" lon="12.6035133"><ele>1527.0</ele><time>2026-04-26T16:20:00.039Z</time></trkpt><trkpt lat="46.4915183" lon="12.6034733"><ele>1530.0</ele><time>2026-04-26T16:20:01.036Z</time></trkpt><trkpt lat="46.4914383" lon="12.6034233"><ele>1533.0</ele><time>2026-04-26T16:20:02.04Z</time></trkpt><trkpt lat="46.4913667" lon="12.6033683"><ele>1536.0</ele><time>2026-04-26T16:20:03.041Z</time></trkpt><trkpt lat="46.4912917" lon="12.6033167"><ele>1535.4285714285713</ele><time>2026-04-26T16:20:04.038Z</time></trkpt><trkpt lat="46.4912267" lon="12.603255"><ele>1534.857142857143</ele><time>2026-04-26T16:20:05.039Z</time></trkpt><trkpt lat="46.4911683" lon="12.603195"><ele>1534.2857142857142</ele><time>2026-04-26T16:20:06.037Z</time></trkpt><trkpt lat="46.4911117" lon="12.6031367"><ele>1533.7142857142858</ele><time>2026-04-26T16:20:07.037Z</time></trkpt><trkpt lat="46.4910533" lon="12.6030833"><ele>1533.142857142857</ele><time>2026-04-26T16:20:08.041Z</time></trkpt><trkpt lat="46.49099" lon="12.6030367"><ele>1532.5714285714284</ele><time>2026-04-26T16:20:09.037Z</time></trkpt><trkpt lat="46.4909267" lon="12.602995"><ele>1532.0</ele><time>2026-04-26T16:20:10.036Z</time></trkpt><trkpt lat="46.49086" lon="12.6029633"><ele>1532.0</ele><time>2026-04-26T16:20:11.038Z</time></trkpt><trkpt lat="46.4907967" lon="12.6029333"><ele>1532.0</ele><time>2026-04-26T16:20:12.035Z</time></trkpt><trkpt lat="46.490735" lon="12.602895"><ele>1532.0</ele><time>2026-04-26T16:20:13.037Z</time></trkpt><trkpt lat="46.4906333" lon="12.6027983"><ele>1532.0</ele><time>2026-04-26T16:20:15.041Z</time></trkpt><trkpt lat="46.4905867" lon="12.6027317"><ele>1532.0</ele><time>2026-04-26T16:20:16.038Z</time></trkpt><trkpt lat="46.4905417" lon="12.6026667"><ele>1532.0</ele><time>2026-04-26T16:20:17.04Z</time></trkpt><trkpt lat="46.4904533" lon="12.6025383"><ele>1533.142857142857</ele><time>2026-04-26T16:20:19.039Z</time></trkpt><trkpt lat="46.4904083" lon="12.6024717"><ele>1534.2857142857142</ele><time>2026-04-26T16:20:20.04Z</time></trkpt><trkpt lat="46.490365" lon="12.6024033"><ele>1535.4285714285716</ele><time>2026-04-26T16:20:21.036Z</time></trkpt><trkpt lat="46.4903183" lon="12.602325"><ele>1536.5714285714284</ele><time>2026-04-26T16:20:22.04Z</time></trkpt><trkpt lat="46.490275" lon="12.6022533"><ele>1537.7142857142858</ele><time>2026-04-26T16:20:23.039Z</time></trkpt><trkpt lat="46.4902317" lon="12.6021867"><ele>1538.857142857143</ele><time>2026-04-26T16:20:24.039Z</time></trkpt><trkpt lat="46.4901783" lon="12.60205"><ele>1540.0</ele><time>2026-04-26T16:20:26.04Z</time></trkpt><trkpt lat="46.4901983" lon="12.60196"><ele>1541.8333333333335</ele><time>2026-04-26T16:20:28.037Z</time></trkpt><trkpt lat="46.490285" lon="12.601975"><ele>1543.6666666666667</ele><time>2026-04-26T16:20:30.041Z</time></trkpt><trkpt lat="46.4904133" lon="12.6019983"><ele>1545.5</ele><time>2026-04-26T16:20:32.041Z</time></trkpt><trkpt lat="46.4904883" lon="12.60201"><ele>1547.3333333333335</ele><time>2026-04-26T16:20:33.04Z</time></trkpt><trkpt lat="46.490565" lon="12.6020133"><ele>1549.1666666666667</ele><time>2026-04-26T16:20:34.035Z</time></trkpt><trkpt lat="46.490645" lon="12.60201"><ele>1551.0</ele><time>2026-04-26T16:20:35.037Z</time></trkpt><trkpt lat="46.490725" lon="12.602005"><ele>1554.1666666666667</ele><time>2026-04-26T16:20:36.042Z</time></trkpt><trkpt lat="46.4907983" lon="12.6019933"><ele>1557.3333333333335</ele><time>2026-04-26T16:20:37.041Z</time></trkpt><trkpt lat="46.4908717" lon="12.6019783"><ele>1560.5</ele><time>2026-04-26T16:20:38.042Z</time></trkpt><trkpt lat="46.4909467" lon="12.601955"><ele>1563.6666666666667</ele><time>2026-04-26T16:20:39.041Z</time></trkpt><trkpt lat="46.4910267" lon="12.60192"><ele>1566.8333333333335</ele><time>2026-04-26T16:20:40.039Z</time></trkpt><trkpt lat="46.4911083" lon="12.601885"><ele>1570.0</ele><time>2026-04-26T16:20:41.039Z</time></trkpt><trkpt lat="46.4911883" lon="12.6018567"><ele>1570.5000000000002</ele><time>2026-04-26T16:20:42.041Z</time></trkpt><trkpt lat="46.49127" lon="12.6018267"><ele>1571.0</ele><time>2026-04-26T16:20:43.041Z</time></trkpt><trkpt lat="46.4913483" lon="12.6017967"><ele>1571.5</ele><time>2026-04-26T16:20:44.037Z</time></trkpt><trkpt lat="46.4914233" lon="12.601775"><ele>1572.0</ele><time>2026-04-26T16:20:45.039Z</time></trkpt><trkpt lat="46.4914967" lon="12.6017567"><ele>1572.5000000000002</ele><time>2026-04-26T16:20:46.04Z</time></trkpt><trkpt lat="46.4915717" lon="12.601735"><ele>1573.0</ele><time>2026-04-26T16:20:47.039Z</time></trkpt><trkpt lat="46.4916483" lon="12.6017183"><ele>1573.0000000000002</ele><time>2026-04-26T16:20:48.04Z</time></trkpt><trkpt lat="46.49172" lon="12.6017"><ele>1573.0</ele><time>2026-04-26T16:20:49.039Z</time></trkpt><trkpt lat="46.4917883" lon="12.60168"><ele>1573.0</ele><time>2026-04-26T16:20:50.041Z</time></trkpt><trkpt lat="46.49186" lon="12.6016533"><ele>1573.0</ele><time>2026-04-26T16:20:51.041Z</time></trkpt><trkpt lat="46.4919317" lon="12.6016417"><ele>1573.0000000000002</ele><time>2026-04-26T16:20:52.037Z</time></trkpt><trkpt lat="46.4920117" lon="12.6016383"><ele>1573.0</ele><time>2026-04-26T16:20:53.038Z</time></trkpt><trkpt lat="46.4920967" lon="12.60166"><ele>1573.4</ele><time>2026-04-26T16:20:54.037Z</time></trkpt><trkpt lat="46.4921983" lon="12.6017083"><ele>1573.8000000000002</ele><time>2026-04-26T16:20:55.042Z</time></trkpt><trkpt lat="46.4923033" lon="12.6017583"><ele>1574.2</ele><time>2026-04-26T16:20:56.044Z</time></trkpt><trkpt lat="46.4924117" lon="12.6018067"><ele>1574.6</ele><time>2026-04-26T16:20:57.039Z</time></trkpt><trkpt lat="46.492525" lon="12.6018383"><ele>1575.0</ele><time>2026-04-26T16:20:58.038Z</time></trkpt><trkpt lat="46.4926317" lon="12.601865"><ele>1575.0</ele><time>2026-04-26T16:20:59.041Z</time></trkpt><trkpt lat="46.4927317" lon="12.6018917"><ele>1575.0</ele><time>2026-04-26T16:21:00.043Z</time></trkpt><trkpt lat="46.4928217" lon="12.601925"><ele>1575.0</ele><time>2026-04-26T16:21:01.039Z</time></trkpt><trkpt lat="46.4929017" lon="12.6019633"><ele>1575.0</ele><time>2026-04-26T16:21:02.043Z</time></trkpt><trkpt lat="46.49297" lon="12.6019983"><ele>1575.0</ele><time>2026-04-26T16:21:03.042Z</time></trkpt><trkpt lat="46.4930333" lon="12.6020167"><ele>1575.0</ele><time>2026-04-26T16:21:04.035Z</time></trkpt><trkpt lat="46.4930967" lon="12.6020133"><ele>1575.6666666666667</ele><time>2026-04-26T16:21:05.038Z</time></trkpt><trkpt lat="46.4931617" lon="12.6019983"><ele>1576.3333333333335</ele><time>2026-04-26T16:21:06.04Z</time></trkpt><trkpt lat="46.493225" lon="12.60198"><ele>1577.0</ele><time>2026-04-26T16:21:07.041Z</time></trkpt><trkpt lat="46.4933183" lon="12.6018983"><ele>1577.6666666666667</ele><time>2026-04-26T16:21:09.039Z</time></trkpt><trkpt lat="46.4933383" lon="12.6017883"><ele>1578.3333333333335</ele><time>2026-04-26T16:21:11.039Z</time></trkpt><trkpt lat="46.4932783" lon="12.6017267"><ele>1579.0</ele><time>2026-04-26T16:21:13.037Z</time></trkpt><trkpt lat="46.4932083" lon="12.60173"><ele>1579.0000000000002</ele><time>2026-04-26T16:21:14.041Z</time></trkpt><trkpt lat="46.4930833" lon="12.6016867"><ele>1579.0</ele><time>2026-04-26T16:21:16.039Z</time></trkpt><trkpt lat="46.4930233" lon="12.6016383"><ele>1579.0</ele><time>2026-04-26T16:21:17.04Z</time></trkpt><trkpt lat="46.4929733" lon="12.6015717"><ele>1579.0</ele><time>2026-04-26T16:21:18.041Z</time></trkpt><trkpt lat="46.4929217" lon="12.6015033"><ele>1579.0000000000002</ele><time>2026-04-26T16:21:19.04Z</time></trkpt><trkpt lat="46.4928633" lon="12.6014283"><ele>1579.0</ele><time>2026-04-26T16:21:20.044Z</time></trkpt><trkpt lat="46.4928033" lon="12.601345"><ele>1578.3333333333335</ele><time>2026-04-26T16:21:21.04Z</time></trkpt><trkpt lat="46.4927433" lon="12.60126"><ele>1577.6666666666667</ele><time>2026-04-26T16:21:22.041Z</time></trkpt><trkpt lat="46.4926833" lon="12.6011733"><ele>1577.0</ele><time>2026-04-26T16:21:23.04Z</time></trkpt><trkpt lat="46.4926183" lon="12.6010933"><ele>1576.3333333333335</ele><time>2026-04-26T16:21:24.041Z</time></trkpt><trkpt lat="46.492545" lon="12.60103"><ele>1575.6666666666667</ele><time>2026-04-26T16:21:25.037Z</time></trkpt><trkpt lat="46.4924733" lon="12.6009833"><ele>1575.0</ele><time>2026-04-26T16:21:26.04Z</time></trkpt><trkpt lat="46.4924033" lon="12.60094"><ele>1577.7142857142858</ele><time>2026-04-26T16:21:27.039Z</time></trkpt><trkpt lat="46.4923433" lon="12.600895"><ele>1580.4285714285716</ele><time>2026-04-26T16:21:28.038Z</time></trkpt><trkpt lat="46.4922833" lon="12.60085"><ele>1583.142857142857</ele><time>2026-04-26T16:21:29.039Z</time></trkpt><trkpt lat="46.4922267" lon="12.6008"><ele>1585.857142857143</ele><time>2026-04-26T16:21:30.041Z</time></trkpt><trkpt lat="46.4921867" lon="12.6007217"><ele>1588.5714285714287</ele><time>2026-04-26T16:21:31.039Z</time></trkpt><trkpt lat="46.4921433" lon="12.6006383"><ele>1591.2857142857142</ele><time>2026-04-26T16:21:32.041Z</time></trkpt><trkpt lat="46.4920933" lon="12.6005583"><ele>1594.0</ele><time>2026-04-26T16:21:33.038Z</time></trkpt><trkpt lat="46.4920133" lon="12.6004583"><ele>1594.0</ele><time>2026-04-26T16:21:35.037Z</time></trkpt><trkpt lat="46.4919033" lon="12.60047"><ele>1594.0</ele><time>2026-04-26T16:21:37.039Z</time></trkpt><trkpt lat="46.49184" lon="12.6005"><ele>1594.0</ele><time>2026-04-26T16:21:38.043Z</time></trkpt><trkpt lat="46.491665" lon="12.600515"><ele>1594.0</ele><time>2026-04-26T16:21:40.038Z</time></trkpt><trkpt lat="46.4916083" lon="12.6004717"><ele>1594.0</ele><time>2026-04-26T16:21:41.041Z</time></trkpt><trkpt lat="46.49156" lon="12.6003067"><ele>1597.5000000000002</ele><time>2026-04-26T16:21:43.04Z</time></trkpt><trkpt lat="46.4915133" lon="12.6002267"><ele>1601.0</ele><time>2026-04-26T16:21:44.042Z</time></trkpt><trkpt lat="46.4914617" lon="12.6001617"><ele>1604.5</ele><time>2026-04-26T16:21:45.038Z</time></trkpt><trkpt lat="46.4913833" lon="12.60006"><ele>1608.0</ele><time>2026-04-26T16:21:47.035Z</time></trkpt><trkpt lat="46.491435" lon="12.599955"><ele>1611.5000000000002</ele><time>2026-04-26T16:21:50.043Z</time></trkpt><trkpt lat="46.491535" lon="12.5999983"><ele>1615.0</ele><time>2026-04-26T16:21:52.04Z</time></trkpt><trkpt lat="46.4915833" lon="12.60006"><ele>1615.0</ele><time>2026-04-26T16:21:53.04Z</time></trkpt><trkpt lat="46.4916667" lon="12.6001417"><ele>1615.0</ele><time>2026-04-26T16:21:55.041Z</time></trkpt><trkpt lat="46.49176" lon="12.6001383"><ele>1615.0</ele><time>2026-04-26T16:21:57.034Z</time></trkpt><trkpt lat="46.4918217" lon="12.6000267"><ele>1615.0</ele><time>2026-04-26T16:21:59.039Z</time></trkpt><trkpt lat="46.49191" lon="12.5999017"><ele>1615.0</ele><time>2026-04-26T16:22:01.038Z</time></trkpt><trkpt lat="46.4919683" lon="12.5998533"><ele>1615.0000000000002</ele><time>2026-04-26T16:22:02.043Z</time></trkpt><trkpt lat="46.4920317" lon="12.5998083"><ele>1615.0</ele><time>2026-04-26T16:22:03.039Z</time></trkpt><trkpt lat="46.492095" lon="12.59978"><ele>1615.0</ele><time>2026-04-26T16:22:04.036Z</time></trkpt><trkpt lat="46.4922183" lon="12.5997967"><ele>1615.0</ele><time>2026-04-26T16:22:06.04Z</time></trkpt><trkpt lat="46.4922717" lon="12.5998517"><ele>1615.0000000000002</ele><time>2026-04-26T16:22:07.04Z</time></trkpt><trkpt lat="46.492325" lon="12.599915"><ele>1615.0</ele><time>2026-04-26T16:22:08.042Z</time></trkpt><trkpt lat="46.4923767" lon="12.599985"><ele>1615.8333333333335</ele><time>2026-04-26T16:22:09.036Z</time></trkpt><trkpt lat="46.4924367" lon="12.600045"><ele>1616.6666666666667</ele><time>2026-04-26T16:22:10.038Z</time></trkpt><trkpt lat="46.4925533" lon="12.600105"><ele>1617.5</ele><time>2026-04-26T16:22:12.038Z</time></trkpt><trkpt lat="46.4926167" lon="12.6001067"><ele>1618.3333333333335</ele><time>2026-04-26T16:22:13.037Z</time></trkpt><trkpt lat="46.4927083" lon="12.600065"><ele>1619.1666666666667</ele><time>2026-04-26T16:22:15.041Z</time></trkpt><trkpt lat="46.49273" lon="12.59997"><ele>1620.0</ele><time>2026-04-26T16:22:17.04Z</time></trkpt><trkpt lat="46.492685" lon="12.5999033"><ele>1620.0</ele><time>2026-04-26T16:22:19.04Z</time></trkpt><trkpt lat="46.4925667" lon="12.5998317"><ele>1620.0</ele><time>2026-04-26T16:22:21.039Z</time></trkpt><trkpt lat="46.492515" lon="12.599775"><ele>1620.0</ele><time>2026-04-26T16:22:22.037Z</time></trkpt><trkpt lat="46.4924717" lon="12.5997"><ele>1620.0</ele><time>2026-04-26T16:22:23.04Z</time></trkpt><trkpt lat="46.4924267" lon="12.5996217"><ele>1620.0</ele><time>2026-04-26T16:22:24.04Z</time></trkpt><trkpt lat="46.4923767" lon="12.5995417"><ele>1620.0</ele><time>2026-04-26T16:22:25.041Z</time></trkpt><trkpt lat="46.492335" lon="12.5994717"><ele>1624.0</ele><time>2026-04-26T16:22:26.044Z</time></trkpt><trkpt lat="46.4922617" lon="12.5993283"><ele>1628.0</ele><time>2026-04-26T16:22:28.038Z</time></trkpt><trkpt lat="46.4921583" lon="12.5992267"><ele>1632.0</ele><time>2026-04-26T16:22:30.04Z</time></trkpt><trkpt lat="46.4920517" lon="12.599195"><ele>1636.0</ele><time>2026-04-26T16:22:32.042Z</time></trkpt><trkpt lat="46.4919383" lon="12.5991617"><ele>1636.0</ele><time>2026-04-26T16:22:34.039Z</time></trkpt><trkpt lat="46.491875" lon="12.5991317"><ele>1636.0</ele><time>2026-04-26T16:22:35.039Z</time></trkpt><trkpt lat="46.4918033" lon="12.5989983"><ele>1636.0</ele><time>2026-04-26T16:22:37.042Z</time></trkpt><trkpt lat="46.49173" lon="12.59889"><ele>1636.0</ele><time>2026-04-26T16:22:39.04Z</time></trkpt><trkpt lat="46.4916417" lon="12.5988517"><ele>1636.0</ele><time>2026-04-26T16:22:41.035Z</time></trkpt><trkpt lat="46.49155" lon="12.59882"><ele>1636.0000000000002</ele><time>2026-04-26T16:22:43.04Z</time></trkpt><trkpt lat="46.491505" lon="12.59871"><ele>1636.0</ele><time>2026-04-26T16:22:45.041Z</time></trkpt><trkpt lat="46.4914683" lon="12.5985833"><ele>1636.0</ele><time>2026-04-26T16:22:47.037Z</time></trkpt><trkpt lat="46.4914117" lon="12.5984733"><ele>1636.0</ele><time>2026-04-26T16:22:49.04Z</time></trkpt><trkpt lat="46.4913233" lon="12.5984183"><ele>1636.0000000000002</ele><time>2026-04-26T16:22:51.042Z</time></trkpt><trkpt lat="46.4912517" lon="12.5984017"><ele>1636.0</ele><time>2026-04-26T16:22:52.038Z</time></trkpt><trkpt lat="46.4911733" lon="12.5983717"><ele>1638.5000000000002</ele><time>2026-04-26T16:22:53.034Z</time></trkpt><trkpt lat="46.4911067" lon="12.5983183"><ele>1641.0</ele><time>2026-04-26T16:22:54.042Z</time></trkpt><trkpt lat="46.4910383" lon="12.5982683"><ele>1643.5</ele><time>2026-04-26T16:22:55.04Z</time></trkpt><trkpt lat="46.4909617" lon="12.5982383"><ele>1646.0</ele><time>2026-04-26T16:22:56.042Z</time></trkpt><trkpt lat="46.49089" lon="12.5982083"><ele>1648.5000000000002</ele><time>2026-04-26T16:22:57.039Z</time></trkpt><trkpt lat="46.4908183" lon="12.5981733"><ele>1651.0</ele><time>2026-04-26T16:22:58.038Z</time></trkpt><trkpt lat="46.490745" lon="12.59814"><ele>1651.0000000000002</ele><time>2026-04-26T16:22:59.036Z</time></trkpt><trkpt lat="46.4906683" lon="12.5980983"><ele>1651.0</ele><time>2026-04-26T16:23:00.042Z</time></trkpt><trkpt lat="46.4906" lon="12.598055"><ele>1651.0</ele><time>2026-04-26T16:23:01.04Z</time></trkpt><trkpt lat="46.4905417" lon="12.5980133"><ele>1651.0</ele><time>2026-04-26T16:23:02.039Z</time></trkpt><trkpt lat="46.4904467" lon="12.597905"><ele>1651.0000000000002</ele><time>2026-04-26T16:23:04.036Z</time></trkpt><trkpt lat="46.490395" lon="12.5977867"><ele>1651.0</ele><time>2026-04-26T16:23:06.043Z</time></trkpt><trkpt lat="46.4903667" lon="12.5976367"><ele>1652.8333333333335</ele><time>2026-04-26T16:23:08.039Z</time></trkpt><trkpt lat="46.49031" lon="12.5975033"><ele>1654.6666666666667</ele><time>2026-04-26T16:23:10.036Z</time></trkpt><trkpt lat="46.4902117" lon="12.5974283"><ele>1656.5</ele><time>2026-04-26T16:23:12.042Z</time></trkpt><trkpt lat="46.4901483" lon="12.5973917"><ele>1658.3333333333335</ele><time>2026-04-26T16:23:13.038Z</time></trkpt><trkpt lat="46.490085" lon="12.59734"><ele>1660.1666666666667</ele><time>2026-04-26T16:23:14.04Z</time></trkpt><trkpt lat="46.4900433" lon="12.59726"><ele>1662.0</ele><time>2026-04-26T16:23:15.037Z</time></trkpt><trkpt lat="46.490005" lon="12.5971717"><ele>1662.0</ele><time>2026-04-26T16:23:16.041Z</time></trkpt><trkpt lat="46.4899617" lon="12.597085"><ele>1662.0</ele><time>2026-04-26T16:23:17.039Z</time></trkpt><trkpt lat="46.48991" lon="12.5970083"><ele>1662.0</ele><time>2026-04-26T16:23:18.041Z</time></trkpt><trkpt lat="46.4898417" lon="12.596905"><ele>1662.0</ele><time>2026-04-26T16:23:19.036Z</time></trkpt><trkpt lat="46.48977" lon="12.5968433"><ele>1662.0</ele><time>2026-04-26T16:23:20.041Z</time></trkpt><trkpt lat="46.4897067" lon="12.5967883"><ele>1662.0</ele><time>2026-04-26T16:23:21.04Z</time></trkpt><trkpt lat="46.489645" lon="12.5967067"><ele>1665.3333333333333</ele><time>2026-04-26T16:23:23.042Z</time></trkpt><trkpt lat="46.489715" lon="12.5966817"><ele>1668.6666666666665</ele><time>2026-04-26T16:23:27.04Z</time></trkpt><trkpt lat="46.4897933" lon="12.5967217"><ele>1672.0</ele><time>2026-04-26T16:23:28.041Z</time></trkpt><trkpt lat="46.4898617" lon="12.5967617"><ele>1675.3333333333333</ele><time>2026-04-26T16:23:29.041Z</time></trkpt><trkpt lat="46.4899317" lon="12.5968033"><ele>1678.6666666666665</ele><time>2026-04-26T16:23:30.043Z</time></trkpt><trkpt lat="46.4900017" lon="12.5968367"><ele>1682.0</ele><time>2026-04-26T16:23:31.035Z</time></trkpt><trkpt lat="46.4900783" lon="12.5968683"><ele>1682.0</ele><time>2026-04-26T16:23:32.04Z</time></trkpt><trkpt lat="46.4901533" lon="12.596885"><ele>1682.0</ele><time>2026-04-26T16:23:33.043Z</time></trkpt><trkpt lat="46.4902283" lon="12.5969"><ele>1682.0</ele><time>2026-04-26T16:23:34.037Z</time></trkpt><trkpt lat="46.490295" lon="12.5969183"><ele>1682.0</ele><time>2026-04-26T16:23:35.041Z</time></trkpt><trkpt lat="46.4903633" lon="12.5969333"><ele>1682.0</ele><time>2026-04-26T16:23:36.043Z</time></trkpt><trkpt lat="46.4904333" lon="12.5969317"><ele>1682.0</ele><time>2026-04-26T16:23:37.04Z</time></trkpt><trkpt lat="46.4905017" lon="12.5969417"><ele>1682.0</ele><time>2026-04-26T16:23:38.045Z</time></trkpt><trkpt lat="46.4905683" lon="12.5969533"><ele>1680.9999999999998</ele><time>2026-04-26T16:23:39.04Z</time></trkpt><trkpt lat="46.4906533" lon="12.5970283"><ele>1680.0</ele><time>2026-04-26T16:23:41.039Z</time></trkpt><trkpt lat="46.4907267" lon="12.5971233"><ele>1679.0</ele><time>2026-04-26T16:23:43.04Z</time></trkpt><trkpt lat="46.4908317" lon="12.5971733"><ele>1678.0</ele><time>2026-04-26T16:23:45.039Z</time></trkpt><trkpt lat="46.490895" lon="12.5971833"><ele>1676.9999999999998</ele><time>2026-04-26T16:23:46.04Z</time></trkpt><trkpt lat="46.4909667" lon="12.5971917"><ele>1676.0</ele><time>2026-04-26T16:23:47.039Z</time></trkpt><trkpt lat="46.4910383" lon="12.5971983"><ele>1675.9999999999998</ele><time>2026-04-26T16:23:48.04Z</time></trkpt><trkpt lat="46.491105" lon="12.597205"><ele>1676.0</ele><time>2026-04-26T16:23:49.042Z</time></trkpt><trkpt lat="46.491205" lon="12.5971917"><ele>1676.0</ele><time>2026-04-26T16:23:51.04Z</time></trkpt><trkpt lat="46.491185" lon="12.5970933"><ele>1676.0</ele><time>2026-04-26T16:23:55.037Z</time></trkpt><trkpt lat="46.491065" lon="12.597035"><ele>1675.9999999999998</ele><time>2026-04-26T16:23:57.041Z</time></trkpt><trkpt lat="46.4910017" lon="12.5969983"><ele>1676.0</ele><time>2026-04-26T16:23:58.038Z</time></trkpt><trkpt lat="46.4909417" lon="12.5969583"><ele>1678.9999999999998</ele><time>2026-04-26T16:23:59.04Z</time></trkpt><trkpt lat="46.49089" lon="12.5969033"><ele>1682.0</ele><time>2026-04-26T16:24:00.041Z</time></trkpt><trkpt lat="46.490845" lon="12.59683"><ele>1685.0</ele><time>2026-04-26T16:24:01.041Z</time></trkpt><trkpt lat="46.4908283" lon="12.5967317"><ele>1688.0</ele><time>2026-04-26T16:24:02.045Z</time></trkpt><trkpt lat="46.4908233" lon="12.5966133"><ele>1691.0</ele><time>2026-04-26T16:24:03.037Z</time></trkpt><trkpt lat="46.4908067" lon="12.59651"><ele>1693.9999999999998</ele><time>2026-04-26T16:24:04.036Z</time></trkpt><trkpt lat="46.490775" lon="12.5964267"><ele>1697.0</ele><time>2026-04-26T16:24:05.039Z</time></trkpt><trkpt lat="46.4906783" lon="12.5963117"><ele>1696.9999999999998</ele><time>2026-04-26T16:24:07.037Z</time></trkpt><trkpt lat="46.490625" lon="12.5962517"><ele>1697.0</ele><time>2026-04-26T16:24:08.041Z</time></trkpt><trkpt lat="46.4905483" lon="12.5961217"><ele>1697.0</ele><time>2026-04-26T16:24:10.039Z</time></trkpt><trkpt lat="46.4904767" lon="12.59597"><ele>1697.0</ele><time>2026-04-26T16:24:12.042Z</time></trkpt><trkpt lat="46.4904383" lon="12.59589"><ele>1696.9999999999998</ele><time>2026-04-26T16:24:13.039Z</time></trkpt><trkpt lat="46.4904" lon="12.595815"><ele>1697.0</ele><time>2026-04-26T16:24:14.04Z</time></trkpt><trkpt lat="46.4903067" lon="12.5956783"><ele>1698.8333333333333</ele><time>2026-04-26T16:24:16.038Z</time></trkpt><trkpt lat="46.4902583" lon="12.5956"><ele>1700.6666666666665</ele><time>2026-04-26T16:24:17.041Z</time></trkpt><trkpt lat="46.4902033" lon="12.59553"><ele>1702.5</ele><time>2026-04-26T16:24:18.042Z</time></trkpt><trkpt lat="46.4901483" lon="12.5954583"><ele>1704.3333333333335</ele><time>2026-04-26T16:24:19.041Z</time></trkpt><trkpt lat="46.490095" lon="12.5954017"><ele>1706.1666666666667</ele><time>2026-04-26T16:24:20.044Z</time></trkpt><trkpt lat="46.4900417" lon="12.5953467"><ele>1708.0</ele><time>2026-04-26T16:24:21.04Z</time></trkpt><trkpt lat="46.489935" lon="12.5952567"><ele>1711.2857142857142</ele><time>2026-04-26T16:24:23.042Z</time></trkpt><trkpt lat="46.4898783" lon="12.5952083"><ele>1714.5714285714284</ele><time>2026-04-26T16:24:24.043Z</time></trkpt><trkpt lat="46.48983" lon="12.595145"><ele>1717.857142857143</ele><time>2026-04-26T16:24:25.042Z</time></trkpt><trkpt lat="46.489785" lon="12.5950683"><ele>1721.142857142857</ele><time>2026-04-26T16:24:26.043Z</time></trkpt><trkpt lat="46.489735" lon="12.5949867"><ele>1724.4285714285713</ele><time>2026-04-26T16:24:27.041Z</time></trkpt><trkpt lat="46.4896883" lon="12.5948967"><ele>1727.7142857142858</ele><time>2026-04-26T16:24:28.04Z</time></trkpt><trkpt lat="46.489645" lon="12.5948"><ele>1731.0</ele><time>2026-04-26T16:24:29.042Z</time></trkpt><trkpt lat="46.4896067" lon="12.5947017"><ele>1730.2857142857144</ele><time>2026-04-26T16:24:30.042Z</time></trkpt><trkpt lat="46.4895717" lon="12.5946083"><ele>1729.5714285714284</ele><time>2026-04-26T16:24:31.042Z</time></trkpt><trkpt lat="46.4895367" lon="12.5945167"><ele>1728.857142857143</ele><time>2026-04-26T16:24:32.044Z</time></trkpt><trkpt lat="46.4895017" lon="12.594425"><ele>1728.1428571428573</ele><time>2026-04-26T16:24:33.042Z</time></trkpt><trkpt lat="46.4894683" lon="12.5943317"><ele>1727.4285714285716</ele><time>2026-04-26T16:24:34.039Z</time></trkpt><trkpt lat="46.4894333" lon="12.59424"><ele>1726.7142857142858</ele><time>2026-04-26T16:24:35.04Z</time></trkpt><trkpt lat="46.4893933" lon="12.5941567"><ele>1726.0</ele><time>2026-04-26T16:24:36.043Z</time></trkpt><trkpt lat="46.4893183" lon="12.59402"><ele>1726.0000000000002</ele><time>2026-04-26T16:24:38.045Z</time></trkpt><trkpt lat="46.4892317" lon="12.5939117"><ele>1726.0</ele><time>2026-04-26T16:24:40.038Z</time></trkpt><trkpt lat="46.48917" lon="12.59387"><ele>1726.0</ele><time>2026-04-26T16:24:41.039Z</time></trkpt><trkpt lat="46.4891" lon="12.5938167"><ele>1726.0</ele><time>2026-04-26T16:24:42.042Z</time></trkpt><trkpt lat="46.489035" lon="12.59378"><ele>1726.0000000000002</ele><time>2026-04-26T16:24:43.039Z</time></trkpt><trkpt lat="46.48897" lon="12.5937417"><ele>1726.0</ele><time>2026-04-26T16:24:44.042Z</time></trkpt><trkpt lat="46.4888633" lon="12.5936467"><ele>1725.5714285714287</ele><time>2026-04-26T16:24:46.04Z</time></trkpt><trkpt lat="46.4888183" lon="12.5935767"><ele>1725.142857142857</ele><time>2026-04-26T16:24:47.037Z</time></trkpt><trkpt lat="46.4887783" lon="12.59349"><ele>1724.7142857142858</ele><time>2026-04-26T16:24:48.044Z</time></trkpt><trkpt lat="46.4887417" lon="12.5933967"><ele>1724.2857142857142</ele><time>2026-04-26T16:24:49.037Z</time></trkpt><trkpt lat="46.4887083" lon="12.5933117"><ele>1723.857142857143</ele><time>2026-04-26T16:24:50.044Z</time></trkpt><trkpt lat="46.488675" lon="12.5932267"><ele>1723.4285714285716</ele><time>2026-04-26T16:24:51.04Z</time></trkpt><trkpt lat="46.4886467" lon="12.5931383"><ele>1723.0</ele><time>2026-04-26T16:24:52.036Z</time></trkpt><trkpt lat="46.4886183" lon="12.593055"><ele>1723.0000000000002</ele><time>2026-04-26T16:24:53.039Z</time></trkpt><trkpt lat="46.4885867" lon="12.5929667"><ele>1723.0</ele><time>2026-04-26T16:24:54.041Z</time></trkpt><trkpt lat="46.488555" lon="12.5928833"><ele>1723.0</ele><time>2026-04-26T16:24:55.041Z</time></trkpt><trkpt lat="46.4885217" lon="12.5927267"><ele>1723.0</ele><time>2026-04-26T16:24:57.034Z</time></trkpt><trkpt lat="46.4885033" lon="12.5925533"><ele>1723.0000000000002</ele><time>2026-04-26T16:24:59.037Z</time></trkpt><trkpt lat="46.4884883" lon="12.5924583"><ele>1723.0</ele><time>2026-04-26T16:25:00.041Z</time></trkpt><trkpt lat="46.4884733" lon="12.5923617"><ele>1724.4285714285716</ele><time>2026-04-26T16:25:01.039Z</time></trkpt><trkpt lat="46.4884517" lon="12.59227"><ele>1725.857142857143</ele><time>2026-04-26T16:25:02.042Z</time></trkpt><trkpt lat="46.4884233" lon="12.5921767"><ele>1727.2857142857142</ele><time>2026-04-26T16:25:03.04Z</time></trkpt><trkpt lat="46.48839" lon="12.59208"><ele>1728.7142857142858</ele><time>2026-04-26T16:25:04.037Z</time></trkpt><trkpt lat="46.4883517" lon="12.592"><ele>1730.142857142857</ele><time>2026-04-26T16:25:05.037Z</time></trkpt><trkpt lat="46.488315" lon="12.5919217"><ele>1731.5714285714287</ele><time>2026-04-26T16:25:06.04Z</time></trkpt><trkpt lat="46.4882783" lon="12.5918417"><ele>1733.0</ele><time>2026-04-26T16:25:07.039Z</time></trkpt><trkpt lat="46.4882517" lon="12.59168"><ele>1734.6666666666665</ele><time>2026-04-26T16:25:09.037Z</time></trkpt><trkpt lat="46.488285" lon="12.5915083"><ele>1736.3333333333333</ele><time>2026-04-26T16:25:11.037Z</time></trkpt><trkpt lat="46.4883083" lon="12.5914117"><ele>1738.0</ele><time>2026-04-26T16:25:12.042Z</time></trkpt><trkpt lat="46.4883233" lon="12.5913183"><ele>1739.6666666666665</ele><time>2026-04-26T16:25:13.04Z</time></trkpt><trkpt lat="46.4883317" lon="12.5912233"><ele>1741.3333333333333</ele><time>2026-04-26T16:25:14.043Z</time></trkpt><trkpt lat="46.4883383" lon="12.5911217"><ele>1743.0</ele><time>2026-04-26T16:25:15.042Z</time></trkpt><trkpt lat="46.4883367" lon="12.5910233"><ele>1744.7142857142858</ele><time>2026-04-26T16:25:16.04Z</time></trkpt><trkpt lat="46.4883283" lon="12.5909183"><ele>1746.4285714285716</ele><time>2026-04-26T16:25:17.038Z</time></trkpt><trkpt lat="46.488315" lon="12.5908067"><ele>1748.142857142857</ele><time>2026-04-26T16:25:18.04Z</time></trkpt><trkpt lat="46.488295" lon="12.5907067"><ele>1749.857142857143</ele><time>2026-04-26T16:25:19.039Z</time></trkpt><trkpt lat="46.48828" lon="12.5905933"><ele>1751.5714285714287</ele><time>2026-04-26T16:25:20.041Z</time></trkpt><trkpt lat="46.4882667" lon="12.590485"><ele>1753.2857142857142</ele><time>2026-04-26T16:25:21.039Z</time></trkpt><trkpt lat="46.4882483" lon="12.5903883"><ele>1755.0</ele><time>2026-04-26T16:25:22.037Z</time></trkpt><trkpt lat="46.48823" lon="12.590295"><ele>1756.6666666666667</ele><time>2026-04-26T16:25:23.035Z</time></trkpt><trkpt lat="46.488195" lon="12.5901417"><ele>1758.3333333333335</ele><time>2026-04-26T16:25:25.035Z</time></trkpt><trkpt lat="46.4881667" lon="12.5899683"><ele>1760.0</ele><time>2026-04-26T16:25:27.039Z</time></trkpt><trkpt lat="46.488145" lon="12.58988"><ele>1761.6666666666667</ele><time>2026-04-26T16:25:28.036Z</time></trkpt><trkpt lat="46.4881167" lon="12.5897883"><ele>1763.3333333333335</ele><time>2026-04-26T16:25:29.036Z</time></trkpt><trkpt lat="46.4880867" lon="12.589685"><ele>1765.0</ele><time>2026-04-26T16:25:30.04Z</time></trkpt><trkpt lat="46.488065" lon="12.5895767"><ele>1766.0</ele><time>2026-04-26T16:25:31.039Z</time></trkpt><trkpt lat="46.4880467" lon="12.5894633"><ele>1767.0</ele><time>2026-04-26T16:25:32.038Z</time></trkpt><trkpt lat="46.4880383" lon="12.58935"><ele>1768.0</ele><time>2026-04-26T16:25:33.04Z</time></trkpt><trkpt lat="46.4880433" lon="12.589245"><ele>1769.0</ele><time>2026-04-26T16:25:34.038Z</time></trkpt><trkpt lat="46.488045" lon="12.5891433"><ele>1770.0</ele><time>2026-04-26T16:25:35.038Z</time></trkpt><trkpt lat="46.4880367" lon="12.589045"><ele>1771.0</ele><time>2026-04-26T16:25:36.04Z</time></trkpt><trkpt lat="46.4880183" lon="12.5889433"><ele>1772.0</ele><time>2026-04-26T16:25:37.034Z</time></trkpt><trkpt lat="46.4879983" lon="12.588845"><ele>1771.9999999999998</ele><time>2026-04-26T16:25:38.039Z</time></trkpt><trkpt lat="46.48798" lon="12.5887467"><ele>1772.0</ele><time>2026-04-26T16:25:39.04Z</time></trkpt><trkpt lat="46.4879633" lon="12.5886583"><ele>1772.0</ele><time>2026-04-26T16:25:40.037Z</time></trkpt><trkpt lat="46.4879483" lon="12.5885683"><ele>1772.0</ele><time>2026-04-26T16:25:41.041Z</time></trkpt><trkpt lat="46.4879317" lon="12.5883867"><ele>1771.9999999999998</ele><time>2026-04-26T16:25:43.037Z</time></trkpt><trkpt lat="46.48792" lon="12.5882917"><ele>1772.0</ele><time>2026-04-26T16:25:44.04Z</time></trkpt><trkpt lat="46.4878983" lon="12.5881983"><ele>1771.4999999999998</ele><time>2026-04-26T16:25:45.042Z</time></trkpt><trkpt lat="46.4878767" lon="12.5881067"><ele>1771.0</ele><time>2026-04-26T16:25:46.039Z</time></trkpt><trkpt lat="46.487855" lon="12.5880117"><ele>1770.5</ele><time>2026-04-26T16:25:47.041Z</time></trkpt><trkpt lat="46.487845" lon="12.5879117"><ele>1770.0</ele><time>2026-04-26T16:25:48.038Z</time></trkpt><trkpt lat="46.487845" lon="12.5878067"><ele>1769.4999999999998</ele><time>2026-04-26T16:25:49.036Z</time></trkpt><trkpt lat="46.4878333" lon="12.5876217"><ele>1769.0</ele><time>2026-04-26T16:25:51.041Z</time></trkpt><trkpt lat="46.4878133" lon="12.5875283"><ele>1769.0</ele><time>2026-04-26T16:25:52.041Z</time></trkpt><trkpt lat="46.487785" lon="12.5874417"><ele>1769.0</ele><time>2026-04-26T16:25:53.04Z</time></trkpt><trkpt lat="46.4877617" lon="12.5873517"><ele>1769.0</ele><time>2026-04-26T16:25:54.038Z</time></trkpt><trkpt lat="46.487745" lon="12.5872517"><ele>1769.0</ele><time>2026-04-26T16:25:55.037Z</time></trkpt><trkpt lat="46.4877367" lon="12.5871533"><ele>1769.0</ele><time>2026-04-26T16:25:56.041Z</time></trkpt><trkpt lat="46.48774" lon="12.5869867"><ele>1769.0</ele><time>2026-04-26T16:25:58.037Z</time></trkpt><trkpt lat="46.487745" lon="12.586895"><ele>1769.0</ele><time>2026-04-26T16:25:59.041Z</time></trkpt><trkpt lat="46.4877533" lon="12.5867883"><ele>1770.1666666666665</ele><time>2026-04-26T16:26:00.04Z</time></trkpt><trkpt lat="46.487765" lon="12.5866783"><ele>1771.3333333333333</ele><time>2026-04-26T16:26:01.039Z</time></trkpt><trkpt lat="46.487785" lon="12.5865617"><ele>1772.5</ele><time>2026-04-26T16:26:02.042Z</time></trkpt><trkpt lat="46.48781" lon="12.586455"><ele>1773.6666666666665</ele><time>2026-04-26T16:26:03.038Z</time></trkpt><trkpt lat="46.4878283" lon="12.5863417"><ele>1774.8333333333333</ele><time>2026-04-26T16:26:04.036Z</time></trkpt><trkpt lat="46.4878367" lon="12.586235"><ele>1776.0</ele><time>2026-04-26T16:26:05.041Z</time></trkpt><trkpt lat="46.4878383" lon="12.5861167"><ele>1777.1999999999998</ele><time>2026-04-26T16:26:06.041Z</time></trkpt><trkpt lat="46.4878367" lon="12.5859967"><ele>1778.3999999999999</ele><time>2026-04-26T16:26:07.039Z</time></trkpt><trkpt lat="46.4878317" lon="12.585865"><ele>1779.6</ele><time>2026-04-26T16:26:08.043Z</time></trkpt><trkpt lat="46.48782" lon="12.5857333"><ele>1780.8</ele><time>2026-04-26T16:26:09.04Z</time></trkpt><trkpt lat="46.4878067" lon="12.5855933"><ele>1782.0</ele><time>2026-04-26T16:26:10.038Z</time></trkpt><trkpt lat="46.4877917" lon="12.5854417"><ele>1783.0</ele><time>2026-04-26T16:26:11.041Z</time></trkpt><trkpt lat="46.4877733" lon="12.5852917"><ele>1783.9999999999998</ele><time>2026-04-26T16:26:12.04Z</time></trkpt><trkpt lat="46.4877533" lon="12.5851433"><ele>1784.9999999999998</ele><time>2026-04-26T16:26:13.04Z</time></trkpt><trkpt lat="46.48773" lon="12.58501"><ele>1786.0</ele><time>2026-04-26T16:26:14.042Z</time></trkpt><trkpt lat="46.487705" lon="12.5848933"><ele>1787.0</ele><time>2026-04-26T16:26:15.04Z</time></trkpt><trkpt lat="46.4876683" lon="12.5848033"><ele>1786.9999999999998</ele><time>2026-04-26T16:26:16.04Z</time></trkpt><trkpt lat="46.487615" lon="12.5847333"><ele>1787.0</ele><time>2026-04-26T16:26:17.039Z</time></trkpt><trkpt lat="46.4875467" lon="12.5846833"><ele>1787.0</ele><time>2026-04-26T16:26:18.041Z</time></trkpt><trkpt lat="46.4874817" lon="12.584635"><ele>1787.0</ele><time>2026-04-26T16:26:19.04Z</time></trkpt><trkpt lat="46.4874067" lon="12.58452"><ele>1786.9999999999998</ele><time>2026-04-26T16:26:21.039Z</time></trkpt><trkpt lat="46.4873833" lon="12.5843633"><ele>1787.0</ele><time>2026-04-26T16:26:23.039Z</time></trkpt><trkpt lat="46.4873767" lon="12.5842617"><ele>1788.3999999999999</ele><time>2026-04-26T16:26:24.041Z</time></trkpt><trkpt lat="46.48737" lon="12.5841533"><ele>1789.7999999999997</ele><time>2026-04-26T16:26:25.038Z</time></trkpt><trkpt lat="46.48737" lon="12.5840367"><ele>1791.2</ele><time>2026-04-26T16:26:26.042Z</time></trkpt><trkpt lat="46.4873667" lon="12.5837967"><ele>1792.6</ele><time>2026-04-26T16:26:28.034Z</time></trkpt><trkpt lat="46.4873567" lon="12.5836967"><ele>1794.0</ele><time>2026-04-26T16:26:29.038Z</time></trkpt><trkpt lat="46.487305" lon="12.5835717"><ele>1794.6</ele><time>2026-04-26T16:26:31.04Z</time></trkpt><trkpt lat="46.48722" lon="12.583505"><ele>1795.2</ele><time>2026-04-26T16:26:33.034Z</time></trkpt><trkpt lat="46.4871633" lon="12.5833833"><ele>1795.7999999999997</ele><time>2026-04-26T16:26:35.036Z</time></trkpt><trkpt lat="46.4871933" lon="12.5832133"><ele>1796.3999999999999</ele><time>2026-04-26T16:26:37.04Z</time></trkpt><trkpt lat="46.4872283" lon="12.5831283"><ele>1797.0</ele><time>2026-04-26T16:26:38.039Z</time></trkpt><trkpt lat="46.4872717" lon="12.5830333"><ele>1797.0</ele><time>2026-04-26T16:26:39.039Z</time></trkpt><trkpt lat="46.4873217" lon="12.5829283"><ele>1797.0</ele><time>2026-04-26T16:26:40.038Z</time></trkpt><trkpt lat="46.4873667" lon="12.5828217"><ele>1797.0</ele><time>2026-04-26T16:26:41.037Z</time></trkpt><trkpt lat="46.4873983" lon="12.5827283"><ele>1797.0</ele><time>2026-04-26T16:26:42.042Z</time></trkpt><trkpt lat="46.48743" lon="12.58263"><ele>1797.0</ele><time>2026-04-26T16:26:43.038Z</time></trkpt><trkpt lat="46.4874617" lon="12.5825333"><ele>1797.0</ele><time>2026-04-26T16:26:44.04Z</time></trkpt><trkpt lat="46.4874867" lon="12.582435"><ele>1796.8571428571427</ele><time>2026-04-26T16:26:45.041Z</time></trkpt><trkpt lat="46.4875167" lon="12.582335"><ele>1796.7142857142858</ele><time>2026-04-26T16:26:46.038Z</time></trkpt><trkpt lat="46.4875483" lon="12.5822317"><ele>1796.5714285714284</ele><time>2026-04-26T16:26:47.041Z</time></trkpt><trkpt lat="46.4875817" lon="12.5821333"><ele>1796.4285714285713</ele><time>2026-04-26T16:26:48.04Z</time></trkpt><trkpt lat="46.4876083" lon="12.5820367"><ele>1796.2857142857142</ele><time>2026-04-26T16:26:49.04Z</time></trkpt><trkpt lat="46.48764" lon="12.5819467"><ele>1796.142857142857</ele><time>2026-04-26T16:26:50.04Z</time></trkpt><trkpt lat="46.4876683" lon="12.58186"><ele>1796.0</ele><time>2026-04-26T16:26:51.038Z</time></trkpt><trkpt lat="46.4877333" lon="12.5817133"><ele>1793.8</ele><time>2026-04-26T16:26:53.038Z</time></trkpt><trkpt lat="46.48779" lon="12.5815633"><ele>1791.6</ele><time>2026-04-26T16:26:55.036Z</time></trkpt><trkpt lat="46.487845" lon="12.581415"><ele>1789.4</ele><time>2026-04-26T16:26:57.036Z</time></trkpt><trkpt lat="46.48789" lon="12.58125"><ele>1787.2</ele><time>2026-04-26T16:26:59.039Z</time></trkpt><trkpt lat="46.4879067" lon="12.5811533"><ele>1785.0</ele><time>2026-04-26T16:27:00.041Z</time></trkpt><trkpt lat="46.4879183" lon="12.58098"><ele>1782.5</ele><time>2026-04-26T16:27:02.036Z</time></trkpt><trkpt lat="46.4879133" lon="12.5808067"><ele>1780.0</ele><time>2026-04-26T16:27:04.037Z</time></trkpt><trkpt lat="46.4879067" lon="12.580715"><ele>1777.5</ele><time>2026-04-26T16:27:05.038Z</time></trkpt><trkpt lat="46.48791" lon="12.5806117"><ele>1775.0</ele><time>2026-04-26T16:27:06.04Z</time></trkpt><trkpt lat="46.4879117" lon="12.580495"><ele>1772.5</ele><time>2026-04-26T16:27:07.039Z</time></trkpt><trkpt lat="46.4879133" lon="12.580365"><ele>1770.0</ele><time>2026-04-26T16:27:08.039Z</time></trkpt><trkpt lat="46.4879167" lon="12.5802267"><ele>1777.2</ele><time>2026-04-26T16:27:09.038Z</time></trkpt><trkpt lat="46.4879317" lon="12.580085"><ele>1784.4</ele><time>2026-04-26T16:27:10.038Z</time></trkpt><trkpt lat="46.487965" lon="12.5799533"><ele>1791.6</ele><time>2026-04-26T16:27:11.039Z</time></trkpt><trkpt lat="46.488015" lon="12.5798383"><ele>1798.8</ele><time>2026-04-26T16:27:12.04Z</time></trkpt><trkpt lat="46.488055" lon="12.5797167"><ele>1806.0</ele><time>2026-04-26T16:27:13.039Z</time></trkpt><trkpt lat="46.4880767" lon="12.579585"><ele>1803.8</ele><time>2026-04-26T16:27:14.036Z</time></trkpt><trkpt lat="46.4880783" lon="12.5794467"><ele>1801.6</ele><time>2026-04-26T16:27:15.036Z</time></trkpt><trkpt lat="46.4880717" lon="12.579315"><ele>1799.4</ele><time>2026-04-26T16:27:16.038Z</time></trkpt><trkpt lat="46.4880567" lon="12.5791933"><ele>1797.2</ele><time>2026-04-26T16:27:17.041Z</time></trkpt><trkpt lat="46.4880433" lon="12.5790817"><ele>1795.0</ele><time>2026-04-26T16:27:18.039Z</time></trkpt><trkpt lat="46.4880217" lon="12.578915"><ele>1795.0</ele><time>2026-04-26T16:27:20.04Z</time></trkpt><trkpt lat="46.488055" lon="12.5788017"><ele>1795.0</ele><time>2026-04-26T16:27:22.04Z</time></trkpt><trkpt lat="46.48813" lon="12.5787267"><ele>1795.0</ele><time>2026-04-26T16:27:24.041Z</time></trkpt><trkpt lat="46.4882283" lon="12.57867"><ele>1795.0</ele><time>2026-04-26T16:27:26.039Z</time></trkpt><trkpt lat="46.4883383" lon="12.5786333"><ele>1795.0</ele><time>2026-04-26T16:27:28.037Z</time></trkpt><trkpt lat="46.4884483" lon="12.57859"><ele>1792.6</ele><time>2026-04-26T16:27:30.041Z</time></trkpt><trkpt lat="46.4885617" lon="12.5785333"><ele>1790.2</ele><time>2026-04-26T16:27:32.039Z</time></trkpt><trkpt lat="46.4886867" lon="12.5785283"><ele>1787.8000000000002</ele><time>2026-04-26T16:27:34.037Z</time></trkpt><trkpt lat="46.4887583" lon="12.5785167"><ele>1785.4</ele><time>2026-04-26T16:27:35.039Z</time></trkpt><trkpt lat="46.4888267" lon="12.5785017"><ele>1783.0</ele><time>2026-04-26T16:27:36.04Z</time></trkpt><trkpt lat="46.4888917" lon="12.578475"><ele>1787.3333333333335</ele><time>2026-04-26T16:27:37.04Z</time></trkpt><trkpt lat="46.4889533" lon="12.5784433"><ele>1791.6666666666667</ele><time>2026-04-26T16:27:38.039Z</time></trkpt><trkpt lat="46.489065" lon="12.5783717"><ele>1796.0</ele><time>2026-04-26T16:27:40.038Z</time></trkpt><trkpt lat="46.4891133" lon="12.57831"><ele>1800.3333333333335</ele><time>2026-04-26T16:27:41.04Z</time></trkpt><trkpt lat="46.4891567" lon="12.578235"><ele>1804.6666666666667</ele><time>2026-04-26T16:27:42.037Z</time></trkpt><trkpt lat="46.48924" lon="12.5781183"><ele>1809.0</ele><time>2026-04-26T16:27:44.044Z</time></trkpt><trkpt lat="46.4893417" lon="12.5780367"><ele>1809.0</ele><time>2026-04-26T16:27:46.036Z</time></trkpt><trkpt lat="46.489445" lon="12.57784"><ele>1809.0</ele><time>2026-04-26T16:27:48.439Z</time></trkpt><trkpt lat="46.489505" lon="12.5779617"><ele>1809.0</ele><time>2026-04-26T16:27:49.783Z</time></trkpt><trkpt lat="46.4896433" lon="12.5779317"><ele>1809.0</ele><time>2026-04-26T16:27:52.037Z</time></trkpt><trkpt lat="46.4897283" lon="12.5779267"><ele>1812.6</ele><time>2026-04-26T16:27:54.034Z</time></trkpt><trkpt lat="46.4898317" lon="12.57794"><ele>1816.2</ele><time>2026-04-26T16:27:56.034Z</time></trkpt><trkpt lat="46.4899317" lon="12.5780033"><ele>1819.7999999999997</ele><time>2026-04-26T16:27:58.038Z</time></trkpt><trkpt lat="46.4900267" lon="12.5780917"><ele>1823.3999999999999</ele><time>2026-04-26T16:28:00.038Z</time></trkpt><trkpt lat="46.49009" lon="12.57818"><ele>1827.0</ele><time>2026-04-26T16:28:02.038Z</time></trkpt><trkpt lat="46.49013" lon="12.5782667"><ele>1827.0</ele><time>2026-04-26T16:28:08.039Z</time></trkpt><trkpt lat="46.4901" lon="12.5781767"><ele>1826.9999999999998</ele><time>2026-04-26T16:28:26.038Z</time></trkpt><trkpt lat="46.4901033" lon="12.57806"><ele>1826.9999999999998</ele><time>2026-04-26T16:28:56.039Z</time></trkpt><trkpt lat="46.49003" lon="12.5779417"><ele>1827.0</ele><time>2026-04-26T16:28:59.039Z</time></trkpt><trkpt lat="46.4899267" lon="12.5778383"><ele>1827.0</ele><time>2026-04-26T16:29:01.041Z</time></trkpt><trkpt lat="46.489865" lon="12.5777933"><ele>1824.0</ele><time>2026-04-26T16:29:02.038Z</time></trkpt><trkpt lat="46.4897867" lon="12.577765"><ele>1821.0</ele><time>2026-04-26T16:29:03.037Z</time></trkpt><trkpt lat="46.489705" lon="12.5777533"><ele>1818.0</ele><time>2026-04-26T16:29:04.035Z</time></trkpt><trkpt lat="46.4896117" lon="12.57778"><ele>1815.0</ele><time>2026-04-26T16:29:05.038Z</time></trkpt><trkpt lat="46.4895233" lon="12.5778083"><ele>1812.0</ele><time>2026-04-26T16:29:06.042Z</time></trkpt><trkpt lat="46.4894333" lon="12.57785"><ele>1809.0</ele><time>2026-04-26T16:29:07.04Z</time></trkpt><trkpt lat="46.4893483" lon="12.5779"><ele>1809.0</ele><time>2026-04-26T16:29:08.035Z</time></trkpt><trkpt lat="46.4892667" lon="12.5779633"><ele>1809.0</ele><time>2026-04-26T16:29:09.041Z</time></trkpt><trkpt lat="46.4891967" lon="12.57804"><ele>1809.0</ele><time>2026-04-26T16:29:10.039Z</time></trkpt><trkpt lat="46.48914" lon="12.5781283"><ele>1809.0</ele><time>2026-04-26T16:29:11.037Z</time></trkpt><trkpt lat="46.4890817" lon="12.578215"><ele>1809.0</ele><time>2026-04-26T16:29:12.043Z</time></trkpt><trkpt lat="46.489015" lon="12.5782967"><ele>1809.0</ele><time>2026-04-26T16:29:13.038Z</time></trkpt><trkpt lat="46.488935" lon="12.5783717"><ele>1809.0</ele><time>2026-04-26T16:29:14.038Z</time></trkpt><trkpt lat="46.4888567" lon="12.57844"><ele>1809.0</ele><time>2026-04-26T16:29:15.039Z</time></trkpt><trkpt lat="46.4887867" lon="12.5784833"><ele>1809.0</ele><time>2026-04-26T16:29:16.036Z</time></trkpt><trkpt lat="46.48872" lon="12.578515"><ele>1809.0</ele><time>2026-04-26T16:29:17.037Z</time></trkpt><trkpt lat="46.4886467" lon="12.578545"><ele>1809.0</ele><time>2026-04-26T16:29:18.04Z</time></trkpt><trkpt lat="46.4885683" lon="12.57859"><ele>1809.0</ele><time>2026-04-26T16:29:19.039Z</time></trkpt><trkpt lat="46.4884917" lon="12.5786367"><ele>1806.6666666666667</ele><time>2026-04-26T16:29:20.041Z</time></trkpt><trkpt lat="46.4884217" lon="12.5786767"><ele>1804.3333333333335</ele><time>2026-04-26T16:29:21.04Z</time></trkpt><trkpt lat="46.4883467" lon="12.578725"><ele>1802.0</ele><time>2026-04-26T16:29:22.039Z</time></trkpt><trkpt lat="46.4882767" lon="12.57876"><ele>1799.6666666666667</ele><time>2026-04-26T16:29:23.039Z</time></trkpt><trkpt lat="46.4882017" lon="12.57879"><ele>1797.3333333333335</ele><time>2026-04-26T16:29:24.039Z</time></trkpt><trkpt lat="46.4881383" lon="12.5787983"><ele>1795.0</ele><time>2026-04-26T16:29:25.038Z</time></trkpt><trkpt lat="46.4880567" lon="12.578775"><ele>1795.0000000000002</ele><time>2026-04-26T16:29:27.04Z</time></trkpt><trkpt lat="46.488005" lon="12.5787017"><ele>1795.0</ele><time>2026-04-26T16:29:29.041Z</time></trkpt><trkpt lat="46.488015" lon="12.5785817"><ele>1795.0</ele><time>2026-04-26T16:29:31.04Z</time></trkpt><trkpt lat="46.4880667" lon="12.5784617"><ele>1795.0</ele><time>2026-04-26T16:29:33.041Z</time></trkpt><trkpt lat="46.4881367" lon="12.578325"><ele>1795.0000000000002</ele><time>2026-04-26T16:29:35.039Z</time></trkpt><trkpt lat="46.488165" lon="12.5782433"><ele>1795.0</ele><time>2026-04-26T16:29:36.044Z</time></trkpt><trkpt lat="46.4881867" lon="12.578065"><ele>1793.2857142857144</ele><time>2026-04-26T16:29:38.042Z</time></trkpt><trkpt lat="46.4881817" lon="12.5779717"><ele>1791.571428571429</ele><time>2026-04-26T16:29:39.04Z</time></trkpt><trkpt lat="46.4881717" lon="12.5778767"><ele>1789.857142857143</ele><time>2026-04-26T16:29:40.04Z</time></trkpt><trkpt lat="46.4881617" lon="12.577775"><ele>1788.1428571428573</ele><time>2026-04-26T16:29:41.039Z</time></trkpt><trkpt lat="46.48815" lon="12.5776667"><ele>1786.4285714285716</ele><time>2026-04-26T16:29:42.039Z</time></trkpt><trkpt lat="46.4881417" lon="12.5775583"><ele>1784.7142857142858</ele><time>2026-04-26T16:29:43.04Z</time></trkpt><trkpt lat="46.48813" lon="12.577445"><ele>1783.0</ele><time>2026-04-26T16:29:44.042Z</time></trkpt><trkpt lat="46.4881167" lon="12.5773317"><ele>1780.3333333333335</ele><time>2026-04-26T16:29:45.04Z</time></trkpt><trkpt lat="46.4880967" lon="12.5772233"><ele>1777.6666666666667</ele><time>2026-04-26T16:29:46.041Z</time></trkpt><trkpt lat="46.4880683" lon="12.5771067"><ele>1775.0</ele><time>2026-04-26T16:29:47.037Z</time></trkpt><trkpt lat="46.4880367" lon="12.5769983"><ele>1772.3333333333335</ele><time>2026-04-26T16:29:48.04Z</time></trkpt><trkpt lat="46.488" lon="12.57688"><ele>1769.6666666666667</ele><time>2026-04-26T16:29:49.039Z</time></trkpt><trkpt lat="46.4879533" lon="12.5767583"><ele>1767.0</ele><time>2026-04-26T16:29:50.04Z</time></trkpt><trkpt lat="46.487905" lon="12.5766367"><ele>1765.0</ele><time>2026-04-26T16:29:51.04Z</time></trkpt><trkpt lat="46.487855" lon="12.5765183"><ele>1762.9999999999998</ele><time>2026-04-26T16:29:52.039Z</time></trkpt><trkpt lat="46.4877883" lon="12.5764083"><ele>1760.9999999999998</ele><time>2026-04-26T16:29:53.037Z</time></trkpt><trkpt lat="46.4877167" lon="12.576315"><ele>1759.0</ele><time>2026-04-26T16:29:54.038Z</time></trkpt><trkpt lat="46.487645" lon="12.5762283"><ele>1757.0</ele><time>2026-04-26T16:29:55.04Z</time></trkpt><trkpt lat="46.4875817" lon="12.5761433"><ele>1754.9999999999998</ele><time>2026-04-26T16:29:56.043Z</time></trkpt><trkpt lat="46.4875333" lon="12.5760417"><ele>1753.0</ele><time>2026-04-26T16:29:57.04Z</time></trkpt><trkpt lat="46.4874967" lon="12.575925"><ele>1751.0</ele><time>2026-04-26T16:29:58.039Z</time></trkpt><trkpt lat="46.487475" lon="12.5758017"><ele>1749.0</ele><time>2026-04-26T16:29:59.041Z</time></trkpt><trkpt lat="46.4874583" lon="12.5756717"><ele>1746.9999999999998</ele><time>2026-04-26T16:30:00.041Z</time></trkpt><trkpt lat="46.48746" lon="12.5755433"><ele>1745.0</ele><time>2026-04-26T16:30:01.038Z</time></trkpt><trkpt lat="46.48747" lon="12.57542"><ele>1744.9999999999998</ele><time>2026-04-26T16:30:02.04Z</time></trkpt><trkpt lat="46.4874983" lon="12.5752983"><ele>1745.0</ele><time>2026-04-26T16:30:03.04Z</time></trkpt><trkpt lat="46.4875583" lon="12.5752267"><ele>1745.0</ele><time>2026-04-26T16:30:05.04Z</time></trkpt><trkpt lat="46.4876333" lon="12.575315"><ele>1745.0</ele><time>2026-04-26T16:30:07.037Z</time></trkpt><trkpt lat="46.4876417" lon="12.5754233"><ele>1744.9999999999998</ele><time>2026-04-26T16:30:08.04Z</time></trkpt><trkpt lat="46.48764" lon="12.575555"><ele>1745.0</ele><time>2026-04-26T16:30:09.041Z</time></trkpt><trkpt lat="46.48762" lon="12.5756833"><ele>1745.0</ele><time>2026-04-26T16:30:10.039Z</time></trkpt><trkpt lat="46.48762" lon="12.5757883"><ele>1745.0</ele><time>2026-04-26T16:30:11.039Z</time></trkpt><trkpt lat="46.4876483" lon="12.5758817"><ele>1745.0</ele><time>2026-04-26T16:30:12.043Z</time></trkpt><trkpt lat="46.4876933" lon="12.575955"><ele>1745.0</ele><time>2026-04-26T16:30:13.041Z</time></trkpt><trkpt lat="46.487745" lon="12.57602"><ele>1745.0</ele><time>2026-04-26T16:30:14.048Z</time></trkpt><trkpt lat="46.4878017" lon="12.5760883"><ele>1745.0</ele><time>2026-04-26T16:30:15.039Z</time></trkpt><trkpt lat="46.48786" lon="12.5761633"><ele>1745.0</ele><time>2026-04-26T16:30:16.041Z</time></trkpt><trkpt lat="46.4879167" lon="12.576235"><ele>1745.1666666666665</ele><time>2026-04-26T16:30:17.037Z</time></trkpt><trkpt lat="46.4879767" lon="12.576305"><ele>1745.3333333333333</ele><time>2026-04-26T16:30:18.039Z</time></trkpt><trkpt lat="46.4880367" lon="12.5763817"><ele>1745.5</ele><time>2026-04-26T16:30:19.04Z</time></trkpt><trkpt lat="46.4880983" lon="12.5764683"><ele>1745.6666666666665</ele><time>2026-04-26T16:30:20.041Z</time></trkpt><trkpt lat="46.4881567" lon="12.5765517"><ele>1745.8333333333333</ele><time>2026-04-26T16:30:21.04Z</time></trkpt><trkpt lat="46.488215" lon="12.5766367"><ele>1746.0</ele><time>2026-04-26T16:30:22.039Z</time></trkpt><trkpt lat="46.4882667" lon="12.5767283"><ele>1746.0</ele><time>2026-04-26T16:30:23.037Z</time></trkpt><trkpt lat="46.4883167" lon="12.5768233"><ele>1746.0</ele><time>2026-04-26T16:30:24.038Z</time></trkpt><trkpt lat="46.488365" lon="12.5769017"><ele>1746.0</ele><time>2026-04-26T16:30:25.04Z</time></trkpt><trkpt lat="46.4884767" lon="12.576885"><ele>1746.0</ele><time>2026-04-26T16:30:27.039Z</time></trkpt><trkpt lat="46.4885367" lon="12.576765"><ele>1746.0</ele><time>2026-04-26T16:30:29.038Z</time></trkpt><trkpt lat="46.4884983" lon="12.5766517"><ele>1746.0</ele><time>2026-04-26T16:30:31.036Z</time></trkpt><trkpt lat="46.4884333" lon="12.5765967"><ele>1746.0</ele><time>2026-04-26T16:30:32.041Z</time></trkpt><trkpt lat="46.4883667" lon="12.57653"><ele>1746.0</ele><time>2026-04-26T16:30:33.04Z</time></trkpt><trkpt lat="46.4883133" lon="12.5764717"><ele>1746.0</ele><time>2026-04-26T16:30:34.038Z</time></trkpt><trkpt lat="46.48822" lon="12.5763717"><ele>1746.0</ele><time>2026-04-26T16:30:36.035Z</time></trkpt><trkpt lat="46.4881367" lon="12.5762883"><ele>1746.0</ele><time>2026-04-26T16:30:38.043Z</time></trkpt><trkpt lat="46.48804" lon="12.5761633"><ele>1745.8333333333333</ele><time>2026-04-26T16:30:40.041Z</time></trkpt><trkpt lat="46.487985" lon="12.57608"><ele>1745.6666666666665</ele><time>2026-04-26T16:30:41.04Z</time></trkpt><trkpt lat="46.4879217" lon="12.57599"><ele>1745.5</ele><time>2026-04-26T16:30:42.041Z</time></trkpt><trkpt lat="46.4878683" lon="12.575895"><ele>1745.3333333333333</ele><time>2026-04-26T16:30:43.04Z</time></trkpt><trkpt lat="46.4878283" lon="12.5757967"><ele>1745.1666666666665</ele><time>2026-04-26T16:30:44.04Z</time></trkpt><trkpt lat="46.487805" lon="12.575675"><ele>1745.0</ele><time>2026-04-26T16:30:45.041Z</time></trkpt><trkpt lat="46.487805" lon="12.575535"><ele>1745.0</ele><time>2026-04-26T16:30:46.039Z</time></trkpt><trkpt lat="46.4878117" lon="12.5753917"><ele>1745.0</ele><time>2026-04-26T16:30:47.039Z</time></trkpt><trkpt lat="46.48783" lon="12.5752283"><ele>1745.0</ele><time>2026-04-26T16:30:48.038Z</time></trkpt><trkpt lat="46.4878417" lon="12.5750517"><ele>1745.0</ele><time>2026-04-26T16:30:49.034Z</time></trkpt><trkpt lat="46.4878517" lon="12.5748717"><ele>1743.5</ele><time>2026-04-26T16:30:50.03Z</time></trkpt><trkpt lat="46.487865" lon="12.5746767"><ele>1742.0</ele><time>2026-04-26T16:30:51.038Z</time></trkpt><trkpt lat="46.4878833" lon="12.5744817"><ele>1740.5</ele><time>2026-04-26T16:30:52.039Z</time></trkpt><trkpt lat="46.48791" lon="12.5742883"><ele>1739.0</ele><time>2026-04-26T16:30:53.035Z</time></trkpt><trkpt lat="46.4879367" lon="12.5740983"><ele>1734.8000000000002</ele><time>2026-04-26T16:30:54.039Z</time></trkpt><trkpt lat="46.4879533" lon="12.57394"><ele>1730.6000000000001</ele><time>2026-04-26T16:30:55.038Z</time></trkpt><trkpt lat="46.4879467" lon="12.5738017"><ele>1726.4</ele><time>2026-04-26T16:30:56.042Z</time></trkpt><trkpt lat="46.487925" lon="12.5736467"><ele>1722.2</ele><time>2026-04-26T16:30:57.039Z</time></trkpt><trkpt lat="46.4878917" lon="12.5734833"><ele>1718.0</ele><time>2026-04-26T16:30:58.035Z</time></trkpt><trkpt lat="46.4878567" lon="12.5733283"><ele>1718.0</ele><time>2026-04-26T16:30:59.037Z</time></trkpt><trkpt lat="46.48783" lon="12.5731917"><ele>1718.0000000000002</ele><time>2026-04-26T16:31:00.041Z</time></trkpt><trkpt lat="46.4878267" lon="12.5730733"><ele>1718.0000000000002</ele><time>2026-04-26T16:31:01.036Z</time></trkpt><trkpt lat="46.4878433" lon="12.57297"><ele>1718.0</ele><time>2026-04-26T16:31:02.04Z</time></trkpt><trkpt lat="46.4879733" lon="12.5728483"><ele>1718.0</ele><time>2026-04-26T16:31:04.038Z</time></trkpt><trkpt lat="46.48807" lon="12.5727817"><ele>1717.6000000000001</ele><time>2026-04-26T16:31:05.038Z</time></trkpt><trkpt lat="46.48816" lon="12.5727"><ele>1717.2000000000003</ele><time>2026-04-26T16:31:06.041Z</time></trkpt><trkpt lat="46.4882367" lon="12.5725833"><ele>1716.8</ele><time>2026-04-26T16:31:07.04Z</time></trkpt><trkpt lat="46.488295" lon="12.572455"><ele>1716.4</ele><time>2026-04-26T16:31:08.042Z</time></trkpt><trkpt lat="46.488335" lon="12.5723017"><ele>1716.0</ele><time>2026-04-26T16:31:09.037Z</time></trkpt><trkpt lat="46.4883433" lon="12.57209"><ele>1715.6</ele><time>2026-04-26T16:31:10.036Z</time></trkpt><trkpt lat="46.48832" lon="12.5718983"><ele>1715.1999999999998</ele><time>2026-04-26T16:31:11.039Z</time></trkpt><trkpt lat="46.488295" lon="12.5717267"><ele>1714.8000000000002</ele><time>2026-04-26T16:31:12.042Z</time></trkpt><trkpt lat="46.48827" lon="12.571585"><ele>1714.4</ele><time>2026-04-26T16:31:13.041Z</time></trkpt><trkpt lat="46.48823" lon="12.5714633"><ele>1714.0</ele><time>2026-04-26T16:31:14.04Z</time></trkpt><trkpt lat="46.488205" lon="12.5713583"><ele>1714.0</ele><time>2026-04-26T16:31:15.041Z</time></trkpt><trkpt lat="46.4881917" lon="12.5712233"><ele>1714.0</ele><time>2026-04-26T16:31:17.04Z</time></trkpt><trkpt lat="46.4882467" lon="12.5712817"><ele>1714.0</ele><time>2026-04-26T16:31:19.039Z</time></trkpt><trkpt lat="46.48827" lon="12.5714133"><ele>1714.0</ele><time>2026-04-26T16:31:20.042Z</time></trkpt><trkpt lat="46.4883017" lon="12.57154"><ele>1714.0</ele><time>2026-04-26T16:31:21.039Z</time></trkpt><trkpt lat="46.488345" lon="12.5717483"><ele>1714.0</ele><time>2026-04-26T16:31:22.038Z</time></trkpt><trkpt lat="46.4883883" lon="12.5719333"><ele>1714.0</ele><time>2026-04-26T16:31:23.039Z</time></trkpt><trkpt lat="46.4884333" lon="12.572115"><ele>1714.0</ele><time>2026-04-26T16:31:24.04Z</time></trkpt><trkpt lat="46.48847" lon="12.5722933"><ele>1714.0</ele><time>2026-04-26T16:31:25.037Z</time></trkpt><trkpt lat="46.4884767" lon="12.572465"><ele>1714.4</ele><time>2026-04-26T16:31:26.037Z</time></trkpt><trkpt lat="46.488455" lon="12.5726383"><ele>1714.8000000000002</ele><time>2026-04-26T16:31:27.039Z</time></trkpt><trkpt lat="46.4884167" lon="12.5727817"><ele>1715.1999999999998</ele><time>2026-04-26T16:31:28.038Z</time></trkpt><trkpt lat="46.488385" lon="12.572905"><ele>1715.6</ele><time>2026-04-26T16:31:29.041Z</time></trkpt><trkpt lat="46.4883667" lon="12.57302"><ele>1716.0</ele><time>2026-04-26T16:31:30.043Z</time></trkpt><trkpt lat="46.4883567" lon="12.57313"><ele>1714.6</ele><time>2026-04-26T16:31:31.037Z</time></trkpt><trkpt lat="46.488375" lon="12.57325"><ele>1713.1999999999998</ele><time>2026-04-26T16:31:32.04Z</time></trkpt><trkpt lat="46.4884217" lon="12.573365"><ele>1711.8000000000002</ele><time>2026-04-26T16:31:33.04Z</time></trkpt><trkpt lat="46.4884883" lon="12.5734483"><ele>1710.4</ele><time>2026-04-26T16:31:34.036Z</time></trkpt><trkpt lat="46.48858" lon="12.57351"><ele>1709.0</ele><time>2026-04-26T16:31:35.038Z</time></trkpt><trkpt lat="46.48871" lon="12.57354"><ele>1705.0</ele><time>2026-04-26T16:31:36.046Z</time></trkpt><trkpt lat="46.4888283" lon="12.5735867"><ele>1701.0</ele><time>2026-04-26T16:31:37.039Z</time></trkpt><trkpt lat="46.4889267" lon="12.5736483"><ele>1697.0</ele><time>2026-04-26T16:31:38.042Z</time></trkpt><trkpt lat="46.4890133" lon="12.5737333"><ele>1693.0</ele><time>2026-04-26T16:31:39.037Z</time></trkpt><trkpt lat="46.489075" lon="12.5738667"><ele>1689.0</ele><time>2026-04-26T16:31:40.039Z</time></trkpt><trkpt lat="46.489105" lon="12.5740267"><ele>1689.0</ele><time>2026-04-26T16:31:41.039Z</time></trkpt><trkpt lat="46.4891167" lon="12.574205"><ele>1689.0</ele><time>2026-04-26T16:31:42.04Z</time></trkpt><trkpt lat="46.4891183" lon="12.5743667"><ele>1689.0</ele><time>2026-04-26T16:31:43.037Z</time></trkpt><trkpt lat="46.4890967" lon="12.5745117"><ele>1689.0</ele><time>2026-04-26T16:31:44.038Z</time></trkpt><trkpt lat="46.4890633" lon="12.57463"><ele>1689.0</ele><time>2026-04-26T16:31:45.036Z</time></trkpt><trkpt lat="46.48903" lon="12.5747283"><ele>1690.25</ele><time>2026-04-26T16:31:46.038Z</time></trkpt><trkpt lat="46.489025" lon="12.5749017"><ele>1691.5</ele><time>2026-04-26T16:31:48.039Z</time></trkpt><trkpt lat="46.4890267" lon="12.575055"><ele>1692.75</ele><time>2026-04-26T16:31:50.038Z</time></trkpt><trkpt lat="46.4890667" lon="12.5748667"><ele>1694.0</ele><time>2026-04-26T16:31:54.041Z</time></trkpt><trkpt lat="46.4891267" lon="12.5746767"><ele>1692.3333333333333</ele><time>2026-04-26T16:31:55.037Z</time></trkpt><trkpt lat="46.4891883" lon="12.5744867"><ele>1690.6666666666665</ele><time>2026-04-26T16:31:56.04Z</time></trkpt><trkpt lat="46.4892767" lon="12.5742433"><ele>1689.0</ele><time>2026-04-26T16:31:57.039Z</time></trkpt><trkpt lat="46.48934" lon="12.5740117"><ele>1689.0</ele><time>2026-04-26T16:31:58.037Z</time></trkpt><trkpt lat="46.489375" lon="12.5737967"><ele>1689.0</ele><time>2026-04-26T16:31:59.041Z</time></trkpt><trkpt lat="46.489395" lon="12.5736133"><ele>1689.0</ele><time>2026-04-26T16:32:00.04Z</time></trkpt><trkpt lat="46.4894217" lon="12.5734333"><ele>1689.0</ele><time>2026-04-26T16:32:01.039Z</time></trkpt><trkpt lat="46.4894567" lon="12.5732567"><ele>1688.0</ele><time>2026-04-26T16:32:02.038Z</time></trkpt><trkpt lat="46.4895017" lon="12.573045"><ele>1687.0</ele><time>2026-04-26T16:32:03.041Z</time></trkpt><trkpt lat="46.4895417" lon="12.5728567"><ele>1686.0</ele><time>2026-04-26T16:32:04.037Z</time></trkpt><trkpt lat="46.48956" lon="12.5727067"><ele>1685.0</ele><time>2026-04-26T16:32:05.037Z</time></trkpt><trkpt lat="46.48956" lon="12.57256"><ele>1683.5</ele><time>2026-04-26T16:32:06.039Z</time></trkpt><trkpt lat="46.4895367" lon="12.5724133"><ele>1682.0</ele><time>2026-04-26T16:32:07.04Z</time></trkpt><trkpt lat="46.48949" lon="12.5722667"><ele>1680.5</ele><time>2026-04-26T16:32:08.041Z</time></trkpt><trkpt lat="46.4894283" lon="12.5721267"><ele>1679.0</ele><time>2026-04-26T16:32:09.041Z</time></trkpt><trkpt lat="46.489355" lon="12.57198"><ele>1678.75</ele><time>2026-04-26T16:32:10.041Z</time></trkpt><trkpt lat="46.4892933" lon="12.5718267"><ele>1678.5</ele><time>2026-04-26T16:32:11.042Z</time></trkpt><trkpt lat="46.4892567" lon="12.57165"><ele>1678.25</ele><time>2026-04-26T16:32:12.041Z</time></trkpt><trkpt lat="46.48925" lon="12.5714583"><ele>1678.0</ele><time>2026-04-26T16:32:13.039Z</time></trkpt><trkpt lat="46.489265" lon="12.57126"><ele>1676.25</ele><time>2026-04-26T16:32:14.042Z</time></trkpt><trkpt lat="46.4892917" lon="12.5710683"><ele>1674.5</ele><time>2026-04-26T16:32:15.037Z</time></trkpt><trkpt lat="46.4893233" lon="12.5708883"><ele>1672.75</ele><time>2026-04-26T16:32:16.039Z</time></trkpt><trkpt lat="46.4893617" lon="12.5707217"><ele>1671.0</ele><time>2026-04-26T16:32:17.041Z</time></trkpt><trkpt lat="46.489405" lon="12.5705683"><ele>1671.0</ele><time>2026-04-26T16:32:18.042Z</time></trkpt><trkpt lat="46.489435" lon="12.5704383"><ele>1671.0</ele><time>2026-04-26T16:32:19.039Z</time></trkpt><trkpt lat="46.489435" lon="12.5703217"><ele>1671.0</ele><time>2026-04-26T16:32:20.038Z</time></trkpt><trkpt lat="46.4894183" lon="12.570225"><ele>1671.0</ele><time>2026-04-26T16:32:21.035Z</time></trkpt><trkpt lat="46.4893667" lon="12.5701567"><ele>1671.0</ele><time>2026-04-26T16:32:22.041Z</time></trkpt><trkpt lat="46.4893117" lon="12.5701017"><ele>1671.0</ele><time>2026-04-26T16:32:23.04Z</time></trkpt><trkpt lat="46.489255" lon="12.5700467"><ele>1671.0</ele><time>2026-04-26T16:32:24.04Z</time></trkpt><trkpt lat="46.4892017" lon="12.569985"><ele>1668.1999999999998</ele><time>2026-04-26T16:32:25.039Z</time></trkpt><trkpt lat="46.4891767" lon="12.5699"><ele>1665.3999999999999</ele><time>2026-04-26T16:32:26.038Z</time></trkpt><trkpt lat="46.4891883" lon="12.569785"><ele>1662.6</ele><time>2026-04-26T16:32:27.041Z</time></trkpt><trkpt lat="46.4892" lon="12.56966"><ele>1659.8</ele><time>2026-04-26T16:32:28.035Z</time></trkpt><trkpt lat="46.489215" lon="12.5695233"><ele>1657.0</ele><time>2026-04-26T16:32:29.038Z</time></trkpt><trkpt lat="46.489285" lon="12.569335"><ele>1655.0</ele><time>2026-04-26T16:32:30.034Z</time></trkpt><trkpt lat="46.4893117" lon="12.569185"><ele>1653.0</ele><time>2026-04-26T16:32:31.04Z</time></trkpt><trkpt lat="46.4893317" lon="12.5690417"><ele>1651.0</ele><time>2026-04-26T16:32:32.044Z</time></trkpt><trkpt lat="46.4893333" lon="12.5689017"><ele>1649.0</ele><time>2026-04-26T16:32:33.039Z</time></trkpt><trkpt lat="46.48931" lon="12.5687783"><ele>1647.0</ele><time>2026-04-26T16:32:34.041Z</time></trkpt><trkpt lat="46.4892633" lon="12.5686617"><ele>1640.0</ele><time>2026-04-26T16:32:35.04Z</time></trkpt><trkpt lat="46.4891867" lon="12.5685633"><ele>1633.0</ele><time>2026-04-26T16:32:36.042Z</time></trkpt><trkpt lat="46.4890833" lon="12.5685033"><ele>1626.0</ele><time>2026-04-26T16:32:37.04Z</time></trkpt><trkpt lat="46.4889633" lon="12.5684733"><ele>1619.0</ele><time>2026-04-26T16:32:38.042Z</time></trkpt><trkpt lat="46.4888417" lon="12.56844"><ele>1627.5</ele><time>2026-04-26T16:32:39.042Z</time></trkpt><trkpt lat="46.4887383" lon="12.5683783"><ele>1636.0</ele><time>2026-04-26T16:32:40.041Z</time></trkpt><trkpt lat="46.4886383" lon="12.5682833"><ele>1644.5</ele><time>2026-04-26T16:32:41.038Z</time></trkpt><trkpt lat="46.48855" lon="12.568185"><ele>1653.0</ele><time>2026-04-26T16:32:42.043Z</time></trkpt><trkpt lat="46.488445" lon="12.5680833"><ele>1653.0</ele><time>2026-04-26T16:32:43.041Z</time></trkpt><trkpt lat="46.4883283" lon="12.5679867"><ele>1653.0</ele><time>2026-04-26T16:32:44.039Z</time></trkpt><trkpt lat="46.4882" lon="12.5678767"><ele>1653.0</ele><time>2026-04-26T16:32:45.037Z</time></trkpt><trkpt lat="46.4880767" lon="12.5677533"><ele>1653.0</ele><time>2026-04-26T16:32:46.036Z</time></trkpt><trkpt lat="46.4879633" lon="12.56763"><ele>1646.0</ele><time>2026-04-26T16:32:47.04Z</time></trkpt><trkpt lat="46.4878433" lon="12.5675167"><ele>1639.0</ele><time>2026-04-26T16:32:48.034Z</time></trkpt><trkpt lat="46.4877167" lon="12.5674183"><ele>1632.0</ele><time>2026-04-26T16:32:49.038Z</time></trkpt><trkpt lat="46.4875767" lon="12.5673317"><ele>1625.0</ele><time>2026-04-26T16:32:50.037Z</time></trkpt><trkpt lat="46.4874417" lon="12.5672467"><ele>1625.0</ele><time>2026-04-26T16:32:51.037Z</time></trkpt><trkpt lat="46.4873133" lon="12.5671683"><ele>1625.0</ele><time>2026-04-26T16:32:52.035Z</time></trkpt><trkpt lat="46.4871933" lon="12.5670867"><ele>1625.0</ele><time>2026-04-26T16:32:53.037Z</time></trkpt><trkpt lat="46.4870883" lon="12.5670217"><ele>1625.0</ele><time>2026-04-26T16:32:54.036Z</time></trkpt><trkpt lat="46.4869933" lon="12.5669917"><ele>1623.6</ele><time>2026-04-26T16:32:55.039Z</time></trkpt><trkpt lat="46.48692" lon="12.5669983"><ele>1622.2</ele><time>2026-04-26T16:32:56.04Z</time></trkpt><trkpt lat="46.4868517" lon="12.567025"><ele>1620.8000000000002</ele><time>2026-04-26T16:32:57.039Z</time></trkpt><trkpt lat="46.4867517" lon="12.5670433"><ele>1619.4</ele><time>2026-04-26T16:32:59.035Z</time></trkpt><trkpt lat="46.4867333" lon="12.5669533"><ele>1618.0</ele><time>2026-04-26T16:33:02.039Z</time></trkpt><trkpt lat="46.486895" lon="12.5669067"><ele>1607.0</ele><time>2026-04-26T16:33:04.042Z</time></trkpt><trkpt lat="46.487045" lon="12.5669267"><ele>1596.0</ele><time>2026-04-26T16:33:05.038Z</time></trkpt><trkpt lat="46.4872133" lon="12.56696"><ele>1585.0</ele><time>2026-04-26T16:33:06.041Z</time></trkpt><trkpt lat="46.4873817" lon="12.56696"><ele>1585.0</ele><time>2026-04-26T16:33:07.042Z</time></trkpt><trkpt lat="46.4875217" lon="12.5669467"><ele>1585.0</ele><time>2026-04-26T16:33:08.041Z</time></trkpt><trkpt lat="46.4876733" lon="12.56692"><ele>1585.0</ele><time>2026-04-26T16:33:09.038Z</time></trkpt><trkpt lat="46.487815" lon="12.566905"><ele>1585.0</ele><time>2026-04-26T16:33:10.036Z</time></trkpt><trkpt lat="46.48795" lon="12.5669083"><ele>1581.0</ele><time>2026-04-26T16:33:11.037Z</time></trkpt><trkpt lat="46.4880733" lon="12.5669383"><ele>1577.0</ele><time>2026-04-26T16:33:12.035Z</time></trkpt><trkpt lat="46.48819" lon="12.566995"><ele>1573.0</ele><time>2026-04-26T16:33:13.038Z</time></trkpt><trkpt lat="46.4882983" lon="12.567075"><ele>1569.0</ele><time>2026-04-26T16:33:14.039Z</time></trkpt><trkpt lat="46.488405" lon="12.5671867"><ele>1568.5</ele><time>2026-04-26T16:33:15.037Z</time></trkpt><trkpt lat="46.488515" lon="12.56731"><ele>1568.0</ele><time>2026-04-26T16:33:16.035Z</time></trkpt><trkpt lat="46.4886317" lon="12.5674033"><ele>1567.5</ele><time>2026-04-26T16:33:17.039Z</time></trkpt><trkpt lat="46.4887433" lon="12.56751"><ele>1567.0</ele><time>2026-04-26T16:33:18.04Z</time></trkpt><trkpt lat="46.4888633" lon="12.56758"><ele>1567.0</ele><time>2026-04-26T16:33:19.039Z</time></trkpt><trkpt lat="46.4889917" lon="12.5676233"><ele>1567.0</ele><time>2026-04-26T16:33:20.042Z</time></trkpt><trkpt lat="46.4891233" lon="12.5676617"><ele>1567.0</ele><time>2026-04-26T16:33:21.039Z</time></trkpt><trkpt lat="46.4892533" lon="12.567665"><ele>1567.0</ele><time>2026-04-26T16:33:22.038Z</time></trkpt><trkpt lat="46.4893667" lon="12.56772"><ele>1567.0</ele><time>2026-04-26T16:33:23.037Z</time></trkpt><trkpt lat="46.4894667" lon="12.5677783"><ele>1567.0</ele><time>2026-04-26T16:33:24.039Z</time></trkpt><trkpt lat="46.4895517" lon="12.5678483"><ele>1567.0</ele><time>2026-04-26T16:33:25.039Z</time></trkpt><trkpt lat="46.4896183" lon="12.5678917"><ele>1567.0</ele><time>2026-04-26T16:33:26.038Z</time></trkpt><trkpt lat="46.4897083" lon="12.5679467"><ele>1567.0</ele><time>2026-04-26T16:33:28.039Z</time></trkpt><trkpt lat="46.4897733" lon="12.567895"><ele>1567.0</ele><time>2026-04-26T16:33:31.04Z</time></trkpt><trkpt lat="46.489705" lon="12.56778"><ele>1567.0</ele><time>2026-04-26T16:33:33.041Z</time></trkpt><trkpt lat="46.4896133" lon="12.5676833"><ele>1567.0</ele><time>2026-04-26T16:33:34.043Z</time></trkpt><trkpt lat="46.489515" lon="12.5675983"><ele>1567.0</ele><time>2026-04-26T16:33:35.039Z</time></trkpt><trkpt lat="46.4893933" lon="12.5675033"><ele>1567.0</ele><time>2026-04-26T16:33:36.041Z</time></trkpt><trkpt lat="46.48926" lon="12.5674167"><ele>1567.0</ele><time>2026-04-26T16:33:37.038Z</time></trkpt><trkpt lat="46.489065" lon="12.5673283"><ele>1567.0</ele><time>2026-04-26T16:33:38.041Z</time></trkpt><trkpt lat="46.4889233" lon="12.5672383"><ele>1567.0</ele><time>2026-04-26T16:33:39.038Z</time></trkpt><trkpt lat="46.488815" lon="12.5671433"><ele>1567.0</ele><time>2026-04-26T16:33:40.036Z</time></trkpt><trkpt lat="46.488715" lon="12.5670617"><ele>1567.0</ele><time>2026-04-26T16:33:41.038Z</time></trkpt><trkpt lat="46.48865" lon="12.56699"><ele>1567.0</ele><time>2026-04-26T16:33:42.038Z</time></trkpt><trkpt lat="46.4885983" lon="12.566925"><ele>1567.0</ele><time>2026-04-26T16:33:43.032Z</time></trkpt><trkpt lat="46.4885567" lon="12.5668083"><ele>1567.0</ele><time>2026-04-26T16:33:45.042Z</time></trkpt><trkpt lat="46.488655" lon="12.566865"><ele>1567.0</ele><time>2026-04-26T16:33:48.043Z</time></trkpt><trkpt lat="46.4887317" lon="12.5669933"><ele>1567.0</ele><time>2026-04-26T16:33:49.041Z</time></trkpt><trkpt lat="46.4888333" lon="12.5671267"><ele>1567.0</ele><time>2026-04-26T16:33:50.042Z</time></trkpt><trkpt lat="46.4889534" lon="12.5672115"><ele>1567.0</ele><time>2026-04-26T16:33:51.044Z</time></trkpt><trkpt lat="46.4890883" lon="12.5672725"><ele>1567.0</ele><time>2026-04-26T16:33:52.036Z</time></trkpt><trkpt lat="46.4892197" lon="12.5673105"><ele>1567.0</ele><time>2026-04-26T16:33:53.038Z</time></trkpt><trkpt lat="46.489343" lon="12.5673427"><ele>1567.0</ele><time>2026-04-26T16:33:54.045Z</time></trkpt><trkpt lat="46.4894475" lon="12.5673966"><ele>1567.0</ele><time>2026-04-26T16:33:55.037Z</time></trkpt><trkpt lat="46.4895548" lon="12.5674658"><ele>1567.0</ele><time>2026-04-26T16:33:56.044Z</time></trkpt><trkpt lat="46.4896717" lon="12.5675312"><ele>1567.0</ele><time>2026-04-26T16:33:57.037Z</time></trkpt><trkpt lat="46.4898013" lon="12.5675819"><ele>1567.0</ele><time>2026-04-26T16:33:58.04Z</time></trkpt><trkpt lat="46.4899373" lon="12.5676038"><ele>1560.5</ele><time>2026-04-26T16:33:59.037Z</time></trkpt><trkpt lat="46.4900741" lon="12.5675912"><ele>1554.0</ele><time>2026-04-26T16:34:00.038Z</time></trkpt><trkpt lat="46.490196" lon="12.5675683"><ele>1547.5</ele><time>2026-04-26T16:34:01.038Z</time></trkpt><trkpt lat="46.4903036" lon="12.5675562"><ele>1541.0</ele><time>2026-04-26T16:34:02.039Z</time></trkpt><trkpt lat="46.4903888" lon="12.5675858"><ele>1541.0</ele><time>2026-04-26T16:34:03.038Z</time></trkpt><trkpt lat="46.4904448" lon="12.5676422"><ele>1541.0</ele><time>2026-04-26T16:34:04.039Z</time></trkpt><trkpt lat="46.4905316" lon="12.5677294"><ele>1541.0</ele><time>2026-04-26T16:34:06.039Z</time></trkpt><trkpt lat="46.4906022" lon="12.5677378"><ele>1541.0</ele><time>2026-04-26T16:34:08.039Z</time></trkpt><trkpt lat="46.490557" lon="12.5676539"><ele>1541.0</ele><time>2026-04-26T16:34:11.039Z</time></trkpt><trkpt lat="46.4903297" lon="12.5675841"><ele>1541.0</ele><time>2026-04-26T16:34:13.04Z</time></trkpt><trkpt lat="46.4901402" lon="12.5675113"><ele>1541.0</ele><time>2026-04-26T16:34:14.042Z</time></trkpt><trkpt lat="46.4899966" lon="12.5674648"><ele>1541.0</ele><time>2026-04-26T16:34:15.037Z</time></trkpt><trkpt lat="46.4898626" lon="12.5674008"><ele>1541.0</ele><time>2026-04-26T16:34:16.032Z</time></trkpt><trkpt lat="46.4897559" lon="12.5673251"><ele>1541.0</ele><time>2026-04-26T16:34:17.038Z</time></trkpt><trkpt lat="46.4896616" lon="12.5672115"><ele>1541.0</ele><time>2026-04-26T16:34:18.039Z</time></trkpt><trkpt lat="46.4895668" lon="12.5670949"><ele>1541.0</ele><time>2026-04-26T16:34:19.038Z</time></trkpt><trkpt lat="46.4894749" lon="12.5669977"><ele>1538.4</ele><time>2026-04-26T16:34:20.04Z</time></trkpt><trkpt lat="46.4893772" lon="12.5669358"><ele>1535.8</ele><time>2026-04-26T16:34:21.039Z</time></trkpt><trkpt lat="46.4892811" lon="12.5669048"><ele>1533.2</ele><time>2026-04-26T16:34:22.036Z</time></trkpt><trkpt lat="46.4891854" lon="12.5668913"><ele>1530.6000000000001</ele><time>2026-04-26T16:34:23.037Z</time></trkpt><trkpt lat="46.4891018" lon="12.566884"><ele>1528.0</ele><time>2026-04-26T16:34:24.039Z</time></trkpt><trkpt lat="46.4890347" lon="12.5668687"><ele>1528.0</ele><time>2026-04-26T16:34:25.037Z</time></trkpt><trkpt lat="46.4889353" lon="12.5668307"><ele>1528.0</ele><time>2026-04-26T16:34:27.04Z</time></trkpt><trkpt lat="46.4890383" lon="12.56687"><ele>1528.0</ele><time>2026-04-26T16:34:33.038Z</time></trkpt><trkpt lat="46.4891334" lon="12.5668855"><ele>1528.0</ele><time>2026-04-26T16:34:34.038Z</time></trkpt><trkpt lat="46.4892385" lon="12.566917"><ele>1528.0</ele><time>2026-04-26T16:34:35.039Z</time></trkpt><trkpt lat="46.4893711" lon="12.5669687"><ele>1528.0</ele><time>2026-04-26T16:34:36.043Z</time></trkpt><trkpt lat="46.4895048" lon="12.5670252"><ele>1528.0</ele><time>2026-04-26T16:34:37.039Z</time></trkpt><trkpt lat="46.489678" lon="12.5670833"><ele>1528.0</ele><time>2026-04-26T16:34:38.037Z</time></trkpt><trkpt lat="46.4898253" lon="12.5671278"><ele>1532.3333333333333</ele><time>2026-04-26T16:34:39.038Z</time></trkpt><trkpt lat="46.489975" lon="12.567159"><ele>1536.6666666666665</ele><time>2026-04-26T16:34:40.036Z</time></trkpt><trkpt lat="46.4901294" lon="12.5671652"><ele>1541.0</ele><time>2026-04-26T16:34:41.034Z</time></trkpt><trkpt lat="46.4902989" lon="12.5671307"><ele>1530.25</ele><time>2026-04-26T16:34:42.038Z</time></trkpt><trkpt lat="46.4904527" lon="12.5671114"><ele>1519.5</ele><time>2026-04-26T16:34:43.037Z</time></trkpt><trkpt lat="46.4905955" lon="12.5671087"><ele>1508.75</ele><time>2026-04-26T16:34:44.038Z</time></trkpt><trkpt lat="46.4907256" lon="12.567131"><ele>1498.0</ele><time>2026-04-26T16:34:45.034Z</time></trkpt><trkpt lat="46.4908371" lon="12.5671851"><ele>1498.0</ele><time>2026-04-26T16:34:46.036Z</time></trkpt><trkpt lat="46.4909273" lon="12.567251"><ele>1498.0</ele><time>2026-04-26T16:34:47.037Z</time></trkpt><trkpt lat="46.4910009" lon="12.5673455"><ele>1498.0</ele><time>2026-04-26T16:34:48.038Z</time></trkpt><trkpt lat="46.4910618" lon="12.5674685"><ele>1498.0</ele><time>2026-04-26T16:34:49.035Z</time></trkpt><trkpt lat="46.4911179" lon="12.5676204"><ele>1498.0</ele><time>2026-04-26T16:34:50.038Z</time></trkpt><trkpt lat="46.4911819" lon="12.5677648"><ele>1496.8000000000002</ele><time>2026-04-26T16:34:51.035Z</time></trkpt><trkpt lat="46.4912461" lon="12.5678986"><ele>1495.6</ele><time>2026-04-26T16:34:52.035Z</time></trkpt><trkpt lat="46.4913186" lon="12.5680135"><ele>1494.4</ele><time>2026-04-26T16:34:53.035Z</time></trkpt><trkpt lat="46.4913787" lon="12.5681061"><ele>1493.1999999999998</ele><time>2026-04-26T16:34:54.038Z</time></trkpt><trkpt lat="46.4914369" lon="12.5681853"><ele>1492.0</ele><time>2026-04-26T16:34:55.038Z</time></trkpt><trkpt lat="46.4915" lon="12.5682388"><ele>1492.0</ele><time>2026-04-26T16:34:56.036Z</time></trkpt><trkpt lat="46.4915577" lon="12.5681841"><ele>1492.0</ele><time>2026-04-26T16:34:58.041Z</time></trkpt><trkpt lat="46.4915533" lon="12.5680873"><ele>1492.0</ele><time>2026-04-26T16:34:59.039Z</time></trkpt><trkpt lat="46.4915317" lon="12.5679792"><ele>1492.0</ele><time>2026-04-26T16:35:00.039Z</time></trkpt><trkpt lat="46.4914541" lon="12.5678217"><ele>1492.0</ele><time>2026-04-26T16:35:01.04Z</time></trkpt><trkpt lat="46.4913378" lon="12.5676482"><ele>1493.5</ele><time>2026-04-26T16:35:02.041Z</time></trkpt><trkpt lat="46.4912431" lon="12.5675072"><ele>1495.0</ele><time>2026-04-26T16:35:03.036Z</time></trkpt><trkpt lat="46.4911617" lon="12.5673677"><ele>1496.5</ele><time>2026-04-26T16:35:04.037Z</time></trkpt><trkpt lat="46.491097" lon="12.5672244"><ele>1498.0</ele><time>2026-04-26T16:35:05.04Z</time></trkpt><trkpt lat="46.4910391" lon="12.5670895"><ele>1498.0</ele><time>2026-04-26T16:35:06.037Z</time></trkpt><trkpt lat="46.490982" lon="12.5669895"><ele>1498.0</ele><time>2026-04-26T16:35:07.039Z</time></trkpt><trkpt lat="46.4909436" lon="12.5669138"><ele>1498.0</ele><time>2026-04-26T16:35:08.041Z</time></trkpt><trkpt lat="46.4910154" lon="12.566901"><ele>1498.0</ele><time>2026-04-26T16:35:12.041Z</time></trkpt><trkpt lat="46.4910469" lon="12.5670134"><ele>1498.0</ele><time>2026-04-26T16:35:13.037Z</time></trkpt><trkpt lat="46.4910769" lon="12.5671356"><ele>1498.0</ele><time>2026-04-26T16:35:14.039Z</time></trkpt><trkpt lat="46.4911283" lon="12.5672651"><ele>1498.0</ele><time>2026-04-26T16:35:15.039Z</time></trkpt><trkpt lat="46.4911957" lon="12.5673702"><ele>1498.0</ele><time>2026-04-26T16:35:16.033Z</time></trkpt><trkpt lat="46.4912783" lon="12.5674501"><ele>1498.0</ele><time>2026-04-26T16:35:17.036Z</time></trkpt><trkpt lat="46.4913723" lon="12.5675074"><ele>1498.0</ele><time>2026-04-26T16:35:18.038Z</time></trkpt><trkpt lat="46.4914606" lon="12.5675402"><ele>1498.0</ele><time>2026-04-26T16:35:19.037Z</time></trkpt><trkpt lat="46.4915529" lon="12.5675332"><ele>1494.0</ele><time>2026-04-26T16:35:20.04Z</time></trkpt><trkpt lat="46.4916582" lon="12.5674937"><ele>1490.0</ele><time>2026-04-26T16:35:21.038Z</time></trkpt><trkpt lat="46.49175" lon="12.5673994"><ele>1486.0</ele><time>2026-04-26T16:35:22.038Z</time></trkpt><trkpt lat="46.4918198" lon="12.5672983"><ele>1482.0</ele><time>2026-04-26T16:35:23.035Z</time></trkpt><trkpt lat="46.4918629" lon="12.5671687"><ele>1478.0</ele><time>2026-04-26T16:35:24.037Z</time></trkpt><trkpt lat="46.4918727" lon="12.5669856"><ele>1475.0</ele><time>2026-04-26T16:35:25.038Z</time></trkpt><trkpt lat="46.4918901" lon="12.5668044"><ele>1472.0</ele><time>2026-04-26T16:35:26.038Z</time></trkpt><trkpt lat="46.49192" lon="12.5666087"><ele>1469.0</ele><time>2026-04-26T16:35:27.04Z</time></trkpt><trkpt lat="46.4919652" lon="12.5664064"><ele>1466.0</ele><time>2026-04-26T16:35:28.035Z</time></trkpt><trkpt lat="46.4920137" lon="12.5662018"><ele>1462.0</ele><time>2026-04-26T16:35:29.038Z</time></trkpt><trkpt lat="46.4920576" lon="12.5659871"><ele>1458.0</ele><time>2026-04-26T16:35:30.04Z</time></trkpt><trkpt lat="46.4921008" lon="12.5657551"><ele>1454.0</ele><time>2026-04-26T16:35:31.034Z</time></trkpt><trkpt lat="46.4921386" lon="12.5655022"><ele>1459.3333333333335</ele><time>2026-04-26T16:35:32.04Z</time></trkpt><trkpt lat="46.4921686" lon="12.5652459"><ele>1464.6666666666667</ele><time>2026-04-26T16:35:33.038Z</time></trkpt><trkpt lat="46.4921962" lon="12.5650129"><ele>1470.0</ele><time>2026-04-26T16:35:34.037Z</time></trkpt><trkpt lat="46.4922221" lon="12.5647945"><ele>1470.0</ele><time>2026-04-26T16:35:35.037Z</time></trkpt><trkpt lat="46.4922492" lon="12.5646012"><ele>1470.0</ele><time>2026-04-26T16:35:36.036Z</time></trkpt><trkpt lat="46.4922942" lon="12.5644197"><ele>1470.0</ele><time>2026-04-26T16:35:37.037Z</time></trkpt><trkpt lat="46.4923505" lon="12.5642566"><ele>1470.0</ele><time>2026-04-26T16:35:38.037Z</time></trkpt><trkpt lat="46.4924163" lon="12.5640896"><ele>1465.25</ele><time>2026-04-26T16:35:39.037Z</time></trkpt><trkpt lat="46.4924871" lon="12.5639233"><ele>1460.5</ele><time>2026-04-26T16:35:40.035Z</time></trkpt><trkpt lat="46.4925667" lon="12.5637722"><ele>1455.75</ele><time>2026-04-26T16:35:41.038Z</time></trkpt><trkpt lat="46.4926608" lon="12.5636503"><ele>1451.0</ele><time>2026-04-26T16:35:42.04Z</time></trkpt><trkpt lat="46.4927662" lon="12.5635586"><ele>1451.8</ele><time>2026-04-26T16:35:43.039Z</time></trkpt><trkpt lat="46.4928686" lon="12.5634852"><ele>1452.6</ele><time>2026-04-26T16:35:44.041Z</time></trkpt><trkpt lat="46.4929493" lon="12.5634182"><ele>1453.4</ele><time>2026-04-26T16:35:45.038Z</time></trkpt><trkpt lat="46.4930099" lon="12.5633469"><ele>1454.2</ele><time>2026-04-26T16:35:46.038Z</time></trkpt><trkpt lat="46.4930617" lon="12.5632366"><ele>1455.0</ele><time>2026-04-26T16:35:48.038Z</time></trkpt><trkpt lat="46.4931321" lon="12.5632667"><ele>1455.0</ele><time>2026-04-26T16:35:52.039Z</time></trkpt><trkpt lat="46.493213" lon="12.5633269"><ele>1455.0</ele><time>2026-04-26T16:35:54.035Z</time></trkpt><trkpt lat="46.4932992" lon="12.5633568"><ele>1455.0</ele><time>2026-04-26T16:35:56.039Z</time></trkpt><trkpt lat="46.4933677" lon="12.5633339"><ele>1455.0</ele><time>2026-04-26T16:35:58.033Z</time></trkpt><trkpt lat="46.493436" lon="12.5632514"><ele>1455.0</ele><time>2026-04-26T16:36:00.036Z</time></trkpt><trkpt lat="46.4934983" lon="12.5631572"><ele>1455.0</ele><time>2026-04-26T16:36:02.037Z</time></trkpt><trkpt lat="46.4935754" lon="12.5630448"><ele>1455.0</ele><time>2026-04-26T16:36:04.035Z</time></trkpt><trkpt lat="46.4936182" lon="12.5629719"><ele>1455.0</ele><time>2026-04-26T16:36:05.037Z</time></trkpt><trkpt lat="46.4936921" lon="12.562842"><ele>1455.0</ele><time>2026-04-26T16:36:07.038Z</time></trkpt><trkpt lat="46.4937012" lon="12.5626822"><ele>1455.0</ele><time>2026-04-26T16:36:47.04Z</time></trkpt><trkpt lat="46.4937415" lon="12.5625564"><ele>1455.0</ele><time>2026-04-26T16:36:50.039Z</time></trkpt><trkpt lat="46.4937827" lon="12.5624265"><ele>1454.5714285714284</ele><time>2026-04-26T16:36:52.041Z</time></trkpt><trkpt lat="46.4938109" lon="12.5623428"><ele>1454.142857142857</ele><time>2026-04-26T16:36:53.04Z</time></trkpt><trkpt lat="46.4938428" lon="12.5622525"><ele>1453.7142857142858</ele><time>2026-04-26T16:36:54.039Z</time></trkpt><trkpt lat="46.4938796" lon="12.5621763"><ele>1453.2857142857142</ele><time>2026-04-26T16:36:55.039Z</time></trkpt><trkpt lat="46.493914" lon="12.5620953"><ele>1452.857142857143</ele><time>2026-04-26T16:36:56.039Z</time></trkpt><trkpt lat="46.4939457" lon="12.5620056"><ele>1452.4285714285713</ele><time>2026-04-26T16:36:57.04Z</time></trkpt><trkpt lat="46.4939818" lon="12.5619271"><ele>1452.0</ele><time>2026-04-26T16:36:58.04Z</time></trkpt><trkpt lat="46.4940224" lon="12.5618173"><ele>1447.8333333333333</ele><time>2026-04-26T16:37:00.041Z</time></trkpt><trkpt lat="46.4940149" lon="12.5617142"><ele>1443.6666666666667</ele><time>2026-04-26T16:37:02.04Z</time></trkpt><trkpt lat="46.4939877" lon="12.5615813"><ele>1439.5</ele><time>2026-04-26T16:37:04.035Z</time></trkpt><trkpt lat="46.4939724" lon="12.561464"><ele>1435.3333333333335</ele><time>2026-04-26T16:37:06.036Z</time></trkpt><trkpt lat="46.4939715" lon="12.561371"><ele>1431.1666666666667</ele><time>2026-04-26T16:37:08.039Z</time></trkpt><trkpt lat="46.4939599" lon="12.5612146"><ele>1427.0</ele><time>2026-04-26T16:37:10.04Z</time></trkpt><trkpt lat="46.4939498" lon="12.5611241"><ele>1423.1666666666667</ele><time>2026-04-26T16:37:11.041Z</time></trkpt><trkpt lat="46.4939335" lon="12.5610062"><ele>1419.3333333333335</ele><time>2026-04-26T16:37:13.04Z</time></trkpt><trkpt lat="46.4939107" lon="12.5608867"><ele>1415.5</ele><time>2026-04-26T16:37:16.038Z</time></trkpt><trkpt lat="46.4938805" lon="12.5607939"><ele>1411.6666666666667</ele><time>2026-04-26T16:37:18.037Z</time></trkpt><trkpt lat="46.4938867" lon="12.5606893"><ele>1407.8333333333333</ele><time>2026-04-26T16:37:20.04Z</time></trkpt><trkpt lat="46.4939136" lon="12.5605756"><ele>1404.0</ele><time>2026-04-26T16:37:21.041Z</time></trkpt><trkpt lat="46.4939466" lon="12.5604595"><ele>1402.0</ele><time>2026-04-26T16:37:22.04Z</time></trkpt><trkpt lat="46.4939846" lon="12.5603311"><ele>1400.0</ele><time>2026-04-26T16:37:23.036Z</time></trkpt><trkpt lat="46.4940368" lon="12.5601885"><ele>1398.0</ele><time>2026-04-26T16:37:24.039Z</time></trkpt><trkpt lat="46.49408" lon="12.5600395"><ele>1396.0</ele><time>2026-04-26T16:37:25.037Z</time></trkpt><trkpt lat="46.4941241" lon="12.559879"><ele>1394.0</ele><time>2026-04-26T16:37:26.04Z</time></trkpt><trkpt lat="46.4941685" lon="12.5597134"><ele>1394.0</ele><time>2026-04-26T16:37:27.035Z</time></trkpt><trkpt lat="46.4942206" lon="12.5595451"><ele>1394.0</ele><time>2026-04-26T16:37:28.036Z</time></trkpt><trkpt lat="46.494284" lon="12.5593662"><ele>1394.0</ele><time>2026-04-26T16:37:29.039Z</time></trkpt><trkpt lat="46.4943536" lon="12.559184"><ele>1394.0</ele><time>2026-04-26T16:37:30.036Z</time></trkpt><trkpt lat="46.4944293" lon="12.5589919"><ele>1394.5</ele><time>2026-04-26T16:37:31.036Z</time></trkpt><trkpt lat="46.4944842" lon="12.55881"><ele>1395.0</ele><time>2026-04-26T16:37:32.039Z</time></trkpt><trkpt lat="46.4945232" lon="12.55863"><ele>1395.5</ele><time>2026-04-26T16:37:33.036Z</time></trkpt><trkpt lat="46.4945442" lon="12.5584419"><ele>1396.0</ele><time>2026-04-26T16:37:34.034Z</time></trkpt><trkpt lat="46.4945472" lon="12.5582404"><ele>1396.25</ele><time>2026-04-26T16:37:35.039Z</time></trkpt><trkpt lat="46.4945307" lon="12.5580374"><ele>1396.5</ele><time>2026-04-26T16:37:36.041Z</time></trkpt><trkpt lat="46.4944981" lon="12.5578407"><ele>1396.75</ele><time>2026-04-26T16:37:37.039Z</time></trkpt><trkpt lat="46.4944492" lon="12.5576482"><ele>1397.0</ele><time>2026-04-26T16:37:38.041Z</time></trkpt><trkpt lat="46.4943897" lon="12.557463"><ele>1395.75</ele><time>2026-04-26T16:37:39.039Z</time></trkpt><trkpt lat="46.4943232" lon="12.5572795"><ele>1394.5</ele><time>2026-04-26T16:37:40.038Z</time></trkpt><trkpt lat="46.4942628" lon="12.5570909"><ele>1393.25</ele><time>2026-04-26T16:37:41.04Z</time></trkpt><trkpt lat="46.4942203" lon="12.5568936"><ele>1392.0</ele><time>2026-04-26T16:37:42.04Z</time></trkpt><trkpt lat="46.4942099" lon="12.5566834"><ele>1390.3333333333333</ele><time>2026-04-26T16:37:43.039Z</time></trkpt><trkpt lat="46.4942167" lon="12.5564636"><ele>1388.6666666666665</ele><time>2026-04-26T16:37:44.04Z</time></trkpt><trkpt lat="46.4942247" lon="12.5562412"><ele>1387.0</ele><time>2026-04-26T16:37:45.035Z</time></trkpt><trkpt lat="46.4942331" lon="12.5560197"><ele>1384.6666666666665</ele><time>2026-04-26T16:37:46.037Z</time></trkpt><trkpt lat="46.4942427" lon="12.5557956"><ele>1382.3333333333333</ele><time>2026-04-26T16:37:47.038Z</time></trkpt><trkpt lat="46.4942527" lon="12.5555719"><ele>1380.0</ele><time>2026-04-26T16:37:48.044Z</time></trkpt><trkpt lat="46.4942729" lon="12.5553474"><ele>1377.6666666666667</ele><time>2026-04-26T16:37:49.038Z</time></trkpt><trkpt lat="46.4943034" lon="12.5551231"><ele>1375.3333333333335</ele><time>2026-04-26T16:37:50.04Z</time></trkpt><trkpt lat="46.4943425" lon="12.5548983"><ele>1373.0</ele><time>2026-04-26T16:37:51.038Z</time></trkpt><trkpt lat="46.4943814" lon="12.5546706"><ele>1371.3333333333335</ele><time>2026-04-26T16:37:52.038Z</time></trkpt><trkpt lat="46.4944058" lon="12.5544457"><ele>1369.6666666666667</ele><time>2026-04-26T16:37:53.038Z</time></trkpt><trkpt lat="46.4944239" lon="12.5542228"><ele>1368.0</ele><time>2026-04-26T16:37:54.038Z</time></trkpt><trkpt lat="46.4944443" lon="12.5540009"><ele>1368.0</ele><time>2026-04-26T16:37:55.038Z</time></trkpt><trkpt lat="46.4944694" lon="12.5537865"><ele>1368.0</ele><time>2026-04-26T16:37:56.038Z</time></trkpt><trkpt lat="46.4944983" lon="12.553573"><ele>1368.0</ele><time>2026-04-26T16:37:57.04Z</time></trkpt><trkpt lat="46.4945323" lon="12.5533565"><ele>1365.75</ele><time>2026-04-26T16:37:58.038Z</time></trkpt><trkpt lat="46.4945676" lon="12.5531483"><ele>1363.5</ele><time>2026-04-26T16:37:59.041Z</time></trkpt><trkpt lat="46.4945965" lon="12.5529429"><ele>1361.25</ele><time>2026-04-26T16:38:00.04Z</time></trkpt><trkpt lat="46.494614" lon="12.552736"><ele>1359.0</ele><time>2026-04-26T16:38:01.037Z</time></trkpt><trkpt lat="46.4946137" lon="12.5525374"><ele>1356.75</ele><time>2026-04-26T16:38:02.04Z</time></trkpt><trkpt lat="46.494601" lon="12.5523391"><ele>1354.5</ele><time>2026-04-26T16:38:03.038Z</time></trkpt><trkpt lat="46.4945779" lon="12.5521475"><ele>1352.25</ele><time>2026-04-26T16:38:04.038Z</time></trkpt><trkpt lat="46.4945296" lon="12.5519594"><ele>1350.0</ele><time>2026-04-26T16:38:05.038Z</time></trkpt><trkpt lat="46.4944649" lon="12.5517645"><ele>1348.75</ele><time>2026-04-26T16:38:06.041Z</time></trkpt><trkpt lat="46.4944012" lon="12.5515726"><ele>1347.5</ele><time>2026-04-26T16:38:07.038Z</time></trkpt><trkpt lat="46.4943362" lon="12.5513855"><ele>1346.25</ele><time>2026-04-26T16:38:08.044Z</time></trkpt><trkpt lat="46.4942613" lon="12.5512058"><ele>1345.0</ele><time>2026-04-26T16:38:09.039Z</time></trkpt><trkpt lat="46.4941848" lon="12.5510238"><ele>1349.0</ele><time>2026-04-26T16:38:10.038Z</time></trkpt><trkpt lat="46.4941096" lon="12.5508321"><ele>1353.0</ele><time>2026-04-26T16:38:11.037Z</time></trkpt><trkpt lat="46.4940394" lon="12.5506271"><ele>1357.0</ele><time>2026-04-26T16:38:12.038Z</time></trkpt><trkpt lat="46.4939891" lon="12.5504081"><ele>1357.0</ele><time>2026-04-26T16:38:13.04Z</time></trkpt><trkpt lat="46.4939626" lon="12.550173"><ele>1357.0</ele><time>2026-04-26T16:38:14.038Z</time></trkpt><trkpt lat="46.4939468" lon="12.5499239"><ele>1357.0</ele><time>2026-04-26T16:38:15.038Z</time></trkpt><trkpt lat="46.4939244" lon="12.5496735"><ele>1355.6666666666665</ele><time>2026-04-26T16:38:16.038Z</time></trkpt><trkpt lat="46.4938983" lon="12.5494139"><ele>1354.3333333333333</ele><time>2026-04-26T16:38:17.039Z</time></trkpt><trkpt lat="46.4938798" lon="12.5491384"><ele>1353.0</ele><time>2026-04-26T16:38:18.039Z</time></trkpt><trkpt lat="46.4938649" lon="12.5488549"><ele>1350.0</ele><time>2026-04-26T16:38:19.036Z</time></trkpt><trkpt lat="46.4938558" lon="12.5485711"><ele>1347.0</ele><time>2026-04-26T16:38:20.04Z</time></trkpt><trkpt lat="46.4938486" lon="12.5482954"><ele>1344.0</ele><time>2026-04-26T16:38:21.037Z</time></trkpt><trkpt lat="46.4938426" lon="12.5480244"><ele>1343.3333333333333</ele><time>2026-04-26T16:38:22.039Z</time></trkpt><trkpt lat="46.4938392" lon="12.5477675"><ele>1342.6666666666665</ele><time>2026-04-26T16:38:23.04Z</time></trkpt><trkpt lat="46.493849" lon="12.5475185"><ele>1342.0</ele><time>2026-04-26T16:38:24.041Z</time></trkpt><trkpt lat="46.4938645" lon="12.5472718"><ele>1341.3333333333333</ele><time>2026-04-26T16:38:25.038Z</time></trkpt><trkpt lat="46.4938878" lon="12.5470117"><ele>1340.6666666666667</ele><time>2026-04-26T16:38:26.043Z</time></trkpt><trkpt lat="46.4939" lon="12.54674"><ele>1340.0</ele><time>2026-04-26T16:38:27.036Z</time></trkpt><trkpt lat="46.4939" lon="12.546455"><ele>1338.0</ele><time>2026-04-26T16:38:28.036Z</time></trkpt><trkpt lat="46.4938967" lon="12.54617"><ele>1336.0</ele><time>2026-04-26T16:38:29.036Z</time></trkpt><trkpt lat="46.4938833" lon="12.5458817"><ele>1334.0</ele><time>2026-04-26T16:38:30.04Z</time></trkpt><trkpt lat="46.49387" lon="12.545585"><ele>1331.6666666666667</ele><time>2026-04-26T16:38:31.038Z</time></trkpt><trkpt lat="46.49385" lon="12.5452867"><ele>1329.3333333333333</ele><time>2026-04-26T16:38:32.042Z</time></trkpt><trkpt lat="46.49383" lon="12.5449967"><ele>1327.0</ele><time>2026-04-26T16:38:33.037Z</time></trkpt><trkpt lat="46.4938083" lon="12.544715"><ele>1325.6666666666665</ele><time>2026-04-26T16:38:34.039Z</time></trkpt><trkpt lat="46.4937867" lon="12.5444467"><ele>1324.3333333333333</ele><time>2026-04-26T16:38:35.036Z</time></trkpt><trkpt lat="46.4937667" lon="12.54419"><ele>1323.0</ele><time>2026-04-26T16:38:36.039Z</time></trkpt><trkpt lat="46.49375" lon="12.54395"><ele>1317.75</ele><time>2026-04-26T16:38:37.036Z</time></trkpt><trkpt lat="46.4937383" lon="12.54373"><ele>1312.5</ele><time>2026-04-26T16:38:38.038Z</time></trkpt><trkpt lat="46.49373" lon="12.5435283"><ele>1307.25</ele><time>2026-04-26T16:38:39.037Z</time></trkpt><trkpt lat="46.49373" lon="12.5433433"><ele>1302.0</ele><time>2026-04-26T16:38:40.038Z</time></trkpt><trkpt lat="46.4937483" lon="12.5431717"><ele>1304.1999999999998</ele><time>2026-04-26T16:38:41.039Z</time></trkpt><trkpt lat="46.4937833" lon="12.5430133"><ele>1306.4</ele><time>2026-04-26T16:38:42.042Z</time></trkpt><trkpt lat="46.49381" lon="12.5428567"><ele>1308.6</ele><time>2026-04-26T16:38:43.039Z</time></trkpt><trkpt lat="46.49382" lon="12.5427033"><ele>1310.8000000000002</ele><time>2026-04-26T16:38:44.041Z</time></trkpt><trkpt lat="46.4938067" lon="12.542545"><ele>1313.0</ele><time>2026-04-26T16:38:45.04Z</time></trkpt><trkpt lat="46.4937667" lon="12.5423817"><ele>1307.75</ele><time>2026-04-26T16:38:46.036Z</time></trkpt><trkpt lat="46.4937217" lon="12.5422033"><ele>1302.5</ele><time>2026-04-26T16:38:47.039Z</time></trkpt><trkpt lat="46.4936683" lon="12.54201"><ele>1297.25</ele><time>2026-04-26T16:38:48.041Z</time></trkpt><trkpt lat="46.4936067" lon="12.5418183"><ele>1292.0</ele><time>2026-04-26T16:38:49.042Z</time></trkpt><trkpt lat="46.493555" lon="12.5416167"><ele>1291.75</ele><time>2026-04-26T16:38:50.039Z</time></trkpt><trkpt lat="46.4935117" lon="12.54141"><ele>1291.5</ele><time>2026-04-26T16:38:51.04Z</time></trkpt><trkpt lat="46.493475" lon="12.5412033"><ele>1291.25</ele><time>2026-04-26T16:38:52.036Z</time></trkpt><trkpt lat="46.4934383" lon="12.541005"><ele>1291.0</ele><time>2026-04-26T16:38:53.038Z</time></trkpt><trkpt lat="46.493425" lon="12.5408017"><ele>1289.6666666666665</ele><time>2026-04-26T16:38:54.039Z</time></trkpt><trkpt lat="46.4934333" lon="12.54059"><ele>1288.3333333333333</ele><time>2026-04-26T16:38:55.035Z</time></trkpt><trkpt lat="46.4934667" lon="12.5403567"><ele>1287.0</ele><time>2026-04-26T16:38:56.04Z</time></trkpt><trkpt lat="46.4934917" lon="12.540125"><ele>1283.6666666666667</ele><time>2026-04-26T16:38:57.039Z</time></trkpt><trkpt lat="46.4935117" lon="12.53989"><ele>1280.3333333333335</ele><time>2026-04-26T16:38:58.036Z</time></trkpt><trkpt lat="46.4935" lon="12.5396567"><ele>1277.0</ele><time>2026-04-26T16:38:59.039Z</time></trkpt><trkpt lat="46.493475" lon="12.53943"><ele>1277.0</ele><time>2026-04-26T16:39:00.04Z</time></trkpt><trkpt lat="46.4934533" lon="12.5392367"><ele>1277.0</ele><time>2026-04-26T16:39:01.04Z</time></trkpt><trkpt lat="46.4934267" lon="12.5390633"><ele>1277.0</ele><time>2026-04-26T16:39:02.036Z</time></trkpt><trkpt lat="46.4933867" lon="12.5389083"><ele>1277.0</ele><time>2026-04-26T16:39:03.04Z</time></trkpt><trkpt lat="46.4933067" lon="12.53878"><ele>1277.75</ele><time>2026-04-26T16:39:04.038Z</time></trkpt><trkpt lat="46.4931933" lon="12.538665"><ele>1278.5</ele><time>2026-04-26T16:39:05.039Z</time></trkpt><trkpt lat="46.4930733" lon="12.53856"><ele>1279.25</ele><time>2026-04-26T16:39:06.035Z</time></trkpt><trkpt lat="46.4929517" lon="12.5384467"><ele>1280.0</ele><time>2026-04-26T16:39:07.039Z</time></trkpt><trkpt lat="46.4928383" lon="12.5383117"><ele>1275.25</ele><time>2026-04-26T16:39:08.041Z</time></trkpt><trkpt lat="46.4927383" lon="12.538165"><ele>1270.5</ele><time>2026-04-26T16:39:09.04Z</time></trkpt><trkpt lat="46.4926567" lon="12.538015"><ele>1265.75</ele><time>2026-04-26T16:39:10.036Z</time></trkpt><trkpt lat="46.4926" lon="12.5378667"><ele>1261.0</ele><time>2026-04-26T16:39:11.038Z</time></trkpt><trkpt lat="46.4925683" lon="12.537705"><ele>1261.0</ele><time>2026-04-26T16:39:12.039Z</time></trkpt><trkpt lat="46.4925567" lon="12.5375217"><ele>1261.0</ele><time>2026-04-26T16:39:13.039Z</time></trkpt><trkpt lat="46.492545" lon="12.5373217"><ele>1261.0</ele><time>2026-04-26T16:39:14.044Z</time></trkpt><trkpt lat="46.4925117" lon="12.5371233"><ele>1261.0</ele><time>2026-04-26T16:39:15.041Z</time></trkpt><trkpt lat="46.49245" lon="12.5369233"><ele>1261.75</ele><time>2026-04-26T16:39:16.036Z</time></trkpt><trkpt lat="46.4923667" lon="12.5367417"><ele>1262.5</ele><time>2026-04-26T16:39:17.036Z</time></trkpt><trkpt lat="46.4922733" lon="12.536575"><ele>1263.25</ele><time>2026-04-26T16:39:18.039Z</time></trkpt><trkpt lat="46.4921967" lon="12.5364233"><ele>1264.0</ele><time>2026-04-26T16:39:19.038Z</time></trkpt><trkpt lat="46.492145" lon="12.5362683"><ele>1264.75</ele><time>2026-04-26T16:39:20.039Z</time></trkpt><trkpt lat="46.4921233" lon="12.5360983"><ele>1265.5</ele><time>2026-04-26T16:39:21.038Z</time></trkpt><trkpt lat="46.492125" lon="12.535925"><ele>1266.25</ele><time>2026-04-26T16:39:22.036Z</time></trkpt><trkpt lat="46.4921383" lon="12.535755"><ele>1267.0</ele><time>2026-04-26T16:39:23.036Z</time></trkpt><trkpt lat="46.492155" lon="12.5355867"><ele>1267.0</ele><time>2026-04-26T16:39:24.04Z</time></trkpt><trkpt lat="46.49217" lon="12.53541"><ele>1267.0</ele><time>2026-04-26T16:39:25.039Z</time></trkpt><trkpt lat="46.4921733" lon="12.5352233"><ele>1267.0</ele><time>2026-04-26T16:39:26.04Z</time></trkpt><trkpt lat="46.4921517" lon="12.53504"><ele>1267.0</ele><time>2026-04-26T16:39:27.039Z</time></trkpt><trkpt lat="46.4921117" lon="12.5348683"><ele>1264.0</ele><time>2026-04-26T16:39:28.035Z</time></trkpt><trkpt lat="46.492045" lon="12.5347217"><ele>1261.0</ele><time>2026-04-26T16:39:29.036Z</time></trkpt><trkpt lat="46.4919583" lon="12.5345883"><ele>1258.0</ele><time>2026-04-26T16:39:30.04Z</time></trkpt><trkpt lat="46.491855" lon="12.5344667"><ele>1255.0</ele><time>2026-04-26T16:39:31.039Z</time></trkpt><trkpt lat="46.49174" lon="12.53436"><ele>1255.0</ele><time>2026-04-26T16:39:32.041Z</time></trkpt><trkpt lat="46.4916133" lon="12.5342783"><ele>1255.0</ele><time>2026-04-26T16:39:33.037Z</time></trkpt><trkpt lat="46.4915" lon="12.5341817"><ele>1255.0</ele><time>2026-04-26T16:39:34.036Z</time></trkpt><trkpt lat="46.4913983" lon="12.5340717"><ele>1255.0</ele><time>2026-04-26T16:39:35.036Z</time></trkpt><trkpt lat="46.4913067" lon="12.5339433"><ele>1249.5</ele><time>2026-04-26T16:39:36.041Z</time></trkpt><trkpt lat="46.4912367" lon="12.5337983"><ele>1244.0</ele><time>2026-04-26T16:39:37.04Z</time></trkpt><trkpt lat="46.4911633" lon="12.5336567"><ele>1238.5</ele><time>2026-04-26T16:39:38.04Z</time></trkpt><trkpt lat="46.4910833" lon="12.5335283"><ele>1233.0</ele><time>2026-04-26T16:39:39.038Z</time></trkpt><trkpt lat="46.490995" lon="12.5334133"><ele>1233.0</ele><time>2026-04-26T16:39:40.036Z</time></trkpt><trkpt lat="46.490895" lon="12.5333083"><ele>1233.0</ele><time>2026-04-26T16:39:41.04Z</time></trkpt><trkpt lat="46.4907983" lon="12.533195"><ele>1233.0</ele><time>2026-04-26T16:39:42.04Z</time></trkpt><trkpt lat="46.4907183" lon="12.5330633"><ele>1233.0</ele><time>2026-04-26T16:39:43.039Z</time></trkpt><trkpt lat="46.4906667" lon="12.5329033"><ele>1234.0</ele><time>2026-04-26T16:39:44.041Z</time></trkpt><trkpt lat="46.49065" lon="12.5327067"><ele>1235.0</ele><time>2026-04-26T16:39:45.037Z</time></trkpt><trkpt lat="46.4906583" lon="12.5325"><ele>1236.0</ele><time>2026-04-26T16:39:46.037Z</time></trkpt><trkpt lat="46.49069" lon="12.5323"><ele>1237.0</ele><time>2026-04-26T16:39:47.038Z</time></trkpt><trkpt lat="46.490715" lon="12.532105"><ele>1237.75</ele><time>2026-04-26T16:39:48.035Z</time></trkpt><trkpt lat="46.4907233" lon="12.53191"><ele>1238.5</ele><time>2026-04-26T16:39:49.038Z</time></trkpt><trkpt lat="46.4907" lon="12.531705"><ele>1239.25</ele><time>2026-04-26T16:39:50.042Z</time></trkpt><trkpt lat="46.490645" lon="12.5314983"><ele>1240.0</ele><time>2026-04-26T16:39:51.036Z</time></trkpt><trkpt lat="46.4905733" lon="12.5313"><ele>1241.0</ele><time>2026-04-26T16:39:52.036Z</time></trkpt><trkpt lat="46.4904917" lon="12.5310917"><ele>1242.0</ele><time>2026-04-26T16:39:53.039Z</time></trkpt><trkpt lat="46.4904117" lon="12.5308717"><ele>1243.0</ele><time>2026-04-26T16:39:54.041Z</time></trkpt><trkpt lat="46.49033" lon="12.530635"><ele>1232.0</ele><time>2026-04-26T16:39:55.036Z</time></trkpt><trkpt lat="46.4902467" lon="12.5303983"><ele>1221.0</ele><time>2026-04-26T16:39:56.041Z</time></trkpt><trkpt lat="46.4901633" lon="12.53015"><ele>1210.0</ele><time>2026-04-26T16:39:57.036Z</time></trkpt><trkpt lat="46.4900767" lon="12.52989"><ele>1210.0</ele><time>2026-04-26T16:39:58.036Z</time></trkpt><trkpt lat="46.4899883" lon="12.529625"><ele>1210.0</ele><time>2026-04-26T16:39:59.04Z</time></trkpt><trkpt lat="46.489895" lon="12.52937"><ele>1210.0</ele><time>2026-04-26T16:40:00.043Z</time></trkpt><trkpt lat="46.48981" lon="12.5291217"><ele>1214.0</ele><time>2026-04-26T16:40:01.041Z</time></trkpt><trkpt lat="46.4897317" lon="12.52888"><ele>1218.0</ele><time>2026-04-26T16:40:02.041Z</time></trkpt><trkpt lat="46.4896683" lon="12.5286317"><ele>1222.0</ele><time>2026-04-26T16:40:03.036Z</time></trkpt><trkpt lat="46.4896183" lon="12.52838"><ele>1216.0</ele><time>2026-04-26T16:40:04.036Z</time></trkpt><trkpt lat="46.48957" lon="12.5281333"><ele>1210.0</ele><time>2026-04-26T16:40:05.037Z</time></trkpt><trkpt lat="46.4895217" lon="12.527885"><ele>1204.0</ele><time>2026-04-26T16:40:06.041Z</time></trkpt><trkpt lat="46.4894833" lon="12.5276633"><ele>1204.0</ele><time>2026-04-26T16:40:07.042Z</time></trkpt><trkpt lat="46.48944" lon="12.52747"><ele>1204.0</ele><time>2026-04-26T16:40:08.043Z</time></trkpt><trkpt lat="46.4893817" lon="12.5272883"><ele>1204.0</ele><time>2026-04-26T16:40:09.042Z</time></trkpt><trkpt lat="46.4893067" lon="12.5271183"><ele>1204.0</ele><time>2026-04-26T16:40:10.038Z</time></trkpt><trkpt lat="46.489225" lon="12.5269683"><ele>1205.5</ele><time>2026-04-26T16:40:11.036Z</time></trkpt><trkpt lat="46.4891483" lon="12.5268217"><ele>1207.0</ele><time>2026-04-26T16:40:12.04Z</time></trkpt><trkpt lat="46.4890783" lon="12.5266817"><ele>1208.5</ele><time>2026-04-26T16:40:13.039Z</time></trkpt><trkpt lat="46.48904" lon="12.5265333"><ele>1210.0</ele><time>2026-04-26T16:40:14.041Z</time></trkpt><trkpt lat="46.4890367" lon="12.5263767"><ele>1210.25</ele><time>2026-04-26T16:40:15.042Z</time></trkpt><trkpt lat="46.4890533" lon="12.5262083"><ele>1210.5</ele><time>2026-04-26T16:40:16.039Z</time></trkpt><trkpt lat="46.48907" lon="12.5260267"><ele>1210.75</ele><time>2026-04-26T16:40:17.039Z</time></trkpt><trkpt lat="46.4890917" lon="12.5258583"><ele>1211.0</ele><time>2026-04-26T16:40:18.036Z</time></trkpt><trkpt lat="46.48914" lon="12.5257033"><ele>1211.0</ele><time>2026-04-26T16:40:19.038Z</time></trkpt><trkpt lat="46.4892133" lon="12.52555"><ele>1211.0</ele><time>2026-04-26T16:40:20.04Z</time></trkpt><trkpt lat="46.489285" lon="12.5254033"><ele>1211.0</ele><time>2026-04-26T16:40:21.04Z</time></trkpt><trkpt lat="46.48934" lon="12.52525"><ele>1211.0</ele><time>2026-04-26T16:40:22.039Z</time></trkpt><trkpt lat="46.4893667" lon="12.5250717"><ele>1210.0</ele><time>2026-04-26T16:40:23.041Z</time></trkpt><trkpt lat="46.4893633" lon="12.5248817"><ele>1209.0</ele><time>2026-04-26T16:40:24.042Z</time></trkpt><trkpt lat="46.4893483" lon="12.5246817"><ele>1208.0</ele><time>2026-04-26T16:40:25.039Z</time></trkpt><trkpt lat="46.4893283" lon="12.5244833"><ele>1207.0</ele><time>2026-04-26T16:40:26.042Z</time></trkpt><trkpt lat="46.4893083" lon="12.524275"><ele>1205.25</ele><time>2026-04-26T16:40:27.041Z</time></trkpt><trkpt lat="46.489295" lon="12.5240783"><ele>1203.5</ele><time>2026-04-26T16:40:28.041Z</time></trkpt><trkpt lat="46.4892967" lon="12.5239083"><ele>1201.75</ele><time>2026-04-26T16:40:29.04Z</time></trkpt><trkpt lat="46.4893283" lon="12.5237517"><ele>1200.0</ele><time>2026-04-26T16:40:30.042Z</time></trkpt><trkpt lat="46.4893867" lon="12.5236067"><ele>1198.0</ele><time>2026-04-26T16:40:31.041Z</time></trkpt><trkpt lat="46.48946" lon="12.5234817"><ele>1196.0</ele><time>2026-04-26T16:40:32.043Z</time></trkpt><trkpt lat="46.4895467" lon="12.5233517"><ele>1194.0</ele><time>2026-04-26T16:40:33.039Z</time></trkpt><trkpt lat="46.489655" lon="12.5232283"><ele>1192.0</ele><time>2026-04-26T16:40:34.036Z</time></trkpt><trkpt lat="46.48976" lon="12.5230983"><ele>1196.0</ele><time>2026-04-26T16:40:35.039Z</time></trkpt><trkpt lat="46.4898417" lon="12.52296"><ele>1200.0</ele><time>2026-04-26T16:40:36.042Z</time></trkpt><trkpt lat="46.4898867" lon="12.5228017"><ele>1204.0</ele><time>2026-04-26T16:40:37.043Z</time></trkpt><trkpt lat="46.4899283" lon="12.5226217"><ele>1208.0</ele><time>2026-04-26T16:40:38.044Z</time></trkpt><trkpt lat="46.4899867" lon="12.5224467"><ele>1208.0</ele><time>2026-04-26T16:40:39.038Z</time></trkpt><trkpt lat="46.490065" lon="12.5222717"><ele>1208.0</ele><time>2026-04-26T16:40:40.041Z</time></trkpt><trkpt lat="46.4901517" lon="12.5220967"><ele>1208.0</ele><time>2026-04-26T16:40:41.043Z</time></trkpt><trkpt lat="46.4902367" lon="12.5219233"><ele>1208.0</ele><time>2026-04-26T16:40:42.042Z</time></trkpt><trkpt lat="46.49032" lon="12.5217517"><ele>1208.5</ele><time>2026-04-26T16:40:43.042Z</time></trkpt><trkpt lat="46.4903817" lon="12.52157"><ele>1209.0</ele><time>2026-04-26T16:40:44.041Z</time></trkpt><trkpt lat="46.4904267" lon="12.5213717"><ele>1209.5</ele><time>2026-04-26T16:40:45.042Z</time></trkpt><trkpt lat="46.4904633" lon="12.5211733"><ele>1210.0</ele><time>2026-04-26T16:40:46.038Z</time></trkpt><trkpt lat="46.4905033" lon="12.520985"><ele>1210.0</ele><time>2026-04-26T16:40:47.04Z</time></trkpt><trkpt lat="46.4905583" lon="12.5208117"><ele>1210.0</ele><time>2026-04-26T16:40:48.038Z</time></trkpt><trkpt lat="46.4906383" lon="12.5206567"><ele>1210.0</ele><time>2026-04-26T16:40:49.037Z</time></trkpt><trkpt lat="46.4907133" lon="12.52051"><ele>1210.0</ele><time>2026-04-26T16:40:50.04Z</time></trkpt><trkpt lat="46.490785" lon="12.520365"><ele>1206.0</ele><time>2026-04-26T16:40:51.042Z</time></trkpt><trkpt lat="46.49085" lon="12.52022"><ele>1202.0</ele><time>2026-04-26T16:40:52.04Z</time></trkpt><trkpt lat="46.4909117" lon="12.5200783"><ele>1198.0</ele><time>2026-04-26T16:40:53.039Z</time></trkpt><trkpt lat="46.4909817" lon="12.5199517"><ele>1194.0</ele><time>2026-04-26T16:40:54.042Z</time></trkpt><trkpt lat="46.4910583" lon="12.5198433"><ele>1194.0</ele><time>2026-04-26T16:40:55.041Z</time></trkpt><trkpt lat="46.4911167" lon="12.5197367"><ele>1194.0</ele><time>2026-04-26T16:40:56.039Z</time></trkpt><trkpt lat="46.4911617" lon="12.5196317"><ele>1194.0</ele><time>2026-04-26T16:40:57.04Z</time></trkpt><trkpt lat="46.4911867" lon="12.5194967"><ele>1194.0</ele><time>2026-04-26T16:40:58.042Z</time></trkpt><trkpt lat="46.4911683" lon="12.5193433"><ele>1194.0</ele><time>2026-04-26T16:40:59.042Z</time></trkpt><trkpt lat="46.4911133" lon="12.519195"><ele>1197.5</ele><time>2026-04-26T16:41:00.042Z</time></trkpt><trkpt lat="46.491025" lon="12.5190833"><ele>1201.0</ele><time>2026-04-26T16:41:01.04Z</time></trkpt><trkpt lat="46.4909067" lon="12.5190067"><ele>1204.5</ele><time>2026-04-26T16:41:02.045Z</time></trkpt><trkpt lat="46.4907917" lon="12.51896"><ele>1208.0</ele><time>2026-04-26T16:41:03.04Z</time></trkpt><trkpt lat="46.4906467" lon="12.5189483"><ele>1208.0</ele><time>2026-04-26T16:41:04.043Z</time></trkpt><trkpt lat="46.4904917" lon="12.518945"><ele>1208.0</ele><time>2026-04-26T16:41:05.04Z</time></trkpt><trkpt lat="46.4903417" lon="12.5189583"><ele>1208.0</ele><time>2026-04-26T16:41:06.038Z</time></trkpt><trkpt lat="46.4901867" lon="12.5190167"><ele>1205.75</ele><time>2026-04-26T16:41:07.042Z</time></trkpt><trkpt lat="46.4900483" lon="12.519105"><ele>1203.5</ele><time>2026-04-26T16:41:08.039Z</time></trkpt><trkpt lat="46.4899317" lon="12.5191983"><ele>1201.25</ele><time>2026-04-26T16:41:09.039Z</time></trkpt><trkpt lat="46.48982" lon="12.5192767"><ele>1199.0</ele><time>2026-04-26T16:41:10.039Z</time></trkpt><trkpt lat="46.4897117" lon="12.519325"><ele>1199.0</ele><time>2026-04-26T16:41:11.04Z</time></trkpt><trkpt lat="46.48961" lon="12.5193583"><ele>1199.0</ele><time>2026-04-26T16:41:12.041Z</time></trkpt><trkpt lat="46.489525" lon="12.5193317"><ele>1199.0</ele><time>2026-04-26T16:41:13.039Z</time></trkpt><trkpt lat="46.4894583" lon="12.5192417"><ele>1199.0</ele><time>2026-04-26T16:41:14.041Z</time></trkpt><trkpt lat="46.48939" lon="12.5191117"><ele>1199.0</ele><time>2026-04-26T16:41:15.038Z</time></trkpt><trkpt lat="46.489345" lon="12.5189467"><ele>1198.75</ele><time>2026-04-26T16:41:16.036Z</time></trkpt><trkpt lat="46.4892717" lon="12.5188067"><ele>1198.5</ele><time>2026-04-26T16:41:17.04Z</time></trkpt><trkpt lat="46.489185" lon="12.518665"><ele>1198.25</ele><time>2026-04-26T16:41:18.041Z</time></trkpt><trkpt lat="46.489095" lon="12.5185133"><ele>1198.0</ele><time>2026-04-26T16:41:19.035Z</time></trkpt><trkpt lat="46.4890033" lon="12.5183567"><ele>1198.0</ele><time>2026-04-26T16:41:20.039Z</time></trkpt><trkpt lat="46.4889067" lon="12.518195"><ele>1198.0</ele><time>2026-04-26T16:41:21.038Z</time></trkpt><trkpt lat="46.4888167" lon="12.5180167"><ele>1198.0</ele><time>2026-04-26T16:41:22.04Z</time></trkpt><trkpt lat="46.488715" lon="12.5178517"><ele>1195.25</ele><time>2026-04-26T16:41:23.037Z</time></trkpt><trkpt lat="46.488605" lon="12.5176933"><ele>1192.5</ele><time>2026-04-26T16:41:24.041Z</time></trkpt><trkpt lat="46.488505" lon="12.5175333"><ele>1189.75</ele><time>2026-04-26T16:41:25.04Z</time></trkpt><trkpt lat="46.4884183" lon="12.517375"><ele>1187.0</ele><time>2026-04-26T16:41:26.042Z</time></trkpt><trkpt lat="46.4883433" lon="12.5172267"><ele>1188.0</ele><time>2026-04-26T16:41:27.042Z</time></trkpt><trkpt lat="46.4883083" lon="12.5170533"><ele>1189.0</ele><time>2026-04-26T16:41:28.041Z</time></trkpt><trkpt lat="46.4882983" lon="12.5168633"><ele>1190.0</ele><time>2026-04-26T16:41:29.041Z</time></trkpt><trkpt lat="46.4882967" lon="12.5166617"><ele>1191.0</ele><time>2026-04-26T16:41:30.042Z</time></trkpt><trkpt lat="46.4882967" lon="12.5164533"><ele>1192.0</ele><time>2026-04-26T16:41:31.04Z</time></trkpt><trkpt lat="46.4883067" lon="12.5162283"><ele>1193.0</ele><time>2026-04-26T16:41:32.04Z</time></trkpt><trkpt lat="46.4883117" lon="12.5159767"><ele>1194.0</ele><time>2026-04-26T16:41:33.042Z</time></trkpt><trkpt lat="46.4882967" lon="12.5157417"><ele>1194.0</ele><time>2026-04-26T16:41:34.04Z</time></trkpt><trkpt lat="46.4882667" lon="12.5155067"><ele>1194.0</ele><time>2026-04-26T16:41:35.041Z</time></trkpt><trkpt lat="46.488225" lon="12.5152767"><ele>1194.0</ele><time>2026-04-26T16:41:36.042Z</time></trkpt><trkpt lat="46.48819" lon="12.51505"><ele>1196.6666666666667</ele><time>2026-04-26T16:41:37.042Z</time></trkpt><trkpt lat="46.4881483" lon="12.514835"><ele>1199.3333333333335</ele><time>2026-04-26T16:41:38.042Z</time></trkpt><trkpt lat="46.4881" lon="12.514625"><ele>1202.0</ele><time>2026-04-26T16:41:39.039Z</time></trkpt><trkpt lat="46.488025" lon="12.5144333"><ele>1204.0</ele><time>2026-04-26T16:41:40.041Z</time></trkpt><trkpt lat="46.4879533" lon="12.51426"><ele>1206.0</ele><time>2026-04-26T16:41:41.042Z</time></trkpt><trkpt lat="46.4878967" lon="12.514105"><ele>1208.0</ele><time>2026-04-26T16:41:42.039Z</time></trkpt><trkpt lat="46.4878633" lon="12.5139467"><ele>1210.0</ele><time>2026-04-26T16:41:43.04Z</time></trkpt><trkpt lat="46.4878417" lon="12.5137833"><ele>1202.75</ele><time>2026-04-26T16:41:44.04Z</time></trkpt><trkpt lat="46.4878233" lon="12.5136067"><ele>1195.5</ele><time>2026-04-26T16:41:45.039Z</time></trkpt><trkpt lat="46.4877867" lon="12.5134383"><ele>1188.25</ele><time>2026-04-26T16:41:46.042Z</time></trkpt><trkpt lat="46.4877383" lon="12.5132783"><ele>1181.0</ele><time>2026-04-26T16:41:47.036Z</time></trkpt><trkpt lat="46.4876833" lon="12.513115"><ele>1181.0</ele><time>2026-04-26T16:41:48.041Z</time></trkpt><trkpt lat="46.4876517" lon="12.5129367"><ele>1181.0</ele><time>2026-04-26T16:41:49.04Z</time></trkpt><trkpt lat="46.4876467" lon="12.5127567"><ele>1181.0</ele><time>2026-04-26T16:41:50.039Z</time></trkpt><trkpt lat="46.4876667" lon="12.5125733"><ele>1181.0</ele><time>2026-04-26T16:41:51.037Z</time></trkpt><trkpt lat="46.4877167" lon="12.5123867"><ele>1181.0</ele><time>2026-04-26T16:41:52.039Z</time></trkpt><trkpt lat="46.4877733" lon="12.5122183"><ele>1181.0</ele><time>2026-04-26T16:41:53.04Z</time></trkpt><trkpt lat="46.4878167" lon="12.51204"><ele>1181.0</ele><time>2026-04-26T16:41:54.042Z</time></trkpt><trkpt lat="46.4878317" lon="12.5118417"><ele>1181.0</ele><time>2026-04-26T16:41:55.037Z</time></trkpt><trkpt lat="46.48782" lon="12.51165"><ele>1180.75</ele><time>2026-04-26T16:41:56.04Z</time></trkpt><trkpt lat="46.4877783" lon="12.51146"><ele>1180.5</ele><time>2026-04-26T16:41:57.039Z</time></trkpt><trkpt lat="46.4877367" lon="12.51126"><ele>1180.25</ele><time>2026-04-26T16:41:58.036Z</time></trkpt><trkpt lat="46.4876733" lon="12.5110633"><ele>1180.0</ele><time>2026-04-26T16:41:59.047Z</time></trkpt><trkpt lat="46.48761" lon="12.5108633"><ele>1180.0</ele><time>2026-04-26T16:42:00.04Z</time></trkpt><trkpt lat="46.4875467" lon="12.51066"><ele>1180.0</ele><time>2026-04-26T16:42:01.04Z</time></trkpt><trkpt lat="46.48748" lon="12.510465"><ele>1180.0</ele><time>2026-04-26T16:42:02.041Z</time></trkpt><trkpt lat="46.4873967" lon="12.5102917"><ele>1180.0</ele><time>2026-04-26T16:42:03.041Z</time></trkpt><trkpt lat="46.4872917" lon="12.5101367"><ele>1176.3333333333333</ele><time>2026-04-26T16:42:04.039Z</time></trkpt><trkpt lat="46.4871667" lon="12.510005"><ele>1172.6666666666667</ele><time>2026-04-26T16:42:05.039Z</time></trkpt><trkpt lat="46.4870383" lon="12.5098783"><ele>1169.0</ele><time>2026-04-26T16:42:06.042Z</time></trkpt><trkpt lat="46.486915" lon="12.50976"><ele>1169.0</ele><time>2026-04-26T16:42:07.036Z</time></trkpt><trkpt lat="46.4868017" lon="12.5096617"><ele>1169.0</ele><time>2026-04-26T16:42:08.042Z</time></trkpt><trkpt lat="46.4867083" lon="12.5095767"><ele>1169.0</ele><time>2026-04-26T16:42:09.036Z</time></trkpt><trkpt lat="46.4866433" lon="12.50947"><ele>1169.0</ele><time>2026-04-26T16:42:10.04Z</time></trkpt><trkpt lat="46.4865967" lon="12.5093367"><ele>1169.0</ele><time>2026-04-26T16:42:11.04Z</time></trkpt><trkpt lat="46.4865767" lon="12.5091667"><ele>1171.0</ele><time>2026-04-26T16:42:12.04Z</time></trkpt><trkpt lat="46.4865467" lon="12.509"><ele>1173.0</ele><time>2026-04-26T16:42:13.041Z</time></trkpt><trkpt lat="46.4865133" lon="12.50882"><ele>1175.0</ele><time>2026-04-26T16:42:14.043Z</time></trkpt><trkpt lat="46.486475" lon="12.5086417"><ele>1177.0</ele><time>2026-04-26T16:42:15.04Z</time></trkpt><trkpt lat="46.4864383" lon="12.5084483"><ele>1177.25</ele><time>2026-04-26T16:42:16.04Z</time></trkpt><trkpt lat="46.486395" lon="12.50825"><ele>1177.5</ele><time>2026-04-26T16:42:17.04Z</time></trkpt><trkpt lat="46.4863533" lon="12.508045"><ele>1177.75</ele><time>2026-04-26T16:42:18.041Z</time></trkpt><trkpt lat="46.4863167" lon="12.5078367"><ele>1178.0</ele><time>2026-04-26T16:42:19.041Z</time></trkpt><trkpt lat="46.4862833" lon="12.5076283"><ele>1171.25</ele><time>2026-04-26T16:42:20.042Z</time></trkpt><trkpt lat="46.486255" lon="12.5074267"><ele>1164.5</ele><time>2026-04-26T16:42:21.041Z</time></trkpt><trkpt lat="46.486225" lon="12.5072283"><ele>1157.75</ele><time>2026-04-26T16:42:22.036Z</time></trkpt><trkpt lat="46.4861983" lon="12.5070333"><ele>1151.0</ele><time>2026-04-26T16:42:23.041Z</time></trkpt><trkpt lat="46.4861767" lon="12.5068333"><ele>1150.25</ele><time>2026-04-26T16:42:24.042Z</time></trkpt><trkpt lat="46.4861517" lon="12.50666"><ele>1149.5</ele><time>2026-04-26T16:42:25.041Z</time></trkpt><trkpt lat="46.4861333" lon="12.5064767"><ele>1148.75</ele><time>2026-04-26T16:42:26.041Z</time></trkpt><trkpt lat="46.4861067" lon="12.506315"><ele>1148.0</ele><time>2026-04-26T16:42:27.041Z</time></trkpt><trkpt lat="46.48606" lon="12.5061617"><ele>1147.5</ele><time>2026-04-26T16:42:28.041Z</time></trkpt><trkpt lat="46.4859917" lon="12.50603"><ele>1147.0</ele><time>2026-04-26T16:42:29.038Z</time></trkpt><trkpt lat="46.4859167" lon="12.5059083"><ele>1146.5</ele><time>2026-04-26T16:42:30.039Z</time></trkpt><trkpt lat="46.4858333" lon="12.5057833"><ele>1146.0</ele><time>2026-04-26T16:42:31.036Z</time></trkpt><trkpt lat="46.4857683" lon="12.50564"><ele>1146.0</ele><time>2026-04-26T16:42:32.041Z</time></trkpt><trkpt lat="46.48573" lon="12.505465"><ele>1146.0</ele><time>2026-04-26T16:42:33.042Z</time></trkpt><trkpt lat="46.4857183" lon="12.50527"><ele>1146.0</ele><time>2026-04-26T16:42:34.037Z</time></trkpt><trkpt lat="46.4857217" lon="12.5050583"><ele>1146.0</ele><time>2026-04-26T16:42:35.04Z</time></trkpt><trkpt lat="46.4857233" lon="12.5048367"><ele>1146.25</ele><time>2026-04-26T16:42:36.04Z</time></trkpt><trkpt lat="46.4857217" lon="12.50462"><ele>1146.5</ele><time>2026-04-26T16:42:37.04Z</time></trkpt><trkpt lat="46.48571" lon="12.5044167"><ele>1146.75</ele><time>2026-04-26T16:42:38.042Z</time></trkpt><trkpt lat="46.48571" lon="12.5042167"><ele>1147.0</ele><time>2026-04-26T16:42:39.039Z</time></trkpt><trkpt lat="46.4857233" lon="12.5040333"><ele>1146.5</ele><time>2026-04-26T16:42:40.039Z</time></trkpt><trkpt lat="46.48575" lon="12.5038483"><ele>1146.0</ele><time>2026-04-26T16:42:41.04Z</time></trkpt><trkpt lat="46.4857967" lon="12.503665"><ele>1145.5</ele><time>2026-04-26T16:42:42.043Z</time></trkpt><trkpt lat="46.485835" lon="12.5034733"><ele>1145.0</ele><time>2026-04-26T16:42:43.04Z</time></trkpt><trkpt lat="46.485855" lon="12.50328"><ele>1143.5</ele><time>2026-04-26T16:42:44.041Z</time></trkpt><trkpt lat="46.4858567" lon="12.5030933"><ele>1142.0</ele><time>2026-04-26T16:42:45.036Z</time></trkpt><trkpt lat="46.4858433" lon="12.5029017"><ele>1140.5</ele><time>2026-04-26T16:42:46.041Z</time></trkpt><trkpt lat="46.48581" lon="12.502735"><ele>1139.0</ele><time>2026-04-26T16:42:47.042Z</time></trkpt><trkpt lat="46.4857617" lon="12.5025967"><ele>1139.0</ele><time>2026-04-26T16:42:48.04Z</time></trkpt><trkpt lat="46.4856967" lon="12.502485"><ele>1139.0</ele><time>2026-04-26T16:42:49.04Z</time></trkpt><trkpt lat="46.4856033" lon="12.50242"><ele>1139.0</ele><time>2026-04-26T16:42:50.044Z</time></trkpt><trkpt lat="46.4855033" lon="12.5023933"><ele>1139.0</ele><time>2026-04-26T16:42:51.04Z</time></trkpt><trkpt lat="46.4854133" lon="12.5023817"><ele>1139.0</ele><time>2026-04-26T16:42:52.036Z</time></trkpt><trkpt lat="46.4853233" lon="12.5023617"><ele>1130.0</ele><time>2026-04-26T16:42:53.041Z</time></trkpt><trkpt lat="46.4852317" lon="12.5023217"><ele>1121.0</ele><time>2026-04-26T16:42:54.039Z</time></trkpt><trkpt lat="46.485145" lon="12.5023933"><ele>1112.0</ele><time>2026-04-26T16:42:56.199Z</time></trkpt><trkpt lat="46.4851217" lon="12.50192"><ele>1112.0</ele><time>2026-04-26T16:42:58.038Z</time></trkpt><trkpt lat="46.4851083" lon="12.5016717"><ele>1112.0</ele><time>2026-04-26T16:42:59.036Z</time></trkpt><trkpt lat="46.4851" lon="12.5014467"><ele>1112.0</ele><time>2026-04-26T16:43:00.036Z</time></trkpt><trkpt lat="46.4851033" lon="12.5012067"><ele>1110.0</ele><time>2026-04-26T16:43:01.039Z</time></trkpt><trkpt lat="46.4851333" lon="12.5009433"><ele>1108.0</ele><time>2026-04-26T16:43:02.036Z</time></trkpt><trkpt lat="46.485195" lon="12.500675"><ele>1106.0</ele><time>2026-04-26T16:43:03.036Z</time></trkpt><trkpt lat="46.4852567" lon="12.5004217"><ele>1103.3333333333335</ele><time>2026-04-26T16:43:04.037Z</time></trkpt><trkpt lat="46.48531" lon="12.50017"><ele>1100.6666666666667</ele><time>2026-04-26T16:43:05.039Z</time></trkpt><trkpt lat="46.48536" lon="12.49991"><ele>1098.0</ele><time>2026-04-26T16:43:06.04Z</time></trkpt><trkpt lat="46.4854083" lon="12.49964"><ele>1102.6666666666667</ele><time>2026-04-26T16:43:07.035Z</time></trkpt><trkpt lat="46.48545" lon="12.49938"><ele>1107.3333333333335</ele><time>2026-04-26T16:43:08.037Z</time></trkpt><trkpt lat="46.4854817" lon="12.499125"><ele>1112.0</ele><time>2026-04-26T16:43:09.037Z</time></trkpt><trkpt lat="46.4855117" lon="12.4988883"><ele>1107.75</ele><time>2026-04-26T16:43:10.035Z</time></trkpt><trkpt lat="46.4855433" lon="12.4986683"><ele>1103.5</ele><time>2026-04-26T16:43:11.035Z</time></trkpt><trkpt lat="46.48558" lon="12.498475"><ele>1099.25</ele><time>2026-04-26T16:43:12.036Z</time></trkpt><trkpt lat="46.48562" lon="12.498315"><ele>1095.0</ele><time>2026-04-26T16:43:13.04Z</time></trkpt><trkpt lat="46.4856817" lon="12.4981933"><ele>1095.0</ele><time>2026-04-26T16:43:14.039Z</time></trkpt><trkpt lat="46.4857633" lon="12.4981167"><ele>1095.0</ele><time>2026-04-26T16:43:15.039Z</time></trkpt><trkpt lat="46.4858617" lon="12.4980817"><ele>1095.0</ele><time>2026-04-26T16:43:16.04Z</time></trkpt><trkpt lat="46.485965" lon="12.4980383"><ele>1095.0</ele><time>2026-04-26T16:43:17.037Z</time></trkpt><trkpt lat="46.4860483" lon="12.4979783"><ele>1095.0</ele><time>2026-04-26T16:43:18.038Z</time></trkpt><trkpt lat="46.4861" lon="12.497895"><ele>1092.4</ele><time>2026-04-26T16:43:19.037Z</time></trkpt><trkpt lat="46.4861317" lon="12.49777"><ele>1089.8</ele><time>2026-04-26T16:43:20.04Z</time></trkpt><trkpt lat="46.4861317" lon="12.497615"><ele>1087.2</ele><time>2026-04-26T16:43:21.036Z</time></trkpt><trkpt lat="46.4861" lon="12.4974633"><ele>1084.6</ele><time>2026-04-26T16:43:22.036Z</time></trkpt><trkpt lat="46.4860483" lon="12.4972983"><ele>1082.0</ele><time>2026-04-26T16:43:23.037Z</time></trkpt><trkpt lat="46.48599" lon="12.4971233"><ele>1081.25</ele><time>2026-04-26T16:43:24.041Z</time></trkpt><trkpt lat="46.4859333" lon="12.4969367"><ele>1080.5</ele><time>2026-04-26T16:43:25.036Z</time></trkpt><trkpt lat="46.4858967" lon="12.4967267"><ele>1079.75</ele><time>2026-04-26T16:43:26.039Z</time></trkpt><trkpt lat="46.485865" lon="12.4965067"><ele>1079.0</ele><time>2026-04-26T16:43:27.039Z</time></trkpt><trkpt lat="46.48585" lon="12.49627"><ele>1077.6666666666667</ele><time>2026-04-26T16:43:28.039Z</time></trkpt><trkpt lat="46.4858417" lon="12.4960267"><ele>1076.3333333333333</ele><time>2026-04-26T16:43:29.039Z</time></trkpt><trkpt lat="46.4858267" lon="12.49577"><ele>1075.0</ele><time>2026-04-26T16:43:30.04Z</time></trkpt><trkpt lat="46.48582" lon="12.495505"><ele>1073.6666666666665</ele><time>2026-04-26T16:43:31.03Z</time></trkpt><trkpt lat="46.4858133" lon="12.4952333"><ele>1072.3333333333333</ele><time>2026-04-26T16:43:32.041Z</time></trkpt><trkpt lat="46.4858217" lon="12.4949617"><ele>1071.0</ele><time>2026-04-26T16:43:33.04Z</time></trkpt><trkpt lat="46.4858383" lon="12.4947017"><ele>1069.3333333333333</ele><time>2026-04-26T16:43:34.038Z</time></trkpt><trkpt lat="46.48585" lon="12.4944467"><ele>1067.6666666666665</ele><time>2026-04-26T16:43:35.037Z</time></trkpt><trkpt lat="46.4858583" lon="12.4941967"><ele>1066.0</ele><time>2026-04-26T16:43:36.04Z</time></trkpt><trkpt lat="46.4858667" lon="12.49396"><ele>1064.75</ele><time>2026-04-26T16:43:37.038Z</time></trkpt><trkpt lat="46.4858733" lon="12.4937367"><ele>1063.5</ele><time>2026-04-26T16:43:38.04Z</time></trkpt><trkpt lat="46.4858783" lon="12.4935217"><ele>1062.25</ele><time>2026-04-26T16:43:39.039Z</time></trkpt><trkpt lat="46.4858867" lon="12.4933133"><ele>1061.0</ele><time>2026-04-26T16:43:40.035Z</time></trkpt><trkpt lat="46.4859017" lon="12.4931067"><ele>1060.25</ele><time>2026-04-26T16:43:41.039Z</time></trkpt><trkpt lat="46.4859083" lon="12.4928933"><ele>1059.5</ele><time>2026-04-26T16:43:42.036Z</time></trkpt><trkpt lat="46.485915" lon="12.4926783"><ele>1058.75</ele><time>2026-04-26T16:43:43.038Z</time></trkpt><trkpt lat="46.4859117" lon="12.4924767"><ele>1058.0</ele><time>2026-04-26T16:43:44.038Z</time></trkpt><trkpt lat="46.4859033" lon="12.4923083"><ele>1058.0</ele><time>2026-04-26T16:43:45.036Z</time></trkpt><trkpt lat="46.4859017" lon="12.492145"><ele>1058.0</ele><time>2026-04-26T16:43:46.038Z</time></trkpt><trkpt lat="46.48591" lon="12.4920017"><ele>1058.0</ele><time>2026-04-26T16:43:47.036Z</time></trkpt><trkpt lat="46.485955" lon="12.4918933"><ele>1058.0</ele><time>2026-04-26T16:43:48.038Z</time></trkpt><trkpt lat="46.486025" lon="12.4918067"><ele>1058.0</ele><time>2026-04-26T16:43:49.038Z</time></trkpt><trkpt lat="46.4861183" lon="12.4917133"><ele>1055.75</ele><time>2026-04-26T16:43:50.038Z</time></trkpt><trkpt lat="46.486215" lon="12.4915983"><ele>1053.5</ele><time>2026-04-26T16:43:51.036Z</time></trkpt><trkpt lat="46.4862917" lon="12.491445"><ele>1051.25</ele><time>2026-04-26T16:43:52.036Z</time></trkpt><trkpt lat="46.4863417" lon="12.4912667"><ele>1049.0</ele><time>2026-04-26T16:43:53.04Z</time></trkpt><trkpt lat="46.4863633" lon="12.4910733"><ele>1054.25</ele><time>2026-04-26T16:43:54.041Z</time></trkpt><trkpt lat="46.48636" lon="12.4908633"><ele>1059.5</ele><time>2026-04-26T16:43:55.039Z</time></trkpt><trkpt lat="46.486365" lon="12.4906567"><ele>1064.75</ele><time>2026-04-26T16:43:56.038Z</time></trkpt><trkpt lat="46.4863933" lon="12.4904317"><ele>1070.0</ele><time>2026-04-26T16:43:57.036Z</time></trkpt><trkpt lat="46.486425" lon="12.49021"><ele>1070.0</ele><time>2026-04-26T16:43:58.036Z</time></trkpt><trkpt lat="46.48645" lon="12.48999"><ele>1070.0</ele><time>2026-04-26T16:43:59.034Z</time></trkpt><trkpt lat="46.4864583" lon="12.4897617"><ele>1070.0</ele><time>2026-04-26T16:44:00.035Z</time></trkpt><trkpt lat="46.486445" lon="12.48953"><ele>1070.6666666666667</ele><time>2026-04-26T16:44:01.034Z</time></trkpt><trkpt lat="46.4864167" lon="12.4892967"><ele>1071.3333333333333</ele><time>2026-04-26T16:44:02.038Z</time></trkpt><trkpt lat="46.486385" lon="12.4890567"><ele>1072.0</ele><time>2026-04-26T16:44:03.037Z</time></trkpt><trkpt lat="46.48637" lon="12.4888083"><ele>1071.0</ele><time>2026-04-26T16:44:04.038Z</time></trkpt><trkpt lat="46.48637" lon="12.4885833"><ele>1070.0</ele><time>2026-04-26T16:44:05.038Z</time></trkpt><trkpt lat="46.4863667" lon="12.48837"><ele>1069.0</ele><time>2026-04-26T16:44:06.039Z</time></trkpt><trkpt lat="46.4863433" lon="12.48817"><ele>1068.0</ele><time>2026-04-26T16:44:07.034Z</time></trkpt><trkpt lat="46.4862883" lon="12.487975"><ele>1060.75</ele><time>2026-04-26T16:44:08.041Z</time></trkpt><trkpt lat="46.4862233" lon="12.4877817"><ele>1053.5</ele><time>2026-04-26T16:44:09.037Z</time></trkpt><trkpt lat="46.4861433" lon="12.4876067"><ele>1046.25</ele><time>2026-04-26T16:44:10.036Z</time></trkpt><trkpt lat="46.4860483" lon="12.4874517"><ele>1039.0</ele><time>2026-04-26T16:44:11.036Z</time></trkpt><trkpt lat="46.4859367" lon="12.4873333"><ele>1039.0</ele><time>2026-04-26T16:44:12.04Z</time></trkpt><trkpt lat="46.48581" lon="12.4872517"><ele>1039.0</ele><time>2026-04-26T16:44:13.038Z</time></trkpt><trkpt lat="46.4856867" lon="12.487185"><ele>1039.0</ele><time>2026-04-26T16:44:14.038Z</time></trkpt><trkpt lat="46.4855733" lon="12.4871333"><ele>1039.0</ele><time>2026-04-26T16:44:15.036Z</time></trkpt><trkpt lat="46.4854717" lon="12.4871167"><ele>1037.1666666666665</ele><time>2026-04-26T16:44:16.036Z</time></trkpt><trkpt lat="46.48539" lon="12.4871067"><ele>1035.3333333333333</ele><time>2026-04-26T16:44:17.04Z</time></trkpt><trkpt lat="46.485315" lon="12.4870933"><ele>1033.5</ele><time>2026-04-26T16:44:18.037Z</time></trkpt><trkpt lat="46.48525" lon="12.4870783"><ele>1031.6666666666667</ele><time>2026-04-26T16:44:19.039Z</time></trkpt><trkpt lat="46.485185" lon="12.4870717"><ele>1029.8333333333335</ele><time>2026-04-26T16:44:20.04Z</time></trkpt><trkpt lat="46.4851133" lon="12.4870833"><ele>1028.0</ele><time>2026-04-26T16:44:21.038Z</time></trkpt><trkpt lat="46.4850067" lon="12.487065"><ele>1028.0</ele><time>2026-04-26T16:44:23.042Z</time></trkpt><trkpt lat="46.4849433" lon="12.48702"><ele>1028.0</ele><time>2026-04-26T16:44:25.04Z</time></trkpt><trkpt lat="46.4849483" lon="12.486885"><ele>1028.0</ele><time>2026-04-26T16:44:27.041Z</time></trkpt><trkpt lat="46.4849683" lon="12.4867783"><ele>1028.0</ele><time>2026-04-26T16:44:28.039Z</time></trkpt><trkpt lat="46.484995" lon="12.486685"><ele>1028.0</ele><time>2026-04-26T16:44:29.04Z</time></trkpt><trkpt lat="46.4850383" lon="12.486585"><ele>1028.0</ele><time>2026-04-26T16:44:30.042Z</time></trkpt><trkpt lat="46.485085" lon="12.48648"><ele>1028.0</ele><time>2026-04-26T16:44:31.035Z</time></trkpt><trkpt lat="46.4851383" lon="12.4863767"><ele>1028.0</ele><time>2026-04-26T16:44:32.044Z</time></trkpt><trkpt lat="46.485205" lon="12.4862667"><ele>1028.0</ele><time>2026-04-26T16:44:33.039Z</time></trkpt><trkpt lat="46.4852667" lon="12.4861583"><ele>1028.0</ele><time>2026-04-26T16:44:34.038Z</time></trkpt><trkpt lat="46.48532" lon="12.4860483"><ele>1028.0</ele><time>2026-04-26T16:44:35.036Z</time></trkpt><trkpt lat="46.48537" lon="12.4859433"><ele>1027.6666666666667</ele><time>2026-04-26T16:44:36.04Z</time></trkpt><trkpt lat="46.4854183" lon="12.4858517"><ele>1027.3333333333335</ele><time>2026-04-26T16:44:37.041Z</time></trkpt><trkpt lat="46.4854567" lon="12.48575"><ele>1027.0</ele><time>2026-04-26T16:44:38.043Z</time></trkpt><trkpt lat="46.4855033" lon="12.4856667"><ele>1026.6666666666667</ele><time>2026-04-26T16:44:39.039Z</time></trkpt><trkpt lat="46.4855433" lon="12.4855867"><ele>1026.3333333333333</ele><time>2026-04-26T16:44:40.039Z</time></trkpt><trkpt lat="46.4855867" lon="12.4854883"><ele>1026.0</ele><time>2026-04-26T16:44:41.036Z</time></trkpt><trkpt lat="46.485645" lon="12.4853883"><ele>1023.1666666666666</ele><time>2026-04-26T16:44:42.041Z</time></trkpt><trkpt lat="46.4856983" lon="12.485275"><ele>1020.3333333333333</ele><time>2026-04-26T16:44:43.04Z</time></trkpt><trkpt lat="46.4857417" lon="12.4851867"><ele>1017.5</ele><time>2026-04-26T16:44:44.039Z</time></trkpt><trkpt lat="46.4857833" lon="12.4851067"><ele>1014.6666666666666</ele><time>2026-04-26T16:44:45.042Z</time></trkpt><trkpt lat="46.4858317" lon="12.48503"><ele>1011.8333333333333</ele><time>2026-04-26T16:44:46.038Z</time></trkpt><trkpt lat="46.4858883" lon="12.4849267"><ele>1009.0</ele><time>2026-04-26T16:44:47.042Z</time></trkpt><trkpt lat="46.48595" lon="12.4848333"><ele>1009.0</ele><time>2026-04-26T16:44:48.037Z</time></trkpt><trkpt lat="46.486025" lon="12.4847217"><ele>1009.0000000000001</ele><time>2026-04-26T16:44:49.04Z</time></trkpt><trkpt lat="46.4860967" lon="12.484595"><ele>1009.0000000000001</ele><time>2026-04-26T16:44:50.041Z</time></trkpt><trkpt lat="46.4861567" lon="12.48448"><ele>1009.0</ele><time>2026-04-26T16:44:51.037Z</time></trkpt><trkpt lat="46.4862117" lon="12.4843767"><ele>1009.0</ele><time>2026-04-26T16:44:52.04Z</time></trkpt><trkpt lat="46.4862683" lon="12.4842767"><ele>1006.2</ele><time>2026-04-26T16:44:53.036Z</time></trkpt><trkpt lat="46.4863417" lon="12.4842033"><ele>1003.4000000000001</ele><time>2026-04-26T16:44:54.039Z</time></trkpt><trkpt lat="46.486415" lon="12.4841133"><ele>1000.6</ele><time>2026-04-26T16:44:55.04Z</time></trkpt><trkpt lat="46.48649" lon="12.4840167"><ele>997.8</ele><time>2026-04-26T16:44:56.041Z</time></trkpt><trkpt lat="46.48654" lon="12.4839"><ele>995.0</ele><time>2026-04-26T16:44:57.038Z</time></trkpt><trkpt lat="46.4866117" lon="12.4837933"><ele>991.25</ele><time>2026-04-26T16:44:58.039Z</time></trkpt><trkpt lat="46.486675" lon="12.4836817"><ele>987.5</ele><time>2026-04-26T16:44:59.04Z</time></trkpt><trkpt lat="46.4867517" lon="12.483565"><ele>983.75</ele><time>2026-04-26T16:45:00.037Z</time></trkpt><trkpt lat="46.486835" lon="12.4834217"><ele>980.0</ele><time>2026-04-26T16:45:01.039Z</time></trkpt><trkpt lat="46.4869033" lon="12.4832817"><ele>980.0</ele><time>2026-04-26T16:45:02.038Z</time></trkpt><trkpt lat="46.4869833" lon="12.4831483"><ele>980.0</ele><time>2026-04-26T16:45:03.038Z</time></trkpt><trkpt lat="46.4870717" lon="12.4830217"><ele>980.0</ele><time>2026-04-26T16:45:04.038Z</time></trkpt><trkpt lat="46.4871617" lon="12.4829033"><ele>980.0</ele><time>2026-04-26T16:45:05.04Z</time></trkpt><trkpt lat="46.48726" lon="12.48278"><ele>976.75</ele><time>2026-04-26T16:45:06.039Z</time></trkpt><trkpt lat="46.48736" lon="12.4826667"><ele>973.5</ele><time>2026-04-26T16:45:07.036Z</time></trkpt><trkpt lat="46.4874533" lon="12.4825517"><ele>970.25</ele><time>2026-04-26T16:45:08.04Z</time></trkpt><trkpt lat="46.48757" lon="12.4824283"><ele>967.0</ele><time>2026-04-26T16:45:09.039Z</time></trkpt><trkpt lat="46.4876767" lon="12.4823367"><ele>967.0</ele><time>2026-04-26T16:45:10.038Z</time></trkpt><trkpt lat="46.48782" lon="12.4822583"><ele>967.0</ele><time>2026-04-26T16:45:11.04Z</time></trkpt><trkpt lat="46.48796" lon="12.482195"><ele>967.0</ele><time>2026-04-26T16:45:12.043Z</time></trkpt><trkpt lat="46.4880883" lon="12.4821033"><ele>967.0</ele><time>2026-04-26T16:45:13.042Z</time></trkpt><trkpt lat="46.488215" lon="12.4819833"><ele>965.4000000000001</ele><time>2026-04-26T16:45:14.04Z</time></trkpt><trkpt lat="46.488335" lon="12.4818617"><ele>963.8000000000001</ele><time>2026-04-26T16:45:15.039Z</time></trkpt><trkpt lat="46.4884317" lon="12.48176"><ele>962.2</ele><time>2026-04-26T16:45:16.04Z</time></trkpt><trkpt lat="46.4885067" lon="12.48168"><ele>960.6</ele><time>2026-04-26T16:45:17.039Z</time></trkpt><trkpt lat="46.4885733" lon="12.4816083"><ele>959.0</ele><time>2026-04-26T16:45:18.043Z</time></trkpt><trkpt lat="46.4886317" lon="12.4815317"><ele>959.0000000000001</ele><time>2026-04-26T16:45:19.04Z</time></trkpt><trkpt lat="46.48868" lon="12.4814467"><ele>959.0</ele><time>2026-04-26T16:45:20.043Z</time></trkpt><trkpt lat="46.4887217" lon="12.4813533"><ele>959.0</ele><time>2026-04-26T16:45:21.037Z</time></trkpt><trkpt lat="46.48876" lon="12.4812483"><ele>959.0</ele><time>2026-04-26T16:45:22.039Z</time></trkpt><trkpt lat="46.4887967" lon="12.4811433"><ele>959.0000000000001</ele><time>2026-04-26T16:45:23.04Z</time></trkpt><trkpt lat="46.4888367" lon="12.4810333"><ele>959.0</ele><time>2026-04-26T16:45:24.034Z</time></trkpt><trkpt lat="46.4888717" lon="12.48093"><ele>958.0000000000001</ele><time>2026-04-26T16:45:25.039Z</time></trkpt><trkpt lat="46.4889017" lon="12.48083"><ele>957.0</ele><time>2026-04-26T16:45:26.043Z</time></trkpt><trkpt lat="46.4889317" lon="12.4807417"><ele>956.0</ele><time>2026-04-26T16:45:27.038Z</time></trkpt><trkpt lat="46.4889733" lon="12.4806433"><ele>955.0</ele><time>2026-04-26T16:45:28.04Z</time></trkpt><trkpt lat="46.4890233" lon="12.480545"><ele>954.0000000000001</ele><time>2026-04-26T16:45:29.039Z</time></trkpt><trkpt lat="46.4890817" lon="12.4804517"><ele>953.0</ele><time>2026-04-26T16:45:30.04Z</time></trkpt><trkpt lat="46.4891583" lon="12.4803733"><ele>952.5999999999999</ele><time>2026-04-26T16:45:31.04Z</time></trkpt><trkpt lat="46.4892417" lon="12.4803067"><ele>952.1999999999999</ele><time>2026-04-26T16:45:32.038Z</time></trkpt><trkpt lat="46.48933" lon="12.4802267"><ele>951.8</ele><time>2026-04-26T16:45:33.04Z</time></trkpt><trkpt lat="46.4894183" lon="12.480125"><ele>951.4</ele><time>2026-04-26T16:45:34.039Z</time></trkpt><trkpt lat="46.4894983" lon="12.4800183"><ele>951.0</ele><time>2026-04-26T16:45:35.041Z</time></trkpt><trkpt lat="46.489575" lon="12.4799"><ele>952.1999999999999</ele><time>2026-04-26T16:45:36.042Z</time></trkpt><trkpt lat="46.4896533" lon="12.4798117"><ele>953.3999999999999</ele><time>2026-04-26T16:45:37.041Z</time></trkpt><trkpt lat="46.4897433" lon="12.47973"><ele>954.6</ele><time>2026-04-26T16:45:38.042Z</time></trkpt><trkpt lat="46.489835" lon="12.47965"><ele>955.8</ele><time>2026-04-26T16:45:39.04Z</time></trkpt><trkpt lat="46.4899183" lon="12.4795683"><ele>957.0</ele><time>2026-04-26T16:45:40.042Z</time></trkpt><trkpt lat="46.489995" lon="12.4794917"><ele>957.0</ele><time>2026-04-26T16:45:41.036Z</time></trkpt><trkpt lat="46.4900667" lon="12.4794267"><ele>957.0</ele><time>2026-04-26T16:45:42.04Z</time></trkpt><trkpt lat="46.4901283" lon="12.4793633"><ele>957.0</ele><time>2026-04-26T16:45:43.038Z</time></trkpt><trkpt lat="46.4902233" lon="12.4792683"><ele>957.0</ele><time>2026-04-26T16:45:45.038Z</time></trkpt><trkpt lat="46.4902717" lon="12.479185"><ele>957.0</ele><time>2026-04-26T16:45:47.036Z</time></trkpt><trkpt lat="46.490255" lon="12.4790933"><ele>957.0</ele><time>2026-04-26T16:45:49.039Z</time></trkpt><trkpt lat="46.4901817" lon="12.478925"><ele>957.0</ele><time>2026-04-26T16:45:51.04Z</time></trkpt><trkpt lat="46.4901283" lon="12.4788233"><ele>957.0</ele><time>2026-04-26T16:45:52.039Z</time></trkpt><trkpt lat="46.4900683" lon="12.4787067"><ele>957.0</ele><time>2026-04-26T16:45:53.041Z</time></trkpt><trkpt lat="46.4900117" lon="12.4785883"><ele>957.0</ele><time>2026-04-26T16:45:54.041Z</time></trkpt><trkpt lat="46.4899483" lon="12.4784667"><ele>957.0</ele><time>2026-04-26T16:45:55.042Z</time></trkpt><trkpt lat="46.4898833" lon="12.47835"><ele>955.2</ele><time>2026-04-26T16:45:56.046Z</time></trkpt><trkpt lat="46.4898267" lon="12.4782483"><ele>953.4000000000001</ele><time>2026-04-26T16:45:57.036Z</time></trkpt><trkpt lat="46.48977" lon="12.4781433"><ele>951.5999999999999</ele><time>2026-04-26T16:45:58.039Z</time></trkpt><trkpt lat="46.4897033" lon="12.47803"><ele>949.8</ele><time>2026-04-26T16:45:59.04Z</time></trkpt><trkpt lat="46.489635" lon="12.4779067"><ele>948.0</ele><time>2026-04-26T16:46:00.039Z</time></trkpt><trkpt lat="46.4895733" lon="12.4777967"><ele>946.8333333333334</ele><time>2026-04-26T16:46:01.04Z</time></trkpt><trkpt lat="46.48952" lon="12.4776983"><ele>945.6666666666667</ele><time>2026-04-26T16:46:02.042Z</time></trkpt><trkpt lat="46.4894667" lon="12.477615"><ele>944.5</ele><time>2026-04-26T16:46:03.037Z</time></trkpt><trkpt lat="46.4894117" lon="12.4775317"><ele>943.3333333333334</ele><time>2026-04-26T16:46:04.039Z</time></trkpt><trkpt lat="46.489355" lon="12.4774383"><ele>942.1666666666667</ele><time>2026-04-26T16:46:05.036Z</time></trkpt><trkpt lat="46.4892983" lon="12.477335"><ele>941.0</ele><time>2026-04-26T16:46:06.039Z</time></trkpt><trkpt lat="46.4892383" lon="12.4772183"><ele>940.8</ele><time>2026-04-26T16:46:07.04Z</time></trkpt><trkpt lat="46.4891883" lon="12.4770917"><ele>940.5999999999999</ele><time>2026-04-26T16:46:08.041Z</time></trkpt><trkpt lat="46.48915" lon="12.47696"><ele>940.4</ele><time>2026-04-26T16:46:09.039Z</time></trkpt><trkpt lat="46.4891217" lon="12.4768267"><ele>940.2</ele><time>2026-04-26T16:46:10.038Z</time></trkpt><trkpt lat="46.4890967" lon="12.476685"><ele>940.0</ele><time>2026-04-26T16:46:11.042Z</time></trkpt><trkpt lat="46.4890817" lon="12.4765317"><ele>940.0</ele><time>2026-04-26T16:46:12.044Z</time></trkpt><trkpt lat="46.4890767" lon="12.4763667"><ele>940.0</ele><time>2026-04-26T16:46:13.04Z</time></trkpt><trkpt lat="46.4890683" lon="12.4762183"><ele>940.0</ele><time>2026-04-26T16:46:14.04Z</time></trkpt><trkpt lat="46.4890583" lon="12.4760933"><ele>940.0</ele><time>2026-04-26T16:46:15.039Z</time></trkpt><trkpt lat="46.48904" lon="12.4759783"><ele>940.0</ele><time>2026-04-26T16:46:16.039Z</time></trkpt><trkpt lat="46.4890267" lon="12.475885"><ele>939.3333333333333</ele><time>2026-04-26T16:46:17.039Z</time></trkpt><trkpt lat="46.489005" lon="12.475795"><ele>938.6666666666666</ele><time>2026-04-26T16:46:18.04Z</time></trkpt><trkpt lat="46.4889717" lon="12.47571"><ele>938.0</ele><time>2026-04-26T16:46:19.041Z</time></trkpt><trkpt lat="46.4889017" lon="12.47561"><ele>937.3333333333333</ele><time>2026-04-26T16:46:20.041Z</time></trkpt><trkpt lat="46.48886" lon="12.4755017"><ele>936.6666666666666</ele><time>2026-04-26T16:46:21.04Z</time></trkpt><trkpt lat="46.4888267" lon="12.475395"><ele>936.0</ele><time>2026-04-26T16:46:22.041Z</time></trkpt><trkpt lat="46.4888067" lon="12.4752883"><ele>935.6666666666666</ele><time>2026-04-26T16:46:23.04Z</time></trkpt><trkpt lat="46.4887967" lon="12.4751567"><ele>935.3333333333333</ele><time>2026-04-26T16:46:24.042Z</time></trkpt><trkpt lat="46.4887767" lon="12.4750183"><ele>935.0</ele><time>2026-04-26T16:46:25.04Z</time></trkpt><trkpt lat="46.4887467" lon="12.474905"><ele>934.6666666666666</ele><time>2026-04-26T16:46:26.042Z</time></trkpt><trkpt lat="46.4887167" lon="12.474805"><ele>934.3333333333333</ele><time>2026-04-26T16:46:27.039Z</time></trkpt><trkpt lat="46.4886783" lon="12.4747017"><ele>934.0</ele><time>2026-04-26T16:46:28.036Z</time></trkpt><trkpt lat="46.488645" lon="12.4745967"><ele>931.3333333333333</ele><time>2026-04-26T16:46:29.04Z</time></trkpt><trkpt lat="46.488615" lon="12.4744917"><ele>928.6666666666666</ele><time>2026-04-26T16:46:30.04Z</time></trkpt><trkpt lat="46.4885883" lon="12.47439"><ele>926.0</ele><time>2026-04-26T16:46:31.041Z</time></trkpt><trkpt lat="46.4885683" lon="12.4742983"><ele>923.3333333333333</ele><time>2026-04-26T16:46:32.042Z</time></trkpt><trkpt lat="46.48853" lon="12.4741133"><ele>920.6666666666666</ele><time>2026-04-26T16:46:34.037Z</time></trkpt><trkpt lat="46.4885117" lon="12.4740017"><ele>918.0</ele><time>2026-04-26T16:46:35.041Z</time></trkpt><trkpt lat="46.4884917" lon="12.47388"><ele>914.8</ele><time>2026-04-26T16:46:36.041Z</time></trkpt><trkpt lat="46.4884483" lon="12.47371"><ele>911.5999999999999</ele><time>2026-04-26T16:46:37.041Z</time></trkpt><trkpt lat="46.4884183" lon="12.4735867"><ele>908.4000000000001</ele><time>2026-04-26T16:46:38.042Z</time></trkpt><trkpt lat="46.488395" lon="12.4734383"><ele>905.2</ele><time>2026-04-26T16:46:40.038Z</time></trkpt><trkpt lat="46.4884033" lon="12.4733317"><ele>902.0</ele><time>2026-04-26T16:46:42.039Z</time></trkpt><trkpt lat="46.4884883" lon="12.473265"><ele>902.0</ele><time>2026-04-26T16:46:44.041Z</time></trkpt><trkpt lat="46.48863" lon="12.47316"><ele>902.0</ele><time>2026-04-26T16:46:46.039Z</time></trkpt><trkpt lat="46.4887317" lon="12.4731"><ele>902.0</ele><time>2026-04-26T16:46:47.036Z</time></trkpt><trkpt lat="46.4888167" lon="12.4730283"><ele>902.0</ele><time>2026-04-26T16:46:48.04Z</time></trkpt><trkpt lat="46.4888817" lon="12.4729467"><ele>901.1666666666667</ele><time>2026-04-26T16:46:49.038Z</time></trkpt><trkpt lat="46.4889333" lon="12.4728633"><ele>900.3333333333334</ele><time>2026-04-26T16:46:50.042Z</time></trkpt><trkpt lat="46.4889817" lon="12.472785"><ele>899.5</ele><time>2026-04-26T16:46:51.04Z</time></trkpt><trkpt lat="46.48906" lon="12.4726383"><ele>898.6666666666667</ele><time>2026-04-26T16:46:53.04Z</time></trkpt><trkpt lat="46.489105" lon="12.472545"><ele>897.8333333333334</ele><time>2026-04-26T16:46:54.04Z</time></trkpt><trkpt lat="46.4891367" lon="12.4724517"><ele>897.0</ele><time>2026-04-26T16:46:55.041Z</time></trkpt><trkpt lat="46.489165" lon="12.4723567"><ele>897.0</ele><time>2026-04-26T16:46:56.043Z</time></trkpt><trkpt lat="46.4891817" lon="12.4722567"><ele>897.0</ele><time>2026-04-26T16:46:57.036Z</time></trkpt><trkpt lat="46.4891967" lon="12.472165"><ele>897.0</ele><time>2026-04-26T16:46:58.039Z</time></trkpt><trkpt lat="46.489215" lon="12.472045"><ele>897.0</ele><time>2026-04-26T16:46:59.042Z</time></trkpt><trkpt lat="46.4892317" lon="12.47191"><ele>897.0</ele><time>2026-04-26T16:47:00.041Z</time></trkpt><trkpt lat="46.48925" lon="12.4717783"><ele>897.0</ele><time>2026-04-26T16:47:01.041Z</time></trkpt><trkpt lat="46.489275" lon="12.4716367"><ele>896.2</ele><time>2026-04-26T16:47:02.044Z</time></trkpt><trkpt lat="46.4892933" lon="12.471525"><ele>895.4000000000001</ele><time>2026-04-26T16:47:03.04Z</time></trkpt><trkpt lat="46.4893233" lon="12.471405"><ele>894.5999999999999</ele><time>2026-04-26T16:47:04.038Z</time></trkpt><trkpt lat="46.48935" lon="12.4712867"><ele>893.8</ele><time>2026-04-26T16:47:05.037Z</time></trkpt><trkpt lat="46.48939" lon="12.47113"><ele>893.0</ele><time>2026-04-26T16:47:06.038Z</time></trkpt><trkpt lat="46.4894233" lon="12.47101"><ele>891.5000000000001</ele><time>2026-04-26T16:47:07.041Z</time></trkpt><trkpt lat="46.489455" lon="12.470905"><ele>890.0</ele><time>2026-04-26T16:47:08.04Z</time></trkpt><trkpt lat="46.4894867" lon="12.4708"><ele>888.5</ele><time>2026-04-26T16:47:09.039Z</time></trkpt><trkpt lat="46.489505" lon="12.470705"><ele>887.0</ele><time>2026-04-26T16:47:10.04Z</time></trkpt><trkpt lat="46.4895217" lon="12.4705867"><ele>885.5000000000001</ele><time>2026-04-26T16:47:11.04Z</time></trkpt><trkpt lat="46.4895467" lon="12.4704733"><ele>884.0</ele><time>2026-04-26T16:47:12.038Z</time></trkpt><trkpt lat="46.4895617" lon="12.47035"><ele>882.0000000000001</ele><time>2026-04-26T16:47:13.042Z</time></trkpt><trkpt lat="46.4895633" lon="12.4702317"><ele>880.0</ele><time>2026-04-26T16:47:14.043Z</time></trkpt><trkpt lat="46.48956" lon="12.470105"><ele>878.0</ele><time>2026-04-26T16:47:15.04Z</time></trkpt><trkpt lat="46.4895583" lon="12.4699767"><ele>876.0</ele><time>2026-04-26T16:47:16.04Z</time></trkpt><trkpt lat="46.48956" lon="12.4698483"><ele>874.0000000000001</ele><time>2026-04-26T16:47:17.037Z</time></trkpt><trkpt lat="46.4895617" lon="12.4697233"><ele>872.0</ele><time>2026-04-26T16:47:18.042Z</time></trkpt><trkpt lat="46.4895683" lon="12.4696033"><ele>870.2857142857143</ele><time>2026-04-26T16:47:19.039Z</time></trkpt><trkpt lat="46.489585" lon="12.4695017"><ele>868.5714285714287</ele><time>2026-04-26T16:47:20.043Z</time></trkpt><trkpt lat="46.489595" lon="12.4693917"><ele>866.8571428571429</ele><time>2026-04-26T16:47:21.031Z</time></trkpt><trkpt lat="46.4896067" lon="12.4692917"><ele>865.1428571428571</ele><time>2026-04-26T16:47:22.04Z</time></trkpt><trkpt lat="46.4896217" lon="12.4691983"><ele>863.4285714285714</ele><time>2026-04-26T16:47:23.037Z</time></trkpt><trkpt lat="46.4896283" lon="12.469095"><ele>861.7142857142857</ele><time>2026-04-26T16:47:24.037Z</time></trkpt><trkpt lat="46.4896433" lon="12.4689983"><ele>860.0</ele><time>2026-04-26T16:47:25.039Z</time></trkpt><trkpt lat="46.4896067" lon="12.4688917"><ele>860.0000000000001</ele><time>2026-04-26T16:47:26.039Z</time></trkpt><trkpt lat="46.4895617" lon="12.4687833"><ele>860.0</ele><time>2026-04-26T16:47:27.041Z</time></trkpt><trkpt lat="46.48952" lon="12.4686817"><ele>860.0</ele><time>2026-04-26T16:47:28.04Z</time></trkpt><trkpt lat="46.4894467" lon="12.46858"><ele>860.0</ele><time>2026-04-26T16:47:29.039Z</time></trkpt><trkpt lat="46.4894233" lon="12.4684367"><ele>860.0000000000001</ele><time>2026-04-26T16:47:30.037Z</time></trkpt><trkpt lat="46.4894" lon="12.468335"><ele>860.0</ele><time>2026-04-26T16:47:31.039Z</time></trkpt><trkpt lat="46.48937" lon="12.4681883"><ele>856.2</ele><time>2026-04-26T16:47:33.04Z</time></trkpt><trkpt lat="46.4893683" lon="12.46806"><ele>852.4</ele><time>2026-04-26T16:47:35.037Z</time></trkpt><trkpt lat="46.4893567" lon="12.4679517"><ele>848.5999999999999</ele><time>2026-04-26T16:47:37.039Z</time></trkpt><trkpt lat="46.4893033" lon="12.4678583"><ele>844.8</ele><time>2026-04-26T16:47:40.036Z</time></trkpt><trkpt lat="46.48924" lon="12.4677717"><ele>841.0</ele><time>2026-04-26T16:47:43.038Z</time></trkpt><trkpt lat="46.4891883" lon="12.46762"><ele>836.5</ele><time>2026-04-26T16:47:46.04Z</time></trkpt><trkpt lat="46.4891183" lon="12.467505"><ele>832.0</ele><time>2026-04-26T16:47:48.04Z</time></trkpt><trkpt lat="46.489065" lon="12.4673583"><ele>827.5</ele><time>2026-04-26T16:47:50.038Z</time></trkpt><trkpt lat="46.4890167" lon="12.4671917"><ele>823.0</ele><time>2026-04-26T16:47:52.039Z</time></trkpt><trkpt lat="46.488955" lon="12.4670483"><ele>819.5999999999999</ele><time>2026-04-26T16:47:54.04Z</time></trkpt><trkpt lat="46.488905" lon="12.4668967"><ele>816.1999999999999</ele><time>2026-04-26T16:47:56.04Z</time></trkpt><trkpt lat="46.4888367" lon="12.46672"><ele>812.8</ele><time>2026-04-26T16:47:58.036Z</time></trkpt><trkpt lat="46.48879" lon="12.4666467"><ele>809.4</ele><time>2026-04-26T16:47:59.038Z</time></trkpt><trkpt lat="46.4887417" lon="12.4665717"><ele>806.0</ele><time>2026-04-26T16:48:00.044Z</time></trkpt><trkpt lat="46.4886783" lon="12.46651"><ele>801.1999999999999</ele><time>2026-04-26T16:48:01.038Z</time></trkpt><trkpt lat="46.48863" lon="12.46644"><ele>796.4</ele><time>2026-04-26T16:48:02.04Z</time></trkpt><trkpt lat="46.4885583" lon="12.4663617"><ele>791.6</ele><time>2026-04-26T16:48:03.04Z</time></trkpt><trkpt lat="46.488485" lon="12.4662383"><ele>786.8</ele><time>2026-04-26T16:48:05.037Z</time></trkpt><trkpt lat="46.4884133" lon="12.4660983"><ele>782.0</ele><time>2026-04-26T16:48:07.044Z</time></trkpt><trkpt lat="46.48838" lon="12.4660083"><ele>781.8</ele><time>2026-04-26T16:48:08.041Z</time></trkpt><trkpt lat="46.4883367" lon="12.4659"><ele>781.6</ele><time>2026-04-26T16:48:09.044Z</time></trkpt><trkpt lat="46.4882817" lon="12.46578"><ele>781.4</ele><time>2026-04-26T16:48:10.039Z</time></trkpt><trkpt lat="46.48824" lon="12.4656517"><ele>781.1999999999999</ele><time>2026-04-26T16:48:11.044Z</time></trkpt><trkpt lat="46.4882117" lon="12.4655"><ele>781.0</ele><time>2026-04-26T16:48:12.037Z</time></trkpt><trkpt lat="46.4882" lon="12.4653283"><ele>781.4</ele><time>2026-04-26T16:48:13.038Z</time></trkpt><trkpt lat="46.4881917" lon="12.465155"><ele>781.8</ele><time>2026-04-26T16:48:14.039Z</time></trkpt><trkpt lat="46.4881867" lon="12.4649883"><ele>782.1999999999999</ele><time>2026-04-26T16:48:15.038Z</time></trkpt><trkpt lat="46.4881833" lon="12.4648333"><ele>782.5999999999999</ele><time>2026-04-26T16:48:16.039Z</time></trkpt><trkpt lat="46.4881883" lon="12.4646833"><ele>783.0</ele><time>2026-04-26T16:48:17.041Z</time></trkpt><trkpt lat="46.4881967" lon="12.46454"><ele>782.3333333333334</ele><time>2026-04-26T16:48:18.037Z</time></trkpt><trkpt lat="46.4882083" lon="12.464405"><ele>781.6666666666667</ele><time>2026-04-26T16:48:19.04Z</time></trkpt><trkpt lat="46.4882267" lon="12.464275"><ele>781.0</ele><time>2026-04-26T16:48:20.041Z</time></trkpt><trkpt lat="46.488255" lon="12.4641667"><ele>780.3333333333334</ele><time>2026-04-26T16:48:21.04Z</time></trkpt><trkpt lat="46.4882883" lon="12.4640483"><ele>779.6666666666667</ele><time>2026-04-26T16:48:23.039Z</time></trkpt><trkpt lat="46.4883683" lon="12.464015"><ele>779.0</ele><time>2026-04-26T16:48:27.037Z</time></trkpt><trkpt lat="46.4884933" lon="12.46408"><ele>779.0000000000001</ele><time>2026-04-26T16:48:29.039Z</time></trkpt><trkpt lat="46.488575" lon="12.4641117"><ele>779.0</ele><time>2026-04-26T16:48:30.038Z</time></trkpt><trkpt lat="46.4886583" lon="12.4641367"><ele>779.0</ele><time>2026-04-26T16:48:31.04Z</time></trkpt><trkpt lat="46.4887517" lon="12.4641533"><ele>779.0</ele><time>2026-04-26T16:48:32.042Z</time></trkpt><trkpt lat="46.48883" lon="12.4641467"><ele>779.0000000000001</ele><time>2026-04-26T16:48:33.035Z</time></trkpt><trkpt lat="46.4888917" lon="12.4640933"><ele>779.0</ele><time>2026-04-26T16:48:34.039Z</time></trkpt><trkpt lat="46.488935" lon="12.4640217"><ele>780.3333333333334</ele><time>2026-04-26T16:48:35.039Z</time></trkpt><trkpt lat="46.4889733" lon="12.4639467"><ele>781.6666666666667</ele><time>2026-04-26T16:48:36.041Z</time></trkpt><trkpt lat="46.4890067" lon="12.4638567"><ele>783.0</ele><time>2026-04-26T16:48:37.04Z</time></trkpt><trkpt lat="46.489025" lon="12.46375"><ele>784.3333333333333</ele><time>2026-04-26T16:48:38.041Z</time></trkpt><trkpt lat="46.4890083" lon="12.4636367"><ele>785.6666666666666</ele><time>2026-04-26T16:48:39.037Z</time></trkpt><trkpt lat="46.48896" lon="12.4635367"><ele>787.0</ele><time>2026-04-26T16:48:40.039Z</time></trkpt><trkpt lat="46.4888783" lon="12.4634367"><ele>787.0</ele><time>2026-04-26T16:48:41.038Z</time></trkpt><trkpt lat="46.488805" lon="12.4633417"><ele>787.0</ele><time>2026-04-26T16:48:42.037Z</time></trkpt><trkpt lat="46.48874" lon="12.4632367"><ele>787.0</ele><time>2026-04-26T16:48:43.036Z</time></trkpt><trkpt lat="46.4886933" lon="12.4631267"><ele>787.0</ele><time>2026-04-26T16:48:44.04Z</time></trkpt><trkpt lat="46.4886717" lon="12.4630017"><ele>787.0</ele><time>2026-04-26T16:48:45.039Z</time></trkpt><trkpt lat="46.4886683" lon="12.4628717"><ele>787.2</ele><time>2026-04-26T16:48:46.039Z</time></trkpt><trkpt lat="46.4886883" lon="12.4627283"><ele>787.4000000000001</ele><time>2026-04-26T16:48:47.037Z</time></trkpt><trkpt lat="46.4887267" lon="12.4625733"><ele>787.5999999999999</ele><time>2026-04-26T16:48:48.039Z</time></trkpt><trkpt lat="46.488765" lon="12.4624183"><ele>787.8</ele><time>2026-04-26T16:48:49.037Z</time></trkpt><trkpt lat="46.4888033" lon="12.462265"><ele>788.0</ele><time>2026-04-26T16:48:50.042Z</time></trkpt><trkpt lat="46.4888417" lon="12.4621117"><ele>787.4</ele><time>2026-04-26T16:48:51.038Z</time></trkpt><trkpt lat="46.4888733" lon="12.4619633"><ele>786.8</ele><time>2026-04-26T16:48:52.039Z</time></trkpt><trkpt lat="46.4888983" lon="12.46182"><ele>786.2</ele><time>2026-04-26T16:48:53.037Z</time></trkpt><trkpt lat="46.4889267" lon="12.461675"><ele>785.6</ele><time>2026-04-26T16:48:54.04Z</time></trkpt><trkpt lat="46.4889533" lon="12.46153"><ele>785.0</ele><time>2026-04-26T16:48:55.034Z</time></trkpt><trkpt lat="46.4889817" lon="12.4613867"><ele>784.8</ele><time>2026-04-26T16:48:56.041Z</time></trkpt><trkpt lat="46.4890117" lon="12.4612333"><ele>784.6</ele><time>2026-04-26T16:48:57.04Z</time></trkpt><trkpt lat="46.4890417" lon="12.4610867"><ele>784.4000000000001</ele><time>2026-04-26T16:48:58.038Z</time></trkpt><trkpt lat="46.4890733" lon="12.4609367"><ele>784.2</ele><time>2026-04-26T16:48:59.04Z</time></trkpt><trkpt lat="46.4891117" lon="12.46078"><ele>784.0</ele><time>2026-04-26T16:49:00.041Z</time></trkpt><trkpt lat="46.489145" lon="12.4606167"><ele>782.75</ele><time>2026-04-26T16:49:01.037Z</time></trkpt><trkpt lat="46.4891867" lon="12.460435"><ele>781.5</ele><time>2026-04-26T16:49:02.04Z</time></trkpt><trkpt lat="46.4892217" lon="12.460245"><ele>780.25</ele><time>2026-04-26T16:49:03.037Z</time></trkpt><trkpt lat="46.48926" lon="12.4600533"><ele>779.0</ele><time>2026-04-26T16:49:04.039Z</time></trkpt><trkpt lat="46.4892967" lon="12.4598533"><ele>779.0</ele><time>2026-04-26T16:49:05.041Z</time></trkpt><trkpt lat="46.48934" lon="12.4596567"><ele>779.0</ele><time>2026-04-26T16:49:06.042Z</time></trkpt><trkpt lat="46.4893867" lon="12.4594583"><ele>779.0</ele><time>2026-04-26T16:49:07.039Z</time></trkpt><trkpt lat="46.489435" lon="12.459255"><ele>779.0</ele><time>2026-04-26T16:49:08.041Z</time></trkpt><trkpt lat="46.4894817" lon="12.459045"><ele>779.0</ele><time>2026-04-26T16:49:09.037Z</time></trkpt><trkpt lat="46.4895317" lon="12.45884"><ele>779.0</ele><time>2026-04-26T16:49:10.039Z</time></trkpt><trkpt lat="46.4895883" lon="12.458645"><ele>779.0</ele><time>2026-04-26T16:49:11.038Z</time></trkpt><trkpt lat="46.4896467" lon="12.4584483"><ele>779.0</ele><time>2026-04-26T16:49:12.039Z</time></trkpt><trkpt lat="46.4897067" lon="12.45825"><ele>779.0</ele><time>2026-04-26T16:49:13.042Z</time></trkpt><trkpt lat="46.4897633" lon="12.45805"><ele>779.0</ele><time>2026-04-26T16:49:14.043Z</time></trkpt><trkpt lat="46.489825" lon="12.4578533"><ele>779.0</ele><time>2026-04-26T16:49:15.041Z</time></trkpt><trkpt lat="46.4898833" lon="12.457665"><ele>779.0</ele><time>2026-04-26T16:49:16.04Z</time></trkpt><trkpt lat="46.4899417" lon="12.45748"><ele>776.25</ele><time>2026-04-26T16:49:17.038Z</time></trkpt><trkpt lat="46.4899983" lon="12.4573"><ele>773.5</ele><time>2026-04-26T16:49:18.042Z</time></trkpt><trkpt lat="46.4900533" lon="12.45712"><ele>770.75</ele><time>2026-04-26T16:49:19.038Z</time></trkpt><trkpt lat="46.4901083" lon="12.4569433"><ele>768.0</ele><time>2026-04-26T16:49:20.042Z</time></trkpt><trkpt lat="46.4901667" lon="12.45676"><ele>766.25</ele><time>2026-04-26T16:49:21.039Z</time></trkpt><trkpt lat="46.4902233" lon="12.45658"><ele>764.5</ele><time>2026-04-26T16:49:22.039Z</time></trkpt><trkpt lat="46.4902817" lon="12.4564017"><ele>762.75</ele><time>2026-04-26T16:49:23.038Z</time></trkpt><trkpt lat="46.4903383" lon="12.456215"><ele>761.0</ele><time>2026-04-26T16:49:24.043Z</time></trkpt><trkpt lat="46.490395" lon="12.4560267"><ele>762.25</ele><time>2026-04-26T16:49:25.039Z</time></trkpt><trkpt lat="46.49045" lon="12.455855"><ele>763.5</ele><time>2026-04-26T16:49:26.042Z</time></trkpt><trkpt lat="46.4905033" lon="12.4556817"><ele>764.75</ele><time>2026-04-26T16:49:27.04Z</time></trkpt><trkpt lat="46.4905583" lon="12.4555033"><ele>766.0</ele><time>2026-04-26T16:49:28.04Z</time></trkpt><trkpt lat="46.490615" lon="12.455325"><ele>766.0</ele><time>2026-04-26T16:49:29.039Z</time></trkpt><trkpt lat="46.4906883" lon="12.4551517"><ele>766.0</ele><time>2026-04-26T16:49:30.037Z</time></trkpt><trkpt lat="46.49077" lon="12.45498"><ele>766.0</ele><time>2026-04-26T16:49:31.04Z</time></trkpt><trkpt lat="46.49085" lon="12.4548083"><ele>766.0</ele><time>2026-04-26T16:49:32.042Z</time></trkpt><trkpt lat="46.4909267" lon="12.454625"><ele>762.3333333333334</ele><time>2026-04-26T16:49:33.04Z</time></trkpt><trkpt lat="46.4909983" lon="12.454435"><ele>758.6666666666666</ele><time>2026-04-26T16:49:34.042Z</time></trkpt><trkpt lat="46.49107" lon="12.4542433"><ele>755.0</ele><time>2026-04-26T16:49:35.041Z</time></trkpt><trkpt lat="46.4911467" lon="12.4540467"><ele>755.0</ele><time>2026-04-26T16:49:36.04Z</time></trkpt><trkpt lat="46.4912333" lon="12.4538467"><ele>755.0</ele><time>2026-04-26T16:49:37.04Z</time></trkpt><trkpt lat="46.491325" lon="12.453655"><ele>755.0</ele><time>2026-04-26T16:49:38.044Z</time></trkpt><trkpt lat="46.4914217" lon="12.4534733"><ele>757.6666666666666</ele><time>2026-04-26T16:49:39.041Z</time></trkpt><trkpt lat="46.491535" lon="12.4533067"><ele>760.3333333333334</ele><time>2026-04-26T16:49:40.041Z</time></trkpt><trkpt lat="46.49166" lon="12.45316"><ele>763.0</ele><time>2026-04-26T16:49:41.041Z</time></trkpt><trkpt lat="46.4917967" lon="12.45303"><ele>757.3333333333334</ele><time>2026-04-26T16:49:42.041Z</time></trkpt><trkpt lat="46.4919367" lon="12.45293"><ele>751.6666666666666</ele><time>2026-04-26T16:49:43.041Z</time></trkpt><trkpt lat="46.4920767" lon="12.4528633"><ele>746.0</ele><time>2026-04-26T16:49:44.042Z</time></trkpt><trkpt lat="46.492225" lon="12.452825"><ele>746.0</ele><time>2026-04-26T16:49:45.04Z</time></trkpt><trkpt lat="46.4923767" lon="12.4528167"><ele>746.0</ele><time>2026-04-26T16:49:46.04Z</time></trkpt><trkpt lat="46.4925317" lon="12.4528133"><ele>746.0</ele><time>2026-04-26T16:49:47.037Z</time></trkpt><trkpt lat="46.4926817" lon="12.4528017"><ele>746.0</ele><time>2026-04-26T16:49:48.043Z</time></trkpt><trkpt lat="46.4928417" lon="12.4527667"><ele>746.0</ele><time>2026-04-26T16:49:49.041Z</time></trkpt><trkpt lat="46.4929883" lon="12.4527017"><ele>746.0</ele><time>2026-04-26T16:49:50.042Z</time></trkpt><trkpt lat="46.493125" lon="12.4526317"><ele>747.0</ele><time>2026-04-26T16:49:51.04Z</time></trkpt><trkpt lat="46.49326" lon="12.452585"><ele>748.0</ele><time>2026-04-26T16:49:52.041Z</time></trkpt><trkpt lat="46.493405" lon="12.452575"><ele>749.0</ele><time>2026-04-26T16:49:53.039Z</time></trkpt><trkpt lat="46.4935517" lon="12.4525833"><ele>750.0</ele><time>2026-04-26T16:49:54.035Z</time></trkpt><trkpt lat="46.4936983" lon="12.4525817"><ele>748.5</ele><time>2026-04-26T16:49:55.039Z</time></trkpt><trkpt lat="46.49384" lon="12.4525917"><ele>747.0</ele><time>2026-04-26T16:49:56.042Z</time></trkpt><trkpt lat="46.493975" lon="12.4526067"><ele>745.5</ele><time>2026-04-26T16:49:57.042Z</time></trkpt><trkpt lat="46.4940983" lon="12.4526183"><ele>744.0</ele><time>2026-04-26T16:49:58.046Z</time></trkpt><trkpt lat="46.4942117" lon="12.4526217"><ele>744.0</ele><time>2026-04-26T16:49:59.039Z</time></trkpt><trkpt lat="46.4943083" lon="12.4526083"><ele>744.0</ele><time>2026-04-26T16:50:00.041Z</time></trkpt><trkpt lat="46.4943817" lon="12.4525583"><ele>744.0</ele><time>2026-04-26T16:50:01.041Z</time></trkpt><trkpt lat="46.4944483" lon="12.4525"><ele>744.0</ele><time>2026-04-26T16:50:02.046Z</time></trkpt><trkpt lat="46.49449" lon="12.45242"><ele>744.0</ele><time>2026-04-26T16:50:03.04Z</time></trkpt><trkpt lat="46.4944767" lon="12.452245"><ele>744.0</ele><time>2026-04-26T16:50:05.041Z</time></trkpt><trkpt lat="46.494445" lon="12.45216"><ele>744.0</ele><time>2026-04-26T16:50:06.043Z</time></trkpt><trkpt lat="46.4943717" lon="12.4521117"><ele>744.0</ele><time>2026-04-26T16:50:07.04Z</time></trkpt><trkpt lat="46.4942833" lon="12.452095"><ele>744.0</ele><time>2026-04-26T16:50:08.042Z</time></trkpt><trkpt lat="46.4941883" lon="12.45211"><ele>744.0</ele><time>2026-04-26T16:50:09.041Z</time></trkpt><trkpt lat="46.494045" lon="12.4521933"><ele>744.0</ele><time>2026-04-26T16:50:10.039Z</time></trkpt><trkpt lat="46.4938483" lon="12.4523333"><ele>745.5</ele><time>2026-04-26T16:50:11.04Z</time></trkpt><trkpt lat="46.4937233" lon="12.4524067"><ele>747.0</ele><time>2026-04-26T16:50:12.042Z</time></trkpt><trkpt lat="46.49361" lon="12.452445"><ele>748.5</ele><time>2026-04-26T16:50:13.041Z</time></trkpt><trkpt lat="46.493505" lon="12.45246"><ele>750.0</ele><time>2026-04-26T16:50:14.041Z</time></trkpt><trkpt lat="46.4934017" lon="12.4524117"><ele>750.0</ele><time>2026-04-26T16:50:15.042Z</time></trkpt><trkpt lat="46.493315" lon="12.4523283"><ele>750.0</ele><time>2026-04-26T16:50:16.039Z</time></trkpt><trkpt lat="46.4932383" lon="12.4522183"><ele>750.0</ele><time>2026-04-26T16:50:17.041Z</time></trkpt><trkpt lat="46.4931967" lon="12.4520633"><ele>750.0</ele><time>2026-04-26T16:50:18.042Z</time></trkpt><trkpt lat="46.4931517" lon="12.4519067"><ele>750.0</ele><time>2026-04-26T16:50:19.042Z</time></trkpt><trkpt lat="46.4930933" lon="12.4517683"><ele>750.25</ele><time>2026-04-26T16:50:20.04Z</time></trkpt><trkpt lat="46.4930183" lon="12.4516417"><ele>750.5</ele><time>2026-04-26T16:50:21.04Z</time></trkpt><trkpt lat="46.4929217" lon="12.4515467"><ele>750.75</ele><time>2026-04-26T16:50:22.042Z</time></trkpt><trkpt lat="46.4928133" lon="12.4514767"><ele>751.0</ele><time>2026-04-26T16:50:23.041Z</time></trkpt><trkpt lat="46.492695" lon="12.4514283"><ele>749.25</ele><time>2026-04-26T16:50:24.041Z</time></trkpt><trkpt lat="46.4925733" lon="12.4513867"><ele>747.5</ele><time>2026-04-26T16:50:25.041Z</time></trkpt><trkpt lat="46.4924517" lon="12.4513617"><ele>745.75</ele><time>2026-04-26T16:50:26.042Z</time></trkpt><trkpt lat="46.4923333" lon="12.4513517"><ele>744.0</ele><time>2026-04-26T16:50:27.041Z</time></trkpt><trkpt lat="46.4922117" lon="12.451345"><ele>744.0</ele><time>2026-04-26T16:50:28.04Z</time></trkpt><trkpt lat="46.4920917" lon="12.45135"><ele>744.0</ele><time>2026-04-26T16:50:29.041Z</time></trkpt><trkpt lat="46.49197" lon="12.4513567"><ele>744.0</ele><time>2026-04-26T16:50:30.041Z</time></trkpt><trkpt lat="46.4918417" lon="12.451365"><ele>744.0</ele><time>2026-04-26T16:50:31.039Z</time></trkpt><trkpt lat="46.49171" lon="12.4513633"><ele>742.75</ele><time>2026-04-26T16:50:32.044Z</time></trkpt><trkpt lat="46.491585" lon="12.4513617"><ele>741.5</ele><time>2026-04-26T16:50:33.04Z</time></trkpt><trkpt lat="46.4914667" lon="12.4513483"><ele>740.25</ele><time>2026-04-26T16:50:34.04Z</time></trkpt><trkpt lat="46.49135" lon="12.4513333"><ele>739.0</ele><time>2026-04-26T16:50:35.039Z</time></trkpt><trkpt lat="46.4912383" lon="12.45131"><ele>739.0</ele><time>2026-04-26T16:50:36.04Z</time></trkpt><trkpt lat="46.4911233" lon="12.4512983"><ele>739.0</ele><time>2026-04-26T16:50:37.041Z</time></trkpt><trkpt lat="46.4910083" lon="12.4513"><ele>739.0</ele><time>2026-04-26T16:50:38.039Z</time></trkpt><trkpt lat="46.4908967" lon="12.4513167"><ele>739.0</ele><time>2026-04-26T16:50:39.042Z</time></trkpt><trkpt lat="46.4907833" lon="12.4513417"><ele>739.0</ele><time>2026-04-26T16:50:40.038Z</time></trkpt><trkpt lat="46.4906633" lon="12.451375"><ele>739.0</ele><time>2026-04-26T16:50:41.036Z</time></trkpt><trkpt lat="46.4905433" lon="12.4513917"><ele>739.0</ele><time>2026-04-26T16:50:42.042Z</time></trkpt><trkpt lat="46.4904217" lon="12.4513733"><ele>739.0</ele><time>2026-04-26T16:50:43.037Z</time></trkpt><trkpt lat="46.4903" lon="12.4513433"><ele>738.25</ele><time>2026-04-26T16:50:44.04Z</time></trkpt><trkpt lat="46.4901767" lon="12.4513067"><ele>737.5</ele><time>2026-04-26T16:50:45.039Z</time></trkpt><trkpt lat="46.4900567" lon="12.4512733"><ele>736.75</ele><time>2026-04-26T16:50:46.039Z</time></trkpt><trkpt lat="46.4899417" lon="12.4512317"><ele>736.0</ele><time>2026-04-26T16:50:47.034Z</time></trkpt><trkpt lat="46.4898333" lon="12.4511683"><ele>739.5</ele><time>2026-04-26T16:50:48.04Z</time></trkpt><trkpt lat="46.4897267" lon="12.4511"><ele>743.0</ele><time>2026-04-26T16:50:49.039Z</time></trkpt><trkpt lat="46.48962" lon="12.4510233"><ele>746.5</ele><time>2026-04-26T16:50:50.04Z</time></trkpt><trkpt lat="46.4895117" lon="12.4509583"><ele>750.0</ele><time>2026-04-26T16:50:51.04Z</time></trkpt><trkpt lat="46.489405" lon="12.450895"><ele>750.0</ele><time>2026-04-26T16:50:52.035Z</time></trkpt><trkpt lat="46.4892967" lon="12.4508367"><ele>750.0</ele><time>2026-04-26T16:50:53.038Z</time></trkpt><trkpt lat="46.4891833" lon="12.4507917"><ele>750.0</ele><time>2026-04-26T16:50:54.043Z</time></trkpt><trkpt lat="46.489065" lon="12.4507567"><ele>750.0</ele><time>2026-04-26T16:50:55.039Z</time></trkpt><trkpt lat="46.4889433" lon="12.4507317"><ele>750.0</ele><time>2026-04-26T16:50:56.039Z</time></trkpt><trkpt lat="46.488825" lon="12.4507233"><ele>750.0</ele><time>2026-04-26T16:50:57.039Z</time></trkpt><trkpt lat="46.488705" lon="12.4507183"><ele>750.0</ele><time>2026-04-26T16:50:58.039Z</time></trkpt><trkpt lat="46.48859" lon="12.4507083"><ele>750.0</ele><time>2026-04-26T16:50:59.037Z</time></trkpt><trkpt lat="46.4884683" lon="12.4507033"><ele>750.0</ele><time>2026-04-26T16:51:00.039Z</time></trkpt><trkpt lat="46.4883483" lon="12.4506983"><ele>750.0</ele><time>2026-04-26T16:51:01.04Z</time></trkpt><trkpt lat="46.4882317" lon="12.4506917"><ele>750.0</ele><time>2026-04-26T16:51:02.041Z</time></trkpt><trkpt lat="46.4881283" lon="12.450655"><ele>750.0</ele><time>2026-04-26T16:51:03.04Z</time></trkpt><trkpt lat="46.488045" lon="12.4505983"><ele>750.0</ele><time>2026-04-26T16:51:04.037Z</time></trkpt><trkpt lat="46.4879733" lon="12.4505367"><ele>750.8</ele><time>2026-04-26T16:51:05.039Z</time></trkpt><trkpt lat="46.4878967" lon="12.4505"><ele>751.6</ele><time>2026-04-26T16:51:06.042Z</time></trkpt><trkpt lat="46.4878067" lon="12.4504833"><ele>752.4000000000001</ele><time>2026-04-26T16:51:07.041Z</time></trkpt><trkpt lat="46.4877017" lon="12.450485"><ele>753.2</ele><time>2026-04-26T16:51:08.04Z</time></trkpt><trkpt lat="46.4876" lon="12.4504467"><ele>754.0</ele><time>2026-04-26T16:51:09.038Z</time></trkpt><trkpt lat="46.4875017" lon="12.4503667"><ele>754.0</ele><time>2026-04-26T16:51:10.037Z</time></trkpt><trkpt lat="46.4874167" lon="12.450255"><ele>754.0</ele><time>2026-04-26T16:51:11.04Z</time></trkpt><trkpt lat="46.4873333" lon="12.4501267"><ele>754.0</ele><time>2026-04-26T16:51:12.039Z</time></trkpt><trkpt lat="46.4872467" lon="12.44999"><ele>754.0</ele><time>2026-04-26T16:51:13.038Z</time></trkpt><trkpt lat="46.487155" lon="12.449865"><ele>752.75</ele><time>2026-04-26T16:51:14.04Z</time></trkpt><trkpt lat="46.4870633" lon="12.44974"><ele>751.5</ele><time>2026-04-26T16:51:15.041Z</time></trkpt><trkpt lat="46.4869667" lon="12.4496217"><ele>750.25</ele><time>2026-04-26T16:51:16.04Z</time></trkpt><trkpt lat="46.48687" lon="12.4495017"><ele>749.0</ele><time>2026-04-26T16:51:17.036Z</time></trkpt><trkpt lat="46.4867717" lon="12.4493717"><ele>749.0</ele><time>2026-04-26T16:51:18.039Z</time></trkpt><trkpt lat="46.4866817" lon="12.4492367"><ele>749.0</ele><time>2026-04-26T16:51:19.035Z</time></trkpt><trkpt lat="46.4865967" lon="12.449105"><ele>749.0</ele><time>2026-04-26T16:51:20.039Z</time></trkpt><trkpt lat="46.4865167" lon="12.448975"><ele>749.0</ele><time>2026-04-26T16:51:21.039Z</time></trkpt><trkpt lat="46.48645" lon="12.4488317"><ele>750.25</ele><time>2026-04-26T16:51:22.039Z</time></trkpt><trkpt lat="46.4863983" lon="12.4486817"><ele>751.5</ele><time>2026-04-26T16:51:23.039Z</time></trkpt><trkpt lat="46.48635" lon="12.4485317"><ele>752.75</ele><time>2026-04-26T16:51:24.04Z</time></trkpt><trkpt lat="46.4862983" lon="12.44838"><ele>754.0</ele><time>2026-04-26T16:51:25.038Z</time></trkpt><trkpt lat="46.48624" lon="12.44824"><ele>752.5</ele><time>2026-04-26T16:51:26.04Z</time></trkpt><trkpt lat="46.48617" lon="12.448115"><ele>751.0</ele><time>2026-04-26T16:51:27.039Z</time></trkpt><trkpt lat="46.4860833" lon="12.4480217"><ele>749.5</ele><time>2026-04-26T16:51:28.039Z</time></trkpt><trkpt lat="46.4859817" lon="12.4479433"><ele>748.0</ele><time>2026-04-26T16:51:29.037Z</time></trkpt><trkpt lat="46.485875" lon="12.4478633"><ele>748.0</ele><time>2026-04-26T16:51:30.039Z</time></trkpt><trkpt lat="46.48577" lon="12.4477833"><ele>748.0</ele><time>2026-04-26T16:51:31.041Z</time></trkpt><trkpt lat="46.4856783" lon="12.4476767"><ele>748.0</ele><time>2026-04-26T16:51:32.041Z</time></trkpt><trkpt lat="46.4856" lon="12.447545"><ele>748.0</ele><time>2026-04-26T16:51:33.039Z</time></trkpt><trkpt lat="46.4855317" lon="12.4473967"><ele>748.0</ele><time>2026-04-26T16:51:34.039Z</time></trkpt><trkpt lat="46.4854767" lon="12.4472383"><ele>748.0</ele><time>2026-04-26T16:51:35.039Z</time></trkpt><trkpt lat="46.48542" lon="12.4470767"><ele>748.0</ele><time>2026-04-26T16:51:36.04Z</time></trkpt><trkpt lat="46.485365" lon="12.4469167"><ele>748.0</ele><time>2026-04-26T16:51:37.039Z</time></trkpt><trkpt lat="46.48531" lon="12.4467583"><ele>747.75</ele><time>2026-04-26T16:51:38.039Z</time></trkpt><trkpt lat="46.4852617" lon="12.4465983"><ele>747.5</ele><time>2026-04-26T16:51:39.037Z</time></trkpt><trkpt lat="46.4852117" lon="12.4464417"><ele>747.25</ele><time>2026-04-26T16:51:40.04Z</time></trkpt><trkpt lat="46.4851583" lon="12.446285"><ele>747.0</ele><time>2026-04-26T16:51:41.039Z</time></trkpt><trkpt lat="46.4851033" lon="12.4461283"><ele>748.25</ele><time>2026-04-26T16:51:42.043Z</time></trkpt><trkpt lat="46.48505" lon="12.4459767"><ele>749.5</ele><time>2026-04-26T16:51:43.041Z</time></trkpt><trkpt lat="46.484995" lon="12.4458333"><ele>750.75</ele><time>2026-04-26T16:51:44.042Z</time></trkpt><trkpt lat="46.4849417" lon="12.4456867"><ele>752.0</ele><time>2026-04-26T16:51:45.039Z</time></trkpt><trkpt lat="46.484885" lon="12.44554"><ele>753.5</ele><time>2026-04-26T16:51:46.037Z</time></trkpt><trkpt lat="46.484825" lon="12.445395"><ele>755.0</ele><time>2026-04-26T16:51:47.039Z</time></trkpt><trkpt lat="46.4847617" lon="12.4452467"><ele>756.5</ele><time>2026-04-26T16:51:48.039Z</time></trkpt><trkpt lat="46.4846917" lon="12.4451017"><ele>758.0</ele><time>2026-04-26T16:51:49.038Z</time></trkpt><trkpt lat="46.4846217" lon="12.44495"><ele>757.0</ele><time>2026-04-26T16:51:50.042Z</time></trkpt><trkpt lat="46.4845483" lon="12.444795"><ele>756.0</ele><time>2026-04-26T16:51:51.039Z</time></trkpt><trkpt lat="46.48448" lon="12.44464"><ele>755.0</ele><time>2026-04-26T16:51:52.037Z</time></trkpt><trkpt lat="46.484425" lon="12.4444783"><ele>754.0</ele><time>2026-04-26T16:51:53.036Z</time></trkpt><trkpt lat="46.4843767" lon="12.444315"><ele>754.0</ele><time>2026-04-26T16:51:54.039Z</time></trkpt><trkpt lat="46.4843433" lon="12.4441517"><ele>754.0</ele><time>2026-04-26T16:51:55.038Z</time></trkpt><trkpt lat="46.48432" lon="12.4439917"><ele>754.0</ele><time>2026-04-26T16:51:56.041Z</time></trkpt><trkpt lat="46.4842817" lon="12.4438533"><ele>754.0</ele><time>2026-04-26T16:51:57.04Z</time></trkpt><trkpt lat="46.48429" lon="12.443675"><ele>754.25</ele><time>2026-04-26T16:51:58.038Z</time></trkpt><trkpt lat="46.4843117" lon="12.4434883"><ele>754.5</ele><time>2026-04-26T16:51:59.039Z</time></trkpt><trkpt lat="46.48434" lon="12.443305"><ele>754.75</ele><time>2026-04-26T16:52:00.04Z</time></trkpt><trkpt lat="46.484375" lon="12.44312"><ele>755.0</ele><time>2026-04-26T16:52:01.039Z</time></trkpt><trkpt lat="46.4844167" lon="12.4429217"><ele>755.0</ele><time>2026-04-26T16:52:02.041Z</time></trkpt><trkpt lat="46.484455" lon="12.442735"><ele>755.0</ele><time>2026-04-26T16:52:03.04Z</time></trkpt><trkpt lat="46.4844967" lon="12.4425533"><ele>755.0</ele><time>2026-04-26T16:52:04.038Z</time></trkpt><trkpt lat="46.4845333" lon="12.4423783"><ele>755.0</ele><time>2026-04-26T16:52:05.035Z</time></trkpt><trkpt lat="46.4845683" lon="12.44221"><ele>756.6</ele><time>2026-04-26T16:52:06.042Z</time></trkpt><trkpt lat="46.4846" lon="12.442045"><ele>758.2</ele><time>2026-04-26T16:52:07.038Z</time></trkpt><trkpt lat="46.4846317" lon="12.4418933"><ele>759.8</ele><time>2026-04-26T16:52:08.039Z</time></trkpt><trkpt lat="46.48466" lon="12.441755"><ele>761.4</ele><time>2026-04-26T16:52:09.04Z</time></trkpt><trkpt lat="46.48466" lon="12.441625"><ele>763.0</ele><time>2026-04-26T16:52:10.038Z</time></trkpt><trkpt lat="46.4846517" lon="12.4415117"><ele>763.0</ele><time>2026-04-26T16:52:11.039Z</time></trkpt><trkpt lat="46.48463" lon="12.44141"><ele>763.0</ele><time>2026-04-26T16:52:12.041Z</time></trkpt><trkpt lat="46.4846067" lon="12.4413217"><ele>763.0</ele><time>2026-04-26T16:52:13.039Z</time></trkpt><trkpt lat="46.4845567" lon="12.44118"><ele>763.0</ele><time>2026-04-26T16:52:15.04Z</time></trkpt><trkpt lat="46.48451" lon="12.4410633"><ele>763.0</ele><time>2026-04-26T16:52:17.04Z</time></trkpt><trkpt lat="46.4844517" lon="12.4409317"><ele>763.0</ele><time>2026-04-26T16:52:19.038Z</time></trkpt><trkpt lat="46.4844083" lon="12.44086"><ele>760.4</ele><time>2026-04-26T16:52:20.039Z</time></trkpt><trkpt lat="46.4843533" lon="12.440785"><ele>757.8</ele><time>2026-04-26T16:52:21.039Z</time></trkpt><trkpt lat="46.4842717" lon="12.44072"><ele>755.2</ele><time>2026-04-26T16:52:22.036Z</time></trkpt><trkpt lat="46.4841767" lon="12.4406817"><ele>752.6</ele><time>2026-04-26T16:52:23.039Z</time></trkpt><trkpt lat="46.48407" lon="12.4406617"><ele>750.0</ele><time>2026-04-26T16:52:24.04Z</time></trkpt><trkpt lat="46.483955" lon="12.440655"><ele>750.0</ele><time>2026-04-26T16:52:25.039Z</time></trkpt><trkpt lat="46.4838383" lon="12.4406683"><ele>750.0</ele><time>2026-04-26T16:52:26.039Z</time></trkpt><trkpt lat="46.4837317" lon="12.4406917"><ele>750.0</ele><time>2026-04-26T16:52:27.04Z</time></trkpt><trkpt lat="46.4836183" lon="12.44073"><ele>750.0</ele><time>2026-04-26T16:52:28.038Z</time></trkpt><trkpt lat="46.4835017" lon="12.44076"><ele>753.75</ele><time>2026-04-26T16:52:29.04Z</time></trkpt><trkpt lat="46.4833817" lon="12.4407917"><ele>757.5</ele><time>2026-04-26T16:52:30.041Z</time></trkpt><trkpt lat="46.4832583" lon="12.4408167"><ele>761.25</ele><time>2026-04-26T16:52:31.042Z</time></trkpt><trkpt lat="46.4831333" lon="12.44084"><ele>765.0</ele><time>2026-04-26T16:52:32.041Z</time></trkpt><trkpt lat="46.4830067" lon="12.44087"><ele>767.75</ele><time>2026-04-26T16:52:33.039Z</time></trkpt><trkpt lat="46.4828783" lon="12.4409"><ele>770.5</ele><time>2026-04-26T16:52:34.041Z</time></trkpt><trkpt lat="46.482755" lon="12.4409417"><ele>773.25</ele><time>2026-04-26T16:52:35.04Z</time></trkpt><trkpt lat="46.482635" lon="12.440985"><ele>776.0</ele><time>2026-04-26T16:52:36.042Z</time></trkpt><trkpt lat="46.4825183" lon="12.4410333"><ele>776.0</ele><time>2026-04-26T16:52:37.04Z</time></trkpt><trkpt lat="46.4824017" lon="12.441085"><ele>776.0</ele><time>2026-04-26T16:52:38.041Z</time></trkpt><trkpt lat="46.482285" lon="12.4411333"><ele>776.0</ele><time>2026-04-26T16:52:39.04Z</time></trkpt><trkpt lat="46.4821617" lon="12.4411333"><ele>776.0</ele><time>2026-04-26T16:52:40.042Z</time></trkpt><trkpt lat="46.4820417" lon="12.4410983"><ele>772.5</ele><time>2026-04-26T16:52:41.041Z</time></trkpt><trkpt lat="46.4819267" lon="12.4410167"><ele>769.0</ele><time>2026-04-26T16:52:42.037Z</time></trkpt><trkpt lat="46.4818217" lon="12.4409017"><ele>765.5</ele><time>2026-04-26T16:52:43.038Z</time></trkpt><trkpt lat="46.4817267" lon="12.4407833"><ele>762.0</ele><time>2026-04-26T16:52:44.039Z</time></trkpt><trkpt lat="46.481625" lon="12.44069"><ele>762.0</ele><time>2026-04-26T16:52:45.039Z</time></trkpt><trkpt lat="46.48152" lon="12.4405933"><ele>762.0</ele><time>2026-04-26T16:52:46.037Z</time></trkpt><trkpt lat="46.4814083" lon="12.4405"><ele>762.0</ele><time>2026-04-26T16:52:47.035Z</time></trkpt><trkpt lat="46.4812933" lon="12.4404267"><ele>762.0</ele><time>2026-04-26T16:52:48.04Z</time></trkpt><trkpt lat="46.4811767" lon="12.4403683"><ele>767.25</ele><time>2026-04-26T16:52:49.037Z</time></trkpt><trkpt lat="46.4810617" lon="12.4403133"><ele>772.5</ele><time>2026-04-26T16:52:50.04Z</time></trkpt><trkpt lat="46.480945" lon="12.4402567"><ele>777.75</ele><time>2026-04-26T16:52:51.047Z</time></trkpt><trkpt lat="46.480825" lon="12.4402083"><ele>783.0</ele><time>2026-04-26T16:52:52.04Z</time></trkpt><trkpt lat="46.4807" lon="12.4401717"><ele>783.0</ele><time>2026-04-26T16:52:53.039Z</time></trkpt><trkpt lat="46.4805767" lon="12.44013"><ele>783.0</ele><time>2026-04-26T16:52:54.04Z</time></trkpt><trkpt lat="46.4804483" lon="12.4400933"><ele>783.0</ele><time>2026-04-26T16:52:55.038Z</time></trkpt><trkpt lat="46.4803217" lon="12.4400667"><ele>783.0</ele><time>2026-04-26T16:52:56.043Z</time></trkpt><trkpt lat="46.4802067" lon="12.44002"><ele>779.5</ele><time>2026-04-26T16:52:57.036Z</time></trkpt><trkpt lat="46.4800883" lon="12.4399833"><ele>776.0</ele><time>2026-04-26T16:52:58.036Z</time></trkpt><trkpt lat="46.4799717" lon="12.4399417"><ele>772.5</ele><time>2026-04-26T16:52:59.04Z</time></trkpt><trkpt lat="46.4798583" lon="12.439905"><ele>769.0</ele><time>2026-04-26T16:53:00.039Z</time></trkpt><trkpt lat="46.47974" lon="12.4398733"><ele>769.0</ele><time>2026-04-26T16:53:01.037Z</time></trkpt><trkpt lat="46.47962" lon="12.4398333"><ele>769.0</ele><time>2026-04-26T16:53:02.041Z</time></trkpt><trkpt lat="46.4795033" lon="12.4397883"><ele>769.0</ele><time>2026-04-26T16:53:03.042Z</time></trkpt><trkpt lat="46.4793867" lon="12.4397317"><ele>769.0</ele><time>2026-04-26T16:53:04.042Z</time></trkpt><trkpt lat="46.4792633" lon="12.4396867"><ele>769.25</ele><time>2026-04-26T16:53:05.035Z</time></trkpt><trkpt lat="46.4791417" lon="12.4396417"><ele>769.5</ele><time>2026-04-26T16:53:06.039Z</time></trkpt><trkpt lat="46.479025" lon="12.439585"><ele>769.75</ele><time>2026-04-26T16:53:07.039Z</time></trkpt><trkpt lat="46.4789117" lon="12.43953"><ele>770.0</ele><time>2026-04-26T16:53:08.042Z</time></trkpt><trkpt lat="46.4787983" lon="12.43947"><ele>772.25</ele><time>2026-04-26T16:53:09.039Z</time></trkpt><trkpt lat="46.4786867" lon="12.4394"><ele>774.5</ele><time>2026-04-26T16:53:10.037Z</time></trkpt><trkpt lat="46.4785867" lon="12.439305"><ele>776.75</ele><time>2026-04-26T16:53:11.036Z</time></trkpt><trkpt lat="46.4784883" lon="12.4392"><ele>779.0</ele><time>2026-04-26T16:53:12.04Z</time></trkpt><trkpt lat="46.4784" lon="12.439085"><ele>779.0</ele><time>2026-04-26T16:53:13.038Z</time></trkpt><trkpt lat="46.478325" lon="12.4389583"><ele>779.0</ele><time>2026-04-26T16:53:14.039Z</time></trkpt><trkpt lat="46.4782517" lon="12.4388217"><ele>779.0</ele><time>2026-04-26T16:53:15.039Z</time></trkpt><trkpt lat="46.47818" lon="12.4386883"><ele>779.0</ele><time>2026-04-26T16:53:16.04Z</time></trkpt><trkpt lat="46.478105" lon="12.43856"><ele>780.0</ele><time>2026-04-26T16:53:17.029Z</time></trkpt><trkpt lat="46.47803" lon="12.438435"><ele>781.0</ele><time>2026-04-26T16:53:18.04Z</time></trkpt><trkpt lat="46.4779617" lon="12.438305"><ele>782.0</ele><time>2026-04-26T16:53:19.04Z</time></trkpt><trkpt lat="46.4778933" lon="12.4381767"><ele>783.0</ele><time>2026-04-26T16:53:20.04Z</time></trkpt><trkpt lat="46.4778183" lon="12.4380533"><ele>785.5</ele><time>2026-04-26T16:53:21.038Z</time></trkpt><trkpt lat="46.4777417" lon="12.4379367"><ele>788.0</ele><time>2026-04-26T16:53:22.035Z</time></trkpt><trkpt lat="46.4776583" lon="12.4378183"><ele>790.5</ele><time>2026-04-26T16:53:23.036Z</time></trkpt><trkpt lat="46.4775717" lon="12.437705"><ele>793.0</ele><time>2026-04-26T16:53:24.04Z</time></trkpt><trkpt lat="46.47748" lon="12.4375917"><ele>793.0</ele><time>2026-04-26T16:53:25.038Z</time></trkpt><trkpt lat="46.4773817" lon="12.4374867"><ele>793.0</ele><time>2026-04-26T16:53:26.041Z</time></trkpt><trkpt lat="46.4772767" lon="12.4373883"><ele>793.0</ele><time>2026-04-26T16:53:27.039Z</time></trkpt><trkpt lat="46.47717" lon="12.4372883"><ele>793.0</ele><time>2026-04-26T16:53:28.039Z</time></trkpt><trkpt lat="46.47707" lon="12.4371883"><ele>793.0</ele><time>2026-04-26T16:53:29.039Z</time></trkpt><trkpt lat="46.47697" lon="12.4370817"><ele>793.0</ele><time>2026-04-26T16:53:30.041Z</time></trkpt><trkpt lat="46.4768683" lon="12.4369917"><ele>793.0</ele><time>2026-04-26T16:53:31.039Z</time></trkpt><trkpt lat="46.47677" lon="12.4368917"><ele>793.0</ele><time>2026-04-26T16:53:32.042Z</time></trkpt><trkpt lat="46.4766633" lon="12.4368"><ele>793.0</ele><time>2026-04-26T16:53:33.039Z</time></trkpt><trkpt lat="46.4765583" lon="12.43671"><ele>793.0</ele><time>2026-04-26T16:53:34.039Z</time></trkpt><trkpt lat="46.47645" lon="12.43663"><ele>793.0</ele><time>2026-04-26T16:53:35.039Z</time></trkpt><trkpt lat="46.4763433" lon="12.4365433"><ele>793.0</ele><time>2026-04-26T16:53:36.039Z</time></trkpt><trkpt lat="46.4762367" lon="12.436455"><ele>793.0</ele><time>2026-04-26T16:53:37.038Z</time></trkpt><trkpt lat="46.4761317" lon="12.4363567"><ele>793.0</ele><time>2026-04-26T16:53:38.04Z</time></trkpt><trkpt lat="46.4760283" lon="12.4362583"><ele>793.0</ele><time>2026-04-26T16:53:39.038Z</time></trkpt><trkpt lat="46.475925" lon="12.4361533"><ele>793.0</ele><time>2026-04-26T16:53:40.037Z</time></trkpt><trkpt lat="46.475825" lon="12.43605"><ele>793.75</ele><time>2026-04-26T16:53:41.04Z</time></trkpt><trkpt lat="46.4757367" lon="12.4359383"><ele>794.5</ele><time>2026-04-26T16:53:42.039Z</time></trkpt><trkpt lat="46.4756617" lon="12.435815"><ele>795.25</ele><time>2026-04-26T16:53:43.036Z</time></trkpt><trkpt lat="46.47559" lon="12.435685"><ele>796.0</ele><time>2026-04-26T16:53:44.04Z</time></trkpt><trkpt lat="46.4755233" lon="12.4355583"><ele>795.0</ele><time>2026-04-26T16:53:45.04Z</time></trkpt><trkpt lat="46.47546" lon="12.4354333"><ele>794.0</ele><time>2026-04-26T16:53:46.038Z</time></trkpt><trkpt lat="46.4754033" lon="12.435305"><ele>793.0</ele><time>2026-04-26T16:53:47.036Z</time></trkpt><trkpt lat="46.4753467" lon="12.4351767"><ele>792.0</ele><time>2026-04-26T16:53:48.04Z</time></trkpt><trkpt lat="46.4752917" lon="12.435055"><ele>791.0</ele><time>2026-04-26T16:53:49.038Z</time></trkpt><trkpt lat="46.47524" lon="12.4349383"><ele>791.0</ele><time>2026-04-26T16:53:50.04Z</time></trkpt><trkpt lat="46.4751983" lon="12.4348067"><ele>791.0</ele><time>2026-04-26T16:53:51.037Z</time></trkpt><trkpt lat="46.47516" lon="12.4346733"><ele>791.0</ele><time>2026-04-26T16:53:52.036Z</time></trkpt><trkpt lat="46.47512" lon="12.4345433"><ele>791.0</ele><time>2026-04-26T16:53:53.037Z</time></trkpt><trkpt lat="46.47508" lon="12.43441"><ele>791.0</ele><time>2026-04-26T16:53:54.04Z</time></trkpt><trkpt lat="46.4750333" lon="12.4342867"><ele>792.4</ele><time>2026-04-26T16:53:55.039Z</time></trkpt><trkpt lat="46.4749817" lon="12.4341683"><ele>793.8</ele><time>2026-04-26T16:53:56.039Z</time></trkpt><trkpt lat="46.47493" lon="12.4340533"><ele>795.1999999999999</ele><time>2026-04-26T16:53:57.039Z</time></trkpt><trkpt lat="46.4748817" lon="12.4339283"><ele>796.5999999999999</ele><time>2026-04-26T16:53:58.039Z</time></trkpt><trkpt lat="46.474815" lon="12.4338083"><ele>798.0</ele><time>2026-04-26T16:53:59.038Z</time></trkpt><trkpt lat="46.4747467" lon="12.43369"><ele>798.4</ele><time>2026-04-26T16:54:00.036Z</time></trkpt><trkpt lat="46.47468" lon="12.4335733"><ele>798.8</ele><time>2026-04-26T16:54:01.034Z</time></trkpt><trkpt lat="46.4746067" lon="12.433465"><ele>799.2</ele><time>2026-04-26T16:54:02.039Z</time></trkpt><trkpt lat="46.4745333" lon="12.4333567"><ele>799.6</ele><time>2026-04-26T16:54:03.038Z</time></trkpt><trkpt lat="46.4744517" lon="12.4332567"><ele>800.0</ele><time>2026-04-26T16:54:04.036Z</time></trkpt><trkpt lat="46.4743667" lon="12.43316"><ele>800.0</ele><time>2026-04-26T16:54:05.039Z</time></trkpt><trkpt lat="46.4742817" lon="12.43306"><ele>800.0</ele><time>2026-04-26T16:54:06.04Z</time></trkpt><trkpt lat="46.474195" lon="12.43295"><ele>800.0</ele><time>2026-04-26T16:54:07.038Z</time></trkpt><trkpt lat="46.4741167" lon="12.432825"><ele>800.0</ele><time>2026-04-26T16:54:08.041Z</time></trkpt><trkpt lat="46.474035" lon="12.4326917"><ele>801.0</ele><time>2026-04-26T16:54:09.037Z</time></trkpt><trkpt lat="46.4739533" lon="12.4325483"><ele>802.0</ele><time>2026-04-26T16:54:10.038Z</time></trkpt><trkpt lat="46.4738683" lon="12.4324067"><ele>803.0</ele><time>2026-04-26T16:54:11.039Z</time></trkpt><trkpt lat="46.4737817" lon="12.43227"><ele>804.0</ele><time>2026-04-26T16:54:12.039Z</time></trkpt><trkpt lat="46.4736933" lon="12.432135"><ele>804.0</ele><time>2026-04-26T16:54:13.036Z</time></trkpt><trkpt lat="46.4736" lon="12.4320067"><ele>804.0</ele><time>2026-04-26T16:54:14.042Z</time></trkpt><trkpt lat="46.4735117" lon="12.4318817"><ele>804.0</ele><time>2026-04-26T16:54:15.039Z</time></trkpt><trkpt lat="46.4734267" lon="12.4317567"><ele>804.0</ele><time>2026-04-26T16:54:16.044Z</time></trkpt><trkpt lat="46.4733317" lon="12.4316267"><ele>804.0</ele><time>2026-04-26T16:54:17.039Z</time></trkpt><trkpt lat="46.4732483" lon="12.4314867"><ele>804.0</ele><time>2026-04-26T16:54:18.039Z</time></trkpt><trkpt lat="46.4731817" lon="12.4313433"><ele>804.0</ele><time>2026-04-26T16:54:19.037Z</time></trkpt><trkpt lat="46.47313" lon="12.431195"><ele>804.0</ele><time>2026-04-26T16:54:20.042Z</time></trkpt><trkpt lat="46.47309" lon="12.4310283"><ele>802.75</ele><time>2026-04-26T16:54:21.039Z</time></trkpt><trkpt lat="46.4730467" lon="12.4308567"><ele>801.5</ele><time>2026-04-26T16:54:22.035Z</time></trkpt><trkpt lat="46.472995" lon="12.4306983"><ele>800.25</ele><time>2026-04-26T16:54:23.039Z</time></trkpt><trkpt lat="46.4729333" lon="12.430545"><ele>799.0</ele><time>2026-04-26T16:54:24.037Z</time></trkpt><trkpt lat="46.472875" lon="12.430395"><ele>802.25</ele><time>2026-04-26T16:54:25.035Z</time></trkpt><trkpt lat="46.472815" lon="12.4302467"><ele>805.5</ele><time>2026-04-26T16:54:26.04Z</time></trkpt><trkpt lat="46.4727567" lon="12.4300933"><ele>808.75</ele><time>2026-04-26T16:54:27.039Z</time></trkpt><trkpt lat="46.4727033" lon="12.4299367"><ele>812.0</ele><time>2026-04-26T16:54:28.039Z</time></trkpt><trkpt lat="46.4726433" lon="12.4297933"><ele>812.0</ele><time>2026-04-26T16:54:29.04Z</time></trkpt><trkpt lat="46.4725833" lon="12.4296533"><ele>812.0</ele><time>2026-04-26T16:54:30.04Z</time></trkpt><trkpt lat="46.472525" lon="12.4295033"><ele>812.0</ele><time>2026-04-26T16:54:31.039Z</time></trkpt><trkpt lat="46.4724617" lon="12.4293617"><ele>812.0</ele><time>2026-04-26T16:54:32.04Z</time></trkpt><trkpt lat="46.472405" lon="12.4292217"><ele>814.8</ele><time>2026-04-26T16:54:33.04Z</time></trkpt><trkpt lat="46.4723617" lon="12.4290617"><ele>817.6</ele><time>2026-04-26T16:54:34.035Z</time></trkpt><trkpt lat="46.472325" lon="12.4289167"><ele>820.4</ele><time>2026-04-26T16:54:35.038Z</time></trkpt><trkpt lat="46.4723017" lon="12.4287533"><ele>823.1999999999999</ele><time>2026-04-26T16:54:36.039Z</time></trkpt><trkpt lat="46.4722917" lon="12.4286017"><ele>826.0</ele><time>2026-04-26T16:54:37.037Z</time></trkpt><trkpt lat="46.4722767" lon="12.4284583"><ele>828.5999999999999</ele><time>2026-04-26T16:54:38.042Z</time></trkpt><trkpt lat="46.4722667" lon="12.4283217"><ele>831.2</ele><time>2026-04-26T16:54:39.04Z</time></trkpt><trkpt lat="46.4722683" lon="12.42819"><ele>833.8</ele><time>2026-04-26T16:54:40.039Z</time></trkpt><trkpt lat="46.47227" lon="12.4280833"><ele>836.4000000000001</ele><time>2026-04-26T16:54:41.04Z</time></trkpt><trkpt lat="46.4722783" lon="12.4279167"><ele>839.0</ele><time>2026-04-26T16:54:43.041Z</time></trkpt><trkpt lat="46.4722583" lon="12.4278017"><ele>839.75</ele><time>2026-04-26T16:54:45.038Z</time></trkpt><trkpt lat="46.4722017" lon="12.42773"><ele>840.5</ele><time>2026-04-26T16:54:47.04Z</time></trkpt><trkpt lat="46.4721233" lon="12.4276633"><ele>841.25</ele><time>2026-04-26T16:54:49.038Z</time></trkpt><trkpt lat="46.4720533" lon="12.427655"><ele>842.0</ele><time>2026-04-26T16:54:50.039Z</time></trkpt><trkpt lat="46.4717017" lon="12.42769"><ele>839.5</ele><time>2026-04-26T16:54:52.801Z</time></trkpt><trkpt lat="46.4716383" lon="12.4279817"><ele>837.0</ele><time>2026-04-26T16:54:55.036Z</time></trkpt><trkpt lat="46.47158" lon="12.4280533"><ele>834.5</ele><time>2026-04-26T16:54:56.038Z</time></trkpt><trkpt lat="46.4715417" lon="12.4281433"><ele>832.0</ele><time>2026-04-26T16:54:57.038Z</time></trkpt><trkpt lat="46.471455" lon="12.428305"><ele>832.0</ele><time>2026-04-26T16:54:59.037Z</time></trkpt><trkpt lat="46.47141" lon="12.4283767"><ele>832.0</ele><time>2026-04-26T16:55:00.036Z</time></trkpt><trkpt lat="46.4713583" lon="12.4284483"><ele>832.0</ele><time>2026-04-26T16:55:01.039Z</time></trkpt><trkpt lat="46.4713017" lon="12.4285117"><ele>832.0</ele><time>2026-04-26T16:55:02.038Z</time></trkpt><trkpt lat="46.4711767" lon="12.4286383"><ele>832.0</ele><time>2026-04-26T16:55:04.038Z</time></trkpt><trkpt lat="46.471085" lon="12.428725"><ele>831.8333333333333</ele><time>2026-04-26T16:55:05.038Z</time></trkpt><trkpt lat="46.4709867" lon="12.42877"><ele>831.6666666666666</ele><time>2026-04-26T16:55:06.038Z</time></trkpt><trkpt lat="46.4709133" lon="12.4288133"><ele>831.5</ele><time>2026-04-26T16:55:07.038Z</time></trkpt><trkpt lat="46.47085" lon="12.4288367"><ele>831.3333333333333</ele><time>2026-04-26T16:55:08.038Z</time></trkpt><trkpt lat="46.4707833" lon="12.4288833"><ele>831.1666666666666</ele><time>2026-04-26T16:55:09.038Z</time></trkpt><trkpt lat="46.4706883" lon="12.4288783"><ele>831.0</ele><time>2026-04-26T16:55:11.037Z</time></trkpt><trkpt lat="46.4706017" lon="12.4287817"><ele>831.5</ele><time>2026-04-26T16:55:13.039Z</time></trkpt><trkpt lat="46.470545" lon="12.4287133"><ele>832.0</ele><time>2026-04-26T16:55:14.036Z</time></trkpt><trkpt lat="46.470475" lon="12.428645"><ele>832.5</ele><time>2026-04-26T16:55:15.04Z</time></trkpt><trkpt lat="46.4704017" lon="12.4285817"><ele>833.0</ele><time>2026-04-26T16:55:16.039Z</time></trkpt><trkpt lat="46.47032" lon="12.42853"><ele>833.5</ele><time>2026-04-26T16:55:17.038Z</time></trkpt><trkpt lat="46.4702333" lon="12.4284867"><ele>834.0</ele><time>2026-04-26T16:55:18.038Z</time></trkpt><trkpt lat="46.470145" lon="12.4284483"><ele>832.2</ele><time>2026-04-26T16:55:19.04Z</time></trkpt><trkpt lat="46.47006" lon="12.4284067"><ele>830.4000000000001</ele><time>2026-04-26T16:55:20.04Z</time></trkpt><trkpt lat="46.469985" lon="12.4283483"><ele>828.6</ele><time>2026-04-26T16:55:21.036Z</time></trkpt><trkpt lat="46.4699" lon="12.4282867"><ele>826.8</ele><time>2026-04-26T16:55:22.038Z</time></trkpt><trkpt lat="46.4698017" lon="12.4282317"><ele>825.0</ele><time>2026-04-26T16:55:23.036Z</time></trkpt><trkpt lat="46.469695" lon="12.4281783"><ele>824.2</ele><time>2026-04-26T16:55:24.038Z</time></trkpt><trkpt lat="46.4695833" lon="12.4281367"><ele>823.4</ele><time>2026-04-26T16:55:25.036Z</time></trkpt><trkpt lat="46.469475" lon="12.4281033"><ele>822.5999999999999</ele><time>2026-04-26T16:55:26.04Z</time></trkpt><trkpt lat="46.4693683" lon="12.4280867"><ele>821.8</ele><time>2026-04-26T16:55:27.038Z</time></trkpt><trkpt lat="46.46927" lon="12.42808"><ele>821.0</ele><time>2026-04-26T16:55:28.039Z</time></trkpt><trkpt lat="46.469175" lon="12.4280867"><ele>821.0</ele><time>2026-04-26T16:55:29.038Z</time></trkpt><trkpt lat="46.46908" lon="12.4281067"><ele>821.0</ele><time>2026-04-26T16:55:30.041Z</time></trkpt><trkpt lat="46.4689733" lon="12.4281417"><ele>821.0</ele><time>2026-04-26T16:55:31.039Z</time></trkpt><trkpt lat="46.4688667" lon="12.4281633"><ele>821.0</ele><time>2026-04-26T16:55:32.037Z</time></trkpt><trkpt lat="46.4687517" lon="12.4281683"><ele>821.0</ele><time>2026-04-26T16:55:33.036Z</time></trkpt><trkpt lat="46.4686333" lon="12.4281617"><ele>821.5</ele><time>2026-04-26T16:55:34.039Z</time></trkpt><trkpt lat="46.4685133" lon="12.4281417"><ele>822.0</ele><time>2026-04-26T16:55:35.036Z</time></trkpt><trkpt lat="46.4683983" lon="12.4280967"><ele>822.5</ele><time>2026-04-26T16:55:36.041Z</time></trkpt><trkpt lat="46.4682783" lon="12.4280267"><ele>823.0</ele><time>2026-04-26T16:55:37.039Z</time></trkpt><trkpt lat="46.4681533" lon="12.4279467"><ele>823.0</ele><time>2026-04-26T16:55:38.041Z</time></trkpt><trkpt lat="46.4680333" lon="12.4278617"><ele>823.0</ele><time>2026-04-26T16:55:39.036Z</time></trkpt><trkpt lat="46.467915" lon="12.42778"><ele>823.0</ele><time>2026-04-26T16:55:40.036Z</time></trkpt><trkpt lat="46.4677967" lon="12.4277033"><ele>823.0</ele><time>2026-04-26T16:55:41.039Z</time></trkpt><trkpt lat="46.4676917" lon="12.427635"><ele>820.5999999999999</ele><time>2026-04-26T16:55:42.041Z</time></trkpt><trkpt lat="46.4676083" lon="12.4275817"><ele>818.1999999999999</ele><time>2026-04-26T16:55:43.038Z</time></trkpt><trkpt lat="46.4675433" lon="12.427545"><ele>815.8</ele><time>2026-04-26T16:55:44.041Z</time></trkpt><trkpt lat="46.4674633" lon="12.4275033"><ele>813.4</ele><time>2026-04-26T16:55:46.037Z</time></trkpt><trkpt lat="46.4673883" lon="12.427455"><ele>811.0</ele><time>2026-04-26T16:55:48.041Z</time></trkpt><trkpt lat="46.467285" lon="12.427335"><ele>811.0</ele><time>2026-04-26T16:55:50.041Z</time></trkpt><trkpt lat="46.4672233" lon="12.4272483"><ele>811.0</ele><time>2026-04-26T16:55:51.037Z</time></trkpt><trkpt lat="46.4671517" lon="12.4271533"><ele>811.0</ele><time>2026-04-26T16:55:52.036Z</time></trkpt><trkpt lat="46.4670733" lon="12.4270517"><ele>811.0</ele><time>2026-04-26T16:55:53.039Z</time></trkpt><trkpt lat="46.4669917" lon="12.4269433"><ele>811.0</ele><time>2026-04-26T16:55:54.04Z</time></trkpt><trkpt lat="46.4669067" lon="12.426825"><ele>810.25</ele><time>2026-04-26T16:55:55.037Z</time></trkpt><trkpt lat="46.4668217" lon="12.4267017"><ele>809.5</ele><time>2026-04-26T16:55:56.04Z</time></trkpt><trkpt lat="46.4667333" lon="12.4265667"><ele>808.75</ele><time>2026-04-26T16:55:57.039Z</time></trkpt><trkpt lat="46.466645" lon="12.4264217"><ele>808.0</ele><time>2026-04-26T16:55:58.039Z</time></trkpt><trkpt lat="46.4665617" lon="12.426265"><ele>808.0</ele><time>2026-04-26T16:55:59.036Z</time></trkpt><trkpt lat="46.466475" lon="12.4261033"><ele>808.0</ele><time>2026-04-26T16:56:00.04Z</time></trkpt><trkpt lat="46.4663833" lon="12.42594"><ele>808.0</ele><time>2026-04-26T16:56:01.039Z</time></trkpt><trkpt lat="46.46629" lon="12.4257683"><ele>808.0</ele><time>2026-04-26T16:56:02.041Z</time></trkpt><trkpt lat="46.4661933" lon="12.425595"><ele>805.25</ele><time>2026-04-26T16:56:03.039Z</time></trkpt><trkpt lat="46.4660967" lon="12.4254267"><ele>802.5</ele><time>2026-04-26T16:56:04.036Z</time></trkpt><trkpt lat="46.4660033" lon="12.42526"><ele>799.75</ele><time>2026-04-26T16:56:05.039Z</time></trkpt><trkpt lat="46.4659133" lon="12.4251017"><ele>797.0</ele><time>2026-04-26T16:56:06.04Z</time></trkpt><trkpt lat="46.465825" lon="12.4249433"><ele>797.0</ele><time>2026-04-26T16:56:07.039Z</time></trkpt><trkpt lat="46.4657317" lon="12.4247817"><ele>797.0</ele><time>2026-04-26T16:56:08.041Z</time></trkpt><trkpt lat="46.4656367" lon="12.42462"><ele>797.0</ele><time>2026-04-26T16:56:09.039Z</time></trkpt><trkpt lat="46.465535" lon="12.4244633"><ele>797.0</ele><time>2026-04-26T16:56:10.036Z</time></trkpt><trkpt lat="46.4654283" lon="12.4243067"><ele>794.3333333333334</ele><time>2026-04-26T16:56:11.04Z</time></trkpt><trkpt lat="46.4653183" lon="12.4241533"><ele>791.6666666666667</ele><time>2026-04-26T16:56:12.04Z</time></trkpt><trkpt lat="46.4651983" lon="12.4240167"><ele>789.0</ele><time>2026-04-26T16:56:13.036Z</time></trkpt><trkpt lat="46.4650733" lon="12.4238883"><ele>795.0</ele><time>2026-04-26T16:56:14.041Z</time></trkpt><trkpt lat="46.4649483" lon="12.4237683"><ele>801.0</ele><time>2026-04-26T16:56:15.039Z</time></trkpt><trkpt lat="46.4648183" lon="12.4236483"><ele>807.0</ele><time>2026-04-26T16:56:16.04Z</time></trkpt><trkpt lat="46.4646867" lon="12.423525"><ele>801.0</ele><time>2026-04-26T16:56:17.039Z</time></trkpt><trkpt lat="46.4645633" lon="12.4234"><ele>795.0</ele><time>2026-04-26T16:56:18.039Z</time></trkpt><trkpt lat="46.4644483" lon="12.423275"><ele>789.0</ele><time>2026-04-26T16:56:19.039Z</time></trkpt><trkpt lat="46.4643433" lon="12.423145"><ele>783.0</ele><time>2026-04-26T16:56:20.041Z</time></trkpt><trkpt lat="46.464245" lon="12.4230117"><ele>786.25</ele><time>2026-04-26T16:56:21.039Z</time></trkpt><trkpt lat="46.4641633" lon="12.42286"><ele>789.5</ele><time>2026-04-26T16:56:22.039Z</time></trkpt><trkpt lat="46.46409" lon="12.4227083"><ele>792.75</ele><time>2026-04-26T16:56:23.037Z</time></trkpt><trkpt lat="46.4640117" lon="12.42256"><ele>796.0</ele><time>2026-04-26T16:56:24.039Z</time></trkpt><trkpt lat="46.4639383" lon="12.4224067"><ele>796.0</ele><time>2026-04-26T16:56:25.039Z</time></trkpt><trkpt lat="46.46387" lon="12.422245"><ele>796.0</ele><time>2026-04-26T16:56:26.041Z</time></trkpt><trkpt lat="46.4638017" lon="12.422085"><ele>796.0</ele><time>2026-04-26T16:56:27.038Z</time></trkpt><trkpt lat="46.4637267" lon="12.4219283"><ele>796.0</ele><time>2026-04-26T16:56:28.038Z</time></trkpt><trkpt lat="46.463645" lon="12.4217783"><ele>793.0</ele><time>2026-04-26T16:56:29.04Z</time></trkpt><trkpt lat="46.4635567" lon="12.4216367"><ele>790.0</ele><time>2026-04-26T16:56:30.04Z</time></trkpt><trkpt lat="46.4634733" lon="12.421495"><ele>787.0</ele><time>2026-04-26T16:56:31.04Z</time></trkpt><trkpt lat="46.463405" lon="12.4213467"><ele>784.0</ele><time>2026-04-26T16:56:32.039Z</time></trkpt><trkpt lat="46.463335" lon="12.421215"><ele>784.0</ele><time>2026-04-26T16:56:33.037Z</time></trkpt><trkpt lat="46.4632533" lon="12.421105"><ele>784.0</ele><time>2026-04-26T16:56:34.039Z</time></trkpt><trkpt lat="46.46315" lon="12.42103"><ele>784.0</ele><time>2026-04-26T16:56:35.04Z</time></trkpt><trkpt lat="46.4630367" lon="12.4209583"><ele>784.0</ele><time>2026-04-26T16:56:36.039Z</time></trkpt><trkpt lat="46.46293" lon="12.4208733"><ele>782.5</ele><time>2026-04-26T16:56:37.039Z</time></trkpt><trkpt lat="46.4628283" lon="12.4207683"><ele>781.0</ele><time>2026-04-26T16:56:38.042Z</time></trkpt><trkpt lat="46.462735" lon="12.4206517"><ele>779.5</ele><time>2026-04-26T16:56:39.039Z</time></trkpt><trkpt lat="46.462635" lon="12.42053"><ele>778.0</ele><time>2026-04-26T16:56:40.039Z</time></trkpt><trkpt lat="46.4625417" lon="12.420405"><ele>778.0</ele><time>2026-04-26T16:56:41.039Z</time></trkpt><trkpt lat="46.46244" lon="12.4202767"><ele>778.0</ele><time>2026-04-26T16:56:42.037Z</time></trkpt><trkpt lat="46.4623417" lon="12.420145"><ele>778.0</ele><time>2026-04-26T16:56:43.04Z</time></trkpt><trkpt lat="46.4622567" lon="12.4199933"><ele>778.0</ele><time>2026-04-26T16:56:44.038Z</time></trkpt><trkpt lat="46.46218" lon="12.4198267"><ele>778.75</ele><time>2026-04-26T16:56:45.039Z</time></trkpt><trkpt lat="46.46212" lon="12.4196483"><ele>779.5</ele><time>2026-04-26T16:56:46.039Z</time></trkpt><trkpt lat="46.46206" lon="12.4194667"><ele>780.25</ele><time>2026-04-26T16:56:47.037Z</time></trkpt><trkpt lat="46.4619983" lon="12.419285"><ele>781.0</ele><time>2026-04-26T16:56:48.04Z</time></trkpt><trkpt lat="46.4619317" lon="12.4191083"><ele>778.75</ele><time>2026-04-26T16:56:49.04Z</time></trkpt><trkpt lat="46.4618533" lon="12.4189367"><ele>776.5</ele><time>2026-04-26T16:56:50.042Z</time></trkpt><trkpt lat="46.4617683" lon="12.4187717"><ele>774.25</ele><time>2026-04-26T16:56:51.039Z</time></trkpt><trkpt lat="46.4616883" lon="12.4186033"><ele>772.0</ele><time>2026-04-26T16:56:52.039Z</time></trkpt><trkpt lat="46.4616083" lon="12.4184333"><ele>772.0</ele><time>2026-04-26T16:56:53.038Z</time></trkpt><trkpt lat="46.46154" lon="12.4182617"><ele>772.0</ele><time>2026-04-26T16:56:54.042Z</time></trkpt><trkpt lat="46.4614833" lon="12.4180933"><ele>772.0</ele><time>2026-04-26T16:56:55.039Z</time></trkpt><trkpt lat="46.46143" lon="12.417935"><ele>772.0</ele><time>2026-04-26T16:56:56.042Z</time></trkpt><trkpt lat="46.4613733" lon="12.417785"><ele>771.75</ele><time>2026-04-26T16:56:57.04Z</time></trkpt><trkpt lat="46.46132" lon="12.417645"><ele>771.5</ele><time>2026-04-26T16:56:58.039Z</time></trkpt><trkpt lat="46.4612567" lon="12.4175167"><ele>771.25</ele><time>2026-04-26T16:56:59.039Z</time></trkpt><trkpt lat="46.4611767" lon="12.4173983"><ele>771.0</ele><time>2026-04-26T16:57:00.039Z</time></trkpt><trkpt lat="46.461095" lon="12.4172717"><ele>772.75</ele><time>2026-04-26T16:57:01.039Z</time></trkpt><trkpt lat="46.46101" lon="12.417145"><ele>774.5</ele><time>2026-04-26T16:57:02.041Z</time></trkpt><trkpt lat="46.460925" lon="12.4170333"><ele>776.25</ele><time>2026-04-26T16:57:03.038Z</time></trkpt><trkpt lat="46.4608383" lon="12.4169367"><ele>778.0</ele><time>2026-04-26T16:57:04.039Z</time></trkpt><trkpt lat="46.4607567" lon="12.416835"><ele>778.0</ele><time>2026-04-26T16:57:05.049Z</time></trkpt><trkpt lat="46.4606767" lon="12.416735"><ele>778.0</ele><time>2026-04-26T16:57:06.041Z</time></trkpt><trkpt lat="46.4605983" lon="12.41664"><ele>778.0</ele><time>2026-04-26T16:57:07.038Z</time></trkpt><trkpt lat="46.4605183" lon="12.4165533"><ele>778.0</ele><time>2026-04-26T16:57:08.04Z</time></trkpt><trkpt lat="46.4604433" lon="12.4164583"><ele>778.0</ele><time>2026-04-26T16:57:09.037Z</time></trkpt><trkpt lat="46.4603583" lon="12.416375"><ele>777.2</ele><time>2026-04-26T16:57:10.039Z</time></trkpt><trkpt lat="46.460285" lon="12.4162767"><ele>776.4</ele><time>2026-04-26T16:57:11.039Z</time></trkpt><trkpt lat="46.46022" lon="12.4161733"><ele>775.6</ele><time>2026-04-26T16:57:12.042Z</time></trkpt><trkpt lat="46.4601583" lon="12.4160217"><ele>774.8000000000001</ele><time>2026-04-26T16:57:13.039Z</time></trkpt><trkpt lat="46.4601" lon="12.4158967"><ele>774.0</ele><time>2026-04-26T16:57:14.04Z</time></trkpt><trkpt lat="46.4600483" lon="12.4157633"><ele>774.0</ele><time>2026-04-26T16:57:15.04Z</time></trkpt><trkpt lat="46.46" lon="12.4156167"><ele>774.0</ele><time>2026-04-26T16:57:16.039Z</time></trkpt><trkpt lat="46.4599583" lon="12.4154683"><ele>774.0</ele><time>2026-04-26T16:57:17.039Z</time></trkpt><trkpt lat="46.4599167" lon="12.41532"><ele>774.0</ele><time>2026-04-26T16:57:18.04Z</time></trkpt><trkpt lat="46.4598717" lon="12.4151767"><ele>774.0</ele><time>2026-04-26T16:57:19.039Z</time></trkpt><trkpt lat="46.4598167" lon="12.41503"><ele>773.75</ele><time>2026-04-26T16:57:20.041Z</time></trkpt><trkpt lat="46.4597617" lon="12.4148817"><ele>773.5</ele><time>2026-04-26T16:57:21.037Z</time></trkpt><trkpt lat="46.4597033" lon="12.4147333"><ele>773.25</ele><time>2026-04-26T16:57:22.037Z</time></trkpt><trkpt lat="46.4596517" lon="12.41459"><ele>773.0</ele><time>2026-04-26T16:57:23.037Z</time></trkpt><trkpt lat="46.4596033" lon="12.4144467"><ele>771.5</ele><time>2026-04-26T16:57:24.039Z</time></trkpt><trkpt lat="46.4595517" lon="12.414295"><ele>770.0</ele><time>2026-04-26T16:57:25.039Z</time></trkpt><trkpt lat="46.459495" lon="12.4141333"><ele>768.5</ele><time>2026-04-26T16:57:26.04Z</time></trkpt><trkpt lat="46.4594317" lon="12.413965"><ele>767.0</ele><time>2026-04-26T16:57:27.04Z</time></trkpt><trkpt lat="46.4593683" lon="12.4137867"><ele>766.75</ele><time>2026-04-26T16:57:28.039Z</time></trkpt><trkpt lat="46.4593117" lon="12.41359"><ele>766.5</ele><time>2026-04-26T16:57:29.039Z</time></trkpt><trkpt lat="46.4592667" lon="12.41338"><ele>766.25</ele><time>2026-04-26T16:57:30.037Z</time></trkpt><trkpt lat="46.45925" lon="12.4131633"><ele>766.0</ele><time>2026-04-26T16:57:31.039Z</time></trkpt><trkpt lat="46.4592417" lon="12.4129417"><ele>767.0</ele><time>2026-04-26T16:57:32.041Z</time></trkpt><trkpt lat="46.4592283" lon="12.4127183"><ele>768.0</ele><time>2026-04-26T16:57:33.039Z</time></trkpt><trkpt lat="46.4591917" lon="12.4124967"><ele>769.0</ele><time>2026-04-26T16:57:34.039Z</time></trkpt><trkpt lat="46.4591283" lon="12.4122917"><ele>769.3333333333333</ele><time>2026-04-26T16:57:35.039Z</time></trkpt><trkpt lat="46.459045" lon="12.4120983"><ele>769.6666666666667</ele><time>2026-04-26T16:57:36.039Z</time></trkpt><trkpt lat="46.458945" lon="12.41192"><ele>770.0</ele><time>2026-04-26T16:57:37.037Z</time></trkpt><trkpt lat="46.4588433" lon="12.41174"><ele>767.0</ele><time>2026-04-26T16:57:38.042Z</time></trkpt><trkpt lat="46.45874" lon="12.4115567"><ele>764.0</ele><time>2026-04-26T16:57:39.039Z</time></trkpt><trkpt lat="46.458635" lon="12.4113717"><ele>761.0</ele><time>2026-04-26T16:57:40.039Z</time></trkpt><trkpt lat="46.45853" lon="12.41119"><ele>761.0</ele><time>2026-04-26T16:57:41.039Z</time></trkpt><trkpt lat="46.4584183" lon="12.4110033"><ele>761.0</ele><time>2026-04-26T16:57:42.039Z</time></trkpt><trkpt lat="46.458315" lon="12.4108083"><ele>761.0</ele><time>2026-04-26T16:57:43.039Z</time></trkpt><trkpt lat="46.458205" lon="12.41061"><ele>762.0</ele><time>2026-04-26T16:57:44.042Z</time></trkpt><trkpt lat="46.4580917" lon="12.4104133"><ele>763.0</ele><time>2026-04-26T16:57:45.038Z</time></trkpt><trkpt lat="46.45798" lon="12.4102133"><ele>764.0</ele><time>2026-04-26T16:57:46.039Z</time></trkpt><trkpt lat="46.4578617" lon="12.4100183"><ele>762.3333333333333</ele><time>2026-04-26T16:57:47.035Z</time></trkpt><trkpt lat="46.4577417" lon="12.40983"><ele>760.6666666666666</ele><time>2026-04-26T16:57:48.038Z</time></trkpt><trkpt lat="46.4576217" lon="12.40965"><ele>759.0</ele><time>2026-04-26T16:57:49.037Z</time></trkpt><trkpt lat="46.4575" lon="12.409475"><ele>759.0</ele><time>2026-04-26T16:57:50.039Z</time></trkpt><trkpt lat="46.4573733" lon="12.4093083"><ele>759.0</ele><time>2026-04-26T16:57:51.037Z</time></trkpt><trkpt lat="46.4572383" lon="12.4091517"><ele>759.0</ele><time>2026-04-26T16:57:52.038Z</time></trkpt><trkpt lat="46.45711" lon="12.4090017"><ele>759.0</ele><time>2026-04-26T16:57:53.038Z</time></trkpt><trkpt lat="46.4569867" lon="12.4088567"><ele>759.0</ele><time>2026-04-26T16:57:54.041Z</time></trkpt><trkpt lat="46.456865" lon="12.40872"><ele>759.0</ele><time>2026-04-26T16:57:55.039Z</time></trkpt><trkpt lat="46.4567367" lon="12.4085883"><ele>759.0</ele><time>2026-04-26T16:57:56.042Z</time></trkpt><trkpt lat="46.45661" lon="12.4084567"><ele>759.0</ele><time>2026-04-26T16:57:57.039Z</time></trkpt><trkpt lat="46.456485" lon="12.4083217"><ele>759.0</ele><time>2026-04-26T16:57:58.034Z</time></trkpt><trkpt lat="46.4563617" lon="12.4081883"><ele>757.3333333333334</ele><time>2026-04-26T16:57:59.038Z</time></trkpt><trkpt lat="46.45624" lon="12.40805"><ele>755.6666666666667</ele><time>2026-04-26T16:58:00.041Z</time></trkpt><trkpt lat="46.45613" lon="12.4078967"><ele>754.0</ele><time>2026-04-26T16:58:01.039Z</time></trkpt><trkpt lat="46.45602" lon="12.407745"><ele>754.0</ele><time>2026-04-26T16:58:02.042Z</time></trkpt><trkpt lat="46.4559183" lon="12.40759"><ele>754.0</ele><time>2026-04-26T16:58:03.039Z</time></trkpt><trkpt lat="46.4558217" lon="12.40742"><ele>754.0</ele><time>2026-04-26T16:58:04.038Z</time></trkpt><trkpt lat="46.4557217" lon="12.4072583"><ele>754.0</ele><time>2026-04-26T16:58:05.039Z</time></trkpt><trkpt lat="46.4556167" lon="12.4070983"><ele>753.0</ele><time>2026-04-26T16:58:06.039Z</time></trkpt><trkpt lat="46.4555133" lon="12.40693"><ele>752.0</ele><time>2026-04-26T16:58:07.037Z</time></trkpt><trkpt lat="46.4554217" lon="12.4067583"><ele>751.0</ele><time>2026-04-26T16:58:08.04Z</time></trkpt><trkpt lat="46.4553433" lon="12.4065833"><ele>750.0</ele><time>2026-04-26T16:58:09.038Z</time></trkpt><trkpt lat="46.4552717" lon="12.4064133"><ele>751.25</ele><time>2026-04-26T16:58:10.039Z</time></trkpt><trkpt lat="46.4552017" lon="12.4062433"><ele>752.5</ele><time>2026-04-26T16:58:11.039Z</time></trkpt><trkpt lat="46.4551317" lon="12.4060733"><ele>753.75</ele><time>2026-04-26T16:58:12.039Z</time></trkpt><trkpt lat="46.45506" lon="12.40591"><ele>755.0</ele><time>2026-04-26T16:58:13.037Z</time></trkpt><trkpt lat="46.454985" lon="12.4057667"><ele>755.0</ele><time>2026-04-26T16:58:14.041Z</time></trkpt><trkpt lat="46.454905" lon="12.4056367"><ele>755.0</ele><time>2026-04-26T16:58:15.039Z</time></trkpt><trkpt lat="46.4548117" lon="12.405515"><ele>755.0</ele><time>2026-04-26T16:58:16.038Z</time></trkpt><trkpt lat="46.4547083" lon="12.4053983"><ele>755.0</ele><time>2026-04-26T16:58:17.035Z</time></trkpt><trkpt lat="46.4545933" lon="12.4052967"><ele>756.25</ele><time>2026-04-26T16:58:18.039Z</time></trkpt><trkpt lat="46.454475" lon="12.4052067"><ele>757.5</ele><time>2026-04-26T16:58:19.038Z</time></trkpt><trkpt lat="46.4543567" lon="12.4051217"><ele>758.75</ele><time>2026-04-26T16:58:20.039Z</time></trkpt><trkpt lat="46.45424" lon="12.4050383"><ele>760.0</ele><time>2026-04-26T16:58:21.038Z</time></trkpt><trkpt lat="46.4541233" lon="12.4049517"><ele>760.0</ele><time>2026-04-26T16:58:22.035Z</time></trkpt><trkpt lat="46.45401" lon="12.4048667"><ele>760.0</ele><time>2026-04-26T16:58:23.038Z</time></trkpt><trkpt lat="46.4538983" lon="12.4047817"><ele>760.0</ele><time>2026-04-26T16:58:24.039Z</time></trkpt><trkpt lat="46.4537883" lon="12.40469"><ele>760.0</ele><time>2026-04-26T16:58:25.037Z</time></trkpt><trkpt lat="46.4536817" lon="12.404585"><ele>760.0</ele><time>2026-04-26T16:58:26.042Z</time></trkpt><trkpt lat="46.453585" lon="12.40446"><ele>760.0</ele><time>2026-04-26T16:58:27.04Z</time></trkpt><trkpt lat="46.453495" lon="12.4043267"><ele>760.0</ele><time>2026-04-26T16:58:28.039Z</time></trkpt><trkpt lat="46.45341" lon="12.404185"><ele>760.0</ele><time>2026-04-26T16:58:29.039Z</time></trkpt><trkpt lat="46.4533317" lon="12.4040367"><ele>760.0</ele><time>2026-04-26T16:58:30.036Z</time></trkpt><trkpt lat="46.453275" lon="12.403865"><ele>760.0</ele><time>2026-04-26T16:58:31.04Z</time></trkpt><trkpt lat="46.453225" lon="12.4036817"><ele>760.0</ele><time>2026-04-26T16:58:32.04Z</time></trkpt><trkpt lat="46.4531933" lon="12.4034867"><ele>760.0</ele><time>2026-04-26T16:58:33.039Z</time></trkpt><trkpt lat="46.4531717" lon="12.403285"><ele>760.25</ele><time>2026-04-26T16:58:34.035Z</time></trkpt><trkpt lat="46.4531633" lon="12.403075"><ele>760.5</ele><time>2026-04-26T16:58:35.037Z</time></trkpt><trkpt lat="46.4531717" lon="12.40286"><ele>760.75</ele><time>2026-04-26T16:58:36.036Z</time></trkpt><trkpt lat="46.453195" lon="12.4026433"><ele>761.0</ele><time>2026-04-26T16:58:37.039Z</time></trkpt><trkpt lat="46.45321" lon="12.40243"><ele>759.6666666666666</ele><time>2026-04-26T16:58:38.04Z</time></trkpt><trkpt lat="46.45324" lon="12.40221"><ele>758.3333333333334</ele><time>2026-04-26T16:58:39.039Z</time></trkpt><trkpt lat="46.4532617" lon="12.4019833"><ele>757.0</ele><time>2026-04-26T16:58:40.04Z</time></trkpt><trkpt lat="46.45327" lon="12.4017467"><ele>756.6666666666667</ele><time>2026-04-26T16:58:41.039Z</time></trkpt><trkpt lat="46.4532533" lon="12.4015133"><ele>756.3333333333334</ele><time>2026-04-26T16:58:42.037Z</time></trkpt><trkpt lat="46.4532233" lon="12.4012733"><ele>756.0</ele><time>2026-04-26T16:58:43.039Z</time></trkpt><trkpt lat="46.4531917" lon="12.4010333"><ele>756.0</ele><time>2026-04-26T16:58:44.041Z</time></trkpt><trkpt lat="46.4531833" lon="12.4007883"><ele>756.0</ele><time>2026-04-26T16:58:45.037Z</time></trkpt><trkpt lat="46.4531933" lon="12.4005433"><ele>756.0</ele><time>2026-04-26T16:58:46.035Z</time></trkpt><trkpt lat="46.4532067" lon="12.400295"><ele>755.6666666666666</ele><time>2026-04-26T16:58:47.038Z</time></trkpt><trkpt lat="46.4532" lon="12.40006"><ele>755.3333333333333</ele><time>2026-04-26T16:58:48.036Z</time></trkpt><trkpt lat="46.45318" lon="12.3998317"><ele>755.0</ele><time>2026-04-26T16:58:49.038Z</time></trkpt><trkpt lat="46.4531317" lon="12.3996317"><ele>754.5</ele><time>2026-04-26T16:58:50.038Z</time></trkpt><trkpt lat="46.45307" lon="12.3994483"><ele>754.0</ele><time>2026-04-26T16:58:51.038Z</time></trkpt><trkpt lat="46.452995" lon="12.3992917"><ele>753.5</ele><time>2026-04-26T16:58:52.034Z</time></trkpt><trkpt lat="46.4529133" lon="12.3991583"><ele>753.0</ele><time>2026-04-26T16:58:53.035Z</time></trkpt><trkpt lat="46.45284" lon="12.3990417"><ele>751.2</ele><time>2026-04-26T16:58:54.043Z</time></trkpt><trkpt lat="46.4527483" lon="12.3989583"><ele>749.4</ele><time>2026-04-26T16:58:55.036Z</time></trkpt><trkpt lat="46.452645" lon="12.3989283"><ele>747.6</ele><time>2026-04-26T16:58:56.041Z</time></trkpt><trkpt lat="46.45255" lon="12.3989417"><ele>745.8000000000001</ele><time>2026-04-26T16:58:57.038Z</time></trkpt><trkpt lat="46.45246" lon="12.39899"><ele>744.0</ele><time>2026-04-26T16:58:58.039Z</time></trkpt><trkpt lat="46.4523667" lon="12.39906"><ele>744.0</ele><time>2026-04-26T16:58:59.039Z</time></trkpt><trkpt lat="46.452265" lon="12.3991283"><ele>744.0</ele><time>2026-04-26T16:59:00.036Z</time></trkpt><trkpt lat="46.4521433" lon="12.39917"><ele>744.0</ele><time>2026-04-26T16:59:01.037Z</time></trkpt><trkpt lat="46.45201" lon="12.3991667"><ele>744.0</ele><time>2026-04-26T16:59:02.039Z</time></trkpt><trkpt lat="46.4518817" lon="12.399125"><ele>742.75</ele><time>2026-04-26T16:59:03.039Z</time></trkpt><trkpt lat="46.4517583" lon="12.3990783"><ele>741.5</ele><time>2026-04-26T16:59:04.035Z</time></trkpt><trkpt lat="46.451655" lon="12.3990067"><ele>740.25</ele><time>2026-04-26T16:59:05.036Z</time></trkpt><trkpt lat="46.451545" lon="12.3989383"><ele>739.0</ele><time>2026-04-26T16:59:06.04Z</time></trkpt><trkpt lat="46.451435" lon="12.3988533"><ele>737.75</ele><time>2026-04-26T16:59:07.038Z</time></trkpt><trkpt lat="46.4513333" lon="12.398745"><ele>736.5</ele><time>2026-04-26T16:59:08.042Z</time></trkpt><trkpt lat="46.451245" lon="12.39862"><ele>735.25</ele><time>2026-04-26T16:59:09.038Z</time></trkpt><trkpt lat="46.4511683" lon="12.398485"><ele>734.0</ele><time>2026-04-26T16:59:10.041Z</time></trkpt><trkpt lat="46.4511" lon="12.3983417"><ele>734.0</ele><time>2026-04-26T16:59:11.037Z</time></trkpt><trkpt lat="46.4510283" lon="12.398195"><ele>734.0</ele><time>2026-04-26T16:59:12.041Z</time></trkpt><trkpt lat="46.45096" lon="12.3980533"><ele>734.0</ele><time>2026-04-26T16:59:13.038Z</time></trkpt><trkpt lat="46.45089" lon="12.3979117"><ele>734.0</ele><time>2026-04-26T16:59:14.04Z</time></trkpt><trkpt lat="46.450795" lon="12.3977983"><ele>735.5</ele><time>2026-04-26T16:59:15.038Z</time></trkpt><trkpt lat="46.45069" lon="12.3976983"><ele>737.0</ele><time>2026-04-26T16:59:16.04Z</time></trkpt><trkpt lat="46.4505733" lon="12.397625"><ele>738.5</ele><time>2026-04-26T16:59:17.034Z</time></trkpt><trkpt lat="46.4504567" lon="12.397565"><ele>740.0</ele><time>2026-04-26T16:59:18.039Z</time></trkpt><trkpt lat="46.4503383" lon="12.3975017"><ele>740.0</ele><time>2026-04-26T16:59:19.037Z</time></trkpt><trkpt lat="46.450225" lon="12.397435"><ele>740.0</ele><time>2026-04-26T16:59:20.039Z</time></trkpt><trkpt lat="46.4501067" lon="12.3973717"><ele>740.0</ele><time>2026-04-26T16:59:21.039Z</time></trkpt><trkpt lat="46.4499967" lon="12.3973033"><ele>740.0</ele><time>2026-04-26T16:59:22.035Z</time></trkpt><trkpt lat="46.44989" lon="12.3972283"><ele>741.5</ele><time>2026-04-26T16:59:23.038Z</time></trkpt><trkpt lat="46.4497867" lon="12.3971483"><ele>743.0</ele><time>2026-04-26T16:59:24.039Z</time></trkpt><trkpt lat="46.4496817" lon="12.39707"><ele>744.5</ele><time>2026-04-26T16:59:25.039Z</time></trkpt><trkpt lat="46.4495767" lon="12.3969883"><ele>746.0</ele><time>2026-04-26T16:59:26.041Z</time></trkpt><trkpt lat="46.4494733" lon="12.3968967"><ele>746.0</ele><time>2026-04-26T16:59:27.039Z</time></trkpt><trkpt lat="46.4493733" lon="12.3967967"><ele>746.0</ele><time>2026-04-26T16:59:28.039Z</time></trkpt><trkpt lat="46.4492733" lon="12.3966833"><ele>746.0</ele><time>2026-04-26T16:59:29.038Z</time></trkpt><trkpt lat="46.4491767" lon="12.39656"><ele>746.0</ele><time>2026-04-26T16:59:30.035Z</time></trkpt><trkpt lat="46.4491" lon="12.3964083"><ele>748.0</ele><time>2026-04-26T16:59:31.035Z</time></trkpt><trkpt lat="46.4489817" lon="12.396065"><ele>750.0</ele><time>2026-04-26T16:59:33.036Z</time></trkpt><trkpt lat="46.448935" lon="12.395885"><ele>752.0</ele><time>2026-04-26T16:59:34.026Z</time></trkpt><trkpt lat="46.4489017" lon="12.395695"><ele>752.0</ele><time>2026-04-26T16:59:35.027Z</time></trkpt><trkpt lat="46.4488717" lon="12.395505"><ele>752.0</ele><time>2026-04-26T16:59:36.026Z</time></trkpt><trkpt lat="46.44884" lon="12.3953017"><ele>752.0</ele><time>2026-04-26T16:59:37.026Z</time></trkpt><trkpt lat="46.448795" lon="12.395115"><ele>752.0</ele><time>2026-04-26T16:59:38.027Z</time></trkpt><trkpt lat="46.4487517" lon="12.39493"><ele>751.0</ele><time>2026-04-26T16:59:39.027Z</time></trkpt><trkpt lat="46.4487117" lon="12.3947467"><ele>750.0</ele><time>2026-04-26T16:59:40.027Z</time></trkpt><trkpt lat="46.44867" lon="12.3945617"><ele>749.0</ele><time>2026-04-26T16:59:41.027Z</time></trkpt><trkpt lat="46.448635" lon="12.3943767"><ele>748.0</ele><time>2026-04-26T16:59:42.026Z</time></trkpt><trkpt lat="46.4486017" lon="12.3941933"><ele>748.0</ele><time>2026-04-26T16:59:43.035Z</time></trkpt><trkpt lat="46.448565" lon="12.3940083"><ele>748.0</ele><time>2026-04-26T16:59:44.035Z</time></trkpt><trkpt lat="46.44853" lon="12.3938267"><ele>748.0</ele><time>2026-04-26T16:59:45.034Z</time></trkpt><trkpt lat="46.4484967" lon="12.393645"><ele>748.0</ele><time>2026-04-26T16:59:46.036Z</time></trkpt><trkpt lat="46.4484683" lon="12.3934683"><ele>749.0</ele><time>2026-04-26T16:59:47.028Z</time></trkpt><trkpt lat="46.4484383" lon="12.3933017"><ele>750.0</ele><time>2026-04-26T16:59:48.028Z</time></trkpt><trkpt lat="46.4484083" lon="12.3931333"><ele>751.0</ele><time>2026-04-26T16:59:49.026Z</time></trkpt><trkpt lat="46.4483783" lon="12.3929583"><ele>752.0</ele><time>2026-04-26T16:59:50.034Z</time></trkpt><trkpt lat="46.4483433" lon="12.392795"><ele>753.25</ele><time>2026-04-26T16:59:51.035Z</time></trkpt><trkpt lat="46.4483067" lon="12.3926183"><ele>754.5</ele><time>2026-04-26T16:59:52.039Z</time></trkpt><trkpt lat="46.4482767" lon="12.3924367"><ele>755.75</ele><time>2026-04-26T16:59:53.039Z</time></trkpt><trkpt lat="46.4482433" lon="12.3922583"><ele>757.0</ele><time>2026-04-26T16:59:54.041Z</time></trkpt><trkpt lat="46.44821" lon="12.39208"><ele>757.75</ele><time>2026-04-26T16:59:55.041Z</time></trkpt><trkpt lat="46.4481733" lon="12.391915"><ele>758.5</ele><time>2026-04-26T16:59:56.039Z</time></trkpt><trkpt lat="46.44814" lon="12.3917433"><ele>759.25</ele><time>2026-04-26T16:59:57.037Z</time></trkpt><trkpt lat="46.44811" lon="12.39157"><ele>760.0</ele><time>2026-04-26T16:59:58.037Z</time></trkpt><trkpt lat="46.4480983" lon="12.39138"><ele>760.25</ele><time>2026-04-26T16:59:59.037Z</time></trkpt><trkpt lat="46.4481033" lon="12.391185"><ele>760.5</ele><time>2026-04-26T17:00:00.043Z</time></trkpt><trkpt lat="46.44812" lon="12.3909917"><ele>760.75</ele><time>2026-04-26T17:00:01.038Z</time></trkpt><trkpt lat="46.448145" lon="12.3907967"><ele>761.0</ele><time>2026-04-26T17:00:02.039Z</time></trkpt><trkpt lat="46.44818" lon="12.3906017"><ele>759.0</ele><time>2026-04-26T17:00:03.038Z</time></trkpt><trkpt lat="46.4482133" lon="12.3903983"><ele>757.0</ele><time>2026-04-26T17:00:04.039Z</time></trkpt><trkpt lat="46.4482367" lon="12.3901933"><ele>755.0</ele><time>2026-04-26T17:00:05.039Z</time></trkpt><trkpt lat="46.448265" lon="12.3899867"><ele>753.0</ele><time>2026-04-26T17:00:06.042Z</time></trkpt><trkpt lat="46.4482933" lon="12.3897833"><ele>750.5</ele><time>2026-04-26T17:00:07.04Z</time></trkpt><trkpt lat="46.4483367" lon="12.3895883"><ele>748.0</ele><time>2026-04-26T17:00:08.047Z</time></trkpt><trkpt lat="46.448395" lon="12.3893967"><ele>745.5</ele><time>2026-04-26T17:00:09.041Z</time></trkpt><trkpt lat="46.4484617" lon="12.3892267"><ele>743.0</ele><time>2026-04-26T17:00:10.038Z</time></trkpt><trkpt lat="46.4485433" lon="12.3890733"><ele>743.0</ele><time>2026-04-26T17:00:11.041Z</time></trkpt><trkpt lat="46.44866" lon="12.3889717"><ele>743.0</ele><time>2026-04-26T17:00:12.041Z</time></trkpt><trkpt lat="46.4487817" lon="12.3888717"><ele>743.0</ele><time>2026-04-26T17:00:13.04Z</time></trkpt><trkpt lat="46.44888" lon="12.3887583"><ele>743.0</ele><time>2026-04-26T17:00:14.043Z</time></trkpt><trkpt lat="46.4489617" lon="12.388625"><ele>742.5</ele><time>2026-04-26T17:00:15.046Z</time></trkpt><trkpt lat="46.449015" lon="12.388475"><ele>742.0</ele><time>2026-04-26T17:00:16.041Z</time></trkpt><trkpt lat="46.4490483" lon="12.3883067"><ele>741.5</ele><time>2026-04-26T17:00:17.047Z</time></trkpt><trkpt lat="46.4490567" lon="12.388135"><ele>741.0</ele><time>2026-04-26T17:00:18.046Z</time></trkpt><trkpt lat="46.4490267" lon="12.3879633"><ele>741.0</ele><time>2026-04-26T17:00:19.042Z</time></trkpt><trkpt lat="46.4489667" lon="12.3878117"><ele>741.0</ele><time>2026-04-26T17:00:20.04Z</time></trkpt><trkpt lat="46.4488883" lon="12.3876833"><ele>741.0</ele><time>2026-04-26T17:00:21.039Z</time></trkpt><trkpt lat="46.448785" lon="12.3875817"><ele>741.0</ele><time>2026-04-26T17:00:22.039Z</time></trkpt><trkpt lat="46.4486733" lon="12.3875033"><ele>742.75</ele><time>2026-04-26T17:00:23.04Z</time></trkpt><trkpt lat="46.44856" lon="12.38746"><ele>744.5</ele><time>2026-04-26T17:00:24.043Z</time></trkpt><trkpt lat="46.4484367" lon="12.3874483"><ele>746.25</ele><time>2026-04-26T17:00:25.038Z</time></trkpt><trkpt lat="46.4483183" lon="12.38746"><ele>748.0</ele><time>2026-04-26T17:00:26.042Z</time></trkpt><trkpt lat="46.4481983" lon="12.3875117"><ele>748.0</ele><time>2026-04-26T17:00:27.04Z</time></trkpt><trkpt lat="46.4480783" lon="12.3875667"><ele>748.0</ele><time>2026-04-26T17:00:28.038Z</time></trkpt><trkpt lat="46.4479583" lon="12.387605"><ele>748.0</ele><time>2026-04-26T17:00:29.039Z</time></trkpt><trkpt lat="46.4478367" lon="12.3876267"><ele>748.0</ele><time>2026-04-26T17:00:30.044Z</time></trkpt><trkpt lat="46.44771" lon="12.38765"><ele>750.5</ele><time>2026-04-26T17:00:31.042Z</time></trkpt><trkpt lat="46.44759" lon="12.3876683"><ele>753.0</ele><time>2026-04-26T17:00:32.04Z</time></trkpt><trkpt lat="46.4474683" lon="12.3876833"><ele>755.5</ele><time>2026-04-26T17:00:33.037Z</time></trkpt><trkpt lat="46.447345" lon="12.3876817"><ele>758.0</ele><time>2026-04-26T17:00:34.039Z</time></trkpt><trkpt lat="46.44722" lon="12.38768"><ele>757.25</ele><time>2026-04-26T17:00:35.041Z</time></trkpt><trkpt lat="46.4470917" lon="12.3876733"><ele>756.5</ele><time>2026-04-26T17:00:36.042Z</time></trkpt><trkpt lat="46.4469667" lon="12.387655"><ele>755.75</ele><time>2026-04-26T17:00:37.04Z</time></trkpt><trkpt lat="46.4468533" lon="12.3876283"><ele>755.0</ele><time>2026-04-26T17:00:38.041Z</time></trkpt><trkpt lat="46.44674" lon="12.3875917"><ele>755.0</ele><time>2026-04-26T17:00:39.04Z</time></trkpt><trkpt lat="46.4466383" lon="12.3875317"><ele>755.0</ele><time>2026-04-26T17:00:40.04Z</time></trkpt><trkpt lat="46.446545" lon="12.387445"><ele>755.0</ele><time>2026-04-26T17:00:41.041Z</time></trkpt><trkpt lat="46.44646" lon="12.38733"><ele>755.0</ele><time>2026-04-26T17:00:42.042Z</time></trkpt><trkpt lat="46.4463867" lon="12.3871967"><ele>755.5</ele><time>2026-04-26T17:00:43.039Z</time></trkpt><trkpt lat="46.4463183" lon="12.38705"><ele>756.0</ele><time>2026-04-26T17:00:44.042Z</time></trkpt><trkpt lat="46.446255" lon="12.386905"><ele>756.5</ele><time>2026-04-26T17:00:45.04Z</time></trkpt><trkpt lat="46.4461967" lon="12.3867533"><ele>757.0</ele><time>2026-04-26T17:00:46.038Z</time></trkpt><trkpt lat="46.4461433" lon="12.386605"><ele>757.0</ele><time>2026-04-26T17:00:47.04Z</time></trkpt><trkpt lat="46.446075" lon="12.3864683"><ele>757.0</ele><time>2026-04-26T17:00:48.04Z</time></trkpt><trkpt lat="46.4459983" lon="12.3863433"><ele>757.0</ele><time>2026-04-26T17:00:49.041Z</time></trkpt><trkpt lat="46.4459083" lon="12.3862367"><ele>757.0</ele><time>2026-04-26T17:00:50.044Z</time></trkpt><trkpt lat="46.44581" lon="12.386145"><ele>759.0</ele><time>2026-04-26T17:00:51.037Z</time></trkpt><trkpt lat="46.4457017" lon="12.3860767"><ele>761.0</ele><time>2026-04-26T17:00:52.039Z</time></trkpt><trkpt lat="46.4455833" lon="12.3860317"><ele>763.0</ele><time>2026-04-26T17:00:53.042Z</time></trkpt><trkpt lat="46.4454633" lon="12.3859917"><ele>765.0</ele><time>2026-04-26T17:00:54.04Z</time></trkpt><trkpt lat="46.4453433" lon="12.3859517"><ele>765.0</ele><time>2026-04-26T17:00:55.039Z</time></trkpt><trkpt lat="46.4452183" lon="12.3859117"><ele>765.0</ele><time>2026-04-26T17:00:56.042Z</time></trkpt><trkpt lat="46.4450917" lon="12.38588"><ele>765.0</ele><time>2026-04-26T17:00:57.041Z</time></trkpt><trkpt lat="46.4449717" lon="12.38584"><ele>765.0</ele><time>2026-04-26T17:00:58.04Z</time></trkpt><trkpt lat="46.44485" lon="12.3857883"><ele>765.0</ele><time>2026-04-26T17:00:59.036Z</time></trkpt><trkpt lat="46.444735" lon="12.3857167"><ele>765.0</ele><time>2026-04-26T17:01:00.039Z</time></trkpt><trkpt lat="46.44462" lon="12.3856367"><ele>765.0</ele><time>2026-04-26T17:01:01.035Z</time></trkpt><trkpt lat="46.4445117" lon="12.3855533"><ele>765.0</ele><time>2026-04-26T17:01:02.039Z</time></trkpt><trkpt lat="46.4444083" lon="12.38548"><ele>766.25</ele><time>2026-04-26T17:01:03.041Z</time></trkpt><trkpt lat="46.44431" lon="12.3853933"><ele>767.5</ele><time>2026-04-26T17:01:04.034Z</time></trkpt><trkpt lat="46.444215" lon="12.3853033"><ele>768.75</ele><time>2026-04-26T17:01:05.04Z</time></trkpt><trkpt lat="46.44412" lon="12.3852067"><ele>770.0</ele><time>2026-04-26T17:01:06.038Z</time></trkpt><trkpt lat="46.44403" lon="12.385095"><ele>770.0</ele><time>2026-04-26T17:01:07.043Z</time></trkpt><trkpt lat="46.443945" lon="12.3849717"><ele>770.0</ele><time>2026-04-26T17:01:08.043Z</time></trkpt><trkpt lat="46.4438667" lon="12.3848417"><ele>770.0</ele><time>2026-04-26T17:01:09.042Z</time></trkpt><trkpt lat="46.4437883" lon="12.3847133"><ele>770.0</ele><time>2026-04-26T17:01:10.035Z</time></trkpt><trkpt lat="46.4437067" lon="12.3845883"><ele>770.75</ele><time>2026-04-26T17:01:11.038Z</time></trkpt><trkpt lat="46.4436233" lon="12.3844583"><ele>771.5</ele><time>2026-04-26T17:01:12.042Z</time></trkpt><trkpt lat="46.44354" lon="12.3843333"><ele>772.25</ele><time>2026-04-26T17:01:13.039Z</time></trkpt><trkpt lat="46.4434583" lon="12.3842033"><ele>773.0</ele><time>2026-04-26T17:01:14.042Z</time></trkpt><trkpt lat="46.4433767" lon="12.3840733"><ele>773.0</ele><time>2026-04-26T17:01:15.036Z</time></trkpt><trkpt lat="46.4432933" lon="12.383945"><ele>773.0</ele><time>2026-04-26T17:01:16.04Z</time></trkpt><trkpt lat="46.4432117" lon="12.38382"><ele>773.0</ele><time>2026-04-26T17:01:17.035Z</time></trkpt><trkpt lat="46.4431283" lon="12.3836967"><ele>773.0</ele><time>2026-04-26T17:01:18.04Z</time></trkpt><trkpt lat="46.4430483" lon="12.3835733"><ele>772.75</ele><time>2026-04-26T17:01:19.042Z</time></trkpt><trkpt lat="46.44297" lon="12.3834483"><ele>772.5</ele><time>2026-04-26T17:01:20.039Z</time></trkpt><trkpt lat="46.4428983" lon="12.383315"><ele>772.25</ele><time>2026-04-26T17:01:21.04Z</time></trkpt><trkpt lat="46.4428317" lon="12.3831783"><ele>772.0</ele><time>2026-04-26T17:01:22.039Z</time></trkpt><trkpt lat="46.4427683" lon="12.38304"><ele>772.75</ele><time>2026-04-26T17:01:23.04Z</time></trkpt><trkpt lat="46.4427117" lon="12.3828967"><ele>773.5</ele><time>2026-04-26T17:01:24.042Z</time></trkpt><trkpt lat="46.442655" lon="12.3827533"><ele>774.25</ele><time>2026-04-26T17:01:25.04Z</time></trkpt><trkpt lat="46.4426033" lon="12.382605"><ele>775.0</ele><time>2026-04-26T17:01:26.038Z</time></trkpt><trkpt lat="46.4425467" lon="12.382455"><ele>775.0</ele><time>2026-04-26T17:01:27.036Z</time></trkpt><trkpt lat="46.4424883" lon="12.38231"><ele>775.0</ele><time>2026-04-26T17:01:28.035Z</time></trkpt><trkpt lat="46.4424267" lon="12.38217"><ele>775.0</ele><time>2026-04-26T17:01:29.041Z</time></trkpt><trkpt lat="46.442355" lon="12.3820433"><ele>775.0</ele><time>2026-04-26T17:01:30.041Z</time></trkpt><trkpt lat="46.4422767" lon="12.381925"><ele>775.8</ele><time>2026-04-26T17:01:31.038Z</time></trkpt><trkpt lat="46.442195" lon="12.381815"><ele>776.6</ele><time>2026-04-26T17:01:32.037Z</time></trkpt><trkpt lat="46.44211" lon="12.38171"><ele>777.4000000000001</ele><time>2026-04-26T17:01:33.035Z</time></trkpt><trkpt lat="46.4420233" lon="12.3816083"><ele>778.2</ele><time>2026-04-26T17:01:34.036Z</time></trkpt><trkpt lat="46.4419333" lon="12.3815117"><ele>779.0</ele><time>2026-04-26T17:01:35.039Z</time></trkpt><trkpt lat="46.4418483" lon="12.3814117"><ele>781.0</ele><time>2026-04-26T17:01:36.039Z</time></trkpt><trkpt lat="46.4417567" lon="12.381315"><ele>783.0</ele><time>2026-04-26T17:01:37.041Z</time></trkpt><trkpt lat="46.4416667" lon="12.381215"><ele>785.0</ele><time>2026-04-26T17:01:38.038Z</time></trkpt><trkpt lat="46.4415767" lon="12.3811233"><ele>787.0</ele><time>2026-04-26T17:01:39.04Z</time></trkpt><trkpt lat="46.4414817" lon="12.38103"><ele>787.0</ele><time>2026-04-26T17:01:40.035Z</time></trkpt><trkpt lat="46.44138" lon="12.380945"><ele>787.0</ele><time>2026-04-26T17:01:41.04Z</time></trkpt><trkpt lat="46.44127" lon="12.380875"><ele>787.0</ele><time>2026-04-26T17:01:42.041Z</time></trkpt><trkpt lat="46.4411617" lon="12.3808083"><ele>787.0</ele><time>2026-04-26T17:01:43.043Z</time></trkpt><trkpt lat="46.4410517" lon="12.38075"><ele>786.2</ele><time>2026-04-26T17:01:44.043Z</time></trkpt><trkpt lat="46.440945" lon="12.3806917"><ele>785.4000000000001</ele><time>2026-04-26T17:01:45.042Z</time></trkpt><trkpt lat="46.4408383" lon="12.3806333"><ele>784.5999999999999</ele><time>2026-04-26T17:01:46.04Z</time></trkpt><trkpt lat="46.4407333" lon="12.3805733"><ele>783.8</ele><time>2026-04-26T17:01:47.038Z</time></trkpt><trkpt lat="46.4406317" lon="12.38052"><ele>783.0</ele><time>2026-04-26T17:01:48.042Z</time></trkpt><trkpt lat="46.44053" lon="12.3804767"><ele>786.1666666666666</ele><time>2026-04-26T17:01:49.041Z</time></trkpt><trkpt lat="46.44044" lon="12.3804367"><ele>789.3333333333333</ele><time>2026-04-26T17:01:50.043Z</time></trkpt><trkpt lat="46.4403683" lon="12.38039"><ele>792.5</ele><time>2026-04-26T17:01:51.042Z</time></trkpt><trkpt lat="46.4403017" lon="12.3803517"><ele>795.6666666666666</ele><time>2026-04-26T17:01:52.04Z</time></trkpt><trkpt lat="46.44023" lon="12.380315"><ele>798.8333333333333</ele><time>2026-04-26T17:01:53.04Z</time></trkpt><trkpt lat="46.4401517" lon="12.3802783"><ele>802.0</ele><time>2026-04-26T17:01:54.038Z</time></trkpt><trkpt lat="46.4400733" lon="12.3802417"><ele>802.0</ele><time>2026-04-26T17:01:55.036Z</time></trkpt><trkpt lat="46.4399933" lon="12.3802083"><ele>802.0</ele><time>2026-04-26T17:01:56.042Z</time></trkpt><trkpt lat="46.4399067" lon="12.3801733"><ele>802.0</ele><time>2026-04-26T17:01:57.036Z</time></trkpt><trkpt lat="46.43982" lon="12.3801267"><ele>802.0</ele><time>2026-04-26T17:01:58.04Z</time></trkpt><trkpt lat="46.4397283" lon="12.3800867"><ele>802.0</ele><time>2026-04-26T17:01:59.041Z</time></trkpt><trkpt lat="46.43963" lon="12.3800733"><ele>803.2</ele><time>2026-04-26T17:02:00.041Z</time></trkpt><trkpt lat="46.4395267" lon="12.3800733"><ele>804.4000000000001</ele><time>2026-04-26T17:02:01.039Z</time></trkpt><trkpt lat="46.4394317" lon="12.38007"><ele>805.5999999999999</ele><time>2026-04-26T17:02:02.042Z</time></trkpt><trkpt lat="46.439335" lon="12.3800767"><ele>806.8</ele><time>2026-04-26T17:02:03.039Z</time></trkpt><trkpt lat="46.439235" lon="12.3800883"><ele>808.0</ele><time>2026-04-26T17:02:04.038Z</time></trkpt><trkpt lat="46.4391333" lon="12.3801"><ele>808.0</ele><time>2026-04-26T17:02:05.04Z</time></trkpt><trkpt lat="46.4390317" lon="12.3801167"><ele>808.0</ele><time>2026-04-26T17:02:06.039Z</time></trkpt><trkpt lat="46.4389267" lon="12.3801283"><ele>808.0</ele><time>2026-04-26T17:02:07.039Z</time></trkpt><trkpt lat="46.438825" lon="12.38014"><ele>808.0</ele><time>2026-04-26T17:02:08.04Z</time></trkpt><trkpt lat="46.4387183" lon="12.38015"><ele>808.0</ele><time>2026-04-26T17:02:09.039Z</time></trkpt><trkpt lat="46.438615" lon="12.3801567"><ele>808.5999999999999</ele><time>2026-04-26T17:02:10.036Z</time></trkpt><trkpt lat="46.438505" lon="12.3801617"><ele>809.1999999999999</ele><time>2026-04-26T17:02:11.038Z</time></trkpt><trkpt lat="46.4383967" lon="12.3801633"><ele>809.8</ele><time>2026-04-26T17:02:12.041Z</time></trkpt><trkpt lat="46.438285" lon="12.3801633"><ele>810.4</ele><time>2026-04-26T17:02:13.037Z</time></trkpt><trkpt lat="46.4381833" lon="12.3801483"><ele>811.0</ele><time>2026-04-26T17:02:14.04Z</time></trkpt><trkpt lat="46.4380817" lon="12.380125"><ele>811.0</ele><time>2026-04-26T17:02:15.037Z</time></trkpt><trkpt lat="46.437975" lon="12.3800933"><ele>811.0</ele><time>2026-04-26T17:02:16.036Z</time></trkpt><trkpt lat="46.43787" lon="12.3800467"><ele>811.0</ele><time>2026-04-26T17:02:17.04Z</time></trkpt><trkpt lat="46.4377667" lon="12.3799967"><ele>811.0</ele><time>2026-04-26T17:02:18.042Z</time></trkpt><trkpt lat="46.4376667" lon="12.3799533"><ele>811.0</ele><time>2026-04-26T17:02:19.04Z</time></trkpt><trkpt lat="46.4375633" lon="12.3799167"><ele>811.1999999999999</ele><time>2026-04-26T17:02:20.041Z</time></trkpt><trkpt lat="46.4374567" lon="12.379885"><ele>811.4</ele><time>2026-04-26T17:02:21.039Z</time></trkpt><trkpt lat="46.4373517" lon="12.37985"><ele>811.6</ele><time>2026-04-26T17:02:22.041Z</time></trkpt><trkpt lat="46.437255" lon="12.37981"><ele>811.8</ele><time>2026-04-26T17:02:23.041Z</time></trkpt><trkpt lat="46.4371583" lon="12.3797667"><ele>812.0</ele><time>2026-04-26T17:02:24.038Z</time></trkpt><trkpt lat="46.4370633" lon="12.37973"><ele>811.4000000000001</ele><time>2026-04-26T17:02:25.04Z</time></trkpt><trkpt lat="46.4369617" lon="12.3796983"><ele>810.8000000000001</ele><time>2026-04-26T17:02:26.042Z</time></trkpt><trkpt lat="46.4368567" lon="12.3796683"><ele>810.2</ele><time>2026-04-26T17:02:27.036Z</time></trkpt><trkpt lat="46.436755" lon="12.379635"><ele>809.6</ele><time>2026-04-26T17:02:28.034Z</time></trkpt><trkpt lat="46.4366567" lon="12.3795917"><ele>809.0</ele><time>2026-04-26T17:02:29.041Z</time></trkpt><trkpt lat="46.436565" lon="12.3795317"><ele>808.6</ele><time>2026-04-26T17:02:30.035Z</time></trkpt><trkpt lat="46.436485" lon="12.37945"><ele>808.2</ele><time>2026-04-26T17:02:31.037Z</time></trkpt><trkpt lat="46.4364083" lon="12.3793483"><ele>807.8000000000001</ele><time>2026-04-26T17:02:32.038Z</time></trkpt><trkpt lat="46.436345" lon="12.3792317"><ele>807.4000000000001</ele><time>2026-04-26T17:02:33.041Z</time></trkpt><trkpt lat="46.4362983" lon="12.3791"><ele>807.0</ele><time>2026-04-26T17:02:34.035Z</time></trkpt><trkpt lat="46.436265" lon="12.3789583"><ele>809.4000000000001</ele><time>2026-04-26T17:02:35.04Z</time></trkpt><trkpt lat="46.43624" lon="12.378815"><ele>811.8000000000001</ele><time>2026-04-26T17:02:36.04Z</time></trkpt><trkpt lat="46.4362267" lon="12.3786617"><ele>814.2</ele><time>2026-04-26T17:02:37.038Z</time></trkpt><trkpt lat="46.4362133" lon="12.3785117"><ele>816.6</ele><time>2026-04-26T17:02:38.041Z</time></trkpt><trkpt lat="46.4361983" lon="12.378365"><ele>819.0</ele><time>2026-04-26T17:02:39.04Z</time></trkpt><trkpt lat="46.4361817" lon="12.3782133"><ele>819.0</ele><time>2026-04-26T17:02:40.04Z</time></trkpt><trkpt lat="46.436165" lon="12.3780583"><ele>819.0</ele><time>2026-04-26T17:02:41.039Z</time></trkpt><trkpt lat="46.436145" lon="12.3779067"><ele>819.0</ele><time>2026-04-26T17:02:42.04Z</time></trkpt><trkpt lat="46.4361283" lon="12.3777467"><ele>819.0</ele><time>2026-04-26T17:02:43.04Z</time></trkpt><trkpt lat="46.4361133" lon="12.37759"><ele>819.0</ele><time>2026-04-26T17:02:44.039Z</time></trkpt><trkpt lat="46.4361" lon="12.3774283"><ele>822.8000000000001</ele><time>2026-04-26T17:02:45.036Z</time></trkpt><trkpt lat="46.4360867" lon="12.3772683"><ele>826.6</ele><time>2026-04-26T17:02:46.04Z</time></trkpt><trkpt lat="46.4360767" lon="12.3771067"><ele>830.4</ele><time>2026-04-26T17:02:47.041Z</time></trkpt><trkpt lat="46.4360717" lon="12.376945"><ele>834.2</ele><time>2026-04-26T17:02:48.039Z</time></trkpt><trkpt lat="46.436065" lon="12.37679"><ele>838.0</ele><time>2026-04-26T17:02:49.037Z</time></trkpt><trkpt lat="46.43605" lon="12.3766517"><ele>839.4999999999999</ele><time>2026-04-26T17:02:50.041Z</time></trkpt><trkpt lat="46.4360283" lon="12.3765417"><ele>841.0</ele><time>2026-04-26T17:02:51.04Z</time></trkpt><trkpt lat="46.4359933" lon="12.3764467"><ele>842.5</ele><time>2026-04-26T17:02:52.04Z</time></trkpt><trkpt lat="46.43591" lon="12.3763383"><ele>844.0</ele><time>2026-04-26T17:02:54.04Z</time></trkpt><trkpt lat="46.4358483" lon="12.37636"><ele>845.4999999999999</ele><time>2026-04-26T17:02:55.041Z</time></trkpt><trkpt lat="46.4357783" lon="12.3764217"><ele>847.0</ele><time>2026-04-26T17:02:56.043Z</time></trkpt><trkpt lat="46.435715" lon="12.3765033"><ele>847.0</ele><time>2026-04-26T17:02:57.04Z</time></trkpt><trkpt lat="46.435645" lon="12.3766883"><ele>847.0</ele><time>2026-04-26T17:02:58.036Z</time></trkpt><trkpt lat="46.435565" lon="12.3768817"><ele>847.0</ele><time>2026-04-26T17:02:59.039Z</time></trkpt><trkpt lat="46.4355067" lon="12.3770317"><ele>847.0</ele><time>2026-04-26T17:03:00.041Z</time></trkpt><trkpt lat="46.4354517" lon="12.3771783"><ele>848.4000000000001</ele><time>2026-04-26T17:03:01.04Z</time></trkpt><trkpt lat="46.4353933" lon="12.37732"><ele>849.8000000000001</ele><time>2026-04-26T17:03:02.042Z</time></trkpt><trkpt lat="46.4353367" lon="12.3774517"><ele>851.2</ele><time>2026-04-26T17:03:03.039Z</time></trkpt><trkpt lat="46.43526" lon="12.3775583"><ele>852.6</ele><time>2026-04-26T17:03:04.038Z</time></trkpt><trkpt lat="46.4351667" lon="12.3776333"><ele>854.0</ele><time>2026-04-26T17:03:05.037Z</time></trkpt><trkpt lat="46.43506" lon="12.3776817"><ele>854.0</ele><time>2026-04-26T17:03:06.04Z</time></trkpt><trkpt lat="46.4349483" lon="12.3777083"><ele>854.0</ele><time>2026-04-26T17:03:07.036Z</time></trkpt><trkpt lat="46.4348383" lon="12.3777333"><ele>854.0</ele><time>2026-04-26T17:03:08.039Z</time></trkpt><trkpt lat="46.4347283" lon="12.377755"><ele>854.0</ele><time>2026-04-26T17:03:09.038Z</time></trkpt><trkpt lat="46.4346133" lon="12.3777767"><ele>853.5</ele><time>2026-04-26T17:03:10.037Z</time></trkpt><trkpt lat="46.4344983" lon="12.3777983"><ele>853.0</ele><time>2026-04-26T17:03:11.034Z</time></trkpt><trkpt lat="46.434385" lon="12.3778167"><ele>852.5</ele><time>2026-04-26T17:03:12.039Z</time></trkpt><trkpt lat="46.434275" lon="12.3778367"><ele>852.0</ele><time>2026-04-26T17:03:13.038Z</time></trkpt><trkpt lat="46.434165" lon="12.377865"><ele>852.0</ele><time>2026-04-26T17:03:14.039Z</time></trkpt><trkpt lat="46.4340583" lon="12.3779083"><ele>852.0</ele><time>2026-04-26T17:03:15.039Z</time></trkpt><trkpt lat="46.433955" lon="12.3779617"><ele>852.0</ele><time>2026-04-26T17:03:16.04Z</time></trkpt><trkpt lat="46.433845" lon="12.3780233"><ele>852.0</ele><time>2026-04-26T17:03:17.039Z</time></trkpt><trkpt lat="46.433735" lon="12.3780917"><ele>851.25</ele><time>2026-04-26T17:03:18.041Z</time></trkpt><trkpt lat="46.433625" lon="12.3781617"><ele>850.5</ele><time>2026-04-26T17:03:19.04Z</time></trkpt><trkpt lat="46.433515" lon="12.3782333"><ele>849.75</ele><time>2026-04-26T17:03:20.042Z</time></trkpt><trkpt lat="46.4334067" lon="12.37831"><ele>849.0</ele><time>2026-04-26T17:03:21.039Z</time></trkpt><trkpt lat="46.4332983" lon="12.378385"><ele>849.0</ele><time>2026-04-26T17:03:22.038Z</time></trkpt><trkpt lat="46.4331917" lon="12.3784583"><ele>849.0</ele><time>2026-04-26T17:03:23.039Z</time></trkpt><trkpt lat="46.4330867" lon="12.3785367"><ele>849.0</ele><time>2026-04-26T17:03:24.041Z</time></trkpt><trkpt lat="46.4329867" lon="12.3786033"><ele>849.0</ele><time>2026-04-26T17:03:25.037Z</time></trkpt><trkpt lat="46.4328867" lon="12.378665"><ele>853.2</ele><time>2026-04-26T17:03:26.04Z</time></trkpt><trkpt lat="46.43278" lon="12.3787117"><ele>857.4000000000001</ele><time>2026-04-26T17:03:27.039Z</time></trkpt><trkpt lat="46.432675" lon="12.3787317"><ele>861.6</ele><time>2026-04-26T17:03:28.036Z</time></trkpt><trkpt lat="46.432565" lon="12.378735"><ele>865.8</ele><time>2026-04-26T17:03:29.04Z</time></trkpt><trkpt lat="46.4324567" lon="12.3787317"><ele>870.0</ele><time>2026-04-26T17:03:30.04Z</time></trkpt><trkpt lat="46.4323467" lon="12.3787133"><ele>870.0</ele><time>2026-04-26T17:03:31.04Z</time></trkpt><trkpt lat="46.4322433" lon="12.378685"><ele>870.0</ele><time>2026-04-26T17:03:32.041Z</time></trkpt><trkpt lat="46.43214" lon="12.378655"><ele>870.0</ele><time>2026-04-26T17:03:33.036Z</time></trkpt><trkpt lat="46.4320417" lon="12.37862"><ele>870.0</ele><time>2026-04-26T17:03:34.036Z</time></trkpt><trkpt lat="46.4319467" lon="12.37858"><ele>870.0</ele><time>2026-04-26T17:03:35.041Z</time></trkpt><trkpt lat="46.4318483" lon="12.3785267"><ele>870.4</ele><time>2026-04-26T17:03:36.036Z</time></trkpt><trkpt lat="46.4317483" lon="12.3784733"><ele>870.8</ele><time>2026-04-26T17:03:37.036Z</time></trkpt><trkpt lat="46.43165" lon="12.37843"><ele>871.2</ele><time>2026-04-26T17:03:38.043Z</time></trkpt><trkpt lat="46.431555" lon="12.3783733"><ele>871.6</ele><time>2026-04-26T17:03:39.038Z</time></trkpt><trkpt lat="46.4314633" lon="12.3783033"><ele>872.0</ele><time>2026-04-26T17:03:40.038Z</time></trkpt><trkpt lat="46.431375" lon="12.3782333"><ele>872.8</ele><time>2026-04-26T17:03:41.036Z</time></trkpt><trkpt lat="46.4312933" lon="12.3781517"><ele>873.6</ele><time>2026-04-26T17:03:42.042Z</time></trkpt><trkpt lat="46.43122" lon="12.3780733"><ele>874.3999999999999</ele><time>2026-04-26T17:03:43.039Z</time></trkpt><trkpt lat="46.431145" lon="12.377995"><ele>875.1999999999999</ele><time>2026-04-26T17:03:44.04Z</time></trkpt><trkpt lat="46.43107" lon="12.3779383"><ele>876.0</ele><time>2026-04-26T17:03:45.039Z</time></trkpt><trkpt lat="46.430995" lon="12.377875"><ele>876.0</ele><time>2026-04-26T17:03:46.041Z</time></trkpt><trkpt lat="46.4309183" lon="12.37783"><ele>876.0</ele><time>2026-04-26T17:03:47.037Z</time></trkpt><trkpt lat="46.4308533" lon="12.377775"><ele>876.0</ele><time>2026-04-26T17:03:48.042Z</time></trkpt><trkpt lat="46.430795" lon="12.3776983"><ele>876.0</ele><time>2026-04-26T17:03:49.039Z</time></trkpt><trkpt lat="46.4307467" lon="12.3776033"><ele>876.0</ele><time>2026-04-26T17:03:50.039Z</time></trkpt><trkpt lat="46.4306917" lon="12.3775117"><ele>876.0</ele><time>2026-04-26T17:03:51.039Z</time></trkpt><trkpt lat="46.4306233" lon="12.3774267"><ele>876.0</ele><time>2026-04-26T17:03:52.037Z</time></trkpt><trkpt lat="46.43055" lon="12.3773483"><ele>875.9999999999999</ele><time>2026-04-26T17:03:53.034Z</time></trkpt><trkpt lat="46.4304733" lon="12.3772683"><ele>875.9999999999999</ele><time>2026-04-26T17:03:54.036Z</time></trkpt><trkpt lat="46.4303933" lon="12.3771917"><ele>876.0</ele><time>2026-04-26T17:03:55.04Z</time></trkpt><trkpt lat="46.4303083" lon="12.3771167"><ele>876.0</ele><time>2026-04-26T17:03:56.041Z</time></trkpt><trkpt lat="46.43022" lon="12.3770433"><ele>877.1999999999999</ele><time>2026-04-26T17:03:57.037Z</time></trkpt><trkpt lat="46.43013" lon="12.3769717"><ele>878.3999999999999</ele><time>2026-04-26T17:03:58.036Z</time></trkpt><trkpt lat="46.430035" lon="12.37692"><ele>879.6</ele><time>2026-04-26T17:03:59.034Z</time></trkpt><trkpt lat="46.429935" lon="12.3768767"><ele>880.8</ele><time>2026-04-26T17:04:00.039Z</time></trkpt><trkpt lat="46.42983" lon="12.3768467"><ele>882.0</ele><time>2026-04-26T17:04:01.042Z</time></trkpt><trkpt lat="46.4297183" lon="12.3768217"><ele>881.75</ele><time>2026-04-26T17:04:02.04Z</time></trkpt><trkpt lat="46.429605" lon="12.3767983"><ele>881.5</ele><time>2026-04-26T17:04:03.038Z</time></trkpt><trkpt lat="46.4294967" lon="12.3767583"><ele>881.25</ele><time>2026-04-26T17:04:04.04Z</time></trkpt><trkpt lat="46.4293917" lon="12.3767033"><ele>881.0</ele><time>2026-04-26T17:04:05.039Z</time></trkpt><trkpt lat="46.42929" lon="12.37663"><ele>881.0</ele><time>2026-04-26T17:04:06.037Z</time></trkpt><trkpt lat="46.429195" lon="12.3765583"><ele>880.9999999999999</ele><time>2026-04-26T17:04:07.036Z</time></trkpt><trkpt lat="46.4291083" lon="12.3764867"><ele>880.9999999999999</ele><time>2026-04-26T17:04:08.039Z</time></trkpt><trkpt lat="46.4290283" lon="12.37641"><ele>881.0</ele><time>2026-04-26T17:04:09.038Z</time></trkpt><trkpt lat="46.4289567" lon="12.3763217"><ele>881.0</ele><time>2026-04-26T17:04:10.037Z</time></trkpt><trkpt lat="46.4288833" lon="12.3762467"><ele>881.3333333333334</ele><time>2026-04-26T17:04:11.04Z</time></trkpt><trkpt lat="46.4288117" lon="12.376165"><ele>881.6666666666667</ele><time>2026-04-26T17:04:12.041Z</time></trkpt><trkpt lat="46.4287417" lon="12.3760933"><ele>882.0</ele><time>2026-04-26T17:04:13.038Z</time></trkpt><trkpt lat="46.4286767" lon="12.3760267"><ele>882.3333333333333</ele><time>2026-04-26T17:04:14.041Z</time></trkpt><trkpt lat="46.4286133" lon="12.37596"><ele>882.6666666666666</ele><time>2026-04-26T17:04:15.039Z</time></trkpt><trkpt lat="46.4285617" lon="12.37588"><ele>883.0</ele><time>2026-04-26T17:04:16.036Z</time></trkpt><trkpt lat="46.428525" lon="12.3757917"><ele>882.9999999999999</ele><time>2026-04-26T17:04:17.039Z</time></trkpt><trkpt lat="46.4285117" lon="12.3756817"><ele>883.0</ele><time>2026-04-26T17:04:18.041Z</time></trkpt><trkpt lat="46.42851" lon="12.3755817"><ele>883.0</ele><time>2026-04-26T17:04:19.039Z</time></trkpt><trkpt lat="46.4285333" lon="12.3753967"><ele>883.0</ele><time>2026-04-26T17:04:21.036Z</time></trkpt><trkpt lat="46.4285483" lon="12.375305"><ele>882.9999999999999</ele><time>2026-04-26T17:04:22.038Z</time></trkpt><trkpt lat="46.4285483" lon="12.3751917"><ele>883.0</ele><time>2026-04-26T17:04:23.042Z</time></trkpt><trkpt lat="46.4285333" lon="12.3750883"><ele>882.3333333333333</ele><time>2026-04-26T17:04:24.041Z</time></trkpt><trkpt lat="46.4285283" lon="12.374985"><ele>881.6666666666666</ele><time>2026-04-26T17:04:25.039Z</time></trkpt><trkpt lat="46.4285383" lon="12.3748767"><ele>881.0</ele><time>2026-04-26T17:04:26.042Z</time></trkpt><trkpt lat="46.4285617" lon="12.374765"><ele>880.3333333333333</ele><time>2026-04-26T17:04:27.038Z</time></trkpt><trkpt lat="46.4286" lon="12.3746517"><ele>879.6666666666666</ele><time>2026-04-26T17:04:28.038Z</time></trkpt><trkpt lat="46.4286483" lon="12.374535"><ele>879.0</ele><time>2026-04-26T17:04:29.04Z</time></trkpt><trkpt lat="46.4286883" lon="12.3744033"><ele>879.8000000000001</ele><time>2026-04-26T17:04:30.04Z</time></trkpt><trkpt lat="46.4287267" lon="12.3742667"><ele>880.6000000000001</ele><time>2026-04-26T17:04:31.04Z</time></trkpt><trkpt lat="46.4287667" lon="12.3741417"><ele>881.4</ele><time>2026-04-26T17:04:32.041Z</time></trkpt><trkpt lat="46.4287983" lon="12.3740117"><ele>882.2</ele><time>2026-04-26T17:04:33.039Z</time></trkpt><trkpt lat="46.4288283" lon="12.3738883"><ele>883.0</ele><time>2026-04-26T17:04:34.037Z</time></trkpt><trkpt lat="46.4288533" lon="12.3737617"><ele>883.0</ele><time>2026-04-26T17:04:35.039Z</time></trkpt><trkpt lat="46.4288467" lon="12.3736433"><ele>883.0</ele><time>2026-04-26T17:04:36.041Z</time></trkpt><trkpt lat="46.4288067" lon="12.3735267"><ele>883.0</ele><time>2026-04-26T17:04:37.041Z</time></trkpt><trkpt lat="46.4287433" lon="12.373425"><ele>883.0</ele><time>2026-04-26T17:04:38.04Z</time></trkpt><trkpt lat="46.4286483" lon="12.3733433"><ele>883.0</ele><time>2026-04-26T17:04:39.041Z</time></trkpt><trkpt lat="46.42856" lon="12.3732617"><ele>881.2</ele><time>2026-04-26T17:04:40.04Z</time></trkpt><trkpt lat="46.4284683" lon="12.37318"><ele>879.4</ele><time>2026-04-26T17:04:41.04Z</time></trkpt><trkpt lat="46.4283783" lon="12.37309"><ele>877.6000000000001</ele><time>2026-04-26T17:04:42.043Z</time></trkpt><trkpt lat="46.4282933" lon="12.3729883"><ele>875.8000000000001</ele><time>2026-04-26T17:04:43.04Z</time></trkpt><trkpt lat="46.4282083" lon="12.3728833"><ele>874.0</ele><time>2026-04-26T17:04:44.041Z</time></trkpt><trkpt lat="46.4281267" lon="12.3727833"><ele>874.6</ele><time>2026-04-26T17:04:45.042Z</time></trkpt><trkpt lat="46.4280433" lon="12.3726883"><ele>875.2</ele><time>2026-04-26T17:04:46.038Z</time></trkpt><trkpt lat="46.4279617" lon="12.372595"><ele>875.8000000000001</ele><time>2026-04-26T17:04:47.04Z</time></trkpt><trkpt lat="46.427875" lon="12.3725033"><ele>876.4000000000001</ele><time>2026-04-26T17:04:48.042Z</time></trkpt><trkpt lat="46.4277933" lon="12.3724133"><ele>877.0</ele><time>2026-04-26T17:04:49.04Z</time></trkpt><trkpt lat="46.4277083" lon="12.3723217"><ele>877.0</ele><time>2026-04-26T17:04:50.041Z</time></trkpt><trkpt lat="46.4276233" lon="12.3722233"><ele>877.0</ele><time>2026-04-26T17:04:51.039Z</time></trkpt><trkpt lat="46.42754" lon="12.3721283"><ele>877.0</ele><time>2026-04-26T17:04:52.04Z</time></trkpt><trkpt lat="46.427455" lon="12.3720283"><ele>877.0</ele><time>2026-04-26T17:04:53.042Z</time></trkpt><trkpt lat="46.427365" lon="12.371925"><ele>877.0</ele><time>2026-04-26T17:04:54.041Z</time></trkpt><trkpt lat="46.427285" lon="12.371805"><ele>877.25</ele><time>2026-04-26T17:04:55.04Z</time></trkpt><trkpt lat="46.4272117" lon="12.37168"><ele>877.5</ele><time>2026-04-26T17:04:56.043Z</time></trkpt><trkpt lat="46.4271367" lon="12.3715567"><ele>877.75</ele><time>2026-04-26T17:04:57.036Z</time></trkpt><trkpt lat="46.4270567" lon="12.3714367"><ele>878.0</ele><time>2026-04-26T17:04:58.036Z</time></trkpt><trkpt lat="46.4269883" lon="12.371295"><ele>878.0</ele><time>2026-04-26T17:04:59.038Z</time></trkpt><trkpt lat="46.4269167" lon="12.3711433"><ele>878.0</ele><time>2026-04-26T17:05:00.038Z</time></trkpt><trkpt lat="46.4268583" lon="12.37097"><ele>878.0</ele><time>2026-04-26T17:05:01.034Z</time></trkpt><trkpt lat="46.426815" lon="12.37078"><ele>878.0</ele><time>2026-04-26T17:05:02.039Z</time></trkpt><trkpt lat="46.42678" lon="12.3705833"><ele>878.75</ele><time>2026-04-26T17:05:03.035Z</time></trkpt><trkpt lat="46.426755" lon="12.37039"><ele>879.5</ele><time>2026-04-26T17:05:04.037Z</time></trkpt><trkpt lat="46.4267367" lon="12.3701817"><ele>880.25</ele><time>2026-04-26T17:05:05.039Z</time></trkpt><trkpt lat="46.4266983" lon="12.36999"><ele>881.0</ele><time>2026-04-26T17:05:06.038Z</time></trkpt><trkpt lat="46.4266567" lon="12.36979"><ele>882.3333333333334</ele><time>2026-04-26T17:05:07.039Z</time></trkpt><trkpt lat="46.4266083" lon="12.369585"><ele>883.6666666666667</ele><time>2026-04-26T17:05:08.042Z</time></trkpt><trkpt lat="46.4265467" lon="12.369385"><ele>885.0</ele><time>2026-04-26T17:05:09.039Z</time></trkpt><trkpt lat="46.4264833" lon="12.3691867"><ele>885.0</ele><time>2026-04-26T17:05:10.033Z</time></trkpt><trkpt lat="46.4264233" lon="12.36897"><ele>885.0</ele><time>2026-04-26T17:05:11.039Z</time></trkpt><trkpt lat="46.4263667" lon="12.368745"><ele>885.0</ele><time>2026-04-26T17:05:12.04Z</time></trkpt><trkpt lat="46.4263133" lon="12.3685167"><ele>877.3333333333333</ele><time>2026-04-26T17:05:13.04Z</time></trkpt><trkpt lat="46.4262533" lon="12.3682917"><ele>869.6666666666666</ele><time>2026-04-26T17:05:14.043Z</time></trkpt><trkpt lat="46.4262033" lon="12.3680567"><ele>862.0</ele><time>2026-04-26T17:05:15.041Z</time></trkpt><trkpt lat="46.4261633" lon="12.3678117"><ele>862.0</ele><time>2026-04-26T17:05:16.041Z</time></trkpt><trkpt lat="46.4261367" lon="12.3675633"><ele>862.0</ele><time>2026-04-26T17:05:17.04Z</time></trkpt><trkpt lat="46.4261117" lon="12.3673367"><ele>862.0</ele><time>2026-04-26T17:05:18.04Z</time></trkpt><trkpt lat="46.4261083" lon="12.367105"><ele>860.6666666666666</ele><time>2026-04-26T17:05:19.04Z</time></trkpt><trkpt lat="46.4261267" lon="12.36688"><ele>859.3333333333333</ele><time>2026-04-26T17:05:20.042Z</time></trkpt><trkpt lat="46.4261517" lon="12.3666617"><ele>858.0</ele><time>2026-04-26T17:05:21.036Z</time></trkpt><trkpt lat="46.426185" lon="12.3664467"><ele>856.5</ele><time>2026-04-26T17:05:22.037Z</time></trkpt><trkpt lat="46.426225" lon="12.3662383"><ele>855.0</ele><time>2026-04-26T17:05:23.04Z</time></trkpt><trkpt lat="46.4262533" lon="12.3660383"><ele>853.5</ele><time>2026-04-26T17:05:24.041Z</time></trkpt><trkpt lat="46.4262683" lon="12.3658317"><ele>852.0</ele><time>2026-04-26T17:05:25.038Z</time></trkpt><trkpt lat="46.42627" lon="12.3656317"><ele>852.25</ele><time>2026-04-26T17:05:26.041Z</time></trkpt><trkpt lat="46.426275" lon="12.3654333"><ele>852.5</ele><time>2026-04-26T17:05:27.042Z</time></trkpt><trkpt lat="46.426285" lon="12.365235"><ele>852.75</ele><time>2026-04-26T17:05:28.036Z</time></trkpt><trkpt lat="46.426295" lon="12.3650383"><ele>853.0</ele><time>2026-04-26T17:05:29.04Z</time></trkpt><trkpt lat="46.4263" lon="12.3648483"><ele>853.0</ele><time>2026-04-26T17:05:30.042Z</time></trkpt><trkpt lat="46.426305" lon="12.3646667"><ele>853.0</ele><time>2026-04-26T17:05:31.036Z</time></trkpt><trkpt lat="46.4263117" lon="12.3644933"><ele>853.0</ele><time>2026-04-26T17:05:32.041Z</time></trkpt><trkpt lat="46.4263217" lon="12.3643383"><ele>853.0</ele><time>2026-04-26T17:05:33.04Z</time></trkpt><trkpt lat="46.426325" lon="12.3642017"><ele>853.0</ele><time>2026-04-26T17:05:34.036Z</time></trkpt><trkpt lat="46.4263183" lon="12.3640967"><ele>856.4</ele><time>2026-04-26T17:05:35.04Z</time></trkpt><trkpt lat="46.4263167" lon="12.3639217"><ele>859.8</ele><time>2026-04-26T17:05:37.039Z</time></trkpt><trkpt lat="46.4263717" lon="12.3638133"><ele>863.2</ele><time>2026-04-26T17:05:39.042Z</time></trkpt><trkpt lat="46.426505" lon="12.3637683"><ele>866.6</ele><time>2026-04-26T17:05:41.042Z</time></trkpt><trkpt lat="46.426585" lon="12.363755"><ele>870.0</ele><time>2026-04-26T17:05:42.04Z</time></trkpt><trkpt lat="46.426655" lon="12.3637283"><ele>870.0</ele><time>2026-04-26T17:05:43.04Z</time></trkpt><trkpt lat="46.4267167" lon="12.3637017"><ele>870.0</ele><time>2026-04-26T17:05:44.042Z</time></trkpt><trkpt lat="46.4267767" lon="12.3636683"><ele>870.0</ele><time>2026-04-26T17:05:45.04Z</time></trkpt><trkpt lat="46.4268833" lon="12.3636167"><ele>870.0</ele><time>2026-04-26T17:05:47.038Z</time></trkpt><trkpt lat="46.4269633" lon="12.3635867"><ele>870.0</ele><time>2026-04-26T17:05:49.038Z</time></trkpt><trkpt lat="46.4268983" lon="12.3636317"><ele>870.0</ele><time>2026-04-26T17:06:28.042Z</time></trkpt><trkpt lat="46.426965" lon="12.3635367"><ele>870.0</ele><time>2026-04-26T17:06:47.04Z</time></trkpt><trkpt lat="46.42705" lon="12.3635283"><ele>870.0</ele><time>2026-04-26T17:06:49.041Z</time></trkpt><trkpt lat="46.4271617" lon="12.3635317"><ele>870.0</ele><time>2026-04-26T17:06:51.037Z</time></trkpt><trkpt lat="46.4272267" lon="12.3635617"><ele>870.0</ele><time>2026-04-26T17:06:53.041Z</time></trkpt><trkpt lat="46.4271817" lon="12.3634483"><ele>870.0</ele><time>2026-04-26T17:09:44.04Z</time></trkpt><trkpt lat="46.4271183" lon="12.3634767"><ele>870.0</ele><time>2026-04-26T17:09:46.036Z</time></trkpt><trkpt lat="46.426985" lon="12.363565"><ele>870.0</ele><time>2026-04-26T17:09:48.041Z</time></trkpt><trkpt lat="46.4268917" lon="12.36362"><ele>870.0</ele><time>2026-04-26T17:09:49.042Z</time></trkpt><trkpt lat="46.4267983" lon="12.3636733"><ele>870.0</ele><time>2026-04-26T17:09:50.04Z</time></trkpt><trkpt lat="46.4266983" lon="12.3637267"><ele>870.0</ele><time>2026-04-26T17:09:51.04Z</time></trkpt><trkpt lat="46.4265917" lon="12.3637767"><ele>870.0</ele><time>2026-04-26T17:09:52.034Z</time></trkpt><trkpt lat="46.4265" lon="12.3638217"><ele>870.0</ele><time>2026-04-26T17:09:53.039Z</time></trkpt><trkpt lat="46.42642" lon="12.3638583"><ele>870.0</ele><time>2026-04-26T17:09:54.044Z</time></trkpt><trkpt lat="46.4263583" lon="12.3638867"><ele>870.0</ele><time>2026-04-26T17:09:55.04Z</time></trkpt><trkpt lat="46.4262817" lon="12.363935"><ele>870.0</ele><time>2026-04-26T17:09:57.041Z</time></trkpt><trkpt lat="46.426245" lon="12.3640667"><ele>870.0</ele><time>2026-04-26T17:09:59.05Z</time></trkpt><trkpt lat="46.4262417" lon="12.364175"><ele>870.0</ele><time>2026-04-26T17:10:00.042Z</time></trkpt><trkpt lat="46.42624" lon="12.3643067"><ele>866.6</ele><time>2026-04-26T17:10:01.036Z</time></trkpt><trkpt lat="46.42624" lon="12.3644433"><ele>863.2</ele><time>2026-04-26T17:10:02.044Z</time></trkpt><trkpt lat="46.4262333" lon="12.3645967"><ele>859.8</ele><time>2026-04-26T17:10:03.037Z</time></trkpt><trkpt lat="46.42624" lon="12.3647617"><ele>856.4</ele><time>2026-04-26T17:10:04.043Z</time></trkpt><trkpt lat="46.4262433" lon="12.3649183"><ele>853.0</ele><time>2026-04-26T17:10:05.037Z</time></trkpt><trkpt lat="46.42624" lon="12.3650733"><ele>853.0</ele><time>2026-04-26T17:10:06.034Z</time></trkpt><trkpt lat="46.426235" lon="12.3652183"><ele>853.0</ele><time>2026-04-26T17:10:07.034Z</time></trkpt><trkpt lat="46.4262333" lon="12.365415"><ele>853.0</ele><time>2026-04-26T17:10:09.037Z</time></trkpt><trkpt lat="46.4262117" lon="12.3655917"><ele>853.0</ele><time>2026-04-26T17:10:11.026Z</time></trkpt><trkpt lat="46.426205" lon="12.3657017"><ele>853.0</ele><time>2026-04-26T17:10:12.026Z</time></trkpt><trkpt lat="46.4262067" lon="12.3658317"><ele>852.0</ele><time>2026-04-26T17:10:13.028Z</time></trkpt><trkpt lat="46.4262033" lon="12.3659617"><ele>852.0</ele><time>2026-04-26T17:10:14.034Z</time></trkpt></trkseg></trk></gpx>